<?xml version='1.0' encoding='UTF-8'?><gpx version="1.1" creator="JPX - https://github.com/jenetics/jpx" xmlns="http://www.topografix.com/GPX/1/1"><trk><trkseg><trkpt lat="44.822235" lon="9.4992167"><ele>192.0</ele><time>2026-04-11T07:30:47.001Z</time></trkpt><trkpt lat="44.822185" lon="9.4991167"><ele>192.0</ele><time>2026-04-11T07:30:52.001Z</time></trkpt><trkpt lat="44.8221167" lon="9.49903"><ele>192.0</ele><time>2026-04-11T07:30:55.002Z</time></trkpt><trkpt lat="44.8220533" lon="9.498945"><ele>192.0</ele><time>2026-04-11T07:30:58.002Z</time></trkpt><trkpt lat="44.8220083" lon="9.49883"><ele>192.0</ele><time>2026-04-11T07:31:01.002Z</time></trkpt><trkpt lat="44.821975" lon="9.49875"><ele>192.0</ele><time>2026-04-11T07:31:03.001Z</time></trkpt><trkpt lat="44.821925" lon="9.498635"><ele>192.16666666666666</ele><time>2026-04-11T07:31:06.003Z</time></trkpt><trkpt lat="44.821885" lon="9.49854"><ele>192.33333333333331</ele><time>2026-04-11T07:31:08.001Z</time></trkpt><trkpt lat="44.82184" lon="9.498425"><ele>192.5</ele><time>2026-04-11T07:31:10.001Z</time></trkpt><trkpt lat="44.8218033" lon="9.4983283"><ele>192.66666666666666</ele><time>2026-04-11T07:31:12.001Z</time></trkpt><trkpt lat="44.8217617" lon="9.4982167"><ele>192.83333333333331</ele><time>2026-04-11T07:31:14.001Z</time></trkpt><trkpt lat="44.8217233" lon="9.4980783"><ele>193.0</ele><time>2026-04-11T07:31:16.002Z</time></trkpt><trkpt lat="44.8217033" lon="9.4979933"><ele>192.99999999999997</ele><time>2026-04-11T07:31:17.002Z</time></trkpt><trkpt lat="44.8216817" lon="9.4978967"><ele>193.0</ele><time>2026-04-11T07:31:18.001Z</time></trkpt><trkpt lat="44.8216583" lon="9.497775"><ele>193.0</ele><time>2026-04-11T07:31:19.002Z</time></trkpt><trkpt lat="44.8216333" lon="9.4976633"><ele>193.0</ele><time>2026-04-11T07:31:20.002Z</time></trkpt><trkpt lat="44.8216117" lon="9.49755"><ele>192.99999999999997</ele><time>2026-04-11T07:31:21.002Z</time></trkpt><trkpt lat="44.8215867" lon="9.4974217"><ele>193.0</ele><time>2026-04-11T07:31:22.001Z</time></trkpt><trkpt lat="44.8215617" lon="9.4972967"><ele>193.00000000000003</ele><time>2026-04-11T07:31:23Z</time></trkpt><trkpt lat="44.8215383" lon="9.4971733"><ele>193.0</ele><time>2026-04-11T07:31:24.003Z</time></trkpt><trkpt lat="44.82152" lon="9.4970617"><ele>193.0</ele><time>2026-04-11T07:31:25.002Z</time></trkpt><trkpt lat="44.8215067" lon="9.496965"><ele>193.0</ele><time>2026-04-11T07:31:26.001Z</time></trkpt><trkpt lat="44.821495" lon="9.4968733"><ele>193.0</ele><time>2026-04-11T07:31:27.001Z</time></trkpt><trkpt lat="44.821485" lon="9.496785"><ele>193.00000000000003</ele><time>2026-04-11T07:31:28.001Z</time></trkpt><trkpt lat="44.821475" lon="9.496695"><ele>193.0</ele><time>2026-04-11T07:31:29.001Z</time></trkpt><trkpt lat="44.8214633" lon="9.4966"><ele>193.2</ele><time>2026-04-11T07:31:30.003Z</time></trkpt><trkpt lat="44.8214517" lon="9.4965067"><ele>193.4</ele><time>2026-04-11T07:31:31.003Z</time></trkpt><trkpt lat="44.8214283" lon="9.496335"><ele>193.6</ele><time>2026-04-11T07:31:33.003Z</time></trkpt><trkpt lat="44.8214167" lon="9.496245"><ele>193.79999999999998</ele><time>2026-04-11T07:31:34.004Z</time></trkpt><trkpt lat="44.8214" lon="9.4960767"><ele>194.0</ele><time>2026-04-11T07:31:36.004Z</time></trkpt><trkpt lat="44.821395" lon="9.4959083"><ele>194.0</ele><time>2026-04-11T07:31:38.003Z</time></trkpt><trkpt lat="44.821385" lon="9.4958167"><ele>194.0</ele><time>2026-04-11T07:31:39.004Z</time></trkpt><trkpt lat="44.82132" lon="9.4956483"><ele>194.0</ele><time>2026-04-11T07:31:41.003Z</time></trkpt><trkpt lat="44.821265" lon="9.495555"><ele>194.0</ele><time>2026-04-11T07:31:42.002Z</time></trkpt><trkpt lat="44.82121" lon="9.4954617"><ele>194.0</ele><time>2026-04-11T07:31:43.003Z</time></trkpt><trkpt lat="44.8211617" lon="9.495365"><ele>193.85714285714286</ele><time>2026-04-11T07:31:44.003Z</time></trkpt><trkpt lat="44.82112" lon="9.495265"><ele>193.71428571428572</ele><time>2026-04-11T07:31:45.003Z</time></trkpt><trkpt lat="44.8210833" lon="9.4951583"><ele>193.57142857142858</ele><time>2026-04-11T07:31:46.004Z</time></trkpt><trkpt lat="44.8210583" lon="9.49506"><ele>193.42857142857144</ele><time>2026-04-11T07:31:47.002Z</time></trkpt><trkpt lat="44.8210333" lon="9.4949683"><ele>193.28571428571428</ele><time>2026-04-11T07:31:48.003Z</time></trkpt><trkpt lat="44.8210083" lon="9.4948817"><ele>193.14285714285717</ele><time>2026-04-11T07:31:49.003Z</time></trkpt><trkpt lat="44.8209767" lon="9.4947917"><ele>193.0</ele><time>2026-04-11T07:31:50.002Z</time></trkpt><trkpt lat="44.8209267" lon="9.49464"><ele>193.2</ele><time>2026-04-11T07:31:52.002Z</time></trkpt><trkpt lat="44.82088" lon="9.4945033"><ele>193.4</ele><time>2026-04-11T07:31:54.004Z</time></trkpt><trkpt lat="44.8208167" lon="9.4943433"><ele>193.6</ele><time>2026-04-11T07:31:56.002Z</time></trkpt><trkpt lat="44.820785" lon="9.4942567"><ele>193.79999999999998</ele><time>2026-04-11T07:31:57.003Z</time></trkpt><trkpt lat="44.820755" lon="9.4941633"><ele>194.0</ele><time>2026-04-11T07:31:58.003Z</time></trkpt><trkpt lat="44.820715" lon="9.494"><ele>194.00000000000003</ele><time>2026-04-11T07:32:00.002Z</time></trkpt><trkpt lat="44.82069" lon="9.4939033"><ele>194.0</ele><time>2026-04-11T07:32:01.002Z</time></trkpt><trkpt lat="44.8206633" lon="9.4937967"><ele>194.0</ele><time>2026-04-11T07:32:02.003Z</time></trkpt><trkpt lat="44.82064" lon="9.4936933"><ele>194.0</ele><time>2026-04-11T07:32:03.004Z</time></trkpt><trkpt lat="44.82062" lon="9.4936017"><ele>194.00000000000003</ele><time>2026-04-11T07:32:04.004Z</time></trkpt><trkpt lat="44.8205867" lon="9.4934467"><ele>194.0</ele><time>2026-04-11T07:32:06.003Z</time></trkpt><trkpt lat="44.8205583" lon="9.4933317"><ele>194.00000000000003</ele><time>2026-04-11T07:32:08.003Z</time></trkpt><trkpt lat="44.8205133" lon="9.4932033"><ele>194.0</ele><time>2026-04-11T07:32:10.003Z</time></trkpt><trkpt lat="44.8204733" lon="9.4931317"><ele>194.0</ele><time>2026-04-11T07:32:11.001Z</time></trkpt><trkpt lat="44.8204333" lon="9.4930517"><ele>194.0</ele><time>2026-04-11T07:32:12.001Z</time></trkpt><trkpt lat="44.8203917" lon="9.49296"><ele>194.00000000000003</ele><time>2026-04-11T07:32:13.002Z</time></trkpt><trkpt lat="44.820355" lon="9.4928617"><ele>194.0</ele><time>2026-04-11T07:32:14.004Z</time></trkpt><trkpt lat="44.8203233" lon="9.4927583"><ele>194.00000000000003</ele><time>2026-04-11T07:32:15.003Z</time></trkpt><trkpt lat="44.820295" lon="9.4926517"><ele>194.0</ele><time>2026-04-11T07:32:16.002Z</time></trkpt><trkpt lat="44.8202683" lon="9.492535"><ele>194.0</ele><time>2026-04-11T07:32:17.003Z</time></trkpt><trkpt lat="44.8202417" lon="9.4924167"><ele>194.0</ele><time>2026-04-11T07:32:18.002Z</time></trkpt><trkpt lat="44.8202183" lon="9.4923017"><ele>194.00000000000003</ele><time>2026-04-11T07:32:19.002Z</time></trkpt><trkpt lat="44.82019" lon="9.492185"><ele>194.0</ele><time>2026-04-11T07:32:20.001Z</time></trkpt><trkpt lat="44.8201583" lon="9.492075"><ele>194.16666666666669</ele><time>2026-04-11T07:32:21.002Z</time></trkpt><trkpt lat="44.8201217" lon="9.4919683"><ele>194.33333333333334</ele><time>2026-04-11T07:32:22.001Z</time></trkpt><trkpt lat="44.8200767" lon="9.4918667"><ele>194.5</ele><time>2026-04-11T07:32:23.001Z</time></trkpt><trkpt lat="44.820035" lon="9.491765"><ele>194.66666666666669</ele><time>2026-04-11T07:32:24.002Z</time></trkpt><trkpt lat="44.8199917" lon="9.4916583"><ele>194.83333333333334</ele><time>2026-04-11T07:32:25.002Z</time></trkpt><trkpt lat="44.8199517" lon="9.4915517"><ele>195.0</ele><time>2026-04-11T07:32:26.002Z</time></trkpt><trkpt lat="44.8199167" lon="9.4914417"><ele>195.0</ele><time>2026-04-11T07:32:27.002Z</time></trkpt><trkpt lat="44.8198883" lon="9.4913233"><ele>195.0</ele><time>2026-04-11T07:32:28.001Z</time></trkpt><trkpt lat="44.8198617" lon="9.491195"><ele>195.0</ele><time>2026-04-11T07:32:29.001Z</time></trkpt><trkpt lat="44.819835" lon="9.4910633"><ele>195.0</ele><time>2026-04-11T07:32:30.002Z</time></trkpt><trkpt lat="44.8198117" lon="9.4909317"><ele>195.0</ele><time>2026-04-11T07:32:31.002Z</time></trkpt><trkpt lat="44.8197967" lon="9.4908"><ele>195.33333333333334</ele><time>2026-04-11T07:32:32.001Z</time></trkpt><trkpt lat="44.8197833" lon="9.49067"><ele>195.66666666666669</ele><time>2026-04-11T07:32:33.002Z</time></trkpt><trkpt lat="44.8197733" lon="9.4905467"><ele>196.0</ele><time>2026-04-11T07:32:34.003Z</time></trkpt><trkpt lat="44.8197617" lon="9.49043"><ele>196.33333333333334</ele><time>2026-04-11T07:32:35.002Z</time></trkpt><trkpt lat="44.8197483" lon="9.490315"><ele>196.66666666666669</ele><time>2026-04-11T07:32:36.004Z</time></trkpt><trkpt lat="44.8197333" lon="9.4902067"><ele>197.0</ele><time>2026-04-11T07:32:37.003Z</time></trkpt><trkpt lat="44.819725" lon="9.490105"><ele>197.50000000000003</ele><time>2026-04-11T07:32:38.002Z</time></trkpt><trkpt lat="44.8197233" lon="9.49001"><ele>198.0</ele><time>2026-04-11T07:32:39.003Z</time></trkpt><trkpt lat="44.8197617" lon="9.4898617"><ele>198.5</ele><time>2026-04-11T07:32:41.002Z</time></trkpt><trkpt lat="44.8198017" lon="9.4897917"><ele>199.0</ele><time>2026-04-11T07:32:42.003Z</time></trkpt><trkpt lat="44.8198533" lon="9.489715"><ele>199.50000000000003</ele><time>2026-04-11T07:32:43.002Z</time></trkpt><trkpt lat="44.8199" lon="9.4896217"><ele>200.0</ele><time>2026-04-11T07:32:44.002Z</time></trkpt><trkpt lat="44.8199367" lon="9.4895083"><ele>200.33333333333334</ele><time>2026-04-11T07:32:45.002Z</time></trkpt><trkpt lat="44.819965" lon="9.4893967"><ele>200.66666666666669</ele><time>2026-04-11T07:32:46.003Z</time></trkpt><trkpt lat="44.819995" lon="9.4892983"><ele>201.0</ele><time>2026-04-11T07:32:47.003Z</time></trkpt><trkpt lat="44.820085" lon="9.4892283"><ele>201.33333333333331</ele><time>2026-04-11T07:32:49.003Z</time></trkpt><trkpt lat="44.8201567" lon="9.4892367"><ele>201.66666666666666</ele><time>2026-04-11T07:32:50.003Z</time></trkpt><trkpt lat="44.8202283" lon="9.4892517"><ele>202.0</ele><time>2026-04-11T07:32:51.003Z</time></trkpt><trkpt lat="44.820305" lon="9.4892717"><ele>203.83333333333331</ele><time>2026-04-11T07:32:52.003Z</time></trkpt><trkpt lat="44.820395" lon="9.4892833"><ele>205.66666666666666</ele><time>2026-04-11T07:32:53.001Z</time></trkpt><trkpt lat="44.8204867" lon="9.4892833"><ele>207.5</ele><time>2026-04-11T07:32:54.002Z</time></trkpt><trkpt lat="44.82058" lon="9.4892767"><ele>209.33333333333331</ele><time>2026-04-11T07:32:55.003Z</time></trkpt><trkpt lat="44.8206633" lon="9.48927"><ele>211.16666666666666</ele><time>2026-04-11T07:32:56.002Z</time></trkpt><trkpt lat="44.8207383" lon="9.4892467"><ele>213.0</ele><time>2026-04-11T07:32:57.002Z</time></trkpt><trkpt lat="44.820815" lon="9.4891983"><ele>213.0</ele><time>2026-04-11T07:32:58.003Z</time></trkpt><trkpt lat="44.8208817" lon="9.4891283"><ele>213.0</ele><time>2026-04-11T07:32:59.002Z</time></trkpt><trkpt lat="44.8209583" lon="9.48905"><ele>213.0</ele><time>2026-04-11T07:33:00.004Z</time></trkpt><trkpt lat="44.8210395" lon="9.4889755"><ele>213.0</ele><time>2026-04-11T07:33:01.003Z</time></trkpt><trkpt lat="44.8211136" lon="9.4889135"><ele>213.0</ele><time>2026-04-11T07:33:02.003Z</time></trkpt><trkpt lat="44.8211829" lon="9.4888501"><ele>213.0</ele><time>2026-04-11T07:33:03.005Z</time></trkpt><trkpt lat="44.8212466" lon="9.4887725"><ele>216.0</ele><time>2026-04-11T07:33:04.002Z</time></trkpt><trkpt lat="44.8212959" lon="9.4886833"><ele>219.0</ele><time>2026-04-11T07:33:05.002Z</time></trkpt><trkpt lat="44.8213248" lon="9.4885801"><ele>222.0</ele><time>2026-04-11T07:33:06.001Z</time></trkpt><trkpt lat="44.8213356" lon="9.4884607"><ele>225.0</ele><time>2026-04-11T07:33:07.001Z</time></trkpt><trkpt lat="44.8213349" lon="9.4883153"><ele>228.0</ele><time>2026-04-11T07:33:08.002Z</time></trkpt><trkpt lat="44.8213311" lon="9.4881703"><ele>228.0</ele><time>2026-04-11T07:33:09.001Z</time></trkpt><trkpt lat="44.8213336" lon="9.488032"><ele>228.0</ele><time>2026-04-11T07:33:10.002Z</time></trkpt><trkpt lat="44.8213511" lon="9.4879024"><ele>228.0</ele><time>2026-04-11T07:33:11.002Z</time></trkpt><trkpt lat="44.8213803" lon="9.4877737"><ele>228.0</ele><time>2026-04-11T07:33:12.002Z</time></trkpt><trkpt lat="44.8214183" lon="9.4876505"><ele>228.0</ele><time>2026-04-11T07:33:13.001Z</time></trkpt><trkpt lat="44.8214579" lon="9.4875454"><ele>228.8</ele><time>2026-04-11T07:33:14.002Z</time></trkpt><trkpt lat="44.8215037" lon="9.4874721"><ele>229.60000000000002</ele><time>2026-04-11T07:33:15.002Z</time></trkpt><trkpt lat="44.8216235" lon="9.4874157"><ele>230.39999999999998</ele><time>2026-04-11T07:33:17.002Z</time></trkpt><trkpt lat="44.8217" lon="9.4874246"><ele>231.2</ele><time>2026-04-11T07:33:18.001Z</time></trkpt><trkpt lat="44.8217855" lon="9.4874481"><ele>232.0</ele><time>2026-04-11T07:33:19.001Z</time></trkpt><trkpt lat="44.8218746" lon="9.4874761"><ele>233.33333333333331</ele><time>2026-04-11T07:33:20.001Z</time></trkpt><trkpt lat="44.8219615" lon="9.4874999"><ele>234.66666666666666</ele><time>2026-04-11T07:33:21.002Z</time></trkpt><trkpt lat="44.8220498" lon="9.4875124"><ele>236.0</ele><time>2026-04-11T07:33:22.002Z</time></trkpt><trkpt lat="44.8221389" lon="9.4875102"><ele>237.33333333333331</ele><time>2026-04-11T07:33:23.001Z</time></trkpt><trkpt lat="44.8222274" lon="9.4874912"><ele>238.66666666666666</ele><time>2026-04-11T07:33:24.002Z</time></trkpt><trkpt lat="44.8223131" lon="9.4874612"><ele>240.0</ele><time>2026-04-11T07:33:25.001Z</time></trkpt><trkpt lat="44.8223992" lon="9.487423"><ele>240.0</ele><time>2026-04-11T07:33:26.003Z</time></trkpt><trkpt lat="44.8224897" lon="9.4873817"><ele>240.0</ele><time>2026-04-11T07:33:27.002Z</time></trkpt><trkpt lat="44.8225768" lon="9.4873425"><ele>240.0</ele><time>2026-04-11T07:33:28.002Z</time></trkpt><trkpt lat="44.8226669" lon="9.4872961"><ele>240.0</ele><time>2026-04-11T07:33:29.002Z</time></trkpt><trkpt lat="44.8227633" lon="9.4872375"><ele>240.0</ele><time>2026-04-11T07:33:30.002Z</time></trkpt><trkpt lat="44.8228638" lon="9.4871725"><ele>242.4</ele><time>2026-04-11T07:33:31.003Z</time></trkpt><trkpt lat="44.8229569" lon="9.4871113"><ele>244.8</ele><time>2026-04-11T07:33:32.002Z</time></trkpt><trkpt lat="44.8230411" lon="9.4870579"><ele>247.2</ele><time>2026-04-11T07:33:33.003Z</time></trkpt><trkpt lat="44.8231245" lon="9.4870083"><ele>249.6</ele><time>2026-04-11T07:33:34.002Z</time></trkpt><trkpt lat="44.8232147" lon="9.4869529"><ele>252.0</ele><time>2026-04-11T07:33:35.001Z</time></trkpt><trkpt lat="44.8233057" lon="9.4868997"><ele>252.39999999999998</ele><time>2026-04-11T07:33:36.002Z</time></trkpt><trkpt lat="44.823394" lon="9.4868501"><ele>252.79999999999998</ele><time>2026-04-11T07:33:37.001Z</time></trkpt><trkpt lat="44.8234846" lon="9.48681"><ele>253.2</ele><time>2026-04-11T07:33:38.002Z</time></trkpt><trkpt lat="44.8235711" lon="9.4867818"><ele>253.6</ele><time>2026-04-11T07:33:39.002Z</time></trkpt><trkpt lat="44.8236451" lon="9.4867657"><ele>254.0</ele><time>2026-04-11T07:33:40.001Z</time></trkpt><trkpt lat="44.8237572" lon="9.4867336"><ele>256.8</ele><time>2026-04-11T07:33:42.002Z</time></trkpt><trkpt lat="44.823856" lon="9.4867152"><ele>259.59999999999997</ele><time>2026-04-11T07:33:44.001Z</time></trkpt><trkpt lat="44.8239225" lon="9.4866568"><ele>262.4</ele><time>2026-04-11T07:33:46.001Z</time></trkpt><trkpt lat="44.823907" lon="9.4865522"><ele>265.2</ele><time>2026-04-11T07:33:48.002Z</time></trkpt><trkpt lat="44.8238377" lon="9.4864172"><ele>268.0</ele><time>2026-04-11T07:33:50.002Z</time></trkpt><trkpt lat="44.8237929" lon="9.4863203"><ele>268.66666666666663</ele><time>2026-04-11T07:33:51.001Z</time></trkpt><trkpt lat="44.8237602" lon="9.4862153"><ele>269.3333333333333</ele><time>2026-04-11T07:33:52.001Z</time></trkpt><trkpt lat="44.8237415" lon="9.4860952"><ele>270.0</ele><time>2026-04-11T07:33:53.003Z</time></trkpt><trkpt lat="44.8237298" lon="9.485968"><ele>270.6666666666667</ele><time>2026-04-11T07:33:54.001Z</time></trkpt><trkpt lat="44.8237156" lon="9.4858544"><ele>271.33333333333337</ele><time>2026-04-11T07:33:55.002Z</time></trkpt><trkpt lat="44.8236912" lon="9.4857585"><ele>272.0</ele><time>2026-04-11T07:33:56.001Z</time></trkpt><trkpt lat="44.8236585" lon="9.4856752"><ele>272.0</ele><time>2026-04-11T07:33:57.002Z</time></trkpt><trkpt lat="44.82358" lon="9.4855649"><ele>272.0</ele><time>2026-04-11T07:33:59.002Z</time></trkpt><trkpt lat="44.8234606" lon="9.4855373"><ele>272.0</ele><time>2026-04-11T07:34:01.002Z</time></trkpt><trkpt lat="44.8233908" lon="9.485541"><ele>272.0</ele><time>2026-04-11T07:34:02.003Z</time></trkpt><trkpt lat="44.8233208" lon="9.4855454"><ele>272.0</ele><time>2026-04-11T07:34:03.002Z</time></trkpt><trkpt lat="44.8232423" lon="9.4855344"><ele>269.33333333333337</ele><time>2026-04-11T07:34:04.003Z</time></trkpt><trkpt lat="44.8231644" lon="9.4854966"><ele>266.6666666666667</ele><time>2026-04-11T07:34:05.004Z</time></trkpt><trkpt lat="44.8230932" lon="9.4854415"><ele>264.0</ele><time>2026-04-11T07:34:06.003Z</time></trkpt><trkpt lat="44.8230139" lon="9.4853886"><ele>261.3333333333333</ele><time>2026-04-11T07:34:07.003Z</time></trkpt><trkpt lat="44.8229293" lon="9.485356"><ele>258.66666666666663</ele><time>2026-04-11T07:34:08.003Z</time></trkpt><trkpt lat="44.8228406" lon="9.4853447"><ele>256.0</ele><time>2026-04-11T07:34:09.003Z</time></trkpt><trkpt lat="44.8227472" lon="9.4853535"><ele>255.8</ele><time>2026-04-11T07:34:10.002Z</time></trkpt><trkpt lat="44.8226492" lon="9.4853774"><ele>255.60000000000002</ele><time>2026-04-11T07:34:11.002Z</time></trkpt><trkpt lat="44.8225517" lon="9.4854073"><ele>255.4</ele><time>2026-04-11T07:34:12.003Z</time></trkpt><trkpt lat="44.8224547" lon="9.4854322"><ele>255.2</ele><time>2026-04-11T07:34:13.004Z</time></trkpt><trkpt lat="44.8223632" lon="9.4854363"><ele>255.0</ele><time>2026-04-11T07:34:14.002Z</time></trkpt><trkpt lat="44.8222678" lon="9.4854147"><ele>252.2</ele><time>2026-04-11T07:34:15.002Z</time></trkpt><trkpt lat="44.8221698" lon="9.4853881"><ele>249.4</ele><time>2026-04-11T07:34:16.002Z</time></trkpt><trkpt lat="44.8220782" lon="9.4853595"><ele>246.60000000000002</ele><time>2026-04-11T07:34:17.003Z</time></trkpt><trkpt lat="44.8219911" lon="9.4853224"><ele>243.8</ele><time>2026-04-11T07:34:18.003Z</time></trkpt><trkpt lat="44.8219021" lon="9.4852781"><ele>241.0</ele><time>2026-04-11T07:34:19.004Z</time></trkpt><trkpt lat="44.8218126" lon="9.4852265"><ele>239.66666666666666</ele><time>2026-04-11T07:34:20.002Z</time></trkpt><trkpt lat="44.821728" lon="9.4851706"><ele>238.33333333333331</ele><time>2026-04-11T07:34:21.003Z</time></trkpt><trkpt lat="44.8216445" lon="9.4851149"><ele>237.0</ele><time>2026-04-11T07:34:22.003Z</time></trkpt><trkpt lat="44.8215637" lon="9.4850663"><ele>235.66666666666669</ele><time>2026-04-11T07:34:23.003Z</time></trkpt><trkpt lat="44.8214851" lon="9.4850265"><ele>234.33333333333334</ele><time>2026-04-11T07:34:24.003Z</time></trkpt><trkpt lat="44.8214141" lon="9.4849869"><ele>233.0</ele><time>2026-04-11T07:34:25.003Z</time></trkpt><trkpt lat="44.8213448" lon="9.484931"><ele>233.00000000000003</ele><time>2026-04-11T07:34:26.003Z</time></trkpt><trkpt lat="44.8212754" lon="9.4848611"><ele>233.0</ele><time>2026-04-11T07:34:27.003Z</time></trkpt><trkpt lat="44.82121" lon="9.4847828"><ele>233.0</ele><time>2026-04-11T07:34:28.003Z</time></trkpt><trkpt lat="44.8211493" lon="9.4847046"><ele>233.0</ele><time>2026-04-11T07:34:29.002Z</time></trkpt><trkpt lat="44.8210818" lon="9.4846243"><ele>233.00000000000003</ele><time>2026-04-11T07:34:30.002Z</time></trkpt><trkpt lat="44.8210172" lon="9.4845461"><ele>233.0</ele><time>2026-04-11T07:34:31.004Z</time></trkpt><trkpt lat="44.820959" lon="9.4844739"><ele>230.66666666666669</ele><time>2026-04-11T07:34:32.002Z</time></trkpt><trkpt lat="44.8208946" lon="9.4844106"><ele>228.33333333333334</ele><time>2026-04-11T07:34:33.002Z</time></trkpt><trkpt lat="44.8208301" lon="9.4843499"><ele>226.0</ele><time>2026-04-11T07:34:34.001Z</time></trkpt><trkpt lat="44.8207736" lon="9.4842869"><ele>223.66666666666669</ele><time>2026-04-11T07:34:35.002Z</time></trkpt><trkpt lat="44.8207262" lon="9.4842106"><ele>221.33333333333334</ele><time>2026-04-11T07:34:36.002Z</time></trkpt><trkpt lat="44.8206816" lon="9.4841151"><ele>219.0</ele><time>2026-04-11T07:34:37.001Z</time></trkpt><trkpt lat="44.820635" lon="9.4840054"><ele>219.0</ele><time>2026-04-11T07:34:38.002Z</time></trkpt><trkpt lat="44.8205939" lon="9.4838903"><ele>219.0</ele><time>2026-04-11T07:34:39.002Z</time></trkpt><trkpt lat="44.8205554" lon="9.48378"><ele>219.0</ele><time>2026-04-11T07:34:40.002Z</time></trkpt><trkpt lat="44.8205188" lon="9.4836791"><ele>219.0</ele><time>2026-04-11T07:34:41.002Z</time></trkpt><trkpt lat="44.8204908" lon="9.4835806"><ele>219.0</ele><time>2026-04-11T07:34:42Z</time></trkpt><trkpt lat="44.8204838" lon="9.4834825"><ele>219.0</ele><time>2026-04-11T07:34:43.003Z</time></trkpt><trkpt lat="44.8204903" lon="9.4833136"><ele>218.66666666666666</ele><time>2026-04-11T07:34:45.001Z</time></trkpt><trkpt lat="44.8204553" lon="9.4831449"><ele>218.33333333333331</ele><time>2026-04-11T07:34:47.002Z</time></trkpt><trkpt lat="44.8204248" lon="9.4830515"><ele>218.0</ele><time>2026-04-11T07:34:48.002Z</time></trkpt><trkpt lat="44.820395" lon="9.4829521"><ele>217.66666666666666</ele><time>2026-04-11T07:34:49.001Z</time></trkpt><trkpt lat="44.8203697" lon="9.4828514"><ele>217.33333333333331</ele><time>2026-04-11T07:34:50.002Z</time></trkpt><trkpt lat="44.8203402" lon="9.4827595"><ele>217.0</ele><time>2026-04-11T07:34:51.003Z</time></trkpt><trkpt lat="44.8202615" lon="9.4826379"><ele>216.49999999999997</ele><time>2026-04-11T07:34:53.002Z</time></trkpt><trkpt lat="44.8202009" lon="9.4825574"><ele>216.0</ele><time>2026-04-11T07:34:55.003Z</time></trkpt><trkpt lat="44.8201858" lon="9.4824471"><ele>215.5</ele><time>2026-04-11T07:34:57.003Z</time></trkpt><trkpt lat="44.8201728" lon="9.482321"><ele>215.0</ele><time>2026-04-11T07:34:59.002Z</time></trkpt><trkpt lat="44.8201564" lon="9.482222"><ele>214.49999999999997</ele><time>2026-04-11T07:35:01.001Z</time></trkpt><trkpt lat="44.8200743" lon="9.4821514"><ele>214.0</ele><time>2026-04-11T07:35:04.001Z</time></trkpt><trkpt lat="44.8199945" lon="9.4821463"><ele>213.39999999999998</ele><time>2026-04-11T07:35:06.002Z</time></trkpt><trkpt lat="44.8199123" lon="9.4821517"><ele>212.79999999999998</ele><time>2026-04-11T07:35:08.002Z</time></trkpt><trkpt lat="44.8198197" lon="9.4821233"><ele>212.2</ele><time>2026-04-11T07:35:10.002Z</time></trkpt><trkpt lat="44.8197067" lon="9.4820483"><ele>211.60000000000002</ele><time>2026-04-11T07:35:12.002Z</time></trkpt><trkpt lat="44.8196467" lon="9.48202"><ele>211.0</ele><time>2026-04-11T07:35:13.003Z</time></trkpt><trkpt lat="44.8195317" lon="9.4819583"><ele>210.99999999999997</ele><time>2026-04-11T07:35:15.003Z</time></trkpt><trkpt lat="44.819465" lon="9.48191"><ele>211.0</ele><time>2026-04-11T07:35:16.002Z</time></trkpt><trkpt lat="44.8193983" lon="9.48185"><ele>211.0</ele><time>2026-04-11T07:35:17.001Z</time></trkpt><trkpt lat="44.8193333" lon="9.4817967"><ele>211.0</ele><time>2026-04-11T07:35:18.004Z</time></trkpt><trkpt lat="44.819265" lon="9.48176"><ele>210.99999999999997</ele><time>2026-04-11T07:35:19.003Z</time></trkpt><trkpt lat="44.8191833" lon="9.4817233"><ele>211.0</ele><time>2026-04-11T07:35:20.002Z</time></trkpt><trkpt lat="44.8191117" lon="9.4816817"><ele>210.33333333333331</ele><time>2026-04-11T07:35:21.001Z</time></trkpt><trkpt lat="44.8190517" lon="9.48162"><ele>209.66666666666666</ele><time>2026-04-11T07:35:22.005Z</time></trkpt><trkpt lat="44.8189933" lon="9.4815383"><ele>209.0</ele><time>2026-04-11T07:35:23.001Z</time></trkpt><trkpt lat="44.8189333" lon="9.4814517"><ele>208.33333333333331</ele><time>2026-04-11T07:35:24.002Z</time></trkpt><trkpt lat="44.8188833" lon="9.481355"><ele>207.66666666666666</ele><time>2026-04-11T07:35:25.003Z</time></trkpt><trkpt lat="44.8188383" lon="9.4812533"><ele>207.0</ele><time>2026-04-11T07:35:26.002Z</time></trkpt><trkpt lat="44.8187883" lon="9.48115"><ele>207.0</ele><time>2026-04-11T07:35:27.002Z</time></trkpt><trkpt lat="44.818725" lon="9.4810583"><ele>207.0</ele><time>2026-04-11T07:35:28.001Z</time></trkpt><trkpt lat="44.8186717" lon="9.4809817"><ele>207.0</ele><time>2026-04-11T07:35:29.001Z</time></trkpt><trkpt lat="44.8186067" lon="9.48088"><ele>207.0</ele><time>2026-04-11T07:35:31.002Z</time></trkpt><trkpt lat="44.8185817" lon="9.4807917"><ele>207.0</ele><time>2026-04-11T07:35:33.002Z</time></trkpt><trkpt lat="44.8185183" lon="9.4807183"><ele>207.0</ele><time>2026-04-11T07:35:35.001Z</time></trkpt><trkpt lat="44.81842" lon="9.4806267"><ele>206.0</ele><time>2026-04-11T07:35:37.001Z</time></trkpt><trkpt lat="44.8183633" lon="9.4804867"><ele>205.0</ele><time>2026-04-11T07:35:39.001Z</time></trkpt><trkpt lat="44.81835" lon="9.48031"><ele>204.0</ele><time>2026-04-11T07:35:41.002Z</time></trkpt><trkpt lat="44.81835" lon="9.480125"><ele>203.0</ele><time>2026-04-11T07:35:43.002Z</time></trkpt><trkpt lat="44.8183433" lon="9.48001"><ele>203.00000000000003</ele><time>2026-04-11T07:35:44.001Z</time></trkpt><trkpt lat="44.81833" lon="9.4798883"><ele>203.0</ele><time>2026-04-11T07:35:45.002Z</time></trkpt><trkpt lat="44.8183117" lon="9.4797783"><ele>203.0</ele><time>2026-04-11T07:35:46.001Z</time></trkpt><trkpt lat="44.8182917" lon="9.4796633"><ele>203.0</ele><time>2026-04-11T07:35:47.002Z</time></trkpt><trkpt lat="44.8182717" lon="9.47956"><ele>203.00000000000003</ele><time>2026-04-11T07:35:48.002Z</time></trkpt><trkpt lat="44.8182583" lon="9.4794417"><ele>203.0</ele><time>2026-04-11T07:35:49.003Z</time></trkpt><trkpt lat="44.81825" lon="9.4793233"><ele>203.50000000000003</ele><time>2026-04-11T07:35:50.002Z</time></trkpt><trkpt lat="44.8182367" lon="9.4792117"><ele>204.0</ele><time>2026-04-11T07:35:51.002Z</time></trkpt><trkpt lat="44.81821" lon="9.4790967"><ele>204.5</ele><time>2026-04-11T07:35:52.003Z</time></trkpt><trkpt lat="44.8181733" lon="9.4789967"><ele>205.0</ele><time>2026-04-11T07:35:53.002Z</time></trkpt><trkpt lat="44.81813" lon="9.478895"><ele>205.50000000000003</ele><time>2026-04-11T07:35:54.003Z</time></trkpt><trkpt lat="44.8180783" lon="9.47881"><ele>206.0</ele><time>2026-04-11T07:35:55.002Z</time></trkpt><trkpt lat="44.818015" lon="9.4787383"><ele>206.83333333333334</ele><time>2026-04-11T07:35:56.002Z</time></trkpt><trkpt lat="44.81796" lon="9.478665"><ele>207.66666666666669</ele><time>2026-04-11T07:35:57.002Z</time></trkpt><trkpt lat="44.8179217" lon="9.4785717"><ele>208.5</ele><time>2026-04-11T07:35:58.002Z</time></trkpt><trkpt lat="44.8178883" lon="9.4784833"><ele>209.33333333333331</ele><time>2026-04-11T07:35:59.002Z</time></trkpt><trkpt lat="44.8178567" lon="9.478405"><ele>210.16666666666666</ele><time>2026-04-11T07:36:00.005Z</time></trkpt><trkpt lat="44.8177917" lon="9.4782583"><ele>211.0</ele><time>2026-04-11T07:36:02.001Z</time></trkpt><trkpt lat="44.8177883" lon="9.4780817"><ele>210.99999999999997</ele><time>2026-04-11T07:36:04.002Z</time></trkpt><trkpt lat="44.8178" lon="9.4779817"><ele>211.0</ele><time>2026-04-11T07:36:05.002Z</time></trkpt><trkpt lat="44.81782" lon="9.4778867"><ele>211.0</ele><time>2026-04-11T07:36:06.001Z</time></trkpt><trkpt lat="44.817845" lon="9.4777833"><ele>211.0</ele><time>2026-04-11T07:36:07.002Z</time></trkpt><trkpt lat="44.81787" lon="9.47767"><ele>210.99999999999997</ele><time>2026-04-11T07:36:08.001Z</time></trkpt><trkpt lat="44.8178967" lon="9.4775583"><ele>211.0</ele><time>2026-04-11T07:36:09.001Z</time></trkpt><trkpt lat="44.8179317" lon="9.477465"><ele>211.14285714285714</ele><time>2026-04-11T07:36:10.002Z</time></trkpt><trkpt lat="44.8179733" lon="9.477395"><ele>211.28571428571428</ele><time>2026-04-11T07:36:11.002Z</time></trkpt><trkpt lat="44.8180317" lon="9.4773283"><ele>211.42857142857144</ele><time>2026-04-11T07:36:12.002Z</time></trkpt><trkpt lat="44.818075" lon="9.4772583"><ele>211.57142857142856</ele><time>2026-04-11T07:36:13.001Z</time></trkpt><trkpt lat="44.818115" lon="9.4771517"><ele>211.7142857142857</ele><time>2026-04-11T07:36:15.003Z</time></trkpt><trkpt lat="44.8181567" lon="9.4770783"><ele>211.85714285714286</ele><time>2026-04-11T07:36:17.001Z</time></trkpt><trkpt lat="44.81821" lon="9.476975"><ele>212.0</ele><time>2026-04-11T07:36:20.002Z</time></trkpt><trkpt lat="44.8182717" lon="9.4768717"><ele>210.75</ele><time>2026-04-11T07:36:22.003Z</time></trkpt><trkpt lat="44.81834" lon="9.4767417"><ele>209.5</ele><time>2026-04-11T07:36:24.002Z</time></trkpt><trkpt lat="44.8183833" lon="9.476595"><ele>208.25</ele><time>2026-04-11T07:36:26.001Z</time></trkpt><trkpt lat="44.8184233" lon="9.47646"><ele>207.0</ele><time>2026-04-11T07:36:28.001Z</time></trkpt><trkpt lat="44.8184867" lon="9.476315"><ele>209.2</ele><time>2026-04-11T07:36:30.001Z</time></trkpt><trkpt lat="44.8185617" lon="9.476175"><ele>211.39999999999998</ele><time>2026-04-11T07:36:32.002Z</time></trkpt><trkpt lat="44.8186033" lon="9.4761083"><ele>213.60000000000002</ele><time>2026-04-11T07:36:33.001Z</time></trkpt><trkpt lat="44.818685" lon="9.476"><ele>215.8</ele><time>2026-04-11T07:36:35.003Z</time></trkpt><trkpt lat="44.8187667" lon="9.47593"><ele>218.0</ele><time>2026-04-11T07:36:37.003Z</time></trkpt><trkpt lat="44.8188" lon="9.4758217"><ele>218.00000000000003</ele><time>2026-04-11T07:36:39.003Z</time></trkpt><trkpt lat="44.818775" lon="9.4757283"><ele>218.0</ele><time>2026-04-11T07:36:41.002Z</time></trkpt><trkpt lat="44.8187567" lon="9.4756267"><ele>218.0</ele><time>2026-04-11T07:36:43.002Z</time></trkpt><trkpt lat="44.81875" lon="9.4755383"><ele>218.0</ele><time>2026-04-11T07:36:45.002Z</time></trkpt><trkpt lat="44.8187583" lon="9.4754133"><ele>218.00000000000003</ele><time>2026-04-11T07:36:47.002Z</time></trkpt><trkpt lat="44.8187867" lon="9.475285"><ele>218.0</ele><time>2026-04-11T07:36:49.002Z</time></trkpt><trkpt lat="44.818855" lon="9.47518"><ele>217.2</ele><time>2026-04-11T07:36:51.003Z</time></trkpt><trkpt lat="44.8189167" lon="9.4750717"><ele>216.4</ele><time>2026-04-11T07:36:53.003Z</time></trkpt><trkpt lat="44.818975" lon="9.4749633"><ele>215.59999999999997</ele><time>2026-04-11T07:36:55.002Z</time></trkpt><trkpt lat="44.8190683" lon="9.4748767"><ele>214.79999999999998</ele><time>2026-04-11T07:36:57.003Z</time></trkpt><trkpt lat="44.819165" lon="9.474835"><ele>214.0</ele><time>2026-04-11T07:36:59.002Z</time></trkpt><trkpt lat="44.8192506" lon="9.4747869"><ele>215.83333333333331</ele><time>2026-04-11T07:37:01.003Z</time></trkpt><trkpt lat="44.8193175" lon="9.4747026"><ele>217.66666666666666</ele><time>2026-04-11T07:37:03.004Z</time></trkpt><trkpt lat="44.8193497" lon="9.4746075"><ele>219.5</ele><time>2026-04-11T07:37:05.002Z</time></trkpt><trkpt lat="44.8193745" lon="9.4745163"><ele>221.33333333333331</ele><time>2026-04-11T07:37:07.001Z</time></trkpt><trkpt lat="44.8193701" lon="9.4743802"><ele>223.16666666666666</ele><time>2026-04-11T07:37:10.001Z</time></trkpt><trkpt lat="44.8193756" lon="9.4742535"><ele>225.0</ele><time>2026-04-11T07:37:13.005Z</time></trkpt><trkpt lat="44.819376" lon="9.4741448"><ele>225.0</ele><time>2026-04-11T07:37:15.002Z</time></trkpt><trkpt lat="44.8193521" lon="9.4740032"><ele>225.0</ele><time>2026-04-11T07:37:17.002Z</time></trkpt><trkpt lat="44.8193722" lon="9.4738711"><ele>225.0</ele><time>2026-04-11T07:37:19.001Z</time></trkpt><trkpt lat="44.8194241" lon="9.4737402"><ele>225.0</ele><time>2026-04-11T07:37:21.003Z</time></trkpt><trkpt lat="44.8194839" lon="9.4736151"><ele>225.0</ele><time>2026-04-11T07:37:23.002Z</time></trkpt><trkpt lat="44.8195428" lon="9.4735257"><ele>224.8</ele><time>2026-04-11T07:37:25.002Z</time></trkpt><trkpt lat="44.8196129" lon="9.4734204"><ele>224.6</ele><time>2026-04-11T07:37:27.002Z</time></trkpt><trkpt lat="44.8196786" lon="9.4733249"><ele>224.39999999999998</ele><time>2026-04-11T07:37:29.003Z</time></trkpt><trkpt lat="44.819753" lon="9.4732293"><ele>224.2</ele><time>2026-04-11T07:37:31.002Z</time></trkpt><trkpt lat="44.8198138" lon="9.4730758"><ele>224.0</ele><time>2026-04-11T07:37:33.002Z</time></trkpt><trkpt lat="44.8198385" lon="9.4729926"><ele>223.79999999999998</ele><time>2026-04-11T07:37:34.003Z</time></trkpt><trkpt lat="44.8198575" lon="9.4729074"><ele>223.59999999999997</ele><time>2026-04-11T07:37:35.002Z</time></trkpt><trkpt lat="44.819886" lon="9.4727537"><ele>223.4</ele><time>2026-04-11T07:37:37.002Z</time></trkpt><trkpt lat="44.8199153" lon="9.47259"><ele>223.2</ele><time>2026-04-11T07:37:39.004Z</time></trkpt><trkpt lat="44.8199313" lon="9.4724944"><ele>223.0</ele><time>2026-04-11T07:37:40.001Z</time></trkpt><trkpt lat="44.819937" lon="9.4723421"><ele>223.0</ele><time>2026-04-11T07:37:42.003Z</time></trkpt><trkpt lat="44.8198564" lon="9.4722888"><ele>223.0</ele><time>2026-04-11T07:37:44.002Z</time></trkpt><trkpt lat="44.81979" lon="9.4722667"><ele>223.0</ele><time>2026-04-11T07:37:45.004Z</time></trkpt><trkpt lat="44.8197333" lon="9.4722217"><ele>223.0</ele><time>2026-04-11T07:37:46.003Z</time></trkpt><trkpt lat="44.8196683" lon="9.47217"><ele>223.0</ele><time>2026-04-11T07:37:47.002Z</time></trkpt><trkpt lat="44.819615" lon="9.4721083"><ele>223.0</ele><time>2026-04-11T07:37:48.004Z</time></trkpt><trkpt lat="44.8195717" lon="9.4720333"><ele>223.0</ele><time>2026-04-11T07:37:49.001Z</time></trkpt><trkpt lat="44.819545" lon="9.4719467"><ele>223.0</ele><time>2026-04-11T07:37:50.002Z</time></trkpt><trkpt lat="44.8195383" lon="9.4718567"><ele>223.0</ele><time>2026-04-11T07:37:51.002Z</time></trkpt><trkpt lat="44.8195483" lon="9.4717"><ele>223.0</ele><time>2026-04-11T07:37:53.002Z</time></trkpt><trkpt lat="44.8196" lon="9.4715967"><ele>223.0</ele><time>2026-04-11T07:37:55.003Z</time></trkpt><trkpt lat="44.8196433" lon="9.4714767"><ele>223.0</ele><time>2026-04-11T07:37:57.001Z</time></trkpt><trkpt lat="44.8196183" lon="9.4713283"><ele>222.60000000000002</ele><time>2026-04-11T07:37:59.002Z</time></trkpt><trkpt lat="44.8196033" lon="9.4712367"><ele>222.20000000000002</ele><time>2026-04-11T07:38:00.001Z</time></trkpt><trkpt lat="44.819595" lon="9.471145"><ele>221.8</ele><time>2026-04-11T07:38:01.003Z</time></trkpt><trkpt lat="44.81959" lon="9.47097"><ele>221.4</ele><time>2026-04-11T07:38:03.002Z</time></trkpt><trkpt lat="44.8196117" lon="9.4708133"><ele>221.0</ele><time>2026-04-11T07:38:05.002Z</time></trkpt><trkpt lat="44.8196767" lon="9.4706817"><ele>221.0</ele><time>2026-04-11T07:38:07.002Z</time></trkpt><trkpt lat="44.819755" lon="9.4705867"><ele>221.00000000000003</ele><time>2026-04-11T07:38:09.001Z</time></trkpt><trkpt lat="44.81981" lon="9.470505"><ele>221.00000000000003</ele><time>2026-04-11T07:38:11.003Z</time></trkpt><trkpt lat="44.8198067" lon="9.4703783"><ele>221.0</ele><time>2026-04-11T07:38:13.003Z</time></trkpt><trkpt lat="44.8197667" lon="9.4702583"><ele>221.0</ele><time>2026-04-11T07:38:15.003Z</time></trkpt><trkpt lat="44.81972" lon="9.4701233"><ele>221.14285714285717</ele><time>2026-04-11T07:38:17Z</time></trkpt><trkpt lat="44.8196783" lon="9.46998"><ele>221.28571428571428</ele><time>2026-04-11T07:38:19.003Z</time></trkpt><trkpt lat="44.8196433" lon="9.4699033"><ele>221.42857142857144</ele><time>2026-04-11T07:38:20.001Z</time></trkpt><trkpt lat="44.8196" lon="9.4698283"><ele>221.57142857142858</ele><time>2026-04-11T07:38:21.003Z</time></trkpt><trkpt lat="44.8195733" lon="9.4697417"><ele>221.71428571428572</ele><time>2026-04-11T07:38:22.001Z</time></trkpt><trkpt lat="44.8195583" lon="9.46965"><ele>221.85714285714286</ele><time>2026-04-11T07:38:23.002Z</time></trkpt><trkpt lat="44.8195467" lon="9.4695583"><ele>222.0</ele><time>2026-04-11T07:38:24.002Z</time></trkpt><trkpt lat="44.8195083" lon="9.4694017"><ele>222.39999999999998</ele><time>2026-04-11T07:38:26.002Z</time></trkpt><trkpt lat="44.819435" lon="9.46929"><ele>222.79999999999998</ele><time>2026-04-11T07:38:28.002Z</time></trkpt><trkpt lat="44.8193517" lon="9.469165"><ele>223.2</ele><time>2026-04-11T07:38:30.001Z</time></trkpt><trkpt lat="44.8193167" lon="9.4690833"><ele>223.6</ele><time>2026-04-11T07:38:31.002Z</time></trkpt><trkpt lat="44.8192933" lon="9.4689983"><ele>224.0</ele><time>2026-04-11T07:38:32.002Z</time></trkpt><trkpt lat="44.8192733" lon="9.4688383"><ele>222.33333333333334</ele><time>2026-04-11T07:38:34.001Z</time></trkpt><trkpt lat="44.8192617" lon="9.4687467"><ele>220.66666666666669</ele><time>2026-04-11T07:38:35.002Z</time></trkpt><trkpt lat="44.81925" lon="9.4686567"><ele>219.0</ele><time>2026-04-11T07:38:36.001Z</time></trkpt><trkpt lat="44.8192467" lon="9.468515"><ele>217.33333333333331</ele><time>2026-04-11T07:38:38.003Z</time></trkpt><trkpt lat="44.8192533" lon="9.4683683"><ele>215.66666666666666</ele><time>2026-04-11T07:38:40.001Z</time></trkpt><trkpt lat="44.8192033" lon="9.4682267"><ele>214.0</ele><time>2026-04-11T07:38:42.002Z</time></trkpt><trkpt lat="44.8191667" lon="9.4681467"><ele>214.0</ele><time>2026-04-11T07:38:43.001Z</time></trkpt><trkpt lat="44.819125" lon="9.4680733"><ele>213.99999999999997</ele><time>2026-04-11T07:38:44.001Z</time></trkpt><trkpt lat="44.8190567" lon="9.4679233"><ele>213.99999999999997</ele><time>2026-04-11T07:38:46.001Z</time></trkpt><trkpt lat="44.8190167" lon="9.46778"><ele>214.0</ele><time>2026-04-11T07:38:48.001Z</time></trkpt><trkpt lat="44.8190317" lon="9.4676217"><ele>214.0</ele><time>2026-04-11T07:38:50.002Z</time></trkpt><trkpt lat="44.8190583" lon="9.46748"><ele>214.33333333333331</ele><time>2026-04-11T07:38:52.002Z</time></trkpt><trkpt lat="44.8190667" lon="9.467355"><ele>214.66666666666666</ele><time>2026-04-11T07:38:54.001Z</time></trkpt><trkpt lat="44.81904" lon="9.4672717"><ele>215.0</ele><time>2026-04-11T07:38:56.001Z</time></trkpt><trkpt lat="44.8189633" lon="9.467215"><ele>215.33333333333331</ele><time>2026-04-11T07:38:58.002Z</time></trkpt><trkpt lat="44.8188683" lon="9.467165"><ele>215.66666666666666</ele><time>2026-04-11T07:39:00.001Z</time></trkpt><trkpt lat="44.81877" lon="9.4671233"><ele>216.0</ele><time>2026-04-11T07:39:02.001Z</time></trkpt><trkpt lat="44.8186833" lon="9.4671683"><ele>216.0</ele><time>2026-04-11T07:39:04.001Z</time></trkpt><trkpt lat="44.818595" lon="9.46725"><ele>216.0</ele><time>2026-04-11T07:39:06.002Z</time></trkpt><trkpt lat="44.8185183" lon="9.4672683"><ele>216.0</ele><time>2026-04-11T07:39:08.001Z</time></trkpt><trkpt lat="44.8184633" lon="9.46721"><ele>216.0</ele><time>2026-04-11T07:39:11.001Z</time></trkpt><trkpt lat="44.8184083" lon="9.467255"><ele>216.0</ele><time>2026-04-11T07:40:20.003Z</time></trkpt><trkpt lat="44.8183617" lon="9.4671833"><ele>216.0</ele><time>2026-04-11T07:40:23.001Z</time></trkpt><trkpt lat="44.8183517" lon="9.46708"><ele>215.5</ele><time>2026-04-11T07:40:26.001Z</time></trkpt><trkpt lat="44.8183317" lon="9.46699"><ele>215.0</ele><time>2026-04-11T07:40:29.001Z</time></trkpt><trkpt lat="44.8183933" lon="9.4669033"><ele>214.5</ele><time>2026-04-11T07:40:42.001Z</time></trkpt><trkpt lat="44.81845" lon="9.4668233"><ele>214.0</ele><time>2026-04-11T07:40:46Z</time></trkpt><trkpt lat="44.818485" lon="9.46674"><ele>213.5</ele><time>2026-04-11T07:40:49.001Z</time></trkpt><trkpt lat="44.8185367" lon="9.4666783"><ele>213.0</ele><time>2026-04-11T07:40:51.002Z</time></trkpt><trkpt lat="44.8185967" lon="9.466595"><ele>213.0</ele><time>2026-04-11T07:40:53.001Z</time></trkpt><trkpt lat="44.8186233" lon="9.4665133"><ele>213.0</ele><time>2026-04-11T07:40:55.002Z</time></trkpt><trkpt lat="44.8186467" lon="9.4664117"><ele>213.0</ele><time>2026-04-11T07:40:57.002Z</time></trkpt><trkpt lat="44.8186717" lon="9.4662917"><ele>213.0</ele><time>2026-04-11T07:40:59.002Z</time></trkpt><trkpt lat="44.8186767" lon="9.4661417"><ele>213.0</ele><time>2026-04-11T07:41:01.001Z</time></trkpt><trkpt lat="44.8187467" lon="9.4660233"><ele>213.0</ele><time>2026-04-11T07:41:03.001Z</time></trkpt><trkpt lat="44.8188217" lon="9.4659133"><ele>213.4</ele><time>2026-04-11T07:41:05.003Z</time></trkpt><trkpt lat="44.81885" lon="9.4657867"><ele>213.8</ele><time>2026-04-11T07:41:07.001Z</time></trkpt><trkpt lat="44.818905" lon="9.4657017"><ele>214.2</ele><time>2026-04-11T07:41:09.001Z</time></trkpt><trkpt lat="44.8190117" lon="9.4657033"><ele>214.6</ele><time>2026-04-11T07:41:11Z</time></trkpt><trkpt lat="44.81908" lon="9.4657283"><ele>215.0</ele><time>2026-04-11T07:41:12.001Z</time></trkpt><trkpt lat="44.81919" lon="9.4657133"><ele>215.0</ele><time>2026-04-11T07:41:14.001Z</time></trkpt><trkpt lat="44.8192867" lon="9.46559"><ele>215.0</ele><time>2026-04-11T07:41:16.001Z</time></trkpt><trkpt lat="44.8193383" lon="9.46549"><ele>215.0</ele><time>2026-04-11T07:41:17.001Z</time></trkpt><trkpt lat="44.8193933" lon="9.46539"><ele>215.0</ele><time>2026-04-11T07:41:18.001Z</time></trkpt><trkpt lat="44.8194433" lon="9.4652917"><ele>215.0</ele><time>2026-04-11T07:41:19.002Z</time></trkpt><trkpt lat="44.8194817" lon="9.4651867"><ele>216.4</ele><time>2026-04-11T07:41:20.002Z</time></trkpt><trkpt lat="44.8195167" lon="9.4650833"><ele>217.8</ele><time>2026-04-11T07:41:21.001Z</time></trkpt><trkpt lat="44.819545" lon="9.4649917"><ele>219.2</ele><time>2026-04-11T07:41:22.001Z</time></trkpt><trkpt lat="44.8195667" lon="9.4648283"><ele>220.6</ele><time>2026-04-11T07:41:24.002Z</time></trkpt><trkpt lat="44.81958" lon="9.4646633"><ele>222.0</ele><time>2026-04-11T07:41:26.003Z</time></trkpt><trkpt lat="44.8195717" lon="9.46457"><ele>223.5</ele><time>2026-04-11T07:41:27.001Z</time></trkpt><trkpt lat="44.81956" lon="9.4644817"><ele>225.0</ele><time>2026-04-11T07:41:28.002Z</time></trkpt><trkpt lat="44.819545" lon="9.4643917"><ele>226.5</ele><time>2026-04-11T07:41:29.002Z</time></trkpt><trkpt lat="44.8195467" lon="9.4642967"><ele>228.0</ele><time>2026-04-11T07:41:30.001Z</time></trkpt><trkpt lat="44.8195683" lon="9.464185"><ele>229.5</ele><time>2026-04-11T07:41:31Z</time></trkpt><trkpt lat="44.8195967" lon="9.4640667"><ele>231.0</ele><time>2026-04-11T07:41:32.002Z</time></trkpt><trkpt lat="44.8196383" lon="9.4639617"><ele>231.0</ele><time>2026-04-11T07:41:33.001Z</time></trkpt><trkpt lat="44.8196733" lon="9.463855"><ele>231.0</ele><time>2026-04-11T07:41:34.002Z</time></trkpt><trkpt lat="44.8196883" lon="9.463765"><ele>231.0</ele><time>2026-04-11T07:41:35.002Z</time></trkpt><trkpt lat="44.8196933" lon="9.4636733"><ele>231.0</ele><time>2026-04-11T07:41:36.002Z</time></trkpt><trkpt lat="44.8197" lon="9.463585"><ele>231.0</ele><time>2026-04-11T07:41:37.002Z</time></trkpt><trkpt lat="44.8197317" lon="9.4634333"><ele>231.0</ele><time>2026-04-11T07:41:39.002Z</time></trkpt><trkpt lat="44.8198017" lon="9.4632717"><ele>233.0</ele><time>2026-04-11T07:41:41.002Z</time></trkpt><trkpt lat="44.819845" lon="9.4631933"><ele>235.0</ele><time>2026-04-11T07:41:42.001Z</time></trkpt><trkpt lat="44.8199" lon="9.463115"><ele>237.0</ele><time>2026-04-11T07:41:43Z</time></trkpt><trkpt lat="44.8199533" lon="9.46304"><ele>239.0</ele><time>2026-04-11T07:41:44.002Z</time></trkpt><trkpt lat="44.8200017" lon="9.4629517"><ele>241.0</ele><time>2026-04-11T07:41:45.002Z</time></trkpt><trkpt lat="44.82005" lon="9.4628383"><ele>243.0</ele><time>2026-04-11T07:41:46.001Z</time></trkpt><trkpt lat="44.8201" lon="9.4627133"><ele>245.2</ele><time>2026-04-11T07:41:47.001Z</time></trkpt><trkpt lat="44.8201583" lon="9.4625917"><ele>247.4</ele><time>2026-04-11T07:41:48.001Z</time></trkpt><trkpt lat="44.8202333" lon="9.4624567"><ele>249.59999999999997</ele><time>2026-04-11T07:41:49.003Z</time></trkpt><trkpt lat="44.8203" lon="9.46233"><ele>251.79999999999998</ele><time>2026-04-11T07:41:50.004Z</time></trkpt><trkpt lat="44.82036" lon="9.4622117"><ele>254.0</ele><time>2026-04-11T07:41:51.002Z</time></trkpt><trkpt lat="44.8204133" lon="9.4620967"><ele>256.8</ele><time>2026-04-11T07:41:52.002Z</time></trkpt><trkpt lat="44.8204417" lon="9.46197"><ele>259.59999999999997</ele><time>2026-04-11T07:41:53.002Z</time></trkpt><trkpt lat="44.8204583" lon="9.4618383"><ele>262.4</ele><time>2026-04-11T07:41:54.002Z</time></trkpt><trkpt lat="44.8204767" lon="9.4617117"><ele>265.2</ele><time>2026-04-11T07:41:55.002Z</time></trkpt><trkpt lat="44.8205083" lon="9.4615983"><ele>268.0</ele><time>2026-04-11T07:41:56.003Z</time></trkpt><trkpt lat="44.8205433" lon="9.46149"><ele>268.0</ele><time>2026-04-11T07:41:57.003Z</time></trkpt><trkpt lat="44.8205883" lon="9.4614083"><ele>268.0</ele><time>2026-04-11T07:41:58.003Z</time></trkpt><trkpt lat="44.8206583" lon="9.46134"><ele>268.0</ele><time>2026-04-11T07:41:59.001Z</time></trkpt><trkpt lat="44.8207467" lon="9.461285"><ele>268.0</ele><time>2026-04-11T07:42:00.003Z</time></trkpt><trkpt lat="44.8208417" lon="9.461225"><ele>268.0</ele><time>2026-04-11T07:42:01.005Z</time></trkpt><trkpt lat="44.8209333" lon="9.461155"><ele>268.6</ele><time>2026-04-11T07:42:02.001Z</time></trkpt><trkpt lat="44.8210167" lon="9.4610817"><ele>269.20000000000005</ele><time>2026-04-11T07:42:03.001Z</time></trkpt><trkpt lat="44.821095" lon="9.4609967"><ele>269.8</ele><time>2026-04-11T07:42:04.001Z</time></trkpt><trkpt lat="44.82117" lon="9.4609117"><ele>270.40000000000003</ele><time>2026-04-11T07:42:05.001Z</time></trkpt><trkpt lat="44.8212267" lon="9.4608383"><ele>271.0</ele><time>2026-04-11T07:42:06.001Z</time></trkpt><trkpt lat="44.8212933" lon="9.4607183"><ele>271.0</ele><time>2026-04-11T07:42:08.002Z</time></trkpt><trkpt lat="44.8212133" lon="9.4606933"><ele>271.0</ele><time>2026-04-11T07:42:12.002Z</time></trkpt><trkpt lat="44.82114" lon="9.4606767"><ele>271.0</ele><time>2026-04-11T07:42:15.002Z</time></trkpt><trkpt lat="44.8210433" lon="9.4606217"><ele>271.0</ele><time>2026-04-11T07:42:17.001Z</time></trkpt><trkpt lat="44.8209483" lon="9.4605183"><ele>271.0</ele><time>2026-04-11T07:42:19.003Z</time></trkpt><trkpt lat="44.8208933" lon="9.4604633"><ele>271.0</ele><time>2026-04-11T07:42:20.001Z</time></trkpt><trkpt lat="44.8208333" lon="9.4604067"><ele>271.0</ele><time>2026-04-11T07:42:21.002Z</time></trkpt><trkpt lat="44.8207683" lon="9.46035"><ele>271.0</ele><time>2026-04-11T07:42:22.001Z</time></trkpt><trkpt lat="44.820695" lon="9.4602917"><ele>271.0</ele><time>2026-04-11T07:42:23.002Z</time></trkpt><trkpt lat="44.8206133" lon="9.460235"><ele>271.0</ele><time>2026-04-11T07:42:24.001Z</time></trkpt><trkpt lat="44.820525" lon="9.4601767"><ele>271.0</ele><time>2026-04-11T07:42:25.001Z</time></trkpt><trkpt lat="44.82043" lon="9.4601183"><ele>271.0</ele><time>2026-04-11T07:42:26.001Z</time></trkpt><trkpt lat="44.820325" lon="9.4600433"><ele>271.0</ele><time>2026-04-11T07:42:27.001Z</time></trkpt><trkpt lat="44.8202067" lon="9.4599567"><ele>271.0</ele><time>2026-04-11T07:42:28.003Z</time></trkpt><trkpt lat="44.8200867" lon="9.459865"><ele>271.0</ele><time>2026-04-11T07:42:29.001Z</time></trkpt><trkpt lat="44.81997" lon="9.4597817"><ele>268.0</ele><time>2026-04-11T07:42:30.001Z</time></trkpt><trkpt lat="44.8198533" lon="9.4597017"><ele>265.0</ele><time>2026-04-11T07:42:31.001Z</time></trkpt><trkpt lat="44.8197467" lon="9.4596267"><ele>262.0</ele><time>2026-04-11T07:42:32.001Z</time></trkpt><trkpt lat="44.8196533" lon="9.4595617"><ele>259.0</ele><time>2026-04-11T07:42:33.002Z</time></trkpt><trkpt lat="44.8195733" lon="9.4595067"><ele>256.0</ele><time>2026-04-11T07:42:34.001Z</time></trkpt><trkpt lat="44.8195083" lon="9.4594467"><ele>254.99999999999997</ele><time>2026-04-11T07:42:35.001Z</time></trkpt><trkpt lat="44.8194533" lon="9.4593833"><ele>254.0</ele><time>2026-04-11T07:42:36.002Z</time></trkpt><trkpt lat="44.819405" lon="9.4592567"><ele>253.0</ele><time>2026-04-11T07:42:38.003Z</time></trkpt><trkpt lat="44.8194033" lon="9.4591383"><ele>252.0</ele><time>2026-04-11T07:42:40.002Z</time></trkpt><trkpt lat="44.8193983" lon="9.4590083"><ele>250.99999999999997</ele><time>2026-04-11T07:42:42.002Z</time></trkpt><trkpt lat="44.8193617" lon="9.4588833"><ele>250.0</ele><time>2026-04-11T07:42:44.001Z</time></trkpt><trkpt lat="44.8192617" lon="9.4587967"><ele>247.57142857142856</ele><time>2026-04-11T07:42:46.001Z</time></trkpt><trkpt lat="44.8191933" lon="9.4587817"><ele>245.14285714285717</ele><time>2026-04-11T07:42:47.001Z</time></trkpt><trkpt lat="44.8191233" lon="9.4587733"><ele>242.71428571428572</ele><time>2026-04-11T07:42:48.001Z</time></trkpt><trkpt lat="44.8190567" lon="9.4587517"><ele>240.28571428571428</ele><time>2026-04-11T07:42:49.001Z</time></trkpt><trkpt lat="44.8189967" lon="9.458715"><ele>237.85714285714283</ele><time>2026-04-11T07:42:50Z</time></trkpt><trkpt lat="44.8189333" lon="9.4586667"><ele>235.42857142857144</ele><time>2026-04-11T07:42:51.001Z</time></trkpt><trkpt lat="44.8188633" lon="9.4586267"><ele>233.0</ele><time>2026-04-11T07:42:52.001Z</time></trkpt><trkpt lat="44.818795" lon="9.458595"><ele>233.0</ele><time>2026-04-11T07:42:53.002Z</time></trkpt><trkpt lat="44.8187233" lon="9.4585683"><ele>233.0</ele><time>2026-04-11T07:42:54.001Z</time></trkpt><trkpt lat="44.8186517" lon="9.4585567"><ele>233.0</ele><time>2026-04-11T07:42:55.003Z</time></trkpt><trkpt lat="44.818585" lon="9.4585567"><ele>233.0</ele><time>2026-04-11T07:42:56.001Z</time></trkpt><trkpt lat="44.8184633" lon="9.458595"><ele>233.0</ele><time>2026-04-11T07:42:58.001Z</time></trkpt><trkpt lat="44.8183433" lon="9.4585733"><ele>231.00000000000003</ele><time>2026-04-11T07:43:00.001Z</time></trkpt><trkpt lat="44.8182783" lon="9.45854"><ele>229.0</ele><time>2026-04-11T07:43:01.001Z</time></trkpt><trkpt lat="44.8182133" lon="9.4585117"><ele>227.0</ele><time>2026-04-11T07:43:02.001Z</time></trkpt><trkpt lat="44.8181467" lon="9.4584883"><ele>225.0</ele><time>2026-04-11T07:43:03.001Z</time></trkpt><trkpt lat="44.8180217" lon="9.4584633"><ele>223.00000000000003</ele><time>2026-04-11T07:43:05Z</time></trkpt><trkpt lat="44.81791" lon="9.4584683"><ele>221.0</ele><time>2026-04-11T07:43:07.001Z</time></trkpt><trkpt lat="44.817835" lon="9.4584267"><ele>221.0</ele><time>2026-04-11T07:43:09.001Z</time></trkpt><trkpt lat="44.8178933" lon="9.4583083"><ele>221.00000000000003</ele><time>2026-04-11T07:43:11.001Z</time></trkpt><trkpt lat="44.8179567" lon="9.4581767"><ele>221.00000000000003</ele><time>2026-04-11T07:43:13Z</time></trkpt><trkpt lat="44.8179283" lon="9.4580833"><ele>221.0</ele><time>2026-04-11T07:43:15.001Z</time></trkpt><trkpt lat="44.81784" lon="9.4580817"><ele>221.0</ele><time>2026-04-11T07:43:16.999Z</time></trkpt><trkpt lat="44.8177467" lon="9.458175"><ele>219.60000000000002</ele><time>2026-04-11T07:43:19Z</time></trkpt><trkpt lat="44.8176367" lon="9.4582167"><ele>218.20000000000002</ele><time>2026-04-11T07:43:21.001Z</time></trkpt><trkpt lat="44.8174883" lon="9.4581983"><ele>216.79999999999998</ele><time>2026-04-11T07:43:39.001Z</time></trkpt><trkpt lat="44.8174633" lon="9.458095"><ele>215.39999999999998</ele><time>2026-04-11T07:43:43Z</time></trkpt><trkpt lat="44.8174667" lon="9.4580017"><ele>214.0</ele><time>2026-04-11T07:43:45.001Z</time></trkpt><trkpt lat="44.8174717" lon="9.4578783"><ele>214.0</ele><time>2026-04-11T07:43:47Z</time></trkpt><trkpt lat="44.817465" lon="9.45771"><ele>213.99999999999997</ele><time>2026-04-11T07:43:49.001Z</time></trkpt><trkpt lat="44.817405" lon="9.4575817"><ele>213.99999999999997</ele><time>2026-04-11T07:43:51.003Z</time></trkpt><trkpt lat="44.817315" lon="9.457495"><ele>214.0</ele><time>2026-04-11T07:43:53.001Z</time></trkpt><trkpt lat="44.817245" lon="9.45738"><ele>214.0</ele><time>2026-04-11T07:43:55.001Z</time></trkpt><trkpt lat="44.8171967" lon="9.4572383"><ele>214.0</ele><time>2026-04-11T07:43:57.001Z</time></trkpt><trkpt lat="44.8171483" lon="9.4571583"><ele>213.99999999999997</ele><time>2026-04-11T07:43:59Z</time></trkpt><trkpt lat="44.8171067" lon="9.457075"><ele>213.99999999999997</ele><time>2026-04-11T07:44:01.001Z</time></trkpt><trkpt lat="44.8170283" lon="9.4569467"><ele>214.0</ele><time>2026-04-11T07:44:03.001Z</time></trkpt><trkpt lat="44.816945" lon="9.4568567"><ele>214.0</ele><time>2026-04-11T07:44:05.001Z</time></trkpt><trkpt lat="44.8168533" lon="9.456845"><ele>213.33333333333331</ele><time>2026-04-11T07:44:07.002Z</time></trkpt><trkpt lat="44.8167917" lon="9.456885"><ele>212.66666666666666</ele><time>2026-04-11T07:44:09.003Z</time></trkpt><trkpt lat="44.8167233" lon="9.4569367"><ele>212.0</ele><time>2026-04-11T07:44:11.002Z</time></trkpt><trkpt lat="44.81663" lon="9.4568867"><ele>211.33333333333331</ele><time>2026-04-11T07:44:13.002Z</time></trkpt><trkpt lat="44.8165767" lon="9.45683"><ele>210.66666666666666</ele><time>2026-04-11T07:44:14.001Z</time></trkpt><trkpt lat="44.8165267" lon="9.4567667"><ele>210.0</ele><time>2026-04-11T07:44:15Z</time></trkpt><trkpt lat="44.81648" lon="9.45669"><ele>210.0</ele><time>2026-04-11T07:44:16Z</time></trkpt><trkpt lat="44.8164317" lon="9.4566017"><ele>210.0</ele><time>2026-04-11T07:44:17Z</time></trkpt><trkpt lat="44.8163817" lon="9.4565083"><ele>210.0</ele><time>2026-04-11T07:44:18.001Z</time></trkpt><trkpt lat="44.8163233" lon="9.45641"><ele>210.0</ele><time>2026-04-11T07:44:19.001Z</time></trkpt><trkpt lat="44.8162683" lon="9.45632"><ele>210.0</ele><time>2026-04-11T07:44:20.001Z</time></trkpt><trkpt lat="44.8162233" lon="9.4562383"><ele>210.0</ele><time>2026-04-11T07:44:21.002Z</time></trkpt><trkpt lat="44.8161933" lon="9.45616"><ele>210.0</ele><time>2026-04-11T07:44:22.001Z</time></trkpt><trkpt lat="44.81617" lon="9.4560717"><ele>210.0</ele><time>2026-04-11T07:44:23.001Z</time></trkpt><trkpt lat="44.8161467" lon="9.4559883"><ele>210.0</ele><time>2026-04-11T07:44:24.001Z</time></trkpt><trkpt lat="44.8161183" lon="9.4559083"><ele>210.0</ele><time>2026-04-11T07:44:25.001Z</time></trkpt><trkpt lat="44.81608" lon="9.45583"><ele>210.0</ele><time>2026-04-11T07:44:26.002Z</time></trkpt><trkpt lat="44.8160183" lon="9.4557267"><ele>210.0</ele><time>2026-04-11T07:44:27.001Z</time></trkpt><trkpt lat="44.8159583" lon="9.4556167"><ele>210.0</ele><time>2026-04-11T07:44:28.003Z</time></trkpt><trkpt lat="44.8158933" lon="9.4555117"><ele>210.0</ele><time>2026-04-11T07:44:29.001Z</time></trkpt><trkpt lat="44.8158283" lon="9.4554133"><ele>210.0</ele><time>2026-04-11T07:44:30.002Z</time></trkpt><trkpt lat="44.815765" lon="9.4553183"><ele>210.0</ele><time>2026-04-11T07:44:31.002Z</time></trkpt><trkpt lat="44.8157083" lon="9.4552367"><ele>210.0</ele><time>2026-04-11T07:44:32.001Z</time></trkpt><trkpt lat="44.8156717" lon="9.4551583"><ele>210.0</ele><time>2026-04-11T07:44:33.001Z</time></trkpt><trkpt lat="44.8156167" lon="9.4550417"><ele>211.0</ele><time>2026-04-11T07:44:35.002Z</time></trkpt><trkpt lat="44.8155483" lon="9.45491"><ele>212.0</ele><time>2026-04-11T07:44:37Z</time></trkpt><trkpt lat="44.8154833" lon="9.4547783"><ele>213.0</ele><time>2026-04-11T07:44:39.002Z</time></trkpt><trkpt lat="44.8153833" lon="9.45464"><ele>214.0</ele><time>2026-04-11T07:44:41.001Z</time></trkpt><trkpt lat="44.8153217" lon="9.45455"><ele>214.39999999999998</ele><time>2026-04-11T07:44:42.001Z</time></trkpt><trkpt lat="44.8152633" lon="9.45444"><ele>214.79999999999998</ele><time>2026-04-11T07:44:43.001Z</time></trkpt><trkpt lat="44.8152217" lon="9.4543233"><ele>215.20000000000002</ele><time>2026-04-11T07:44:43.999Z</time></trkpt><trkpt lat="44.81519" lon="9.4542133"><ele>215.60000000000002</ele><time>2026-04-11T07:44:45Z</time></trkpt><trkpt lat="44.8151533" lon="9.454105"><ele>216.0</ele><time>2026-04-11T07:44:46.001Z</time></trkpt><trkpt lat="44.8151117" lon="9.45399"><ele>215.4</ele><time>2026-04-11T07:44:47.001Z</time></trkpt><trkpt lat="44.8150783" lon="9.453885"><ele>214.8</ele><time>2026-04-11T07:44:48Z</time></trkpt><trkpt lat="44.81505" lon="9.4538017"><ele>214.20000000000002</ele><time>2026-04-11T07:44:49.001Z</time></trkpt><trkpt lat="44.814995" lon="9.4536683"><ele>213.60000000000002</ele><time>2026-04-11T07:44:51.002Z</time></trkpt><trkpt lat="44.8149483" lon="9.4535233"><ele>213.0</ele><time>2026-04-11T07:44:53Z</time></trkpt><trkpt lat="44.8149083" lon="9.45337"><ele>213.0</ele><time>2026-04-11T07:44:55.002Z</time></trkpt><trkpt lat="44.8148867" lon="9.453255"><ele>213.0</ele><time>2026-04-11T07:44:57.001Z</time></trkpt><trkpt lat="44.8148733" lon="9.4531483"><ele>213.0</ele><time>2026-04-11T07:44:59Z</time></trkpt><trkpt lat="44.81488" lon="9.453015"><ele>213.0</ele><time>2026-04-11T07:45:01.001Z</time></trkpt><trkpt lat="44.8148983" lon="9.4528683"><ele>213.0</ele><time>2026-04-11T07:45:03.001Z</time></trkpt><trkpt lat="44.8149283" lon="9.4527167"><ele>213.66666666666666</ele><time>2026-04-11T07:45:05.001Z</time></trkpt><trkpt lat="44.8149433" lon="9.4525917"><ele>214.33333333333331</ele><time>2026-04-11T07:45:07.001Z</time></trkpt><trkpt lat="44.8148983" lon="9.4525083"><ele>215.0</ele><time>2026-04-11T07:45:11Z</time></trkpt><trkpt lat="44.8148317" lon="9.4524633"><ele>215.66666666666666</ele><time>2026-04-11T07:45:13Z</time></trkpt><trkpt lat="44.8147667" lon="9.4523967"><ele>216.33333333333331</ele><time>2026-04-11T07:45:15.001Z</time></trkpt><trkpt lat="44.8146967" lon="9.4523067"><ele>217.0</ele><time>2026-04-11T07:45:17Z</time></trkpt><trkpt lat="44.81465" lon="9.4521617"><ele>217.66666666666666</ele><time>2026-04-11T07:45:19.001Z</time></trkpt><trkpt lat="44.8146367" lon="9.4520683"><ele>218.33333333333331</ele><time>2026-04-11T07:45:20Z</time></trkpt><trkpt lat="44.8146217" lon="9.4519517"><ele>219.0</ele><time>2026-04-11T07:45:21.002Z</time></trkpt><trkpt lat="44.8146217" lon="9.4518333"><ele>219.66666666666669</ele><time>2026-04-11T07:45:22.001Z</time></trkpt><trkpt lat="44.8146267" lon="9.4517267"><ele>220.33333333333334</ele><time>2026-04-11T07:45:23.001Z</time></trkpt><trkpt lat="44.81463" lon="9.4516133"><ele>221.0</ele><time>2026-04-11T07:45:24Z</time></trkpt><trkpt lat="44.8146367" lon="9.451495"><ele>221.0</ele><time>2026-04-11T07:45:25.001Z</time></trkpt><trkpt lat="44.8146517" lon="9.45137"><ele>221.00000000000003</ele><time>2026-04-11T07:45:26.001Z</time></trkpt><trkpt lat="44.8146683" lon="9.451235"><ele>221.00000000000003</ele><time>2026-04-11T07:45:27.001Z</time></trkpt><trkpt lat="44.8146917" lon="9.4510917"><ele>221.0</ele><time>2026-04-11T07:45:28.001Z</time></trkpt><trkpt lat="44.814715" lon="9.4509517"><ele>221.0</ele><time>2026-04-11T07:45:29Z</time></trkpt><trkpt lat="44.8147367" lon="9.4508133"><ele>221.00000000000003</ele><time>2026-04-11T07:45:30Z</time></trkpt><trkpt lat="44.81476" lon="9.450695"><ele>221.0</ele><time>2026-04-11T07:45:31.001Z</time></trkpt><trkpt lat="44.8147817" lon="9.4505767"><ele>221.0</ele><time>2026-04-11T07:45:31.999Z</time></trkpt><trkpt lat="44.81481" lon="9.4504667"><ele>221.0</ele><time>2026-04-11T07:45:33Z</time></trkpt><trkpt lat="44.814845" lon="9.4503583"><ele>221.00000000000003</ele><time>2026-04-11T07:45:34Z</time></trkpt><trkpt lat="44.8148767" lon="9.4502567"><ele>221.0</ele><time>2026-04-11T07:45:35Z</time></trkpt><trkpt lat="44.8149117" lon="9.4501467"><ele>221.0</ele><time>2026-04-11T07:45:36Z</time></trkpt><trkpt lat="44.81495" lon="9.450045"><ele>221.00000000000003</ele><time>2026-04-11T07:45:37.001Z</time></trkpt><trkpt lat="44.8149833" lon="9.44995"><ele>221.00000000000003</ele><time>2026-04-11T07:45:38Z</time></trkpt><trkpt lat="44.81502" lon="9.449855"><ele>221.0</ele><time>2026-04-11T07:45:39Z</time></trkpt><trkpt lat="44.81504" lon="9.44966"><ele>221.0</ele><time>2026-04-11T07:45:41Z</time></trkpt><trkpt lat="44.8150367" lon="9.4495433"><ele>220.33333333333334</ele><time>2026-04-11T07:45:42Z</time></trkpt><trkpt lat="44.8150333" lon="9.4494417"><ele>219.66666666666669</ele><time>2026-04-11T07:45:43.002Z</time></trkpt><trkpt lat="44.8150417" lon="9.4493283"><ele>219.0</ele><time>2026-04-11T07:45:44Z</time></trkpt><trkpt lat="44.8150583" lon="9.44922"><ele>218.33333333333331</ele><time>2026-04-11T07:45:45.002Z</time></trkpt><trkpt lat="44.815085" lon="9.4491083"><ele>217.66666666666666</ele><time>2026-04-11T07:45:46.002Z</time></trkpt><trkpt lat="44.8151283" lon="9.4489967"><ele>217.0</ele><time>2026-04-11T07:45:47.001Z</time></trkpt><trkpt lat="44.8151933" lon="9.44889"><ele>219.0</ele><time>2026-04-11T07:45:48.001Z</time></trkpt><trkpt lat="44.8152683" lon="9.4487917"><ele>221.0</ele><time>2026-04-11T07:45:49.003Z</time></trkpt><trkpt lat="44.81534" lon="9.448665"><ele>223.0</ele><time>2026-04-11T07:45:50.001Z</time></trkpt><trkpt lat="44.8154017" lon="9.4485333"><ele>225.0</ele><time>2026-04-11T07:45:51.002Z</time></trkpt><trkpt lat="44.8154533" lon="9.44841"><ele>227.0</ele><time>2026-04-11T07:45:52.002Z</time></trkpt><trkpt lat="44.8154983" lon="9.4483"><ele>227.00000000000003</ele><time>2026-04-11T07:45:53.001Z</time></trkpt><trkpt lat="44.81555" lon="9.4482017"><ele>227.0</ele><time>2026-04-11T07:45:54.001Z</time></trkpt><trkpt lat="44.815595" lon="9.4481133"><ele>227.0</ele><time>2026-04-11T07:45:55.002Z</time></trkpt><trkpt lat="44.8156383" lon="9.4480417"><ele>227.0</ele><time>2026-04-11T07:45:56.001Z</time></trkpt><trkpt lat="44.8156817" lon="9.447905"><ele>227.00000000000003</ele><time>2026-04-11T07:45:58.001Z</time></trkpt><trkpt lat="44.8157117" lon="9.4478083"><ele>227.0</ele><time>2026-04-11T07:46:00.005Z</time></trkpt><trkpt lat="44.815725" lon="9.4477"><ele>226.50000000000003</ele><time>2026-04-11T07:46:03.002Z</time></trkpt><trkpt lat="44.8157433" lon="9.4475983"><ele>226.0</ele><time>2026-04-11T07:46:05Z</time></trkpt><trkpt lat="44.815795" lon="9.44745"><ele>225.5</ele><time>2026-04-11T07:46:07.001Z</time></trkpt><trkpt lat="44.81582" lon="9.4473683"><ele>225.0</ele><time>2026-04-11T07:46:08.002Z</time></trkpt><trkpt lat="44.8158483" lon="9.4472817"><ele>224.50000000000003</ele><time>2026-04-11T07:46:09.001Z</time></trkpt><trkpt lat="44.8158733" lon="9.4471917"><ele>224.0</ele><time>2026-04-11T07:46:10.002Z</time></trkpt><trkpt lat="44.8159017" lon="9.4471033"><ele>223.6</ele><time>2026-04-11T07:46:11.002Z</time></trkpt><trkpt lat="44.8159283" lon="9.4470117"><ele>223.2</ele><time>2026-04-11T07:46:12.001Z</time></trkpt><trkpt lat="44.8159567" lon="9.4469233"><ele>222.79999999999998</ele><time>2026-04-11T07:46:13.001Z</time></trkpt><trkpt lat="44.81598" lon="9.4467667"><ele>222.39999999999998</ele><time>2026-04-11T07:46:15.003Z</time></trkpt><trkpt lat="44.8159583" lon="9.4466383"><ele>222.0</ele><time>2026-04-11T07:46:17.001Z</time></trkpt><trkpt lat="44.8159283" lon="9.4464917"><ele>222.0</ele><time>2026-04-11T07:46:19.001Z</time></trkpt><trkpt lat="44.8159133" lon="9.4464033"><ele>222.0</ele><time>2026-04-11T07:46:20.002Z</time></trkpt><trkpt lat="44.815895" lon="9.4463133"><ele>222.0</ele><time>2026-04-11T07:46:21.002Z</time></trkpt><trkpt lat="44.8158767" lon="9.4462133"><ele>222.0</ele><time>2026-04-11T07:46:22.001Z</time></trkpt><trkpt lat="44.815865" lon="9.4461"><ele>222.0</ele><time>2026-04-11T07:46:23.001Z</time></trkpt><trkpt lat="44.81586" lon="9.4459783"><ele>222.0</ele><time>2026-04-11T07:46:24.001Z</time></trkpt><trkpt lat="44.8158517" lon="9.4458633"><ele>222.0</ele><time>2026-04-11T07:46:25.001Z</time></trkpt><trkpt lat="44.8158367" lon="9.4457633"><ele>222.0</ele><time>2026-04-11T07:46:26.001Z</time></trkpt><trkpt lat="44.81583" lon="9.44567"><ele>222.0</ele><time>2026-04-11T07:46:27.002Z</time></trkpt><trkpt lat="44.8158367" lon="9.445575"><ele>222.0</ele><time>2026-04-11T07:46:28.003Z</time></trkpt><trkpt lat="44.81586" lon="9.4454633"><ele>222.0</ele><time>2026-04-11T07:46:29.001Z</time></trkpt><trkpt lat="44.8158883" lon="9.44534"><ele>222.0</ele><time>2026-04-11T07:46:30.001Z</time></trkpt><trkpt lat="44.8159083" lon="9.4451967"><ele>222.0</ele><time>2026-04-11T07:46:31.001Z</time></trkpt><trkpt lat="44.8159183" lon="9.4450567"><ele>222.0</ele><time>2026-04-11T07:46:32.002Z</time></trkpt><trkpt lat="44.81593" lon="9.444935"><ele>222.0</ele><time>2026-04-11T07:46:33.002Z</time></trkpt><trkpt lat="44.8159633" lon="9.4448117"><ele>222.0</ele><time>2026-04-11T07:46:34.002Z</time></trkpt><trkpt lat="44.8160267" lon="9.4446967"><ele>222.0</ele><time>2026-04-11T07:46:35.002Z</time></trkpt><trkpt lat="44.8161067" lon="9.4445967"><ele>226.25</ele><time>2026-04-11T07:46:36.002Z</time></trkpt><trkpt lat="44.816205" lon="9.444505"><ele>230.5</ele><time>2026-04-11T07:46:37.003Z</time></trkpt><trkpt lat="44.816315" lon="9.44442"><ele>234.75</ele><time>2026-04-11T07:46:38.005Z</time></trkpt><trkpt lat="44.8164333" lon="9.4443517"><ele>239.0</ele><time>2026-04-11T07:46:39.004Z</time></trkpt><trkpt lat="44.8165317" lon="9.4443133"><ele>239.00000000000003</ele><time>2026-04-11T07:46:40.005Z</time></trkpt><trkpt lat="44.816615" lon="9.4442917"><ele>239.0</ele><time>2026-04-11T07:46:41.003Z</time></trkpt><trkpt lat="44.8166883" lon="9.4442567"><ele>239.0</ele><time>2026-04-11T07:46:42.001Z</time></trkpt><trkpt lat="44.81675" lon="9.4442067"><ele>239.0</ele><time>2026-04-11T07:46:43.001Z</time></trkpt><trkpt lat="44.8167967" lon="9.4441067"><ele>239.00000000000003</ele><time>2026-04-11T07:46:44.002Z</time></trkpt><trkpt lat="44.81685" lon="9.4439817"><ele>239.0</ele><time>2026-04-11T07:46:45.002Z</time></trkpt><trkpt lat="44.8169117" lon="9.4438367"><ele>243.0</ele><time>2026-04-11T07:46:46.002Z</time></trkpt><trkpt lat="44.8169733" lon="9.443685"><ele>247.0</ele><time>2026-04-11T07:46:47.002Z</time></trkpt><trkpt lat="44.8170383" lon="9.44354"><ele>251.0</ele><time>2026-04-11T07:46:48.002Z</time></trkpt><trkpt lat="44.8171067" lon="9.443395"><ele>255.0</ele><time>2026-04-11T07:46:49.003Z</time></trkpt><trkpt lat="44.8171633" lon="9.443255"><ele>255.0</ele><time>2026-04-11T07:46:50.004Z</time></trkpt><trkpt lat="44.8172117" lon="9.4431267"><ele>255.0</ele><time>2026-04-11T07:46:51.004Z</time></trkpt><trkpt lat="44.81725" lon="9.4430117"><ele>255.0</ele><time>2026-04-11T07:46:52.002Z</time></trkpt><trkpt lat="44.8172967" lon="9.4429117"><ele>255.0</ele><time>2026-04-11T07:46:53.002Z</time></trkpt><trkpt lat="44.817355" lon="9.442835"><ele>255.0</ele><time>2026-04-11T07:46:54.004Z</time></trkpt><trkpt lat="44.81743" lon="9.4427933"><ele>255.0</ele><time>2026-04-11T07:46:55.003Z</time></trkpt><trkpt lat="44.8175067" lon="9.4427667"><ele>255.16666666666666</ele><time>2026-04-11T07:46:56.003Z</time></trkpt><trkpt lat="44.8175817" lon="9.4427417"><ele>255.33333333333331</ele><time>2026-04-11T07:46:57.002Z</time></trkpt><trkpt lat="44.817605" lon="9.442585"><ele>255.5</ele><time>2026-04-11T07:46:59.003Z</time></trkpt><trkpt lat="44.81759" lon="9.4424783"><ele>255.66666666666666</ele><time>2026-04-11T07:47:00.003Z</time></trkpt><trkpt lat="44.81758" lon="9.4423617"><ele>255.83333333333331</ele><time>2026-04-11T07:47:01.004Z</time></trkpt><trkpt lat="44.8175833" lon="9.442245"><ele>256.0</ele><time>2026-04-11T07:47:02.002Z</time></trkpt><trkpt lat="44.817605" lon="9.4421417"><ele>257.16666666666663</ele><time>2026-04-11T07:47:03.001Z</time></trkpt><trkpt lat="44.8176367" lon="9.4420533"><ele>258.3333333333333</ele><time>2026-04-11T07:47:04.002Z</time></trkpt><trkpt lat="44.8176283" lon="9.4419217"><ele>259.5</ele><time>2026-04-11T07:47:06.001Z</time></trkpt><trkpt lat="44.8175367" lon="9.441855"><ele>260.6666666666667</ele><time>2026-04-11T07:47:08.001Z</time></trkpt><trkpt lat="44.817475" lon="9.4418167"><ele>261.83333333333337</ele><time>2026-04-11T07:47:10.003Z</time></trkpt><trkpt lat="44.8173883" lon="9.4418417"><ele>263.0</ele><time>2026-04-11T07:47:12.001Z</time></trkpt><trkpt lat="44.8172767" lon="9.4418133"><ele>263.0</ele><time>2026-04-11T07:47:14.002Z</time></trkpt><trkpt lat="44.8172183" lon="9.4417133"><ele>263.0</ele><time>2026-04-11T07:47:15.001Z</time></trkpt><trkpt lat="44.8171517" lon="9.4416033"><ele>263.0</ele><time>2026-04-11T07:47:16.001Z</time></trkpt><trkpt lat="44.817065" lon="9.4415033"><ele>263.0</ele><time>2026-04-11T07:47:17.001Z</time></trkpt><trkpt lat="44.8169867" lon="9.44139"><ele>263.0</ele><time>2026-04-11T07:47:18.002Z</time></trkpt><trkpt lat="44.8169267" lon="9.441245"><ele>263.5</ele><time>2026-04-11T07:47:19.007Z</time></trkpt><trkpt lat="44.8168717" lon="9.44107"><ele>264.0</ele><time>2026-04-11T07:47:20.001Z</time></trkpt><trkpt lat="44.8168183" lon="9.4408817"><ele>264.5</ele><time>2026-04-11T07:47:21.003Z</time></trkpt><trkpt lat="44.8167617" lon="9.4406883"><ele>265.0</ele><time>2026-04-11T07:47:22.001Z</time></trkpt><trkpt lat="44.8167083" lon="9.440505"><ele>260.25</ele><time>2026-04-11T07:47:23.002Z</time></trkpt><trkpt lat="44.8166583" lon="9.4403233"><ele>255.5</ele><time>2026-04-11T07:47:24.003Z</time></trkpt><trkpt lat="44.8166283" lon="9.4401367"><ele>250.75</ele><time>2026-04-11T07:47:25.003Z</time></trkpt><trkpt lat="44.8166083" lon="9.4399533"><ele>246.0</ele><time>2026-04-11T07:47:26.002Z</time></trkpt><trkpt lat="44.8166" lon="9.4397767"><ele>246.4</ele><time>2026-04-11T07:47:27.002Z</time></trkpt><trkpt lat="44.8166" lon="9.439615"><ele>246.8</ele><time>2026-04-11T07:47:28.001Z</time></trkpt><trkpt lat="44.8166067" lon="9.4394617"><ele>247.20000000000002</ele><time>2026-04-11T07:47:29.002Z</time></trkpt><trkpt lat="44.8166067" lon="9.439315"><ele>247.60000000000002</ele><time>2026-04-11T07:47:30.002Z</time></trkpt><trkpt lat="44.816585" lon="9.4391717"><ele>248.0</ele><time>2026-04-11T07:47:31.002Z</time></trkpt><trkpt lat="44.8165483" lon="9.4390167"><ele>248.0</ele><time>2026-04-11T07:47:32.001Z</time></trkpt><trkpt lat="44.8165133" lon="9.4388533"><ele>248.0</ele><time>2026-04-11T07:47:33.001Z</time></trkpt><trkpt lat="44.81648" lon="9.4387033"><ele>248.0</ele><time>2026-04-11T07:47:34.001Z</time></trkpt><trkpt lat="44.81644" lon="9.4385733"><ele>248.0</ele><time>2026-04-11T07:47:35.001Z</time></trkpt><trkpt lat="44.8163817" lon="9.43849"><ele>248.0</ele><time>2026-04-11T07:47:36.001Z</time></trkpt><trkpt lat="44.81631" lon="9.4384167"><ele>248.0</ele><time>2026-04-11T07:47:37.002Z</time></trkpt><trkpt lat="44.8162333" lon="9.438335"><ele>248.0</ele><time>2026-04-11T07:47:38.001Z</time></trkpt><trkpt lat="44.816155" lon="9.4382317"><ele>248.0</ele><time>2026-04-11T07:47:39.003Z</time></trkpt><trkpt lat="44.8160733" lon="9.4381033"><ele>248.0</ele><time>2026-04-11T07:47:40.001Z</time></trkpt><trkpt lat="44.815985" lon="9.4379683"><ele>248.0</ele><time>2026-04-11T07:47:41.001Z</time></trkpt><trkpt lat="44.8158983" lon="9.4378217"><ele>248.0</ele><time>2026-04-11T07:47:42.003Z</time></trkpt><trkpt lat="44.81581" lon="9.43769"><ele>248.0</ele><time>2026-04-11T07:47:43.002Z</time></trkpt><trkpt lat="44.8157283" lon="9.4375517"><ele>248.0</ele><time>2026-04-11T07:47:44.003Z</time></trkpt><trkpt lat="44.8156417" lon="9.4374133"><ele>248.0</ele><time>2026-04-11T07:47:45.002Z</time></trkpt><trkpt lat="44.815555" lon="9.4372767"><ele>248.0</ele><time>2026-04-11T07:47:46.001Z</time></trkpt><trkpt lat="44.81547" lon="9.4371483"><ele>248.0</ele><time>2026-04-11T07:47:47.002Z</time></trkpt><trkpt lat="44.8153833" lon="9.437035"><ele>248.0</ele><time>2026-04-11T07:47:48.001Z</time></trkpt><trkpt lat="44.8152967" lon="9.4369217"><ele>249.2</ele><time>2026-04-11T07:47:49.003Z</time></trkpt><trkpt lat="44.8152133" lon="9.4368167"><ele>250.4</ele><time>2026-04-11T07:47:50.003Z</time></trkpt><trkpt lat="44.8151483" lon="9.4367167"><ele>251.59999999999997</ele><time>2026-04-11T07:47:51.003Z</time></trkpt><trkpt lat="44.81509" lon="9.4366233"><ele>252.79999999999998</ele><time>2026-04-11T07:47:52.002Z</time></trkpt><trkpt lat="44.8150333" lon="9.4365417"><ele>254.0</ele><time>2026-04-11T07:47:53.003Z</time></trkpt><trkpt lat="44.8149783" lon="9.43647"><ele>252.00000000000003</ele><time>2026-04-11T07:47:54.002Z</time></trkpt><trkpt lat="44.8149167" lon="9.43639"><ele>250.0</ele><time>2026-04-11T07:47:55.004Z</time></trkpt><trkpt lat="44.8148583" lon="9.4363117"><ele>248.0</ele><time>2026-04-11T07:47:56.002Z</time></trkpt><trkpt lat="44.8148017" lon="9.4362367"><ele>246.0</ele><time>2026-04-11T07:47:57.001Z</time></trkpt><trkpt lat="44.8147533" lon="9.436165"><ele>244.00000000000003</ele><time>2026-04-11T07:47:58.003Z</time></trkpt><trkpt lat="44.814705" lon="9.4361067"><ele>242.0</ele><time>2026-04-11T07:47:59.001Z</time></trkpt><trkpt lat="44.8146033" lon="9.4360267"><ele>242.0</ele><time>2026-04-11T07:48:01.002Z</time></trkpt><trkpt lat="44.814495" lon="9.435995"><ele>242.0</ele><time>2026-04-11T07:48:03.002Z</time></trkpt><trkpt lat="44.814385" lon="9.4359583"><ele>242.0</ele><time>2026-04-11T07:48:05.002Z</time></trkpt><trkpt lat="44.81433" lon="9.4358533"><ele>242.0</ele><time>2026-04-11T07:48:07.002Z</time></trkpt><trkpt lat="44.8143567" lon="9.4357217"><ele>242.0</ele><time>2026-04-11T07:48:09.002Z</time></trkpt><trkpt lat="44.8143883" lon="9.4356433"><ele>242.0</ele><time>2026-04-11T07:48:10.001Z</time></trkpt><trkpt lat="44.8144283" lon="9.435565"><ele>242.0</ele><time>2026-04-11T07:48:11Z</time></trkpt><trkpt lat="44.81449" lon="9.4354567"><ele>242.0</ele><time>2026-04-11T07:48:13.003Z</time></trkpt><trkpt lat="44.81454" lon="9.4352983"><ele>242.0</ele><time>2026-04-11T07:48:24.003Z</time></trkpt><trkpt lat="44.8146083" lon="9.43512"><ele>242.0</ele><time>2026-04-11T07:48:26Z</time></trkpt><trkpt lat="44.8146667" lon="9.434995"><ele>241.25</ele><time>2026-04-11T07:48:27.001Z</time></trkpt><trkpt lat="44.8147417" lon="9.43486"><ele>240.5</ele><time>2026-04-11T07:48:28.002Z</time></trkpt><trkpt lat="44.8148283" lon="9.4347267"><ele>239.75</ele><time>2026-04-11T07:48:29.001Z</time></trkpt><trkpt lat="44.8149167" lon="9.4346083"><ele>239.0</ele><time>2026-04-11T07:48:30.001Z</time></trkpt><trkpt lat="44.815" lon="9.4344933"><ele>238.25</ele><time>2026-04-11T07:48:31.001Z</time></trkpt><trkpt lat="44.8151017" lon="9.4343783"><ele>237.5</ele><time>2026-04-11T07:48:32.001Z</time></trkpt><trkpt lat="44.8151983" lon="9.4342767"><ele>236.75</ele><time>2026-04-11T07:48:33.002Z</time></trkpt><trkpt lat="44.81529" lon="9.4341967"><ele>236.0</ele><time>2026-04-11T07:48:34.002Z</time></trkpt><trkpt lat="44.815385" lon="9.4341183"><ele>238.75</ele><time>2026-04-11T07:48:35.002Z</time></trkpt><trkpt lat="44.8154867" lon="9.4340417"><ele>241.5</ele><time>2026-04-11T07:48:36.002Z</time></trkpt><trkpt lat="44.8155933" lon="9.4339617"><ele>244.25</ele><time>2026-04-11T07:48:37.002Z</time></trkpt><trkpt lat="44.8157033" lon="9.4338717"><ele>247.0</ele><time>2026-04-11T07:48:38.001Z</time></trkpt><trkpt lat="44.8158117" lon="9.433775"><ele>247.0</ele><time>2026-04-11T07:48:39.003Z</time></trkpt><trkpt lat="44.81591" lon="9.4336617"><ele>247.0</ele><time>2026-04-11T07:48:40.001Z</time></trkpt><trkpt lat="44.8159967" lon="9.4335517"><ele>247.0</ele><time>2026-04-11T07:48:41.001Z</time></trkpt><trkpt lat="44.8160683" lon="9.4334483"><ele>247.0</ele><time>2026-04-11T07:48:42.002Z</time></trkpt><trkpt lat="44.8161183" lon="9.4333467"><ele>247.0</ele><time>2026-04-11T07:48:43.001Z</time></trkpt><trkpt lat="44.8161567" lon="9.4332317"><ele>249.75</ele><time>2026-04-11T07:48:44.002Z</time></trkpt><trkpt lat="44.816195" lon="9.43309"><ele>252.5</ele><time>2026-04-11T07:48:45.001Z</time></trkpt><trkpt lat="44.81624" lon="9.4329317"><ele>255.25</ele><time>2026-04-11T07:48:46.002Z</time></trkpt><trkpt lat="44.8162883" lon="9.4327717"><ele>258.0</ele><time>2026-04-11T07:48:47.001Z</time></trkpt><trkpt lat="44.8163283" lon="9.4326217"><ele>258.0</ele><time>2026-04-11T07:48:48.001Z</time></trkpt><trkpt lat="44.8163583" lon="9.4324817"><ele>258.0</ele><time>2026-04-11T07:48:49.002Z</time></trkpt><trkpt lat="44.81638" lon="9.4323467"><ele>258.0</ele><time>2026-04-11T07:48:50.003Z</time></trkpt><trkpt lat="44.8164" lon="9.432215"><ele>258.0</ele><time>2026-04-11T07:48:51.002Z</time></trkpt><trkpt lat="44.8164233" lon="9.43208"><ele>258.0</ele><time>2026-04-11T07:48:52.004Z</time></trkpt><trkpt lat="44.8164533" lon="9.43194"><ele>256.75</ele><time>2026-04-11T07:48:53.003Z</time></trkpt><trkpt lat="44.816495" lon="9.4317983"><ele>255.5</ele><time>2026-04-11T07:48:54.004Z</time></trkpt><trkpt lat="44.8165467" lon="9.431645"><ele>254.25</ele><time>2026-04-11T07:48:55.001Z</time></trkpt><trkpt lat="44.8166" lon="9.4314867"><ele>253.0</ele><time>2026-04-11T07:48:56.001Z</time></trkpt><trkpt lat="44.8166467" lon="9.4313267"><ele>252.60000000000002</ele><time>2026-04-11T07:48:57.002Z</time></trkpt><trkpt lat="44.8166867" lon="9.4311717"><ele>252.20000000000002</ele><time>2026-04-11T07:48:58.002Z</time></trkpt><trkpt lat="44.8167283" lon="9.4310267"><ele>251.8</ele><time>2026-04-11T07:48:59.003Z</time></trkpt><trkpt lat="44.8167633" lon="9.4308917"><ele>251.4</ele><time>2026-04-11T07:49:00.004Z</time></trkpt><trkpt lat="44.8167933" lon="9.430765"><ele>251.0</ele><time>2026-04-11T07:49:01.001Z</time></trkpt><trkpt lat="44.8168217" lon="9.43065"><ele>251.00000000000003</ele><time>2026-04-11T07:49:02.001Z</time></trkpt><trkpt lat="44.8168433" lon="9.4305483"><ele>251.0</ele><time>2026-04-11T07:49:03.001Z</time></trkpt><trkpt lat="44.81686" lon="9.4303933"><ele>251.0</ele><time>2026-04-11T07:49:05.002Z</time></trkpt><trkpt lat="44.8168217" lon="9.4302683"><ele>251.0</ele><time>2026-04-11T07:49:07.003Z</time></trkpt><trkpt lat="44.8167667" lon="9.4302083"><ele>251.00000000000003</ele><time>2026-04-11T07:49:08.003Z</time></trkpt><trkpt lat="44.8166917" lon="9.4301633"><ele>251.0</ele><time>2026-04-11T07:49:09.004Z</time></trkpt><trkpt lat="44.8166" lon="9.4301233"><ele>251.0</ele><time>2026-04-11T07:49:10.004Z</time></trkpt><trkpt lat="44.8164983" lon="9.4300833"><ele>251.00000000000003</ele><time>2026-04-11T07:49:11.003Z</time></trkpt><trkpt lat="44.8163917" lon="9.430035"><ele>251.00000000000003</ele><time>2026-04-11T07:49:12.002Z</time></trkpt><trkpt lat="44.8162883" lon="9.4299917"><ele>251.0</ele><time>2026-04-11T07:49:13.004Z</time></trkpt><trkpt lat="44.8161917" lon="9.42995"><ele>251.0</ele><time>2026-04-11T07:49:14.001Z</time></trkpt><trkpt lat="44.8161017" lon="9.4299117"><ele>251.00000000000003</ele><time>2026-04-11T07:49:15.001Z</time></trkpt><trkpt lat="44.816015" lon="9.4298767"><ele>251.0</ele><time>2026-04-11T07:49:16.001Z</time></trkpt><trkpt lat="44.8159333" lon="9.429845"><ele>251.0</ele><time>2026-04-11T07:49:17.001Z</time></trkpt><trkpt lat="44.815855" lon="9.429815"><ele>251.0</ele><time>2026-04-11T07:49:18.002Z</time></trkpt><trkpt lat="44.8157883" lon="9.42978"><ele>251.00000000000003</ele><time>2026-04-11T07:49:19.003Z</time></trkpt><trkpt lat="44.815725" lon="9.4296733"><ele>251.0</ele><time>2026-04-11T07:49:21.003Z</time></trkpt><trkpt lat="44.8157667" lon="9.429515"><ele>250.8</ele><time>2026-04-11T07:49:23.003Z</time></trkpt><trkpt lat="44.8158117" lon="9.4294133"><ele>250.60000000000002</ele><time>2026-04-11T07:49:24.004Z</time></trkpt><trkpt lat="44.8158683" lon="9.429305"><ele>250.4</ele><time>2026-04-11T07:49:25.003Z</time></trkpt><trkpt lat="44.815925" lon="9.42919"><ele>250.2</ele><time>2026-04-11T07:49:26.003Z</time></trkpt><trkpt lat="44.8159933" lon="9.4290633"><ele>250.0</ele><time>2026-04-11T07:49:27.003Z</time></trkpt><trkpt lat="44.81608" lon="9.4289317"><ele>251.75</ele><time>2026-04-11T07:49:28.003Z</time></trkpt><trkpt lat="44.8161733" lon="9.4288067"><ele>253.5</ele><time>2026-04-11T07:49:29.003Z</time></trkpt><trkpt lat="44.8162683" lon="9.428685"><ele>255.25</ele><time>2026-04-11T07:49:30.003Z</time></trkpt><trkpt lat="44.8163717" lon="9.42856"><ele>257.0</ele><time>2026-04-11T07:49:31.003Z</time></trkpt><trkpt lat="44.8164817" lon="9.4284367"><ele>257.0</ele><time>2026-04-11T07:49:32.003Z</time></trkpt><trkpt lat="44.81659" lon="9.428315"><ele>257.0</ele><time>2026-04-11T07:49:33.002Z</time></trkpt><trkpt lat="44.8166967" lon="9.4282017"><ele>257.0</ele><time>2026-04-11T07:49:34.001Z</time></trkpt><trkpt lat="44.816805" lon="9.4280983"><ele>257.0</ele><time>2026-04-11T07:49:35.001Z</time></trkpt><trkpt lat="44.8169117" lon="9.4280017"><ele>257.8</ele><time>2026-04-11T07:49:36.002Z</time></trkpt><trkpt lat="44.8170117" lon="9.4279083"><ele>258.6</ele><time>2026-04-11T07:49:37.001Z</time></trkpt><trkpt lat="44.8171" lon="9.42782"><ele>259.40000000000003</ele><time>2026-04-11T07:49:38.001Z</time></trkpt><trkpt lat="44.8171817" lon="9.42774"><ele>260.2</ele><time>2026-04-11T07:49:39.002Z</time></trkpt><trkpt lat="44.81726" lon="9.427665"><ele>261.0</ele><time>2026-04-11T07:49:40.002Z</time></trkpt><trkpt lat="44.8173467" lon="9.4275917"><ele>261.0</ele><time>2026-04-11T07:49:41.001Z</time></trkpt><trkpt lat="44.8174417" lon="9.427515"><ele>261.0</ele><time>2026-04-11T07:49:42.002Z</time></trkpt><trkpt lat="44.81754" lon="9.4274283"><ele>261.0</ele><time>2026-04-11T07:49:43.001Z</time></trkpt><trkpt lat="44.81764" lon="9.4273383"><ele>261.0</ele><time>2026-04-11T07:49:44.001Z</time></trkpt><trkpt lat="44.8177383" lon="9.427245"><ele>260.6</ele><time>2026-04-11T07:49:45.002Z</time></trkpt><trkpt lat="44.817835" lon="9.4271533"><ele>260.20000000000005</ele><time>2026-04-11T07:49:46.001Z</time></trkpt><trkpt lat="44.8179283" lon="9.4270717"><ele>259.79999999999995</ele><time>2026-04-11T07:49:47.001Z</time></trkpt><trkpt lat="44.8180183" lon="9.427"><ele>259.4</ele><time>2026-04-11T07:49:48.001Z</time></trkpt><trkpt lat="44.8181" lon="9.4269367"><ele>259.0</ele><time>2026-04-11T07:49:49.002Z</time></trkpt><trkpt lat="44.8181767" lon="9.4268817"><ele>260.16666666666663</ele><time>2026-04-11T07:49:50.001Z</time></trkpt><trkpt lat="44.8182517" lon="9.4268367"><ele>261.3333333333333</ele><time>2026-04-11T07:49:51.001Z</time></trkpt><trkpt lat="44.8183267" lon="9.426805"><ele>262.5</ele><time>2026-04-11T07:49:52.001Z</time></trkpt><trkpt lat="44.8183917" lon="9.4267883"><ele>263.6666666666667</ele><time>2026-04-11T07:49:53.002Z</time></trkpt><trkpt lat="44.8185" lon="9.426805"><ele>264.83333333333337</ele><time>2026-04-11T07:49:55.002Z</time></trkpt><trkpt lat="44.8185817" lon="9.4268217"><ele>266.0</ele><time>2026-04-11T07:49:57.001Z</time></trkpt><trkpt lat="44.8186567" lon="9.4267967"><ele>266.0</ele><time>2026-04-11T07:49:59.002Z</time></trkpt><trkpt lat="44.81872" lon="9.4267617"><ele>266.0</ele><time>2026-04-11T07:50:01.002Z</time></trkpt><trkpt lat="44.8187967" lon="9.4267533"><ele>266.0</ele><time>2026-04-11T07:50:03.002Z</time></trkpt><trkpt lat="44.8188833" lon="9.426735"><ele>266.0</ele><time>2026-04-11T07:50:05.001Z</time></trkpt><trkpt lat="44.8189633" lon="9.4266917"><ele>266.0</ele><time>2026-04-11T07:50:07.002Z</time></trkpt><trkpt lat="44.8190383" lon="9.42667"><ele>266.0</ele><time>2026-04-11T07:50:09.001Z</time></trkpt><trkpt lat="44.8191417" lon="9.4266517"><ele>266.0</ele><time>2026-04-11T07:50:15.003Z</time></trkpt><trkpt lat="44.8192267" lon="9.42666"><ele>266.0</ele><time>2026-04-11T07:50:17.001Z</time></trkpt><trkpt lat="44.8193333" lon="9.4266667"><ele>266.0</ele><time>2026-04-11T07:50:19.001Z</time></trkpt><trkpt lat="44.819445" lon="9.4266317"><ele>266.0</ele><time>2026-04-11T07:50:21.001Z</time></trkpt><trkpt lat="44.8195517" lon="9.4265733"><ele>266.0</ele><time>2026-04-11T07:50:23.001Z</time></trkpt><trkpt lat="44.8196167" lon="9.4265383"><ele>267.0</ele><time>2026-04-11T07:50:24.002Z</time></trkpt><trkpt lat="44.81969" lon="9.4265"><ele>268.0</ele><time>2026-04-11T07:50:25.002Z</time></trkpt><trkpt lat="44.81976" lon="9.4264467"><ele>269.0</ele><time>2026-04-11T07:50:26.002Z</time></trkpt><trkpt lat="44.81982" lon="9.4263867"><ele>270.0</ele><time>2026-04-11T07:50:27.002Z</time></trkpt><trkpt lat="44.819875" lon="9.4263233"><ele>271.0</ele><time>2026-04-11T07:50:28.002Z</time></trkpt><trkpt lat="44.8199383" lon="9.42626"><ele>272.0</ele><time>2026-04-11T07:50:29.001Z</time></trkpt><trkpt lat="44.8199983" lon="9.42619"><ele>273.0</ele><time>2026-04-11T07:50:30.002Z</time></trkpt><trkpt lat="44.820065" lon="9.426125"><ele>274.0</ele><time>2026-04-11T07:50:31.001Z</time></trkpt><trkpt lat="44.82013" lon="9.4260683"><ele>275.0</ele><time>2026-04-11T07:50:32.001Z</time></trkpt><trkpt lat="44.8201967" lon="9.4260183"><ele>276.0</ele><time>2026-04-11T07:50:33.002Z</time></trkpt><trkpt lat="44.8202567" lon="9.4259617"><ele>277.0</ele><time>2026-04-11T07:50:34.003Z</time></trkpt><trkpt lat="44.820315" lon="9.4258917"><ele>278.0</ele><time>2026-04-11T07:50:35.003Z</time></trkpt><trkpt lat="44.820375" lon="9.4258217"><ele>278.83333333333337</ele><time>2026-04-11T07:50:36.001Z</time></trkpt><trkpt lat="44.82044" lon="9.4257567"><ele>279.6666666666667</ele><time>2026-04-11T07:50:37.001Z</time></trkpt><trkpt lat="44.820505" lon="9.4257"><ele>280.5</ele><time>2026-04-11T07:50:38.002Z</time></trkpt><trkpt lat="44.8205667" lon="9.4256567"><ele>281.3333333333333</ele><time>2026-04-11T07:50:39.002Z</time></trkpt><trkpt lat="44.8206333" lon="9.425615"><ele>282.16666666666663</ele><time>2026-04-11T07:50:40.002Z</time></trkpt><trkpt lat="44.8207098" lon="9.4255848"><ele>283.0</ele><time>2026-04-11T07:50:41.001Z</time></trkpt><trkpt lat="44.8207925" lon="9.4255547"><ele>283.0</ele><time>2026-04-11T07:50:42.002Z</time></trkpt><trkpt lat="44.8208733" lon="9.4255187"><ele>283.0</ele><time>2026-04-11T07:50:43.001Z</time></trkpt><trkpt lat="44.8209499" lon="9.4254778"><ele>283.0</ele><time>2026-04-11T07:50:44.003Z</time></trkpt><trkpt lat="44.8210237" lon="9.425437"><ele>283.0</ele><time>2026-04-11T07:50:45.001Z</time></trkpt><trkpt lat="44.8210998" lon="9.4253993"><ele>283.0</ele><time>2026-04-11T07:50:46.002Z</time></trkpt><trkpt lat="44.8211812" lon="9.4253704"><ele>283.0</ele><time>2026-04-11T07:50:47.001Z</time></trkpt><trkpt lat="44.8212677" lon="9.4253455"><ele>286.8</ele><time>2026-04-11T07:50:48.001Z</time></trkpt><trkpt lat="44.8213611" lon="9.4253189"><ele>290.6</ele><time>2026-04-11T07:50:49.001Z</time></trkpt><trkpt lat="44.8214685" lon="9.4252876"><ele>294.4</ele><time>2026-04-11T07:50:50.001Z</time></trkpt><trkpt lat="44.821581" lon="9.4252464"><ele>298.2</ele><time>2026-04-11T07:50:51.002Z</time></trkpt><trkpt lat="44.8217036" lon="9.4251997"><ele>302.0</ele><time>2026-04-11T07:50:52Z</time></trkpt><trkpt lat="44.8218281" lon="9.4251572"><ele>303.4</ele><time>2026-04-11T07:50:53.001Z</time></trkpt><trkpt lat="44.8219387" lon="9.4251053"><ele>304.79999999999995</ele><time>2026-04-11T07:50:54.001Z</time></trkpt><trkpt lat="44.8220312" lon="9.4250455"><ele>306.2</ele><time>2026-04-11T07:50:55.002Z</time></trkpt><trkpt lat="44.8221108" lon="9.4249859"><ele>307.59999999999997</ele><time>2026-04-11T07:50:56.003Z</time></trkpt><trkpt lat="44.8221749" lon="9.4249559"><ele>309.0</ele><time>2026-04-11T07:50:57.003Z</time></trkpt><trkpt lat="44.8222562" lon="9.4249532"><ele>309.0</ele><time>2026-04-11T07:50:59Z</time></trkpt><trkpt lat="44.8223271" lon="9.4250023"><ele>309.0</ele><time>2026-04-11T07:51:04.002Z</time></trkpt><trkpt lat="44.822397" lon="9.4250657"><ele>309.0</ele><time>2026-04-11T07:51:06.001Z</time></trkpt><trkpt lat="44.8224753" lon="9.4251238"><ele>309.0</ele><time>2026-04-11T07:51:08Z</time></trkpt><trkpt lat="44.8225496" lon="9.4251721"><ele>309.0</ele><time>2026-04-11T07:51:10.001Z</time></trkpt><trkpt lat="44.8226067" lon="9.4252175"><ele>309.0</ele><time>2026-04-11T07:51:12.001Z</time></trkpt><trkpt lat="44.8226665" lon="9.4252504"><ele>310.0</ele><time>2026-04-11T07:51:14.001Z</time></trkpt><trkpt lat="44.8227424" lon="9.4252626"><ele>311.0</ele><time>2026-04-11T07:51:16.001Z</time></trkpt><trkpt lat="44.8228115" lon="9.4252389"><ele>312.0</ele><time>2026-04-11T07:51:18.002Z</time></trkpt><trkpt lat="44.8228902" lon="9.4252097"><ele>313.0</ele><time>2026-04-11T07:51:20Z</time></trkpt><trkpt lat="44.8229449" lon="9.4251657"><ele>314.0</ele><time>2026-04-11T07:51:22.002Z</time></trkpt><trkpt lat="44.8229183" lon="9.4250115"><ele>315.0</ele><time>2026-04-11T07:51:25.004Z</time></trkpt><trkpt lat="44.8228737" lon="9.4249317"><ele>315.0</ele><time>2026-04-11T07:51:26.003Z</time></trkpt><trkpt lat="44.8228149" lon="9.42484"><ele>315.0</ele><time>2026-04-11T07:51:27.003Z</time></trkpt><trkpt lat="44.8227504" lon="9.4247488"><ele>315.0</ele><time>2026-04-11T07:51:28.003Z</time></trkpt><trkpt lat="44.822672" lon="9.4246776"><ele>315.0</ele><time>2026-04-11T07:51:29.003Z</time></trkpt><trkpt lat="44.8225891" lon="9.4246267"><ele>315.0</ele><time>2026-04-11T07:51:30.002Z</time></trkpt><trkpt lat="44.8224867" lon="9.4245939"><ele>316.4</ele><time>2026-04-11T07:51:31.001Z</time></trkpt><trkpt lat="44.8223726" lon="9.4245714"><ele>317.8</ele><time>2026-04-11T07:51:32.001Z</time></trkpt><trkpt lat="44.8222561" lon="9.4245518"><ele>319.20000000000005</ele><time>2026-04-11T07:51:33.002Z</time></trkpt><trkpt lat="44.8221523" lon="9.4245389"><ele>320.6</ele><time>2026-04-11T07:51:34.001Z</time></trkpt><trkpt lat="44.8220608" lon="9.4245168"><ele>322.0</ele><time>2026-04-11T07:51:35.002Z</time></trkpt><trkpt lat="44.8219852" lon="9.4244755"><ele>322.0</ele><time>2026-04-11T07:51:36.002Z</time></trkpt><trkpt lat="44.821923" lon="9.4244088"><ele>322.0</ele><time>2026-04-11T07:51:37.002Z</time></trkpt><trkpt lat="44.8219013" lon="9.4243134"><ele>322.0</ele><time>2026-04-11T07:51:38.003Z</time></trkpt><trkpt lat="44.821919" lon="9.4242063"><ele>322.0</ele><time>2026-04-11T07:51:39.005Z</time></trkpt><trkpt lat="44.821965" lon="9.4240917"><ele>322.0</ele><time>2026-04-11T07:51:40.002Z</time></trkpt><trkpt lat="44.8220417" lon="9.4239917"><ele>322.0</ele><time>2026-04-11T07:51:41.002Z</time></trkpt><trkpt lat="44.8221367" lon="9.4239083"><ele>322.0</ele><time>2026-04-11T07:51:42.001Z</time></trkpt><trkpt lat="44.822225" lon="9.4238433"><ele>322.0</ele><time>2026-04-11T07:51:43.001Z</time></trkpt><trkpt lat="44.8223117" lon="9.4238"><ele>322.0</ele><time>2026-04-11T07:51:44.001Z</time></trkpt><trkpt lat="44.822395" lon="9.42377"><ele>322.0</ele><time>2026-04-11T07:51:45.001Z</time></trkpt><trkpt lat="44.822485" lon="9.4237483"><ele>322.0</ele><time>2026-04-11T07:51:46.001Z</time></trkpt><trkpt lat="44.822585" lon="9.4237333"><ele>324.0</ele><time>2026-04-11T07:51:47.007Z</time></trkpt><trkpt lat="44.8226967" lon="9.4237083"><ele>326.0</ele><time>2026-04-11T07:51:48.002Z</time></trkpt><trkpt lat="44.8228067" lon="9.4236683"><ele>328.0</ele><time>2026-04-11T07:51:49.003Z</time></trkpt><trkpt lat="44.8229083" lon="9.4236233"><ele>330.0</ele><time>2026-04-11T07:51:50.002Z</time></trkpt><trkpt lat="44.8230133" lon="9.4235667"><ele>332.0</ele><time>2026-04-11T07:51:51.002Z</time></trkpt><trkpt lat="44.8231167" lon="9.42351"><ele>332.0</ele><time>2026-04-11T07:51:52.002Z</time></trkpt><trkpt lat="44.82321" lon="9.4234567"><ele>332.0</ele><time>2026-04-11T07:51:53.003Z</time></trkpt><trkpt lat="44.8232933" lon="9.4234017"><ele>332.0</ele><time>2026-04-11T07:51:54.002Z</time></trkpt><trkpt lat="44.82338" lon="9.4233367"><ele>332.0</ele><time>2026-04-11T07:51:55.002Z</time></trkpt><trkpt lat="44.82346" lon="9.4232683"><ele>332.0</ele><time>2026-04-11T07:51:56.004Z</time></trkpt><trkpt lat="44.8235317" lon="9.4232083"><ele>332.7142857142857</ele><time>2026-04-11T07:51:57.002Z</time></trkpt><trkpt lat="44.8235933" lon="9.4231583"><ele>333.42857142857144</ele><time>2026-04-11T07:51:58.001Z</time></trkpt><trkpt lat="44.8236517" lon="9.4231217"><ele>334.14285714285717</ele><time>2026-04-11T07:51:59.003Z</time></trkpt><trkpt lat="44.8237133" lon="9.4230883"><ele>334.8571428571429</ele><time>2026-04-11T07:52:00.007Z</time></trkpt><trkpt lat="44.8237767" lon="9.4230583"><ele>335.57142857142856</ele><time>2026-04-11T07:52:01.003Z</time></trkpt><trkpt lat="44.8238417" lon="9.42302"><ele>336.28571428571433</ele><time>2026-04-11T07:52:02.004Z</time></trkpt><trkpt lat="44.8239083" lon="9.42299"><ele>337.0</ele><time>2026-04-11T07:52:03.002Z</time></trkpt><trkpt lat="44.824005" lon="9.422905"><ele>338.0</ele><time>2026-04-11T07:52:05.002Z</time></trkpt><trkpt lat="44.82407" lon="9.42277"><ele>339.0</ele><time>2026-04-11T07:52:07.004Z</time></trkpt><trkpt lat="44.824145" lon="9.4226167"><ele>340.0</ele><time>2026-04-11T07:52:09.002Z</time></trkpt><trkpt lat="44.824195" lon="9.422535"><ele>341.0</ele><time>2026-04-11T07:52:10.003Z</time></trkpt><trkpt lat="44.8242517" lon="9.422455"><ele>342.0</ele><time>2026-04-11T07:52:11.001Z</time></trkpt><trkpt lat="44.82431" lon="9.4223633"><ele>342.0</ele><time>2026-04-11T07:52:12.002Z</time></trkpt><trkpt lat="44.824365" lon="9.4222667"><ele>342.0</ele><time>2026-04-11T07:52:13.003Z</time></trkpt><trkpt lat="44.8244183" lon="9.42216"><ele>342.0</ele><time>2026-04-11T07:52:14.001Z</time></trkpt><trkpt lat="44.8244667" lon="9.4220417"><ele>342.0</ele><time>2026-04-11T07:52:15.004Z</time></trkpt><trkpt lat="44.82452" lon="9.4219033"><ele>342.0</ele><time>2026-04-11T07:52:16.002Z</time></trkpt><trkpt lat="44.8245767" lon="9.4217467"><ele>343.75</ele><time>2026-04-11T07:52:17.002Z</time></trkpt><trkpt lat="44.8246367" lon="9.4215833"><ele>345.5</ele><time>2026-04-11T07:52:18.001Z</time></trkpt><trkpt lat="44.8246917" lon="9.4214333"><ele>347.25</ele><time>2026-04-11T07:52:19.002Z</time></trkpt><trkpt lat="44.8247483" lon="9.421285"><ele>349.0</ele><time>2026-04-11T07:52:20.002Z</time></trkpt><trkpt lat="44.8248067" lon="9.42113"><ele>349.75</ele><time>2026-04-11T07:52:21.003Z</time></trkpt><trkpt lat="44.824875" lon="9.420965"><ele>350.5</ele><time>2026-04-11T07:52:22.003Z</time></trkpt><trkpt lat="44.8249517" lon="9.42079"><ele>351.25</ele><time>2026-04-11T07:52:23.003Z</time></trkpt><trkpt lat="44.82504" lon="9.4206217"><ele>352.0</ele><time>2026-04-11T07:52:24.002Z</time></trkpt><trkpt lat="44.825145" lon="9.42046"><ele>351.25</ele><time>2026-04-11T07:52:25.003Z</time></trkpt><trkpt lat="44.82525" lon="9.42031"><ele>350.5</ele><time>2026-04-11T07:52:26.002Z</time></trkpt><trkpt lat="44.8253433" lon="9.4201767"><ele>349.75</ele><time>2026-04-11T07:52:27.004Z</time></trkpt><trkpt lat="44.8254217" lon="9.4200467"><ele>349.0</ele><time>2026-04-11T07:52:28.002Z</time></trkpt><trkpt lat="44.8254717" lon="9.4199067"><ele>349.0</ele><time>2026-04-11T07:52:29.002Z</time></trkpt><trkpt lat="44.8254917" lon="9.4197517"><ele>349.0</ele><time>2026-04-11T07:52:30.002Z</time></trkpt><trkpt lat="44.8254967" lon="9.41957"><ele>349.0</ele><time>2026-04-11T07:52:31.001Z</time></trkpt><trkpt lat="44.8254967" lon="9.4193633"><ele>349.0</ele><time>2026-04-11T07:52:32.001Z</time></trkpt><trkpt lat="44.8254883" lon="9.4191517"><ele>350.25</ele><time>2026-04-11T07:52:33.001Z</time></trkpt><trkpt lat="44.8254667" lon="9.41895"><ele>351.5</ele><time>2026-04-11T07:52:34.001Z</time></trkpt><trkpt lat="44.8254383" lon="9.4187667"><ele>352.75</ele><time>2026-04-11T07:52:35.002Z</time></trkpt><trkpt lat="44.825415" lon="9.418605"><ele>354.0</ele><time>2026-04-11T07:52:36.001Z</time></trkpt><trkpt lat="44.8254017" lon="9.4184483"><ele>355.2</ele><time>2026-04-11T07:52:37.001Z</time></trkpt><trkpt lat="44.825415" lon="9.41831"><ele>356.4</ele><time>2026-04-11T07:52:38.002Z</time></trkpt><trkpt lat="44.82546" lon="9.4181983"><ele>357.6</ele><time>2026-04-11T07:52:39.002Z</time></trkpt><trkpt lat="44.825535" lon="9.4181283"><ele>358.8</ele><time>2026-04-11T07:52:40.001Z</time></trkpt><trkpt lat="44.8256317" lon="9.41811"><ele>360.0</ele><time>2026-04-11T07:52:41.001Z</time></trkpt><trkpt lat="44.8257317" lon="9.4181583"><ele>360.0</ele><time>2026-04-11T07:52:42.004Z</time></trkpt><trkpt lat="44.8258233" lon="9.4182567"><ele>360.0</ele><time>2026-04-11T07:52:43.001Z</time></trkpt><trkpt lat="44.825895" lon="9.418375"><ele>360.0</ele><time>2026-04-11T07:52:44.001Z</time></trkpt><trkpt lat="44.8259567" lon="9.4184983"><ele>360.0</ele><time>2026-04-11T07:52:45.002Z</time></trkpt><trkpt lat="44.8260117" lon="9.4186167"><ele>360.0</ele><time>2026-04-11T07:52:46.002Z</time></trkpt><trkpt lat="44.8260617" lon="9.418735"><ele>359.3333333333333</ele><time>2026-04-11T07:52:47.001Z</time></trkpt><trkpt lat="44.8261083" lon="9.4188517"><ele>358.6666666666667</ele><time>2026-04-11T07:52:48.001Z</time></trkpt><trkpt lat="44.82615" lon="9.4189733"><ele>358.0</ele><time>2026-04-11T07:52:49.004Z</time></trkpt><trkpt lat="44.8261833" lon="9.4190933"><ele>357.33333333333337</ele><time>2026-04-11T07:52:50.003Z</time></trkpt><trkpt lat="44.82621" lon="9.41921"><ele>356.6666666666667</ele><time>2026-04-11T07:52:51.003Z</time></trkpt><trkpt lat="44.8262383" lon="9.41931"><ele>356.0</ele><time>2026-04-11T07:52:52.002Z</time></trkpt><trkpt lat="44.8262667" lon="9.41939"><ele>356.0</ele><time>2026-04-11T07:52:53.004Z</time></trkpt><trkpt lat="44.8263567" lon="9.41951"><ele>356.0</ele><time>2026-04-11T07:52:55.003Z</time></trkpt><trkpt lat="44.8264683" lon="9.4195367"><ele>356.0</ele><time>2026-04-11T07:52:57.003Z</time></trkpt><trkpt lat="44.8265367" lon="9.4194733"><ele>356.0</ele><time>2026-04-11T07:52:59.002Z</time></trkpt><trkpt lat="44.8265533" lon="9.41934"><ele>356.0</ele><time>2026-04-11T07:53:01.002Z</time></trkpt><trkpt lat="44.8265467" lon="9.41925"><ele>356.0</ele><time>2026-04-11T07:53:02.002Z</time></trkpt><trkpt lat="44.82653" lon="9.4190983"><ele>356.0</ele><time>2026-04-11T07:53:04.001Z</time></trkpt><trkpt lat="44.8265033" lon="9.4189833"><ele>356.0</ele><time>2026-04-11T07:53:06.002Z</time></trkpt><trkpt lat="44.8264667" lon="9.4188367"><ele>356.0</ele><time>2026-04-11T07:53:08.001Z</time></trkpt><trkpt lat="44.8264517" lon="9.4187267"><ele>356.0</ele><time>2026-04-11T07:53:10.001Z</time></trkpt><trkpt lat="44.8264333" lon="9.4185733"><ele>358.0</ele><time>2026-04-11T07:53:12.001Z</time></trkpt><trkpt lat="44.82642" lon="9.4184767"><ele>360.0</ele><time>2026-04-11T07:53:13.003Z</time></trkpt><trkpt lat="44.8264097" lon="9.4183809"><ele>362.0</ele><time>2026-04-11T07:53:14.001Z</time></trkpt><trkpt lat="44.8264084" lon="9.4182649"><ele>364.0</ele><time>2026-04-11T07:53:15.001Z</time></trkpt><trkpt lat="44.8264115" lon="9.4181438"><ele>366.0</ele><time>2026-04-11T07:53:16.001Z</time></trkpt><trkpt lat="44.82641" lon="9.4180322"><ele>368.0</ele><time>2026-04-11T07:53:17.001Z</time></trkpt><trkpt lat="44.8264047" lon="9.4179308"><ele>370.2</ele><time>2026-04-11T07:53:18.003Z</time></trkpt><trkpt lat="44.8263708" lon="9.4177727"><ele>372.4</ele><time>2026-04-11T07:53:20.002Z</time></trkpt><trkpt lat="44.82635" lon="9.4176329"><ele>374.59999999999997</ele><time>2026-04-11T07:53:22.002Z</time></trkpt><trkpt lat="44.8263349" lon="9.4174783"><ele>376.79999999999995</ele><time>2026-04-11T07:53:24.004Z</time></trkpt><trkpt lat="44.8263616" lon="9.4173255"><ele>379.0</ele><time>2026-04-11T07:53:26.003Z</time></trkpt><trkpt lat="44.8263835" lon="9.4172232"><ele>380.4</ele><time>2026-04-11T07:53:27.001Z</time></trkpt><trkpt lat="44.8264038" lon="9.4171145"><ele>381.79999999999995</ele><time>2026-04-11T07:53:28.002Z</time></trkpt><trkpt lat="44.8264221" lon="9.4170093"><ele>383.20000000000005</ele><time>2026-04-11T07:53:29.002Z</time></trkpt><trkpt lat="44.8264357" lon="9.4169139"><ele>384.6</ele><time>2026-04-11T07:53:30.001Z</time></trkpt><trkpt lat="44.8264199" lon="9.4167474"><ele>386.0</ele><time>2026-04-11T07:53:32.001Z</time></trkpt><trkpt lat="44.8264049" lon="9.4165921"><ele>385.99999999999994</ele><time>2026-04-11T07:53:34.002Z</time></trkpt><trkpt lat="44.8264063" lon="9.416465"><ele>386.0</ele><time>2026-04-11T07:53:36.001Z</time></trkpt><trkpt lat="44.8263884" lon="9.4163683"><ele>386.0</ele><time>2026-04-11T07:53:38Z</time></trkpt><trkpt lat="44.8263833" lon="9.4162656"><ele>386.0</ele><time>2026-04-11T07:53:40.001Z</time></trkpt><trkpt lat="44.8263621" lon="9.4161651"><ele>385.99999999999994</ele><time>2026-04-11T07:53:43.003Z</time></trkpt><trkpt lat="44.8263383" lon="9.416055"><ele>386.0</ele><time>2026-04-11T07:53:46.002Z</time></trkpt><trkpt lat="44.8263233" lon="9.4159417"><ele>387.6</ele><time>2026-04-11T07:53:48.002Z</time></trkpt><trkpt lat="44.8262617" lon="9.4158033"><ele>389.20000000000005</ele><time>2026-04-11T07:53:55.002Z</time></trkpt><trkpt lat="44.8262133" lon="9.4157033"><ele>390.79999999999995</ele><time>2026-04-11T07:53:58.002Z</time></trkpt><trkpt lat="44.8261817" lon="9.4155967"><ele>392.4</ele><time>2026-04-11T07:54:01.002Z</time></trkpt><trkpt lat="44.826155" lon="9.4154467"><ele>394.0</ele><time>2026-04-11T07:54:04.002Z</time></trkpt><trkpt lat="44.82611" lon="9.41529"><ele>397.75</ele><time>2026-04-11T07:54:06.002Z</time></trkpt><trkpt lat="44.826075" lon="9.4151167"><ele>401.5</ele><time>2026-04-11T07:54:08.003Z</time></trkpt><trkpt lat="44.8260683" lon="9.4149383"><ele>405.25</ele><time>2026-04-11T07:54:10.002Z</time></trkpt><trkpt lat="44.82607" lon="9.414765"><ele>409.0</ele><time>2026-04-11T07:54:12.001Z</time></trkpt><trkpt lat="44.8260717" lon="9.4145983"><ele>410.83333333333337</ele><time>2026-04-11T07:54:14.002Z</time></trkpt><trkpt lat="44.82609" lon="9.414445"><ele>412.6666666666667</ele><time>2026-04-11T07:54:16.004Z</time></trkpt><trkpt lat="44.8261167" lon="9.4143583"><ele>414.5</ele><time>2026-04-11T07:54:17.003Z</time></trkpt><trkpt lat="44.826155" lon="9.414275"><ele>416.33333333333337</ele><time>2026-04-11T07:54:18.002Z</time></trkpt><trkpt lat="44.8261983" lon="9.414185"><ele>418.1666666666667</ele><time>2026-04-11T07:54:19.001Z</time></trkpt><trkpt lat="44.8262317" lon="9.4141067"><ele>420.0</ele><time>2026-04-11T07:54:20.002Z</time></trkpt><trkpt lat="44.82627" lon="9.4140283"><ele>420.0</ele><time>2026-04-11T07:54:21.003Z</time></trkpt><trkpt lat="44.8263233" lon="9.41389"><ele>420.0</ele><time>2026-04-11T07:54:23.004Z</time></trkpt><trkpt lat="44.8263667" lon="9.4137617"><ele>420.0</ele><time>2026-04-11T07:54:25.003Z</time></trkpt><trkpt lat="44.8264217" lon="9.4136567"><ele>420.0</ele><time>2026-04-11T07:54:27.003Z</time></trkpt><trkpt lat="44.8264717" lon="9.41357"><ele>420.0</ele><time>2026-04-11T07:54:29.001Z</time></trkpt><trkpt lat="44.8265317" lon="9.4135033"><ele>421.6666666666667</ele><time>2026-04-11T07:54:31.002Z</time></trkpt><trkpt lat="44.8265867" lon="9.413385"><ele>423.33333333333337</ele><time>2026-04-11T07:54:33.002Z</time></trkpt><trkpt lat="44.8266383" lon="9.4132367"><ele>425.0</ele><time>2026-04-11T07:54:35.001Z</time></trkpt><trkpt lat="44.8266717" lon="9.4131567"><ele>426.6666666666667</ele><time>2026-04-11T07:54:36.003Z</time></trkpt><trkpt lat="44.8267133" lon="9.4130633"><ele>428.33333333333337</ele><time>2026-04-11T07:54:37.001Z</time></trkpt><trkpt lat="44.8267617" lon="9.41297"><ele>430.0</ele><time>2026-04-11T07:54:38Z</time></trkpt><trkpt lat="44.826815" lon="9.412885"><ele>430.50000000000006</ele><time>2026-04-11T07:54:39.002Z</time></trkpt><trkpt lat="44.8268683" lon="9.4128067"><ele>431.0</ele><time>2026-04-11T07:54:40.001Z</time></trkpt><trkpt lat="44.826915" lon="9.4127267"><ele>431.5</ele><time>2026-04-11T07:54:41.001Z</time></trkpt><trkpt lat="44.826965" lon="9.41264"><ele>432.0</ele><time>2026-04-11T07:54:42.001Z</time></trkpt><trkpt lat="44.82701" lon="9.4125633"><ele>432.50000000000006</ele><time>2026-04-11T07:54:43.002Z</time></trkpt><trkpt lat="44.8270467" lon="9.412465"><ele>433.0</ele><time>2026-04-11T07:54:45.003Z</time></trkpt><trkpt lat="44.8270517" lon="9.4123567"><ele>433.00000000000006</ele><time>2026-04-11T07:54:48.001Z</time></trkpt><trkpt lat="44.827085" lon="9.412275"><ele>433.0</ele><time>2026-04-11T07:55:01.002Z</time></trkpt><trkpt lat="44.827145" lon="9.4122017"><ele>433.0</ele><time>2026-04-11T07:55:03.001Z</time></trkpt><trkpt lat="44.827175" lon="9.4121"><ele>433.0</ele><time>2026-04-11T07:55:05.001Z</time></trkpt><trkpt lat="44.8272267" lon="9.41199"><ele>433.00000000000006</ele><time>2026-04-11T07:55:07Z</time></trkpt><trkpt lat="44.8272767" lon="9.41186"><ele>433.0</ele><time>2026-04-11T07:55:09.002Z</time></trkpt><trkpt lat="44.82734" lon="9.4117317"><ele>434.85714285714283</ele><time>2026-04-11T07:55:11.001Z</time></trkpt><trkpt lat="44.82738" lon="9.4116567"><ele>436.7142857142857</ele><time>2026-04-11T07:55:12.001Z</time></trkpt><trkpt lat="44.8274267" lon="9.4115833"><ele>438.57142857142856</ele><time>2026-04-11T07:55:13.001Z</time></trkpt><trkpt lat="44.827475" lon="9.411505"><ele>440.42857142857144</ele><time>2026-04-11T07:55:14.002Z</time></trkpt><trkpt lat="44.8275217" lon="9.4114217"><ele>442.2857142857143</ele><time>2026-04-11T07:55:15.002Z</time></trkpt><trkpt lat="44.8275617" lon="9.4113317"><ele>444.1428571428571</ele><time>2026-04-11T07:55:16.001Z</time></trkpt><trkpt lat="44.8275967" lon="9.4112433"><ele>446.0</ele><time>2026-04-11T07:55:17.001Z</time></trkpt><trkpt lat="44.8276433" lon="9.4111"><ele>448.4</ele><time>2026-04-11T07:55:19.001Z</time></trkpt><trkpt lat="44.8276767" lon="9.4109667"><ele>450.8</ele><time>2026-04-11T07:55:21.003Z</time></trkpt><trkpt lat="44.8277233" lon="9.4108433"><ele>453.19999999999993</ele><time>2026-04-11T07:55:23.001Z</time></trkpt><trkpt lat="44.8277733" lon="9.410745"><ele>455.59999999999997</ele><time>2026-04-11T07:55:25.001Z</time></trkpt><trkpt lat="44.82782" lon="9.41065"><ele>458.0</ele><time>2026-04-11T07:55:27.001Z</time></trkpt><trkpt lat="44.8278633" lon="9.4104933"><ele>460.2</ele><time>2026-04-11T07:55:29.002Z</time></trkpt><trkpt lat="44.8278962" lon="9.4104159"><ele>462.4</ele><time>2026-04-11T07:55:30.002Z</time></trkpt><trkpt lat="44.8279742" lon="9.4102958"><ele>464.59999999999997</ele><time>2026-04-11T07:55:32.003Z</time></trkpt><trkpt lat="44.8280341" lon="9.410187"><ele>466.79999999999995</ele><time>2026-04-11T07:55:34.001Z</time></trkpt><trkpt lat="44.8280506" lon="9.4100674"><ele>469.0</ele><time>2026-04-11T07:55:36.002Z</time></trkpt><trkpt lat="44.8280715" lon="9.4099286"><ele>469.0</ele><time>2026-04-11T07:55:38.001Z</time></trkpt><trkpt lat="44.8280586" lon="9.4097917"><ele>469.0</ele><time>2026-04-11T07:55:40.001Z</time></trkpt><trkpt lat="44.8280393" lon="9.4096614"><ele>469.0</ele><time>2026-04-11T07:55:42.001Z</time></trkpt><trkpt lat="44.8280342" lon="9.4095117"><ele>469.0</ele><time>2026-04-11T07:55:44.001Z</time></trkpt><trkpt lat="44.8280181" lon="9.4093519"><ele>469.0</ele><time>2026-04-11T07:55:46.003Z</time></trkpt><trkpt lat="44.8280046" lon="9.4092518"><ele>470.6666666666667</ele><time>2026-04-11T07:55:47.002Z</time></trkpt><trkpt lat="44.8279865" lon="9.4091444"><ele>472.33333333333337</ele><time>2026-04-11T07:55:48.001Z</time></trkpt><trkpt lat="44.8279685" lon="9.4090283"><ele>474.0</ele><time>2026-04-11T07:55:49.001Z</time></trkpt><trkpt lat="44.8279503" lon="9.4089179"><ele>475.66666666666663</ele><time>2026-04-11T07:55:50.003Z</time></trkpt><trkpt lat="44.8279331" lon="9.4088174"><ele>477.3333333333333</ele><time>2026-04-11T07:55:51.002Z</time></trkpt><trkpt lat="44.8279189" lon="9.4087207"><ele>479.0</ele><time>2026-04-11T07:55:52.001Z</time></trkpt><trkpt lat="44.8279133" lon="9.4086238"><ele>480.49999999999994</ele><time>2026-04-11T07:55:53.002Z</time></trkpt><trkpt lat="44.8279162" lon="9.4085277"><ele>482.0</ele><time>2026-04-11T07:55:54.001Z</time></trkpt><trkpt lat="44.8279256" lon="9.4084364"><ele>483.5</ele><time>2026-04-11T07:55:55.002Z</time></trkpt><trkpt lat="44.8279661" lon="9.4082858"><ele>485.0</ele><time>2026-04-11T07:55:57.001Z</time></trkpt><trkpt lat="44.8280358" lon="9.4081729"><ele>486.49999999999994</ele><time>2026-04-11T07:55:59.001Z</time></trkpt><trkpt lat="44.8280846" lon="9.4081021"><ele>488.0</ele><time>2026-04-11T07:56:00.004Z</time></trkpt><trkpt lat="44.8281322" lon="9.4080102"><ele>489.49999999999994</ele><time>2026-04-11T07:56:01.004Z</time></trkpt><trkpt lat="44.8281633" lon="9.4079158"><ele>491.0</ele><time>2026-04-11T07:56:02Z</time></trkpt><trkpt lat="44.8281772" lon="9.4078283"><ele>492.5</ele><time>2026-04-11T07:56:03.002Z</time></trkpt><trkpt lat="44.8281848" lon="9.4077363"><ele>494.0</ele><time>2026-04-11T07:56:04.002Z</time></trkpt><trkpt lat="44.8281976" lon="9.4076281"><ele>495.49999999999994</ele><time>2026-04-11T07:56:05.002Z</time></trkpt><trkpt lat="44.8282139" lon="9.4074997"><ele>497.0</ele><time>2026-04-11T07:56:06.001Z</time></trkpt><trkpt lat="44.8282294" lon="9.4073605"><ele>497.0</ele><time>2026-04-11T07:56:07.001Z</time></trkpt><trkpt lat="44.8282422" lon="9.4072169"><ele>497.0</ele><time>2026-04-11T07:56:08.001Z</time></trkpt><trkpt lat="44.828251" lon="9.4070641"><ele>497.0</ele><time>2026-04-11T07:56:09.003Z</time></trkpt><trkpt lat="44.8282576" lon="9.4068967"><ele>497.0</ele><time>2026-04-11T07:56:10.001Z</time></trkpt><trkpt lat="44.8282601" lon="9.4067266"><ele>498.5</ele><time>2026-04-11T07:56:11.001Z</time></trkpt><trkpt lat="44.8282631" lon="9.4065613"><ele>500.0</ele><time>2026-04-11T07:56:12.002Z</time></trkpt><trkpt lat="44.8282648" lon="9.4063921"><ele>501.5</ele><time>2026-04-11T07:56:13.001Z</time></trkpt><trkpt lat="44.8282701" lon="9.4062158"><ele>503.0</ele><time>2026-04-11T07:56:14.001Z</time></trkpt><trkpt lat="44.8282805" lon="9.4060464"><ele>504.2</ele><time>2026-04-11T07:56:15.002Z</time></trkpt><trkpt lat="44.8282948" lon="9.4058901"><ele>505.4</ele><time>2026-04-11T07:56:16.001Z</time></trkpt><trkpt lat="44.8283106" lon="9.4057503"><ele>506.59999999999997</ele><time>2026-04-11T07:56:17.003Z</time></trkpt><trkpt lat="44.8283259" lon="9.4056217"><ele>507.79999999999995</ele><time>2026-04-11T07:56:18.001Z</time></trkpt><trkpt lat="44.8283398" lon="9.4055034"><ele>509.0</ele><time>2026-04-11T07:56:19.001Z</time></trkpt><trkpt lat="44.8283634" lon="9.4053883"><ele>508.2</ele><time>2026-04-11T07:56:20.001Z</time></trkpt><trkpt lat="44.8284081" lon="9.4052661"><ele>507.4</ele><time>2026-04-11T07:56:21.001Z</time></trkpt><trkpt lat="44.8284712" lon="9.4051488"><ele>506.6</ele><time>2026-04-11T07:56:22.001Z</time></trkpt><trkpt lat="44.8285306" lon="9.4050342"><ele>505.8</ele><time>2026-04-11T07:56:23.001Z</time></trkpt><trkpt lat="44.8285716" lon="9.4049114"><ele>505.0</ele><time>2026-04-11T07:56:24.002Z</time></trkpt><trkpt lat="44.8285823" lon="9.4047693"><ele>508.25</ele><time>2026-04-11T07:56:25.001Z</time></trkpt><trkpt lat="44.8285607" lon="9.4046119"><ele>511.5</ele><time>2026-04-11T07:56:26.001Z</time></trkpt><trkpt lat="44.8285079" lon="9.4044547"><ele>514.75</ele><time>2026-04-11T07:56:27.001Z</time></trkpt><trkpt lat="44.8284315" lon="9.4043146"><ele>518.0</ele><time>2026-04-11T07:56:28.003Z</time></trkpt><trkpt lat="44.8283393" lon="9.4042098"><ele>518.0</ele><time>2026-04-11T07:56:29.001Z</time></trkpt><trkpt lat="44.828242" lon="9.4041434"><ele>518.0</ele><time>2026-04-11T07:56:30.001Z</time></trkpt><trkpt lat="44.8281566" lon="9.4040922"><ele>518.0</ele><time>2026-04-11T07:56:31.001Z</time></trkpt><trkpt lat="44.8280891" lon="9.4040303"><ele>518.0</ele><time>2026-04-11T07:56:32.001Z</time></trkpt><trkpt lat="44.8280355" lon="9.403944"><ele>518.0</ele><time>2026-04-11T07:56:33.004Z</time></trkpt><trkpt lat="44.8279891" lon="9.4038299"><ele>520.0</ele><time>2026-04-11T07:56:34.002Z</time></trkpt><trkpt lat="44.8279521" lon="9.4036846"><ele>522.0</ele><time>2026-04-11T07:56:35.001Z</time></trkpt><trkpt lat="44.8279219" lon="9.4035246"><ele>524.0</ele><time>2026-04-11T07:56:36.003Z</time></trkpt><trkpt lat="44.8279075" lon="9.4033695"><ele>526.0</ele><time>2026-04-11T07:56:37.003Z</time></trkpt><trkpt lat="44.8279035" lon="9.4032305"><ele>528.0</ele><time>2026-04-11T07:56:38.002Z</time></trkpt><trkpt lat="44.8279086" lon="9.4031071"><ele>529.8333333333334</ele><time>2026-04-11T07:56:39.003Z</time></trkpt><trkpt lat="44.8279181" lon="9.4029881"><ele>531.6666666666666</ele><time>2026-04-11T07:56:40.002Z</time></trkpt><trkpt lat="44.8279345" lon="9.4028734"><ele>533.5</ele><time>2026-04-11T07:56:41.002Z</time></trkpt><trkpt lat="44.8279712" lon="9.4027695"><ele>535.3333333333333</ele><time>2026-04-11T07:56:42.001Z</time></trkpt><trkpt lat="44.828037" lon="9.4026856"><ele>537.1666666666666</ele><time>2026-04-11T07:56:43.001Z</time></trkpt><trkpt lat="44.8281344" lon="9.402625"><ele>539.0</ele><time>2026-04-11T07:56:44.001Z</time></trkpt><trkpt lat="44.8282508" lon="9.4025725"><ele>539.0</ele><time>2026-04-11T07:56:45.002Z</time></trkpt><trkpt lat="44.8283748" lon="9.4025167"><ele>539.0</ele><time>2026-04-11T07:56:46.001Z</time></trkpt><trkpt lat="44.8284964" lon="9.4024522"><ele>539.0</ele><time>2026-04-11T07:56:47.001Z</time></trkpt><trkpt lat="44.8286018" lon="9.4023842"><ele>539.0</ele><time>2026-04-11T07:56:48.001Z</time></trkpt><trkpt lat="44.8286969" lon="9.4022998"><ele>539.0</ele><time>2026-04-11T07:56:49.005Z</time></trkpt><trkpt lat="44.8287829" lon="9.4021885"><ele>539.0</ele><time>2026-04-11T07:56:50.002Z</time></trkpt><trkpt lat="44.8288533" lon="9.4020417"><ele>539.0</ele><time>2026-04-11T07:56:51.002Z</time></trkpt><trkpt lat="44.828925" lon="9.4018883"><ele>539.0</ele><time>2026-04-11T07:56:52.003Z</time></trkpt><trkpt lat="44.8289933" lon="9.401735"><ele>540.75</ele><time>2026-04-11T07:56:53.001Z</time></trkpt><trkpt lat="44.8290633" lon="9.4015833"><ele>542.5</ele><time>2026-04-11T07:56:54.002Z</time></trkpt><trkpt lat="44.8291317" lon="9.4014383"><ele>544.25</ele><time>2026-04-11T07:56:55.002Z</time></trkpt><trkpt lat="44.8291983" lon="9.4012967"><ele>546.0</ele><time>2026-04-11T07:56:56.004Z</time></trkpt><trkpt lat="44.8292533" lon="9.4011567"><ele>548.75</ele><time>2026-04-11T07:56:57.003Z</time></trkpt><trkpt lat="44.8292933" lon="9.4010083"><ele>551.5</ele><time>2026-04-11T07:56:58.001Z</time></trkpt><trkpt lat="44.8293167" lon="9.4008517"><ele>554.25</ele><time>2026-04-11T07:56:59.001Z</time></trkpt><trkpt lat="44.8293217" lon="9.4006917"><ele>557.0</ele><time>2026-04-11T07:57:00.002Z</time></trkpt><trkpt lat="44.8293117" lon="9.4005317"><ele>558.4</ele><time>2026-04-11T07:57:01.001Z</time></trkpt><trkpt lat="44.8292983" lon="9.40037"><ele>559.8000000000001</ele><time>2026-04-11T07:57:02.001Z</time></trkpt><trkpt lat="44.8292867" lon="9.400215"><ele>561.2</ele><time>2026-04-11T07:57:03.002Z</time></trkpt><trkpt lat="44.8292783" lon="9.4000767"><ele>562.6</ele><time>2026-04-11T07:57:04.002Z</time></trkpt><trkpt lat="44.8292683" lon="9.3999433"><ele>564.0</ele><time>2026-04-11T07:57:05.001Z</time></trkpt><trkpt lat="44.8292567" lon="9.3998233"><ele>564.0</ele><time>2026-04-11T07:57:06.002Z</time></trkpt><trkpt lat="44.829245" lon="9.3997067"><ele>564.0</ele><time>2026-04-11T07:57:07.001Z</time></trkpt><trkpt lat="44.829235" lon="9.399585"><ele>564.0</ele><time>2026-04-11T07:57:08.001Z</time></trkpt><trkpt lat="44.8292217" lon="9.399455"><ele>564.0</ele><time>2026-04-11T07:57:09.003Z</time></trkpt><trkpt lat="44.82921" lon="9.3993317"><ele>564.0</ele><time>2026-04-11T07:57:10.001Z</time></trkpt><trkpt lat="44.8292033" lon="9.3992217"><ele>564.0</ele><time>2026-04-11T07:57:11.001Z</time></trkpt><trkpt lat="44.8292017" lon="9.3991217"><ele>565.5</ele><time>2026-04-11T07:57:12.003Z</time></trkpt><trkpt lat="44.8292083" lon="9.3990233"><ele>567.0</ele><time>2026-04-11T07:57:13.003Z</time></trkpt><trkpt lat="44.8292283" lon="9.39893"><ele>568.5</ele><time>2026-04-11T07:57:14.002Z</time></trkpt><trkpt lat="44.8292617" lon="9.39885"><ele>570.0</ele><time>2026-04-11T07:57:15.002Z</time></trkpt><trkpt lat="44.829315" lon="9.398795"><ele>571.5</ele><time>2026-04-11T07:57:16.001Z</time></trkpt><trkpt lat="44.8294033" lon="9.3988233"><ele>573.0</ele><time>2026-04-11T07:57:17.001Z</time></trkpt><trkpt lat="44.8294967" lon="9.398885"><ele>577.5</ele><time>2026-04-11T07:57:18.001Z</time></trkpt><trkpt lat="44.8296033" lon="9.3989717"><ele>582.0</ele><time>2026-04-11T07:57:19.002Z</time></trkpt><trkpt lat="44.82971" lon="9.3990633"><ele>586.5</ele><time>2026-04-11T07:57:20.001Z</time></trkpt><trkpt lat="44.8298033" lon="9.39915"><ele>591.0</ele><time>2026-04-11T07:57:21.001Z</time></trkpt><trkpt lat="44.8298817" lon="9.3992417"><ele>591.0</ele><time>2026-04-11T07:57:22Z</time></trkpt><trkpt lat="44.8299433" lon="9.39935"><ele>591.0</ele><time>2026-04-11T07:57:23.002Z</time></trkpt><trkpt lat="44.8299917" lon="9.39949"><ele>591.0</ele><time>2026-04-11T07:57:24.001Z</time></trkpt><trkpt lat="44.8300267" lon="9.3996517"><ele>591.0</ele><time>2026-04-11T07:57:25.001Z</time></trkpt><trkpt lat="44.8300517" lon="9.3998217"><ele>589.0</ele><time>2026-04-11T07:57:26.002Z</time></trkpt><trkpt lat="44.83008" lon="9.3999917"><ele>587.0</ele><time>2026-04-11T07:57:27.002Z</time></trkpt><trkpt lat="44.8301083" lon="9.4001483"><ele>585.0</ele><time>2026-04-11T07:57:28.002Z</time></trkpt><trkpt lat="44.8301317" lon="9.4002933"><ele>583.0</ele><time>2026-04-11T07:57:29.003Z</time></trkpt><trkpt lat="44.8301583" lon="9.40044"><ele>589.75</ele><time>2026-04-11T07:57:30.001Z</time></trkpt><trkpt lat="44.8301867" lon="9.4005933"><ele>596.5</ele><time>2026-04-11T07:57:31.002Z</time></trkpt><trkpt lat="44.830225" lon="9.4007533"><ele>603.25</ele><time>2026-04-11T07:57:32.001Z</time></trkpt><trkpt lat="44.8302767" lon="9.400905"><ele>610.0</ele><time>2026-04-11T07:57:33.002Z</time></trkpt><trkpt lat="44.83035" lon="9.401045"><ele>610.0</ele><time>2026-04-11T07:57:34.002Z</time></trkpt><trkpt lat="44.830435" lon="9.4011767"><ele>610.0</ele><time>2026-04-11T07:57:35.001Z</time></trkpt><trkpt lat="44.8305217" lon="9.4013117"><ele>610.0</ele><time>2026-04-11T07:57:36.002Z</time></trkpt><trkpt lat="44.8305983" lon="9.4014533"><ele>610.0</ele><time>2026-04-11T07:57:37.002Z</time></trkpt><trkpt lat="44.8306633" lon="9.4016"><ele>607.25</ele><time>2026-04-11T07:57:38.002Z</time></trkpt><trkpt lat="44.8307233" lon="9.401755"><ele>604.5</ele><time>2026-04-11T07:57:39.003Z</time></trkpt><trkpt lat="44.830775" lon="9.40192"><ele>601.75</ele><time>2026-04-11T07:57:40.002Z</time></trkpt><trkpt lat="44.8308267" lon="9.4020933"><ele>599.0</ele><time>2026-04-11T07:57:41.002Z</time></trkpt><trkpt lat="44.830885" lon="9.4022733"><ele>596.75</ele><time>2026-04-11T07:57:42.002Z</time></trkpt><trkpt lat="44.8309517" lon="9.4024383"><ele>594.5</ele><time>2026-04-11T07:57:43.002Z</time></trkpt><trkpt lat="44.83101" lon="9.40258"><ele>592.25</ele><time>2026-04-11T07:57:44.003Z</time></trkpt><trkpt lat="44.8310667" lon="9.4027133"><ele>590.0</ele><time>2026-04-11T07:57:45.001Z</time></trkpt><trkpt lat="44.83113" lon="9.4028483"><ele>592.2</ele><time>2026-04-11T07:57:46.002Z</time></trkpt><trkpt lat="44.8311917" lon="9.4029783"><ele>594.4</ele><time>2026-04-11T07:57:47.002Z</time></trkpt><trkpt lat="44.83125" lon="9.4030983"><ele>596.6</ele><time>2026-04-11T07:57:48.002Z</time></trkpt><trkpt lat="44.8313" lon="9.4032083"><ele>598.8</ele><time>2026-04-11T07:57:49.004Z</time></trkpt><trkpt lat="44.831345" lon="9.4033033"><ele>601.0</ele><time>2026-04-11T07:57:50.003Z</time></trkpt><trkpt lat="44.831385" lon="9.4033833"><ele>601.0</ele><time>2026-04-11T07:57:51.002Z</time></trkpt><trkpt lat="44.8314517" lon="9.4034967"><ele>601.0</ele><time>2026-04-11T07:57:53.002Z</time></trkpt><trkpt lat="44.8315283" lon="9.403505"><ele>601.0</ele><time>2026-04-11T07:57:56.001Z</time></trkpt><trkpt lat="44.83153" lon="9.4034117"><ele>601.0</ele><time>2026-04-11T07:57:59.001Z</time></trkpt><trkpt lat="44.83152" lon="9.403315"><ele>601.0</ele><time>2026-04-11T07:58:01.001Z</time></trkpt><trkpt lat="44.8315067" lon="9.403205"><ele>601.0</ele><time>2026-04-11T07:58:03.002Z</time></trkpt><trkpt lat="44.8314917" lon="9.4030867"><ele>603.4</ele><time>2026-04-11T07:58:05.001Z</time></trkpt><trkpt lat="44.831485" lon="9.40297"><ele>605.8</ele><time>2026-04-11T07:58:07.003Z</time></trkpt><trkpt lat="44.8314683" lon="9.4028367"><ele>608.1999999999999</ele><time>2026-04-11T07:58:09.001Z</time></trkpt><trkpt lat="44.8314767" lon="9.402705"><ele>610.6</ele><time>2026-04-11T07:58:11.001Z</time></trkpt><trkpt lat="44.8315217" lon="9.4025533"><ele>613.0</ele><time>2026-04-11T07:58:13.002Z</time></trkpt><trkpt lat="44.831555" lon="9.4024133"><ele>613.0</ele><time>2026-04-11T07:58:15.003Z</time></trkpt><trkpt lat="44.831575" lon="9.4022817"><ele>613.0</ele><time>2026-04-11T07:58:17.002Z</time></trkpt><trkpt lat="44.8315767" lon="9.4021283"><ele>613.0</ele><time>2026-04-11T07:58:19.001Z</time></trkpt><trkpt lat="44.831575" lon="9.4019683"><ele>613.0</ele><time>2026-04-11T07:58:21.002Z</time></trkpt><trkpt lat="44.8315467" lon="9.4018517"><ele>613.0</ele><time>2026-04-11T07:58:23.002Z</time></trkpt><trkpt lat="44.83155" lon="9.4017317"><ele>614.5714285714286</ele><time>2026-04-11T07:58:25Z</time></trkpt><trkpt lat="44.831535" lon="9.401595"><ele>616.1428571428571</ele><time>2026-04-11T07:58:27.001Z</time></trkpt><trkpt lat="44.8315217" lon="9.4015"><ele>617.7142857142858</ele><time>2026-04-11T07:58:28.002Z</time></trkpt><trkpt lat="44.8315033" lon="9.4014"><ele>619.2857142857142</ele><time>2026-04-11T07:58:29.002Z</time></trkpt><trkpt lat="44.83149" lon="9.4013067"><ele>620.8571428571428</ele><time>2026-04-11T07:58:30.001Z</time></trkpt><trkpt lat="44.8314933" lon="9.4012117"><ele>622.4285714285714</ele><time>2026-04-11T07:58:31.001Z</time></trkpt><trkpt lat="44.8315183" lon="9.4011283"><ele>624.0</ele><time>2026-04-11T07:58:32.001Z</time></trkpt><trkpt lat="44.831555" lon="9.4010417"><ele>624.8333333333334</ele><time>2026-04-11T07:58:33.001Z</time></trkpt><trkpt lat="44.8316017" lon="9.4009733"><ele>625.6666666666666</ele><time>2026-04-11T07:58:34.001Z</time></trkpt><trkpt lat="44.83165" lon="9.4009033"><ele>626.5</ele><time>2026-04-11T07:58:35.002Z</time></trkpt><trkpt lat="44.8317283" lon="9.400795"><ele>627.3333333333333</ele><time>2026-04-11T07:58:37.001Z</time></trkpt><trkpt lat="44.8318433" lon="9.4008117"><ele>628.1666666666666</ele><time>2026-04-11T07:58:39.002Z</time></trkpt><trkpt lat="44.83191" lon="9.400835"><ele>629.0</ele><time>2026-04-11T07:58:40.001Z</time></trkpt><trkpt lat="44.8319917" lon="9.4008083"><ele>629.0</ele><time>2026-04-11T07:58:42.001Z</time></trkpt><trkpt lat="44.83202" lon="9.4006633"><ele>629.0</ele><time>2026-04-11T07:58:44.002Z</time></trkpt><trkpt lat="44.832035" lon="9.4005717"><ele>629.0</ele><time>2026-04-11T07:58:45.002Z</time></trkpt><trkpt lat="44.8320633" lon="9.4004367"><ele>629.0</ele><time>2026-04-11T07:58:47.002Z</time></trkpt><trkpt lat="44.8321317" lon="9.4003317"><ele>629.0</ele><time>2026-04-11T07:58:49.001Z</time></trkpt><trkpt lat="44.832175" lon="9.4002667"><ele>629.0</ele><time>2026-04-11T07:58:50.001Z</time></trkpt><trkpt lat="44.8322183" lon="9.4001867"><ele>632.8333333333333</ele><time>2026-04-11T07:58:51.001Z</time></trkpt><trkpt lat="44.8322633" lon="9.400105"><ele>636.6666666666666</ele><time>2026-04-11T07:58:52.002Z</time></trkpt><trkpt lat="44.8323033" lon="9.40001"><ele>640.5</ele><time>2026-04-11T07:58:53.001Z</time></trkpt><trkpt lat="44.8323467" lon="9.39991"><ele>644.3333333333334</ele><time>2026-04-11T07:58:54.001Z</time></trkpt><trkpt lat="44.83239" lon="9.399805"><ele>648.1666666666667</ele><time>2026-04-11T07:58:55.001Z</time></trkpt><trkpt lat="44.83243" lon="9.3996983"><ele>652.0</ele><time>2026-04-11T07:58:56.001Z</time></trkpt><trkpt lat="44.8324583" lon="9.3995883"><ele>652.8</ele><time>2026-04-11T07:58:57.001Z</time></trkpt><trkpt lat="44.8324867" lon="9.3994767"><ele>653.6</ele><time>2026-04-11T07:58:58.001Z</time></trkpt><trkpt lat="44.8325383" lon="9.3993633"><ele>654.4</ele><time>2026-04-11T07:58:59.001Z</time></trkpt><trkpt lat="44.832585" lon="9.399245"><ele>655.1999999999999</ele><time>2026-04-11T07:59:00.003Z</time></trkpt><trkpt lat="44.8326367" lon="9.399125"><ele>656.0</ele><time>2026-04-11T07:59:01.001Z</time></trkpt><trkpt lat="44.8326983" lon="9.398995"><ele>656.0</ele><time>2026-04-11T07:59:02.003Z</time></trkpt><trkpt lat="44.8327583" lon="9.39888"><ele>656.0</ele><time>2026-04-11T07:59:03.001Z</time></trkpt><trkpt lat="44.8328267" lon="9.398765"><ele>656.0</ele><time>2026-04-11T07:59:04.001Z</time></trkpt><trkpt lat="44.8328983" lon="9.39866"><ele>656.0</ele><time>2026-04-11T07:59:05.002Z</time></trkpt><trkpt lat="44.8329683" lon="9.3985667"><ele>656.0</ele><time>2026-04-11T07:59:06.001Z</time></trkpt><trkpt lat="44.8330417" lon="9.3984783"><ele>660.0</ele><time>2026-04-11T07:59:07.003Z</time></trkpt><trkpt lat="44.83311" lon="9.3983933"><ele>664.0</ele><time>2026-04-11T07:59:08.002Z</time></trkpt><trkpt lat="44.8331633" lon="9.398325"><ele>668.0</ele><time>2026-04-11T07:59:09.002Z</time></trkpt><trkpt lat="44.8332267" lon="9.3982633"><ele>672.0</ele><time>2026-04-11T07:59:10.002Z</time></trkpt><trkpt lat="44.833315" lon="9.3982083"><ele>676.0</ele><time>2026-04-11T07:59:11.001Z</time></trkpt><trkpt lat="44.8334117" lon="9.3981383"><ele>680.0</ele><time>2026-04-11T07:59:12.001Z</time></trkpt><trkpt lat="44.833505" lon="9.39806"><ele>684.6</ele><time>2026-04-11T07:59:13.001Z</time></trkpt><trkpt lat="44.8335817" lon="9.3979717"><ele>689.2</ele><time>2026-04-11T07:59:14.002Z</time></trkpt><trkpt lat="44.83366" lon="9.3979067"><ele>693.8</ele><time>2026-04-11T07:59:15.002Z</time></trkpt><trkpt lat="44.83375" lon="9.3978617"><ele>698.4</ele><time>2026-04-11T07:59:16.001Z</time></trkpt><trkpt lat="44.8338517" lon="9.3978417"><ele>703.0</ele><time>2026-04-11T07:59:17.001Z</time></trkpt><trkpt lat="44.8339333" lon="9.3978433"><ele>703.0</ele><time>2026-04-11T07:59:18.001Z</time></trkpt><trkpt lat="44.8340467" lon="9.3978317"><ele>703.0</ele><time>2026-04-11T07:59:20.001Z</time></trkpt><trkpt lat="44.8341533" lon="9.397815"><ele>703.0</ele><time>2026-04-11T07:59:22.002Z</time></trkpt><trkpt lat="44.8342633" lon="9.397785"><ele>703.0</ele><time>2026-04-11T07:59:24.002Z</time></trkpt><trkpt lat="44.834345" lon="9.3978"><ele>703.0</ele><time>2026-04-11T07:59:26.002Z</time></trkpt><trkpt lat="44.8344317" lon="9.397945"><ele>705.4</ele><time>2026-04-11T07:59:28.002Z</time></trkpt><trkpt lat="44.8344633" lon="9.3981217"><ele>707.8</ele><time>2026-04-11T07:59:30.001Z</time></trkpt><trkpt lat="44.8344633" lon="9.3982483"><ele>710.2</ele><time>2026-04-11T07:59:31.003Z</time></trkpt><trkpt lat="44.83445" lon="9.398355"><ele>712.6</ele><time>2026-04-11T07:59:32.002Z</time></trkpt><trkpt lat="44.83444" lon="9.3984717"><ele>715.0</ele><time>2026-04-11T07:59:33.003Z</time></trkpt><trkpt lat="44.834425" lon="9.39858"><ele>715.0</ele><time>2026-04-11T07:59:34.001Z</time></trkpt><trkpt lat="44.8344133" lon="9.398685"><ele>715.0</ele><time>2026-04-11T07:59:35.002Z</time></trkpt><trkpt lat="44.8344033" lon="9.3987833"><ele>715.0</ele><time>2026-04-11T07:59:36.001Z</time></trkpt><trkpt lat="44.8344017" lon="9.3988733"><ele>715.0</ele><time>2026-04-11T07:59:37.001Z</time></trkpt><trkpt lat="44.8344117" lon="9.39903"><ele>715.0</ele><time>2026-04-11T07:59:39.001Z</time></trkpt><trkpt lat="44.83443" lon="9.39916"><ele>715.0</ele><time>2026-04-11T07:59:45.001Z</time></trkpt><trkpt lat="44.8344517" lon="9.39925"><ele>713.8333333333334</ele><time>2026-04-11T07:59:47Z</time></trkpt><trkpt lat="44.834475" lon="9.3993533"><ele>712.6666666666667</ele><time>2026-04-11T07:59:49.001Z</time></trkpt><trkpt lat="44.8345467" lon="9.3994417"><ele>711.5</ele><time>2026-04-11T07:59:52.001Z</time></trkpt><trkpt lat="44.8346233" lon="9.39946"><ele>710.3333333333334</ele><time>2026-04-11T07:59:55.002Z</time></trkpt><trkpt lat="44.8346783" lon="9.3993633"><ele>709.1666666666666</ele><time>2026-04-11T07:59:58.002Z</time></trkpt><trkpt lat="44.834702" lon="9.3992637"><ele>708.0</ele><time>2026-04-11T08:00:00.109Z</time></trkpt><trkpt lat="44.8347625" lon="9.399231"><ele>708.0</ele><time>2026-04-11T08:00:02.093Z</time></trkpt><trkpt lat="44.8348341" lon="9.3991449"><ele>708.0</ele><time>2026-04-11T08:00:04.001Z</time></trkpt><trkpt lat="44.8348792" lon="9.3990798"><ele>708.0</ele><time>2026-04-11T08:00:06.065Z</time></trkpt><trkpt lat="44.8348722" lon="9.3989267"><ele>708.0</ele><time>2026-04-11T08:00:08.003Z</time></trkpt><trkpt lat="44.8349421" lon="9.3988274"><ele>708.0</ele><time>2026-04-11T08:00:10.003Z</time></trkpt><trkpt lat="44.8350341" lon="9.3987993"><ele>709.1666666666666</ele><time>2026-04-11T08:00:12.001Z</time></trkpt><trkpt lat="44.8351071" lon="9.398744"><ele>710.3333333333334</ele><time>2026-04-11T08:00:14.001Z</time></trkpt><trkpt lat="44.8351775" lon="9.3986783"><ele>711.5</ele><time>2026-04-11T08:00:16.001Z</time></trkpt><trkpt lat="44.8352502" lon="9.3986098"><ele>712.6666666666667</ele><time>2026-04-11T08:00:19.098Z</time></trkpt><trkpt lat="44.8352979" lon="9.3985377"><ele>713.8333333333334</ele><time>2026-04-11T08:00:20.034Z</time></trkpt><trkpt lat="44.8353369" lon="9.3984228"><ele>715.0</ele><time>2026-04-11T08:00:22.087Z</time></trkpt><trkpt lat="44.8353913" lon="9.3982465"><ele>717.8333333333334</ele><time>2026-04-11T08:00:24.001Z</time></trkpt><trkpt lat="44.835437" lon="9.3981486"><ele>720.6666666666667</ele><time>2026-04-11T08:00:25.001Z</time></trkpt><trkpt lat="44.8354777" lon="9.3980646"><ele>723.5</ele><time>2026-04-11T08:00:26.002Z</time></trkpt><trkpt lat="44.8355296" lon="9.3979791"><ele>726.3333333333334</ele><time>2026-04-11T08:00:28.001Z</time></trkpt><trkpt lat="44.8355967" lon="9.39803"><ele>729.1666666666666</ele><time>2026-04-11T08:00:34.001Z</time></trkpt><trkpt lat="44.835695" lon="9.3980417"><ele>732.0</ele><time>2026-04-11T08:02:11.001Z</time></trkpt><trkpt lat="44.83577" lon="9.3980283"><ele>732.0</ele><time>2026-04-11T08:02:13.001Z</time></trkpt><trkpt lat="44.8358533" lon="9.3980117"><ele>732.0</ele><time>2026-04-11T08:02:15.001Z</time></trkpt><trkpt lat="44.83594" lon="9.3979467"><ele>732.0</ele><time>2026-04-11T08:02:17.002Z</time></trkpt><trkpt lat="44.8360067" lon="9.3978367"><ele>732.0</ele><time>2026-04-11T08:02:19.002Z</time></trkpt><trkpt lat="44.8360967" lon="9.3976933"><ele>732.0</ele><time>2026-04-11T08:02:21.001Z</time></trkpt><trkpt lat="44.8361483" lon="9.397615"><ele>732.6666666666666</ele><time>2026-04-11T08:02:22.001Z</time></trkpt><trkpt lat="44.8361933" lon="9.3975433"><ele>733.3333333333334</ele><time>2026-04-11T08:02:23.001Z</time></trkpt><trkpt lat="44.8362833" lon="9.397425"><ele>734.0</ele><time>2026-04-11T08:02:25.001Z</time></trkpt><trkpt lat="44.8363367" lon="9.3973733"><ele>734.6666666666667</ele><time>2026-04-11T08:02:26.002Z</time></trkpt><trkpt lat="44.83639" lon="9.3973167"><ele>735.3333333333334</ele><time>2026-04-11T08:02:27.002Z</time></trkpt><trkpt lat="44.836445" lon="9.3972567"><ele>736.0</ele><time>2026-04-11T08:02:28Z</time></trkpt><trkpt lat="44.836495" lon="9.3971883"><ele>733.8333333333334</ele><time>2026-04-11T08:02:29.001Z</time></trkpt><trkpt lat="44.836555" lon="9.3971067"><ele>731.6666666666667</ele><time>2026-04-11T08:02:30.002Z</time></trkpt><trkpt lat="44.8366083" lon="9.39702"><ele>729.5</ele><time>2026-04-11T08:02:31.001Z</time></trkpt><trkpt lat="44.8366633" lon="9.39693"><ele>727.3333333333334</ele><time>2026-04-11T08:02:32.001Z</time></trkpt><trkpt lat="44.8367133" lon="9.3968567"><ele>725.1666666666666</ele><time>2026-04-11T08:02:33.002Z</time></trkpt><trkpt lat="44.8367633" lon="9.3967983"><ele>723.0</ele><time>2026-04-11T08:02:34.001Z</time></trkpt><trkpt lat="44.836835" lon="9.3966617"><ele>723.0</ele><time>2026-04-11T08:02:36.001Z</time></trkpt><trkpt lat="44.8368783" lon="9.396585"><ele>723.0</ele><time>2026-04-11T08:02:37.002Z</time></trkpt><trkpt lat="44.83691" lon="9.3964983"><ele>723.0</ele><time>2026-04-11T08:02:38.003Z</time></trkpt><trkpt lat="44.8369667" lon="9.3963383"><ele>723.0</ele><time>2026-04-11T08:02:40.001Z</time></trkpt><trkpt lat="44.8370017" lon="9.3962567"><ele>723.0</ele><time>2026-04-11T08:02:41.001Z</time></trkpt><trkpt lat="44.8370417" lon="9.3961683"><ele>723.0</ele><time>2026-04-11T08:02:42.003Z</time></trkpt><trkpt lat="44.837085" lon="9.3960683"><ele>729.0</ele><time>2026-04-11T08:02:43.001Z</time></trkpt><trkpt lat="44.837135" lon="9.39596"><ele>735.0</ele><time>2026-04-11T08:02:44.001Z</time></trkpt><trkpt lat="44.837185" lon="9.3958633"><ele>741.0</ele><time>2026-04-11T08:02:45.003Z</time></trkpt><trkpt lat="44.837225" lon="9.3957633"><ele>747.0</ele><time>2026-04-11T08:02:46.002Z</time></trkpt><trkpt lat="44.8372633" lon="9.3956717"><ele>753.0</ele><time>2026-04-11T08:02:47.002Z</time></trkpt><trkpt lat="44.8373083" lon="9.3955867"><ele>759.0</ele><time>2026-04-11T08:02:48.001Z</time></trkpt><trkpt lat="44.8373617" lon="9.3954533"><ele>764.1666666666666</ele><time>2026-04-11T08:02:50.002Z</time></trkpt><trkpt lat="44.8374367" lon="9.395315"><ele>769.3333333333333</ele><time>2026-04-11T08:02:52.001Z</time></trkpt><trkpt lat="44.837465" lon="9.3952333"><ele>774.5</ele><time>2026-04-11T08:02:53.001Z</time></trkpt><trkpt lat="44.8374967" lon="9.3951433"><ele>779.6666666666666</ele><time>2026-04-11T08:02:54.002Z</time></trkpt><trkpt lat="44.8375217" lon="9.39504"><ele>784.8333333333333</ele><time>2026-04-11T08:02:55.002Z</time></trkpt><trkpt lat="44.837555" lon="9.3949433"><ele>790.0</ele><time>2026-04-11T08:02:56.001Z</time></trkpt><trkpt lat="44.8375767" lon="9.3948517"><ele>789.9999999999999</ele><time>2026-04-11T08:02:57.003Z</time></trkpt><trkpt lat="44.8376033" lon="9.3947367"><ele>790.0</ele><time>2026-04-11T08:02:58.002Z</time></trkpt><trkpt lat="44.8376167" lon="9.39463"><ele>790.0</ele><time>2026-04-11T08:02:59.002Z</time></trkpt><trkpt lat="44.8376383" lon="9.39453"><ele>790.0</ele><time>2026-04-11T08:03:00.002Z</time></trkpt><trkpt lat="44.83768" lon="9.3944483"><ele>789.9999999999999</ele><time>2026-04-11T08:03:01.001Z</time></trkpt><trkpt lat="44.8377" lon="9.394355"><ele>790.0</ele><time>2026-04-11T08:03:02.001Z</time></trkpt><trkpt lat="44.83775" lon="9.3942733"><ele>791.3333333333333</ele><time>2026-04-11T08:03:03.002Z</time></trkpt><trkpt lat="44.837785" lon="9.394195"><ele>792.6666666666666</ele><time>2026-04-11T08:03:04.001Z</time></trkpt><trkpt lat="44.8378433" lon="9.39412"><ele>794.0</ele><time>2026-04-11T08:03:05.001Z</time></trkpt><trkpt lat="44.837885" lon="9.3940433"><ele>795.3333333333333</ele><time>2026-04-11T08:03:06.003Z</time></trkpt><trkpt lat="44.837935" lon="9.3939467"><ele>796.6666666666666</ele><time>2026-04-11T08:03:07.002Z</time></trkpt><trkpt lat="44.8380083" lon="9.393875"><ele>798.0</ele><time>2026-04-11T08:03:08.002Z</time></trkpt><trkpt lat="44.838075" lon="9.393815"><ele>798.0</ele><time>2026-04-11T08:03:09.001Z</time></trkpt><trkpt lat="44.838145" lon="9.3937517"><ele>798.0</ele><time>2026-04-11T08:03:10.003Z</time></trkpt><trkpt lat="44.8381883" lon="9.3936817"><ele>798.0</ele><time>2026-04-11T08:03:11.001Z</time></trkpt><trkpt lat="44.83823" lon="9.39361"><ele>798.0</ele><time>2026-04-11T08:03:12.006Z</time></trkpt><trkpt lat="44.8382833" lon="9.3935267"><ele>798.0</ele><time>2026-04-11T08:03:13.002Z</time></trkpt><trkpt lat="44.838325" lon="9.3934317"><ele>798.0</ele><time>2026-04-11T08:03:14.002Z</time></trkpt><trkpt lat="44.83837" lon="9.39334"><ele>798.0</ele><time>2026-04-11T08:03:15.003Z</time></trkpt><trkpt lat="44.8384167" lon="9.393245"><ele>798.0</ele><time>2026-04-11T08:03:16.002Z</time></trkpt><trkpt lat="44.838505" lon="9.393155"><ele>798.0</ele><time>2026-04-11T08:03:17.002Z</time></trkpt><trkpt lat="44.8385283" lon="9.3930633"><ele>798.0</ele><time>2026-04-11T08:03:18.002Z</time></trkpt><trkpt lat="44.8385533" lon="9.3929817"><ele>798.0</ele><time>2026-04-11T08:03:19.003Z</time></trkpt><trkpt lat="44.8386017" lon="9.392905"><ele>798.0</ele><time>2026-04-11T08:03:20.001Z</time></trkpt><trkpt lat="44.8386533" lon="9.3928217"><ele>796.5</ele><time>2026-04-11T08:03:21.001Z</time></trkpt><trkpt lat="44.8386917" lon="9.3927367"><ele>795.0</ele><time>2026-04-11T08:03:22.001Z</time></trkpt><trkpt lat="44.838715" lon="9.3926233"><ele>793.5</ele><time>2026-04-11T08:03:23Z</time></trkpt><trkpt lat="44.83874" lon="9.392515"><ele>792.0</ele><time>2026-04-11T08:03:24.002Z</time></trkpt><trkpt lat="44.8387367" lon="9.3924033"><ele>790.5</ele><time>2026-04-11T08:03:25.002Z</time></trkpt><trkpt lat="44.8387583" lon="9.3922983"><ele>789.0</ele><time>2026-04-11T08:03:26.002Z</time></trkpt><trkpt lat="44.8387867" lon="9.3922"><ele>794.5</ele><time>2026-04-11T08:03:27.001Z</time></trkpt><trkpt lat="44.8388233" lon="9.39211"><ele>800.0</ele><time>2026-04-11T08:03:28.001Z</time></trkpt><trkpt lat="44.838875" lon="9.39201"><ele>805.5</ele><time>2026-04-11T08:03:29.001Z</time></trkpt><trkpt lat="44.838925" lon="9.391915"><ele>811.0</ele><time>2026-04-11T08:03:30.001Z</time></trkpt><trkpt lat="44.838985" lon="9.3918367"><ele>816.5</ele><time>2026-04-11T08:03:31.003Z</time></trkpt><trkpt lat="44.8390433" lon="9.39176"><ele>822.0</ele><time>2026-04-11T08:03:32.003Z</time></trkpt><trkpt lat="44.83913" lon="9.39172"><ele>822.0</ele><time>2026-04-11T08:03:33.001Z</time></trkpt><trkpt lat="44.8392283" lon="9.3917083"><ele>822.0</ele><time>2026-04-11T08:03:34.002Z</time></trkpt><trkpt lat="44.83933" lon="9.3917317"><ele>822.0</ele><time>2026-04-11T08:03:36.001Z</time></trkpt><trkpt lat="44.8394517" lon="9.391805"><ele>822.0</ele><time>2026-04-11T08:03:38.001Z</time></trkpt><trkpt lat="44.8395117" lon="9.39184"><ele>822.0</ele><time>2026-04-11T08:03:39.002Z</time></trkpt><trkpt lat="44.839605" lon="9.3919067"><ele>823.6666666666666</ele><time>2026-04-11T08:03:41.001Z</time></trkpt><trkpt lat="44.8397017" lon="9.3919767"><ele>825.3333333333333</ele><time>2026-04-11T08:03:43.002Z</time></trkpt><trkpt lat="44.8397667" lon="9.3920067"><ele>827.0</ele><time>2026-04-11T08:03:44.003Z</time></trkpt><trkpt lat="44.8398433" lon="9.392055"><ele>828.6666666666666</ele><time>2026-04-11T08:03:45.002Z</time></trkpt><trkpt lat="44.83993" lon="9.39211"><ele>830.3333333333333</ele><time>2026-04-11T08:03:46.001Z</time></trkpt><trkpt lat="44.840005" lon="9.3921633"><ele>832.0</ele><time>2026-04-11T08:03:47.002Z</time></trkpt><trkpt lat="44.8400633" lon="9.3922117"><ele>834.0</ele><time>2026-04-11T08:03:48.002Z</time></trkpt><trkpt lat="44.8401669" lon="9.3922898"><ele>836.0</ele><time>2026-04-11T08:03:50.002Z</time></trkpt><trkpt lat="44.8402547" lon="9.3923622"><ele>838.0</ele><time>2026-04-11T08:03:52.002Z</time></trkpt><trkpt lat="44.8403208" lon="9.3924502"><ele>840.0</ele><time>2026-04-11T08:03:54.001Z</time></trkpt><trkpt lat="44.8404011" lon="9.3925372"><ele>842.0</ele><time>2026-04-11T08:03:56.002Z</time></trkpt><trkpt lat="44.8404727" lon="9.3926203"><ele>842.0000000000001</ele><time>2026-04-11T08:03:58.001Z</time></trkpt><trkpt lat="44.8405446" lon="9.3927033"><ele>842.0</ele><time>2026-04-11T08:04:00.001Z</time></trkpt><trkpt lat="44.8406059" lon="9.3927815"><ele>842.0</ele><time>2026-04-11T08:04:02.001Z</time></trkpt><trkpt lat="44.8406773" lon="9.3928393"><ele>842.0</ele><time>2026-04-11T08:04:04.001Z</time></trkpt><trkpt lat="44.8407425" lon="9.3929112"><ele>842.0000000000001</ele><time>2026-04-11T08:04:06.002Z</time></trkpt><trkpt lat="44.8408223" lon="9.3929649"><ele>842.0</ele><time>2026-04-11T08:04:08.002Z</time></trkpt><trkpt lat="44.8408942" lon="9.3930256"><ele>841.1666666666667</ele><time>2026-04-11T08:04:10.001Z</time></trkpt><trkpt lat="44.8409642" lon="9.3930809"><ele>840.3333333333334</ele><time>2026-04-11T08:04:12.002Z</time></trkpt><trkpt lat="44.8410357" lon="9.3931172"><ele>839.5</ele><time>2026-04-11T08:04:16Z</time></trkpt><trkpt lat="44.8411319" lon="9.3931742"><ele>838.6666666666667</ele><time>2026-04-11T08:04:18Z</time></trkpt><trkpt lat="44.8411908" lon="9.3932092"><ele>837.8333333333334</ele><time>2026-04-11T08:04:19.001Z</time></trkpt><trkpt lat="44.841265" lon="9.3932435"><ele>837.0</ele><time>2026-04-11T08:04:20.002Z</time></trkpt><trkpt lat="44.8413446" lon="9.3932775"><ele>837.0</ele><time>2026-04-11T08:04:21.001Z</time></trkpt><trkpt lat="44.8414289" lon="9.3933083"><ele>837.0</ele><time>2026-04-11T08:04:22.001Z</time></trkpt><trkpt lat="44.841507" lon="9.3933359"><ele>837.0</ele><time>2026-04-11T08:04:23.002Z</time></trkpt><trkpt lat="44.8415761" lon="9.39337"><ele>837.0</ele><time>2026-04-11T08:04:24.002Z</time></trkpt><trkpt lat="44.8416829" lon="9.3934486"><ele>837.0</ele><time>2026-04-11T08:04:26.001Z</time></trkpt><trkpt lat="44.8417789" lon="9.3935305"><ele>837.8333333333334</ele><time>2026-04-11T08:04:28.001Z</time></trkpt><trkpt lat="44.8418665" lon="9.3935818"><ele>838.6666666666667</ele><time>2026-04-11T08:04:30.002Z</time></trkpt><trkpt lat="44.8419358" lon="9.3935982"><ele>839.5</ele><time>2026-04-11T08:04:32.001Z</time></trkpt><trkpt lat="44.8420045" lon="9.3936033"><ele>840.3333333333334</ele><time>2026-04-11T08:04:34.002Z</time></trkpt><trkpt lat="44.8420854" lon="9.3936474"><ele>841.1666666666667</ele><time>2026-04-11T08:04:36.001Z</time></trkpt><trkpt lat="44.8421548" lon="9.3937355"><ele>842.0</ele><time>2026-04-11T08:04:38.001Z</time></trkpt><trkpt lat="44.8422409" lon="9.3938626"><ele>842.0</ele><time>2026-04-11T08:04:40.001Z</time></trkpt><trkpt lat="44.8423242" lon="9.3939771"><ele>842.0</ele><time>2026-04-11T08:04:42.002Z</time></trkpt><trkpt lat="44.8423968" lon="9.394065"><ele>842.0</ele><time>2026-04-11T08:04:44.002Z</time></trkpt><trkpt lat="44.8424824" lon="9.3941237"><ele>842.0</ele><time>2026-04-11T08:04:46Z</time></trkpt><trkpt lat="44.8425558" lon="9.3942155"><ele>842.0</ele><time>2026-04-11T08:04:48.001Z</time></trkpt><trkpt lat="44.8426036" lon="9.3943159"><ele>843.8</ele><time>2026-04-11T08:04:50.001Z</time></trkpt><trkpt lat="44.8426578" lon="9.3944154"><ele>845.6</ele><time>2026-04-11T08:04:52.001Z</time></trkpt><trkpt lat="44.842714" lon="9.3945264"><ele>847.4</ele><time>2026-04-11T08:04:54.002Z</time></trkpt><trkpt lat="44.8427914" lon="9.3946254"><ele>849.1999999999999</ele><time>2026-04-11T08:04:56.001Z</time></trkpt><trkpt lat="44.8428739" lon="9.3946871"><ele>851.0</ele><time>2026-04-11T08:04:58.001Z</time></trkpt><trkpt lat="44.8429363" lon="9.3947261"><ele>851.0000000000001</ele><time>2026-04-11T08:05:00.001Z</time></trkpt><trkpt lat="44.8430045" lon="9.3947557"><ele>851.0</ele><time>2026-04-11T08:05:02.001Z</time></trkpt><trkpt lat="44.8430883" lon="9.394798"><ele>851.0</ele><time>2026-04-11T08:05:04.002Z</time></trkpt><trkpt lat="44.8431741" lon="9.3948238"><ele>851.0</ele><time>2026-04-11T08:05:06.001Z</time></trkpt><trkpt lat="44.8432565" lon="9.394857"><ele>851.0000000000001</ele><time>2026-04-11T08:05:08.001Z</time></trkpt><trkpt lat="44.8433244" lon="9.3949103"><ele>851.0</ele><time>2026-04-11T08:05:10.002Z</time></trkpt><trkpt lat="44.8434197" lon="9.3949779"><ele>853.3333333333334</ele><time>2026-04-11T08:05:12Z</time></trkpt><trkpt lat="44.8434931" lon="9.3950122"><ele>855.6666666666667</ele><time>2026-04-11T08:05:14.001Z</time></trkpt><trkpt lat="44.8435573" lon="9.3950494"><ele>858.0</ele><time>2026-04-11T08:05:16.001Z</time></trkpt><trkpt lat="44.8436174" lon="9.3951321"><ele>860.3333333333333</ele><time>2026-04-11T08:05:18.001Z</time></trkpt><trkpt lat="44.8437047" lon="9.3952048"><ele>862.6666666666666</ele><time>2026-04-11T08:05:21.013Z</time></trkpt><trkpt lat="44.8437838" lon="9.395287"><ele>865.0</ele><time>2026-04-11T08:05:23.093Z</time></trkpt><trkpt lat="44.843823" lon="9.3953606"><ele>865.0</ele><time>2026-04-11T08:05:25.069Z</time></trkpt><trkpt lat="44.8438959" lon="9.3953954"><ele>865.0</ele><time>2026-04-11T08:06:12Z</time></trkpt><trkpt lat="44.8439864" lon="9.3954961"><ele>865.0</ele><time>2026-04-11T08:06:14.002Z</time></trkpt><trkpt lat="44.844048" lon="9.3955518"><ele>865.0</ele><time>2026-04-11T08:06:16.001Z</time></trkpt><trkpt lat="44.8440527" lon="9.3954517"><ele>865.0</ele><time>2026-04-11T08:06:22.001Z</time></trkpt><trkpt lat="44.8439796" lon="9.3953112"><ele>865.0</ele><time>2026-04-11T08:06:24.003Z</time></trkpt><trkpt lat="44.8439387" lon="9.3951592"><ele>865.0</ele><time>2026-04-11T08:06:26Z</time></trkpt><trkpt lat="44.8438957" lon="9.3950315"><ele>865.0</ele><time>2026-04-11T08:06:28.001Z</time></trkpt><trkpt lat="44.8438282" lon="9.3949173"><ele>865.0</ele><time>2026-04-11T08:06:30.002Z</time></trkpt><trkpt lat="44.843777" lon="9.394856"><ele>865.0</ele><time>2026-04-11T08:06:31.001Z</time></trkpt><trkpt lat="44.843715" lon="9.3947925"><ele>864.9999999999999</ele><time>2026-04-11T08:06:32.001Z</time></trkpt><trkpt lat="44.8436598" lon="9.3947233"><ele>865.0</ele><time>2026-04-11T08:06:33.002Z</time></trkpt><trkpt lat="44.8436115" lon="9.3946432"><ele>865.0</ele><time>2026-04-11T08:06:34.002Z</time></trkpt><trkpt lat="44.8435763" lon="9.3945512"><ele>865.0</ele><time>2026-04-11T08:06:35.001Z</time></trkpt><trkpt lat="44.8435444" lon="9.3944652"><ele>864.9999999999999</ele><time>2026-04-11T08:06:36.001Z</time></trkpt><trkpt lat="44.8434754" lon="9.3943267"><ele>865.0</ele><time>2026-04-11T08:06:38.002Z</time></trkpt><trkpt lat="44.8434139" lon="9.3941779"><ele>865.8333333333333</ele><time>2026-04-11T08:06:40.002Z</time></trkpt><trkpt lat="44.8433898" lon="9.3940919"><ele>866.6666666666666</ele><time>2026-04-11T08:06:41.002Z</time></trkpt><trkpt lat="44.8433283" lon="9.3939454"><ele>867.5</ele><time>2026-04-11T08:06:43.002Z</time></trkpt><trkpt lat="44.8432919" lon="9.393868"><ele>868.3333333333333</ele><time>2026-04-11T08:06:44.003Z</time></trkpt><trkpt lat="44.8432687" lon="9.393778"><ele>869.1666666666666</ele><time>2026-04-11T08:06:45.002Z</time></trkpt><trkpt lat="44.8432572" lon="9.3936728"><ele>870.0</ele><time>2026-04-11T08:06:46.001Z</time></trkpt><trkpt lat="44.8432476" lon="9.3935603"><ele>870.6666666666666</ele><time>2026-04-11T08:06:47.002Z</time></trkpt><trkpt lat="44.8432342" lon="9.3934524"><ele>871.3333333333333</ele><time>2026-04-11T08:06:48.001Z</time></trkpt><trkpt lat="44.8432167" lon="9.3933501"><ele>872.0</ele><time>2026-04-11T08:06:49.003Z</time></trkpt><trkpt lat="44.8431955" lon="9.3932498"><ele>872.6666666666666</ele><time>2026-04-11T08:06:50.001Z</time></trkpt><trkpt lat="44.8431648" lon="9.393155"><ele>873.3333333333333</ele><time>2026-04-11T08:06:51.001Z</time></trkpt><trkpt lat="44.8431178" lon="9.3930581"><ele>874.0</ele><time>2026-04-11T08:06:52.003Z</time></trkpt><trkpt lat="44.8430596" lon="9.3929719"><ele>874.0</ele><time>2026-04-11T08:06:53.001Z</time></trkpt><trkpt lat="44.8430047" lon="9.3928941"><ele>874.0000000000001</ele><time>2026-04-11T08:06:54.002Z</time></trkpt><trkpt lat="44.842948" lon="9.3928288"><ele>874.0000000000001</ele><time>2026-04-11T08:06:55.002Z</time></trkpt><trkpt lat="44.8428921" lon="9.392775"><ele>874.0</ele><time>2026-04-11T08:06:56.001Z</time></trkpt><trkpt lat="44.8427894" lon="9.3926872"><ele>874.0</ele><time>2026-04-11T08:06:58.001Z</time></trkpt><trkpt lat="44.8427093" lon="9.3925774"><ele>874.0</ele><time>2026-04-11T08:07:00.001Z</time></trkpt><trkpt lat="44.8426596" lon="9.3925196"><ele>874.0</ele><time>2026-04-11T08:07:01.001Z</time></trkpt><trkpt lat="44.8426049" lon="9.3924561"><ele>874.0</ele><time>2026-04-11T08:07:02.003Z</time></trkpt><trkpt lat="44.8425427" lon="9.392391"><ele>874.0</ele><time>2026-04-11T08:07:03.002Z</time></trkpt><trkpt lat="44.8424882" lon="9.3923202"><ele>874.0</ele><time>2026-04-11T08:07:04.001Z</time></trkpt><trkpt lat="44.8424423" lon="9.3922468"><ele>874.0</ele><time>2026-04-11T08:07:05.001Z</time></trkpt><trkpt lat="44.8424131" lon="9.3921664"><ele>874.0</ele><time>2026-04-11T08:07:06.002Z</time></trkpt><trkpt lat="44.8423861" lon="9.3920765"><ele>877.4999999999999</ele><time>2026-04-11T08:07:07.003Z</time></trkpt><trkpt lat="44.8423599" lon="9.3919906"><ele>881.0</ele><time>2026-04-11T08:07:08.003Z</time></trkpt><trkpt lat="44.8422986" lon="9.3918475"><ele>884.5</ele><time>2026-04-11T08:07:10.001Z</time></trkpt><trkpt lat="44.842255" lon="9.3917834"><ele>888.0</ele><time>2026-04-11T08:07:11.001Z</time></trkpt><trkpt lat="44.8421562" lon="9.391683"><ele>891.4999999999999</ele><time>2026-04-11T08:07:13.002Z</time></trkpt><trkpt lat="44.8421097" lon="9.3916135"><ele>895.0</ele><time>2026-04-11T08:07:14.002Z</time></trkpt><trkpt lat="44.8420551" lon="9.3915389"><ele>895.0</ele><time>2026-04-11T08:07:15.002Z</time></trkpt><trkpt lat="44.8419901" lon="9.3914568"><ele>895.0</ele><time>2026-04-11T08:07:16.001Z</time></trkpt><trkpt lat="44.8419159" lon="9.3913796"><ele>895.0</ele><time>2026-04-11T08:07:17.003Z</time></trkpt><trkpt lat="44.8418442" lon="9.3912998"><ele>895.0</ele><time>2026-04-11T08:07:18.002Z</time></trkpt><trkpt lat="44.8417772" lon="9.3912149"><ele>895.0</ele><time>2026-04-11T08:07:19.002Z</time></trkpt><trkpt lat="44.841712" lon="9.3911251"><ele>896.8</ele><time>2026-04-11T08:07:20.003Z</time></trkpt><trkpt lat="44.8416497" lon="9.3910333"><ele>898.6</ele><time>2026-04-11T08:07:21.003Z</time></trkpt><trkpt lat="44.841596" lon="9.3909505"><ele>900.4000000000001</ele><time>2026-04-11T08:07:22.003Z</time></trkpt><trkpt lat="44.8415565" lon="9.3908794"><ele>902.2</ele><time>2026-04-11T08:07:23.001Z</time></trkpt><trkpt lat="44.8414847" lon="9.3907537"><ele>904.0</ele><time>2026-04-11T08:07:25.003Z</time></trkpt><trkpt lat="44.8414002" lon="9.3906625"><ele>903.9999999999999</ele><time>2026-04-11T08:07:27.002Z</time></trkpt><trkpt lat="44.8413502" lon="9.3905685"><ele>904.0</ele><time>2026-04-11T08:07:29.001Z</time></trkpt><trkpt lat="44.841355" lon="9.39045"><ele>904.0</ele><time>2026-04-11T08:07:31.003Z</time></trkpt><trkpt lat="44.84139" lon="9.390305"><ele>904.0</ele><time>2026-04-11T08:07:33.004Z</time></trkpt><trkpt lat="44.841425" lon="9.3902033"><ele>903.9999999999999</ele><time>2026-04-11T08:07:35.002Z</time></trkpt><trkpt lat="44.8414333" lon="9.3900767"><ele>904.0</ele><time>2026-04-11T08:07:37.004Z</time></trkpt><trkpt lat="44.8413967" lon="9.3899133"><ele>905.2</ele><time>2026-04-11T08:07:39.001Z</time></trkpt><trkpt lat="44.8413683" lon="9.38983"><ele>906.4000000000001</ele><time>2026-04-11T08:07:40.001Z</time></trkpt><trkpt lat="44.8413133" lon="9.3896883"><ele>907.6</ele><time>2026-04-11T08:07:42.002Z</time></trkpt><trkpt lat="44.8412767" lon="9.389615"><ele>908.8</ele><time>2026-04-11T08:07:43.005Z</time></trkpt><trkpt lat="44.8412267" lon="9.389475"><ele>910.0</ele><time>2026-04-11T08:07:45.001Z</time></trkpt><trkpt lat="44.8412" lon="9.3893133"><ele>910.9999999999999</ele><time>2026-04-11T08:07:47.004Z</time></trkpt><trkpt lat="44.8411917" lon="9.3892167"><ele>912.0</ele><time>2026-04-11T08:07:48.001Z</time></trkpt><trkpt lat="44.8411933" lon="9.3891267"><ele>913.0</ele><time>2026-04-11T08:07:49.001Z</time></trkpt><trkpt lat="44.84118" lon="9.3889933"><ele>914.0</ele><time>2026-04-11T08:07:51.002Z</time></trkpt><trkpt lat="44.8411667" lon="9.3888833"><ele>914.9999999999999</ele><time>2026-04-11T08:07:53.001Z</time></trkpt><trkpt lat="44.8411717" lon="9.38873"><ele>916.0</ele><time>2026-04-11T08:07:55.001Z</time></trkpt><trkpt lat="44.8411883" lon="9.3885833"><ele>918.0</ele><time>2026-04-11T08:07:57.001Z</time></trkpt><trkpt lat="44.8411867" lon="9.388475"><ele>919.9999999999999</ele><time>2026-04-11T08:07:59.001Z</time></trkpt><trkpt lat="44.841155" lon="9.3883317"><ele>921.9999999999999</ele><time>2026-04-11T08:08:02.002Z</time></trkpt><trkpt lat="44.84112" lon="9.3882017"><ele>924.0</ele><time>2026-04-11T08:08:04.003Z</time></trkpt><trkpt lat="44.8411033" lon="9.3880817"><ele>926.0</ele><time>2026-04-11T08:08:06.002Z</time></trkpt><trkpt lat="44.8411083" lon="9.3879467"><ele>930.0</ele><time>2026-04-11T08:08:08.001Z</time></trkpt><trkpt lat="44.84111" lon="9.3878117"><ele>933.9999999999999</ele><time>2026-04-11T08:08:10.001Z</time></trkpt><trkpt lat="44.8411433" lon="9.3877033"><ele>937.9999999999999</ele><time>2026-04-11T08:08:12.002Z</time></trkpt><trkpt lat="44.8411917" lon="9.387585"><ele>942.0</ele><time>2026-04-11T08:08:14.001Z</time></trkpt><trkpt lat="44.8412233" lon="9.3874117"><ele>946.0</ele><time>2026-04-11T08:08:16.001Z</time></trkpt><trkpt lat="44.84125" lon="9.3873283"><ele>945.9999999999999</ele><time>2026-04-11T08:08:17Z</time></trkpt><trkpt lat="44.8412833" lon="9.3872417"><ele>946.0</ele><time>2026-04-11T08:08:18Z</time></trkpt><trkpt lat="44.841325" lon="9.387175"><ele>946.0</ele><time>2026-04-11T08:08:19.002Z</time></trkpt><trkpt lat="44.8413767" lon="9.3871083"><ele>946.0</ele><time>2026-04-11T08:08:20.001Z</time></trkpt><trkpt lat="44.8414267" lon="9.387045"><ele>945.9999999999999</ele><time>2026-04-11T08:08:21.001Z</time></trkpt><trkpt lat="44.8414817" lon="9.3869767"><ele>946.0</ele><time>2026-04-11T08:08:22.001Z</time></trkpt><trkpt lat="44.841575" lon="9.386865"><ele>946.9999999999999</ele><time>2026-04-11T08:08:24Z</time></trkpt><trkpt lat="44.8416667" lon="9.386795"><ele>948.0</ele><time>2026-04-11T08:08:26.002Z</time></trkpt><trkpt lat="44.8417317" lon="9.3867617"><ele>949.0</ele><time>2026-04-11T08:08:27.001Z</time></trkpt><trkpt lat="44.8417917" lon="9.3867167"><ele>950.0</ele><time>2026-04-11T08:08:28.001Z</time></trkpt><trkpt lat="44.84185" lon="9.3866567"><ele>950.9999999999999</ele><time>2026-04-11T08:08:29.001Z</time></trkpt><trkpt lat="44.841915" lon="9.386595"><ele>952.0</ele><time>2026-04-11T08:08:30.002Z</time></trkpt><trkpt lat="44.8419783" lon="9.38653"><ele>951.9999999999999</ele><time>2026-04-11T08:08:31.002Z</time></trkpt><trkpt lat="44.8420433" lon="9.3864683"><ele>952.0</ele><time>2026-04-11T08:08:32.001Z</time></trkpt><trkpt lat="44.8421083" lon="9.3863967"><ele>952.0</ele><time>2026-04-11T08:08:33.001Z</time></trkpt><trkpt lat="44.842165" lon="9.3863433"><ele>952.0</ele><time>2026-04-11T08:08:34.001Z</time></trkpt><trkpt lat="44.8422183" lon="9.386295"><ele>951.9999999999999</ele><time>2026-04-11T08:08:35Z</time></trkpt><trkpt lat="44.8423" lon="9.3862267"><ele>952.0</ele><time>2026-04-11T08:08:37.001Z</time></trkpt><trkpt lat="44.8423717" lon="9.3861433"><ele>953.6666666666666</ele><time>2026-04-11T08:08:39.002Z</time></trkpt><trkpt lat="44.8424567" lon="9.38603"><ele>955.3333333333333</ele><time>2026-04-11T08:08:41.002Z</time></trkpt><trkpt lat="44.842505" lon="9.3859683"><ele>957.0</ele><time>2026-04-11T08:08:42.002Z</time></trkpt><trkpt lat="44.84255" lon="9.3859017"><ele>958.6666666666667</ele><time>2026-04-11T08:08:43.001Z</time></trkpt><trkpt lat="44.8425967" lon="9.3858367"><ele>960.3333333333334</ele><time>2026-04-11T08:08:44.002Z</time></trkpt><trkpt lat="44.8426633" lon="9.3857067"><ele>962.0</ele><time>2026-04-11T08:08:46Z</time></trkpt><trkpt lat="44.8427467" lon="9.3855717"><ele>958.2</ele><time>2026-04-11T08:08:48.001Z</time></trkpt><trkpt lat="44.842795" lon="9.3855017"><ele>954.4000000000001</ele><time>2026-04-11T08:08:49.005Z</time></trkpt><trkpt lat="44.84286" lon="9.3854083"><ele>950.5999999999999</ele><time>2026-04-11T08:08:50.001Z</time></trkpt><trkpt lat="44.8429283" lon="9.3852817"><ele>946.8</ele><time>2026-04-11T08:08:51.001Z</time></trkpt><trkpt lat="44.842995" lon="9.3851683"><ele>943.0</ele><time>2026-04-11T08:08:52.001Z</time></trkpt><trkpt lat="44.8430433" lon="9.3850733"><ele>942.9999999999999</ele><time>2026-04-11T08:08:53Z</time></trkpt><trkpt lat="44.8430983" lon="9.384965"><ele>943.0</ele><time>2026-04-11T08:08:54.002Z</time></trkpt><trkpt lat="44.84314" lon="9.3848517"><ele>943.0</ele><time>2026-04-11T08:08:55.002Z</time></trkpt><trkpt lat="44.84318" lon="9.38474"><ele>943.0</ele><time>2026-04-11T08:08:56.001Z</time></trkpt><trkpt lat="44.8432167" lon="9.3846533"><ele>942.9999999999999</ele><time>2026-04-11T08:08:57Z</time></trkpt><trkpt lat="44.84326" lon="9.3845767"><ele>943.0</ele><time>2026-04-11T08:08:58Z</time></trkpt><trkpt lat="44.8433067" lon="9.3845"><ele>941.4999999999999</ele><time>2026-04-11T08:08:59Z</time></trkpt><trkpt lat="44.8433533" lon="9.3844283"><ele>940.0</ele><time>2026-04-11T08:09:00Z</time></trkpt><trkpt lat="44.8434" lon="9.3843633"><ele>938.5</ele><time>2026-04-11T08:09:01Z</time></trkpt><trkpt lat="44.8434617" lon="9.384245"><ele>937.0</ele><time>2026-04-11T08:09:03.002Z</time></trkpt><trkpt lat="44.8435117" lon="9.38415"><ele>935.4999999999999</ele><time>2026-04-11T08:09:05.002Z</time></trkpt><trkpt lat="44.8435517" lon="9.38407"><ele>934.0</ele><time>2026-04-11T08:09:07.002Z</time></trkpt><trkpt lat="44.8436067" lon="9.3840033"><ele>931.1666666666666</ele><time>2026-04-11T08:09:09.004Z</time></trkpt><trkpt lat="44.84368" lon="9.3839483"><ele>928.3333333333333</ele><time>2026-04-11T08:09:11.001Z</time></trkpt><trkpt lat="44.84374" lon="9.3838767"><ele>925.5</ele><time>2026-04-11T08:09:13.001Z</time></trkpt><trkpt lat="44.8438133" lon="9.3838333"><ele>922.6666666666667</ele><time>2026-04-11T08:09:15.002Z</time></trkpt><trkpt lat="44.8438833" lon="9.383805"><ele>919.8333333333334</ele><time>2026-04-11T08:09:18.001Z</time></trkpt><trkpt lat="44.84396" lon="9.3837467"><ele>917.0</ele><time>2026-04-11T08:09:21.001Z</time></trkpt><trkpt lat="44.8440483" lon="9.38374"><ele>914.6</ele><time>2026-04-11T08:09:23.002Z</time></trkpt><trkpt lat="44.8441433" lon="9.3837433"><ele>912.2</ele><time>2026-04-11T08:09:25.002Z</time></trkpt><trkpt lat="44.84424" lon="9.3837667"><ele>909.8</ele><time>2026-04-11T08:09:27.001Z</time></trkpt><trkpt lat="44.8443367" lon="9.3837217"><ele>907.4</ele><time>2026-04-11T08:09:29.002Z</time></trkpt><trkpt lat="44.8443967" lon="9.3836883"><ele>905.0</ele><time>2026-04-11T08:09:30.001Z</time></trkpt><trkpt lat="44.8445" lon="9.3836733"><ele>901.1666666666667</ele><time>2026-04-11T08:09:32Z</time></trkpt><trkpt lat="44.8445917" lon="9.3836533"><ele>897.3333333333334</ele><time>2026-04-11T08:09:34.003Z</time></trkpt><trkpt lat="44.84469" lon="9.3835783"><ele>893.5</ele><time>2026-04-11T08:09:36.001Z</time></trkpt><trkpt lat="44.8447567" lon="9.383525"><ele>889.6666666666667</ele><time>2026-04-11T08:09:37.001Z</time></trkpt><trkpt lat="44.8448183" lon="9.38348"><ele>885.8333333333334</ele><time>2026-04-11T08:09:38Z</time></trkpt><trkpt lat="44.8448767" lon="9.3834417"><ele>882.0</ele><time>2026-04-11T08:09:39Z</time></trkpt><trkpt lat="44.84494" lon="9.3834067"><ele>882.0</ele><time>2026-04-11T08:09:40.001Z</time></trkpt><trkpt lat="44.84502" lon="9.3833783"><ele>882.0</ele><time>2026-04-11T08:09:41.001Z</time></trkpt><trkpt lat="44.845095" lon="9.38335"><ele>882.0</ele><time>2026-04-11T08:09:42.002Z</time></trkpt><trkpt lat="44.84516" lon="9.3833233"><ele>882.0</ele><time>2026-04-11T08:09:43.001Z</time></trkpt><trkpt lat="44.8452217" lon="9.3832917"><ele>882.0</ele><time>2026-04-11T08:09:44Z</time></trkpt><trkpt lat="44.8452883" lon="9.38326"><ele>882.0</ele><time>2026-04-11T08:09:45.002Z</time></trkpt><trkpt lat="44.8453533" lon="9.3832283"><ele>882.0</ele><time>2026-04-11T08:09:46.001Z</time></trkpt><trkpt lat="44.8454233" lon="9.383195"><ele>879.4000000000001</ele><time>2026-04-11T08:09:47.002Z</time></trkpt><trkpt lat="44.8454917" lon="9.3831667"><ele>876.8000000000001</ele><time>2026-04-11T08:09:48Z</time></trkpt><trkpt lat="44.84555" lon="9.3831317"><ele>874.2</ele><time>2026-04-11T08:09:49.002Z</time></trkpt><trkpt lat="44.8456617" lon="9.3830733"><ele>871.6</ele><time>2026-04-11T08:09:51.001Z</time></trkpt><trkpt lat="44.8457717" lon="9.3830233"><ele>869.0</ele><time>2026-04-11T08:09:53.001Z</time></trkpt><trkpt lat="44.8458917" lon="9.3829783"><ele>867.8333333333334</ele><time>2026-04-11T08:09:55.001Z</time></trkpt><trkpt lat="44.845955" lon="9.3829583"><ele>866.6666666666667</ele><time>2026-04-11T08:09:56.001Z</time></trkpt><trkpt lat="44.8460167" lon="9.3829217"><ele>865.5</ele><time>2026-04-11T08:09:57Z</time></trkpt><trkpt lat="44.8460767" lon="9.3828867"><ele>864.3333333333333</ele><time>2026-04-11T08:09:58.001Z</time></trkpt><trkpt lat="44.8461883" lon="9.3828417"><ele>863.1666666666666</ele><time>2026-04-11T08:10:00.001Z</time></trkpt><trkpt lat="44.8462633" lon="9.382805"><ele>862.0</ele><time>2026-04-11T08:10:02.001Z</time></trkpt><trkpt lat="44.8463067" lon="9.38274"><ele>860.4000000000001</ele><time>2026-04-11T08:10:06.001Z</time></trkpt><trkpt lat="44.8463967" lon="9.3827283"><ele>858.8000000000001</ele><time>2026-04-11T08:11:17.001Z</time></trkpt><trkpt lat="44.8464067" lon="9.3825933"><ele>857.2</ele><time>2026-04-11T08:11:51.004Z</time></trkpt><trkpt lat="44.84638" lon="9.3824467"><ele>855.6</ele><time>2026-04-11T08:11:53.003Z</time></trkpt><trkpt lat="44.846355" lon="9.3823017"><ele>854.0</ele><time>2026-04-11T08:11:55.001Z</time></trkpt><trkpt lat="44.8463733" lon="9.3822133"><ele>854.0</ele><time>2026-04-11T08:11:57Z</time></trkpt><trkpt lat="44.846445" lon="9.3822017"><ele>854.0000000000001</ele><time>2026-04-11T08:11:59.002Z</time></trkpt><trkpt lat="44.846575" lon="9.382195"><ele>854.0000000000001</ele><time>2026-04-11T08:12:01.001Z</time></trkpt><trkpt lat="44.8466683" lon="9.3821833"><ele>854.0</ele><time>2026-04-11T08:12:02.001Z</time></trkpt><trkpt lat="44.8467667" lon="9.3821667"><ele>854.0</ele><time>2026-04-11T08:12:03.001Z</time></trkpt><trkpt lat="44.846855" lon="9.3821467"><ele>851.8333333333334</ele><time>2026-04-11T08:12:04.002Z</time></trkpt><trkpt lat="44.846935" lon="9.38212"><ele>849.6666666666667</ele><time>2026-04-11T08:12:05.003Z</time></trkpt><trkpt lat="44.8470083" lon="9.382075"><ele>847.5</ele><time>2026-04-11T08:12:06.001Z</time></trkpt><trkpt lat="44.8470783" lon="9.3820317"><ele>845.3333333333333</ele><time>2026-04-11T08:12:07.002Z</time></trkpt><trkpt lat="44.8471483" lon="9.3819933"><ele>843.1666666666666</ele><time>2026-04-11T08:12:08.001Z</time></trkpt><trkpt lat="44.8472083" lon="9.38195"><ele>841.0</ele><time>2026-04-11T08:12:09.002Z</time></trkpt><trkpt lat="44.8472967" lon="9.3818567"><ele>841.0</ele><time>2026-04-11T08:12:11.001Z</time></trkpt><trkpt lat="44.8473383" lon="9.3817867"><ele>841.0</ele><time>2026-04-11T08:12:13.001Z</time></trkpt><trkpt lat="44.8473133" lon="9.38168"><ele>841.0</ele><time>2026-04-11T08:12:16.003Z</time></trkpt><trkpt lat="44.8472283" lon="9.38159"><ele>841.0</ele><time>2026-04-11T08:12:19.003Z</time></trkpt><trkpt lat="44.8471583" lon="9.3814767"><ele>841.0</ele><time>2026-04-11T08:12:21.004Z</time></trkpt><trkpt lat="44.8470983" lon="9.38135"><ele>840.0</ele><time>2026-04-11T08:12:23.001Z</time></trkpt><trkpt lat="44.8470617" lon="9.381275"><ele>839.0</ele><time>2026-04-11T08:12:24.003Z</time></trkpt><trkpt lat="44.8470267" lon="9.3811983"><ele>838.0</ele><time>2026-04-11T08:12:25.002Z</time></trkpt><trkpt lat="44.8470067" lon="9.3811083"><ele>837.0</ele><time>2026-04-11T08:12:26.002Z</time></trkpt><trkpt lat="44.847" lon="9.381015"><ele>836.0</ele><time>2026-04-11T08:12:27.001Z</time></trkpt><trkpt lat="44.8469933" lon="9.380925"><ele>835.0</ele><time>2026-04-11T08:12:28.002Z</time></trkpt><trkpt lat="44.846975" lon="9.3808383"><ele>834.0</ele><time>2026-04-11T08:12:29.002Z</time></trkpt><trkpt lat="44.8469067" lon="9.3806783"><ele>834.0</ele><time>2026-04-11T08:12:31.002Z</time></trkpt><trkpt lat="44.84685" lon="9.38062"><ele>834.0</ele><time>2026-04-11T08:12:32.002Z</time></trkpt><trkpt lat="44.8467767" lon="9.38051"><ele>834.0</ele><time>2026-04-11T08:12:34.003Z</time></trkpt><trkpt lat="44.84681" lon="9.380355"><ele>834.0</ele><time>2026-04-11T08:12:36.003Z</time></trkpt><trkpt lat="44.8468" lon="9.3801833"><ele>834.0</ele><time>2026-04-11T08:12:38.002Z</time></trkpt><trkpt lat="44.8467517" lon="9.3801233"><ele>829.6</ele><time>2026-04-11T08:12:40.001Z</time></trkpt><trkpt lat="44.84665" lon="9.380155"><ele>825.2</ele><time>2026-04-11T08:12:42.001Z</time></trkpt><trkpt lat="44.8465817" lon="9.3801683"><ele>820.8000000000001</ele><time>2026-04-11T08:12:43.003Z</time></trkpt><trkpt lat="44.846515" lon="9.3801783"><ele>816.4000000000001</ele><time>2026-04-11T08:12:44.003Z</time></trkpt><trkpt lat="44.8463983" lon="9.380145"><ele>812.0</ele><time>2026-04-11T08:12:46.003Z</time></trkpt><trkpt lat="44.846335" lon="9.3800417"><ele>812.0000000000001</ele><time>2026-04-11T08:12:48.002Z</time></trkpt><trkpt lat="44.8463433" lon="9.3798917"><ele>812.0</ele><time>2026-04-11T08:12:50.001Z</time></trkpt><trkpt lat="44.846375" lon="9.379795"><ele>812.0</ele><time>2026-04-11T08:12:51.001Z</time></trkpt><trkpt lat="44.8464033" lon="9.3797033"><ele>812.0</ele><time>2026-04-11T08:12:52.001Z</time></trkpt><trkpt lat="44.8464333" lon="9.3796067"><ele>812.0000000000001</ele><time>2026-04-11T08:12:53.001Z</time></trkpt><trkpt lat="44.8464533" lon="9.3795133"><ele>812.0</ele><time>2026-04-11T08:12:54.002Z</time></trkpt><trkpt lat="44.8464617" lon="9.379405"><ele>809.3333333333334</ele><time>2026-04-11T08:12:55.001Z</time></trkpt><trkpt lat="44.8464683" lon="9.3792983"><ele>806.6666666666667</ele><time>2026-04-11T08:12:56.002Z</time></trkpt><trkpt lat="44.8464717" lon="9.37917"><ele>804.0</ele><time>2026-04-11T08:12:57.001Z</time></trkpt><trkpt lat="44.8464717" lon="9.379045"><ele>801.3333333333333</ele><time>2026-04-11T08:12:58.001Z</time></trkpt><trkpt lat="44.8464733" lon="9.3789283"><ele>798.6666666666666</ele><time>2026-04-11T08:12:59.003Z</time></trkpt><trkpt lat="44.8464767" lon="9.3788183"><ele>796.0</ele><time>2026-04-11T08:13:00.003Z</time></trkpt><trkpt lat="44.8464817" lon="9.37871"><ele>795.9999999999999</ele><time>2026-04-11T08:13:01.001Z</time></trkpt><trkpt lat="44.84648" lon="9.378615"><ele>796.0</ele><time>2026-04-11T08:13:02.002Z</time></trkpt><trkpt lat="44.8464483" lon="9.3785183"><ele>796.0</ele><time>2026-04-11T08:13:04.004Z</time></trkpt><trkpt lat="44.8463767" lon="9.3785933"><ele>796.0</ele><time>2026-04-11T08:13:06.002Z</time></trkpt><trkpt lat="44.8463417" lon="9.3786783"><ele>795.9999999999999</ele><time>2026-04-11T08:13:07.002Z</time></trkpt><trkpt lat="44.8462983" lon="9.378775"><ele>796.0</ele><time>2026-04-11T08:13:08.001Z</time></trkpt><trkpt lat="44.8462533" lon="9.37887"><ele>795.9999999999999</ele><time>2026-04-11T08:13:09.001Z</time></trkpt><trkpt lat="44.8462" lon="9.3789567"><ele>796.0</ele><time>2026-04-11T08:13:10.001Z</time></trkpt><trkpt lat="44.846145" lon="9.3790383"><ele>796.0</ele><time>2026-04-11T08:13:11.001Z</time></trkpt><trkpt lat="44.8460933" lon="9.3791133"><ele>796.0</ele><time>2026-04-11T08:13:12.001Z</time></trkpt><trkpt lat="44.8460317" lon="9.379175"><ele>796.0</ele><time>2026-04-11T08:13:13.001Z</time></trkpt><trkpt lat="44.8459767" lon="9.37923"><ele>795.9999999999999</ele><time>2026-04-11T08:13:14.002Z</time></trkpt><trkpt lat="44.8459233" lon="9.37929"><ele>796.0</ele><time>2026-04-11T08:13:15.002Z</time></trkpt><trkpt lat="44.8458683" lon="9.379345"><ele>791.1999999999999</ele><time>2026-04-11T08:13:16.001Z</time></trkpt><trkpt lat="44.84581" lon="9.3793817"><ele>786.4</ele><time>2026-04-11T08:13:17.003Z</time></trkpt><trkpt lat="44.84572" lon="9.3793633"><ele>781.6</ele><time>2026-04-11T08:13:19.001Z</time></trkpt><trkpt lat="44.845745" lon="9.3792183"><ele>776.8</ele><time>2026-04-11T08:13:22Z</time></trkpt><trkpt lat="44.8458233" lon="9.3791017"><ele>772.0</ele><time>2026-04-11T08:13:24.002Z</time></trkpt><trkpt lat="44.8458767" lon="9.378945"><ele>771.9999999999999</ele><time>2026-04-11T08:13:26.001Z</time></trkpt><trkpt lat="44.8458883" lon="9.3788567"><ele>772.0</ele><time>2026-04-11T08:13:27.002Z</time></trkpt><trkpt lat="44.84587" lon="9.3786883"><ele>772.0</ele><time>2026-04-11T08:13:29.002Z</time></trkpt><trkpt lat="44.8458467" lon="9.378605"><ele>772.0</ele><time>2026-04-11T08:13:30.001Z</time></trkpt><trkpt lat="44.8458217" lon="9.3785117"><ele>771.9999999999999</ele><time>2026-04-11T08:13:31.003Z</time></trkpt><trkpt lat="44.8458117" lon="9.3784033"><ele>772.0</ele><time>2026-04-11T08:13:32.001Z</time></trkpt><trkpt lat="44.845815" lon="9.3782983"><ele>768.8</ele><time>2026-04-11T08:13:33.001Z</time></trkpt><trkpt lat="44.8458267" lon="9.378205"><ele>765.6</ele><time>2026-04-11T08:13:34.001Z</time></trkpt><trkpt lat="44.8458583" lon="9.378055"><ele>762.4</ele><time>2026-04-11T08:13:36.002Z</time></trkpt><trkpt lat="44.845775" lon="9.378085"><ele>759.1999999999999</ele><time>2026-04-11T08:13:40.001Z</time></trkpt><trkpt lat="44.8457167" lon="9.3782367"><ele>756.0</ele><time>2026-04-11T08:13:42.001Z</time></trkpt><trkpt lat="44.84568" lon="9.3783133"><ele>756.0</ele><time>2026-04-11T08:13:43.002Z</time></trkpt><trkpt lat="44.8456383" lon="9.37838"><ele>756.0</ele><time>2026-04-11T08:13:44.002Z</time></trkpt><trkpt lat="44.8455633" lon="9.37846"><ele>756.0</ele><time>2026-04-11T08:13:46.004Z</time></trkpt><trkpt lat="44.8454933" lon="9.3784333"><ele>756.0</ele><time>2026-04-11T08:13:48.004Z</time></trkpt><trkpt lat="44.84544" lon="9.378305"><ele>756.0</ele><time>2026-04-11T08:13:50.003Z</time></trkpt><trkpt lat="44.8453583" lon="9.3781467"><ele>756.0</ele><time>2026-04-11T08:13:52.002Z</time></trkpt><trkpt lat="44.84529" lon="9.37807"><ele>756.0</ele><time>2026-04-11T08:13:53.001Z</time></trkpt><trkpt lat="44.8452217" lon="9.377995"><ele>756.0</ele><time>2026-04-11T08:13:54.001Z</time></trkpt><trkpt lat="44.8451567" lon="9.3779067"><ele>756.0</ele><time>2026-04-11T08:13:55.001Z</time></trkpt><trkpt lat="44.8451067" lon="9.3778167"><ele>756.0</ele><time>2026-04-11T08:13:56.001Z</time></trkpt><trkpt lat="44.8450683" lon="9.3777167"><ele>756.0</ele><time>2026-04-11T08:13:57.001Z</time></trkpt><trkpt lat="44.84504" lon="9.3776117"><ele>751.5</ele><time>2026-04-11T08:13:58.002Z</time></trkpt><trkpt lat="44.8450183" lon="9.3775033"><ele>747.0</ele><time>2026-04-11T08:13:59.001Z</time></trkpt><trkpt lat="44.844995" lon="9.3773833"><ele>742.5</ele><time>2026-04-11T08:14:00.002Z</time></trkpt><trkpt lat="44.844965" lon="9.3772733"><ele>738.0</ele><time>2026-04-11T08:14:01.002Z</time></trkpt><trkpt lat="44.844925" lon="9.37718"><ele>733.5</ele><time>2026-04-11T08:14:02.001Z</time></trkpt><trkpt lat="44.84488" lon="9.3771067"><ele>729.0</ele><time>2026-04-11T08:14:03.004Z</time></trkpt><trkpt lat="44.8448333" lon="9.37704"><ele>725.6666666666666</ele><time>2026-04-11T08:14:04.001Z</time></trkpt><trkpt lat="44.8447717" lon="9.37694"><ele>722.3333333333334</ele><time>2026-04-11T08:14:06.001Z</time></trkpt><trkpt lat="44.8447333" lon="9.3768583"><ele>719.0</ele><time>2026-04-11T08:14:08.001Z</time></trkpt><trkpt lat="44.8446883" lon="9.376785"><ele>715.6666666666667</ele><time>2026-04-11T08:14:11.001Z</time></trkpt><trkpt lat="44.8446333" lon="9.3766917"><ele>712.3333333333334</ele><time>2026-04-11T08:16:04.001Z</time></trkpt><trkpt lat="44.8445483" lon="9.37663"><ele>709.0</ele><time>2026-04-11T08:16:06.002Z</time></trkpt><trkpt lat="44.8444467" lon="9.3765883"><ele>709.0</ele><time>2026-04-11T08:16:08.003Z</time></trkpt><trkpt lat="44.8443567" lon="9.3765583"><ele>709.0</ele><time>2026-04-11T08:16:10.002Z</time></trkpt><trkpt lat="44.8442833" lon="9.3765317"><ele>709.0</ele><time>2026-04-11T08:16:12.002Z</time></trkpt><trkpt lat="44.8442083" lon="9.3764883"><ele>709.0</ele><time>2026-04-11T08:16:14.002Z</time></trkpt><trkpt lat="44.84413" lon="9.3764583"><ele>709.0</ele><time>2026-04-11T08:16:16.002Z</time></trkpt><trkpt lat="44.8440333" lon="9.376455"><ele>709.0</ele><time>2026-04-11T08:16:18.002Z</time></trkpt><trkpt lat="44.84397" lon="9.3764333"><ele>709.4000000000001</ele><time>2026-04-11T08:16:19.002Z</time></trkpt><trkpt lat="44.8439067" lon="9.3764017"><ele>709.8</ele><time>2026-04-11T08:16:20.002Z</time></trkpt><trkpt lat="44.8438033" lon="9.3763133"><ele>710.2</ele><time>2026-04-11T08:16:22.003Z</time></trkpt><trkpt lat="44.843715" lon="9.3762367"><ele>710.5999999999999</ele><time>2026-04-11T08:16:24.001Z</time></trkpt><trkpt lat="44.8436567" lon="9.37619"><ele>711.0</ele><time>2026-04-11T08:16:26.003Z</time></trkpt><trkpt lat="44.8435667" lon="9.3762117"><ele>707.8333333333334</ele><time>2026-04-11T08:16:42.002Z</time></trkpt><trkpt lat="44.8434983" lon="9.376225"><ele>704.6666666666666</ele><time>2026-04-11T08:16:43.004Z</time></trkpt><trkpt lat="44.8434233" lon="9.3762433"><ele>701.5</ele><time>2026-04-11T08:16:44.003Z</time></trkpt><trkpt lat="44.8433433" lon="9.3762667"><ele>698.3333333333333</ele><time>2026-04-11T08:16:45.004Z</time></trkpt><trkpt lat="44.8432617" lon="9.3762917"><ele>695.1666666666666</ele><time>2026-04-11T08:16:46.002Z</time></trkpt><trkpt lat="44.84318" lon="9.376315"><ele>692.0</ele><time>2026-04-11T08:16:47.002Z</time></trkpt><trkpt lat="44.8431083" lon="9.3763333"><ele>692.0</ele><time>2026-04-11T08:16:48.002Z</time></trkpt><trkpt lat="44.8430367" lon="9.376345"><ele>692.0</ele><time>2026-04-11T08:16:49.002Z</time></trkpt><trkpt lat="44.8429667" lon="9.3763633"><ele>692.0</ele><time>2026-04-11T08:16:50.002Z</time></trkpt><trkpt lat="44.8429017" lon="9.3763733"><ele>692.0</ele><time>2026-04-11T08:16:51.004Z</time></trkpt><trkpt lat="44.8428367" lon="9.3763783"><ele>692.0</ele><time>2026-04-11T08:16:52.001Z</time></trkpt><trkpt lat="44.842725" lon="9.3763867"><ele>692.0</ele><time>2026-04-11T08:16:54.003Z</time></trkpt><trkpt lat="44.8426667" lon="9.3763167"><ele>692.0</ele><time>2026-04-11T08:16:56.004Z</time></trkpt><trkpt lat="44.8426783" lon="9.3761717"><ele>692.0</ele><time>2026-04-11T08:16:58.002Z</time></trkpt><trkpt lat="44.84271" lon="9.3760017"><ele>692.0</ele><time>2026-04-11T08:17:00.003Z</time></trkpt><trkpt lat="44.842725" lon="9.375905"><ele>692.0</ele><time>2026-04-11T08:17:01.003Z</time></trkpt><trkpt lat="44.8427283" lon="9.375805"><ele>692.0</ele><time>2026-04-11T08:17:02.002Z</time></trkpt><trkpt lat="44.8427183" lon="9.3757133"><ele>692.0</ele><time>2026-04-11T08:17:03.002Z</time></trkpt><trkpt lat="44.84269" lon="9.3756283"><ele>692.0</ele><time>2026-04-11T08:17:04.002Z</time></trkpt><trkpt lat="44.8426567" lon="9.37555"><ele>692.0</ele><time>2026-04-11T08:17:05.003Z</time></trkpt><trkpt lat="44.84262" lon="9.3754683"><ele>692.0</ele><time>2026-04-11T08:17:06.002Z</time></trkpt><trkpt lat="44.8425933" lon="9.3753767"><ele>692.0</ele><time>2026-04-11T08:17:07.001Z</time></trkpt><trkpt lat="44.8425633" lon="9.3752117"><ele>692.0</ele><time>2026-04-11T08:17:09.003Z</time></trkpt><trkpt lat="44.8425317" lon="9.3750667"><ele>692.0</ele><time>2026-04-11T08:17:11.004Z</time></trkpt><trkpt lat="44.8425117" lon="9.3749267"><ele>691.1666666666666</ele><time>2026-04-11T08:17:13.002Z</time></trkpt><trkpt lat="44.8425" lon="9.3747967"><ele>690.3333333333333</ele><time>2026-04-11T08:17:15.001Z</time></trkpt><trkpt lat="44.84251" lon="9.3746817"><ele>689.5</ele><time>2026-04-11T08:17:17.001Z</time></trkpt><trkpt lat="44.8425717" lon="9.3746033"><ele>688.6666666666666</ele><time>2026-04-11T08:17:19.001Z</time></trkpt><trkpt lat="44.8426617" lon="9.374595"><ele>687.8333333333334</ele><time>2026-04-11T08:17:21.003Z</time></trkpt><trkpt lat="44.8427383" lon="9.3746317"><ele>687.0</ele><time>2026-04-11T08:17:23.002Z</time></trkpt><trkpt lat="44.8428167" lon="9.3747067"><ele>685.2</ele><time>2026-04-11T08:17:25.004Z</time></trkpt><trkpt lat="44.84292" lon="9.3747767"><ele>683.4000000000001</ele><time>2026-04-11T08:17:27.004Z</time></trkpt><trkpt lat="44.84301" lon="9.3748367"><ele>681.5999999999999</ele><time>2026-04-11T08:17:29.001Z</time></trkpt><trkpt lat="44.8430967" lon="9.3748633"><ele>679.8</ele><time>2026-04-11T08:17:31.001Z</time></trkpt><trkpt lat="44.843135" lon="9.37479"><ele>678.0</ele><time>2026-04-11T08:17:33.002Z</time></trkpt><trkpt lat="44.8431617" lon="9.3746567"><ele>675.5999999999999</ele><time>2026-04-11T08:17:35.003Z</time></trkpt><trkpt lat="44.8431683" lon="9.3744883"><ele>673.1999999999999</ele><time>2026-04-11T08:17:37.004Z</time></trkpt><trkpt lat="44.8431533" lon="9.374305"><ele>670.8</ele><time>2026-04-11T08:17:39.003Z</time></trkpt><trkpt lat="44.84313" lon="9.3742"><ele>668.4</ele><time>2026-04-11T08:17:40.002Z</time></trkpt><trkpt lat="44.8430967" lon="9.3740933"><ele>666.0</ele><time>2026-04-11T08:17:41.003Z</time></trkpt><trkpt lat="44.843065" lon="9.373995"><ele>666.0</ele><time>2026-04-11T08:17:42.004Z</time></trkpt><trkpt lat="44.8430517" lon="9.373905"><ele>666.0</ele><time>2026-04-11T08:17:43.003Z</time></trkpt><trkpt lat="44.8430533" lon="9.3737233"><ele>666.0</ele><time>2026-04-11T08:17:45.003Z</time></trkpt><trkpt lat="44.843055" lon="9.3736233"><ele>666.0</ele><time>2026-04-11T08:17:46.004Z</time></trkpt><trkpt lat="44.8430517" lon="9.3735083"><ele>666.0</ele><time>2026-04-11T08:17:47.003Z</time></trkpt><trkpt lat="44.8430467" lon="9.3733983"><ele>666.0</ele><time>2026-04-11T08:17:48.002Z</time></trkpt><trkpt lat="44.8430467" lon="9.3732917"><ele>663.1666666666666</ele><time>2026-04-11T08:17:49.003Z</time></trkpt><trkpt lat="44.843045" lon="9.3731917"><ele>660.3333333333334</ele><time>2026-04-11T08:17:50.003Z</time></trkpt><trkpt lat="44.8430167" lon="9.3730517"><ele>657.5</ele><time>2026-04-11T08:17:52.004Z</time></trkpt><trkpt lat="44.84294" lon="9.37298"><ele>654.6666666666667</ele><time>2026-04-11T08:17:54.003Z</time></trkpt><trkpt lat="44.842875" lon="9.3729267"><ele>651.8333333333334</ele><time>2026-04-11T08:17:55.001Z</time></trkpt><trkpt lat="44.8428083" lon="9.3728767"><ele>649.0</ele><time>2026-04-11T08:17:56.002Z</time></trkpt><trkpt lat="44.8427417" lon="9.3728367"><ele>646.3333333333334</ele><time>2026-04-11T08:17:57.003Z</time></trkpt><trkpt lat="44.8426767" lon="9.372805"><ele>643.6666666666667</ele><time>2026-04-11T08:17:58.003Z</time></trkpt><trkpt lat="44.84261" lon="9.3727933"><ele>641.0</ele><time>2026-04-11T08:17:59.003Z</time></trkpt><trkpt lat="44.8425417" lon="9.3727967"><ele>638.3333333333334</ele><time>2026-04-11T08:18:00.005Z</time></trkpt><trkpt lat="44.84248" lon="9.3728167"><ele>635.6666666666666</ele><time>2026-04-11T08:18:01.003Z</time></trkpt><trkpt lat="44.8423717" lon="9.372865"><ele>633.0</ele><time>2026-04-11T08:18:03.002Z</time></trkpt><trkpt lat="44.8422567" lon="9.3728633"><ele>633.0</ele><time>2026-04-11T08:18:05.002Z</time></trkpt><trkpt lat="44.8421417" lon="9.3728267"><ele>633.0</ele><time>2026-04-11T08:18:07.001Z</time></trkpt><trkpt lat="44.842085" lon="9.37278"><ele>633.0</ele><time>2026-04-11T08:18:08.001Z</time></trkpt><trkpt lat="44.8420367" lon="9.3727183"><ele>633.0</ele><time>2026-04-11T08:18:09.004Z</time></trkpt><trkpt lat="44.8419917" lon="9.372645"><ele>633.0</ele><time>2026-04-11T08:18:10.001Z</time></trkpt><trkpt lat="44.8419483" lon="9.3725583"><ele>633.0</ele><time>2026-04-11T08:18:11.002Z</time></trkpt><trkpt lat="44.8419083" lon="9.3724717"><ele>633.0</ele><time>2026-04-11T08:18:12.003Z</time></trkpt><trkpt lat="44.8418617" lon="9.372395"><ele>633.0</ele><time>2026-04-11T08:18:13.001Z</time></trkpt><trkpt lat="44.8418067" lon="9.3723317"><ele>633.0</ele><time>2026-04-11T08:18:14.001Z</time></trkpt><trkpt lat="44.8417367" lon="9.3722733"><ele>633.0</ele><time>2026-04-11T08:18:15.004Z</time></trkpt><trkpt lat="44.8416567" lon="9.3722183"><ele>633.0</ele><time>2026-04-11T08:18:16.001Z</time></trkpt><trkpt lat="44.841575" lon="9.3721667"><ele>633.0</ele><time>2026-04-11T08:18:17.001Z</time></trkpt><trkpt lat="44.8414967" lon="9.3721217"><ele>629.6666666666666</ele><time>2026-04-11T08:18:18.001Z</time></trkpt><trkpt lat="44.8414267" lon="9.3720917"><ele>626.3333333333334</ele><time>2026-04-11T08:18:19.001Z</time></trkpt><trkpt lat="44.8413583" lon="9.3720817"><ele>623.0</ele><time>2026-04-11T08:18:20.004Z</time></trkpt><trkpt lat="44.8412717" lon="9.3720717"><ele>619.6666666666667</ele><time>2026-04-11T08:18:21.002Z</time></trkpt><trkpt lat="44.8411717" lon="9.3720467"><ele>616.3333333333334</ele><time>2026-04-11T08:18:22.001Z</time></trkpt><trkpt lat="44.841065" lon="9.3720117"><ele>613.0</ele><time>2026-04-11T08:18:23.002Z</time></trkpt><trkpt lat="44.8409483" lon="9.3719667"><ele>613.0</ele><time>2026-04-11T08:18:24.001Z</time></trkpt><trkpt lat="44.8408383" lon="9.3719217"><ele>613.0</ele><time>2026-04-11T08:18:25.001Z</time></trkpt><trkpt lat="44.8407417" lon="9.371885"><ele>613.0</ele><time>2026-04-11T08:18:26.001Z</time></trkpt><trkpt lat="44.840665" lon="9.3718483"><ele>613.0</ele><time>2026-04-11T08:18:27.002Z</time></trkpt><trkpt lat="44.840605" lon="9.3717983"><ele>613.0</ele><time>2026-04-11T08:18:28.002Z</time></trkpt><trkpt lat="44.840525" lon="9.37169"><ele>613.0</ele><time>2026-04-11T08:18:30.003Z</time></trkpt><trkpt lat="44.8404933" lon="9.3716117"><ele>613.0</ele><time>2026-04-11T08:18:32.001Z</time></trkpt><trkpt lat="44.8404967" lon="9.371485"><ele>613.0</ele><time>2026-04-11T08:18:35.003Z</time></trkpt><trkpt lat="44.8404967" lon="9.371395"><ele>613.0</ele><time>2026-04-11T08:18:37.001Z</time></trkpt><trkpt lat="44.8404767" lon="9.3712867"><ele>613.0</ele><time>2026-04-11T08:18:39.003Z</time></trkpt><trkpt lat="44.8404133" lon="9.371145"><ele>613.0</ele><time>2026-04-11T08:18:41.003Z</time></trkpt><trkpt lat="44.8403633" lon="9.3710867"><ele>611.5</ele><time>2026-04-11T08:18:42.002Z</time></trkpt><trkpt lat="44.840305" lon="9.3710333"><ele>610.0</ele><time>2026-04-11T08:18:43.002Z</time></trkpt><trkpt lat="44.8402383" lon="9.3709883"><ele>608.5</ele><time>2026-04-11T08:18:44.004Z</time></trkpt><trkpt lat="44.8401783" lon="9.3709433"><ele>607.0</ele><time>2026-04-11T08:18:45.002Z</time></trkpt><trkpt lat="44.8401567" lon="9.3708217"><ele>605.5</ele><time>2026-04-11T08:18:47.001Z</time></trkpt><trkpt lat="44.840205" lon="9.3706683"><ele>604.0</ele><time>2026-04-11T08:18:49.001Z</time></trkpt><trkpt lat="44.84025" lon="9.370565"><ele>605.6</ele><time>2026-04-11T08:18:50.001Z</time></trkpt><trkpt lat="44.840305" lon="9.3704483"><ele>607.2</ele><time>2026-04-11T08:18:51.003Z</time></trkpt><trkpt lat="44.8403633" lon="9.3703533"><ele>608.8000000000001</ele><time>2026-04-11T08:18:52.003Z</time></trkpt><trkpt lat="44.8404117" lon="9.3702783"><ele>610.4</ele><time>2026-04-11T08:18:53.001Z</time></trkpt><trkpt lat="44.8404717" lon="9.3701467"><ele>612.0</ele><time>2026-04-11T08:18:55.001Z</time></trkpt><trkpt lat="44.8405033" lon="9.3700117"><ele>612.0</ele><time>2026-04-11T08:18:57.003Z</time></trkpt><trkpt lat="44.84051" lon="9.3699217"><ele>612.0</ele><time>2026-04-11T08:18:58.001Z</time></trkpt><trkpt lat="44.8405317" lon="9.3698217"><ele>612.0</ele><time>2026-04-11T08:18:59.003Z</time></trkpt><trkpt lat="44.840565" lon="9.369695"><ele>612.0</ele><time>2026-04-11T08:19:00.003Z</time></trkpt><trkpt lat="44.84059" lon="9.3695733"><ele>612.0</ele><time>2026-04-11T08:19:01.003Z</time></trkpt><trkpt lat="44.8406083" lon="9.3694633"><ele>612.0</ele><time>2026-04-11T08:19:02.003Z</time></trkpt><trkpt lat="44.8406283" lon="9.3693583"><ele>613.1666666666666</ele><time>2026-04-11T08:19:03.003Z</time></trkpt><trkpt lat="44.8406583" lon="9.369255"><ele>614.3333333333334</ele><time>2026-04-11T08:19:04.002Z</time></trkpt><trkpt lat="44.8406917" lon="9.369155"><ele>615.5</ele><time>2026-04-11T08:19:05.001Z</time></trkpt><trkpt lat="44.8407233" lon="9.3690483"><ele>616.6666666666667</ele><time>2026-04-11T08:19:06.004Z</time></trkpt><trkpt lat="44.8407467" lon="9.3689333"><ele>617.8333333333334</ele><time>2026-04-11T08:19:07.003Z</time></trkpt><trkpt lat="44.8407583" lon="9.3688167"><ele>619.0</ele><time>2026-04-11T08:19:08.001Z</time></trkpt><trkpt lat="44.8407517" lon="9.368705"><ele>619.8</ele><time>2026-04-11T08:19:09.003Z</time></trkpt><trkpt lat="44.8407383" lon="9.36858"><ele>620.5999999999999</ele><time>2026-04-11T08:19:10.002Z</time></trkpt><trkpt lat="44.8407183" lon="9.368455"><ele>621.4</ele><time>2026-04-11T08:19:11.001Z</time></trkpt><trkpt lat="44.8406983" lon="9.368325"><ele>622.1999999999999</ele><time>2026-04-11T08:19:12.003Z</time></trkpt><trkpt lat="44.8406567" lon="9.36821"><ele>623.0</ele><time>2026-04-11T08:19:13.004Z</time></trkpt><trkpt lat="44.8406067" lon="9.3680967"><ele>622.6</ele><time>2026-04-11T08:19:14.003Z</time></trkpt><trkpt lat="44.8405533" lon="9.3679767"><ele>622.1999999999999</ele><time>2026-04-11T08:19:15.003Z</time></trkpt><trkpt lat="44.840495" lon="9.3678683"><ele>621.8</ele><time>2026-04-11T08:19:16.002Z</time></trkpt><trkpt lat="44.8404383" lon="9.3677583"><ele>621.4</ele><time>2026-04-11T08:19:17.001Z</time></trkpt><trkpt lat="44.8403783" lon="9.36764"><ele>621.0</ele><time>2026-04-11T08:19:18.002Z</time></trkpt><trkpt lat="44.8403233" lon="9.3675117"><ele>621.0</ele><time>2026-04-11T08:19:19.002Z</time></trkpt><trkpt lat="44.8402867" lon="9.3673933"><ele>621.0</ele><time>2026-04-11T08:19:20.003Z</time></trkpt><trkpt lat="44.8402617" lon="9.3672817"><ele>621.0</ele><time>2026-04-11T08:19:21.002Z</time></trkpt><trkpt lat="44.8402283" lon="9.367195"><ele>621.0</ele><time>2026-04-11T08:19:22.001Z</time></trkpt><trkpt lat="44.8401617" lon="9.3670717"><ele>621.0</ele><time>2026-04-11T08:19:24.003Z</time></trkpt><trkpt lat="44.8400583" lon="9.3670417"><ele>624.0</ele><time>2026-04-11T08:19:26.002Z</time></trkpt><trkpt lat="44.8399483" lon="9.3670017"><ele>627.0</ele><time>2026-04-11T08:19:28.001Z</time></trkpt><trkpt lat="44.8398883" lon="9.3669617"><ele>630.0</ele><time>2026-04-11T08:19:29.003Z</time></trkpt><trkpt lat="44.8397933" lon="9.3668617"><ele>633.0</ele><time>2026-04-11T08:19:31.002Z</time></trkpt><trkpt lat="44.8397483" lon="9.366725"><ele>636.0</ele><time>2026-04-11T08:19:33.004Z</time></trkpt><trkpt lat="44.839695" lon="9.366625"><ele>636.0</ele><time>2026-04-11T08:19:35.001Z</time></trkpt><trkpt lat="44.8396317" lon="9.36652"><ele>636.0</ele><time>2026-04-11T08:19:37.003Z</time></trkpt><trkpt lat="44.8395867" lon="9.36642"><ele>636.0</ele><time>2026-04-11T08:19:39.004Z</time></trkpt><trkpt lat="44.8395317" lon="9.366305"><ele>636.0</ele><time>2026-04-11T08:19:41.002Z</time></trkpt><trkpt lat="44.83948" lon="9.3661683"><ele>636.0</ele><time>2026-04-11T08:19:43.004Z</time></trkpt><trkpt lat="44.8394167" lon="9.3660383"><ele>638.1666666666666</ele><time>2026-04-11T08:19:45.001Z</time></trkpt><trkpt lat="44.8393533" lon="9.3659333"><ele>640.3333333333334</ele><time>2026-04-11T08:19:47.001Z</time></trkpt><trkpt lat="44.8392683" lon="9.3658167"><ele>642.5</ele><time>2026-04-11T08:19:49.002Z</time></trkpt><trkpt lat="44.8391983" lon="9.3657733"><ele>644.6666666666667</ele><time>2026-04-11T08:19:50.001Z</time></trkpt><trkpt lat="44.839135" lon="9.3657383"><ele>646.8333333333334</ele><time>2026-04-11T08:19:51.002Z</time></trkpt><trkpt lat="44.83907" lon="9.3656883"><ele>649.0</ele><time>2026-04-11T08:19:52.002Z</time></trkpt><trkpt lat="44.8389983" lon="9.3656367"><ele>650.4000000000001</ele><time>2026-04-11T08:19:53.001Z</time></trkpt><trkpt lat="44.8389417" lon="9.3655933"><ele>651.8</ele><time>2026-04-11T08:19:54.004Z</time></trkpt><trkpt lat="44.83884" lon="9.3655"><ele>653.2</ele><time>2026-04-11T08:19:56.002Z</time></trkpt><trkpt lat="44.8387617" lon="9.3653983"><ele>654.5999999999999</ele><time>2026-04-11T08:19:58.001Z</time></trkpt><trkpt lat="44.838725" lon="9.3652867"><ele>656.0</ele><time>2026-04-11T08:20:00.002Z</time></trkpt><trkpt lat="44.8389987" lon="9.3656163"><ele>662.6666666666666</ele><time>2026-04-11T08:20:02.054Z</time></trkpt><trkpt lat="44.8388236" lon="9.3651807"><ele>669.3333333333334</ele><time>2026-04-11T08:20:03.002Z</time></trkpt><trkpt lat="44.8388542" lon="9.3650779"><ele>676.0</ele><time>2026-04-11T08:20:04.029Z</time></trkpt><trkpt lat="44.8388964" lon="9.3650067"><ele>676.0</ele><time>2026-04-11T08:20:05.07Z</time></trkpt><trkpt lat="44.8389625" lon="9.3649807"><ele>676.0</ele><time>2026-04-11T08:20:06.005Z</time></trkpt><trkpt lat="44.8390289" lon="9.364954"><ele>676.0</ele><time>2026-04-11T08:20:06.957Z</time></trkpt><trkpt lat="44.8391201" lon="9.3649572"><ele>676.0</ele><time>2026-04-11T08:20:08.085Z</time></trkpt><trkpt lat="44.8392014" lon="9.3649598"><ele>676.0</ele><time>2026-04-11T08:20:09.021Z</time></trkpt><trkpt lat="44.8392968" lon="9.3649537"><ele>676.0</ele><time>2026-04-11T08:20:10.095Z</time></trkpt><trkpt lat="44.8393778" lon="9.3649767"><ele>675.5714285714286</ele><time>2026-04-11T08:20:11Z</time></trkpt><trkpt lat="44.8394616" lon="9.3650023"><ele>675.1428571428571</ele><time>2026-04-11T08:20:12.056Z</time></trkpt><trkpt lat="44.8395284" lon="9.364994"><ele>674.7142857142858</ele><time>2026-04-11T08:20:13.003Z</time></trkpt><trkpt lat="44.8395926" lon="9.3649718"><ele>674.2857142857142</ele><time>2026-04-11T08:20:14.002Z</time></trkpt><trkpt lat="44.8396556" lon="9.3649398"><ele>673.8571428571428</ele><time>2026-04-11T08:20:15.001Z</time></trkpt><trkpt lat="44.8397162" lon="9.3649007"><ele>673.4285714285714</ele><time>2026-04-11T08:20:16.001Z</time></trkpt><trkpt lat="44.839777" lon="9.3648452"><ele>673.0</ele><time>2026-04-11T08:20:17.001Z</time></trkpt><trkpt lat="44.8398382" lon="9.3647859"><ele>673.0</ele><time>2026-04-11T08:20:18.001Z</time></trkpt><trkpt lat="44.8398971" lon="9.3647192"><ele>673.0</ele><time>2026-04-11T08:20:19.004Z</time></trkpt><trkpt lat="44.8399629" lon="9.3646491"><ele>673.0</ele><time>2026-04-11T08:20:20.004Z</time></trkpt><trkpt lat="44.8400335" lon="9.3645822"><ele>673.0</ele><time>2026-04-11T08:20:21.003Z</time></trkpt><trkpt lat="44.8401064" lon="9.3645206"><ele>673.0</ele><time>2026-04-11T08:20:22.002Z</time></trkpt><trkpt lat="44.8401864" lon="9.364463"><ele>673.0</ele><time>2026-04-11T08:20:23.001Z</time></trkpt><trkpt lat="44.8402619" lon="9.3644117"><ele>674.5999999999999</ele><time>2026-04-11T08:20:24.001Z</time></trkpt><trkpt lat="44.8403401" lon="9.3643578"><ele>676.1999999999999</ele><time>2026-04-11T08:20:25.001Z</time></trkpt><trkpt lat="44.8404228" lon="9.3642962"><ele>677.8</ele><time>2026-04-11T08:20:26.001Z</time></trkpt><trkpt lat="44.8405077" lon="9.3642327"><ele>679.4</ele><time>2026-04-11T08:20:27.002Z</time></trkpt><trkpt lat="44.8405916" lon="9.3641609"><ele>681.0</ele><time>2026-04-11T08:20:28.001Z</time></trkpt><trkpt lat="44.8406736" lon="9.3640739"><ele>681.0</ele><time>2026-04-11T08:20:29.001Z</time></trkpt><trkpt lat="44.8407553" lon="9.3639871"><ele>681.0</ele><time>2026-04-11T08:20:30.004Z</time></trkpt><trkpt lat="44.8408335" lon="9.3639104"><ele>681.0</ele><time>2026-04-11T08:20:31.003Z</time></trkpt><trkpt lat="44.8409088" lon="9.3638363"><ele>681.0</ele><time>2026-04-11T08:20:32.004Z</time></trkpt><trkpt lat="44.8409811" lon="9.3637549"><ele>681.0</ele><time>2026-04-11T08:20:33.003Z</time></trkpt><trkpt lat="44.8410292" lon="9.3636702"><ele>679.1999999999999</ele><time>2026-04-11T08:20:34.002Z</time></trkpt><trkpt lat="44.8410902" lon="9.3635317"><ele>677.4</ele><time>2026-04-11T08:20:36.002Z</time></trkpt><trkpt lat="44.8411406" lon="9.3634346"><ele>675.6</ele><time>2026-04-11T08:20:41.003Z</time></trkpt><trkpt lat="44.8412177" lon="9.3633218"><ele>673.8</ele><time>2026-04-11T08:20:43.002Z</time></trkpt><trkpt lat="44.8412823" lon="9.3631787"><ele>672.0</ele><time>2026-04-11T08:20:45.002Z</time></trkpt><trkpt lat="44.8413022" lon="9.3630915"><ele>672.6666666666666</ele><time>2026-04-11T08:20:46.001Z</time></trkpt><trkpt lat="44.8413086" lon="9.3629967"><ele>673.3333333333334</ele><time>2026-04-11T08:20:47.002Z</time></trkpt><trkpt lat="44.841306" lon="9.3628885"><ele>674.0</ele><time>2026-04-11T08:20:48.002Z</time></trkpt><trkpt lat="44.8413068" lon="9.362771"><ele>674.6666666666667</ele><time>2026-04-11T08:20:49.001Z</time></trkpt><trkpt lat="44.8413083" lon="9.3626617"><ele>675.3333333333334</ele><time>2026-04-11T08:20:50.001Z</time></trkpt><trkpt lat="44.8413233" lon="9.36256"><ele>676.0</ele><time>2026-04-11T08:20:51.002Z</time></trkpt><trkpt lat="44.841345" lon="9.3624633"><ele>676.0</ele><time>2026-04-11T08:20:52.001Z</time></trkpt><trkpt lat="44.8413767" lon="9.3623733"><ele>676.0</ele><time>2026-04-11T08:20:53.001Z</time></trkpt><trkpt lat="44.8414617" lon="9.362255"><ele>676.0</ele><time>2026-04-11T08:20:55.001Z</time></trkpt><trkpt lat="44.8415617" lon="9.36218"><ele>676.0</ele><time>2026-04-11T08:20:57.001Z</time></trkpt><trkpt lat="44.8416567" lon="9.36209"><ele>676.0</ele><time>2026-04-11T08:20:59.003Z</time></trkpt><trkpt lat="44.84172" lon="9.3619517"><ele>676.3333333333334</ele><time>2026-04-11T08:21:01.003Z</time></trkpt><trkpt lat="44.8417817" lon="9.3618183"><ele>676.6666666666667</ele><time>2026-04-11T08:21:03.003Z</time></trkpt><trkpt lat="44.84187" lon="9.3617583"><ele>677.0</ele><time>2026-04-11T08:21:05.002Z</time></trkpt><trkpt lat="44.841955" lon="9.3617483"><ele>677.3333333333334</ele><time>2026-04-11T08:21:07.003Z</time></trkpt><trkpt lat="44.8420217" lon="9.3617483"><ele>677.6666666666666</ele><time>2026-04-11T08:21:08.001Z</time></trkpt><trkpt lat="44.8420917" lon="9.3617317"><ele>678.0</ele><time>2026-04-11T08:21:09.002Z</time></trkpt><trkpt lat="44.8421583" lon="9.36171"><ele>674.0</ele><time>2026-04-11T08:21:10.001Z</time></trkpt><trkpt lat="44.8422167" lon="9.36167"><ele>670.0</ele><time>2026-04-11T08:21:11.002Z</time></trkpt><trkpt lat="44.842305" lon="9.3615733"><ele>666.0</ele><time>2026-04-11T08:21:13.003Z</time></trkpt><trkpt lat="44.8424" lon="9.3615267"><ele>662.0</ele><time>2026-04-11T08:21:15.002Z</time></trkpt><trkpt lat="44.84249" lon="9.3615733"><ele>658.0</ele><time>2026-04-11T08:21:17.001Z</time></trkpt><trkpt lat="44.842565" lon="9.3615433"><ele>658.0</ele><time>2026-04-11T08:21:20.003Z</time></trkpt><trkpt lat="44.8425883" lon="9.361415"><ele>658.0</ele><time>2026-04-11T08:21:23.005Z</time></trkpt><trkpt lat="44.8426133" lon="9.3612433"><ele>658.0</ele><time>2026-04-11T08:21:25.003Z</time></trkpt><trkpt lat="44.8426333" lon="9.3611567"><ele>658.0</ele><time>2026-04-11T08:21:26.002Z</time></trkpt><trkpt lat="44.8426633" lon="9.3610617"><ele>658.0</ele><time>2026-04-11T08:21:27.002Z</time></trkpt><trkpt lat="44.84271" lon="9.3609683"><ele>658.0</ele><time>2026-04-11T08:21:28.001Z</time></trkpt><trkpt lat="44.8427417" lon="9.3608667"><ele>655.5</ele><time>2026-04-11T08:21:29.001Z</time></trkpt><trkpt lat="44.84278" lon="9.3607483"><ele>653.0</ele><time>2026-04-11T08:21:30.004Z</time></trkpt><trkpt lat="44.8428083" lon="9.36064"><ele>650.5</ele><time>2026-04-11T08:21:31.003Z</time></trkpt><trkpt lat="44.8428467" lon="9.3605433"><ele>648.0</ele><time>2026-04-11T08:21:32.003Z</time></trkpt><trkpt lat="44.84291" lon="9.36052"><ele>645.5</ele><time>2026-04-11T08:21:35.003Z</time></trkpt><trkpt lat="44.8430183" lon="9.360585"><ele>643.0</ele><time>2026-04-11T08:22:00.001Z</time></trkpt><trkpt lat="44.8430883" lon="9.3605817"><ele>643.0</ele><time>2026-04-11T08:22:01Z</time></trkpt><trkpt lat="44.843215" lon="9.3605817"><ele>643.0</ele><time>2026-04-11T08:22:03.002Z</time></trkpt><trkpt lat="44.84328" lon="9.3605767"><ele>643.0</ele><time>2026-04-11T08:22:04.001Z</time></trkpt><trkpt lat="44.8433817" lon="9.3605567"><ele>643.0</ele><time>2026-04-11T08:22:06.001Z</time></trkpt><trkpt lat="44.8434467" lon="9.3605183"><ele>643.0</ele><time>2026-04-11T08:22:08.001Z</time></trkpt><trkpt lat="44.84353" lon="9.3605"><ele>643.0</ele><time>2026-04-11T08:22:10.001Z</time></trkpt><trkpt lat="44.8436367" lon="9.360495"><ele>638.4</ele><time>2026-04-11T08:22:12Z</time></trkpt><trkpt lat="44.8437333" lon="9.3605"><ele>633.8</ele><time>2026-04-11T08:22:14.002Z</time></trkpt><trkpt lat="44.8437967" lon="9.360515"><ele>629.2</ele><time>2026-04-11T08:22:15.002Z</time></trkpt><trkpt lat="44.843905" lon="9.3605633"><ele>624.6</ele><time>2026-04-11T08:22:17.001Z</time></trkpt><trkpt lat="44.8440133" lon="9.3605967"><ele>620.0</ele><time>2026-04-11T08:22:19.001Z</time></trkpt><trkpt lat="44.844135" lon="9.3606"><ele>619.0</ele><time>2026-04-11T08:22:21.001Z</time></trkpt><trkpt lat="44.84425" lon="9.3605817"><ele>618.0</ele><time>2026-04-11T08:22:23.001Z</time></trkpt><trkpt lat="44.84432" lon="9.3605717"><ele>617.0</ele><time>2026-04-11T08:22:24.002Z</time></trkpt><trkpt lat="44.844395" lon="9.360565"><ele>616.0</ele><time>2026-04-11T08:22:25.001Z</time></trkpt><trkpt lat="44.8445067" lon="9.3605433"><ele>615.0</ele><time>2026-04-11T08:22:27.003Z</time></trkpt><trkpt lat="44.84461" lon="9.3605"><ele>611.6666666666666</ele><time>2026-04-11T08:22:29.001Z</time></trkpt><trkpt lat="44.8446983" lon="9.36045"><ele>608.3333333333334</ele><time>2026-04-11T08:22:31.001Z</time></trkpt><trkpt lat="44.844765" lon="9.3603933"><ele>605.0</ele><time>2026-04-11T08:22:33Z</time></trkpt><trkpt lat="44.8447917" lon="9.360305"><ele>601.6666666666667</ele><time>2026-04-11T08:22:36.003Z</time></trkpt><trkpt lat="44.8447433" lon="9.3602333"><ele>598.3333333333334</ele><time>2026-04-11T08:22:39.003Z</time></trkpt><trkpt lat="44.84473" lon="9.3601317"><ele>595.0</ele><time>2026-04-11T08:22:41.001Z</time></trkpt><trkpt lat="44.84475" lon="9.3599917"><ele>595.0</ele><time>2026-04-11T08:22:43Z</time></trkpt><trkpt lat="44.8447467" lon="9.359835"><ele>595.0</ele><time>2026-04-11T08:22:45.003Z</time></trkpt><trkpt lat="44.84471" lon="9.3596733"><ele>595.0</ele><time>2026-04-11T08:22:47.002Z</time></trkpt><trkpt lat="44.8446933" lon="9.3595817"><ele>595.0</ele><time>2026-04-11T08:22:48.003Z</time></trkpt><trkpt lat="44.8446733" lon="9.3594867"><ele>595.0</ele><time>2026-04-11T08:22:49.002Z</time></trkpt><trkpt lat="44.8446633" lon="9.3593967"><ele>595.0</ele><time>2026-04-11T08:22:50.002Z</time></trkpt><trkpt lat="44.8446683" lon="9.3592967"><ele>595.6</ele><time>2026-04-11T08:22:51.002Z</time></trkpt><trkpt lat="44.8446783" lon="9.3591283"><ele>596.2</ele><time>2026-04-11T08:22:53.003Z</time></trkpt><trkpt lat="44.8446567" lon="9.3589633"><ele>596.8</ele><time>2026-04-11T08:22:55.003Z</time></trkpt><trkpt lat="44.8446333" lon="9.35887"><ele>597.4</ele><time>2026-04-11T08:22:56.001Z</time></trkpt><trkpt lat="44.8445833" lon="9.3587733"><ele>598.0</ele><time>2026-04-11T08:22:57.002Z</time></trkpt><trkpt lat="44.84451" lon="9.35866"><ele>598.0</ele><time>2026-04-11T08:22:58.002Z</time></trkpt><trkpt lat="44.8444367" lon="9.3585483"><ele>598.0</ele><time>2026-04-11T08:22:59.001Z</time></trkpt><trkpt lat="44.84436" lon="9.3584433"><ele>598.0</ele><time>2026-04-11T08:23:00.004Z</time></trkpt><trkpt lat="44.8442733" lon="9.3583417"><ele>598.0</ele><time>2026-04-11T08:23:01.002Z</time></trkpt><trkpt lat="44.8442067" lon="9.3582417"><ele>598.0</ele><time>2026-04-11T08:23:02.003Z</time></trkpt><trkpt lat="44.8441383" lon="9.35815"><ele>603.1999999999999</ele><time>2026-04-11T08:23:03.002Z</time></trkpt><trkpt lat="44.84409" lon="9.3580633"><ele>608.4</ele><time>2026-04-11T08:23:04.002Z</time></trkpt><trkpt lat="44.8440483" lon="9.35792"><ele>613.5999999999999</ele><time>2026-04-11T08:23:06.003Z</time></trkpt><trkpt lat="44.84404" lon="9.3577633"><ele>618.8</ele><time>2026-04-11T08:23:08.003Z</time></trkpt><trkpt lat="44.8440283" lon="9.3576383"><ele>624.0</ele><time>2026-04-11T08:23:10.002Z</time></trkpt><trkpt lat="44.8440183" lon="9.3575"><ele>624.0</ele><time>2026-04-11T08:23:12.001Z</time></trkpt><trkpt lat="44.8439617" lon="9.3573633"><ele>624.0</ele><time>2026-04-11T08:23:14.002Z</time></trkpt><trkpt lat="44.843925" lon="9.3572867"><ele>624.0</ele><time>2026-04-11T08:23:15.004Z</time></trkpt><trkpt lat="44.843895" lon="9.3571983"><ele>624.0</ele><time>2026-04-11T08:23:16.002Z</time></trkpt><trkpt lat="44.8438617" lon="9.3571017"><ele>624.0</ele><time>2026-04-11T08:23:17.003Z</time></trkpt><trkpt lat="44.84383" lon="9.3570083"><ele>624.0</ele><time>2026-04-11T08:23:18.001Z</time></trkpt><trkpt lat="44.8437617" lon="9.35685"><ele>623.2</ele><time>2026-04-11T08:23:20.003Z</time></trkpt><trkpt lat="44.8437233" lon="9.35677"><ele>622.4</ele><time>2026-04-11T08:23:21.004Z</time></trkpt><trkpt lat="44.8436783" lon="9.3567"><ele>621.6</ele><time>2026-04-11T08:23:22.002Z</time></trkpt><trkpt lat="44.8436033" lon="9.3565133"><ele>620.8</ele><time>2026-04-11T08:23:24.001Z</time></trkpt><trkpt lat="44.84357" lon="9.3564067"><ele>620.0</ele><time>2026-04-11T08:23:25.002Z</time></trkpt><trkpt lat="44.8435217" lon="9.35625"><ele>620.0</ele><time>2026-04-11T08:23:27.001Z</time></trkpt><trkpt lat="44.8434833" lon="9.3561367"><ele>620.0</ele><time>2026-04-11T08:23:29.002Z</time></trkpt><trkpt lat="44.8433883" lon="9.3560533"><ele>620.0</ele><time>2026-04-11T08:23:31.002Z</time></trkpt><trkpt lat="44.8433283" lon="9.3560167"><ele>620.0</ele><time>2026-04-11T08:23:32.001Z</time></trkpt><trkpt lat="44.84326" lon="9.35599"><ele>620.0</ele><time>2026-04-11T08:23:33.002Z</time></trkpt><trkpt lat="44.8431817" lon="9.3559733"><ele>620.0</ele><time>2026-04-11T08:23:34.003Z</time></trkpt><trkpt lat="44.84311" lon="9.35597"><ele>623.1666666666666</ele><time>2026-04-11T08:23:35.003Z</time></trkpt><trkpt lat="44.8430333" lon="9.3559733"><ele>626.3333333333333</ele><time>2026-04-11T08:23:36.003Z</time></trkpt><trkpt lat="44.8429617" lon="9.3559817"><ele>629.5</ele><time>2026-04-11T08:23:37.002Z</time></trkpt><trkpt lat="44.842895" lon="9.3559733"><ele>632.6666666666666</ele><time>2026-04-11T08:23:38.001Z</time></trkpt><trkpt lat="44.842795" lon="9.355925"><ele>635.8333333333334</ele><time>2026-04-11T08:23:40.002Z</time></trkpt><trkpt lat="44.8426987" lon="9.3558305"><ele>639.0</ele><time>2026-04-11T08:23:42.003Z</time></trkpt><trkpt lat="44.8426374" lon="9.3557758"><ele>642.8333333333334</ele><time>2026-04-11T08:23:43.003Z</time></trkpt><trkpt lat="44.8425698" lon="9.3557233"><ele>646.6666666666666</ele><time>2026-04-11T08:23:44.002Z</time></trkpt><trkpt lat="44.8424956" lon="9.3556811"><ele>650.5</ele><time>2026-04-11T08:23:45.002Z</time></trkpt><trkpt lat="44.8424186" lon="9.3556415"><ele>654.3333333333333</ele><time>2026-04-11T08:23:46.003Z</time></trkpt><trkpt lat="44.8423472" lon="9.3556091"><ele>658.1666666666666</ele><time>2026-04-11T08:23:47.002Z</time></trkpt><trkpt lat="44.8422472" lon="9.3555548"><ele>662.0</ele><time>2026-04-11T08:23:49.003Z</time></trkpt><trkpt lat="44.8421898" lon="9.3554982"><ele>662.0</ele><time>2026-04-11T08:23:51.002Z</time></trkpt><trkpt lat="44.8421324" lon="9.3554006"><ele>662.0</ele><time>2026-04-11T08:23:53.001Z</time></trkpt><trkpt lat="44.8420547" lon="9.3553127"><ele>662.0</ele><time>2026-04-11T08:23:55.002Z</time></trkpt><trkpt lat="44.8419977" lon="9.3552297"><ele>662.0</ele><time>2026-04-11T08:23:57.004Z</time></trkpt><trkpt lat="44.8419623" lon="9.3551204"><ele>662.0</ele><time>2026-04-11T08:23:59.001Z</time></trkpt><trkpt lat="44.841942" lon="9.355026"><ele>662.0</ele><time>2026-04-11T08:24:01.001Z</time></trkpt><trkpt lat="44.8419111" lon="9.3549259"><ele>662.0</ele><time>2026-04-11T08:24:04.002Z</time></trkpt><trkpt lat="44.84189" lon="9.3548361"><ele>662.0</ele><time>2026-04-11T08:24:07.003Z</time></trkpt><trkpt lat="44.8418541" lon="9.354687"><ele>662.0</ele><time>2026-04-11T08:24:10.001Z</time></trkpt><trkpt lat="44.8418629" lon="9.35453"><ele>662.0</ele><time>2026-04-11T08:24:12.001Z</time></trkpt><trkpt lat="44.8419355" lon="9.3543857"><ele>662.0</ele><time>2026-04-11T08:24:14.002Z</time></trkpt><trkpt lat="44.8419827" lon="9.3543169"><ele>663.2</ele><time>2026-04-11T08:24:15.002Z</time></trkpt><trkpt lat="44.8420431" lon="9.3541739"><ele>664.4000000000001</ele><time>2026-04-11T08:24:17.002Z</time></trkpt><trkpt lat="44.8420653" lon="9.3540251"><ele>665.5999999999999</ele><time>2026-04-11T08:24:19.004Z</time></trkpt><trkpt lat="44.8420999" lon="9.353869"><ele>666.8</ele><time>2026-04-11T08:24:21.004Z</time></trkpt><trkpt lat="44.842123" lon="9.3537834"><ele>668.0</ele><time>2026-04-11T08:24:22.004Z</time></trkpt><trkpt lat="44.8421419" lon="9.353692"><ele>670.8333333333333</ele><time>2026-04-11T08:24:23.002Z</time></trkpt><trkpt lat="44.8421616" lon="9.3536032"><ele>673.6666666666666</ele><time>2026-04-11T08:24:24.002Z</time></trkpt><trkpt lat="44.8421925" lon="9.3534829"><ele>676.5</ele><time>2026-04-11T08:24:26.001Z</time></trkpt><trkpt lat="44.8422535" lon="9.3533975"><ele>679.3333333333334</ele><time>2026-04-11T08:24:28.002Z</time></trkpt><trkpt lat="44.8423412" lon="9.3533071"><ele>682.1666666666667</ele><time>2026-04-11T08:24:30.001Z</time></trkpt><trkpt lat="44.8423892" lon="9.3532429"><ele>685.0</ele><time>2026-04-11T08:24:31.004Z</time></trkpt><trkpt lat="44.8424826" lon="9.3531454"><ele>685.0</ele><time>2026-04-11T08:24:33.003Z</time></trkpt><trkpt lat="44.8426012" lon="9.3530787"><ele>685.0</ele><time>2026-04-11T08:24:35.002Z</time></trkpt><trkpt lat="44.8426595" lon="9.3530063"><ele>685.0</ele><time>2026-04-11T08:24:36.001Z</time></trkpt><trkpt lat="44.8427217" lon="9.352922"><ele>685.0</ele><time>2026-04-11T08:24:37.003Z</time></trkpt><trkpt lat="44.8427832" lon="9.3528371"><ele>685.0</ele><time>2026-04-11T08:24:38.002Z</time></trkpt><trkpt lat="44.8428546" lon="9.3527785"><ele>688.0</ele><time>2026-04-11T08:24:39.003Z</time></trkpt><trkpt lat="44.8429176" lon="9.3527289"><ele>691.0</ele><time>2026-04-11T08:24:40.002Z</time></trkpt><trkpt lat="44.8429832" lon="9.3526826"><ele>694.0</ele><time>2026-04-11T08:24:41.002Z</time></trkpt><trkpt lat="44.8430529" lon="9.3526302"><ele>697.0</ele><time>2026-04-11T08:24:42.001Z</time></trkpt><trkpt lat="44.843123" lon="9.3525878"><ele>700.0</ele><time>2026-04-11T08:24:43.003Z</time></trkpt><trkpt lat="44.8432334" lon="9.3525428"><ele>703.0</ele><time>2026-04-11T08:24:45.003Z</time></trkpt><trkpt lat="44.843315" lon="9.3525637"><ele>703.0</ele><time>2026-04-11T08:24:47.001Z</time></trkpt><trkpt lat="44.8433997" lon="9.3525786"><ele>703.0</ele><time>2026-04-11T08:24:49.002Z</time></trkpt><trkpt lat="44.8434967" lon="9.3526238"><ele>703.0</ele><time>2026-04-11T08:24:51.002Z</time></trkpt><trkpt lat="44.8435558" lon="9.3526559"><ele>703.0</ele><time>2026-04-11T08:24:52.002Z</time></trkpt><trkpt lat="44.8436209" lon="9.3526826"><ele>703.0</ele><time>2026-04-11T08:24:53.001Z</time></trkpt><trkpt lat="44.8436937" lon="9.3527064"><ele>703.0</ele><time>2026-04-11T08:24:54.002Z</time></trkpt><trkpt lat="44.8437634" lon="9.3527249"><ele>701.1666666666667</ele><time>2026-04-11T08:24:55.001Z</time></trkpt><trkpt lat="44.8438489" lon="9.3527447"><ele>699.3333333333334</ele><time>2026-04-11T08:24:56.002Z</time></trkpt><trkpt lat="44.8439304" lon="9.3527563"><ele>697.5</ele><time>2026-04-11T08:24:57.002Z</time></trkpt><trkpt lat="44.8440121" lon="9.3527639"><ele>695.6666666666666</ele><time>2026-04-11T08:24:58.002Z</time></trkpt><trkpt lat="44.8440845" lon="9.3527582"><ele>693.8333333333333</ele><time>2026-04-11T08:24:59.003Z</time></trkpt><trkpt lat="44.8441511" lon="9.3527496"><ele>692.0</ele><time>2026-04-11T08:25:00.002Z</time></trkpt><trkpt lat="44.8442327" lon="9.3527137"><ele>689.5</ele><time>2026-04-11T08:25:02.002Z</time></trkpt><trkpt lat="44.8443183" lon="9.3526417"><ele>687.0</ele><time>2026-04-11T08:25:04.001Z</time></trkpt><trkpt lat="44.84439" lon="9.3525817"><ele>684.5</ele><time>2026-04-11T08:25:05.001Z</time></trkpt><trkpt lat="44.844465" lon="9.3525183"><ele>682.0</ele><time>2026-04-11T08:25:06.003Z</time></trkpt><trkpt lat="44.8445383" lon="9.35245"><ele>679.5</ele><time>2026-04-11T08:25:07.002Z</time></trkpt><trkpt lat="44.8446" lon="9.352385"><ele>677.0</ele><time>2026-04-11T08:25:08.003Z</time></trkpt><trkpt lat="44.8446533" lon="9.35232"><ele>677.0</ele><time>2026-04-11T08:25:09.002Z</time></trkpt><trkpt lat="44.84471" lon="9.3522517"><ele>677.0</ele><time>2026-04-11T08:25:10.002Z</time></trkpt><trkpt lat="44.8447667" lon="9.3522"><ele>677.0</ele><time>2026-04-11T08:25:11.001Z</time></trkpt><trkpt lat="44.8448283" lon="9.3521533"><ele>677.0</ele><time>2026-04-11T08:25:12.001Z</time></trkpt><trkpt lat="44.844935" lon="9.3520583"><ele>677.0</ele><time>2026-04-11T08:25:14.002Z</time></trkpt><trkpt lat="44.8450083" lon="9.351975"><ele>677.0</ele><time>2026-04-11T08:25:16.004Z</time></trkpt><trkpt lat="44.8450683" lon="9.35191"><ele>677.8333333333333</ele><time>2026-04-11T08:25:19.002Z</time></trkpt><trkpt lat="44.845125" lon="9.3518533"><ele>678.6666666666666</ele><time>2026-04-11T08:25:21.002Z</time></trkpt><trkpt lat="44.8451967" lon="9.3517867"><ele>679.5</ele><time>2026-04-11T08:25:23.002Z</time></trkpt><trkpt lat="44.8453117" lon="9.3517133"><ele>680.3333333333334</ele><time>2026-04-11T08:25:25.002Z</time></trkpt><trkpt lat="44.8453717" lon="9.3516767"><ele>681.1666666666667</ele><time>2026-04-11T08:25:26.001Z</time></trkpt><trkpt lat="44.84543" lon="9.3516417"><ele>682.0</ele><time>2026-04-11T08:25:27.003Z</time></trkpt><trkpt lat="44.84554" lon="9.35157"><ele>682.0</ele><time>2026-04-11T08:25:29.002Z</time></trkpt><trkpt lat="44.8456533" lon="9.35154"><ele>682.0</ele><time>2026-04-11T08:25:31.001Z</time></trkpt><trkpt lat="44.845755" lon="9.3514683"><ele>682.0</ele><time>2026-04-11T08:25:33.002Z</time></trkpt><trkpt lat="44.8458467" lon="9.351455"><ele>682.0</ele><time>2026-04-11T08:25:35.002Z</time></trkpt><trkpt lat="44.8459333" lon="9.3514967"><ele>682.0</ele><time>2026-04-11T08:25:37.004Z</time></trkpt><trkpt lat="44.8460333" lon="9.3515733"><ele>683.2</ele><time>2026-04-11T08:25:39.002Z</time></trkpt><trkpt lat="44.84609" lon="9.3516183"><ele>684.4000000000001</ele><time>2026-04-11T08:25:40.002Z</time></trkpt><trkpt lat="44.8462" lon="9.351675"><ele>685.5999999999999</ele><time>2026-04-11T08:25:42.003Z</time></trkpt><trkpt lat="44.846285" lon="9.3517283"><ele>686.8</ele><time>2026-04-11T08:25:44.001Z</time></trkpt><trkpt lat="44.846365" lon="9.3517617"><ele>688.0</ele><time>2026-04-11T08:25:46.002Z</time></trkpt><trkpt lat="44.8464517" lon="9.3518267"><ele>688.0</ele><time>2026-04-11T08:25:49.002Z</time></trkpt><trkpt lat="44.8465383" lon="9.3518983"><ele>688.0</ele><time>2026-04-11T08:25:51.003Z</time></trkpt><trkpt lat="44.84664" lon="9.35199"><ele>688.0</ele><time>2026-04-11T08:25:53.002Z</time></trkpt><trkpt lat="44.8466967" lon="9.3520333"><ele>688.0</ele><time>2026-04-11T08:25:54.003Z</time></trkpt><trkpt lat="44.8467883" lon="9.3521433"><ele>688.0</ele><time>2026-04-11T08:25:56.001Z</time></trkpt><trkpt lat="44.8468383" lon="9.3522183"><ele>687.6666666666667</ele><time>2026-04-11T08:25:57.003Z</time></trkpt><trkpt lat="44.8468917" lon="9.3522833"><ele>687.3333333333334</ele><time>2026-04-11T08:25:58.002Z</time></trkpt><trkpt lat="44.846985" lon="9.35239"><ele>687.0</ele><time>2026-04-11T08:26:00.003Z</time></trkpt><trkpt lat="44.8470517" lon="9.3524233"><ele>686.6666666666666</ele><time>2026-04-11T08:26:01.001Z</time></trkpt><trkpt lat="44.8471167" lon="9.352435"><ele>686.3333333333333</ele><time>2026-04-11T08:26:02.001Z</time></trkpt><trkpt lat="44.8471817" lon="9.3524317"><ele>686.0</ele><time>2026-04-11T08:26:03.002Z</time></trkpt><trkpt lat="44.84731" lon="9.3523867"><ele>686.0</ele><time>2026-04-11T08:26:05.002Z</time></trkpt><trkpt lat="44.8473933" lon="9.3523817"><ele>686.0</ele><time>2026-04-11T08:26:06.003Z</time></trkpt><trkpt lat="44.84748" lon="9.3523733"><ele>686.0</ele><time>2026-04-11T08:26:07.004Z</time></trkpt><trkpt lat="44.8475717" lon="9.3523917"><ele>686.0</ele><time>2026-04-11T08:26:08.001Z</time></trkpt><trkpt lat="44.84768" lon="9.35241"><ele>686.0</ele><time>2026-04-11T08:26:09.003Z</time></trkpt><trkpt lat="44.8477633" lon="9.352445"><ele>687.1999999999999</ele><time>2026-04-11T08:26:10.001Z</time></trkpt><trkpt lat="44.84784" lon="9.3524933"><ele>688.4</ele><time>2026-04-11T08:26:11.002Z</time></trkpt><trkpt lat="44.8479283" lon="9.35255"><ele>689.6</ele><time>2026-04-11T08:26:12.002Z</time></trkpt><trkpt lat="44.8480067" lon="9.3526117"><ele>690.8</ele><time>2026-04-11T08:26:13.002Z</time></trkpt><trkpt lat="44.8480917" lon="9.3526583"><ele>692.0</ele><time>2026-04-11T08:26:14.002Z</time></trkpt><trkpt lat="44.8481767" lon="9.3527033"><ele>692.0</ele><time>2026-04-11T08:26:15.001Z</time></trkpt><trkpt lat="44.8482583" lon="9.352745"><ele>692.0</ele><time>2026-04-11T08:26:16.002Z</time></trkpt><trkpt lat="44.84835" lon="9.3528"><ele>692.0</ele><time>2026-04-11T08:26:17.002Z</time></trkpt><trkpt lat="44.8484283" lon="9.35285"><ele>692.0</ele><time>2026-04-11T08:26:18.002Z</time></trkpt><trkpt lat="44.848515" lon="9.3528883"><ele>692.0</ele><time>2026-04-11T08:26:19.003Z</time></trkpt><trkpt lat="44.84859" lon="9.3529217"><ele>692.0</ele><time>2026-04-11T08:26:20.003Z</time></trkpt><trkpt lat="44.8486733" lon="9.3529383"><ele>692.2</ele><time>2026-04-11T08:26:21.002Z</time></trkpt><trkpt lat="44.8487567" lon="9.3529367"><ele>692.4000000000001</ele><time>2026-04-11T08:26:22.003Z</time></trkpt><trkpt lat="44.8488517" lon="9.3529233"><ele>692.5999999999999</ele><time>2026-04-11T08:26:23.001Z</time></trkpt><trkpt lat="44.84895" lon="9.3529183"><ele>692.8</ele><time>2026-04-11T08:26:24.002Z</time></trkpt><trkpt lat="44.8490517" lon="9.3529117"><ele>693.0</ele><time>2026-04-11T08:26:25.002Z</time></trkpt><trkpt lat="44.8491433" lon="9.35291"><ele>693.0</ele><time>2026-04-11T08:26:26.002Z</time></trkpt><trkpt lat="44.8492317" lon="9.3528967"><ele>693.0</ele><time>2026-04-11T08:26:27.002Z</time></trkpt><trkpt lat="44.84931" lon="9.3529"><ele>693.0</ele><time>2026-04-11T08:26:28.001Z</time></trkpt><trkpt lat="44.8493933" lon="9.3529067"><ele>693.0</ele><time>2026-04-11T08:26:29.002Z</time></trkpt><trkpt lat="44.8494783" lon="9.35292"><ele>693.0</ele><time>2026-04-11T08:26:30.001Z</time></trkpt><trkpt lat="44.8495633" lon="9.3529283"><ele>693.0</ele><time>2026-04-11T08:26:31.001Z</time></trkpt><trkpt lat="44.849645" lon="9.352935"><ele>692.0</ele><time>2026-04-11T08:26:32.001Z</time></trkpt><trkpt lat="44.8497217" lon="9.352935"><ele>691.0</ele><time>2026-04-11T08:26:33.001Z</time></trkpt><trkpt lat="44.8497967" lon="9.3529283"><ele>690.0</ele><time>2026-04-11T08:26:34.002Z</time></trkpt><trkpt lat="44.8498633" lon="9.352925"><ele>689.0</ele><time>2026-04-11T08:26:35.002Z</time></trkpt><trkpt lat="44.8499267" lon="9.3529217"><ele>688.0</ele><time>2026-04-11T08:26:36.001Z</time></trkpt><trkpt lat="44.8500267" lon="9.3529017"><ele>687.0</ele><time>2026-04-11T08:26:38.001Z</time></trkpt><trkpt lat="44.8501233" lon="9.3528933"><ele>684.4000000000001</ele><time>2026-04-11T08:28:09.001Z</time></trkpt><trkpt lat="44.8502167" lon="9.35289"><ele>681.8000000000001</ele><time>2026-04-11T08:28:11.001Z</time></trkpt><trkpt lat="44.8503333" lon="9.3528733"><ele>679.2</ele><time>2026-04-11T08:28:13.002Z</time></trkpt><trkpt lat="44.8503967" lon="9.352855"><ele>676.6</ele><time>2026-04-11T08:28:14.002Z</time></trkpt><trkpt lat="44.8504783" lon="9.3528083"><ele>674.0</ele><time>2026-04-11T08:28:15.002Z</time></trkpt><trkpt lat="44.8505583" lon="9.3527583"><ele>674.0</ele><time>2026-04-11T08:28:16.001Z</time></trkpt><trkpt lat="44.850645" lon="9.3527033"><ele>674.0</ele><time>2026-04-11T08:28:17.002Z</time></trkpt><trkpt lat="44.8507333" lon="9.3526533"><ele>674.0</ele><time>2026-04-11T08:28:18.002Z</time></trkpt><trkpt lat="44.85082" lon="9.3526017"><ele>674.0</ele><time>2026-04-11T08:28:19.002Z</time></trkpt><trkpt lat="44.8508983" lon="9.3525517"><ele>674.0</ele><time>2026-04-11T08:28:20.001Z</time></trkpt><trkpt lat="44.8509733" lon="9.3524983"><ele>672.1666666666666</ele><time>2026-04-11T08:28:21.003Z</time></trkpt><trkpt lat="44.85105" lon="9.3524467"><ele>670.3333333333333</ele><time>2026-04-11T08:28:22.004Z</time></trkpt><trkpt lat="44.851125" lon="9.3524"><ele>668.5</ele><time>2026-04-11T08:28:23.003Z</time></trkpt><trkpt lat="44.8511917" lon="9.3523467"><ele>666.6666666666666</ele><time>2026-04-11T08:28:24.004Z</time></trkpt><trkpt lat="44.8512433" lon="9.3522883"><ele>664.8333333333334</ele><time>2026-04-11T08:28:25.003Z</time></trkpt><trkpt lat="44.8512917" lon="9.352125"><ele>663.0</ele><time>2026-04-11T08:28:27.003Z</time></trkpt><trkpt lat="44.8513033" lon="9.3520283"><ele>663.0</ele><time>2026-04-11T08:28:28.003Z</time></trkpt><trkpt lat="44.85132" lon="9.351915"><ele>663.0</ele><time>2026-04-11T08:28:29.003Z</time></trkpt><trkpt lat="44.8513367" lon="9.3518"><ele>663.0</ele><time>2026-04-11T08:28:30.004Z</time></trkpt><trkpt lat="44.85136" lon="9.3516767"><ele>663.0</ele><time>2026-04-11T08:28:31.003Z</time></trkpt><trkpt lat="44.8513867" lon="9.3515717"><ele>663.0</ele><time>2026-04-11T08:28:32.002Z</time></trkpt><trkpt lat="44.8514167" lon="9.35148"><ele>663.0</ele><time>2026-04-11T08:28:33.003Z</time></trkpt><trkpt lat="44.8514483" lon="9.351395"><ele>664.1666666666666</ele><time>2026-04-11T08:28:34.003Z</time></trkpt><trkpt lat="44.8514833" lon="9.3513183"><ele>665.3333333333334</ele><time>2026-04-11T08:28:35.003Z</time></trkpt><trkpt lat="44.8515233" lon="9.3512217"><ele>666.5</ele><time>2026-04-11T08:28:36.003Z</time></trkpt><trkpt lat="44.85157" lon="9.3511283"><ele>667.6666666666667</ele><time>2026-04-11T08:28:37.001Z</time></trkpt><trkpt lat="44.851635" lon="9.351035"><ele>668.8333333333334</ele><time>2026-04-11T08:28:38.005Z</time></trkpt><trkpt lat="44.85171" lon="9.350955"><ele>670.0</ele><time>2026-04-11T08:28:39.003Z</time></trkpt><trkpt lat="44.8517783" lon="9.3508767"><ele>671.0</ele><time>2026-04-11T08:28:40.002Z</time></trkpt><trkpt lat="44.85184" lon="9.3508033"><ele>672.0</ele><time>2026-04-11T08:28:41.002Z</time></trkpt><trkpt lat="44.8518983" lon="9.35073"><ele>673.0</ele><time>2026-04-11T08:28:42.003Z</time></trkpt><trkpt lat="44.8519483" lon="9.3506683"><ele>674.0</ele><time>2026-04-11T08:28:43.001Z</time></trkpt><trkpt lat="44.8520283" lon="9.3505667"><ele>675.0</ele><time>2026-04-11T08:28:45.004Z</time></trkpt><trkpt lat="44.8521367" lon="9.35048"><ele>675.0</ele><time>2026-04-11T08:28:47.004Z</time></trkpt><trkpt lat="44.8522033" lon="9.3504333"><ele>675.0</ele><time>2026-04-11T08:28:48.003Z</time></trkpt><trkpt lat="44.852275" lon="9.3503767"><ele>675.0</ele><time>2026-04-11T08:28:49.003Z</time></trkpt><trkpt lat="44.8523533" lon="9.3503133"><ele>675.0</ele><time>2026-04-11T08:28:50.003Z</time></trkpt><trkpt lat="44.85244" lon="9.3502533"><ele>675.0</ele><time>2026-04-11T08:28:51.003Z</time></trkpt><trkpt lat="44.8525217" lon="9.35019"><ele>675.0</ele><time>2026-04-11T08:28:52.004Z</time></trkpt><trkpt lat="44.8526033" lon="9.3501317"><ele>675.1666666666666</ele><time>2026-04-11T08:28:53.002Z</time></trkpt><trkpt lat="44.8526767" lon="9.3500817"><ele>675.3333333333334</ele><time>2026-04-11T08:28:54.001Z</time></trkpt><trkpt lat="44.8527433" lon="9.350055"><ele>675.5</ele><time>2026-04-11T08:28:55.003Z</time></trkpt><trkpt lat="44.8528517" lon="9.350085"><ele>675.6666666666667</ele><time>2026-04-11T08:28:57.003Z</time></trkpt><trkpt lat="44.8529167" lon="9.35013"><ele>675.8333333333334</ele><time>2026-04-11T08:28:58.001Z</time></trkpt><trkpt lat="44.852975" lon="9.3501783"><ele>676.0</ele><time>2026-04-11T08:28:59.006Z</time></trkpt><trkpt lat="44.8530333" lon="9.35024"><ele>676.0</ele><time>2026-04-11T08:29:00.002Z</time></trkpt><trkpt lat="44.8530883" lon="9.3503033"><ele>676.0</ele><time>2026-04-11T08:29:01.002Z</time></trkpt><trkpt lat="44.8531933" lon="9.3503933"><ele>676.0</ele><time>2026-04-11T08:29:03.002Z</time></trkpt><trkpt lat="44.8532567" lon="9.350435"><ele>676.0</ele><time>2026-04-11T08:29:04.001Z</time></trkpt><trkpt lat="44.8533333" lon="9.3504683"><ele>676.0</ele><time>2026-04-11T08:29:05.002Z</time></trkpt><trkpt lat="44.853415" lon="9.3504867"><ele>676.0</ele><time>2026-04-11T08:29:06.002Z</time></trkpt><trkpt lat="44.8534983" lon="9.35051"><ele>676.1666666666667</ele><time>2026-04-11T08:29:07.002Z</time></trkpt><trkpt lat="44.85357" lon="9.3505167"><ele>676.3333333333334</ele><time>2026-04-11T08:29:08.003Z</time></trkpt><trkpt lat="44.8536417" lon="9.350525"><ele>676.5</ele><time>2026-04-11T08:29:09.002Z</time></trkpt><trkpt lat="44.8537133" lon="9.35054"><ele>676.6666666666666</ele><time>2026-04-11T08:29:10.001Z</time></trkpt><trkpt lat="44.8537733" lon="9.35057"><ele>676.8333333333333</ele><time>2026-04-11T08:29:11.001Z</time></trkpt><trkpt lat="44.85387" lon="9.3506833"><ele>677.0</ele><time>2026-04-11T08:29:13.001Z</time></trkpt><trkpt lat="44.8539133" lon="9.3507617"><ele>675.3333333333333</ele><time>2026-04-11T08:29:14.003Z</time></trkpt><trkpt lat="44.853965" lon="9.35084"><ele>673.6666666666666</ele><time>2026-04-11T08:29:15.001Z</time></trkpt><trkpt lat="44.85403" lon="9.350905"><ele>672.0</ele><time>2026-04-11T08:29:16.002Z</time></trkpt><trkpt lat="44.854105" lon="9.3509667"><ele>670.3333333333334</ele><time>2026-04-11T08:29:17.001Z</time></trkpt><trkpt lat="44.8541867" lon="9.3510133"><ele>668.6666666666667</ele><time>2026-04-11T08:29:18.003Z</time></trkpt><trkpt lat="44.8542633" lon="9.3510617"><ele>667.0</ele><time>2026-04-11T08:29:19.001Z</time></trkpt><trkpt lat="44.8543433" lon="9.351115"><ele>667.0</ele><time>2026-04-11T08:29:20.002Z</time></trkpt><trkpt lat="44.8544267" lon="9.35117"><ele>667.0</ele><time>2026-04-11T08:29:21.003Z</time></trkpt><trkpt lat="44.8545067" lon="9.3512183"><ele>667.0</ele><time>2026-04-11T08:29:22.003Z</time></trkpt><trkpt lat="44.8545717" lon="9.35127"><ele>667.0</ele><time>2026-04-11T08:29:23.002Z</time></trkpt><trkpt lat="44.8546683" lon="9.35135"><ele>667.0</ele><time>2026-04-11T08:29:25.003Z</time></trkpt><trkpt lat="44.8546967" lon="9.351445"><ele>667.0</ele><time>2026-04-11T08:29:28.001Z</time></trkpt><trkpt lat="44.8546967" lon="9.3515383"><ele>664.2</ele><time>2026-04-11T08:29:30.002Z</time></trkpt><trkpt lat="44.8546967" lon="9.3516533"><ele>661.4000000000001</ele><time>2026-04-11T08:29:32.001Z</time></trkpt><trkpt lat="44.8547" lon="9.35179"><ele>658.5999999999999</ele><time>2026-04-11T08:29:34.002Z</time></trkpt><trkpt lat="44.8547283" lon="9.3519317"><ele>655.8</ele><time>2026-04-11T08:29:36.002Z</time></trkpt><trkpt lat="44.8548" lon="9.3520183"><ele>653.0</ele><time>2026-04-11T08:29:38.002Z</time></trkpt><trkpt lat="44.854905" lon="9.35208"><ele>653.0</ele><time>2026-04-11T08:29:40.003Z</time></trkpt><trkpt lat="44.8549867" lon="9.3521417"><ele>653.0</ele><time>2026-04-11T08:29:42.001Z</time></trkpt><trkpt lat="44.8550933" lon="9.3521617"><ele>653.0</ele><time>2026-04-11T08:29:44.002Z</time></trkpt><trkpt lat="44.85518" lon="9.35217"><ele>653.0</ele><time>2026-04-11T08:29:46.001Z</time></trkpt><trkpt lat="44.85525" lon="9.3521933"><ele>653.0</ele><time>2026-04-11T08:29:48.002Z</time></trkpt><trkpt lat="44.8553383" lon="9.3522233"><ele>651.2</ele><time>2026-04-11T08:29:50.006Z</time></trkpt><trkpt lat="44.8554383" lon="9.3522083"><ele>649.4</ele><time>2026-04-11T08:29:52.003Z</time></trkpt><trkpt lat="44.855545" lon="9.352185"><ele>647.6</ele><time>2026-04-11T08:29:54.002Z</time></trkpt><trkpt lat="44.855665" lon="9.3522517"><ele>645.8000000000001</ele><time>2026-04-11T08:29:56.001Z</time></trkpt><trkpt lat="44.8557283" lon="9.3523083"><ele>644.0</ele><time>2026-04-11T08:29:57.001Z</time></trkpt><trkpt lat="44.8557967" lon="9.3523733"><ele>644.0</ele><time>2026-04-11T08:29:58.002Z</time></trkpt><trkpt lat="44.85588" lon="9.3524367"><ele>644.0</ele><time>2026-04-11T08:29:59.002Z</time></trkpt><trkpt lat="44.8559667" lon="9.3524833"><ele>644.0</ele><time>2026-04-11T08:30:00.002Z</time></trkpt><trkpt lat="44.8560617" lon="9.3525067"><ele>644.0</ele><time>2026-04-11T08:30:01.002Z</time></trkpt><trkpt lat="44.856165" lon="9.3525117"><ele>644.0</ele><time>2026-04-11T08:30:02.005Z</time></trkpt><trkpt lat="44.8562617" lon="9.35251"><ele>646.1666666666666</ele><time>2026-04-11T08:30:03.004Z</time></trkpt><trkpt lat="44.8563417" lon="9.3525033"><ele>648.3333333333333</ele><time>2026-04-11T08:30:04.003Z</time></trkpt><trkpt lat="44.8564117" lon="9.3525083"><ele>650.5</ele><time>2026-04-11T08:30:05.002Z</time></trkpt><trkpt lat="44.856475" lon="9.35252"><ele>652.6666666666666</ele><time>2026-04-11T08:30:06.002Z</time></trkpt><trkpt lat="44.856585" lon="9.3525483"><ele>654.8333333333334</ele><time>2026-04-11T08:30:08.002Z</time></trkpt><trkpt lat="44.8566917" lon="9.3525533"><ele>657.0</ele><time>2026-04-11T08:30:10.002Z</time></trkpt><trkpt lat="44.856795" lon="9.3525533"><ele>658.3333333333334</ele><time>2026-04-11T08:30:12.002Z</time></trkpt><trkpt lat="44.85689" lon="9.3525883"><ele>659.6666666666666</ele><time>2026-04-11T08:30:14.002Z</time></trkpt><trkpt lat="44.8569717" lon="9.3525967"><ele>661.0</ele><time>2026-04-11T08:30:16.001Z</time></trkpt><trkpt lat="44.85702" lon="9.3525333"><ele>662.3333333333333</ele><time>2026-04-11T08:30:18.002Z</time></trkpt><trkpt lat="44.85698" lon="9.3524467"><ele>663.6666666666666</ele><time>2026-04-11T08:30:20.001Z</time></trkpt><trkpt lat="44.8569283" lon="9.3523733"><ele>665.0</ele><time>2026-04-11T08:30:21.002Z</time></trkpt><trkpt lat="44.8568733" lon="9.3522967"><ele>665.0</ele><time>2026-04-11T08:30:22.002Z</time></trkpt><trkpt lat="44.8568083" lon="9.352225"><ele>665.0</ele><time>2026-04-11T08:30:23.002Z</time></trkpt><trkpt lat="44.8567383" lon="9.3521567"><ele>665.0</ele><time>2026-04-11T08:30:24.001Z</time></trkpt><trkpt lat="44.8566617" lon="9.3520817"><ele>665.0</ele><time>2026-04-11T08:30:25.001Z</time></trkpt><trkpt lat="44.85659" lon="9.3520033"><ele>665.0</ele><time>2026-04-11T08:30:26.002Z</time></trkpt><trkpt lat="44.8565283" lon="9.35193"><ele>665.0</ele><time>2026-04-11T08:30:27.002Z</time></trkpt><trkpt lat="44.8564633" lon="9.3518533"><ele>666.3333333333333</ele><time>2026-04-11T08:30:28.004Z</time></trkpt><trkpt lat="44.856395" lon="9.3517633"><ele>667.6666666666666</ele><time>2026-04-11T08:30:29.002Z</time></trkpt><trkpt lat="44.8563283" lon="9.3516717"><ele>669.0</ele><time>2026-04-11T08:30:30.004Z</time></trkpt><trkpt lat="44.85627" lon="9.3515833"><ele>670.3333333333334</ele><time>2026-04-11T08:30:31.002Z</time></trkpt><trkpt lat="44.85622" lon="9.3514933"><ele>671.6666666666667</ele><time>2026-04-11T08:30:32.004Z</time></trkpt><trkpt lat="44.8561733" lon="9.3514033"><ele>673.0</ele><time>2026-04-11T08:30:33.002Z</time></trkpt><trkpt lat="44.8561417" lon="9.35132"><ele>677.8</ele><time>2026-04-11T08:30:34.001Z</time></trkpt><trkpt lat="44.8561283" lon="9.3512033"><ele>682.5999999999999</ele><time>2026-04-11T08:30:36.002Z</time></trkpt><trkpt lat="44.85619" lon="9.3511683"><ele>687.4000000000001</ele><time>2026-04-11T08:30:38.002Z</time></trkpt><trkpt lat="44.8563167" lon="9.3512283"><ele>692.2</ele><time>2026-04-11T08:30:40.003Z</time></trkpt><trkpt lat="44.8564017" lon="9.3512783"><ele>697.0</ele><time>2026-04-11T08:30:41.001Z</time></trkpt><trkpt lat="44.8565167" lon="9.351355"><ele>694.0</ele><time>2026-04-11T08:30:43.002Z</time></trkpt><trkpt lat="44.8565783" lon="9.3514133"><ele>691.0</ele><time>2026-04-11T08:30:44.001Z</time></trkpt><trkpt lat="44.85664" lon="9.35149"><ele>688.0</ele><time>2026-04-11T08:30:45.001Z</time></trkpt><trkpt lat="44.8567067" lon="9.3515717"><ele>685.0</ele><time>2026-04-11T08:30:46.001Z</time></trkpt><trkpt lat="44.8567817" lon="9.3516483"><ele>682.0</ele><time>2026-04-11T08:30:47.001Z</time></trkpt><trkpt lat="44.8568683" lon="9.3517117"><ele>679.0</ele><time>2026-04-11T08:30:48.002Z</time></trkpt><trkpt lat="44.8569617" lon="9.35176"><ele>679.0</ele><time>2026-04-11T08:30:49.001Z</time></trkpt><trkpt lat="44.857055" lon="9.3518067"><ele>679.0</ele><time>2026-04-11T08:30:50Z</time></trkpt><trkpt lat="44.8571433" lon="9.3518617"><ele>679.0</ele><time>2026-04-11T08:30:51.001Z</time></trkpt><trkpt lat="44.857225" lon="9.35192"><ele>679.0</ele><time>2026-04-11T08:30:52Z</time></trkpt><trkpt lat="44.8573033" lon="9.3519733"><ele>679.0</ele><time>2026-04-11T08:30:53.002Z</time></trkpt><trkpt lat="44.85738" lon="9.352015"><ele>679.0</ele><time>2026-04-11T08:30:54.001Z</time></trkpt><trkpt lat="44.85746" lon="9.35205"><ele>679.0</ele><time>2026-04-11T08:30:55.002Z</time></trkpt><trkpt lat="44.85755" lon="9.352065"><ele>679.0</ele><time>2026-04-11T08:30:56.002Z</time></trkpt><trkpt lat="44.857645" lon="9.35205"><ele>679.0</ele><time>2026-04-11T08:30:57.002Z</time></trkpt><trkpt lat="44.8577433" lon="9.35202"><ele>679.0</ele><time>2026-04-11T08:30:58.003Z</time></trkpt><trkpt lat="44.8578467" lon="9.3519717"><ele>676.0</ele><time>2026-04-11T08:30:59.003Z</time></trkpt><trkpt lat="44.8579483" lon="9.3519133"><ele>673.0</ele><time>2026-04-11T08:31:00.002Z</time></trkpt><trkpt lat="44.8580433" lon="9.35185"><ele>670.0</ele><time>2026-04-11T08:31:01.002Z</time></trkpt><trkpt lat="44.8581333" lon="9.3517817"><ele>667.0</ele><time>2026-04-11T08:31:02.004Z</time></trkpt><trkpt lat="44.8582183" lon="9.3517167"><ele>664.0</ele><time>2026-04-11T08:31:03.003Z</time></trkpt><trkpt lat="44.8583033" lon="9.3516583"><ele>664.0</ele><time>2026-04-11T08:31:04.003Z</time></trkpt><trkpt lat="44.8583933" lon="9.351615"><ele>664.0</ele><time>2026-04-11T08:31:05.002Z</time></trkpt><trkpt lat="44.8584917" lon="9.35159"><ele>664.0</ele><time>2026-04-11T08:31:06.002Z</time></trkpt><trkpt lat="44.8586017" lon="9.3515733"><ele>664.0</ele><time>2026-04-11T08:31:07.003Z</time></trkpt><trkpt lat="44.8587183" lon="9.351555"><ele>664.0</ele><time>2026-04-11T08:31:08.002Z</time></trkpt><trkpt lat="44.85884" lon="9.3515283"><ele>664.5</ele><time>2026-04-11T08:31:09.004Z</time></trkpt><trkpt lat="44.8589567" lon="9.3514883"><ele>665.0</ele><time>2026-04-11T08:31:10.003Z</time></trkpt><trkpt lat="44.8590717" lon="9.351435"><ele>665.5</ele><time>2026-04-11T08:31:11.001Z</time></trkpt><trkpt lat="44.8591867" lon="9.351365"><ele>666.0</ele><time>2026-04-11T08:31:12.002Z</time></trkpt><trkpt lat="44.8593067" lon="9.3512767"><ele>666.0</ele><time>2026-04-11T08:31:13.001Z</time></trkpt><trkpt lat="44.859435" lon="9.3511683"><ele>666.0</ele><time>2026-04-11T08:31:14.002Z</time></trkpt><trkpt lat="44.8595617" lon="9.3510717"><ele>666.0</ele><time>2026-04-11T08:31:15.001Z</time></trkpt><trkpt lat="44.8596833" lon="9.3510067"><ele>666.0</ele><time>2026-04-11T08:31:16.001Z</time></trkpt><trkpt lat="44.8598033" lon="9.3509917"><ele>666.0</ele><time>2026-04-11T08:31:17.001Z</time></trkpt><trkpt lat="44.859915" lon="9.3510033"><ele>666.0</ele><time>2026-04-11T08:31:18.002Z</time></trkpt><trkpt lat="44.8600233" lon="9.35099"><ele>666.0</ele><time>2026-04-11T08:31:19.001Z</time></trkpt><trkpt lat="44.860135" lon="9.3509483"><ele>666.0</ele><time>2026-04-11T08:31:20.002Z</time></trkpt><trkpt lat="44.8602533" lon="9.3508833"><ele>664.0</ele><time>2026-04-11T08:31:21.003Z</time></trkpt><trkpt lat="44.86039" lon="9.3508217"><ele>662.0</ele><time>2026-04-11T08:31:22.001Z</time></trkpt><trkpt lat="44.8605317" lon="9.3507633"><ele>660.0</ele><time>2026-04-11T08:31:23.001Z</time></trkpt><trkpt lat="44.8606767" lon="9.350705"><ele>658.0</ele><time>2026-04-11T08:31:24.002Z</time></trkpt><trkpt lat="44.86082" lon="9.35064"><ele>658.0</ele><time>2026-04-11T08:31:25.002Z</time></trkpt><trkpt lat="44.8609467" lon="9.3505633"><ele>658.0</ele><time>2026-04-11T08:31:26.001Z</time></trkpt><trkpt lat="44.86106" lon="9.35048"><ele>658.0</ele><time>2026-04-11T08:31:27.003Z</time></trkpt><trkpt lat="44.8611583" lon="9.35041"><ele>658.0</ele><time>2026-04-11T08:31:28.003Z</time></trkpt><trkpt lat="44.861235" lon="9.3503717"><ele>656.8</ele><time>2026-04-11T08:31:29.001Z</time></trkpt><trkpt lat="44.861315" lon="9.350385"><ele>655.5999999999999</ele><time>2026-04-11T08:31:30.002Z</time></trkpt><trkpt lat="44.8613983" lon="9.3504417"><ele>654.4000000000001</ele><time>2026-04-11T08:31:31.002Z</time></trkpt><trkpt lat="44.86149" lon="9.35052"><ele>653.2</ele><time>2026-04-11T08:31:32.003Z</time></trkpt><trkpt lat="44.8615733" lon="9.3505783"><ele>652.0</ele><time>2026-04-11T08:31:33.003Z</time></trkpt><trkpt lat="44.8616667" lon="9.3505967"><ele>652.0</ele><time>2026-04-11T08:31:34.002Z</time></trkpt><trkpt lat="44.861765" lon="9.35057"><ele>652.0</ele><time>2026-04-11T08:31:35.004Z</time></trkpt><trkpt lat="44.8618633" lon="9.3504883"><ele>652.0</ele><time>2026-04-11T08:31:36.003Z</time></trkpt><trkpt lat="44.8619717" lon="9.3503817"><ele>652.0</ele><time>2026-04-11T08:31:37.002Z</time></trkpt><trkpt lat="44.862085" lon="9.3502833"><ele>654.0</ele><time>2026-04-11T08:31:38.003Z</time></trkpt><trkpt lat="44.8622067" lon="9.3502167"><ele>656.0</ele><time>2026-04-11T08:31:39.003Z</time></trkpt><trkpt lat="44.8623367" lon="9.35017"><ele>658.0</ele><time>2026-04-11T08:31:40.002Z</time></trkpt><trkpt lat="44.8624667" lon="9.3501483"><ele>660.0</ele><time>2026-04-11T08:31:41.002Z</time></trkpt><trkpt lat="44.8625917" lon="9.350135"><ele>656.25</ele><time>2026-04-11T08:31:42.003Z</time></trkpt><trkpt lat="44.8627017" lon="9.350095"><ele>652.5</ele><time>2026-04-11T08:31:43.002Z</time></trkpt><trkpt lat="44.8628067" lon="9.350015"><ele>648.75</ele><time>2026-04-11T08:31:44.003Z</time></trkpt><trkpt lat="44.8629167" lon="9.3499183"><ele>645.0</ele><time>2026-04-11T08:31:45.002Z</time></trkpt><trkpt lat="44.8630233" lon="9.349835"><ele>645.0</ele><time>2026-04-11T08:31:46.001Z</time></trkpt><trkpt lat="44.8631333" lon="9.3497617"><ele>645.0</ele><time>2026-04-11T08:31:47.001Z</time></trkpt><trkpt lat="44.863235" lon="9.349695"><ele>645.0</ele><time>2026-04-11T08:31:48.002Z</time></trkpt><trkpt lat="44.8633333" lon="9.3496367"><ele>645.0</ele><time>2026-04-11T08:31:49.002Z</time></trkpt><trkpt lat="44.8634317" lon="9.3496"><ele>645.0</ele><time>2026-04-11T08:31:50.002Z</time></trkpt><trkpt lat="44.8635317" lon="9.349585"><ele>647.0</ele><time>2026-04-11T08:31:51.002Z</time></trkpt><trkpt lat="44.86362" lon="9.3495717"><ele>649.0</ele><time>2026-04-11T08:31:52.002Z</time></trkpt><trkpt lat="44.8636983" lon="9.3495317"><ele>651.0</ele><time>2026-04-11T08:31:53.001Z</time></trkpt><trkpt lat="44.8637683" lon="9.349485"><ele>653.0</ele><time>2026-04-11T08:31:54.003Z</time></trkpt><trkpt lat="44.8638283" lon="9.3494433"><ele>655.0</ele><time>2026-04-11T08:31:55.002Z</time></trkpt><trkpt lat="44.8639217" lon="9.349395"><ele>657.0</ele><time>2026-04-11T08:31:57.002Z</time></trkpt><trkpt lat="44.864005" lon="9.3492933"><ele>657.0</ele><time>2026-04-11T08:31:59.001Z</time></trkpt><trkpt lat="44.8641083" lon="9.34917"><ele>657.0</ele><time>2026-04-11T08:32:01.001Z</time></trkpt><trkpt lat="44.8641817" lon="9.3491217"><ele>657.0</ele><time>2026-04-11T08:32:02.002Z</time></trkpt><trkpt lat="44.86426" lon="9.3490817"><ele>657.0</ele><time>2026-04-11T08:32:03.003Z</time></trkpt><trkpt lat="44.8643317" lon="9.3490483"><ele>657.0</ele><time>2026-04-11T08:32:04.001Z</time></trkpt><trkpt lat="44.8643967" lon="9.3490133"><ele>657.0</ele><time>2026-04-11T08:32:05.001Z</time></trkpt><trkpt lat="44.8644583" lon="9.3489567"><ele>658.8333333333334</ele><time>2026-04-11T08:32:06.001Z</time></trkpt><trkpt lat="44.8645183" lon="9.348885"><ele>660.6666666666666</ele><time>2026-04-11T08:32:07.002Z</time></trkpt><trkpt lat="44.8645733" lon="9.3487983"><ele>662.5</ele><time>2026-04-11T08:32:08.002Z</time></trkpt><trkpt lat="44.86462" lon="9.3486983"><ele>664.3333333333333</ele><time>2026-04-11T08:32:09.002Z</time></trkpt><trkpt lat="44.8646633" lon="9.3485833"><ele>666.1666666666666</ele><time>2026-04-11T08:32:10.002Z</time></trkpt><trkpt lat="44.8647017" lon="9.3484667"><ele>668.0</ele><time>2026-04-11T08:32:11.002Z</time></trkpt><trkpt lat="44.8647367" lon="9.34836"><ele>669.6666666666666</ele><time>2026-04-11T08:32:12.002Z</time></trkpt><trkpt lat="44.86476" lon="9.3482533"><ele>671.3333333333333</ele><time>2026-04-11T08:32:13.002Z</time></trkpt><trkpt lat="44.864765" lon="9.3481583"><ele>673.0</ele><time>2026-04-11T08:32:14.002Z</time></trkpt><trkpt lat="44.8647433" lon="9.3479967"><ele>674.6666666666666</ele><time>2026-04-11T08:32:16.002Z</time></trkpt><trkpt lat="44.8647267" lon="9.347885"><ele>676.3333333333334</ele><time>2026-04-11T08:32:18.002Z</time></trkpt><trkpt lat="44.8647983" lon="9.3478517"><ele>678.0</ele><time>2026-04-11T08:32:21.002Z</time></trkpt><trkpt lat="44.8649017" lon="9.3478333"><ele>681.4</ele><time>2026-04-11T08:32:23.002Z</time></trkpt><trkpt lat="44.8649633" lon="9.34781"><ele>684.8</ele><time>2026-04-11T08:32:24.003Z</time></trkpt><trkpt lat="44.8650283" lon="9.3477783"><ele>688.2</ele><time>2026-04-11T08:32:25.003Z</time></trkpt><trkpt lat="44.8651283" lon="9.347755"><ele>691.6</ele><time>2026-04-11T08:32:27.002Z</time></trkpt><trkpt lat="44.8652233" lon="9.3478183"><ele>695.0</ele><time>2026-04-11T08:32:29.002Z</time></trkpt><trkpt lat="44.865315" lon="9.3479333"><ele>694.4</ele><time>2026-04-11T08:32:31.003Z</time></trkpt><trkpt lat="44.8654083" lon="9.34804"><ele>693.8</ele><time>2026-04-11T08:32:33.003Z</time></trkpt><trkpt lat="44.8655117" lon="9.348065"><ele>693.2</ele><time>2026-04-11T08:32:35.001Z</time></trkpt><trkpt lat="44.8656317" lon="9.3480833"><ele>692.6</ele><time>2026-04-11T08:32:37.002Z</time></trkpt><trkpt lat="44.8657167" lon="9.3481417"><ele>692.0</ele><time>2026-04-11T08:32:39.002Z</time></trkpt><trkpt lat="44.8657633" lon="9.348055"><ele>694.0</ele><time>2026-04-11T08:32:43.002Z</time></trkpt><trkpt lat="44.8658183" lon="9.3480017"><ele>696.0</ele><time>2026-04-11T08:32:45.001Z</time></trkpt><trkpt lat="44.8659233" lon="9.3479467"><ele>698.0</ele><time>2026-04-11T08:32:47.001Z</time></trkpt><trkpt lat="44.86603" lon="9.347885"><ele>700.0</ele><time>2026-04-11T08:32:49.003Z</time></trkpt><trkpt lat="44.8660817" lon="9.3478267"><ele>702.0</ele><time>2026-04-11T08:32:50.002Z</time></trkpt><trkpt lat="44.8661317" lon="9.347755"><ele>704.0</ele><time>2026-04-11T08:32:51.001Z</time></trkpt><trkpt lat="44.86618" lon="9.3476733"><ele>705.3333333333333</ele><time>2026-04-11T08:32:52.001Z</time></trkpt><trkpt lat="44.8662233" lon="9.3475867"><ele>706.6666666666666</ele><time>2026-04-11T08:32:53.001Z</time></trkpt><trkpt lat="44.8662633" lon="9.347485"><ele>708.0</ele><time>2026-04-11T08:32:54.001Z</time></trkpt><trkpt lat="44.8663083" lon="9.3473833"><ele>709.3333333333334</ele><time>2026-04-11T08:32:55.001Z</time></trkpt><trkpt lat="44.86635" lon="9.3472883"><ele>710.6666666666667</ele><time>2026-04-11T08:32:56.002Z</time></trkpt><trkpt lat="44.8663933" lon="9.3472083"><ele>712.0</ele><time>2026-04-11T08:32:57.001Z</time></trkpt><trkpt lat="44.866445" lon="9.3470783"><ele>714.6</ele><time>2026-04-11T08:32:59.002Z</time></trkpt><trkpt lat="44.8664833" lon="9.3469517"><ele>717.2</ele><time>2026-04-11T08:33:01.004Z</time></trkpt><trkpt lat="44.8665217" lon="9.346795"><ele>719.8</ele><time>2026-04-11T08:33:03.003Z</time></trkpt><trkpt lat="44.8665521" lon="9.346715"><ele>722.4</ele><time>2026-04-11T08:33:04.002Z</time></trkpt><trkpt lat="44.8666267" lon="9.3465804"><ele>725.0</ele><time>2026-04-11T08:33:06.002Z</time></trkpt><trkpt lat="44.8666753" lon="9.3464361"><ele>727.0</ele><time>2026-04-11T08:33:08.003Z</time></trkpt><trkpt lat="44.8666862" lon="9.3463423"><ele>729.0</ele><time>2026-04-11T08:33:09.004Z</time></trkpt><trkpt lat="44.8666925" lon="9.346231"><ele>731.0</ele><time>2026-04-11T08:33:10.002Z</time></trkpt><trkpt lat="44.8666981" lon="9.3461226"><ele>733.0</ele><time>2026-04-11T08:33:11.001Z</time></trkpt><trkpt lat="44.8666963" lon="9.3460271"><ele>735.0</ele><time>2026-04-11T08:33:12.002Z</time></trkpt><trkpt lat="44.8666606" lon="9.3458825"><ele>737.0</ele><time>2026-04-11T08:33:14.004Z</time></trkpt><trkpt lat="44.8665791" lon="9.3457865"><ele>737.0</ele><time>2026-04-11T08:33:16.001Z</time></trkpt><trkpt lat="44.8665282" lon="9.3456823"><ele>737.0</ele><time>2026-04-11T08:33:18.001Z</time></trkpt><trkpt lat="44.8665645" lon="9.3455665"><ele>737.0</ele><time>2026-04-11T08:33:20.002Z</time></trkpt><trkpt lat="44.8666115" lon="9.345491"><ele>737.0</ele><time>2026-04-11T08:33:21.003Z</time></trkpt><trkpt lat="44.8666639" lon="9.3454062"><ele>737.0</ele><time>2026-04-11T08:33:22.003Z</time></trkpt><trkpt lat="44.8667008" lon="9.3453075"><ele>737.0</ele><time>2026-04-11T08:33:23.001Z</time></trkpt><trkpt lat="44.8667314" lon="9.3452069"><ele>739.3333333333333</ele><time>2026-04-11T08:33:24.001Z</time></trkpt><trkpt lat="44.8667503" lon="9.3451084"><ele>741.6666666666666</ele><time>2026-04-11T08:33:25.002Z</time></trkpt><trkpt lat="44.8667692" lon="9.3449561"><ele>744.0</ele><time>2026-04-11T08:33:27.003Z</time></trkpt><trkpt lat="44.8667673" lon="9.3448373"><ele>746.3333333333334</ele><time>2026-04-11T08:33:29.001Z</time></trkpt><trkpt lat="44.8667632" lon="9.3447213"><ele>748.6666666666667</ele><time>2026-04-11T08:33:31.001Z</time></trkpt><trkpt lat="44.866736" lon="9.3446305"><ele>751.0</ele><time>2026-04-11T08:33:33.004Z</time></trkpt><trkpt lat="44.8666401" lon="9.3446089"><ele>751.0</ele><time>2026-04-11T08:33:35.002Z</time></trkpt><trkpt lat="44.8665164" lon="9.3446287"><ele>751.0</ele><time>2026-04-11T08:33:37.003Z</time></trkpt><trkpt lat="44.8664051" lon="9.3447034"><ele>751.0</ele><time>2026-04-11T08:33:39.003Z</time></trkpt><trkpt lat="44.8662868" lon="9.3447575"><ele>751.0</ele><time>2026-04-11T08:33:41.001Z</time></trkpt><trkpt lat="44.8662206" lon="9.3447483"><ele>751.0</ele><time>2026-04-11T08:33:42.001Z</time></trkpt><trkpt lat="44.8661402" lon="9.3447093"><ele>753.0</ele><time>2026-04-11T08:33:43.002Z</time></trkpt><trkpt lat="44.866044" lon="9.3446535"><ele>755.0</ele><time>2026-04-11T08:33:44.002Z</time></trkpt><trkpt lat="44.8659488" lon="9.344585"><ele>757.0</ele><time>2026-04-11T08:33:45.001Z</time></trkpt><trkpt lat="44.8658646" lon="9.3445168"><ele>759.0</ele><time>2026-04-11T08:33:46.002Z</time></trkpt><trkpt lat="44.8657848" lon="9.3444493"><ele>761.0</ele><time>2026-04-11T08:33:47.001Z</time></trkpt><trkpt lat="44.8657095" lon="9.3443901"><ele>761.0</ele><time>2026-04-11T08:33:48.001Z</time></trkpt><trkpt lat="44.8656281" lon="9.3443448"><ele>761.0</ele><time>2026-04-11T08:33:49.001Z</time></trkpt><trkpt lat="44.86553" lon="9.344325"><ele>761.0</ele><time>2026-04-11T08:33:50.001Z</time></trkpt><trkpt lat="44.86542" lon="9.34433"><ele>761.0</ele><time>2026-04-11T08:33:51.001Z</time></trkpt><trkpt lat="44.8653033" lon="9.3443467"><ele>761.0</ele><time>2026-04-11T08:33:52.001Z</time></trkpt><trkpt lat="44.8651983" lon="9.34436"><ele>761.0</ele><time>2026-04-11T08:33:53.001Z</time></trkpt><trkpt lat="44.8651133" lon="9.3443617"><ele>761.0</ele><time>2026-04-11T08:33:54.093Z</time></trkpt><trkpt lat="44.865045" lon="9.34436"><ele>761.0</ele><time>2026-04-11T08:33:55.005Z</time></trkpt><trkpt lat="44.8649767" lon="9.344305"><ele>761.0</ele><time>2026-04-11T08:33:57.003Z</time></trkpt><trkpt lat="44.8649633" lon="9.3441683"><ele>761.0</ele><time>2026-04-11T08:33:59.001Z</time></trkpt><trkpt lat="44.864965" lon="9.3440217"><ele>761.0</ele><time>2026-04-11T08:34:01.005Z</time></trkpt><trkpt lat="44.864965" lon="9.343845"><ele>763.8</ele><time>2026-04-11T08:34:03.002Z</time></trkpt><trkpt lat="44.8649517" lon="9.3437467"><ele>766.5999999999999</ele><time>2026-04-11T08:34:04.001Z</time></trkpt><trkpt lat="44.86492" lon="9.343655"><ele>769.4</ele><time>2026-04-11T08:34:05.073Z</time></trkpt><trkpt lat="44.8648683" lon="9.3435583"><ele>772.2</ele><time>2026-04-11T08:34:06.002Z</time></trkpt><trkpt lat="44.8648017" lon="9.3434467"><ele>775.0</ele><time>2026-04-11T08:34:07.002Z</time></trkpt><trkpt lat="44.86471" lon="9.3433017"><ele>775.0</ele><time>2026-04-11T08:34:08.002Z</time></trkpt><trkpt lat="44.8646217" lon="9.34314"><ele>775.0</ele><time>2026-04-11T08:34:09.003Z</time></trkpt><trkpt lat="44.86453" lon="9.3429817"><ele>775.0</ele><time>2026-04-11T08:34:10.002Z</time></trkpt><trkpt lat="44.8644467" lon="9.3428483"><ele>775.0</ele><time>2026-04-11T08:34:11.001Z</time></trkpt><trkpt lat="44.8643633" lon="9.342745"><ele>775.3333333333333</ele><time>2026-04-11T08:34:12.001Z</time></trkpt><trkpt lat="44.8642767" lon="9.3426817"><ele>775.6666666666666</ele><time>2026-04-11T08:34:13.002Z</time></trkpt><trkpt lat="44.8641867" lon="9.34266"><ele>776.0</ele><time>2026-04-11T08:34:14.001Z</time></trkpt><trkpt lat="44.86411" lon="9.34262"><ele>776.3333333333333</ele><time>2026-04-11T08:34:15.003Z</time></trkpt><trkpt lat="44.8640433" lon="9.342565"><ele>776.6666666666666</ele><time>2026-04-11T08:34:16.002Z</time></trkpt><trkpt lat="44.864005" lon="9.3424867"><ele>777.0</ele><time>2026-04-11T08:34:17.002Z</time></trkpt><trkpt lat="44.8639833" lon="9.34239"><ele>777.0</ele><time>2026-04-11T08:34:18.002Z</time></trkpt><trkpt lat="44.863985" lon="9.3422933"><ele>777.0</ele><time>2026-04-11T08:34:19.002Z</time></trkpt><trkpt lat="44.8639883" lon="9.3421917"><ele>777.0</ele><time>2026-04-11T08:34:21.001Z</time></trkpt><trkpt lat="44.8640467" lon="9.342155"><ele>777.0</ele><time>2026-04-11T08:34:28.002Z</time></trkpt><trkpt lat="44.8641433" lon="9.342165"><ele>777.0</ele><time>2026-04-11T08:34:30.002Z</time></trkpt><trkpt lat="44.8642067" lon="9.3421633"><ele>777.0</ele><time>2026-04-11T08:34:31.002Z</time></trkpt><trkpt lat="44.86428" lon="9.3421683"><ele>777.0</ele><time>2026-04-11T08:34:32.002Z</time></trkpt><trkpt lat="44.8643617" lon="9.3421733"><ele>778.4000000000001</ele><time>2026-04-11T08:34:33.002Z</time></trkpt><trkpt lat="44.8644517" lon="9.34218"><ele>779.8000000000001</ele><time>2026-04-11T08:34:34.001Z</time></trkpt><trkpt lat="44.864555" lon="9.3421917"><ele>781.2</ele><time>2026-04-11T08:34:35.003Z</time></trkpt><trkpt lat="44.8646567" lon="9.3421967"><ele>782.6</ele><time>2026-04-11T08:34:36.002Z</time></trkpt><trkpt lat="44.8647517" lon="9.3422117"><ele>784.0</ele><time>2026-04-11T08:34:37.003Z</time></trkpt><trkpt lat="44.864845" lon="9.3422317"><ele>783.9999999999999</ele><time>2026-04-11T08:34:38.001Z</time></trkpt><trkpt lat="44.8649267" lon="9.3422483"><ele>784.0</ele><time>2026-04-11T08:34:39.003Z</time></trkpt><trkpt lat="44.8650167" lon="9.3422733"><ele>784.0</ele><time>2026-04-11T08:34:40.003Z</time></trkpt><trkpt lat="44.8650917" lon="9.3423083"><ele>784.0</ele><time>2026-04-11T08:34:41.004Z</time></trkpt><trkpt lat="44.86517" lon="9.3423483"><ele>783.9999999999999</ele><time>2026-04-11T08:34:42.003Z</time></trkpt><trkpt lat="44.8652467" lon="9.3423983"><ele>784.0</ele><time>2026-04-11T08:34:43.003Z</time></trkpt><trkpt lat="44.865325" lon="9.3424517"><ele>783.9999999999999</ele><time>2026-04-11T08:34:44.002Z</time></trkpt><trkpt lat="44.8654067" lon="9.342495"><ele>784.0</ele><time>2026-04-11T08:34:45.002Z</time></trkpt><trkpt lat="44.8654767" lon="9.342545"><ele>784.0</ele><time>2026-04-11T08:34:46.002Z</time></trkpt><trkpt lat="44.8655517" lon="9.3425833"><ele>784.0</ele><time>2026-04-11T08:34:47.001Z</time></trkpt><trkpt lat="44.8656317" lon="9.3426167"><ele>783.9999999999999</ele><time>2026-04-11T08:34:48.001Z</time></trkpt><trkpt lat="44.8657183" lon="9.342645"><ele>784.0</ele><time>2026-04-11T08:34:49.003Z</time></trkpt><trkpt lat="44.86581" lon="9.34266"><ele>783.9999999999999</ele><time>2026-04-11T08:34:50.003Z</time></trkpt><trkpt lat="44.8658933" lon="9.34265"><ele>784.0</ele><time>2026-04-11T08:34:51.005Z</time></trkpt><trkpt lat="44.8659817" lon="9.3426333"><ele>784.0</ele><time>2026-04-11T08:34:52.002Z</time></trkpt><trkpt lat="44.866075" lon="9.342635"><ele>784.0</ele><time>2026-04-11T08:34:53.002Z</time></trkpt><trkpt lat="44.8661617" lon="9.34265"><ele>783.9999999999999</ele><time>2026-04-11T08:34:54.002Z</time></trkpt><trkpt lat="44.8662417" lon="9.3426733"><ele>784.0</ele><time>2026-04-11T08:34:55.002Z</time></trkpt><trkpt lat="44.8663167" lon="9.3426983"><ele>783.2</ele><time>2026-04-11T08:34:56.001Z</time></trkpt><trkpt lat="44.8663983" lon="9.3426983"><ele>782.4000000000001</ele><time>2026-04-11T08:34:57.004Z</time></trkpt><trkpt lat="44.8664783" lon="9.3426917"><ele>781.6</ele><time>2026-04-11T08:34:58.002Z</time></trkpt><trkpt lat="44.86657" lon="9.3426917"><ele>780.8</ele><time>2026-04-11T08:34:59.001Z</time></trkpt><trkpt lat="44.8666683" lon="9.3427117"><ele>780.0</ele><time>2026-04-11T08:35:00.003Z</time></trkpt><trkpt lat="44.8667633" lon="9.3427417"><ele>780.8</ele><time>2026-04-11T08:35:01.001Z</time></trkpt><trkpt lat="44.86686" lon="9.3427667"><ele>781.6</ele><time>2026-04-11T08:35:02.003Z</time></trkpt><trkpt lat="44.8669517" lon="9.3427767"><ele>782.4000000000001</ele><time>2026-04-11T08:35:03.002Z</time></trkpt><trkpt lat="44.867045" lon="9.3427733"><ele>783.2</ele><time>2026-04-11T08:35:04.001Z</time></trkpt><trkpt lat="44.8671317" lon="9.3427583"><ele>784.0</ele><time>2026-04-11T08:35:05.003Z</time></trkpt><trkpt lat="44.867215" lon="9.342755"><ele>783.9999999999999</ele><time>2026-04-11T08:35:06.001Z</time></trkpt><trkpt lat="44.8672817" lon="9.3427717"><ele>784.0</ele><time>2026-04-11T08:35:07.002Z</time></trkpt><trkpt lat="44.8673433" lon="9.3428"><ele>784.0</ele><time>2026-04-11T08:35:08.003Z</time></trkpt><trkpt lat="44.8674217" lon="9.342855"><ele>784.0</ele><time>2026-04-11T08:35:10.001Z</time></trkpt><trkpt lat="44.8674733" lon="9.3427783"><ele>783.9999999999999</ele><time>2026-04-11T08:35:13.002Z</time></trkpt><trkpt lat="44.8674633" lon="9.3426383"><ele>784.0</ele><time>2026-04-11T08:35:15.006Z</time></trkpt><trkpt lat="44.86745" lon="9.342545"><ele>783.9999999999999</ele><time>2026-04-11T08:35:16.002Z</time></trkpt><trkpt lat="44.867435" lon="9.3424433"><ele>784.0</ele><time>2026-04-11T08:35:17.002Z</time></trkpt><trkpt lat="44.8674183" lon="9.34235"><ele>784.0</ele><time>2026-04-11T08:35:18.003Z</time></trkpt><trkpt lat="44.8674083" lon="9.34226"><ele>784.0</ele><time>2026-04-11T08:35:19.003Z</time></trkpt><trkpt lat="44.8674283" lon="9.3421333"><ele>783.9999999999999</ele><time>2026-04-11T08:35:21.003Z</time></trkpt><trkpt lat="44.867475" lon="9.3420483"><ele>784.0</ele><time>2026-04-11T08:35:23.001Z</time></trkpt><trkpt lat="44.8675333" lon="9.3419217"><ele>783.3333333333333</ele><time>2026-04-11T08:35:25.002Z</time></trkpt><trkpt lat="44.8675633" lon="9.34184"><ele>782.6666666666666</ele><time>2026-04-11T08:35:26.001Z</time></trkpt><trkpt lat="44.8675917" lon="9.3417417"><ele>782.0</ele><time>2026-04-11T08:35:27.002Z</time></trkpt><trkpt lat="44.8676183" lon="9.3416433"><ele>781.3333333333333</ele><time>2026-04-11T08:35:28.006Z</time></trkpt><trkpt lat="44.86764" lon="9.34154"><ele>780.6666666666666</ele><time>2026-04-11T08:35:29.002Z</time></trkpt><trkpt lat="44.8676483" lon="9.3414517"><ele>780.0</ele><time>2026-04-11T08:35:30.002Z</time></trkpt><trkpt lat="44.8676617" lon="9.3412933"><ele>783.4</ele><time>2026-04-11T08:35:32.002Z</time></trkpt><trkpt lat="44.8677017" lon="9.3412083"><ele>786.8</ele><time>2026-04-11T08:35:34.001Z</time></trkpt><trkpt lat="44.8677867" lon="9.3411867"><ele>790.2</ele><time>2026-04-11T08:35:36.002Z</time></trkpt><trkpt lat="44.86789" lon="9.34122"><ele>793.6</ele><time>2026-04-11T08:35:38.001Z</time></trkpt><trkpt lat="44.8679983" lon="9.3413033"><ele>797.0</ele><time>2026-04-11T08:35:40.002Z</time></trkpt><trkpt lat="44.8680817" lon="9.3413317"><ele>797.0000000000001</ele><time>2026-04-11T08:35:42.002Z</time></trkpt><trkpt lat="44.8681483" lon="9.3412933"><ele>797.0</ele><time>2026-04-11T08:35:44.001Z</time></trkpt><trkpt lat="44.8682183" lon="9.3412767"><ele>797.0</ele><time>2026-04-11T08:35:46.001Z</time></trkpt><trkpt lat="44.868285" lon="9.3412933"><ele>797.0</ele><time>2026-04-11T08:35:48.002Z</time></trkpt><trkpt lat="44.8683633" lon="9.341255"><ele>797.0000000000001</ele><time>2026-04-11T08:35:50.004Z</time></trkpt><trkpt lat="44.8684467" lon="9.3411283"><ele>797.0</ele><time>2026-04-11T08:35:52.003Z</time></trkpt><trkpt lat="44.8684867" lon="9.3410333"><ele>801.0</ele><time>2026-04-11T08:35:53.002Z</time></trkpt><trkpt lat="44.8685333" lon="9.3409367"><ele>805.0</ele><time>2026-04-11T08:35:54.003Z</time></trkpt><trkpt lat="44.8685767" lon="9.3408683"><ele>809.0</ele><time>2026-04-11T08:35:55.002Z</time></trkpt><trkpt lat="44.868695" lon="9.3408383"><ele>813.0</ele><time>2026-04-11T08:35:57.002Z</time></trkpt><trkpt lat="44.8688083" lon="9.3408233"><ele>817.0</ele><time>2026-04-11T08:35:59.002Z</time></trkpt><trkpt lat="44.8688767" lon="9.340835"><ele>816.9999999999999</ele><time>2026-04-11T08:36:00.001Z</time></trkpt><trkpt lat="44.8689583" lon="9.3408483"><ele>817.0</ele><time>2026-04-11T08:36:01.003Z</time></trkpt><trkpt lat="44.8690317" lon="9.3408533"><ele>817.0</ele><time>2026-04-11T08:36:02.001Z</time></trkpt><trkpt lat="44.8690983" lon="9.3408483"><ele>817.0</ele><time>2026-04-11T08:36:03.002Z</time></trkpt><trkpt lat="44.8691717" lon="9.340835"><ele>817.0</ele><time>2026-04-11T08:36:04.002Z</time></trkpt><trkpt lat="44.869235" lon="9.3408333"><ele>816.9999999999999</ele><time>2026-04-11T08:36:05.001Z</time></trkpt><trkpt lat="44.86931" lon="9.3408817"><ele>817.0</ele><time>2026-04-11T08:36:07.003Z</time></trkpt><trkpt lat="44.8693167" lon="9.3410367"><ele>820.1428571428571</ele><time>2026-04-11T08:36:09.002Z</time></trkpt><trkpt lat="44.8693033" lon="9.3411517"><ele>823.2857142857142</ele><time>2026-04-11T08:36:10.002Z</time></trkpt><trkpt lat="44.8692967" lon="9.341255"><ele>826.4285714285713</ele><time>2026-04-11T08:36:11.001Z</time></trkpt><trkpt lat="44.869295" lon="9.3413633"><ele>829.5714285714286</ele><time>2026-04-11T08:36:12Z</time></trkpt><trkpt lat="44.8692983" lon="9.3414683"><ele>832.7142857142858</ele><time>2026-04-11T08:36:13.001Z</time></trkpt><trkpt lat="44.8693183" lon="9.341565"><ele>835.8571428571428</ele><time>2026-04-11T08:36:14.001Z</time></trkpt><trkpt lat="44.8693617" lon="9.34163"><ele>839.0</ele><time>2026-04-11T08:36:15.002Z</time></trkpt><trkpt lat="44.8694183" lon="9.3416767"><ele>839.0</ele><time>2026-04-11T08:36:16.002Z</time></trkpt><trkpt lat="44.8695167" lon="9.3417233"><ele>839.0</ele><time>2026-04-11T08:36:18.001Z</time></trkpt><trkpt lat="44.8695983" lon="9.341705"><ele>839.0</ele><time>2026-04-11T08:36:20.003Z</time></trkpt><trkpt lat="44.8696583" lon="9.341625"><ele>839.0</ele><time>2026-04-11T08:36:23.002Z</time></trkpt><trkpt lat="44.8696867" lon="9.3414917"><ele>839.0</ele><time>2026-04-11T08:36:25.001Z</time></trkpt><trkpt lat="44.86973" lon="9.3413267"><ele>839.25</ele><time>2026-04-11T08:36:27.002Z</time></trkpt><trkpt lat="44.8698" lon="9.3411967"><ele>839.5</ele><time>2026-04-11T08:36:29.003Z</time></trkpt><trkpt lat="44.869895" lon="9.3411683"><ele>839.75</ele><time>2026-04-11T08:36:31.004Z</time></trkpt><trkpt lat="44.8700083" lon="9.3412117"><ele>840.0</ele><time>2026-04-11T08:36:33.005Z</time></trkpt><trkpt lat="44.8701317" lon="9.3412567"><ele>842.0</ele><time>2026-04-11T08:36:35.002Z</time></trkpt><trkpt lat="44.870195" lon="9.34128"><ele>844.0</ele><time>2026-04-11T08:36:36Z</time></trkpt><trkpt lat="44.8703097" lon="9.3413054"><ele>846.0</ele><time>2026-04-11T08:36:38.003Z</time></trkpt><trkpt lat="44.8704346" lon="9.3413082"><ele>848.0</ele><time>2026-04-11T08:36:40.001Z</time></trkpt><trkpt lat="44.8705004" lon="9.3412876"><ele>850.0</ele><time>2026-04-11T08:36:41.002Z</time></trkpt><trkpt lat="44.8706153" lon="9.3412392"><ele>850.0</ele><time>2026-04-11T08:36:43.002Z</time></trkpt><trkpt lat="44.8707228" lon="9.3411894"><ele>850.0</ele><time>2026-04-11T08:36:45.002Z</time></trkpt><trkpt lat="44.8708045" lon="9.3411171"><ele>850.0</ele><time>2026-04-11T08:36:47.002Z</time></trkpt><trkpt lat="44.8708542" lon="9.3409839"><ele>850.0</ele><time>2026-04-11T08:36:49.002Z</time></trkpt><trkpt lat="44.8708905" lon="9.3408466"><ele>850.0</ele><time>2026-04-11T08:36:51.003Z</time></trkpt><trkpt lat="44.870845" lon="9.3407386"><ele>849.9999999999999</ele><time>2026-04-11T08:38:28.003Z</time></trkpt><trkpt lat="44.8707716" lon="9.3406298"><ele>850.0</ele><time>2026-04-11T08:38:30.002Z</time></trkpt><trkpt lat="44.8707174" lon="9.3405116"><ele>850.0</ele><time>2026-04-11T08:38:32.002Z</time></trkpt><trkpt lat="44.8706986" lon="9.3404209"><ele>850.0</ele><time>2026-04-11T08:38:33.004Z</time></trkpt><trkpt lat="44.87068" lon="9.3403131"><ele>849.9999999999999</ele><time>2026-04-11T08:38:34.001Z</time></trkpt><trkpt lat="44.8706645" lon="9.3401835"><ele>850.0</ele><time>2026-04-11T08:38:35.001Z</time></trkpt><trkpt lat="44.8706558" lon="9.340065"><ele>850.1666666666666</ele><time>2026-04-11T08:38:36.002Z</time></trkpt><trkpt lat="44.870655" lon="9.3399633"><ele>850.3333333333333</ele><time>2026-04-11T08:38:37.003Z</time></trkpt><trkpt lat="44.8706533" lon="9.3398667"><ele>850.5</ele><time>2026-04-11T08:38:38.001Z</time></trkpt><trkpt lat="44.87064" lon="9.3397733"><ele>850.6666666666667</ele><time>2026-04-11T08:38:39.002Z</time></trkpt><trkpt lat="44.8706117" lon="9.33969"><ele>850.8333333333334</ele><time>2026-04-11T08:38:40.001Z</time></trkpt><trkpt lat="44.870575" lon="9.3396167"><ele>851.0</ele><time>2026-04-11T08:38:41.001Z</time></trkpt><trkpt lat="44.8705317" lon="9.33946"><ele>851.1666666666667</ele><time>2026-04-11T08:38:43.001Z</time></trkpt><trkpt lat="44.87054" lon="9.3393517"><ele>851.3333333333334</ele><time>2026-04-11T08:38:44.002Z</time></trkpt><trkpt lat="44.8705633" lon="9.3392267"><ele>851.5</ele><time>2026-04-11T08:38:45.002Z</time></trkpt><trkpt lat="44.87058" lon="9.3391033"><ele>851.6666666666667</ele><time>2026-04-11T08:38:46.001Z</time></trkpt><trkpt lat="44.870585" lon="9.3389817"><ele>851.8333333333334</ele><time>2026-04-11T08:38:47.001Z</time></trkpt><trkpt lat="44.8705783" lon="9.3388783"><ele>852.0</ele><time>2026-04-11T08:38:48.002Z</time></trkpt><trkpt lat="44.87055" lon="9.3387133"><ele>852.0</ele><time>2026-04-11T08:38:50.001Z</time></trkpt><trkpt lat="44.87054" lon="9.3386217"><ele>852.0</ele><time>2026-04-11T08:38:51.002Z</time></trkpt><trkpt lat="44.87053" lon="9.3385283"><ele>852.0</ele><time>2026-04-11T08:38:52Z</time></trkpt><trkpt lat="44.8705333" lon="9.33835"><ele>852.0</ele><time>2026-04-11T08:38:54.001Z</time></trkpt><trkpt lat="44.8705433" lon="9.338255"><ele>852.0</ele><time>2026-04-11T08:38:55.001Z</time></trkpt><trkpt lat="44.87058" lon="9.338105"><ele>852.0</ele><time>2026-04-11T08:38:57.002Z</time></trkpt><trkpt lat="44.8705817" lon="9.3379517"><ele>850.0</ele><time>2026-04-11T08:38:59.001Z</time></trkpt><trkpt lat="44.870625" lon="9.3378467"><ele>848.0</ele><time>2026-04-11T08:39:01.002Z</time></trkpt><trkpt lat="44.87065" lon="9.3377367"><ele>846.0</ele><time>2026-04-11T08:39:03.002Z</time></trkpt><trkpt lat="44.8706767" lon="9.3375667"><ele>844.0</ele><time>2026-04-11T08:39:05.002Z</time></trkpt><trkpt lat="44.8707267" lon="9.3373983"><ele>842.0</ele><time>2026-04-11T08:39:07.001Z</time></trkpt><trkpt lat="44.8707583" lon="9.337255"><ele>839.2</ele><time>2026-04-11T08:39:09.003Z</time></trkpt><trkpt lat="44.8707583" lon="9.3371367"><ele>836.4000000000001</ele><time>2026-04-11T08:39:11.002Z</time></trkpt><trkpt lat="44.8707617" lon="9.3369833"><ele>833.5999999999999</ele><time>2026-04-11T08:39:13.001Z</time></trkpt><trkpt lat="44.8707233" lon="9.3368367"><ele>830.8</ele><time>2026-04-11T08:39:15.003Z</time></trkpt><trkpt lat="44.8707283" lon="9.3367"><ele>828.0</ele><time>2026-04-11T08:39:17.002Z</time></trkpt><trkpt lat="44.8707367" lon="9.33658"><ele>828.0</ele><time>2026-04-11T08:39:19.001Z</time></trkpt><trkpt lat="44.8707067" lon="9.3364833"><ele>828.0</ele><time>2026-04-11T08:39:21.004Z</time></trkpt><trkpt lat="44.87069" lon="9.33635"><ele>828.0</ele><time>2026-04-11T08:39:23Z</time></trkpt><trkpt lat="44.87069" lon="9.3361883"><ele>828.0</ele><time>2026-04-11T08:39:25.003Z</time></trkpt><trkpt lat="44.8706833" lon="9.33609"><ele>828.0</ele><time>2026-04-11T08:39:26.003Z</time></trkpt><trkpt lat="44.8706817" lon="9.3359817"><ele>828.0</ele><time>2026-04-11T08:39:27.003Z</time></trkpt><trkpt lat="44.870675" lon="9.33587"><ele>826.2857142857143</ele><time>2026-04-11T08:39:28.001Z</time></trkpt><trkpt lat="44.870655" lon="9.3357767"><ele>824.5714285714286</ele><time>2026-04-11T08:39:29.004Z</time></trkpt><trkpt lat="44.8706433" lon="9.3356717"><ele>822.8571428571429</ele><time>2026-04-11T08:39:30.003Z</time></trkpt><trkpt lat="44.8706417" lon="9.3355717"><ele>821.1428571428571</ele><time>2026-04-11T08:39:31.001Z</time></trkpt><trkpt lat="44.8706517" lon="9.3354717"><ele>819.4285714285714</ele><time>2026-04-11T08:39:32.002Z</time></trkpt><trkpt lat="44.870675" lon="9.3353667"><ele>817.7142857142858</ele><time>2026-04-11T08:39:33.003Z</time></trkpt><trkpt lat="44.8707" lon="9.3352683"><ele>816.0</ele><time>2026-04-11T08:39:34.003Z</time></trkpt><trkpt lat="44.8707117" lon="9.335175"><ele>815.5714285714286</ele><time>2026-04-11T08:39:35.002Z</time></trkpt><trkpt lat="44.8707133" lon="9.335085"><ele>815.1428571428571</ele><time>2026-04-11T08:39:36.002Z</time></trkpt><trkpt lat="44.8707283" lon="9.334995"><ele>814.7142857142858</ele><time>2026-04-11T08:39:37.002Z</time></trkpt><trkpt lat="44.8707633" lon="9.334895"><ele>814.2857142857142</ele><time>2026-04-11T08:39:38.001Z</time></trkpt><trkpt lat="44.8708017" lon="9.3347967"><ele>813.8571428571428</ele><time>2026-04-11T08:39:39.002Z</time></trkpt><trkpt lat="44.8708383" lon="9.334715"><ele>813.4285714285714</ele><time>2026-04-11T08:39:40.003Z</time></trkpt><trkpt lat="44.8708683" lon="9.3346017"><ele>813.0</ele><time>2026-04-11T08:39:42.002Z</time></trkpt><trkpt lat="44.8708767" lon="9.3344383"><ele>811.5</ele><time>2026-04-11T08:39:44.002Z</time></trkpt><trkpt lat="44.8708633" lon="9.3342717"><ele>810.0</ele><time>2026-04-11T08:39:46.001Z</time></trkpt><trkpt lat="44.8708317" lon="9.3341317"><ele>808.5</ele><time>2026-04-11T08:39:48.001Z</time></trkpt><trkpt lat="44.8707617" lon="9.3340117"><ele>807.0</ele><time>2026-04-11T08:39:50.001Z</time></trkpt><trkpt lat="44.8706967" lon="9.3338517"><ele>804.8333333333334</ele><time>2026-04-11T08:39:52.002Z</time></trkpt><trkpt lat="44.870665" lon="9.3337633"><ele>802.6666666666667</ele><time>2026-04-11T08:39:53.001Z</time></trkpt><trkpt lat="44.870635" lon="9.3336733"><ele>800.5</ele><time>2026-04-11T08:39:54.002Z</time></trkpt><trkpt lat="44.8706067" lon="9.333585"><ele>798.3333333333334</ele><time>2026-04-11T08:39:55.004Z</time></trkpt><trkpt lat="44.870575" lon="9.3335017"><ele>796.1666666666667</ele><time>2026-04-11T08:39:56.002Z</time></trkpt><trkpt lat="44.87053" lon="9.33335"><ele>794.0</ele><time>2026-04-11T08:39:58.003Z</time></trkpt><trkpt lat="44.8705" lon="9.3332233"><ele>794.0</ele><time>2026-04-11T08:40:00.004Z</time></trkpt><trkpt lat="44.8704867" lon="9.333075"><ele>794.0</ele><time>2026-04-11T08:40:02.001Z</time></trkpt><trkpt lat="44.87044" lon="9.3329633"><ele>794.0</ele><time>2026-04-11T08:40:04.003Z</time></trkpt><trkpt lat="44.87036" lon="9.3328733"><ele>794.0</ele><time>2026-04-11T08:40:06.001Z</time></trkpt><trkpt lat="44.870365" lon="9.33276"><ele>794.0</ele><time>2026-04-11T08:40:08.002Z</time></trkpt><trkpt lat="44.8703867" lon="9.33264"><ele>791.2</ele><time>2026-04-11T08:40:10.001Z</time></trkpt><trkpt lat="44.8704283" lon="9.33252"><ele>788.4000000000001</ele><time>2026-04-11T08:40:12.005Z</time></trkpt><trkpt lat="44.8704983" lon="9.3324067"><ele>785.6</ele><time>2026-04-11T08:40:14.001Z</time></trkpt><trkpt lat="44.8706017" lon="9.3323117"><ele>782.8</ele><time>2026-04-11T08:40:16.002Z</time></trkpt><trkpt lat="44.8706817" lon="9.33218"><ele>780.0</ele><time>2026-04-11T08:40:18.002Z</time></trkpt><trkpt lat="44.8707" lon="9.332095"><ele>777.8333333333334</ele><time>2026-04-11T08:40:19.002Z</time></trkpt><trkpt lat="44.87071" lon="9.332"><ele>775.6666666666666</ele><time>2026-04-11T08:40:20.001Z</time></trkpt><trkpt lat="44.8707067" lon="9.331905"><ele>773.5</ele><time>2026-04-11T08:40:21.002Z</time></trkpt><trkpt lat="44.8706917" lon="9.3317483"><ele>771.3333333333333</ele><time>2026-04-11T08:40:23.002Z</time></trkpt><trkpt lat="44.8706917" lon="9.3316367"><ele>769.1666666666666</ele><time>2026-04-11T08:40:25.001Z</time></trkpt><trkpt lat="44.8707317" lon="9.3315333"><ele>767.0</ele><time>2026-04-11T08:40:27.001Z</time></trkpt><trkpt lat="44.8708067" lon="9.331435"><ele>765.2</ele><time>2026-04-11T08:40:29.001Z</time></trkpt><trkpt lat="44.8708633" lon="9.331285"><ele>763.4000000000001</ele><time>2026-04-11T08:40:31.002Z</time></trkpt><trkpt lat="44.8708733" lon="9.331195"><ele>761.5999999999999</ele><time>2026-04-11T08:40:32.003Z</time></trkpt><trkpt lat="44.8708933" lon="9.331095"><ele>759.8</ele><time>2026-04-11T08:40:33.002Z</time></trkpt><trkpt lat="44.8709183" lon="9.3310033"><ele>758.0</ele><time>2026-04-11T08:40:34.003Z</time></trkpt><trkpt lat="44.87099" lon="9.3308567"><ele>756.1666666666666</ele><time>2026-04-11T08:40:36.001Z</time></trkpt><trkpt lat="44.8710317" lon="9.3307667"><ele>754.3333333333333</ele><time>2026-04-11T08:40:37.002Z</time></trkpt><trkpt lat="44.8710667" lon="9.3306567"><ele>752.5</ele><time>2026-04-11T08:40:38.002Z</time></trkpt><trkpt lat="44.871095" lon="9.330565"><ele>750.6666666666666</ele><time>2026-04-11T08:40:39.002Z</time></trkpt><trkpt lat="44.87116" lon="9.33047"><ele>748.8333333333334</ele><time>2026-04-11T08:40:41.001Z</time></trkpt><trkpt lat="44.8712383" lon="9.3304033"><ele>747.0</ele><time>2026-04-11T08:40:43.001Z</time></trkpt><trkpt lat="44.8713033" lon="9.3303367"><ele>746.4000000000001</ele><time>2026-04-11T08:40:45.002Z</time></trkpt><trkpt lat="44.8713983" lon="9.3302633"><ele>745.8000000000001</ele><time>2026-04-11T08:40:47.003Z</time></trkpt><trkpt lat="44.8715" lon="9.330185"><ele>745.2</ele><time>2026-04-11T08:40:49.004Z</time></trkpt><trkpt lat="44.871575" lon="9.3300583"><ele>744.6</ele><time>2026-04-11T08:40:51.001Z</time></trkpt><trkpt lat="44.8716167" lon="9.3299833"><ele>744.0</ele><time>2026-04-11T08:40:52.002Z</time></trkpt><trkpt lat="44.8716983" lon="9.32984"><ele>742.5</ele><time>2026-04-11T08:40:54.003Z</time></trkpt><trkpt lat="44.871775" lon="9.3296883"><ele>741.0</ele><time>2026-04-11T08:40:56.002Z</time></trkpt><trkpt lat="44.8718217" lon="9.32959"><ele>739.5</ele><time>2026-04-11T08:40:57.002Z</time></trkpt><trkpt lat="44.87187" lon="9.329485"><ele>738.0</ele><time>2026-04-11T08:40:58.001Z</time></trkpt><trkpt lat="44.8719133" lon="9.3294"><ele>736.5</ele><time>2026-04-11T08:40:59.002Z</time></trkpt><trkpt lat="44.87196" lon="9.3293367"><ele>735.0</ele><time>2026-04-11T08:41:00.003Z</time></trkpt><trkpt lat="44.8720283" lon="9.329235"><ele>735.0</ele><time>2026-04-11T08:41:02.001Z</time></trkpt><trkpt lat="44.8720767" lon="9.3291617"><ele>735.0</ele><time>2026-04-11T08:41:04.001Z</time></trkpt><trkpt lat="44.87213" lon="9.329045"><ele>735.0</ele><time>2026-04-11T08:41:06.002Z</time></trkpt><trkpt lat="44.87216" lon="9.3289517"><ele>735.0</ele><time>2026-04-11T08:41:07.002Z</time></trkpt><trkpt lat="44.872195" lon="9.328855"><ele>735.0</ele><time>2026-04-11T08:41:08.003Z</time></trkpt><trkpt lat="44.8722283" lon="9.3287633"><ele>735.0</ele><time>2026-04-11T08:41:09.002Z</time></trkpt><trkpt lat="44.87226" lon="9.3286767"><ele>735.6666666666666</ele><time>2026-04-11T08:41:10.005Z</time></trkpt><trkpt lat="44.8723267" lon="9.328565"><ele>736.3333333333334</ele><time>2026-04-11T08:41:12.001Z</time></trkpt><trkpt lat="44.8723717" lon="9.328455"><ele>737.0</ele><time>2026-04-11T08:41:14.002Z</time></trkpt><trkpt lat="44.8724033" lon="9.3283017"><ele>737.6666666666667</ele><time>2026-04-11T08:41:16.001Z</time></trkpt><trkpt lat="44.8724267" lon="9.32821"><ele>738.3333333333334</ele><time>2026-04-11T08:41:17.091Z</time></trkpt><trkpt lat="44.8724533" lon="9.3281183"><ele>739.0</ele><time>2026-04-11T08:41:18.002Z</time></trkpt><trkpt lat="44.8724783" lon="9.3280317"><ele>737.0</ele><time>2026-04-11T08:41:19.003Z</time></trkpt><trkpt lat="44.8725" lon="9.3279483"><ele>735.0</ele><time>2026-04-11T08:41:20.001Z</time></trkpt><trkpt lat="44.8725317" lon="9.3277833"><ele>733.0</ele><time>2026-04-11T08:41:22.002Z</time></trkpt><trkpt lat="44.872545" lon="9.327655"><ele>731.0</ele><time>2026-04-11T08:41:24.001Z</time></trkpt><trkpt lat="44.8725817" lon="9.32753"><ele>729.0</ele><time>2026-04-11T08:41:26.001Z</time></trkpt><trkpt lat="44.8726383" lon="9.3273783"><ele>727.3333333333334</ele><time>2026-04-11T08:41:28.002Z</time></trkpt><trkpt lat="44.8727117" lon="9.3272833"><ele>725.6666666666666</ele><time>2026-04-11T08:41:30.001Z</time></trkpt><trkpt lat="44.872805" lon="9.32727"><ele>724.0</ele><time>2026-04-11T08:41:32.002Z</time></trkpt><trkpt lat="44.8728533" lon="9.327185"><ele>722.3333333333333</ele><time>2026-04-11T08:41:34.002Z</time></trkpt><trkpt lat="44.872815" lon="9.3271"><ele>720.6666666666666</ele><time>2026-04-11T08:41:35.003Z</time></trkpt><trkpt lat="44.872765" lon="9.327025"><ele>719.0</ele><time>2026-04-11T08:41:36.001Z</time></trkpt><trkpt lat="44.8727033" lon="9.3269667"><ele>719.1666666666666</ele><time>2026-04-11T08:41:37.002Z</time></trkpt><trkpt lat="44.8726483" lon="9.3269133"><ele>719.3333333333333</ele><time>2026-04-11T08:41:38.002Z</time></trkpt><trkpt lat="44.8726017" lon="9.326805"><ele>719.5</ele><time>2026-04-11T08:41:40.004Z</time></trkpt><trkpt lat="44.872635" lon="9.3267"><ele>719.6666666666666</ele><time>2026-04-11T08:41:42.001Z</time></trkpt><trkpt lat="44.8726533" lon="9.326575"><ele>719.8333333333334</ele><time>2026-04-11T08:41:44.004Z</time></trkpt><trkpt lat="44.8727433" lon="9.3265017"><ele>720.0</ele><time>2026-04-11T08:41:46.002Z</time></trkpt><trkpt lat="44.8728267" lon="9.32642"><ele>720.4</ele><time>2026-04-11T08:41:48.002Z</time></trkpt><trkpt lat="44.8729367" lon="9.326295"><ele>720.8</ele><time>2026-04-11T08:42:26.003Z</time></trkpt><trkpt lat="44.8730467" lon="9.3262417"><ele>721.2</ele><time>2026-04-11T08:42:28.001Z</time></trkpt><trkpt lat="44.87311" lon="9.326195"><ele>721.6</ele><time>2026-04-11T08:42:29.001Z</time></trkpt><trkpt lat="44.87321" lon="9.3261183"><ele>722.0</ele><time>2026-04-11T08:42:30.001Z</time></trkpt><trkpt lat="44.8733117" lon="9.3260317"><ele>722.0</ele><time>2026-04-11T08:42:31.002Z</time></trkpt><trkpt lat="44.87339" lon="9.325955"><ele>722.0</ele><time>2026-04-11T08:42:32.001Z</time></trkpt><trkpt lat="44.873485" lon="9.3258517"><ele>722.0</ele><time>2026-04-11T08:42:33.001Z</time></trkpt><trkpt lat="44.8735683" lon="9.3257417"><ele>722.0</ele><time>2026-04-11T08:42:34.002Z</time></trkpt><trkpt lat="44.8736383" lon="9.325645"><ele>722.0</ele><time>2026-04-11T08:42:35.001Z</time></trkpt><trkpt lat="44.8737067" lon="9.3255533"><ele>722.6</ele><time>2026-04-11T08:42:36.001Z</time></trkpt><trkpt lat="44.87379" lon="9.3254617"><ele>723.2</ele><time>2026-04-11T08:42:37.001Z</time></trkpt><trkpt lat="44.8738767" lon="9.3253817"><ele>723.8</ele><time>2026-04-11T08:42:38.001Z</time></trkpt><trkpt lat="44.8739633" lon="9.325295"><ele>724.4</ele><time>2026-04-11T08:42:39.003Z</time></trkpt><trkpt lat="44.8740367" lon="9.3252033"><ele>725.0</ele><time>2026-04-11T08:42:40.001Z</time></trkpt><trkpt lat="44.8741117" lon="9.3251283"><ele>725.0</ele><time>2026-04-11T08:42:41.001Z</time></trkpt><trkpt lat="44.8741783" lon="9.3250683"><ele>725.0</ele><time>2026-04-11T08:42:42.002Z</time></trkpt><trkpt lat="44.874245" lon="9.3250167"><ele>725.0</ele><time>2026-04-11T08:42:43.001Z</time></trkpt><trkpt lat="44.8743" lon="9.32495"><ele>725.0</ele><time>2026-04-11T08:42:44.003Z</time></trkpt><trkpt lat="44.8743567" lon="9.3248617"><ele>725.0</ele><time>2026-04-11T08:42:45.002Z</time></trkpt><trkpt lat="44.874415" lon="9.32476"><ele>725.0</ele><time>2026-04-11T08:42:46.001Z</time></trkpt><trkpt lat="44.8744783" lon="9.32466"><ele>725.5</ele><time>2026-04-11T08:42:47.002Z</time></trkpt><trkpt lat="44.8745483" lon="9.324575"><ele>726.0</ele><time>2026-04-11T08:42:48.002Z</time></trkpt><trkpt lat="44.87463" lon="9.3245017"><ele>726.5</ele><time>2026-04-11T08:42:49.003Z</time></trkpt><trkpt lat="44.8747733" lon="9.3244133"><ele>727.0</ele><time>2026-04-11T08:42:50.003Z</time></trkpt><trkpt lat="44.8748933" lon="9.32435"><ele>727.0</ele><time>2026-04-11T08:42:51.002Z</time></trkpt><trkpt lat="44.8750133" lon="9.3242867"><ele>727.0</ele><time>2026-04-11T08:42:52.003Z</time></trkpt><trkpt lat="44.8751217" lon="9.3242367"><ele>727.0</ele><time>2026-04-11T08:42:53.001Z</time></trkpt><trkpt lat="44.875235" lon="9.3241733"><ele>727.0</ele><time>2026-04-11T08:42:54.002Z</time></trkpt><trkpt lat="44.8753317" lon="9.3240967"><ele>726.0</ele><time>2026-04-11T08:42:55.002Z</time></trkpt><trkpt lat="44.8754133" lon="9.3240217"><ele>725.0</ele><time>2026-04-11T08:42:56.001Z</time></trkpt><trkpt lat="44.8754833" lon="9.323935"><ele>724.0</ele><time>2026-04-11T08:42:57.002Z</time></trkpt><trkpt lat="44.87555" lon="9.3238383"><ele>723.0</ele><time>2026-04-11T08:42:58.002Z</time></trkpt><trkpt lat="44.8755983" lon="9.32374"><ele>722.0</ele><time>2026-04-11T08:42:59.086Z</time></trkpt><trkpt lat="44.87564" lon="9.3236367"><ele>722.0</ele><time>2026-04-11T08:43:00.001Z</time></trkpt><trkpt lat="44.875685" lon="9.3235167"><ele>722.0</ele><time>2026-04-11T08:43:01.003Z</time></trkpt><trkpt lat="44.8757217" lon="9.323395"><ele>722.0</ele><time>2026-04-11T08:43:02.004Z</time></trkpt><trkpt lat="44.8757567" lon="9.3232833"><ele>722.0</ele><time>2026-04-11T08:43:03.003Z</time></trkpt><trkpt lat="44.875785" lon="9.3231833"><ele>722.0</ele><time>2026-04-11T08:43:04.002Z</time></trkpt><trkpt lat="44.8758167" lon="9.3230983"><ele>722.0</ele><time>2026-04-11T08:43:05.002Z</time></trkpt><trkpt lat="44.8758633" lon="9.3230117"><ele>721.8333333333333</ele><time>2026-04-11T08:43:06.002Z</time></trkpt><trkpt lat="44.87591" lon="9.32291"><ele>721.6666666666666</ele><time>2026-04-11T08:43:07.002Z</time></trkpt><trkpt lat="44.8759483" lon="9.32282"><ele>721.5</ele><time>2026-04-11T08:43:08.002Z</time></trkpt><trkpt lat="44.875995" lon="9.3227433"><ele>721.3333333333334</ele><time>2026-04-11T08:43:09.002Z</time></trkpt><trkpt lat="44.876055" lon="9.3226767"><ele>721.1666666666667</ele><time>2026-04-11T08:43:10.002Z</time></trkpt><trkpt lat="44.8761267" lon="9.32261"><ele>721.0</ele><time>2026-04-11T08:43:11.001Z</time></trkpt><trkpt lat="44.8762083" lon="9.32254"><ele>721.0</ele><time>2026-04-11T08:43:12.001Z</time></trkpt><trkpt lat="44.876285" lon="9.3224767"><ele>721.0</ele><time>2026-04-11T08:43:13.001Z</time></trkpt><trkpt lat="44.8763567" lon="9.322415"><ele>721.0</ele><time>2026-04-11T08:43:14.002Z</time></trkpt><trkpt lat="44.8764133" lon="9.3223733"><ele>721.0</ele><time>2026-04-11T08:43:15.002Z</time></trkpt><trkpt lat="44.876505" lon="9.322365"><ele>721.0</ele><time>2026-04-11T08:43:17.002Z</time></trkpt><trkpt lat="44.8766017" lon="9.3223683"><ele>721.0</ele><time>2026-04-11T08:43:19.002Z</time></trkpt><trkpt lat="44.876745" lon="9.32232"><ele>721.8</ele><time>2026-04-11T08:43:21.002Z</time></trkpt><trkpt lat="44.8768467" lon="9.3222767"><ele>722.5999999999999</ele><time>2026-04-11T08:43:22.001Z</time></trkpt><trkpt lat="44.8769433" lon="9.32223"><ele>723.4</ele><time>2026-04-11T08:43:23.001Z</time></trkpt><trkpt lat="44.877045" lon="9.3222017"><ele>724.2</ele><time>2026-04-11T08:43:24.001Z</time></trkpt><trkpt lat="44.8771583" lon="9.3221817"><ele>725.0</ele><time>2026-04-11T08:43:25.001Z</time></trkpt><trkpt lat="44.8772617" lon="9.3221717"><ele>727.6666666666666</ele><time>2026-04-11T08:43:26.001Z</time></trkpt><trkpt lat="44.877365" lon="9.322175"><ele>730.3333333333333</ele><time>2026-04-11T08:43:27.003Z</time></trkpt><trkpt lat="44.877465" lon="9.3221733"><ele>733.0</ele><time>2026-04-11T08:43:28.001Z</time></trkpt><trkpt lat="44.877555" lon="9.3221783"><ele>735.6666666666666</ele><time>2026-04-11T08:43:29.001Z</time></trkpt><trkpt lat="44.87763" lon="9.322175"><ele>738.3333333333334</ele><time>2026-04-11T08:43:30.002Z</time></trkpt><trkpt lat="44.87771" lon="9.3221633"><ele>741.0</ele><time>2026-04-11T08:43:31Z</time></trkpt><trkpt lat="44.877785" lon="9.3221483"><ele>741.0</ele><time>2026-04-11T08:43:32.002Z</time></trkpt><trkpt lat="44.8779117" lon="9.3221117"><ele>741.0</ele><time>2026-04-11T08:43:34Z</time></trkpt><trkpt lat="44.87799" lon="9.3220817"><ele>741.0</ele><time>2026-04-11T08:43:35.001Z</time></trkpt><trkpt lat="44.878065" lon="9.322055"><ele>741.0</ele><time>2026-04-11T08:43:36.003Z</time></trkpt><trkpt lat="44.8781417" lon="9.322015"><ele>741.0</ele><time>2026-04-11T08:43:37.001Z</time></trkpt><trkpt lat="44.8782017" lon="9.3219567"><ele>741.0</ele><time>2026-04-11T08:43:38.001Z</time></trkpt><trkpt lat="44.8782583" lon="9.3218733"><ele>741.0</ele><time>2026-04-11T08:43:39.003Z</time></trkpt><trkpt lat="44.878315" lon="9.32179"><ele>741.0</ele><time>2026-04-11T08:43:40.001Z</time></trkpt><trkpt lat="44.878365" lon="9.3217083"><ele>741.0</ele><time>2026-04-11T08:43:41.001Z</time></trkpt><trkpt lat="44.8784017" lon="9.3216283"><ele>741.0</ele><time>2026-04-11T08:43:42.002Z</time></trkpt><trkpt lat="44.8784633" lon="9.3214767"><ele>741.0</ele><time>2026-04-11T08:43:44.001Z</time></trkpt><trkpt lat="44.8784917" lon="9.3213733"><ele>741.0</ele><time>2026-04-11T08:43:46.002Z</time></trkpt><trkpt lat="44.87854" lon="9.3212733"><ele>737.0</ele><time>2026-04-11T08:43:48.002Z</time></trkpt><trkpt lat="44.8786133" lon="9.3211517"><ele>733.0</ele><time>2026-04-11T08:43:50.001Z</time></trkpt><trkpt lat="44.878665" lon="9.32105"><ele>729.0</ele><time>2026-04-11T08:43:51.006Z</time></trkpt><trkpt lat="44.8787217" lon="9.3209333"><ele>725.0</ele><time>2026-04-11T08:43:52.001Z</time></trkpt><trkpt lat="44.87878" lon="9.3208"><ele>721.0</ele><time>2026-04-11T08:43:53.003Z</time></trkpt><trkpt lat="44.8788517" lon="9.3206533"><ele>723.0</ele><time>2026-04-11T08:43:54.002Z</time></trkpt><trkpt lat="44.878925" lon="9.3205417"><ele>725.0</ele><time>2026-04-11T08:43:55.003Z</time></trkpt><trkpt lat="44.8789883" lon="9.3204483"><ele>727.0</ele><time>2026-04-11T08:43:56.002Z</time></trkpt><trkpt lat="44.87904" lon="9.32036"><ele>729.0</ele><time>2026-04-11T08:43:57.003Z</time></trkpt><trkpt lat="44.87908" lon="9.3202533"><ele>731.0</ele><time>2026-04-11T08:43:58.002Z</time></trkpt><trkpt lat="44.879115" lon="9.3201117"><ele>731.0</ele><time>2026-04-11T08:43:59.003Z</time></trkpt><trkpt lat="44.8791617" lon="9.31997"><ele>731.0</ele><time>2026-04-11T08:44:00.004Z</time></trkpt><trkpt lat="44.8792083" lon="9.31988"><ele>731.0</ele><time>2026-04-11T08:44:01.003Z</time></trkpt><trkpt lat="44.8792583" lon="9.3198017"><ele>731.0</ele><time>2026-04-11T08:44:02.003Z</time></trkpt><trkpt lat="44.8793067" lon="9.3197433"><ele>731.0</ele><time>2026-04-11T08:44:03.001Z</time></trkpt><trkpt lat="44.8793117" lon="9.319635"><ele>731.0</ele><time>2026-04-11T08:44:05.004Z</time></trkpt><trkpt lat="44.8792583" lon="9.3195117"><ele>732.8</ele><time>2026-04-11T08:44:08.001Z</time></trkpt><trkpt lat="44.8792083" lon="9.3193767"><ele>734.5999999999999</ele><time>2026-04-11T08:44:10.001Z</time></trkpt><trkpt lat="44.87917" lon="9.31921"><ele>736.4</ele><time>2026-04-11T08:44:12.001Z</time></trkpt><trkpt lat="44.8791767" lon="9.319085"><ele>738.2</ele><time>2026-04-11T08:44:13.001Z</time></trkpt><trkpt lat="44.8791767" lon="9.3189917"><ele>740.0</ele><time>2026-04-11T08:44:14.001Z</time></trkpt><trkpt lat="44.879175" lon="9.3188883"><ele>739.1666666666666</ele><time>2026-04-11T08:44:15.003Z</time></trkpt><trkpt lat="44.87918" lon="9.3187967"><ele>738.3333333333333</ele><time>2026-04-11T08:44:16.004Z</time></trkpt><trkpt lat="44.8792217" lon="9.318645"><ele>737.5</ele><time>2026-04-11T08:44:18.003Z</time></trkpt><trkpt lat="44.87925" lon="9.3185617"><ele>736.6666666666666</ele><time>2026-04-11T08:44:19.001Z</time></trkpt><trkpt lat="44.879283" lon="9.3184674"><ele>735.8333333333334</ele><time>2026-04-11T08:44:20.001Z</time></trkpt><trkpt lat="44.8793251" lon="9.3183785"><ele>735.0</ele><time>2026-04-11T08:44:21.001Z</time></trkpt><trkpt lat="44.8793629" lon="9.318298"><ele>735.0</ele><time>2026-04-11T08:44:22.002Z</time></trkpt><trkpt lat="44.8794209" lon="9.3181753"><ele>735.0</ele><time>2026-04-11T08:44:24.002Z</time></trkpt><trkpt lat="44.8794618" lon="9.318065"><ele>735.0</ele><time>2026-04-11T08:44:26.001Z</time></trkpt><trkpt lat="44.8794728" lon="9.3179748"><ele>735.0</ele><time>2026-04-11T08:44:28.001Z</time></trkpt><trkpt lat="44.8794752" lon="9.3178819"><ele>735.0</ele><time>2026-04-11T08:44:31.003Z</time></trkpt><trkpt lat="44.8795447" lon="9.3178223"><ele>735.0</ele><time>2026-04-11T08:44:34.002Z</time></trkpt><trkpt lat="44.8794924" lon="9.3177073"><ele>735.5</ele><time>2026-04-11T08:44:56.001Z</time></trkpt><trkpt lat="44.8794277" lon="9.3176217"><ele>736.0</ele><time>2026-04-11T08:44:58Z</time></trkpt><trkpt lat="44.8793367" lon="9.3175776"><ele>736.5</ele><time>2026-04-11T08:45:00.001Z</time></trkpt><trkpt lat="44.8792483" lon="9.317545"><ele>737.0</ele><time>2026-04-11T08:45:02.002Z</time></trkpt><trkpt lat="44.879165" lon="9.3174917"><ele>737.5</ele><time>2026-04-11T08:45:05.001Z</time></trkpt><trkpt lat="44.8791117" lon="9.3174167"><ele>738.0</ele><time>2026-04-11T08:45:08.001Z</time></trkpt><trkpt lat="44.87909" lon="9.3173033"><ele>736.5</ele><time>2026-04-11T08:45:11Z</time></trkpt><trkpt lat="44.87912" lon="9.3171833"><ele>735.0</ele><time>2026-04-11T08:45:14Z</time></trkpt><trkpt lat="44.8791483" lon="9.3170867"><ele>733.5</ele><time>2026-04-11T08:45:17.002Z</time></trkpt><trkpt lat="44.8791233" lon="9.316975"><ele>732.0</ele><time>2026-04-11T08:45:20Z</time></trkpt><trkpt lat="44.8790567" lon="9.3169033"><ele>730.5</ele><time>2026-04-11T08:45:23Z</time></trkpt><trkpt lat="44.8789883" lon="9.3168683"><ele>729.0</ele><time>2026-04-11T08:45:26.002Z</time></trkpt><trkpt lat="44.8789867" lon="9.31672"><ele>729.0</ele><time>2026-04-11T08:45:30.002Z</time></trkpt><trkpt lat="44.8789883" lon="9.316605"><ele>729.0</ele><time>2026-04-11T08:45:32.004Z</time></trkpt><trkpt lat="44.8790117" lon="9.316475"><ele>729.0</ele><time>2026-04-11T08:45:34.002Z</time></trkpt><trkpt lat="44.8790367" lon="9.3163417"><ele>729.0</ele><time>2026-04-11T08:45:36.002Z</time></trkpt><trkpt lat="44.8790533" lon="9.3162467"><ele>729.0</ele><time>2026-04-11T08:45:38.001Z</time></trkpt><trkpt lat="44.8790583" lon="9.3161367"><ele>729.0</ele><time>2026-04-11T08:45:40Z</time></trkpt><trkpt lat="44.8790833" lon="9.3160217"><ele>727.5</ele><time>2026-04-11T08:45:42Z</time></trkpt><trkpt lat="44.8791183" lon="9.3159167"><ele>726.0</ele><time>2026-04-11T08:45:44Z</time></trkpt><trkpt lat="44.8791283" lon="9.3158067"><ele>724.5</ele><time>2026-04-11T08:45:46.002Z</time></trkpt><trkpt lat="44.879085" lon="9.315705"><ele>723.0</ele><time>2026-04-11T08:45:48Z</time></trkpt><trkpt lat="44.8790417" lon="9.3155983"><ele>721.5</ele><time>2026-04-11T08:45:50.002Z</time></trkpt><trkpt lat="44.8790333" lon="9.3154583"><ele>720.0</ele><time>2026-04-11T08:45:52.001Z</time></trkpt><trkpt lat="44.879025" lon="9.3152933"><ele>718.25</ele><time>2026-04-11T08:45:54.004Z</time></trkpt><trkpt lat="44.8790033" lon="9.3151217"><ele>716.5</ele><time>2026-04-11T08:45:56.001Z</time></trkpt><trkpt lat="44.8789833" lon="9.3149983"><ele>714.75</ele><time>2026-04-11T08:45:58.003Z</time></trkpt><trkpt lat="44.87899" lon="9.3148517"><ele>713.0</ele><time>2026-04-11T08:46:00.004Z</time></trkpt><trkpt lat="44.8790067" lon="9.314655"><ele>712.8333333333333</ele><time>2026-04-11T08:46:02.001Z</time></trkpt><trkpt lat="44.8790233" lon="9.314535"><ele>712.6666666666666</ele><time>2026-04-11T08:46:03.001Z</time></trkpt><trkpt lat="44.8790333" lon="9.3144233"><ele>712.5</ele><time>2026-04-11T08:46:04.002Z</time></trkpt><trkpt lat="44.879035" lon="9.3143267"><ele>712.3333333333334</ele><time>2026-04-11T08:46:05.001Z</time></trkpt><trkpt lat="44.8790433" lon="9.3141817"><ele>712.1666666666667</ele><time>2026-04-11T08:46:07.001Z</time></trkpt><trkpt lat="44.8790517" lon="9.3140933"><ele>712.0</ele><time>2026-04-11T08:46:10.001Z</time></trkpt><trkpt lat="44.8791167" lon="9.3139533"><ele>710.2</ele><time>2026-04-11T08:46:26Z</time></trkpt><trkpt lat="44.8791517" lon="9.3138783"><ele>708.4000000000001</ele><time>2026-04-11T08:46:27.002Z</time></trkpt><trkpt lat="44.8791917" lon="9.313805"><ele>706.5999999999999</ele><time>2026-04-11T08:46:28.001Z</time></trkpt><trkpt lat="44.8792783" lon="9.3136917"><ele>704.8</ele><time>2026-04-11T08:46:30.001Z</time></trkpt><trkpt lat="44.8793783" lon="9.3136217"><ele>703.0</ele><time>2026-04-11T08:46:32Z</time></trkpt><trkpt lat="44.879485" lon="9.3135533"><ele>700.5999999999999</ele><time>2026-04-11T08:46:34.001Z</time></trkpt><trkpt lat="44.8795817" lon="9.3134767"><ele>698.1999999999999</ele><time>2026-04-11T08:46:36.002Z</time></trkpt><trkpt lat="44.879655" lon="9.31345"><ele>695.8</ele><time>2026-04-11T08:46:38.002Z</time></trkpt><trkpt lat="44.8797433" lon="9.3134267"><ele>693.4</ele><time>2026-04-11T08:46:40.001Z</time></trkpt><trkpt lat="44.879845" lon="9.313365"><ele>691.0</ele><time>2026-04-11T08:46:42.001Z</time></trkpt><trkpt lat="44.87991" lon="9.313275"><ele>691.0</ele><time>2026-04-11T08:46:44.001Z</time></trkpt><trkpt lat="44.8799517" lon="9.31315"><ele>691.0</ele><time>2026-04-11T08:46:46.002Z</time></trkpt><trkpt lat="44.880005" lon="9.3130067"><ele>691.0</ele><time>2026-04-11T08:46:48.001Z</time></trkpt><trkpt lat="44.8800317" lon="9.312925"><ele>691.0</ele><time>2026-04-11T08:46:49.001Z</time></trkpt><trkpt lat="44.8801" lon="9.312795"><ele>691.0</ele><time>2026-04-11T08:46:51.001Z</time></trkpt><trkpt lat="44.8801683" lon="9.31275"><ele>686.9999999999999</ele><time>2026-04-11T08:46:53.003Z</time></trkpt><trkpt lat="44.88022" lon="9.31269"><ele>683.0</ele><time>2026-04-11T08:46:55.003Z</time></trkpt><trkpt lat="44.8802183" lon="9.3125667"><ele>679.0</ele><time>2026-04-11T08:46:57.001Z</time></trkpt><trkpt lat="44.88022" lon="9.312475"><ele>675.0</ele><time>2026-04-11T08:46:58.001Z</time></trkpt><trkpt lat="44.8802217" lon="9.3123833"><ele>671.0</ele><time>2026-04-11T08:46:59.001Z</time></trkpt><trkpt lat="44.8802317" lon="9.31229"><ele>666.9999999999999</ele><time>2026-04-11T08:47:00.001Z</time></trkpt><trkpt lat="44.880285" lon="9.3121867"><ele>663.0</ele><time>2026-04-11T08:47:02.002Z</time></trkpt><trkpt lat="44.8803633" lon="9.3121733"><ele>661.4</ele><time>2026-04-11T08:47:04.003Z</time></trkpt><trkpt lat="44.8804267" lon="9.3121483"><ele>659.8</ele><time>2026-04-11T08:47:05.003Z</time></trkpt><trkpt lat="44.8804867" lon="9.3121167"><ele>658.2</ele><time>2026-04-11T08:47:06.001Z</time></trkpt><trkpt lat="44.8805933" lon="9.3120333"><ele>656.6</ele><time>2026-04-11T08:47:08.002Z</time></trkpt><trkpt lat="44.8807033" lon="9.311965"><ele>655.0</ele><time>2026-04-11T08:47:10.001Z</time></trkpt><trkpt lat="44.8808167" lon="9.31193"><ele>655.0</ele><time>2026-04-11T08:47:12.003Z</time></trkpt><trkpt lat="44.88091" lon="9.3119"><ele>655.0</ele><time>2026-04-11T08:47:14.002Z</time></trkpt><trkpt lat="44.8809917" lon="9.3118617"><ele>655.0</ele><time>2026-04-11T08:47:16.001Z</time></trkpt><trkpt lat="44.8810633" lon="9.3118267"><ele>655.0</ele><time>2026-04-11T08:47:18.002Z</time></trkpt><trkpt lat="44.8811517" lon="9.3117967"><ele>655.0</ele><time>2026-04-11T08:47:20.001Z</time></trkpt><trkpt lat="44.8812367" lon="9.3117733"><ele>655.0</ele><time>2026-04-11T08:47:22.002Z</time></trkpt><trkpt lat="44.8813233" lon="9.3117217"><ele>651.3333333333334</ele><time>2026-04-11T08:47:25.001Z</time></trkpt><trkpt lat="44.8814017" lon="9.3116617"><ele>647.6666666666667</ele><time>2026-04-11T08:47:27.003Z</time></trkpt><trkpt lat="44.8814567" lon="9.311585"><ele>644.0</ele><time>2026-04-11T08:47:29.001Z</time></trkpt><trkpt lat="44.88148" lon="9.3115017"><ele>640.3333333333334</ele><time>2026-04-11T08:47:31.001Z</time></trkpt><trkpt lat="44.8814984" lon="9.3113922"><ele>636.6666666666666</ele><time>2026-04-11T08:47:33.081Z</time></trkpt><trkpt lat="44.8815254" lon="9.3112866"><ele>633.0</ele><time>2026-04-11T08:47:35.057Z</time></trkpt><trkpt lat="44.8816069" lon="9.311256"><ele>629.4</ele><time>2026-04-11T08:47:37.033Z</time></trkpt><trkpt lat="44.8816948" lon="9.3112094"><ele>625.8</ele><time>2026-04-11T08:47:39.009Z</time></trkpt><trkpt lat="44.8817685" lon="9.3111449"><ele>622.2</ele><time>2026-04-11T08:47:41.067Z</time></trkpt><trkpt lat="44.8818564" lon="9.3111745"><ele>618.6</ele><time>2026-04-11T08:47:43.003Z</time></trkpt><trkpt lat="44.8819638" lon="9.3111588"><ele>615.0</ele><time>2026-04-11T08:47:45.002Z</time></trkpt><trkpt lat="44.882057" lon="9.3111489"><ele>611.0</ele><time>2026-04-11T08:47:47Z</time></trkpt><trkpt lat="44.8821293" lon="9.3110906"><ele>607.0</ele><time>2026-04-11T08:47:49.002Z</time></trkpt><trkpt lat="44.8822183" lon="9.3110383"><ele>603.0</ele><time>2026-04-11T08:47:51.003Z</time></trkpt><trkpt lat="44.88232" lon="9.3110267"><ele>599.0</ele><time>2026-04-11T08:47:53.001Z</time></trkpt><trkpt lat="44.8824367" lon="9.3110017"><ele>595.0</ele><time>2026-04-11T08:47:55Z</time></trkpt><trkpt lat="44.8825483" lon="9.31098"><ele>595.0</ele><time>2026-04-11T08:47:57.001Z</time></trkpt><trkpt lat="44.8826317" lon="9.3109733"><ele>595.0</ele><time>2026-04-11T08:47:59Z</time></trkpt><trkpt lat="44.882705" lon="9.31099"><ele>595.0</ele><time>2026-04-11T08:48:01.003Z</time></trkpt><trkpt lat="44.8827067" lon="9.3108917"><ele>595.0</ele><time>2026-04-11T08:49:10.001Z</time></trkpt><trkpt lat="44.8826483" lon="9.3107583"><ele>595.0</ele><time>2026-04-11T08:49:12Z</time></trkpt><trkpt lat="44.882565" lon="9.3106217"><ele>594.0</ele><time>2026-04-11T08:49:14Z</time></trkpt><trkpt lat="44.8825233" lon="9.3105483"><ele>593.0</ele><time>2026-04-11T08:49:15.001Z</time></trkpt><trkpt lat="44.8824933" lon="9.3104667"><ele>592.0</ele><time>2026-04-11T08:49:16.001Z</time></trkpt><trkpt lat="44.88247" lon="9.3103767"><ele>591.0</ele><time>2026-04-11T08:49:17.001Z</time></trkpt><trkpt lat="44.882435" lon="9.3102167"><ele>590.0</ele><time>2026-04-11T08:49:19.001Z</time></trkpt><trkpt lat="44.88238" lon="9.310105"><ele>589.0</ele><time>2026-04-11T08:49:21.002Z</time></trkpt><trkpt lat="44.882335" lon="9.3100117"><ele>589.0</ele><time>2026-04-11T08:49:23.001Z</time></trkpt><trkpt lat="44.8823667" lon="9.309915"><ele>589.0</ele><time>2026-04-11T08:49:25.001Z</time></trkpt><trkpt lat="44.8824417" lon="9.3098217"><ele>589.0</ele><time>2026-04-11T08:49:27.002Z</time></trkpt><trkpt lat="44.8825167" lon="9.3096967"><ele>589.0</ele><time>2026-04-11T08:49:29.001Z</time></trkpt><trkpt lat="44.8826117" lon="9.3095967"><ele>589.0</ele><time>2026-04-11T08:49:31.001Z</time></trkpt><trkpt lat="44.8827083" lon="9.3095367"><ele>588.2</ele><time>2026-04-11T08:49:33.001Z</time></trkpt><trkpt lat="44.8828217" lon="9.3095"><ele>587.4</ele><time>2026-04-11T08:49:35.002Z</time></trkpt><trkpt lat="44.8828917" lon="9.3094117"><ele>586.6</ele><time>2026-04-11T08:49:37.001Z</time></trkpt><trkpt lat="44.882955" lon="9.3093367"><ele>585.8</ele><time>2026-04-11T08:49:39.001Z</time></trkpt><trkpt lat="44.88303" lon="9.309355"><ele>585.0</ele><time>2026-04-11T08:49:42.001Z</time></trkpt><trkpt lat="44.8830883" lon="9.3094683"><ele>585.0</ele><time>2026-04-11T08:49:45.003Z</time></trkpt><trkpt lat="44.8831433" lon="9.30955"><ele>585.0</ele><time>2026-04-11T08:49:47.001Z</time></trkpt><trkpt lat="44.88323" lon="9.3095933"><ele>585.0</ele><time>2026-04-11T08:49:50.001Z</time></trkpt><trkpt lat="44.88331" lon="9.3095533"><ele>585.0</ele><time>2026-04-11T08:49:52Z</time></trkpt><trkpt lat="44.8834067" lon="9.3094567"><ele>585.0</ele><time>2026-04-11T08:49:54.002Z</time></trkpt><trkpt lat="44.8835217" lon="9.3093967"><ele>582.6666666666666</ele><time>2026-04-11T08:49:56Z</time></trkpt><trkpt lat="44.8835967" lon="9.3093667"><ele>580.3333333333334</ele><time>2026-04-11T08:49:57.002Z</time></trkpt><trkpt lat="44.8836717" lon="9.3093333"><ele>578.0</ele><time>2026-04-11T08:49:58.001Z</time></trkpt><trkpt lat="44.8837383" lon="9.3092983"><ele>575.6666666666667</ele><time>2026-04-11T08:49:59.001Z</time></trkpt><trkpt lat="44.8838" lon="9.309265"><ele>573.3333333333334</ele><time>2026-04-11T08:50:00.001Z</time></trkpt><trkpt lat="44.8838633" lon="9.309235"><ele>571.0</ele><time>2026-04-11T08:50:01Z</time></trkpt><trkpt lat="44.8839633" lon="9.30915"><ele>571.0</ele><time>2026-04-11T08:50:03.002Z</time></trkpt><trkpt lat="44.8840267" lon="9.30912"><ele>571.0</ele><time>2026-04-11T08:50:04.001Z</time></trkpt><trkpt lat="44.8840983" lon="9.309095"><ele>571.0</ele><time>2026-04-11T08:50:05.001Z</time></trkpt><trkpt lat="44.8841767" lon="9.30907"><ele>571.0</ele><time>2026-04-11T08:50:06Z</time></trkpt><trkpt lat="44.884255" lon="9.309035"><ele>571.0</ele><time>2026-04-11T08:50:07.001Z</time></trkpt><trkpt lat="44.8843417" lon="9.3089883"><ele>571.0</ele><time>2026-04-11T08:50:08.002Z</time></trkpt><trkpt lat="44.8844283" lon="9.3089367"><ele>571.5714285714286</ele><time>2026-04-11T08:50:09.003Z</time></trkpt><trkpt lat="44.884505" lon="9.3088917"><ele>572.1428571428571</ele><time>2026-04-11T08:50:10.004Z</time></trkpt><trkpt lat="44.8845717" lon="9.308845"><ele>572.7142857142857</ele><time>2026-04-11T08:50:11.001Z</time></trkpt><trkpt lat="44.8846217" lon="9.3087883"><ele>573.2857142857142</ele><time>2026-04-11T08:50:12.001Z</time></trkpt><trkpt lat="44.88467" lon="9.3087117"><ele>573.8571428571428</ele><time>2026-04-11T08:50:13.001Z</time></trkpt><trkpt lat="44.8847233" lon="9.3086417"><ele>574.4285714285714</ele><time>2026-04-11T08:50:14.001Z</time></trkpt><trkpt lat="44.8847783" lon="9.3085733"><ele>575.0</ele><time>2026-04-11T08:50:15.003Z</time></trkpt><trkpt lat="44.884835" lon="9.3085083"><ele>575.0</ele><time>2026-04-11T08:50:16Z</time></trkpt><trkpt lat="44.884895" lon="9.308455"><ele>575.0</ele><time>2026-04-11T08:50:17Z</time></trkpt><trkpt lat="44.884955" lon="9.3084183"><ele>575.0</ele><time>2026-04-11T08:50:18.001Z</time></trkpt><trkpt lat="44.8850167" lon="9.3083883"><ele>575.0</ele><time>2026-04-11T08:50:19Z</time></trkpt><trkpt lat="44.885085" lon="9.3083533"><ele>575.0</ele><time>2026-04-11T08:50:20Z</time></trkpt><trkpt lat="44.885195" lon="9.308285"><ele>575.0</ele><time>2026-04-11T08:50:22Z</time></trkpt><trkpt lat="44.8853017" lon="9.3082733"><ele>573.0</ele><time>2026-04-11T08:50:24.001Z</time></trkpt><trkpt lat="44.8854183" lon="9.30829"><ele>571.0</ele><time>2026-04-11T08:50:26.001Z</time></trkpt><trkpt lat="44.8855383" lon="9.3082933"><ele>569.0</ele><time>2026-04-11T08:50:28.001Z</time></trkpt><trkpt lat="44.88565" lon="9.3082983"><ele>567.0</ele><time>2026-04-11T08:50:30.002Z</time></trkpt><trkpt lat="44.88575" lon="9.3083017"><ele>565.0</ele><time>2026-04-11T08:50:32Z</time></trkpt><trkpt lat="44.8858383" lon="9.3083"><ele>565.2</ele><time>2026-04-11T08:50:34.001Z</time></trkpt><trkpt lat="44.885945" lon="9.3083433"><ele>565.4</ele><time>2026-04-11T08:50:36.001Z</time></trkpt><trkpt lat="44.8860483" lon="9.308405"><ele>565.6</ele><time>2026-04-11T08:50:38.001Z</time></trkpt><trkpt lat="44.8861333" lon="9.3084633"><ele>565.8</ele><time>2026-04-11T08:50:40.001Z</time></trkpt><trkpt lat="44.88622" lon="9.3085033"><ele>566.0</ele><time>2026-04-11T08:50:42.001Z</time></trkpt><trkpt lat="44.8863033" lon="9.3085333"><ele>566.0</ele><time>2026-04-11T08:50:44.001Z</time></trkpt><trkpt lat="44.8864133" lon="9.3085667"><ele>566.0</ele><time>2026-04-11T08:50:46.002Z</time></trkpt><trkpt lat="44.8864833" lon="9.308585"><ele>566.0</ele><time>2026-04-11T08:50:47.002Z</time></trkpt><trkpt lat="44.88656" lon="9.3086033"><ele>566.0</ele><time>2026-04-11T08:50:48.002Z</time></trkpt><trkpt lat="44.8866233" lon="9.3086133"><ele>566.0</ele><time>2026-04-11T08:50:49.001Z</time></trkpt><trkpt lat="44.886745" lon="9.308605"><ele>566.0</ele><time>2026-04-11T08:50:51.002Z</time></trkpt><trkpt lat="44.8868083" lon="9.30861"><ele>565.8</ele><time>2026-04-11T08:50:52.001Z</time></trkpt><trkpt lat="44.88692" lon="9.3086267"><ele>565.6</ele><time>2026-04-11T08:50:54Z</time></trkpt><trkpt lat="44.887035" lon="9.3086133"><ele>565.4</ele><time>2026-04-11T08:50:56.001Z</time></trkpt><trkpt lat="44.8871233" lon="9.3085933"><ele>565.2</ele><time>2026-04-11T08:50:58.001Z</time></trkpt><trkpt lat="44.8872" lon="9.3085617"><ele>565.0</ele><time>2026-04-11T08:51:01.002Z</time></trkpt><trkpt lat="44.8872517" lon="9.3084433"><ele>565.0</ele><time>2026-04-11T08:51:04Z</time></trkpt><trkpt lat="44.8873" lon="9.3083667"><ele>565.0</ele><time>2026-04-11T08:51:06.002Z</time></trkpt><trkpt lat="44.8873633" lon="9.3083167"><ele>565.0</ele><time>2026-04-11T08:51:09.001Z</time></trkpt><trkpt lat="44.8874383" lon="9.3083867"><ele>565.0</ele><time>2026-04-11T08:51:16.003Z</time></trkpt><trkpt lat="44.887495" lon="9.3084867"><ele>565.0</ele><time>2026-04-11T08:51:19.001Z</time></trkpt><trkpt lat="44.8875517" lon="9.3085767"><ele>565.0</ele><time>2026-04-11T08:51:21.003Z</time></trkpt><trkpt lat="44.8875967" lon="9.3086867"><ele>561.8333333333334</ele><time>2026-04-11T08:51:23.002Z</time></trkpt><trkpt lat="44.8876283" lon="9.3088217"><ele>558.6666666666667</ele><time>2026-04-11T08:51:25.002Z</time></trkpt><trkpt lat="44.8876383" lon="9.3089467"><ele>555.5</ele><time>2026-04-11T08:51:27.002Z</time></trkpt><trkpt lat="44.8876433" lon="9.309055"><ele>552.3333333333334</ele><time>2026-04-11T08:51:29.002Z</time></trkpt><trkpt lat="44.887665" lon="9.3091433"><ele>549.1666666666666</ele><time>2026-04-11T08:51:31.001Z</time></trkpt><trkpt lat="44.8877117" lon="9.3092117"><ele>546.0</ele><time>2026-04-11T08:51:33.002Z</time></trkpt><trkpt lat="44.88778" lon="9.30926"><ele>544.2857142857143</ele><time>2026-04-11T08:51:35.001Z</time></trkpt><trkpt lat="44.88784" lon="9.3092933"><ele>542.5714285714286</ele><time>2026-04-11T08:51:37.001Z</time></trkpt><trkpt lat="44.8879067" lon="9.3093417"><ele>540.8571428571429</ele><time>2026-04-11T08:51:40.001Z</time></trkpt><trkpt lat="44.8879517" lon="9.309415"><ele>539.1428571428571</ele><time>2026-04-11T08:51:42.001Z</time></trkpt><trkpt lat="44.8879867" lon="9.3095017"><ele>537.4285714285714</ele><time>2026-04-11T08:51:44.003Z</time></trkpt><trkpt lat="44.8880017" lon="9.3096033"><ele>535.7142857142858</ele><time>2026-04-11T08:51:47Z</time></trkpt><trkpt lat="44.8879717" lon="9.30952"><ele>534.0</ele><time>2026-04-11T08:52:22.002Z</time></trkpt><trkpt lat="44.88793" lon="9.3093833"><ele>534.0</ele><time>2026-04-11T08:52:24.007Z</time></trkpt><trkpt lat="44.887885" lon="9.30922"><ele>534.0</ele><time>2026-04-11T08:52:26.001Z</time></trkpt><trkpt lat="44.88785" lon="9.3091183"><ele>534.0</ele><time>2026-04-11T08:52:27.001Z</time></trkpt><trkpt lat="44.887805" lon="9.3090033"><ele>534.0</ele><time>2026-04-11T08:52:28Z</time></trkpt><trkpt lat="44.8877617" lon="9.3088967"><ele>534.0</ele><time>2026-04-11T08:52:29Z</time></trkpt><trkpt lat="44.8877317" lon="9.3087983"><ele>536.0</ele><time>2026-04-11T08:52:30.001Z</time></trkpt><trkpt lat="44.8877117" lon="9.30869"><ele>538.0</ele><time>2026-04-11T08:52:31.001Z</time></trkpt><trkpt lat="44.887695" lon="9.308575"><ele>540.0</ele><time>2026-04-11T08:52:32.001Z</time></trkpt><trkpt lat="44.887685" lon="9.3084817"><ele>542.0</ele><time>2026-04-11T08:52:33.003Z</time></trkpt><trkpt lat="44.8876867" lon="9.308295"><ele>544.0</ele><time>2026-04-11T08:52:35Z</time></trkpt><trkpt lat="44.8876933" lon="9.308205"><ele>546.0</ele><time>2026-04-11T08:52:36.001Z</time></trkpt><trkpt lat="44.8877517" lon="9.3080717"><ele>548.1428571428571</ele><time>2026-04-11T08:52:38.001Z</time></trkpt><trkpt lat="44.8878033" lon="9.3080167"><ele>550.2857142857142</ele><time>2026-04-11T08:52:39.002Z</time></trkpt><trkpt lat="44.8878617" lon="9.307965"><ele>552.4285714285714</ele><time>2026-04-11T08:52:40.001Z</time></trkpt><trkpt lat="44.88792" lon="9.3079033"><ele>554.5714285714286</ele><time>2026-04-11T08:52:41.005Z</time></trkpt><trkpt lat="44.8879767" lon="9.3078367"><ele>556.7142857142857</ele><time>2026-04-11T08:52:42.001Z</time></trkpt><trkpt lat="44.8880367" lon="9.3077683"><ele>558.8571428571429</ele><time>2026-04-11T08:52:43.001Z</time></trkpt><trkpt lat="44.888105" lon="9.3077"><ele>561.0</ele><time>2026-04-11T08:52:44.002Z</time></trkpt><trkpt lat="44.8881883" lon="9.3076317"><ele>561.0</ele><time>2026-04-11T08:52:45.002Z</time></trkpt><trkpt lat="44.88828" lon="9.3075633"><ele>561.0</ele><time>2026-04-11T08:52:46Z</time></trkpt><trkpt lat="44.8883633" lon="9.3074967"><ele>561.0</ele><time>2026-04-11T08:52:47Z</time></trkpt><trkpt lat="44.888445" lon="9.307435"><ele>561.0</ele><time>2026-04-11T08:52:48.001Z</time></trkpt><trkpt lat="44.888525" lon="9.3073733"><ele>561.0</ele><time>2026-04-11T08:52:49Z</time></trkpt><trkpt lat="44.8886067" lon="9.307315"><ele>561.0</ele><time>2026-04-11T08:52:50.001Z</time></trkpt><trkpt lat="44.8886783" lon="9.3072667"><ele>561.0</ele><time>2026-04-11T08:52:51.002Z</time></trkpt><trkpt lat="44.8887417" lon="9.3072217"><ele>561.0</ele><time>2026-04-11T08:52:52.002Z</time></trkpt><trkpt lat="44.8888" lon="9.30718"><ele>561.0</ele><time>2026-04-11T08:52:53.001Z</time></trkpt><trkpt lat="44.8888833" lon="9.30712"><ele>561.0</ele><time>2026-04-11T08:52:55Z</time></trkpt><trkpt lat="44.8889267" lon="9.307055"><ele>561.0</ele><time>2026-04-11T08:52:58Z</time></trkpt><trkpt lat="44.88886" lon="9.30698"><ele>561.0</ele><time>2026-04-11T08:53:01Z</time></trkpt><trkpt lat="44.8887617" lon="9.3069233"><ele>561.0</ele><time>2026-04-11T08:53:03.002Z</time></trkpt><trkpt lat="44.8886933" lon="9.3068967"><ele>561.0</ele><time>2026-04-11T08:53:04.001Z</time></trkpt><trkpt lat="44.8886283" lon="9.3068733"><ele>561.0</ele><time>2026-04-11T08:53:05.001Z</time></trkpt><trkpt lat="44.8885617" lon="9.3068467"><ele>561.0</ele><time>2026-04-11T08:53:06.001Z</time></trkpt><trkpt lat="44.8884717" lon="9.3067833"><ele>561.0</ele><time>2026-04-11T08:53:08.001Z</time></trkpt><trkpt lat="44.8884283" lon="9.30663"><ele>562.0</ele><time>2026-04-11T08:53:10Z</time></trkpt><trkpt lat="44.8884" lon="9.3065333"><ele>563.0</ele><time>2026-04-11T08:53:11.002Z</time></trkpt><trkpt lat="44.8883633" lon="9.30643"><ele>564.0</ele><time>2026-04-11T08:53:12Z</time></trkpt><trkpt lat="44.88832" lon="9.3063233"><ele>565.0</ele><time>2026-04-11T08:53:13Z</time></trkpt><trkpt lat="44.8882767" lon="9.306205"><ele>566.0</ele><time>2026-04-11T08:53:14Z</time></trkpt><trkpt lat="44.888245" lon="9.3060767"><ele>567.0</ele><time>2026-04-11T08:53:15.002Z</time></trkpt><trkpt lat="44.88823" lon="9.3059417"><ele>567.0</ele><time>2026-04-11T08:53:16.001Z</time></trkpt><trkpt lat="44.8882167" lon="9.3058033"><ele>567.0</ele><time>2026-04-11T08:53:17Z</time></trkpt><trkpt lat="44.8882017" lon="9.30567"><ele>567.0</ele><time>2026-04-11T08:53:18.001Z</time></trkpt><trkpt lat="44.8881733" lon="9.3055517"><ele>567.0</ele><time>2026-04-11T08:53:19Z</time></trkpt><trkpt lat="44.88814" lon="9.305445"><ele>567.0</ele><time>2026-04-11T08:53:20.001Z</time></trkpt><trkpt lat="44.8881117" lon="9.3053283"><ele>566.6666666666666</ele><time>2026-04-11T08:53:21.002Z</time></trkpt><trkpt lat="44.888095" lon="9.3052017"><ele>566.3333333333334</ele><time>2026-04-11T08:53:22Z</time></trkpt><trkpt lat="44.88809" lon="9.3050833"><ele>566.0</ele><time>2026-04-11T08:53:23.003Z</time></trkpt><trkpt lat="44.88809" lon="9.3049733"><ele>565.6666666666667</ele><time>2026-04-11T08:53:24.004Z</time></trkpt><trkpt lat="44.8880917" lon="9.30487"><ele>565.3333333333334</ele><time>2026-04-11T08:53:25.001Z</time></trkpt><trkpt lat="44.88809" lon="9.3047667"><ele>565.0</ele><time>2026-04-11T08:53:26.001Z</time></trkpt><trkpt lat="44.8880833" lon="9.304665"><ele>564.8333333333334</ele><time>2026-04-11T08:53:27.001Z</time></trkpt><trkpt lat="44.8880733" lon="9.3045617"><ele>564.6666666666667</ele><time>2026-04-11T08:53:28Z</time></trkpt><trkpt lat="44.8880633" lon="9.3044567"><ele>564.5</ele><time>2026-04-11T08:53:29.001Z</time></trkpt><trkpt lat="44.88806" lon="9.3043483"><ele>564.3333333333334</ele><time>2026-04-11T08:53:30.002Z</time></trkpt><trkpt lat="44.8880567" lon="9.3042367"><ele>564.1666666666666</ele><time>2026-04-11T08:53:31Z</time></trkpt><trkpt lat="44.8880517" lon="9.3041217"><ele>564.0</ele><time>2026-04-11T08:53:32.003Z</time></trkpt><trkpt lat="44.88804" lon="9.3040067"><ele>563.8333333333334</ele><time>2026-04-11T08:53:33.001Z</time></trkpt><trkpt lat="44.8880267" lon="9.3038967"><ele>563.6666666666666</ele><time>2026-04-11T08:53:34Z</time></trkpt><trkpt lat="44.88801" lon="9.3037917"><ele>563.5</ele><time>2026-04-11T08:53:35.001Z</time></trkpt><trkpt lat="44.8879917" lon="9.3036883"><ele>563.3333333333333</ele><time>2026-04-11T08:53:36.001Z</time></trkpt><trkpt lat="44.8879717" lon="9.30359"><ele>563.1666666666666</ele><time>2026-04-11T08:53:37.002Z</time></trkpt><trkpt lat="44.887955" lon="9.3034933"><ele>563.0</ele><time>2026-04-11T08:53:38.001Z</time></trkpt><trkpt lat="44.8879333" lon="9.30334"><ele>563.0</ele><time>2026-04-11T08:53:40.001Z</time></trkpt><trkpt lat="44.887895" lon="9.3032583"><ele>563.0</ele><time>2026-04-11T08:53:42.001Z</time></trkpt><trkpt lat="44.8878183" lon="9.3032817"><ele>563.0</ele><time>2026-04-11T08:53:44.002Z</time></trkpt><trkpt lat="44.8877683" lon="9.3033567"><ele>563.0</ele><time>2026-04-11T08:53:45.003Z</time></trkpt><trkpt lat="44.8877183" lon="9.3034417"><ele>563.0</ele><time>2026-04-11T08:53:46.001Z</time></trkpt><trkpt lat="44.8876633" lon="9.303515"><ele>563.0</ele><time>2026-04-11T08:53:47.003Z</time></trkpt><trkpt lat="44.8876" lon="9.303565"><ele>563.0</ele><time>2026-04-11T08:53:48.002Z</time></trkpt><trkpt lat="44.8875333" lon="9.3035933"><ele>565.4</ele><time>2026-04-11T08:53:49.003Z</time></trkpt><trkpt lat="44.887455" lon="9.3036117"><ele>567.8</ele><time>2026-04-11T08:53:50.002Z</time></trkpt><trkpt lat="44.8873617" lon="9.3036317"><ele>570.2</ele><time>2026-04-11T08:53:51.002Z</time></trkpt><trkpt lat="44.8872633" lon="9.303655"><ele>572.6</ele><time>2026-04-11T08:53:52.002Z</time></trkpt><trkpt lat="44.88716" lon="9.3036733"><ele>575.0</ele><time>2026-04-11T08:53:53.003Z</time></trkpt><trkpt lat="44.8870567" lon="9.303685"><ele>575.0</ele><time>2026-04-11T08:53:54.002Z</time></trkpt><trkpt lat="44.8869533" lon="9.303685"><ele>575.0</ele><time>2026-04-11T08:53:55.002Z</time></trkpt><trkpt lat="44.8868633" lon="9.3037"><ele>575.0</ele><time>2026-04-11T08:53:56.001Z</time></trkpt><trkpt lat="44.8867817" lon="9.3037433"><ele>575.0</ele><time>2026-04-11T08:53:57.002Z</time></trkpt><trkpt lat="44.8866967" lon="9.30381"><ele>575.0</ele><time>2026-04-11T08:53:58.002Z</time></trkpt><trkpt lat="44.8866117" lon="9.3038867"><ele>579.2</ele><time>2026-04-11T08:53:59.001Z</time></trkpt><trkpt lat="44.8865233" lon="9.30396"><ele>583.4</ele><time>2026-04-11T08:54:00.004Z</time></trkpt><trkpt lat="44.8864367" lon="9.304035"><ele>587.6</ele><time>2026-04-11T08:54:01.002Z</time></trkpt><trkpt lat="44.88635" lon="9.3041133"><ele>591.8</ele><time>2026-04-11T08:54:02.003Z</time></trkpt><trkpt lat="44.88626" lon="9.304195"><ele>596.0</ele><time>2026-04-11T08:54:03.003Z</time></trkpt><trkpt lat="44.8861683" lon="9.30427"><ele>596.0</ele><time>2026-04-11T08:54:04.002Z</time></trkpt><trkpt lat="44.8860783" lon="9.3043383"><ele>596.0</ele><time>2026-04-11T08:54:05.004Z</time></trkpt><trkpt lat="44.885985" lon="9.3044017"><ele>596.0</ele><time>2026-04-11T08:54:06.003Z</time></trkpt><trkpt lat="44.8858967" lon="9.3044633"><ele>596.0</ele><time>2026-04-11T08:54:07.003Z</time></trkpt><trkpt lat="44.8858133" lon="9.304525"><ele>596.0</ele><time>2026-04-11T08:54:08.003Z</time></trkpt><trkpt lat="44.8857283" lon="9.304595"><ele>599.4</ele><time>2026-04-11T08:54:09.004Z</time></trkpt><trkpt lat="44.885645" lon="9.30466"><ele>602.8</ele><time>2026-04-11T08:54:10.002Z</time></trkpt><trkpt lat="44.8855617" lon="9.3047183"><ele>606.1999999999999</ele><time>2026-04-11T08:54:11.003Z</time></trkpt><trkpt lat="44.8854767" lon="9.304775"><ele>609.6</ele><time>2026-04-11T08:54:12.003Z</time></trkpt><trkpt lat="44.8853817" lon="9.304845"><ele>613.0</ele><time>2026-04-11T08:54:13.003Z</time></trkpt><trkpt lat="44.88528" lon="9.30493"><ele>614.4</ele><time>2026-04-11T08:54:14.003Z</time></trkpt><trkpt lat="44.8851867" lon="9.30502"><ele>615.8</ele><time>2026-04-11T08:54:15.003Z</time></trkpt><trkpt lat="44.8851" lon="9.3051067"><ele>617.2</ele><time>2026-04-11T08:54:16.002Z</time></trkpt><trkpt lat="44.88502" lon="9.3051733"><ele>618.6</ele><time>2026-04-11T08:54:17.003Z</time></trkpt><trkpt lat="44.8849417" lon="9.3052"><ele>620.0</ele><time>2026-04-11T08:54:18.001Z</time></trkpt><trkpt lat="44.8848583" lon="9.3051933"><ele>621.2</ele><time>2026-04-11T08:54:19.002Z</time></trkpt><trkpt lat="44.8847733" lon="9.3051317"><ele>622.4</ele><time>2026-04-11T08:54:20.002Z</time></trkpt><trkpt lat="44.8847" lon="9.305035"><ele>623.6</ele><time>2026-04-11T08:54:21.002Z</time></trkpt><trkpt lat="44.8846367" lon="9.304925"><ele>624.8</ele><time>2026-04-11T08:54:22.001Z</time></trkpt><trkpt lat="44.8845717" lon="9.3048217"><ele>626.0</ele><time>2026-04-11T08:54:23.002Z</time></trkpt><trkpt lat="44.8844967" lon="9.304715"><ele>626.0</ele><time>2026-04-11T08:54:24.001Z</time></trkpt><trkpt lat="44.8844067" lon="9.304615"><ele>626.0</ele><time>2026-04-11T08:54:25.006Z</time></trkpt><trkpt lat="44.8843167" lon="9.3045267"><ele>626.0</ele><time>2026-04-11T08:54:26.004Z</time></trkpt><trkpt lat="44.8842233" lon="9.30446"><ele>626.0</ele><time>2026-04-11T08:54:27.004Z</time></trkpt><trkpt lat="44.8841217" lon="9.3044117"><ele>626.0</ele><time>2026-04-11T08:54:28.003Z</time></trkpt><trkpt lat="44.8840167" lon="9.30437"><ele>628.0</ele><time>2026-04-11T08:54:29.004Z</time></trkpt><trkpt lat="44.8839217" lon="9.30433"><ele>630.0</ele><time>2026-04-11T08:54:30.003Z</time></trkpt><trkpt lat="44.8838417" lon="9.3042867"><ele>632.0</ele><time>2026-04-11T08:54:31.003Z</time></trkpt><trkpt lat="44.88378" lon="9.3042517"><ele>634.0</ele><time>2026-04-11T08:54:32.004Z</time></trkpt><trkpt lat="44.8837183" lon="9.3041883"><ele>636.0</ele><time>2026-04-11T08:54:34.003Z</time></trkpt><trkpt lat="44.8836767" lon="9.30411"><ele>638.0</ele><time>2026-04-11T08:54:37.002Z</time></trkpt><trkpt lat="44.8836067" lon="9.30402"><ele>635.0</ele><time>2026-04-11T08:54:39.005Z</time></trkpt><trkpt lat="44.8835417" lon="9.3039117"><ele>632.0</ele><time>2026-04-11T08:54:41.002Z</time></trkpt><trkpt lat="44.8834733" lon="9.30377"><ele>629.0</ele><time>2026-04-11T08:54:43.003Z</time></trkpt><trkpt lat="44.8834233" lon="9.3036333"><ele>626.0</ele><time>2026-04-11T08:54:45.003Z</time></trkpt><trkpt lat="44.8834233" lon="9.30346"><ele>628.8</ele><time>2026-04-11T08:54:47.001Z</time></trkpt><trkpt lat="44.88342" lon="9.3033633"><ele>631.6</ele><time>2026-04-11T08:54:48.002Z</time></trkpt><trkpt lat="44.8833933" lon="9.30322"><ele>634.4</ele><time>2026-04-11T08:54:50.001Z</time></trkpt><trkpt lat="44.8833233" lon="9.3030917"><ele>637.2</ele><time>2026-04-11T08:54:52.001Z</time></trkpt><trkpt lat="44.8832717" lon="9.3030367"><ele>640.0</ele><time>2026-04-11T08:54:53.003Z</time></trkpt><trkpt lat="44.8831683" lon="9.30293"><ele>640.0</ele><time>2026-04-11T08:54:55.002Z</time></trkpt><trkpt lat="44.88311" lon="9.3028533"><ele>640.0</ele><time>2026-04-11T08:54:56.001Z</time></trkpt><trkpt lat="44.883065" lon="9.3027617"><ele>640.0</ele><time>2026-04-11T08:54:57.002Z</time></trkpt><trkpt lat="44.8830267" lon="9.3026683"><ele>640.0</ele><time>2026-04-11T08:54:58.001Z</time></trkpt><trkpt lat="44.8829917" lon="9.3025883"><ele>640.0</ele><time>2026-04-11T08:54:59.002Z</time></trkpt><trkpt lat="44.882915" lon="9.3024667"><ele>640.0</ele><time>2026-04-11T08:55:01.001Z</time></trkpt><trkpt lat="44.8828433" lon="9.3023483"><ele>638.8333333333334</ele><time>2026-04-11T08:55:03.003Z</time></trkpt><trkpt lat="44.8827733" lon="9.30221"><ele>637.6666666666667</ele><time>2026-04-11T08:55:05.002Z</time></trkpt><trkpt lat="44.8827283" lon="9.3021117"><ele>636.5</ele><time>2026-04-11T08:55:07.05Z</time></trkpt><trkpt lat="44.8826767" lon="9.3020133"><ele>635.3333333333334</ele><time>2026-04-11T08:55:09.002Z</time></trkpt><trkpt lat="44.8826233" lon="9.3019267"><ele>634.1666666666666</ele><time>2026-04-11T08:55:11.005Z</time></trkpt><trkpt lat="44.88259" lon="9.3018367"><ele>633.0</ele><time>2026-04-11T08:55:25.002Z</time></trkpt><trkpt lat="44.8825483" lon="9.3017517"><ele>636.4</ele><time>2026-04-11T08:55:28.001Z</time></trkpt><trkpt lat="44.8824983" lon="9.3016667"><ele>639.8</ele><time>2026-04-11T08:55:30.001Z</time></trkpt><trkpt lat="44.8824233" lon="9.3015633"><ele>643.2</ele><time>2026-04-11T08:55:32.001Z</time></trkpt><trkpt lat="44.8823267" lon="9.301445"><ele>646.6</ele><time>2026-04-11T08:55:34.002Z</time></trkpt><trkpt lat="44.8822333" lon="9.30133"><ele>650.0</ele><time>2026-04-11T08:55:36.002Z</time></trkpt><trkpt lat="44.8821767" lon="9.301235"><ele>650.0</ele><time>2026-04-11T08:55:38.001Z</time></trkpt><trkpt lat="44.8821533" lon="9.3011"><ele>650.0</ele><time>2026-04-11T08:55:40Z</time></trkpt><trkpt lat="44.88211" lon="9.3009867"><ele>650.0</ele><time>2026-04-11T08:55:42.002Z</time></trkpt><trkpt lat="44.8820717" lon="9.3008483"><ele>650.0</ele><time>2026-04-11T08:55:44.001Z</time></trkpt><trkpt lat="44.8820417" lon="9.3007433"><ele>650.0</ele><time>2026-04-11T08:55:45.001Z</time></trkpt><trkpt lat="44.882015" lon="9.300625"><ele>648.6666666666666</ele><time>2026-04-11T08:55:46.001Z</time></trkpt><trkpt lat="44.88198" lon="9.300525"><ele>647.3333333333333</ele><time>2026-04-11T08:55:47.002Z</time></trkpt><trkpt lat="44.8819383" lon="9.300425"><ele>646.0</ele><time>2026-04-11T08:55:48.001Z</time></trkpt><trkpt lat="44.8819067" lon="9.30032"><ele>644.6666666666666</ele><time>2026-04-11T08:55:49.002Z</time></trkpt><trkpt lat="44.881895" lon="9.30022"><ele>643.3333333333334</ele><time>2026-04-11T08:55:50.002Z</time></trkpt><trkpt lat="44.8819" lon="9.3001133"><ele>642.0</ele><time>2026-04-11T08:55:51.002Z</time></trkpt><trkpt lat="44.8819017" lon="9.3000183"><ele>642.0</ele><time>2026-04-11T08:55:52.003Z</time></trkpt><trkpt lat="44.881895" lon="9.2999283"><ele>642.0</ele><time>2026-04-11T08:55:53.001Z</time></trkpt><trkpt lat="44.8818467" lon="9.29979"><ele>642.0</ele><time>2026-04-11T08:55:55.001Z</time></trkpt><trkpt lat="44.8818383" lon="9.2996467"><ele>642.0</ele><time>2026-04-11T08:55:57.003Z</time></trkpt><trkpt lat="44.8819167" lon="9.299555"><ele>642.0</ele><time>2026-04-11T08:55:59.001Z</time></trkpt><trkpt lat="44.8819833" lon="9.2995283"><ele>642.0</ele><time>2026-04-11T08:56:01.001Z</time></trkpt><trkpt lat="44.8820467" lon="9.299525"><ele>642.0</ele><time>2026-04-11T08:56:03.003Z</time></trkpt><trkpt lat="44.8821067" lon="9.2995717"><ele>642.0</ele><time>2026-04-11T08:56:06.003Z</time></trkpt><trkpt lat="44.8820267" lon="9.2996367"><ele>642.0</ele><time>2026-04-11T08:56:10.002Z</time></trkpt><trkpt lat="44.8819633" lon="9.2996167"><ele>642.0</ele><time>2026-04-11T08:56:12.002Z</time></trkpt><trkpt lat="44.881895" lon="9.2997333"><ele>642.0</ele><time>2026-04-11T08:56:34.003Z</time></trkpt><trkpt lat="44.8819033" lon="9.2998233"><ele>642.0</ele><time>2026-04-11T08:56:36.003Z</time></trkpt><trkpt lat="44.8819333" lon="9.2999117"><ele>641.9999999999999</ele><time>2026-04-11T08:56:38.004Z</time></trkpt><trkpt lat="44.881935" lon="9.3000217"><ele>642.0</ele><time>2026-04-11T08:56:40.006Z</time></trkpt><trkpt lat="44.8819283" lon="9.3001483"><ele>642.0</ele><time>2026-04-11T08:56:42.003Z</time></trkpt><trkpt lat="44.8819383" lon="9.3002533"><ele>642.0</ele><time>2026-04-11T08:56:44.003Z</time></trkpt><trkpt lat="44.8819617" lon="9.3003383"><ele>642.0</ele><time>2026-04-11T08:56:46.004Z</time></trkpt><trkpt lat="44.8820017" lon="9.3004233"><ele>641.9999999999999</ele><time>2026-04-11T08:56:48.001Z</time></trkpt><trkpt lat="44.88203" lon="9.30051"><ele>642.0</ele><time>2026-04-11T08:56:50.002Z</time></trkpt><trkpt lat="44.882075" lon="9.3006"><ele>643.3333333333334</ele><time>2026-04-11T08:56:55.002Z</time></trkpt><trkpt lat="44.8821033" lon="9.3006933"><ele>644.6666666666666</ele><time>2026-04-11T08:56:57.002Z</time></trkpt><trkpt lat="44.8821033" lon="9.3008583"><ele>646.0</ele><time>2026-04-11T08:57:23.002Z</time></trkpt><trkpt lat="44.882015" lon="9.3009083"><ele>647.3333333333333</ele><time>2026-04-11T08:59:10.002Z</time></trkpt><trkpt lat="44.881945" lon="9.3008533"><ele>648.6666666666666</ele><time>2026-04-11T08:59:41.001Z</time></trkpt><trkpt lat="44.8818683" lon="9.3008083"><ele>650.0</ele><time>2026-04-11T08:59:44.002Z</time></trkpt><trkpt lat="44.8817933" lon="9.30076"><ele>652.4</ele><time>2026-04-11T08:59:46.001Z</time></trkpt><trkpt lat="44.8816983" lon="9.3007"><ele>654.8</ele><time>2026-04-11T08:59:48.001Z</time></trkpt><trkpt lat="44.881605" lon="9.3006433"><ele>657.2</ele><time>2026-04-11T08:59:50.003Z</time></trkpt><trkpt lat="44.8815183" lon="9.3005867"><ele>659.6</ele><time>2026-04-11T08:59:52.003Z</time></trkpt><trkpt lat="44.88145" lon="9.3005"><ele>662.0</ele><time>2026-04-11T08:59:54.003Z</time></trkpt><trkpt lat="44.8814183" lon="9.3003783"><ele>662.0</ele><time>2026-04-11T08:59:56.002Z</time></trkpt><trkpt lat="44.881385" lon="9.3002633"><ele>662.0</ele><time>2026-04-11T08:59:58.001Z</time></trkpt><trkpt lat="44.8813917" lon="9.3000817"><ele>662.0</ele><time>2026-04-11T09:00:00.003Z</time></trkpt><trkpt lat="44.8814017" lon="9.2999633"><ele>662.0</ele><time>2026-04-11T09:00:01.002Z</time></trkpt><trkpt lat="44.881405" lon="9.2998483"><ele>662.0</ele><time>2026-04-11T09:00:02.003Z</time></trkpt><trkpt lat="44.881395" lon="9.29974"><ele>660.8571428571429</ele><time>2026-04-11T09:00:03.002Z</time></trkpt><trkpt lat="44.8813933" lon="9.2996233"><ele>659.7142857142857</ele><time>2026-04-11T09:00:04.004Z</time></trkpt><trkpt lat="44.88138" lon="9.2995267"><ele>658.5714285714286</ele><time>2026-04-11T09:00:05.003Z</time></trkpt><trkpt lat="44.8813667" lon="9.2994183"><ele>657.4285714285714</ele><time>2026-04-11T09:00:06.003Z</time></trkpt><trkpt lat="44.88137" lon="9.299315"><ele>656.2857142857143</ele><time>2026-04-11T09:00:07.003Z</time></trkpt><trkpt lat="44.8813583" lon="9.29922"><ele>655.1428571428571</ele><time>2026-04-11T09:00:08.003Z</time></trkpt><trkpt lat="44.8813533" lon="9.2991133"><ele>654.0</ele><time>2026-04-11T09:00:09.003Z</time></trkpt><trkpt lat="44.8813467" lon="9.2990117"><ele>654.3333333333334</ele><time>2026-04-11T09:00:10.002Z</time></trkpt><trkpt lat="44.881345" lon="9.2989033"><ele>654.6666666666666</ele><time>2026-04-11T09:00:11Z</time></trkpt><trkpt lat="44.8813317" lon="9.2987883"><ele>655.0</ele><time>2026-04-11T09:00:12.001Z</time></trkpt><trkpt lat="44.8813167" lon="9.298675"><ele>655.3333333333333</ele><time>2026-04-11T09:00:13.004Z</time></trkpt><trkpt lat="44.8813017" lon="9.2985533"><ele>655.6666666666666</ele><time>2026-04-11T09:00:14.002Z</time></trkpt><trkpt lat="44.8813017" lon="9.2984217"><ele>656.0</ele><time>2026-04-11T09:00:15.003Z</time></trkpt><trkpt lat="44.881315" lon="9.2982767"><ele>656.0</ele><time>2026-04-11T09:00:16.003Z</time></trkpt><trkpt lat="44.8813317" lon="9.2981383"><ele>656.0</ele><time>2026-04-11T09:00:17.002Z</time></trkpt><trkpt lat="44.8813383" lon="9.2980267"><ele>656.0</ele><time>2026-04-11T09:00:18.004Z</time></trkpt><trkpt lat="44.8812917" lon="9.297915"><ele>656.0</ele><time>2026-04-11T09:00:20.002Z</time></trkpt><trkpt lat="44.8812517" lon="9.297815"><ele>656.0</ele><time>2026-04-11T09:00:30.002Z</time></trkpt><trkpt lat="44.881155" lon="9.2977417"><ele>655.1999999999999</ele><time>2026-04-11T09:00:32.002Z</time></trkpt><trkpt lat="44.881035" lon="9.2976617"><ele>654.4</ele><time>2026-04-11T09:00:34.004Z</time></trkpt><trkpt lat="44.8809283" lon="9.29757"><ele>653.6</ele><time>2026-04-11T09:00:36.002Z</time></trkpt><trkpt lat="44.8808733" lon="9.2975033"><ele>652.8</ele><time>2026-04-11T09:00:37.004Z</time></trkpt><trkpt lat="44.88081" lon="9.2974433"><ele>652.0</ele><time>2026-04-11T09:00:38.003Z</time></trkpt><trkpt lat="44.8807383" lon="9.2973667"><ele>653.5</ele><time>2026-04-11T09:00:39.004Z</time></trkpt><trkpt lat="44.8806717" lon="9.2973033"><ele>655.0</ele><time>2026-04-11T09:00:40.002Z</time></trkpt><trkpt lat="44.8806167" lon="9.29724"><ele>656.5</ele><time>2026-04-11T09:00:41.004Z</time></trkpt><trkpt lat="44.8805717" lon="9.29717"><ele>658.0</ele><time>2026-04-11T09:00:42.003Z</time></trkpt><trkpt lat="44.880535" lon="9.2970817"><ele>659.5</ele><time>2026-04-11T09:00:43.005Z</time></trkpt><trkpt lat="44.8804867" lon="9.2969767"><ele>661.0</ele><time>2026-04-11T09:00:44.003Z</time></trkpt><trkpt lat="44.8804433" lon="9.29686"><ele>661.0</ele><time>2026-04-11T09:00:45.003Z</time></trkpt><trkpt lat="44.8804017" lon="9.2967517"><ele>661.0</ele><time>2026-04-11T09:00:46.002Z</time></trkpt><trkpt lat="44.8803583" lon="9.29665"><ele>661.0</ele><time>2026-04-11T09:00:47.002Z</time></trkpt><trkpt lat="44.88032" lon="9.2965483"><ele>661.0</ele><time>2026-04-11T09:00:48.001Z</time></trkpt><trkpt lat="44.8802817" lon="9.2964567"><ele>661.0</ele><time>2026-04-11T09:00:49.001Z</time></trkpt><trkpt lat="44.8802483" lon="9.2963667"><ele>661.0</ele><time>2026-04-11T09:00:50.002Z</time></trkpt><trkpt lat="44.8802183" lon="9.2962717"><ele>661.8333333333334</ele><time>2026-04-11T09:00:51.003Z</time></trkpt><trkpt lat="44.8801883" lon="9.296185"><ele>662.6666666666667</ele><time>2026-04-11T09:00:52.003Z</time></trkpt><trkpt lat="44.8801533" lon="9.2961017"><ele>663.5</ele><time>2026-04-11T09:00:53.002Z</time></trkpt><trkpt lat="44.880115" lon="9.2960283"><ele>664.3333333333334</ele><time>2026-04-11T09:00:54.002Z</time></trkpt><trkpt lat="44.8800883" lon="9.2959433"><ele>665.1666666666666</ele><time>2026-04-11T09:00:55.004Z</time></trkpt><trkpt lat="44.88007" lon="9.295765"><ele>666.0</ele><time>2026-04-11T09:00:57.003Z</time></trkpt><trkpt lat="44.8800667" lon="9.295655"><ele>664.5999999999999</ele><time>2026-04-11T09:00:58.003Z</time></trkpt><trkpt lat="44.88006" lon="9.2955467"><ele>663.2</ele><time>2026-04-11T09:00:59.003Z</time></trkpt><trkpt lat="44.8800667" lon="9.2954483"><ele>661.8</ele><time>2026-04-11T09:01:00.002Z</time></trkpt><trkpt lat="44.8801067" lon="9.2952517"><ele>660.4000000000001</ele><time>2026-04-11T09:01:02.004Z</time></trkpt><trkpt lat="44.8801417" lon="9.29513"><ele>659.0</ele><time>2026-04-11T09:01:03.003Z</time></trkpt><trkpt lat="44.8801817" lon="9.2950017"><ele>658.3333333333333</ele><time>2026-04-11T09:01:04.003Z</time></trkpt><trkpt lat="44.8802217" lon="9.29488"><ele>657.6666666666666</ele><time>2026-04-11T09:01:05.003Z</time></trkpt><trkpt lat="44.880245" lon="9.29477"><ele>657.0</ele><time>2026-04-11T09:01:06.003Z</time></trkpt><trkpt lat="44.8802683" lon="9.294675"><ele>656.3333333333334</ele><time>2026-04-11T09:01:07.003Z</time></trkpt><trkpt lat="44.8802933" lon="9.2945817"><ele>655.6666666666667</ele><time>2026-04-11T09:01:08.002Z</time></trkpt><trkpt lat="44.8803317" lon="9.2944883"><ele>655.0</ele><time>2026-04-11T09:01:09.003Z</time></trkpt><trkpt lat="44.8803767" lon="9.2943883"><ele>655.0</ele><time>2026-04-11T09:01:10.003Z</time></trkpt><trkpt lat="44.88043" lon="9.2942917"><ele>655.0</ele><time>2026-04-11T09:01:11.002Z</time></trkpt><trkpt lat="44.88049" lon="9.294185"><ele>655.0</ele><time>2026-04-11T09:01:12.002Z</time></trkpt><trkpt lat="44.88054" lon="9.2940733"><ele>655.0</ele><time>2026-04-11T09:01:13.003Z</time></trkpt><trkpt lat="44.8805867" lon="9.2939583"><ele>655.0</ele><time>2026-04-11T09:01:14.002Z</time></trkpt><trkpt lat="44.8806367" lon="9.2938517"><ele>654.5</ele><time>2026-04-11T09:01:15.002Z</time></trkpt><trkpt lat="44.88069" lon="9.2937583"><ele>654.0</ele><time>2026-04-11T09:01:16.001Z</time></trkpt><trkpt lat="44.8807533" lon="9.293695"><ele>653.5</ele><time>2026-04-11T09:01:17.001Z</time></trkpt><trkpt lat="44.8808283" lon="9.2936083"><ele>653.0</ele><time>2026-04-11T09:01:18.004Z</time></trkpt><trkpt lat="44.8808917" lon="9.29352"><ele>652.5</ele><time>2026-04-11T09:01:19.003Z</time></trkpt><trkpt lat="44.880945" lon="9.2934283"><ele>652.0</ele><time>2026-04-11T09:01:20.001Z</time></trkpt><trkpt lat="44.8809933" lon="9.2933317"><ele>652.0</ele><time>2026-04-11T09:01:21.001Z</time></trkpt><trkpt lat="44.8810283" lon="9.293225"><ele>652.0</ele><time>2026-04-11T09:01:22.001Z</time></trkpt><trkpt lat="44.8810667" lon="9.29314"><ele>652.0</ele><time>2026-04-11T09:01:23.003Z</time></trkpt><trkpt lat="44.881155" lon="9.29301"><ele>652.0</ele><time>2026-04-11T09:01:25.001Z</time></trkpt><trkpt lat="44.8812" lon="9.29294"><ele>652.0</ele><time>2026-04-11T09:01:26.002Z</time></trkpt><trkpt lat="44.88125" lon="9.2928783"><ele>652.0</ele><time>2026-04-11T09:01:27.002Z</time></trkpt><trkpt lat="44.8813067" lon="9.2928333"><ele>652.0</ele><time>2026-04-11T09:01:28.001Z</time></trkpt><trkpt lat="44.8813717" lon="9.2927817"><ele>652.0</ele><time>2026-04-11T09:01:29.003Z</time></trkpt><trkpt lat="44.8814417" lon="9.2927267"><ele>652.0</ele><time>2026-04-11T09:01:30.003Z</time></trkpt><trkpt lat="44.8815167" lon="9.2926533"><ele>652.0</ele><time>2026-04-11T09:01:31.002Z</time></trkpt><trkpt lat="44.8815867" lon="9.292575"><ele>652.0</ele><time>2026-04-11T09:01:32.002Z</time></trkpt><trkpt lat="44.8816433" lon="9.2924817"><ele>652.0</ele><time>2026-04-11T09:01:33.003Z</time></trkpt><trkpt lat="44.88169" lon="9.2923883"><ele>652.0</ele><time>2026-04-11T09:01:34.004Z</time></trkpt><trkpt lat="44.88174" lon="9.2922967"><ele>652.0</ele><time>2026-04-11T09:01:35.002Z</time></trkpt><trkpt lat="44.8817833" lon="9.2922083"><ele>652.0</ele><time>2026-04-11T09:01:36.002Z</time></trkpt><trkpt lat="44.881815" lon="9.2921117"><ele>652.0</ele><time>2026-04-11T09:01:37.003Z</time></trkpt><trkpt lat="44.8818383" lon="9.2920083"><ele>652.0</ele><time>2026-04-11T09:01:38.003Z</time></trkpt><trkpt lat="44.8818683" lon="9.291905"><ele>652.0</ele><time>2026-04-11T09:01:39.004Z</time></trkpt><trkpt lat="44.881915" lon="9.291795"><ele>651.0</ele><time>2026-04-11T09:01:40.002Z</time></trkpt><trkpt lat="44.8819717" lon="9.2916867"><ele>650.0</ele><time>2026-04-11T09:01:41.002Z</time></trkpt><trkpt lat="44.882035" lon="9.2915667"><ele>649.0</ele><time>2026-04-11T09:01:42.003Z</time></trkpt><trkpt lat="44.8821033" lon="9.2914433"><ele>648.0</ele><time>2026-04-11T09:01:43.003Z</time></trkpt><trkpt lat="44.8821617" lon="9.2913217"><ele>647.0</ele><time>2026-04-11T09:01:44.002Z</time></trkpt><trkpt lat="44.8822017" lon="9.29122"><ele>647.0</ele><time>2026-04-11T09:01:45.002Z</time></trkpt><trkpt lat="44.8822567" lon="9.29109"><ele>647.0</ele><time>2026-04-11T09:01:47.002Z</time></trkpt><trkpt lat="44.8821767" lon="9.2909633"><ele>647.0</ele><time>2026-04-11T09:02:29.002Z</time></trkpt><trkpt lat="44.8821233" lon="9.2908767"><ele>647.0</ele><time>2026-04-11T09:02:30.001Z</time></trkpt><trkpt lat="44.88207" lon="9.29078"><ele>647.0</ele><time>2026-04-11T09:02:31.002Z</time></trkpt><trkpt lat="44.8820133" lon="9.2906867"><ele>647.0</ele><time>2026-04-11T09:02:32.002Z</time></trkpt><trkpt lat="44.8819583" lon="9.2905933"><ele>647.0</ele><time>2026-04-11T09:02:33.003Z</time></trkpt><trkpt lat="44.8819033" lon="9.2905083"><ele>647.0</ele><time>2026-04-11T09:02:34.004Z</time></trkpt><trkpt lat="44.88185" lon="9.290425"><ele>647.0</ele><time>2026-04-11T09:02:35.003Z</time></trkpt><trkpt lat="44.881805" lon="9.2903367"><ele>647.0</ele><time>2026-04-11T09:02:36.003Z</time></trkpt><trkpt lat="44.8817517" lon="9.2902333"><ele>647.0</ele><time>2026-04-11T09:02:37.003Z</time></trkpt><trkpt lat="44.881695" lon="9.2901283"><ele>645.0</ele><time>2026-04-11T09:02:38.003Z</time></trkpt><trkpt lat="44.8816417" lon="9.2900217"><ele>643.0</ele><time>2026-04-11T09:02:39.005Z</time></trkpt><trkpt lat="44.88159" lon="9.2899133"><ele>641.0</ele><time>2026-04-11T09:02:40.004Z</time></trkpt><trkpt lat="44.8815367" lon="9.28981"><ele>639.0</ele><time>2026-04-11T09:02:41.002Z</time></trkpt><trkpt lat="44.881485" lon="9.2897233"><ele>637.0</ele><time>2026-04-11T09:02:42.001Z</time></trkpt><trkpt lat="44.8814217" lon="9.2896683"><ele>635.0</ele><time>2026-04-11T09:02:43.001Z</time></trkpt><trkpt lat="44.8813433" lon="9.28963"><ele>634.0</ele><time>2026-04-11T09:02:44.001Z</time></trkpt><trkpt lat="44.8812717" lon="9.28959"><ele>633.0</ele><time>2026-04-11T09:02:45.003Z</time></trkpt><trkpt lat="44.8812017" lon="9.28955"><ele>632.0</ele><time>2026-04-11T09:02:46.001Z</time></trkpt><trkpt lat="44.8811233" lon="9.2894917"><ele>631.0</ele><time>2026-04-11T09:02:47.001Z</time></trkpt><trkpt lat="44.88104" lon="9.2894267"><ele>630.0</ele><time>2026-04-11T09:02:48.002Z</time></trkpt><trkpt lat="44.8809533" lon="9.2893767"><ele>629.0</ele><time>2026-04-11T09:02:49.002Z</time></trkpt><trkpt lat="44.88087" lon="9.2893333"><ele>628.0</ele><time>2026-04-11T09:02:50.002Z</time></trkpt><trkpt lat="44.8807917" lon="9.2892833"><ele>627.0</ele><time>2026-04-11T09:02:51.001Z</time></trkpt><trkpt lat="44.8807233" lon="9.2892183"><ele>626.0</ele><time>2026-04-11T09:02:52.001Z</time></trkpt><trkpt lat="44.8806667" lon="9.289135"><ele>625.0</ele><time>2026-04-11T09:02:53.001Z</time></trkpt><trkpt lat="44.8806167" lon="9.2890283"><ele>624.0</ele><time>2026-04-11T09:02:54.002Z</time></trkpt><trkpt lat="44.880565" lon="9.2889133"><ele>623.0</ele><time>2026-04-11T09:02:55.001Z</time></trkpt><trkpt lat="44.880515" lon="9.2887967"><ele>621.6666666666666</ele><time>2026-04-11T09:02:56.002Z</time></trkpt><trkpt lat="44.880465" lon="9.2886767"><ele>620.3333333333333</ele><time>2026-04-11T09:02:57.002Z</time></trkpt><trkpt lat="44.8804217" lon="9.288555"><ele>619.0</ele><time>2026-04-11T09:02:58.001Z</time></trkpt><trkpt lat="44.88038" lon="9.2884517"><ele>617.6666666666666</ele><time>2026-04-11T09:02:59.002Z</time></trkpt><trkpt lat="44.88034" lon="9.28837"><ele>616.3333333333334</ele><time>2026-04-11T09:03:00.002Z</time></trkpt><trkpt lat="44.8802833" lon="9.2883"><ele>615.0</ele><time>2026-04-11T09:03:01.001Z</time></trkpt><trkpt lat="44.88022" lon="9.2882383"><ele>615.0</ele><time>2026-04-11T09:03:02.001Z</time></trkpt><trkpt lat="44.8801533" lon="9.2881667"><ele>615.0</ele><time>2026-04-11T09:03:03.004Z</time></trkpt><trkpt lat="44.88009" lon="9.2880917"><ele>615.0</ele><time>2026-04-11T09:03:04.002Z</time></trkpt><trkpt lat="44.880025" lon="9.2880267"><ele>615.0</ele><time>2026-04-11T09:03:05.002Z</time></trkpt><trkpt lat="44.8799583" lon="9.2879833"><ele>615.0</ele><time>2026-04-11T09:03:06.002Z</time></trkpt><trkpt lat="44.8798833" lon="9.2879583"><ele>615.0</ele><time>2026-04-11T09:03:07.002Z</time></trkpt><trkpt lat="44.8798033" lon="9.2879367"><ele>612.1666666666666</ele><time>2026-04-11T09:03:08.002Z</time></trkpt><trkpt lat="44.8797317" lon="9.2879117"><ele>609.3333333333334</ele><time>2026-04-11T09:03:09.002Z</time></trkpt><trkpt lat="44.87966" lon="9.2878933"><ele>606.5</ele><time>2026-04-11T09:03:10.001Z</time></trkpt><trkpt lat="44.8795917" lon="9.2878967"><ele>603.6666666666667</ele><time>2026-04-11T09:03:11.001Z</time></trkpt><trkpt lat="44.8794733" lon="9.2879067"><ele>600.8333333333334</ele><time>2026-04-11T09:03:13.001Z</time></trkpt><trkpt lat="44.8793817" lon="9.2878283"><ele>598.0</ele><time>2026-04-11T09:03:15.001Z</time></trkpt><trkpt lat="44.8793383" lon="9.2877517"><ele>598.0</ele><time>2026-04-11T09:03:16.001Z</time></trkpt><trkpt lat="44.8792833" lon="9.2876617"><ele>598.0</ele><time>2026-04-11T09:03:17.001Z</time></trkpt><trkpt lat="44.8792267" lon="9.2875717"><ele>598.0</ele><time>2026-04-11T09:03:18.002Z</time></trkpt><trkpt lat="44.8791683" lon="9.28749"><ele>598.0</ele><time>2026-04-11T09:03:19.001Z</time></trkpt><trkpt lat="44.879105" lon="9.2874167"><ele>598.0</ele><time>2026-04-11T09:03:20.002Z</time></trkpt><trkpt lat="44.87904" lon="9.2873683"><ele>598.0</ele><time>2026-04-11T09:03:21.002Z</time></trkpt><trkpt lat="44.8789733" lon="9.2873383"><ele>594.6</ele><time>2026-04-11T09:03:22.002Z</time></trkpt><trkpt lat="44.87891" lon="9.28732"><ele>591.1999999999999</ele><time>2026-04-11T09:03:23.004Z</time></trkpt><trkpt lat="44.8788067" lon="9.28724"><ele>587.8</ele><time>2026-04-11T09:03:25.005Z</time></trkpt><trkpt lat="44.8787333" lon="9.2871"><ele>584.4</ele><time>2026-04-11T09:03:27.003Z</time></trkpt><trkpt lat="44.8787067" lon="9.2870183"><ele>581.0</ele><time>2026-04-11T09:03:28.002Z</time></trkpt><trkpt lat="44.87867" lon="9.2869133"><ele>578.6</ele><time>2026-04-11T09:03:29.002Z</time></trkpt><trkpt lat="44.8786267" lon="9.2867867"><ele>576.2</ele><time>2026-04-11T09:03:30.002Z</time></trkpt><trkpt lat="44.8785833" lon="9.2866633"><ele>573.8</ele><time>2026-04-11T09:03:31.004Z</time></trkpt><trkpt lat="44.8785433" lon="9.2865533"><ele>571.4</ele><time>2026-04-11T09:03:32.004Z</time></trkpt><trkpt lat="44.8784967" lon="9.2864583"><ele>569.0</ele><time>2026-04-11T09:03:33.003Z</time></trkpt><trkpt lat="44.8784383" lon="9.2863667"><ele>562.6</ele><time>2026-04-11T09:03:34.002Z</time></trkpt><trkpt lat="44.8783633" lon="9.2862967"><ele>556.2</ele><time>2026-04-11T09:03:35.002Z</time></trkpt><trkpt lat="44.878285" lon="9.286235"><ele>549.8000000000001</ele><time>2026-04-11T09:03:36.003Z</time></trkpt><trkpt lat="44.8781983" lon="9.2861667"><ele>543.4</ele><time>2026-04-11T09:03:37.002Z</time></trkpt><trkpt lat="44.8781067" lon="9.2860967"><ele>537.0</ele><time>2026-04-11T09:03:38.003Z</time></trkpt><trkpt lat="44.8780133" lon="9.286035"><ele>537.0</ele><time>2026-04-11T09:03:39.003Z</time></trkpt><trkpt lat="44.8779117" lon="9.2859683"><ele>537.0</ele><time>2026-04-11T09:03:40.002Z</time></trkpt><trkpt lat="44.8778083" lon="9.2858967"><ele>537.0</ele><time>2026-04-11T09:03:41.002Z</time></trkpt><trkpt lat="44.8777133" lon="9.2858233"><ele>537.0</ele><time>2026-04-11T09:03:42.002Z</time></trkpt><trkpt lat="44.87763" lon="9.285755"><ele>537.0</ele><time>2026-04-11T09:03:43.001Z</time></trkpt><trkpt lat="44.87756" lon="9.285675"><ele>532.4</ele><time>2026-04-11T09:03:44.001Z</time></trkpt><trkpt lat="44.8775167" lon="9.2855867"><ele>527.8000000000001</ele><time>2026-04-11T09:03:45.002Z</time></trkpt><trkpt lat="44.8775167" lon="9.2854117"><ele>523.2</ele><time>2026-04-11T09:03:47.002Z</time></trkpt><trkpt lat="44.8775117" lon="9.285275"><ele>518.6</ele><time>2026-04-11T09:03:49.001Z</time></trkpt><trkpt lat="44.8774717" lon="9.2851667"><ele>514.0</ele><time>2026-04-11T09:03:51.002Z</time></trkpt><trkpt lat="44.8773667" lon="9.285095"><ele>514.0</ele><time>2026-04-11T09:03:53.002Z</time></trkpt><trkpt lat="44.8772917" lon="9.2850967"><ele>514.0</ele><time>2026-04-11T09:03:54.002Z</time></trkpt><trkpt lat="44.8772167" lon="9.2851083"><ele>514.0</ele><time>2026-04-11T09:03:55.004Z</time></trkpt><trkpt lat="44.8771483" lon="9.2850967"><ele>514.0</ele><time>2026-04-11T09:03:56.003Z</time></trkpt><trkpt lat="44.87708" lon="9.28507"><ele>514.0</ele><time>2026-04-11T09:03:57.004Z</time></trkpt><trkpt lat="44.8770033" lon="9.2850333"><ele>514.0</ele><time>2026-04-11T09:03:58.002Z</time></trkpt><trkpt lat="44.8769183" lon="9.2849833"><ele>514.0</ele><time>2026-04-11T09:03:59.002Z</time></trkpt><trkpt lat="44.8768417" lon="9.284935"><ele>514.0</ele><time>2026-04-11T09:04:00.002Z</time></trkpt><trkpt lat="44.8767583" lon="9.2848783"><ele>514.0</ele><time>2026-04-11T09:04:01.003Z</time></trkpt><trkpt lat="44.8766783" lon="9.2848217"><ele>514.0</ele><time>2026-04-11T09:04:02.004Z</time></trkpt><trkpt lat="44.8765983" lon="9.2847783"><ele>514.0</ele><time>2026-04-11T09:04:03.003Z</time></trkpt><trkpt lat="44.8765067" lon="9.2847417"><ele>514.0</ele><time>2026-04-11T09:04:04.001Z</time></trkpt><trkpt lat="44.8764117" lon="9.2846967"><ele>509.2</ele><time>2026-04-11T09:04:05.001Z</time></trkpt><trkpt lat="44.8763133" lon="9.2846383"><ele>504.4</ele><time>2026-04-11T09:04:06.001Z</time></trkpt><trkpt lat="44.8762183" lon="9.2845783"><ele>499.6</ele><time>2026-04-11T09:04:07.003Z</time></trkpt><trkpt lat="44.8761233" lon="9.28452"><ele>494.8</ele><time>2026-04-11T09:04:08.002Z</time></trkpt><trkpt lat="44.8760233" lon="9.2844633"><ele>490.0</ele><time>2026-04-11T09:04:09.002Z</time></trkpt><trkpt lat="44.8759283" lon="9.2844033"><ele>488.6</ele><time>2026-04-11T09:04:10.001Z</time></trkpt><trkpt lat="44.87583" lon="9.28435"><ele>487.2</ele><time>2026-04-11T09:04:11.001Z</time></trkpt><trkpt lat="44.875735" lon="9.2843033"><ele>485.79999999999995</ele><time>2026-04-11T09:04:12.002Z</time></trkpt><trkpt lat="44.8756417" lon="9.284255"><ele>484.4</ele><time>2026-04-11T09:04:13.001Z</time></trkpt><trkpt lat="44.875555" lon="9.2842133"><ele>483.0</ele><time>2026-04-11T09:04:14.002Z</time></trkpt><trkpt lat="44.87548" lon="9.284175"><ele>483.0</ele><time>2026-04-11T09:04:15.002Z</time></trkpt><trkpt lat="44.8754067" lon="9.28415"><ele>483.0</ele><time>2026-04-11T09:04:16.001Z</time></trkpt><trkpt lat="44.8753317" lon="9.284125"><ele>483.0</ele><time>2026-04-11T09:04:17.001Z</time></trkpt><trkpt lat="44.8752617" lon="9.28411"><ele>483.0</ele><time>2026-04-11T09:04:18.002Z</time></trkpt><trkpt lat="44.87519" lon="9.2841"><ele>483.0</ele><time>2026-04-11T09:04:19.003Z</time></trkpt><trkpt lat="44.8751233" lon="9.2840783"><ele>483.0</ele><time>2026-04-11T09:04:20.002Z</time></trkpt><trkpt lat="44.87506" lon="9.28404"><ele>483.0</ele><time>2026-04-11T09:04:21.002Z</time></trkpt><trkpt lat="44.8749983" lon="9.2839983"><ele>481.4</ele><time>2026-04-11T09:04:22.001Z</time></trkpt><trkpt lat="44.8748817" lon="9.2839117"><ele>479.79999999999995</ele><time>2026-04-11T09:04:24.002Z</time></trkpt><trkpt lat="44.8748317" lon="9.2838517"><ele>478.2</ele><time>2026-04-11T09:04:25.002Z</time></trkpt><trkpt lat="44.8748067" lon="9.2836933"><ele>476.6</ele><time>2026-04-11T09:04:27.002Z</time></trkpt><trkpt lat="44.8748083" lon="9.2835567"><ele>475.0</ele><time>2026-04-11T09:04:29.002Z</time></trkpt><trkpt lat="44.8747733" lon="9.28348"><ele>475.00000000000006</ele><time>2026-04-11T09:04:31.001Z</time></trkpt><trkpt lat="44.8746917" lon="9.28347"><ele>475.0</ele><time>2026-04-11T09:04:34.002Z</time></trkpt><trkpt lat="44.87462" lon="9.2835167"><ele>475.0</ele><time>2026-04-11T09:04:37.002Z</time></trkpt><trkpt lat="44.8745367" lon="9.28354"><ele>475.0</ele><time>2026-04-11T09:04:39.001Z</time></trkpt><trkpt lat="44.87445" lon="9.2835783"><ele>475.00000000000006</ele><time>2026-04-11T09:04:41.001Z</time></trkpt><trkpt lat="44.87435" lon="9.28362"><ele>475.0</ele><time>2026-04-11T09:04:43.002Z</time></trkpt><trkpt lat="44.8742617" lon="9.28365"><ele>473.50000000000006</ele><time>2026-04-11T09:04:45.002Z</time></trkpt><trkpt lat="44.8741767" lon="9.2836383"><ele>472.0</ele><time>2026-04-11T09:04:47.001Z</time></trkpt><trkpt lat="44.8741033" lon="9.28358"><ele>470.5</ele><time>2026-04-11T09:04:49.001Z</time></trkpt><trkpt lat="44.8740383" lon="9.2835067"><ele>469.0</ele><time>2026-04-11T09:04:51.002Z</time></trkpt><trkpt lat="44.8739883" lon="9.28342"><ele>467.50000000000006</ele><time>2026-04-11T09:04:53.002Z</time></trkpt><trkpt lat="44.873945" lon="9.2833533"><ele>466.0</ele><time>2026-04-11T09:04:55.003Z</time></trkpt><trkpt lat="44.8738917" lon="9.2832933"><ele>466.00000000000006</ele><time>2026-04-11T09:04:57.003Z</time></trkpt><trkpt lat="44.8738283" lon="9.2832317"><ele>466.0</ele><time>2026-04-11T09:04:59.004Z</time></trkpt><trkpt lat="44.873755" lon="9.283155"><ele>466.0</ele><time>2026-04-11T09:05:01.001Z</time></trkpt><trkpt lat="44.8736733" lon="9.2831267"><ele>466.0</ele><time>2026-04-11T09:05:03.001Z</time></trkpt><trkpt lat="44.8735983" lon="9.2831033"><ele>466.00000000000006</ele><time>2026-04-11T09:05:05.001Z</time></trkpt><trkpt lat="44.87352" lon="9.2830933"><ele>466.0</ele><time>2026-04-11T09:05:07.001Z</time></trkpt><trkpt lat="44.87345" lon="9.2830567"><ele>459.20000000000005</ele><time>2026-04-11T09:05:09.003Z</time></trkpt><trkpt lat="44.8733767" lon="9.2830133"><ele>452.40000000000003</ele><time>2026-04-11T09:05:11.002Z</time></trkpt><trkpt lat="44.8732967" lon="9.282985"><ele>445.6</ele><time>2026-04-11T09:05:13.002Z</time></trkpt><trkpt lat="44.8732" lon="9.2829483"><ele>438.8</ele><time>2026-04-11T09:05:15.001Z</time></trkpt><trkpt lat="44.8731" lon="9.2829133"><ele>432.0</ele><time>2026-04-11T09:05:17.001Z</time></trkpt><trkpt lat="44.8730017" lon="9.2829117"><ele>432.0</ele><time>2026-04-11T09:05:19.001Z</time></trkpt><trkpt lat="44.8729133" lon="9.2829117"><ele>432.0</ele><time>2026-04-11T09:05:21.002Z</time></trkpt><trkpt lat="44.87285" lon="9.28281"><ele>432.0</ele><time>2026-04-11T09:05:24.001Z</time></trkpt><trkpt lat="44.872795" lon="9.2826817"><ele>432.0</ele><time>2026-04-11T09:05:26.001Z</time></trkpt><trkpt lat="44.87276" lon="9.2826067"><ele>432.0</ele><time>2026-04-11T09:05:27.001Z</time></trkpt><trkpt lat="44.8727183" lon="9.2825117"><ele>432.0</ele><time>2026-04-11T09:05:28.002Z</time></trkpt><trkpt lat="44.8726733" lon="9.2824067"><ele>432.0</ele><time>2026-04-11T09:05:29.001Z</time></trkpt><trkpt lat="44.8726283" lon="9.2822917"><ele>432.00000000000006</ele><time>2026-04-11T09:05:30Z</time></trkpt><trkpt lat="44.8725817" lon="9.2821683"><ele>432.00000000000006</ele><time>2026-04-11T09:05:31Z</time></trkpt><trkpt lat="44.8725317" lon="9.28205"><ele>432.0</ele><time>2026-04-11T09:05:32.001Z</time></trkpt><trkpt lat="44.8724833" lon="9.2819417"><ele>432.0</ele><time>2026-04-11T09:05:33.004Z</time></trkpt><trkpt lat="44.87244" lon="9.281845"><ele>431.0</ele><time>2026-04-11T09:05:34.002Z</time></trkpt><trkpt lat="44.8724183" lon="9.2817483"><ele>430.0</ele><time>2026-04-11T09:05:35.002Z</time></trkpt><trkpt lat="44.8724267" lon="9.2816533"><ele>429.0</ele><time>2026-04-11T09:05:36.003Z</time></trkpt><trkpt lat="44.8724617" lon="9.281555"><ele>428.0</ele><time>2026-04-11T09:05:37.002Z</time></trkpt><trkpt lat="44.87252" lon="9.2814417"><ele>427.0</ele><time>2026-04-11T09:05:38.002Z</time></trkpt><trkpt lat="44.8725983" lon="9.2813183"><ele>426.0</ele><time>2026-04-11T09:05:39.004Z</time></trkpt><trkpt lat="44.87268" lon="9.2811983"><ele>424.6</ele><time>2026-04-11T09:05:40.002Z</time></trkpt><trkpt lat="44.872755" lon="9.2810867"><ele>423.20000000000005</ele><time>2026-04-11T09:05:41.001Z</time></trkpt><trkpt lat="44.8728183" lon="9.280975"><ele>421.79999999999995</ele><time>2026-04-11T09:05:42.001Z</time></trkpt><trkpt lat="44.8728683" lon="9.2808517"><ele>420.4</ele><time>2026-04-11T09:05:43.002Z</time></trkpt><trkpt lat="44.872905" lon="9.2807033"><ele>419.0</ele><time>2026-04-11T09:05:44.001Z</time></trkpt><trkpt lat="44.872935" lon="9.28056"><ele>419.0</ele><time>2026-04-11T09:05:45.001Z</time></trkpt><trkpt lat="44.8729533" lon="9.28043"><ele>419.0</ele><time>2026-04-11T09:05:46Z</time></trkpt><trkpt lat="44.8729617" lon="9.2803017"><ele>419.0</ele><time>2026-04-11T09:05:47.001Z</time></trkpt><trkpt lat="44.872955" lon="9.2801667"><ele>419.0</ele><time>2026-04-11T09:05:48.004Z</time></trkpt><trkpt lat="44.8729317" lon="9.280025"><ele>419.0</ele><time>2026-04-11T09:05:49.003Z</time></trkpt><trkpt lat="44.8728917" lon="9.2798883"><ele>419.4</ele><time>2026-04-11T09:05:50.001Z</time></trkpt><trkpt lat="44.8728433" lon="9.2797633"><ele>419.79999999999995</ele><time>2026-04-11T09:05:51.003Z</time></trkpt><trkpt lat="44.872795" lon="9.2796483"><ele>420.20000000000005</ele><time>2026-04-11T09:05:52.002Z</time></trkpt><trkpt lat="44.8727583" lon="9.2795417"><ele>420.6</ele><time>2026-04-11T09:05:53.003Z</time></trkpt><trkpt lat="44.8727283" lon="9.2794283"><ele>421.0</ele><time>2026-04-11T09:05:54.003Z</time></trkpt><trkpt lat="44.8727117" lon="9.2793083"><ele>421.0</ele><time>2026-04-11T09:05:55.002Z</time></trkpt><trkpt lat="44.872705" lon="9.2791883"><ele>421.0</ele><time>2026-04-11T09:05:56.002Z</time></trkpt><trkpt lat="44.8727" lon="9.2790883"><ele>421.0</ele><time>2026-04-11T09:05:57.002Z</time></trkpt><trkpt lat="44.8726933" lon="9.2789583"><ele>421.0</ele><time>2026-04-11T09:05:59.003Z</time></trkpt><trkpt lat="44.8726733" lon="9.27877"><ele>421.0</ele><time>2026-04-11T09:06:01.002Z</time></trkpt><trkpt lat="44.8726567" lon="9.2786517"><ele>421.6</ele><time>2026-04-11T09:06:02.002Z</time></trkpt><trkpt lat="44.87264" lon="9.27852"><ele>422.20000000000005</ele><time>2026-04-11T09:06:03.001Z</time></trkpt><trkpt lat="44.8726233" lon="9.2783817"><ele>422.79999999999995</ele><time>2026-04-11T09:06:04.001Z</time></trkpt><trkpt lat="44.8726117" lon="9.2782367"><ele>423.4</ele><time>2026-04-11T09:06:05.002Z</time></trkpt><trkpt lat="44.8726017" lon="9.2780867"><ele>424.0</ele><time>2026-04-11T09:06:06.003Z</time></trkpt><trkpt lat="44.87259" lon="9.2779383"><ele>425.79999999999995</ele><time>2026-04-11T09:06:07.001Z</time></trkpt><trkpt lat="44.872575" lon="9.2777917"><ele>427.59999999999997</ele><time>2026-04-11T09:06:08.003Z</time></trkpt><trkpt lat="44.8725533" lon="9.2776483"><ele>429.4</ele><time>2026-04-11T09:06:09.002Z</time></trkpt><trkpt lat="44.8725283" lon="9.2775067"><ele>431.2</ele><time>2026-04-11T09:06:10.001Z</time></trkpt><trkpt lat="44.8725033" lon="9.2773683"><ele>433.0</ele><time>2026-04-11T09:06:11.001Z</time></trkpt><trkpt lat="44.872475" lon="9.2772317"><ele>433.4</ele><time>2026-04-11T09:06:12.001Z</time></trkpt><trkpt lat="44.8724517" lon="9.277095"><ele>433.79999999999995</ele><time>2026-04-11T09:06:13.002Z</time></trkpt><trkpt lat="44.8724267" lon="9.2769683"><ele>434.2</ele><time>2026-04-11T09:06:14.001Z</time></trkpt><trkpt lat="44.8724017" lon="9.276845"><ele>434.6</ele><time>2026-04-11T09:06:15.001Z</time></trkpt><trkpt lat="44.8723783" lon="9.276715"><ele>435.0</ele><time>2026-04-11T09:06:16.001Z</time></trkpt><trkpt lat="44.8723567" lon="9.2765833"><ele>435.0</ele><time>2026-04-11T09:06:17.001Z</time></trkpt><trkpt lat="44.8723367" lon="9.2764517"><ele>435.0</ele><time>2026-04-11T09:06:18.001Z</time></trkpt><trkpt lat="44.87232" lon="9.2763117"><ele>435.0</ele><time>2026-04-11T09:06:19.001Z</time></trkpt><trkpt lat="44.8722983" lon="9.276165"><ele>435.0</ele><time>2026-04-11T09:06:20.001Z</time></trkpt><trkpt lat="44.8722583" lon="9.2760167"><ele>435.0</ele><time>2026-04-11T09:06:21.001Z</time></trkpt><trkpt lat="44.8721917" lon="9.275875"><ele>434.75</ele><time>2026-04-11T09:06:22.001Z</time></trkpt><trkpt lat="44.8721083" lon="9.2757483"><ele>434.5</ele><time>2026-04-11T09:06:23.002Z</time></trkpt><trkpt lat="44.8720167" lon="9.2756383"><ele>434.25</ele><time>2026-04-11T09:06:24.001Z</time></trkpt><trkpt lat="44.87192" lon="9.2755683"><ele>434.0</ele><time>2026-04-11T09:06:25.002Z</time></trkpt><trkpt lat="44.8718117" lon="9.2755317"><ele>436.75</ele><time>2026-04-11T09:06:26.001Z</time></trkpt><trkpt lat="44.871695" lon="9.2755367"><ele>439.5</ele><time>2026-04-11T09:06:27.002Z</time></trkpt><trkpt lat="44.8715733" lon="9.2755817"><ele>442.25</ele><time>2026-04-11T09:06:28.002Z</time></trkpt><trkpt lat="44.8714617" lon="9.275655"><ele>445.0</ele><time>2026-04-11T09:06:29.002Z</time></trkpt><trkpt lat="44.8713783" lon="9.275755"><ele>445.0</ele><time>2026-04-11T09:06:30.002Z</time></trkpt><trkpt lat="44.8713167" lon="9.2758833"><ele>445.0</ele><time>2026-04-11T09:06:31.001Z</time></trkpt><trkpt lat="44.871275" lon="9.276035"><ele>445.0</ele><time>2026-04-11T09:06:32.002Z</time></trkpt><trkpt lat="44.87125" lon="9.2761883"><ele>445.0</ele><time>2026-04-11T09:06:33.003Z</time></trkpt><trkpt lat="44.8712233" lon="9.2763283"><ele>445.0</ele><time>2026-04-11T09:06:34.004Z</time></trkpt><trkpt lat="44.871185" lon="9.2764517"><ele>445.00000000000006</ele><time>2026-04-11T09:06:35.003Z</time></trkpt><trkpt lat="44.8711267" lon="9.2765617"><ele>445.0</ele><time>2026-04-11T09:06:36.004Z</time></trkpt><trkpt lat="44.8710517" lon="9.2766367"><ele>445.0</ele><time>2026-04-11T09:06:37.001Z</time></trkpt><trkpt lat="44.87097" lon="9.27668"><ele>445.0</ele><time>2026-04-11T09:06:38.001Z</time></trkpt><trkpt lat="44.8708967" lon="9.2766967"><ele>445.00000000000006</ele><time>2026-04-11T09:06:39.001Z</time></trkpt><trkpt lat="44.8708033" lon="9.2767033"><ele>445.0</ele><time>2026-04-11T09:06:41.001Z</time></trkpt><trkpt lat="44.8707417" lon="9.27681"><ele>447.4</ele><time>2026-04-11T09:06:44.001Z</time></trkpt><trkpt lat="44.8707367" lon="9.2769067"><ele>449.8</ele><time>2026-04-11T09:06:45.001Z</time></trkpt><trkpt lat="44.87074" lon="9.2770333"><ele>452.20000000000005</ele><time>2026-04-11T09:06:46.001Z</time></trkpt><trkpt lat="44.87074" lon="9.27718"><ele>454.6</ele><time>2026-04-11T09:06:47.001Z</time></trkpt><trkpt lat="44.8707367" lon="9.2773217"><ele>457.0</ele><time>2026-04-11T09:06:48.002Z</time></trkpt><trkpt lat="44.8707283" lon="9.2774583"><ele>457.0</ele><time>2026-04-11T09:06:49.001Z</time></trkpt><trkpt lat="44.8707167" lon="9.2776033"><ele>457.00000000000006</ele><time>2026-04-11T09:06:50.001Z</time></trkpt><trkpt lat="44.8706967" lon="9.2777567"><ele>457.00000000000006</ele><time>2026-04-11T09:06:51.003Z</time></trkpt><trkpt lat="44.8706667" lon="9.2778983"><ele>457.0</ele><time>2026-04-11T09:06:52.001Z</time></trkpt><trkpt lat="44.870625" lon="9.27801"><ele>457.0</ele><time>2026-04-11T09:06:53.001Z</time></trkpt><trkpt lat="44.8705667" lon="9.27808"><ele>457.00000000000006</ele><time>2026-04-11T09:06:54.001Z</time></trkpt><trkpt lat="44.8705017" lon="9.278105"><ele>457.0</ele><time>2026-04-11T09:06:55.001Z</time></trkpt><trkpt lat="44.8704467" lon="9.2780617"><ele>457.0</ele><time>2026-04-11T09:06:56.001Z</time></trkpt><trkpt lat="44.87041" lon="9.2779783"><ele>457.0</ele><time>2026-04-11T09:06:57.001Z</time></trkpt><trkpt lat="44.8703867" lon="9.2778617"><ele>457.00000000000006</ele><time>2026-04-11T09:06:58.002Z</time></trkpt><trkpt lat="44.87037" lon="9.2777183"><ele>457.0</ele><time>2026-04-11T09:06:59.002Z</time></trkpt><trkpt lat="44.8703533" lon="9.2775667"><ele>457.0</ele><time>2026-04-11T09:07:00.002Z</time></trkpt><trkpt lat="44.8703417" lon="9.2774167"><ele>457.00000000000006</ele><time>2026-04-11T09:07:01.002Z</time></trkpt><trkpt lat="44.8703317" lon="9.277265"><ele>457.00000000000006</ele><time>2026-04-11T09:07:02.002Z</time></trkpt><trkpt lat="44.87032" lon="9.2771183"><ele>457.0</ele><time>2026-04-11T09:07:03.002Z</time></trkpt><trkpt lat="44.8703033" lon="9.2769767"><ele>457.0</ele><time>2026-04-11T09:07:04.002Z</time></trkpt><trkpt lat="44.8702733" lon="9.276845"><ele>457.0</ele><time>2026-04-11T09:07:05.001Z</time></trkpt><trkpt lat="44.870225" lon="9.2767183"><ele>457.00000000000006</ele><time>2026-04-11T09:07:06.002Z</time></trkpt><trkpt lat="44.870155" lon="9.2765933"><ele>457.00000000000006</ele><time>2026-04-11T09:07:07.003Z</time></trkpt><trkpt lat="44.87008" lon="9.2764633"><ele>457.0</ele><time>2026-04-11T09:07:08.003Z</time></trkpt><trkpt lat="44.8700167" lon="9.2763267"><ele>457.0</ele><time>2026-04-11T09:07:09.002Z</time></trkpt><trkpt lat="44.869965" lon="9.2761833"><ele>460.0</ele><time>2026-04-11T09:07:10.003Z</time></trkpt><trkpt lat="44.869925" lon="9.2760367"><ele>463.00000000000006</ele><time>2026-04-11T09:07:11.002Z</time></trkpt><trkpt lat="44.8699167" lon="9.2758983"><ele>466.00000000000006</ele><time>2026-04-11T09:07:12.003Z</time></trkpt><trkpt lat="44.869945" lon="9.2757717"><ele>469.0</ele><time>2026-04-11T09:07:13.003Z</time></trkpt><trkpt lat="44.8700133" lon="9.2756617"><ele>472.0</ele><time>2026-04-11T09:07:14.004Z</time></trkpt><trkpt lat="44.8701083" lon="9.2755833"><ele>472.0</ele><time>2026-04-11T09:07:15.003Z</time></trkpt><trkpt lat="44.8702083" lon="9.2755167"><ele>472.00000000000006</ele><time>2026-04-11T09:07:16.002Z</time></trkpt><trkpt lat="44.870295" lon="9.2754417"><ele>472.00000000000006</ele><time>2026-04-11T09:07:17.001Z</time></trkpt><trkpt lat="44.8703617" lon="9.2753483"><ele>472.0</ele><time>2026-04-11T09:07:18.001Z</time></trkpt><trkpt lat="44.8704067" lon="9.27523"><ele>472.0</ele><time>2026-04-11T09:07:19.001Z</time></trkpt><trkpt lat="44.870445" lon="9.2750967"><ele>472.00000000000006</ele><time>2026-04-11T09:07:20.003Z</time></trkpt><trkpt lat="44.8704733" lon="9.2749667"><ele>472.0</ele><time>2026-04-11T09:07:21.001Z</time></trkpt><trkpt lat="44.8705" lon="9.2748483"><ele>472.0</ele><time>2026-04-11T09:07:22.001Z</time></trkpt><trkpt lat="44.87052" lon="9.2747383"><ele>472.0</ele><time>2026-04-11T09:07:23.001Z</time></trkpt><trkpt lat="44.8705383" lon="9.2746367"><ele>472.00000000000006</ele><time>2026-04-11T09:07:24.001Z</time></trkpt><trkpt lat="44.87055" lon="9.2745483"><ele>472.0</ele><time>2026-04-11T09:07:25.001Z</time></trkpt><trkpt lat="44.8705567" lon="9.2744217"><ele>473.33333333333337</ele><time>2026-04-11T09:07:27.003Z</time></trkpt><trkpt lat="44.8705467" lon="9.2743283"><ele>474.6666666666667</ele><time>2026-04-11T09:07:30.001Z</time></trkpt><trkpt lat="44.870465" lon="9.2743083"><ele>476.0</ele><time>2026-04-11T09:07:33.002Z</time></trkpt><trkpt lat="44.8703817" lon="9.27433"><ele>477.33333333333337</ele><time>2026-04-11T09:07:35.001Z</time></trkpt><trkpt lat="44.8703217" lon="9.2744267"><ele>478.6666666666667</ele><time>2026-04-11T09:07:38.001Z</time></trkpt><trkpt lat="44.870315" lon="9.2745383"><ele>480.0</ele><time>2026-04-11T09:07:40.004Z</time></trkpt><trkpt lat="44.87027" lon="9.2746517"><ele>480.0</ele><time>2026-04-11T09:07:42.001Z</time></trkpt><trkpt lat="44.87018" lon="9.27474"><ele>480.0</ele><time>2026-04-11T09:07:44.001Z</time></trkpt><trkpt lat="44.870075" lon="9.2747367"><ele>480.0</ele><time>2026-04-11T09:07:46.001Z</time></trkpt><trkpt lat="44.8699967" lon="9.2746767"><ele>480.0</ele><time>2026-04-11T09:07:48.001Z</time></trkpt><trkpt lat="44.8699167" lon="9.274595"><ele>480.0</ele><time>2026-04-11T09:07:50.001Z</time></trkpt><trkpt lat="44.869815" lon="9.2745367"><ele>487.4</ele><time>2026-04-11T09:07:52.001Z</time></trkpt><trkpt lat="44.8697017" lon="9.2744967"><ele>494.8</ele><time>2026-04-11T09:07:54.001Z</time></trkpt><trkpt lat="44.869575" lon="9.2745017"><ele>502.20000000000005</ele><time>2026-04-11T09:07:56.001Z</time></trkpt><trkpt lat="44.869505" lon="9.27451"><ele>509.6</ele><time>2026-04-11T09:07:57.001Z</time></trkpt><trkpt lat="44.8693883" lon="9.2744817"><ele>517.0</ele><time>2026-04-11T09:07:59.002Z</time></trkpt><trkpt lat="44.86929" lon="9.27444"><ele>519.5</ele><time>2026-04-11T09:08:01.001Z</time></trkpt><trkpt lat="44.8692217" lon="9.274325"><ele>522.0</ele><time>2026-04-11T09:08:03.001Z</time></trkpt><trkpt lat="44.869185" lon="9.274245"><ele>524.5</ele><time>2026-04-11T09:08:04.001Z</time></trkpt><trkpt lat="44.86914" lon="9.2741517"><ele>527.0</ele><time>2026-04-11T09:08:05.002Z</time></trkpt><trkpt lat="44.8690933" lon="9.274075"><ele>529.5</ele><time>2026-04-11T09:08:06.002Z</time></trkpt><trkpt lat="44.8690433" lon="9.2740117"><ele>532.0</ele><time>2026-04-11T09:08:07.002Z</time></trkpt><trkpt lat="44.868935" lon="9.2739117"><ele>533.5</ele><time>2026-04-11T09:08:09.003Z</time></trkpt><trkpt lat="44.868875" lon="9.2738567"><ele>535.0</ele><time>2026-04-11T09:08:10.003Z</time></trkpt><trkpt lat="44.868815" lon="9.273805"><ele>536.5</ele><time>2026-04-11T09:08:11.001Z</time></trkpt><trkpt lat="44.8687617" lon="9.2737517"><ele>538.0</ele><time>2026-04-11T09:08:12.001Z</time></trkpt><trkpt lat="44.868705" lon="9.2736917"><ele>539.5</ele><time>2026-04-11T09:08:13.003Z</time></trkpt><trkpt lat="44.8686433" lon="9.273645"><ele>541.0</ele><time>2026-04-11T09:08:14.004Z</time></trkpt><trkpt lat="44.868535" lon="9.27359"><ele>543.6</ele><time>2026-04-11T09:08:16.004Z</time></trkpt><trkpt lat="44.8684217" lon="9.273565"><ele>546.2</ele><time>2026-04-11T09:08:18.002Z</time></trkpt><trkpt lat="44.86831" lon="9.2735133"><ele>548.8</ele><time>2026-04-11T09:08:20.002Z</time></trkpt><trkpt lat="44.8682183" lon="9.2734817"><ele>551.4</ele><time>2026-04-11T09:08:22.001Z</time></trkpt><trkpt lat="44.8681633" lon="9.2735367"><ele>554.0</ele><time>2026-04-11T09:08:24.001Z</time></trkpt><trkpt lat="44.8681383" lon="9.2736533"><ele>554.0</ele><time>2026-04-11T09:08:26.001Z</time></trkpt><trkpt lat="44.8681" lon="9.273785"><ele>554.0</ele><time>2026-04-11T09:08:28Z</time></trkpt><trkpt lat="44.8680533" lon="9.273845"><ele>554.0</ele><time>2026-04-11T09:08:29.002Z</time></trkpt><trkpt lat="44.868" lon="9.2738967"><ele>554.0</ele><time>2026-04-11T09:08:30.003Z</time></trkpt><trkpt lat="44.86793" lon="9.2739317"><ele>554.0</ele><time>2026-04-11T09:08:31.001Z</time></trkpt><trkpt lat="44.86786" lon="9.2739417"><ele>554.0</ele><time>2026-04-11T09:08:32.001Z</time></trkpt><trkpt lat="44.8677967" lon="9.2739383"><ele>554.0</ele><time>2026-04-11T09:08:33.001Z</time></trkpt><trkpt lat="44.867695" lon="9.2739733"><ele>555.6</ele><time>2026-04-11T09:08:35.002Z</time></trkpt><trkpt lat="44.8676267" lon="9.2740817"><ele>557.2</ele><time>2026-04-11T09:08:37.001Z</time></trkpt><trkpt lat="44.8675317" lon="9.2741783"><ele>558.8000000000001</ele><time>2026-04-11T09:08:39.001Z</time></trkpt><trkpt lat="44.8674033" lon="9.2742"><ele>560.4</ele><time>2026-04-11T09:08:41Z</time></trkpt><trkpt lat="44.8673233" lon="9.2741817"><ele>562.0</ele><time>2026-04-11T09:08:42.001Z</time></trkpt><trkpt lat="44.867245" lon="9.2741633"><ele>562.0</ele><time>2026-04-11T09:08:43.001Z</time></trkpt><trkpt lat="44.8671583" lon="9.274135"><ele>562.0</ele><time>2026-04-11T09:08:44.002Z</time></trkpt><trkpt lat="44.8670717" lon="9.2741083"><ele>562.0</ele><time>2026-04-11T09:08:45.002Z</time></trkpt><trkpt lat="44.8669883" lon="9.2740767"><ele>562.0</ele><time>2026-04-11T09:08:46.001Z</time></trkpt><trkpt lat="44.866915" lon="9.2740333"><ele>562.0</ele><time>2026-04-11T09:08:47.001Z</time></trkpt><trkpt lat="44.8668517" lon="9.2739883"><ele>562.0</ele><time>2026-04-11T09:08:48.001Z</time></trkpt><trkpt lat="44.8667483" lon="9.2739367"><ele>565.8333333333334</ele><time>2026-04-11T09:08:50.001Z</time></trkpt><trkpt lat="44.8666667" lon="9.2739983"><ele>569.6666666666667</ele><time>2026-04-11T09:08:52.001Z</time></trkpt><trkpt lat="44.8665683" lon="9.2741"><ele>573.5</ele><time>2026-04-11T09:08:54.002Z</time></trkpt><trkpt lat="44.8665167" lon="9.274155"><ele>577.3333333333334</ele><time>2026-04-11T09:08:55.001Z</time></trkpt><trkpt lat="44.8664617" lon="9.2742317"><ele>581.1666666666666</ele><time>2026-04-11T09:08:56.001Z</time></trkpt><trkpt lat="44.8663983" lon="9.2742967"><ele>585.0</ele><time>2026-04-11T09:08:57.001Z</time></trkpt><trkpt lat="44.866305" lon="9.2744083"><ele>585.0</ele><time>2026-04-11T09:08:59.001Z</time></trkpt><trkpt lat="44.8662117" lon="9.2745333"><ele>585.0</ele><time>2026-04-11T09:09:01.003Z</time></trkpt><trkpt lat="44.8661617" lon="9.2746117"><ele>585.0</ele><time>2026-04-11T09:09:02.002Z</time></trkpt><trkpt lat="44.8661033" lon="9.274695"><ele>585.0</ele><time>2026-04-11T09:09:03.002Z</time></trkpt><trkpt lat="44.8660483" lon="9.274765"><ele>585.0</ele><time>2026-04-11T09:09:04.001Z</time></trkpt><trkpt lat="44.8659917" lon="9.2748333"><ele>585.0</ele><time>2026-04-11T09:09:05.001Z</time></trkpt><trkpt lat="44.8659117" lon="9.2748933"><ele>586.3333333333334</ele><time>2026-04-11T09:09:06.002Z</time></trkpt><trkpt lat="44.8658433" lon="9.27494"><ele>587.6666666666666</ele><time>2026-04-11T09:09:07.002Z</time></trkpt><trkpt lat="44.8657617" lon="9.27499"><ele>589.0</ele><time>2026-04-11T09:09:08.003Z</time></trkpt><trkpt lat="44.8656783" lon="9.27504"><ele>590.3333333333333</ele><time>2026-04-11T09:09:09.003Z</time></trkpt><trkpt lat="44.865595" lon="9.2750883"><ele>591.6666666666666</ele><time>2026-04-11T09:09:10.001Z</time></trkpt><trkpt lat="44.8655017" lon="9.2751333"><ele>593.0</ele><time>2026-04-11T09:09:11.001Z</time></trkpt><trkpt lat="44.8654067" lon="9.2751667"><ele>593.0</ele><time>2026-04-11T09:09:12.001Z</time></trkpt><trkpt lat="44.8653267" lon="9.2751767"><ele>593.0</ele><time>2026-04-11T09:09:13Z</time></trkpt><trkpt lat="44.8652567" lon="9.275175"><ele>593.0</ele><time>2026-04-11T09:09:14.001Z</time></trkpt><trkpt lat="44.8651883" lon="9.2751633"><ele>593.0</ele><time>2026-04-11T09:09:15.001Z</time></trkpt><trkpt lat="44.8651183" lon="9.27513"><ele>593.0</ele><time>2026-04-11T09:09:16.002Z</time></trkpt><trkpt lat="44.8650417" lon="9.27508"><ele>593.0</ele><time>2026-04-11T09:09:17.001Z</time></trkpt><trkpt lat="44.8649467" lon="9.2750217"><ele>594.0</ele><time>2026-04-11T09:09:18.001Z</time></trkpt><trkpt lat="44.8648383" lon="9.27495"><ele>595.0</ele><time>2026-04-11T09:09:19.002Z</time></trkpt><trkpt lat="44.8647183" lon="9.2748733"><ele>596.0</ele><time>2026-04-11T09:09:20.002Z</time></trkpt><trkpt lat="44.8646083" lon="9.2747983"><ele>597.0</ele><time>2026-04-11T09:09:21.001Z</time></trkpt><trkpt lat="44.864505" lon="9.2747267"><ele>600.5</ele><time>2026-04-11T09:09:22.002Z</time></trkpt><trkpt lat="44.86441" lon="9.2746583"><ele>604.0</ele><time>2026-04-11T09:09:23.001Z</time></trkpt><trkpt lat="44.8643317" lon="9.2746133"><ele>607.5</ele><time>2026-04-11T09:09:24.001Z</time></trkpt><trkpt lat="44.86425" lon="9.2745717"><ele>611.0</ele><time>2026-04-11T09:09:25.002Z</time></trkpt><trkpt lat="44.8641683" lon="9.27454"><ele>614.5</ele><time>2026-04-11T09:09:26.001Z</time></trkpt><trkpt lat="44.8640933" lon="9.2745083"><ele>618.0</ele><time>2026-04-11T09:09:27.001Z</time></trkpt><trkpt lat="44.8639717" lon="9.2745167"><ele>619.1666666666666</ele><time>2026-04-11T09:09:29.001Z</time></trkpt><trkpt lat="44.863945" lon="9.2746417"><ele>620.3333333333334</ele><time>2026-04-11T09:09:31Z</time></trkpt><trkpt lat="44.86393" lon="9.2747667"><ele>621.5</ele><time>2026-04-11T09:09:32.003Z</time></trkpt><trkpt lat="44.863905" lon="9.274865"><ele>622.6666666666667</ele><time>2026-04-11T09:09:33.001Z</time></trkpt><trkpt lat="44.863805" lon="9.2749733"><ele>623.8333333333334</ele><time>2026-04-11T09:09:35Z</time></trkpt><trkpt lat="44.8637467" lon="9.2750133"><ele>625.0</ele><time>2026-04-11T09:09:36.001Z</time></trkpt><trkpt lat="44.8636517" lon="9.2750467"><ele>625.3333333333334</ele><time>2026-04-11T09:09:37.002Z</time></trkpt><trkpt lat="44.86357" lon="9.275065"><ele>625.6666666666667</ele><time>2026-04-11T09:09:38.001Z</time></trkpt><trkpt lat="44.8634717" lon="9.2750717"><ele>626.0</ele><time>2026-04-11T09:09:39.002Z</time></trkpt><trkpt lat="44.8633983" lon="9.2750833"><ele>626.3333333333334</ele><time>2026-04-11T09:09:40.001Z</time></trkpt><trkpt lat="44.8633117" lon="9.27513"><ele>626.6666666666666</ele><time>2026-04-11T09:09:42.001Z</time></trkpt><trkpt lat="44.8632633" lon="9.2752017"><ele>627.0</ele><time>2026-04-11T09:09:44.003Z</time></trkpt><trkpt lat="44.8632083" lon="9.2753117"><ele>627.0</ele><time>2026-04-11T09:09:46.003Z</time></trkpt><trkpt lat="44.8631483" lon="9.27543"><ele>627.0</ele><time>2026-04-11T09:09:48.004Z</time></trkpt><trkpt lat="44.8630983" lon="9.2755083"><ele>627.0</ele><time>2026-04-11T09:09:49.002Z</time></trkpt><trkpt lat="44.86305" lon="9.275585"><ele>627.0</ele><time>2026-04-11T09:09:50.001Z</time></trkpt><trkpt lat="44.8629833" lon="9.2756767"><ele>627.0</ele><time>2026-04-11T09:09:51.002Z</time></trkpt><trkpt lat="44.86292" lon="9.2757567"><ele>627.0</ele><time>2026-04-11T09:09:52.001Z</time></trkpt><trkpt lat="44.8628567" lon="9.2758233"><ele>628.1666666666666</ele><time>2026-04-11T09:09:53.001Z</time></trkpt><trkpt lat="44.8627917" lon="9.2758833"><ele>629.3333333333334</ele><time>2026-04-11T09:09:54.002Z</time></trkpt><trkpt lat="44.8627283" lon="9.275945"><ele>630.5</ele><time>2026-04-11T09:09:55.002Z</time></trkpt><trkpt lat="44.8626583" lon="9.276015"><ele>631.6666666666667</ele><time>2026-04-11T09:09:56.001Z</time></trkpt><trkpt lat="44.8625933" lon="9.27609"><ele>632.8333333333334</ele><time>2026-04-11T09:09:57.001Z</time></trkpt><trkpt lat="44.8625367" lon="9.2761533"><ele>634.0</ele><time>2026-04-11T09:09:58Z</time></trkpt><trkpt lat="44.862445" lon="9.2762233"><ele>634.0</ele><time>2026-04-11T09:10:00.003Z</time></trkpt><trkpt lat="44.86236" lon="9.2761967"><ele>634.0</ele><time>2026-04-11T09:10:02.001Z</time></trkpt><trkpt lat="44.8623467" lon="9.2760717"><ele>634.0</ele><time>2026-04-11T09:10:04.001Z</time></trkpt><trkpt lat="44.8623817" lon="9.2758933"><ele>634.0</ele><time>2026-04-11T09:10:06.001Z</time></trkpt><trkpt lat="44.8624117" lon="9.275795"><ele>634.0</ele><time>2026-04-11T09:10:07.001Z</time></trkpt><trkpt lat="44.86245" lon="9.2756833"><ele>632.8333333333334</ele><time>2026-04-11T09:10:08.001Z</time></trkpt><trkpt lat="44.8624767" lon="9.2755783"><ele>631.6666666666667</ele><time>2026-04-11T09:10:09.002Z</time></trkpt><trkpt lat="44.8624933" lon="9.275475"><ele>630.5</ele><time>2026-04-11T09:10:10.002Z</time></trkpt><trkpt lat="44.8625133" lon="9.2753667"><ele>629.3333333333334</ele><time>2026-04-11T09:10:11.001Z</time></trkpt><trkpt lat="44.862535" lon="9.2752583"><ele>628.1666666666666</ele><time>2026-04-11T09:10:12Z</time></trkpt><trkpt lat="44.8625733" lon="9.2751133"><ele>627.0</ele><time>2026-04-11T09:10:14.002Z</time></trkpt><trkpt lat="44.862645" lon="9.274955"><ele>627.0</ele><time>2026-04-11T09:10:16.001Z</time></trkpt><trkpt lat="44.8627167" lon="9.2748117"><ele>627.0</ele><time>2026-04-11T09:10:18.002Z</time></trkpt><trkpt lat="44.8627717" lon="9.2747583"><ele>627.0</ele><time>2026-04-11T09:10:19Z</time></trkpt><trkpt lat="44.862835" lon="9.2746967"><ele>627.0</ele><time>2026-04-11T09:10:20.003Z</time></trkpt><trkpt lat="44.8628817" lon="9.2746333"><ele>627.0</ele><time>2026-04-11T09:10:21.001Z</time></trkpt><trkpt lat="44.8629617" lon="9.2745317"><ele>627.0</ele><time>2026-04-11T09:10:22.001Z</time></trkpt><trkpt lat="44.8630333" lon="9.2744517"><ele>630.1666666666666</ele><time>2026-04-11T09:10:23.001Z</time></trkpt><trkpt lat="44.863095" lon="9.274375"><ele>633.3333333333334</ele><time>2026-04-11T09:10:24.002Z</time></trkpt><trkpt lat="44.86319" lon="9.27428"><ele>636.5</ele><time>2026-04-11T09:10:25.001Z</time></trkpt><trkpt lat="44.8632517" lon="9.2741933"><ele>639.6666666666667</ele><time>2026-04-11T09:10:26.003Z</time></trkpt><trkpt lat="44.8633017" lon="9.2741117"><ele>642.8333333333334</ele><time>2026-04-11T09:10:27.001Z</time></trkpt><trkpt lat="44.86332" lon="9.2740183"><ele>646.0</ele><time>2026-04-11T09:10:28.001Z</time></trkpt><trkpt lat="44.8633417" lon="9.2739283"><ele>644.6666666666667</ele><time>2026-04-11T09:10:29.002Z</time></trkpt><trkpt lat="44.8633767" lon="9.2738433"><ele>643.3333333333334</ele><time>2026-04-11T09:10:30.001Z</time></trkpt><trkpt lat="44.8634267" lon="9.2737667"><ele>642.0</ele><time>2026-04-11T09:10:31.001Z</time></trkpt><trkpt lat="44.8634667" lon="9.2736883"><ele>640.6666666666666</ele><time>2026-04-11T09:10:32.001Z</time></trkpt><trkpt lat="44.8635167" lon="9.2735267"><ele>639.3333333333333</ele><time>2026-04-11T09:10:34.003Z</time></trkpt><trkpt lat="44.863525" lon="9.2733683"><ele>638.0</ele><time>2026-04-11T09:10:36.004Z</time></trkpt><trkpt lat="44.86351" lon="9.2732"><ele>638.0</ele><time>2026-04-11T09:10:38.002Z</time></trkpt><trkpt lat="44.863495" lon="9.27311"><ele>638.0</ele><time>2026-04-11T09:10:39.004Z</time></trkpt><trkpt lat="44.863425" lon="9.272955"><ele>638.0</ele><time>2026-04-11T09:10:41.003Z</time></trkpt><trkpt lat="44.8633517" lon="9.27289"><ele>638.0</ele><time>2026-04-11T09:10:42.003Z</time></trkpt><trkpt lat="44.8632833" lon="9.272805"><ele>638.0</ele><time>2026-04-11T09:10:43Z</time></trkpt><trkpt lat="44.86322" lon="9.2726833"><ele>638.1999999999999</ele><time>2026-04-11T09:10:45.001Z</time></trkpt><trkpt lat="44.863175" lon="9.2726017"><ele>638.4</ele><time>2026-04-11T09:10:46.002Z</time></trkpt><trkpt lat="44.86313" lon="9.2725333"><ele>638.5999999999999</ele><time>2026-04-11T09:10:47.002Z</time></trkpt><trkpt lat="44.8630417" lon="9.2724317"><ele>638.8</ele><time>2026-04-11T09:10:49.002Z</time></trkpt><trkpt lat="44.8629633" lon="9.2723633"><ele>639.0</ele><time>2026-04-11T09:10:51.002Z</time></trkpt><trkpt lat="44.8628167" lon="9.2722483"><ele>641.1666666666666</ele><time>2026-04-11T09:11:54.001Z</time></trkpt><trkpt lat="44.8627633" lon="9.2722983"><ele>643.3333333333334</ele><time>2026-04-11T09:11:56Z</time></trkpt><trkpt lat="44.8626833" lon="9.2723967"><ele>645.5</ele><time>2026-04-11T09:11:58.001Z</time></trkpt><trkpt lat="44.8626" lon="9.2725083"><ele>647.6666666666667</ele><time>2026-04-11T09:12:00.001Z</time></trkpt><trkpt lat="44.86255" lon="9.2725817"><ele>649.8333333333334</ele><time>2026-04-11T09:12:02.002Z</time></trkpt><trkpt lat="44.86251" lon="9.2726833"><ele>652.0</ele><time>2026-04-11T09:12:04.002Z</time></trkpt><trkpt lat="44.8624717" lon="9.2728083"><ele>653.5</ele><time>2026-04-11T09:12:06.002Z</time></trkpt><trkpt lat="44.8624633" lon="9.2729567"><ele>655.0</ele><time>2026-04-11T09:12:08.003Z</time></trkpt><trkpt lat="44.862485" lon="9.2731333"><ele>656.5</ele><time>2026-04-11T09:12:10.001Z</time></trkpt><trkpt lat="44.8624883" lon="9.2733"><ele>658.0</ele><time>2026-04-11T09:12:12.002Z</time></trkpt><trkpt lat="44.86245" lon="9.273455"><ele>659.1666666666667</ele><time>2026-04-11T09:12:14.001Z</time></trkpt><trkpt lat="44.8624083" lon="9.273535"><ele>660.3333333333334</ele><time>2026-04-11T09:12:15.001Z</time></trkpt><trkpt lat="44.8623733" lon="9.2736117"><ele>661.5</ele><time>2026-04-11T09:12:16.002Z</time></trkpt><trkpt lat="44.8623433" lon="9.2736933"><ele>662.6666666666666</ele><time>2026-04-11T09:12:17.002Z</time></trkpt><trkpt lat="44.86228" lon="9.2738117"><ele>663.8333333333333</ele><time>2026-04-11T09:12:19.002Z</time></trkpt><trkpt lat="44.8621967" lon="9.2739033"><ele>665.0</ele><time>2026-04-11T09:12:21.002Z</time></trkpt><trkpt lat="44.8621017" lon="9.27397"><ele>665.0</ele><time>2026-04-11T09:12:23.003Z</time></trkpt><trkpt lat="44.86204" lon="9.2740017"><ele>665.0</ele><time>2026-04-11T09:12:24.003Z</time></trkpt><trkpt lat="44.861975" lon="9.2740367"><ele>665.0</ele><time>2026-04-11T09:12:25.004Z</time></trkpt><trkpt lat="44.861905" lon="9.2740783"><ele>665.0</ele><time>2026-04-11T09:12:26.003Z</time></trkpt><trkpt lat="44.8618283" lon="9.27413"><ele>665.0</ele><time>2026-04-11T09:12:27.003Z</time></trkpt><trkpt lat="44.8617583" lon="9.2741833"><ele>665.0</ele><time>2026-04-11T09:12:28.001Z</time></trkpt><trkpt lat="44.8616833" lon="9.2742433"><ele>668.3333333333333</ele><time>2026-04-11T09:12:29.001Z</time></trkpt><trkpt lat="44.8616083" lon="9.2743067"><ele>671.6666666666666</ele><time>2026-04-11T09:12:30.002Z</time></trkpt><trkpt lat="44.8615317" lon="9.2743691"><ele>675.0</ele><time>2026-04-11T09:12:31.001Z</time></trkpt><trkpt lat="44.861456" lon="9.2744205"><ele>678.3333333333334</ele><time>2026-04-11T09:12:32.001Z</time></trkpt><trkpt lat="44.861382" lon="9.2744504"><ele>681.6666666666667</ele><time>2026-04-11T09:12:33.002Z</time></trkpt><trkpt lat="44.8613091" lon="9.2744594"><ele>685.0</ele><time>2026-04-11T09:12:34.001Z</time></trkpt><trkpt lat="44.8612353" lon="9.2744737"><ele>685.0</ele><time>2026-04-11T09:12:35.003Z</time></trkpt><trkpt lat="44.861157" lon="9.2745111"><ele>685.0</ele><time>2026-04-11T09:12:36.001Z</time></trkpt><trkpt lat="44.8610689" lon="9.2745605"><ele>685.0</ele><time>2026-04-11T09:12:37.001Z</time></trkpt><trkpt lat="44.8609853" lon="9.2746042"><ele>685.0</ele><time>2026-04-11T09:12:38Z</time></trkpt><trkpt lat="44.8609054" lon="9.2746511"><ele>685.0</ele><time>2026-04-11T09:12:39.001Z</time></trkpt><trkpt lat="44.8608347" lon="9.2747043"><ele>685.0</ele><time>2026-04-11T09:12:40.002Z</time></trkpt><trkpt lat="44.860758" lon="9.2747587"><ele>687.4</ele><time>2026-04-11T09:12:41.001Z</time></trkpt><trkpt lat="44.8606833" lon="9.2748059"><ele>689.8</ele><time>2026-04-11T09:12:42.002Z</time></trkpt><trkpt lat="44.8606038" lon="9.2748438"><ele>692.2</ele><time>2026-04-11T09:12:43.001Z</time></trkpt><trkpt lat="44.8605087" lon="9.2748715"><ele>694.6</ele><time>2026-04-11T09:12:44.001Z</time></trkpt><trkpt lat="44.8604112" lon="9.2749035"><ele>697.0</ele><time>2026-04-11T09:12:45.003Z</time></trkpt><trkpt lat="44.8603256" lon="9.2749516"><ele>697.0</ele><time>2026-04-11T09:12:46.001Z</time></trkpt><trkpt lat="44.8602415" lon="9.2750165"><ele>697.0</ele><time>2026-04-11T09:12:47.001Z</time></trkpt><trkpt lat="44.8601619" lon="9.2750689"><ele>697.0</ele><time>2026-04-11T09:12:48.002Z</time></trkpt><trkpt lat="44.8600923" lon="9.2751084"><ele>697.0</ele><time>2026-04-11T09:12:49.003Z</time></trkpt><trkpt lat="44.8600217" lon="9.2751344"><ele>697.0</ele><time>2026-04-11T09:12:50.003Z</time></trkpt><trkpt lat="44.8599468" lon="9.2751498"><ele>697.0</ele><time>2026-04-11T09:12:51.003Z</time></trkpt><trkpt lat="44.8598592" lon="9.2751628"><ele>700.0</ele><time>2026-04-11T09:12:52.003Z</time></trkpt><trkpt lat="44.8597728" lon="9.2751764"><ele>703.0</ele><time>2026-04-11T09:12:53.002Z</time></trkpt><trkpt lat="44.8596796" lon="9.2751883"><ele>706.0</ele><time>2026-04-11T09:12:54.002Z</time></trkpt><trkpt lat="44.859591" lon="9.2751994"><ele>709.0</ele><time>2026-04-11T09:12:55.001Z</time></trkpt><trkpt lat="44.8595059" lon="9.2752085"><ele>712.0</ele><time>2026-04-11T09:12:56.001Z</time></trkpt><trkpt lat="44.8594325" lon="9.2752089"><ele>715.0</ele><time>2026-04-11T09:12:57.001Z</time></trkpt><trkpt lat="44.859361" lon="9.2751951"><ele>715.0</ele><time>2026-04-11T09:12:58.003Z</time></trkpt><trkpt lat="44.8592963" lon="9.2751819"><ele>715.0</ele><time>2026-04-11T09:12:59.001Z</time></trkpt><trkpt lat="44.8591977" lon="9.2752111"><ele>715.0</ele><time>2026-04-11T09:13:01Z</time></trkpt><trkpt lat="44.8590987" lon="9.2752415"><ele>715.0</ele><time>2026-04-11T09:13:03.002Z</time></trkpt><trkpt lat="44.859015" lon="9.2752577"><ele>715.0</ele><time>2026-04-11T09:13:05.002Z</time></trkpt><trkpt lat="44.8589555" lon="9.2753027"><ele>715.0</ele><time>2026-04-11T09:13:07Z</time></trkpt><trkpt lat="44.8588533" lon="9.2753517"><ele>718.1666666666667</ele><time>2026-04-11T09:14:31Z</time></trkpt><trkpt lat="44.858785" lon="9.275305"><ele>721.3333333333334</ele><time>2026-04-11T09:14:34Z</time></trkpt><trkpt lat="44.8587117" lon="9.2752767"><ele>724.5</ele><time>2026-04-11T09:14:37Z</time></trkpt><trkpt lat="44.8586267" lon="9.2753183"><ele>727.6666666666666</ele><time>2026-04-11T09:14:40.001Z</time></trkpt><trkpt lat="44.8585583" lon="9.2753433"><ele>730.8333333333333</ele><time>2026-04-11T09:14:42.001Z</time></trkpt><trkpt lat="44.8584367" lon="9.27539"><ele>734.0</ele><time>2026-04-11T09:16:30Z</time></trkpt><trkpt lat="44.8583367" lon="9.2754183"><ele>737.0</ele><time>2026-04-11T09:16:32Z</time></trkpt><trkpt lat="44.8582383" lon="9.2755"><ele>740.0</ele><time>2026-04-11T09:16:34.002Z</time></trkpt><trkpt lat="44.85818" lon="9.2755983"><ele>743.0</ele><time>2026-04-11T09:16:36.001Z</time></trkpt><trkpt lat="44.858115" lon="9.27562"><ele>746.0</ele><time>2026-04-11T09:16:38Z</time></trkpt><trkpt lat="44.8580367" lon="9.2756067"><ele>749.0</ele><time>2026-04-11T09:16:40.001Z</time></trkpt><trkpt lat="44.8579233" lon="9.2755967"><ele>749.0</ele><time>2026-04-11T09:16:42.001Z</time></trkpt><trkpt lat="44.8578533" lon="9.2755767"><ele>749.0</ele><time>2026-04-11T09:16:43Z</time></trkpt><trkpt lat="44.8577733" lon="9.2755533"><ele>749.0</ele><time>2026-04-11T09:16:44Z</time></trkpt><trkpt lat="44.8576933" lon="9.2755217"><ele>749.0</ele><time>2026-04-11T09:16:45.002Z</time></trkpt><trkpt lat="44.8576267" lon="9.2754867"><ele>749.0</ele><time>2026-04-11T09:16:46.001Z</time></trkpt><trkpt lat="44.85756" lon="9.27546"><ele>749.0</ele><time>2026-04-11T09:16:47.001Z</time></trkpt><trkpt lat="44.85749" lon="9.275445"><ele>749.0</ele><time>2026-04-11T09:16:48.001Z</time></trkpt><trkpt lat="44.857415" lon="9.2754367"><ele>751.1666666666666</ele><time>2026-04-11T09:16:49.002Z</time></trkpt><trkpt lat="44.8573383" lon="9.2754167"><ele>753.3333333333333</ele><time>2026-04-11T09:16:50.003Z</time></trkpt><trkpt lat="44.8572617" lon="9.2753933"><ele>755.5</ele><time>2026-04-11T09:16:51.004Z</time></trkpt><trkpt lat="44.8571433" lon="9.275375"><ele>757.6666666666666</ele><time>2026-04-11T09:16:53.003Z</time></trkpt><trkpt lat="44.857075" lon="9.275385"><ele>759.8333333333334</ele><time>2026-04-11T09:16:54.002Z</time></trkpt><trkpt lat="44.8570017" lon="9.2753833"><ele>762.0</ele><time>2026-04-11T09:16:55.002Z</time></trkpt><trkpt lat="44.856935" lon="9.275375"><ele>762.0</ele><time>2026-04-11T09:16:56.002Z</time></trkpt><trkpt lat="44.8568717" lon="9.2753683"><ele>762.0</ele><time>2026-04-11T09:16:57.002Z</time></trkpt><trkpt lat="44.8568017" lon="9.275355"><ele>762.0</ele><time>2026-04-11T09:16:58.002Z</time></trkpt><trkpt lat="44.8567317" lon="9.275335"><ele>762.0</ele><time>2026-04-11T09:16:59.002Z</time></trkpt><trkpt lat="44.8566583" lon="9.2752883"><ele>762.0</ele><time>2026-04-11T09:17:00.001Z</time></trkpt><trkpt lat="44.85659" lon="9.27522"><ele>762.0</ele><time>2026-04-11T09:17:01.001Z</time></trkpt><trkpt lat="44.85653" lon="9.2751617"><ele>762.0</ele><time>2026-04-11T09:17:02.001Z</time></trkpt><trkpt lat="44.85647" lon="9.2751117"><ele>763.0</ele><time>2026-04-11T09:17:03.001Z</time></trkpt><trkpt lat="44.8564067" lon="9.27508"><ele>764.0</ele><time>2026-04-11T09:17:04Z</time></trkpt><trkpt lat="44.8563417" lon="9.2750533"><ele>765.0</ele><time>2026-04-11T09:17:05Z</time></trkpt><trkpt lat="44.856265" lon="9.2750067"><ele>766.0</ele><time>2026-04-11T09:17:06.001Z</time></trkpt><trkpt lat="44.8562033" lon="9.2749617"><ele>767.0</ele><time>2026-04-11T09:17:07Z</time></trkpt><trkpt lat="44.8561283" lon="9.2749033"><ele>768.0</ele><time>2026-04-11T09:17:09.002Z</time></trkpt><trkpt lat="44.85606" lon="9.2748583"><ele>769.0</ele><time>2026-04-11T09:17:11.001Z</time></trkpt><trkpt lat="44.8559683" lon="9.27481"><ele>767.2</ele><time>2026-04-11T09:17:13Z</time></trkpt><trkpt lat="44.85585" lon="9.274755"><ele>765.4000000000001</ele><time>2026-04-11T09:17:15.001Z</time></trkpt><trkpt lat="44.8557867" lon="9.274725"><ele>763.6</ele><time>2026-04-11T09:17:16.002Z</time></trkpt><trkpt lat="44.85572" lon="9.2747017"><ele>761.8</ele><time>2026-04-11T09:17:17Z</time></trkpt><trkpt lat="44.8556033" lon="9.2746767"><ele>760.0</ele><time>2026-04-11T09:17:19.002Z</time></trkpt><trkpt lat="44.8554933" lon="9.27465"><ele>760.0</ele><time>2026-04-11T09:17:21.001Z</time></trkpt><trkpt lat="44.8553917" lon="9.2746367"><ele>760.0</ele><time>2026-04-11T09:17:23.001Z</time></trkpt><trkpt lat="44.855285" lon="9.2746367"><ele>760.0</ele><time>2026-04-11T09:17:25.002Z</time></trkpt><trkpt lat="44.855175" lon="9.2746533"><ele>760.0</ele><time>2026-04-11T09:17:27.002Z</time></trkpt><trkpt lat="44.8550633" lon="9.2746233"><ele>760.0</ele><time>2026-04-11T09:17:29.002Z</time></trkpt><trkpt lat="44.855" lon="9.2746083"><ele>758.6666666666667</ele><time>2026-04-11T09:17:30.001Z</time></trkpt><trkpt lat="44.8549" lon="9.27457"><ele>757.3333333333334</ele><time>2026-04-11T09:17:32.002Z</time></trkpt><trkpt lat="44.8548383" lon="9.2745267"><ele>756.0</ele><time>2026-04-11T09:17:34.002Z</time></trkpt><trkpt lat="44.8547617" lon="9.274485"><ele>754.6666666666666</ele><time>2026-04-11T09:17:36.001Z</time></trkpt><trkpt lat="44.8546817" lon="9.2744167"><ele>753.3333333333333</ele><time>2026-04-11T09:17:38.002Z</time></trkpt><trkpt lat="44.8546317" lon="9.2743383"><ele>752.0</ele><time>2026-04-11T09:17:40Z</time></trkpt><trkpt lat="44.8545583" lon="9.2742833"><ele>752.0</ele><time>2026-04-11T09:17:43.001Z</time></trkpt><trkpt lat="44.8545167" lon="9.2742017"><ele>752.0</ele><time>2026-04-11T09:17:45.002Z</time></trkpt><trkpt lat="44.8544733" lon="9.274115"><ele>752.0</ele><time>2026-04-11T09:17:47.001Z</time></trkpt><trkpt lat="44.8544233" lon="9.2740317"><ele>752.0</ele><time>2026-04-11T09:17:52.002Z</time></trkpt><trkpt lat="44.8543683" lon="9.27387"><ele>752.0</ele><time>2026-04-11T09:18:33.001Z</time></trkpt><trkpt lat="44.8542967" lon="9.2738133"><ele>752.0</ele><time>2026-04-11T09:18:35.001Z</time></trkpt><trkpt lat="44.8542167" lon="9.2737267"><ele>751.0</ele><time>2026-04-11T09:18:37.001Z</time></trkpt><trkpt lat="44.8541833" lon="9.2736"><ele>750.0</ele><time>2026-04-11T09:18:39.002Z</time></trkpt><trkpt lat="44.854165" lon="9.273445"><ele>749.0</ele><time>2026-04-11T09:18:41Z</time></trkpt><trkpt lat="44.8541583" lon="9.27335"><ele>748.0</ele><time>2026-04-11T09:18:42.002Z</time></trkpt><trkpt lat="44.85414" lon="9.27319"><ele>747.0</ele><time>2026-04-11T09:18:44.001Z</time></trkpt><trkpt lat="44.8540933" lon="9.2730617"><ele>747.0</ele><time>2026-04-11T09:18:46.002Z</time></trkpt><trkpt lat="44.8540233" lon="9.2730233"><ele>747.0</ele><time>2026-04-11T09:18:49.002Z</time></trkpt><trkpt lat="44.8539617" lon="9.27306"><ele>747.0</ele><time>2026-04-11T09:18:52Z</time></trkpt><trkpt lat="44.8538967" lon="9.273095"><ele>747.0</ele><time>2026-04-11T09:18:55.002Z</time></trkpt><trkpt lat="44.8538317" lon="9.2731367"><ele>747.0</ele><time>2026-04-11T09:18:57.001Z</time></trkpt><trkpt lat="44.853745" lon="9.2731783"><ele>747.0</ele><time>2026-04-11T09:18:59.002Z</time></trkpt><trkpt lat="44.8536417" lon="9.27324"><ele>747.0</ele><time>2026-04-11T09:19:01.002Z</time></trkpt><trkpt lat="44.8535817" lon="9.2732817"><ele>747.0</ele><time>2026-04-11T09:19:02.002Z</time></trkpt><trkpt lat="44.8535233" lon="9.273325"><ele>747.0</ele><time>2026-04-11T09:19:03.002Z</time></trkpt><trkpt lat="44.853445" lon="9.2734133"><ele>747.0</ele><time>2026-04-11T09:19:05.003Z</time></trkpt><trkpt lat="44.85336" lon="9.273495"><ele>747.0</ele><time>2026-04-11T09:19:07.001Z</time></trkpt><trkpt lat="44.8532367" lon="9.2735733"><ele>743.0</ele><time>2026-04-11T09:19:09.002Z</time></trkpt><trkpt lat="44.8531633" lon="9.2736183"><ele>739.0</ele><time>2026-04-11T09:19:10.002Z</time></trkpt><trkpt lat="44.8530817" lon="9.2736333"><ele>735.0</ele><time>2026-04-11T09:19:11.001Z</time></trkpt><trkpt lat="44.8529983" lon="9.27361"><ele>731.0</ele><time>2026-04-11T09:19:12.003Z</time></trkpt><trkpt lat="44.8529133" lon="9.27355"><ele>727.0</ele><time>2026-04-11T09:19:13.002Z</time></trkpt><trkpt lat="44.8528183" lon="9.2734783"><ele>727.0</ele><time>2026-04-11T09:19:14.002Z</time></trkpt><trkpt lat="44.852725" lon="9.2734067"><ele>727.0</ele><time>2026-04-11T09:19:15.003Z</time></trkpt><trkpt lat="44.8526367" lon="9.2733433"><ele>727.0</ele><time>2026-04-11T09:19:16.001Z</time></trkpt><trkpt lat="44.8525433" lon="9.2733083"><ele>727.0</ele><time>2026-04-11T09:19:17.001Z</time></trkpt><trkpt lat="44.852445" lon="9.2733183"><ele>727.0</ele><time>2026-04-11T09:19:18.001Z</time></trkpt><trkpt lat="44.85236" lon="9.2733767"><ele>727.0</ele><time>2026-04-11T09:19:19.002Z</time></trkpt><trkpt lat="44.852295" lon="9.2734867"><ele>727.0</ele><time>2026-04-11T09:19:20.002Z</time></trkpt><trkpt lat="44.8522417" lon="9.2736233"><ele>727.0</ele><time>2026-04-11T09:19:21.002Z</time></trkpt><trkpt lat="44.85218" lon="9.27377"><ele>727.0</ele><time>2026-04-11T09:19:22.001Z</time></trkpt><trkpt lat="44.8521117" lon="9.2739"><ele>727.0</ele><time>2026-04-11T09:19:23.002Z</time></trkpt><trkpt lat="44.8520483" lon="9.273995"><ele>727.0</ele><time>2026-04-11T09:19:24.002Z</time></trkpt><trkpt lat="44.85199" lon="9.2740633"><ele>727.0</ele><time>2026-04-11T09:19:25.002Z</time></trkpt><trkpt lat="44.8519317" lon="9.2741083"><ele>727.0</ele><time>2026-04-11T09:19:26.002Z</time></trkpt><trkpt lat="44.85184" lon="9.2741367"><ele>727.0</ele><time>2026-04-11T09:19:28.003Z</time></trkpt><trkpt lat="44.85174" lon="9.2741"><ele>727.0</ele><time>2026-04-11T09:19:56.001Z</time></trkpt><trkpt lat="44.8516833" lon="9.27401"><ele>727.0</ele><time>2026-04-11T09:19:58.001Z</time></trkpt><trkpt lat="44.8516467" lon="9.273925"><ele>729.4000000000001</ele><time>2026-04-11T09:19:59.003Z</time></trkpt><trkpt lat="44.8516033" lon="9.2738183"><ele>731.8000000000001</ele><time>2026-04-11T09:20:00.001Z</time></trkpt><trkpt lat="44.8515383" lon="9.273705"><ele>734.2</ele><time>2026-04-11T09:20:01.002Z</time></trkpt><trkpt lat="44.851445" lon="9.2735917"><ele>736.6</ele><time>2026-04-11T09:20:02.002Z</time></trkpt><trkpt lat="44.851355" lon="9.2734733"><ele>739.0</ele><time>2026-04-11T09:20:03.001Z</time></trkpt><trkpt lat="44.8512633" lon="9.2733617"><ele>739.0</ele><time>2026-04-11T09:20:04.001Z</time></trkpt><trkpt lat="44.851175" lon="9.273265"><ele>739.0</ele><time>2026-04-11T09:20:05.002Z</time></trkpt><trkpt lat="44.8510917" lon="9.2731733"><ele>739.0</ele><time>2026-04-11T09:20:06.002Z</time></trkpt><trkpt lat="44.8510167" lon="9.27309"><ele>739.0</ele><time>2026-04-11T09:20:07.001Z</time></trkpt><trkpt lat="44.850945" lon="9.2730067"><ele>739.0</ele><time>2026-04-11T09:20:08.002Z</time></trkpt><trkpt lat="44.8508717" lon="9.272925"><ele>741.8333333333334</ele><time>2026-04-11T09:20:09.002Z</time></trkpt><trkpt lat="44.8508" lon="9.272855"><ele>744.6666666666667</ele><time>2026-04-11T09:20:10.001Z</time></trkpt><trkpt lat="44.8507217" lon="9.2728017"><ele>747.5</ele><time>2026-04-11T09:20:11.003Z</time></trkpt><trkpt lat="44.85066" lon="9.2727467"><ele>750.3333333333334</ele><time>2026-04-11T09:20:12.002Z</time></trkpt><trkpt lat="44.8506033" lon="9.272705"><ele>753.1666666666666</ele><time>2026-04-11T09:20:13.001Z</time></trkpt><trkpt lat="44.85056" lon="9.27262"><ele>756.0</ele><time>2026-04-11T09:20:15.002Z</time></trkpt><trkpt lat="44.850625" lon="9.27252"><ele>756.0</ele><time>2026-04-11T09:20:18.001Z</time></trkpt><trkpt lat="44.8506867" lon="9.2724467"><ele>756.0</ele><time>2026-04-11T09:20:20.002Z</time></trkpt><trkpt lat="44.8507517" lon="9.272315"><ele>756.0</ele><time>2026-04-11T09:20:22.002Z</time></trkpt><trkpt lat="44.8507867" lon="9.27223"><ele>756.0</ele><time>2026-04-11T09:20:23.003Z</time></trkpt><trkpt lat="44.8508233" lon="9.27212"><ele>756.0</ele><time>2026-04-11T09:20:24.002Z</time></trkpt><trkpt lat="44.850855" lon="9.2719967"><ele>756.0</ele><time>2026-04-11T09:20:25.002Z</time></trkpt><trkpt lat="44.8508783" lon="9.2718833"><ele>755.3333333333334</ele><time>2026-04-11T09:20:26.001Z</time></trkpt><trkpt lat="44.8509" lon="9.2717767"><ele>754.6666666666666</ele><time>2026-04-11T09:20:27.003Z</time></trkpt><trkpt lat="44.8509033" lon="9.2716733"><ele>754.0</ele><time>2026-04-11T09:20:28.001Z</time></trkpt><trkpt lat="44.850905" lon="9.2715583"><ele>753.3333333333333</ele><time>2026-04-11T09:20:29.002Z</time></trkpt><trkpt lat="44.8508883" lon="9.2714467"><ele>752.6666666666666</ele><time>2026-04-11T09:20:30.002Z</time></trkpt><trkpt lat="44.8508733" lon="9.2713383"><ele>752.0</ele><time>2026-04-11T09:20:31.002Z</time></trkpt><trkpt lat="44.8508483" lon="9.2712267"><ele>750.3333333333333</ele><time>2026-04-11T09:20:32.002Z</time></trkpt><trkpt lat="44.8508167" lon="9.271105"><ele>748.6666666666666</ele><time>2026-04-11T09:20:33.002Z</time></trkpt><trkpt lat="44.8507767" lon="9.2709967"><ele>747.0</ele><time>2026-04-11T09:20:34.001Z</time></trkpt><trkpt lat="44.850725" lon="9.270895"><ele>745.3333333333334</ele><time>2026-04-11T09:20:35.003Z</time></trkpt><trkpt lat="44.8506783" lon="9.2708017"><ele>743.6666666666667</ele><time>2026-04-11T09:20:36.001Z</time></trkpt><trkpt lat="44.8506267" lon="9.27071"><ele>742.0</ele><time>2026-04-11T09:20:37.002Z</time></trkpt><trkpt lat="44.8505967" lon="9.2706183"><ele>739.8571428571429</ele><time>2026-04-11T09:20:38.003Z</time></trkpt><trkpt lat="44.85057" lon="9.270535"><ele>737.7142857142858</ele><time>2026-04-11T09:20:39.002Z</time></trkpt><trkpt lat="44.85054" lon="9.2704517"><ele>735.5714285714286</ele><time>2026-04-11T09:20:40.002Z</time></trkpt><trkpt lat="44.8505167" lon="9.270355"><ele>733.4285714285714</ele><time>2026-04-11T09:20:41.002Z</time></trkpt><trkpt lat="44.8504967" lon="9.2702433"><ele>731.2857142857143</ele><time>2026-04-11T09:20:42.004Z</time></trkpt><trkpt lat="44.8504833" lon="9.27014"><ele>729.1428571428571</ele><time>2026-04-11T09:20:43.002Z</time></trkpt><trkpt lat="44.85047" lon="9.2700367"><ele>727.0</ele><time>2026-04-11T09:20:44.002Z</time></trkpt><trkpt lat="44.8504567" lon="9.26994"><ele>727.0</ele><time>2026-04-11T09:20:45.003Z</time></trkpt><trkpt lat="44.8503967" lon="9.2697917"><ele>727.0</ele><time>2026-04-11T09:20:47.002Z</time></trkpt><trkpt lat="44.8503117" lon="9.269655"><ele>727.0</ele><time>2026-04-11T09:20:49.003Z</time></trkpt><trkpt lat="44.8502633" lon="9.2695667"><ele>727.0</ele><time>2026-04-11T09:20:50.001Z</time></trkpt><trkpt lat="44.8501983" lon="9.269485"><ele>727.0</ele><time>2026-04-11T09:20:51.002Z</time></trkpt><trkpt lat="44.8501133" lon="9.269405"><ele>729.0</ele><time>2026-04-11T09:20:52.003Z</time></trkpt><trkpt lat="44.8500167" lon="9.2693233"><ele>731.0</ele><time>2026-04-11T09:20:53.002Z</time></trkpt><trkpt lat="44.8498817" lon="9.269245"><ele>733.0</ele><time>2026-04-11T09:20:54.002Z</time></trkpt><trkpt lat="44.849785" lon="9.2691517"><ele>735.0</ele><time>2026-04-11T09:20:55.002Z</time></trkpt><trkpt lat="44.8496967" lon="9.2690783"><ele>735.0</ele><time>2026-04-11T09:20:56.002Z</time></trkpt><trkpt lat="44.84961" lon="9.2689983"><ele>735.0</ele><time>2026-04-11T09:20:57.002Z</time></trkpt><trkpt lat="44.84954" lon="9.2689067"><ele>735.0</ele><time>2026-04-11T09:20:58.001Z</time></trkpt><trkpt lat="44.8494633" lon="9.2688033"><ele>735.0</ele><time>2026-04-11T09:20:59.002Z</time></trkpt><trkpt lat="44.8493917" lon="9.268705"><ele>735.0</ele><time>2026-04-11T09:21:00.002Z</time></trkpt><trkpt lat="44.8493417" lon="9.2685967"><ele>734.1666666666666</ele><time>2026-04-11T09:21:01.001Z</time></trkpt><trkpt lat="44.849295" lon="9.26848"><ele>733.3333333333334</ele><time>2026-04-11T09:21:02.001Z</time></trkpt><trkpt lat="44.84925" lon="9.2683817"><ele>732.5</ele><time>2026-04-11T09:21:03.001Z</time></trkpt><trkpt lat="44.849225" lon="9.2682833"><ele>731.6666666666667</ele><time>2026-04-11T09:21:04.001Z</time></trkpt><trkpt lat="44.8492083" lon="9.2681817"><ele>730.8333333333334</ele><time>2026-04-11T09:21:05.002Z</time></trkpt><trkpt lat="44.8491917" lon="9.26807"><ele>730.0</ele><time>2026-04-11T09:21:06.002Z</time></trkpt><trkpt lat="44.84917" lon="9.2679583"><ele>730.0</ele><time>2026-04-11T09:21:07.003Z</time></trkpt><trkpt lat="44.849145" lon="9.2678483"><ele>730.0</ele><time>2026-04-11T09:21:08.002Z</time></trkpt><trkpt lat="44.8491017" lon="9.2677433"><ele>730.0</ele><time>2026-04-11T09:21:09.001Z</time></trkpt><trkpt lat="44.84907" lon="9.2676267"><ele>730.0</ele><time>2026-04-11T09:21:10.003Z</time></trkpt><trkpt lat="44.8490333" lon="9.2675267"><ele>730.0</ele><time>2026-04-11T09:21:11.002Z</time></trkpt><trkpt lat="44.8489883" lon="9.2674533"><ele>730.0</ele><time>2026-04-11T09:21:12.001Z</time></trkpt><trkpt lat="44.848935" lon="9.26739"><ele>730.0</ele><time>2026-04-11T09:21:13.001Z</time></trkpt><trkpt lat="44.84888" lon="9.2673333"><ele>730.0</ele><time>2026-04-11T09:21:14.001Z</time></trkpt><trkpt lat="44.8487917" lon="9.2672367"><ele>730.0</ele><time>2026-04-11T09:21:16.002Z</time></trkpt><trkpt lat="44.8486483" lon="9.2671517"><ele>730.0</ele><time>2026-04-11T09:21:46Z</time></trkpt><trkpt lat="44.8485417" lon="9.267085"><ele>733.0</ele><time>2026-04-11T09:21:48.001Z</time></trkpt><trkpt lat="44.8484533" lon="9.267005"><ele>736.0</ele><time>2026-04-11T09:21:50.003Z</time></trkpt><trkpt lat="44.8484117" lon="9.2669383"><ele>739.0</ele><time>2026-04-11T09:21:51.002Z</time></trkpt><trkpt lat="44.8483933" lon="9.2668467"><ele>742.0</ele><time>2026-04-11T09:21:52.001Z</time></trkpt><trkpt lat="44.8483817" lon="9.2667467"><ele>745.0</ele><time>2026-04-11T09:21:53.001Z</time></trkpt><trkpt lat="44.8483583" lon="9.2666483"><ele>748.0</ele><time>2026-04-11T09:21:54.001Z</time></trkpt><trkpt lat="44.8483217" lon="9.26656"><ele>748.0</ele><time>2026-04-11T09:21:55.003Z</time></trkpt><trkpt lat="44.8482767" lon="9.2664667"><ele>748.0</ele><time>2026-04-11T09:21:56.002Z</time></trkpt><trkpt lat="44.8482317" lon="9.2663783"><ele>748.0</ele><time>2026-04-11T09:21:57.002Z</time></trkpt><trkpt lat="44.84819" lon="9.2662817"><ele>748.0</ele><time>2026-04-11T09:21:58.003Z</time></trkpt><trkpt lat="44.8481533" lon="9.2661683"><ele>748.0</ele><time>2026-04-11T09:21:59.002Z</time></trkpt><trkpt lat="44.8481217" lon="9.2660467"><ele>748.0</ele><time>2026-04-11T09:22:00.004Z</time></trkpt><trkpt lat="44.8480867" lon="9.2659167"><ele>744.4</ele><time>2026-04-11T09:22:01.002Z</time></trkpt><trkpt lat="44.8480517" lon="9.2657767"><ele>740.8</ele><time>2026-04-11T09:22:02.002Z</time></trkpt><trkpt lat="44.8480183" lon="9.2656433"><ele>737.2</ele><time>2026-04-11T09:22:03.003Z</time></trkpt><trkpt lat="44.84798" lon="9.2655233"><ele>733.6</ele><time>2026-04-11T09:22:04.002Z</time></trkpt><trkpt lat="44.847935" lon="9.2654117"><ele>730.0</ele><time>2026-04-11T09:22:05.001Z</time></trkpt><trkpt lat="44.8478883" lon="9.2653033"><ele>729.3333333333334</ele><time>2026-04-11T09:22:06.002Z</time></trkpt><trkpt lat="44.84784" lon="9.265195"><ele>728.6666666666667</ele><time>2026-04-11T09:22:07.003Z</time></trkpt><trkpt lat="44.8477567" lon="9.265105"><ele>728.0</ele><time>2026-04-11T09:22:09.002Z</time></trkpt><trkpt lat="44.8476883" lon="9.265095"><ele>727.3333333333334</ele><time>2026-04-11T09:22:13.001Z</time></trkpt><trkpt lat="44.8476567" lon="9.2652133"><ele>726.6666666666666</ele><time>2026-04-11T09:22:16.001Z</time></trkpt><trkpt lat="44.8476483" lon="9.2653117"><ele>726.0</ele><time>2026-04-11T09:22:18.001Z</time></trkpt><trkpt lat="44.8476567" lon="9.2654133"><ele>726.0</ele><time>2026-04-11T09:22:21.002Z</time></trkpt><trkpt lat="44.8476583" lon="9.2655367"><ele>726.0</ele><time>2026-04-11T09:22:24.001Z</time></trkpt><trkpt lat="44.8476733" lon="9.2656467"><ele>726.0</ele><time>2026-04-11T09:22:27.001Z</time></trkpt><trkpt lat="44.8477244" lon="9.2657501"><ele>726.0</ele><time>2026-04-11T09:22:30.081Z</time></trkpt><trkpt lat="44.8477425" lon="9.265862"><ele>726.0</ele><time>2026-04-11T09:22:31.96Z</time></trkpt><trkpt lat="44.847752" lon="9.2659725"><ele>726.0</ele><time>2026-04-11T09:22:34.033Z</time></trkpt><trkpt lat="44.8477459" lon="9.2660899"><ele>726.6666666666666</ele><time>2026-04-11T09:22:37.05Z</time></trkpt><trkpt lat="44.8477343" lon="9.2661877"><ele>727.3333333333334</ele><time>2026-04-11T09:22:40.065Z</time></trkpt><trkpt lat="44.8476809" lon="9.266288"><ele>728.0</ele><time>2026-04-11T09:22:43.081Z</time></trkpt><trkpt lat="44.8476713" lon="9.266383"><ele>728.6666666666667</ele><time>2026-04-11T09:22:46.003Z</time></trkpt><trkpt lat="44.8476331" lon="9.2664958"><ele>729.3333333333334</ele><time>2026-04-11T09:22:57.018Z</time></trkpt><trkpt lat="44.8476254" lon="9.2665933"><ele>730.0</ele><time>2026-04-11T09:23:00.019Z</time></trkpt><trkpt lat="44.8475843" lon="9.2667146"><ele>733.0</ele><time>2026-04-11T09:23:02.04Z</time></trkpt><trkpt lat="44.8475984" lon="9.2668461"><ele>736.0</ele><time>2026-04-11T09:23:04.089Z</time></trkpt><trkpt lat="44.8476138" lon="9.2669529"><ele>739.0</ele><time>2026-04-11T09:23:05.899Z</time></trkpt><trkpt lat="44.8476346" lon="9.2670468"><ele>742.0</ele><time>2026-04-11T09:23:08.041Z</time></trkpt><trkpt lat="44.847634" lon="9.2671483"><ele>745.0</ele><time>2026-04-11T09:23:11.057Z</time></trkpt><trkpt lat="44.8476703" lon="9.2672309"><ele>748.0</ele><time>2026-04-11T09:23:15.009Z</time></trkpt><trkpt lat="44.8477395" lon="9.2672683"><ele>751.5</ele><time>2026-04-11T09:23:17.001Z</time></trkpt><trkpt lat="44.8477907" lon="9.267339"><ele>755.0</ele><time>2026-04-11T09:23:20.002Z</time></trkpt><trkpt lat="44.8477953" lon="9.2674489"><ele>758.5</ele><time>2026-04-11T09:23:22.081Z</time></trkpt><trkpt lat="44.8478041" lon="9.2675798"><ele>762.0</ele><time>2026-04-11T09:23:24.057Z</time></trkpt><trkpt lat="44.8478263" lon="9.2676812"><ele>765.4999999999999</ele><time>2026-04-11T09:23:26.033Z</time></trkpt><trkpt lat="44.8478444" lon="9.2678292"><ele>769.0</ele><time>2026-04-11T09:23:28.002Z</time></trkpt><trkpt lat="44.8478597" lon="9.2679168"><ele>768.9999999999999</ele><time>2026-04-11T09:23:29.001Z</time></trkpt><trkpt lat="44.8478963" lon="9.2680609"><ele>769.0</ele><time>2026-04-11T09:23:31.002Z</time></trkpt><trkpt lat="44.8479219" lon="9.2681706"><ele>769.0</ele><time>2026-04-11T09:23:33.001Z</time></trkpt><trkpt lat="44.8479209" lon="9.2682619"><ele>769.0</ele><time>2026-04-11T09:23:35.002Z</time></trkpt><trkpt lat="44.8479161" lon="9.268364"><ele>768.9999999999999</ele><time>2026-04-11T09:23:37.002Z</time></trkpt><trkpt lat="44.8479143" lon="9.268467"><ele>769.0</ele><time>2026-04-11T09:23:39.002Z</time></trkpt><trkpt lat="44.8479184" lon="9.268574"><ele>771.7142857142857</ele><time>2026-04-11T09:23:42.001Z</time></trkpt><trkpt lat="44.8479415" lon="9.2686894"><ele>774.4285714285714</ele><time>2026-04-11T09:24:26.001Z</time></trkpt><trkpt lat="44.8479696" lon="9.2687759"><ele>777.1428571428571</ele><time>2026-04-11T09:24:28.001Z</time></trkpt><trkpt lat="44.848002" lon="9.2688577"><ele>779.8571428571429</ele><time>2026-04-11T09:24:30.002Z</time></trkpt><trkpt lat="44.848046" lon="9.2689588"><ele>782.5714285714287</ele><time>2026-04-11T09:24:33.001Z</time></trkpt><trkpt lat="44.8480704" lon="9.2690456"><ele>785.2857142857143</ele><time>2026-04-11T09:24:35.001Z</time></trkpt><trkpt lat="44.8481004" lon="9.2691328"><ele>788.0</ele><time>2026-04-11T09:24:37.001Z</time></trkpt><trkpt lat="44.8481153" lon="9.2692257"><ele>791.6666666666667</ele><time>2026-04-11T09:24:39.002Z</time></trkpt><trkpt lat="44.848113" lon="9.269351"><ele>795.3333333333334</ele><time>2026-04-11T09:24:41.001Z</time></trkpt><trkpt lat="44.8480943" lon="9.2694453"><ele>799.0</ele><time>2026-04-11T09:24:43.001Z</time></trkpt><trkpt lat="44.848066" lon="9.269545"><ele>802.6666666666667</ele><time>2026-04-11T09:24:45.002Z</time></trkpt><trkpt lat="44.8480605" lon="9.2696574"><ele>806.3333333333334</ele><time>2026-04-11T09:24:47.001Z</time></trkpt><trkpt lat="44.8480513" lon="9.2697672"><ele>810.0</ele><time>2026-04-11T09:24:50.002Z</time></trkpt><trkpt lat="44.8480917" lon="9.2698633"><ele>814.6</ele><time>2026-04-11T09:28:19Z</time></trkpt><trkpt lat="44.8480933" lon="9.2699633"><ele>819.2</ele><time>2026-04-11T09:28:21.002Z</time></trkpt><trkpt lat="44.8481183" lon="9.2701"><ele>823.8</ele><time>2026-04-11T09:28:23.001Z</time></trkpt><trkpt lat="44.8481517" lon="9.2702917"><ele>828.4</ele><time>2026-04-11T09:28:25.002Z</time></trkpt><trkpt lat="44.8481767" lon="9.2703983"><ele>833.0</ele><time>2026-04-11T09:28:26.003Z</time></trkpt><trkpt lat="44.8481983" lon="9.2704917"><ele>833.0000000000001</ele><time>2026-04-11T09:28:27.002Z</time></trkpt><trkpt lat="44.84823" lon="9.27057"><ele>833.0</ele><time>2026-04-11T09:28:28.002Z</time></trkpt><trkpt lat="44.8482717" lon="9.27073"><ele>833.0</ele><time>2026-04-11T09:28:30.001Z</time></trkpt><trkpt lat="44.8482817" lon="9.27082"><ele>833.0</ele><time>2026-04-11T09:28:31.003Z</time></trkpt><trkpt lat="44.8482833" lon="9.2709167"><ele>833.0000000000001</ele><time>2026-04-11T09:28:32.002Z</time></trkpt><trkpt lat="44.8482917" lon="9.271065"><ele>833.0</ele><time>2026-04-11T09:28:34.004Z</time></trkpt><trkpt lat="44.8483017" lon="9.27119"><ele>834.4</ele><time>2026-04-11T09:28:36.002Z</time></trkpt><trkpt lat="44.8483317" lon="9.27133"><ele>835.8</ele><time>2026-04-11T09:28:38.001Z</time></trkpt><trkpt lat="44.848372" lon="9.2714509"><ele>837.2</ele><time>2026-04-11T09:28:40.001Z</time></trkpt><trkpt lat="44.8483889" lon="9.2715916"><ele>838.6</ele><time>2026-04-11T09:28:42.002Z</time></trkpt><trkpt lat="44.8484389" lon="9.2716927"><ele>840.0</ele><time>2026-04-11T09:28:44.002Z</time></trkpt><trkpt lat="44.848516" lon="9.2717719"><ele>840.0</ele><time>2026-04-11T09:28:46.001Z</time></trkpt><trkpt lat="44.8485761" lon="9.2719236"><ele>840.0</ele><time>2026-04-11T09:28:48.001Z</time></trkpt><trkpt lat="44.8486002" lon="9.2720722"><ele>840.0</ele><time>2026-04-11T09:28:50.001Z</time></trkpt><trkpt lat="44.8485768" lon="9.2722332"><ele>840.0</ele><time>2026-04-11T09:28:52.002Z</time></trkpt><trkpt lat="44.8485518" lon="9.2723205"><ele>840.0</ele><time>2026-04-11T09:28:53.003Z</time></trkpt><trkpt lat="44.8485209" lon="9.2724025"><ele>841.8571428571429</ele><time>2026-04-11T09:28:54.002Z</time></trkpt><trkpt lat="44.8484655" lon="9.2724803"><ele>843.7142857142858</ele><time>2026-04-11T09:28:55.002Z</time></trkpt><trkpt lat="44.8484058" lon="9.2725526"><ele>845.5714285714286</ele><time>2026-04-11T09:28:56.002Z</time></trkpt><trkpt lat="44.8483445" lon="9.2726106"><ele>847.4285714285714</ele><time>2026-04-11T09:28:57.003Z</time></trkpt><trkpt lat="44.8482821" lon="9.2726234"><ele>849.2857142857143</ele><time>2026-04-11T09:28:58.003Z</time></trkpt><trkpt lat="44.8482139" lon="9.2726285"><ele>851.1428571428571</ele><time>2026-04-11T09:28:59.002Z</time></trkpt><trkpt lat="44.848133" lon="9.2726462"><ele>853.0</ele><time>2026-04-11T09:29:00.003Z</time></trkpt><trkpt lat="44.8480625" lon="9.2726488"><ele>858.8333333333333</ele><time>2026-04-11T09:29:01.002Z</time></trkpt><trkpt lat="44.8479992" lon="9.2726477"><ele>864.6666666666666</ele><time>2026-04-11T09:29:02.002Z</time></trkpt><trkpt lat="44.8479353" lon="9.2726767"><ele>870.5</ele><time>2026-04-11T09:29:04.001Z</time></trkpt><trkpt lat="44.8479185" lon="9.2727963"><ele>876.3333333333333</ele><time>2026-04-11T09:29:06.001Z</time></trkpt><trkpt lat="44.8478453" lon="9.2729119"><ele>882.1666666666666</ele><time>2026-04-11T09:29:08.002Z</time></trkpt><trkpt lat="44.8477556" lon="9.272989"><ele>888.0</ele><time>2026-04-11T09:29:10.002Z</time></trkpt><trkpt lat="44.8476768" lon="9.2730522"><ele>890.1666666666666</ele><time>2026-04-11T09:29:12.003Z</time></trkpt><trkpt lat="44.8476166" lon="9.2731035"><ele>892.3333333333333</ele><time>2026-04-11T09:29:17.002Z</time></trkpt><trkpt lat="44.8475959" lon="9.273204"><ele>894.5</ele><time>2026-04-11T09:29:19.001Z</time></trkpt><trkpt lat="44.8475773" lon="9.2733421"><ele>896.6666666666666</ele><time>2026-04-11T09:29:21.003Z</time></trkpt><trkpt lat="44.8475607" lon="9.2734871"><ele>898.8333333333333</ele><time>2026-04-11T09:29:23.001Z</time></trkpt><trkpt lat="44.8475046" lon="9.2736055"><ele>901.0</ele><time>2026-04-11T09:29:25.002Z</time></trkpt><trkpt lat="44.847398" lon="9.2736678"><ele>903.4285714285714</ele><time>2026-04-11T09:29:27.002Z</time></trkpt><trkpt lat="44.8473547" lon="9.2735965"><ele>905.8571428571429</ele><time>2026-04-11T09:29:28.001Z</time></trkpt><trkpt lat="44.8473148" lon="9.2735068"><ele>908.2857142857143</ele><time>2026-04-11T09:29:29.001Z</time></trkpt><trkpt lat="44.8472698" lon="9.2734295"><ele>910.7142857142858</ele><time>2026-04-11T09:29:30.006Z</time></trkpt><trkpt lat="44.8472182" lon="9.2733679"><ele>913.1428571428571</ele><time>2026-04-11T09:29:31Z</time></trkpt><trkpt lat="44.8471515" lon="9.2733169"><ele>915.5714285714287</ele><time>2026-04-11T09:29:32.001Z</time></trkpt><trkpt lat="44.8470657" lon="9.2732717"><ele>918.0</ele><time>2026-04-11T09:29:33.002Z</time></trkpt><trkpt lat="44.8469686" lon="9.2732337"><ele>918.0</ele><time>2026-04-11T09:29:34.033Z</time></trkpt><trkpt lat="44.8468746" lon="9.2732025"><ele>918.0</ele><time>2026-04-11T09:29:35.001Z</time></trkpt><trkpt lat="44.8467903" lon="9.2731754"><ele>918.0</ele><time>2026-04-11T09:29:36.003Z</time></trkpt><trkpt lat="44.8466987" lon="9.2731502"><ele>918.0</ele><time>2026-04-11T09:29:37.002Z</time></trkpt><trkpt lat="44.8466089" lon="9.2731153"><ele>918.0</ele><time>2026-04-11T09:29:38.001Z</time></trkpt><trkpt lat="44.8465211" lon="9.2730831"><ele>919.3333333333334</ele><time>2026-04-11T09:29:39.002Z</time></trkpt><trkpt lat="44.8464363" lon="9.2730552"><ele>920.6666666666667</ele><time>2026-04-11T09:29:40.001Z</time></trkpt><trkpt lat="44.8463575" lon="9.2730335"><ele>922.0</ele><time>2026-04-11T09:29:41.001Z</time></trkpt><trkpt lat="44.8462935" lon="9.2730076"><ele>923.3333333333334</ele><time>2026-04-11T09:29:42Z</time></trkpt><trkpt lat="44.8462203" lon="9.2729912"><ele>924.6666666666667</ele><time>2026-04-11T09:29:44.001Z</time></trkpt><trkpt lat="44.8461957" lon="9.2730856"><ele>926.0</ele><time>2026-04-11T09:29:46.001Z</time></trkpt><trkpt lat="44.8462013" lon="9.2732535"><ele>930.0</ele><time>2026-04-11T09:29:48.002Z</time></trkpt><trkpt lat="44.8462219" lon="9.2733453"><ele>933.9999999999999</ele><time>2026-04-11T09:29:49.003Z</time></trkpt><trkpt lat="44.8462409" lon="9.2734417"><ele>937.9999999999999</ele><time>2026-04-11T09:29:50.002Z</time></trkpt><trkpt lat="44.8462389" lon="9.2735996"><ele>942.0</ele><time>2026-04-11T09:29:52.002Z</time></trkpt><trkpt lat="44.8461974" lon="9.273739"><ele>946.0</ele><time>2026-04-11T09:29:54.001Z</time></trkpt><trkpt lat="44.8461215" lon="9.273858"><ele>947.8333333333333</ele><time>2026-04-11T09:29:56.001Z</time></trkpt><trkpt lat="44.8460735" lon="9.2739798"><ele>949.6666666666666</ele><time>2026-04-11T09:29:58.001Z</time></trkpt><trkpt lat="44.846067" lon="9.2740704"><ele>951.5</ele><time>2026-04-11T09:29:59.001Z</time></trkpt><trkpt lat="44.8460602" lon="9.274174"><ele>953.3333333333333</ele><time>2026-04-11T09:30:00.002Z</time></trkpt><trkpt lat="44.8460489" lon="9.2742735"><ele>955.1666666666666</ele><time>2026-04-11T09:30:01.001Z</time></trkpt><trkpt lat="44.8460438" lon="9.2743637"><ele>957.0</ele><time>2026-04-11T09:30:02.003Z</time></trkpt><trkpt lat="44.8460136" lon="9.2745169"><ele>959.4000000000001</ele><time>2026-04-11T09:30:04.003Z</time></trkpt><trkpt lat="44.8459347" lon="9.2745971"><ele>961.8000000000001</ele><time>2026-04-11T09:30:06.003Z</time></trkpt><trkpt lat="44.8458489" lon="9.2746669"><ele>964.2</ele><time>2026-04-11T09:30:08.002Z</time></trkpt><trkpt lat="44.845783" lon="9.2747679"><ele>966.6</ele><time>2026-04-11T09:30:10.002Z</time></trkpt><trkpt lat="44.845713" lon="9.2748707"><ele>969.0</ele><time>2026-04-11T09:30:12.001Z</time></trkpt><trkpt lat="44.8456296" lon="9.274956"><ele>971.8333333333334</ele><time>2026-04-11T09:30:14.001Z</time></trkpt><trkpt lat="44.8455706" lon="9.2750311"><ele>974.6666666666667</ele><time>2026-04-11T09:30:16.001Z</time></trkpt><trkpt lat="44.84553" lon="9.2751417"><ele>977.5</ele><time>2026-04-11T09:30:18.002Z</time></trkpt><trkpt lat="44.8455033" lon="9.2752367"><ele>980.3333333333334</ele><time>2026-04-11T09:30:19.001Z</time></trkpt><trkpt lat="44.8454517" lon="9.2753917"><ele>983.1666666666667</ele><time>2026-04-11T09:30:21.002Z</time></trkpt><trkpt lat="44.8454267" lon="9.2754733"><ele>986.0</ele><time>2026-04-11T09:30:22Z</time></trkpt><trkpt lat="44.8453917" lon="9.2755517"><ele>987.6666666666667</ele><time>2026-04-11T09:30:23.002Z</time></trkpt><trkpt lat="44.8453467" lon="9.275635"><ele>989.3333333333334</ele><time>2026-04-11T09:30:24.001Z</time></trkpt><trkpt lat="44.8452917" lon="9.2757883"><ele>991.0</ele><time>2026-04-11T09:30:26.002Z</time></trkpt><trkpt lat="44.8452783" lon="9.2758767"><ele>992.6666666666667</ele><time>2026-04-11T09:30:27.002Z</time></trkpt><trkpt lat="44.8452683" lon="9.2759717"><ele>994.3333333333334</ele><time>2026-04-11T09:30:28.002Z</time></trkpt><trkpt lat="44.8452533" lon="9.2760633"><ele>996.0</ele><time>2026-04-11T09:30:29.002Z</time></trkpt><trkpt lat="44.8452533" lon="9.2762333"><ele>996.0</ele><time>2026-04-11T09:30:31.003Z</time></trkpt><trkpt lat="44.8452717" lon="9.276335"><ele>996.0</ele><time>2026-04-11T09:30:32.002Z</time></trkpt><trkpt lat="44.8452933" lon="9.2764417"><ele>996.0</ele><time>2026-04-11T09:30:33.002Z</time></trkpt><trkpt lat="44.84532" lon="9.2765583"><ele>996.0</ele><time>2026-04-11T09:30:34.003Z</time></trkpt><trkpt lat="44.845335" lon="9.2766817"><ele>996.0</ele><time>2026-04-11T09:30:35.002Z</time></trkpt><trkpt lat="44.8453467" lon="9.2767983"><ele>996.0</ele><time>2026-04-11T09:30:36.002Z</time></trkpt><trkpt lat="44.8453533" lon="9.2769"><ele>996.0</ele><time>2026-04-11T09:30:37.002Z</time></trkpt><trkpt lat="44.8453683" lon="9.2770367"><ele>995.9999999999999</ele><time>2026-04-11T09:30:39.003Z</time></trkpt><trkpt lat="44.84537" lon="9.2771983"><ele>995.9999999999999</ele><time>2026-04-11T09:31:07.003Z</time></trkpt><trkpt lat="44.84542" lon="9.27733"><ele>996.0</ele><time>2026-04-11T09:31:09.002Z</time></trkpt><trkpt lat="44.84546" lon="9.2774517"><ele>996.0</ele><time>2026-04-11T09:31:10.003Z</time></trkpt><trkpt lat="44.8454833" lon="9.2775467"><ele>997.4285714285713</ele><time>2026-04-11T09:31:11.002Z</time></trkpt><trkpt lat="44.84552" lon="9.2776367"><ele>998.8571428571428</ele><time>2026-04-11T09:31:12.001Z</time></trkpt><trkpt lat="44.8455667" lon="9.277715"><ele>1000.2857142857142</ele><time>2026-04-11T09:31:13.001Z</time></trkpt><trkpt lat="44.84561" lon="9.2777867"><ele>1001.7142857142858</ele><time>2026-04-11T09:31:14.001Z</time></trkpt><trkpt lat="44.8456483" lon="9.2778733"><ele>1003.1428571428572</ele><time>2026-04-11T09:31:15.002Z</time></trkpt><trkpt lat="44.8456783" lon="9.277955"><ele>1004.5714285714287</ele><time>2026-04-11T09:31:16.002Z</time></trkpt><trkpt lat="44.8456983" lon="9.2780567"><ele>1006.0</ele><time>2026-04-11T09:31:17.002Z</time></trkpt><trkpt lat="44.8457067" lon="9.2782083"><ele>1008.6666666666666</ele><time>2026-04-11T09:31:19.001Z</time></trkpt><trkpt lat="44.845715" lon="9.2783083"><ele>1011.3333333333333</ele><time>2026-04-11T09:31:21.002Z</time></trkpt><trkpt lat="44.8457483" lon="9.278435"><ele>1014.0</ele><time>2026-04-11T09:31:23.001Z</time></trkpt><trkpt lat="44.8457483" lon="9.2785583"><ele>1016.6666666666667</ele><time>2026-04-11T09:31:25.002Z</time></trkpt><trkpt lat="44.8457233" lon="9.2786983"><ele>1019.3333333333334</ele><time>2026-04-11T09:31:27.001Z</time></trkpt><trkpt lat="44.8457167" lon="9.2788233"><ele>1022.0</ele><time>2026-04-11T09:31:29.002Z</time></trkpt><trkpt lat="44.8456867" lon="9.2789417"><ele>1023.8</ele><time>2026-04-11T09:31:31.002Z</time></trkpt><trkpt lat="44.8456483" lon="9.27912"><ele>1025.6</ele><time>2026-04-11T09:31:33.002Z</time></trkpt><trkpt lat="44.845595" lon="9.2792683"><ele>1027.3999999999999</ele><time>2026-04-11T09:31:35.002Z</time></trkpt><trkpt lat="44.8455583" lon="9.2793433"><ele>1029.2</ele><time>2026-04-11T09:31:36.002Z</time></trkpt><trkpt lat="44.8454783" lon="9.2794633"><ele>1031.0</ele><time>2026-04-11T09:31:38.002Z</time></trkpt><trkpt lat="44.8453833" lon="9.279555"><ele>1031.0</ele><time>2026-04-11T09:31:40.001Z</time></trkpt><trkpt lat="44.84528" lon="9.279615"><ele>1031.0</ele><time>2026-04-11T09:31:42.001Z</time></trkpt><trkpt lat="44.8451817" lon="9.2797017"><ele>1031.0</ele><time>2026-04-11T09:31:44.001Z</time></trkpt><trkpt lat="44.8451333" lon="9.2797667"><ele>1031.0</ele><time>2026-04-11T09:31:46.001Z</time></trkpt><trkpt lat="44.8451367" lon="9.2798967"><ele>1031.0</ele><time>2026-04-11T09:31:49.003Z</time></trkpt><trkpt lat="44.8450967" lon="9.28"><ele>1034.8333333333335</ele><time>2026-04-11T09:31:53Z</time></trkpt><trkpt lat="44.8450633" lon="9.2801"><ele>1038.6666666666667</ele><time>2026-04-11T09:31:55.001Z</time></trkpt><trkpt lat="44.845005" lon="9.2801867"><ele>1042.5</ele><time>2026-04-11T09:31:57.002Z</time></trkpt><trkpt lat="44.844935" lon="9.280305"><ele>1046.3333333333333</ele><time>2026-04-11T09:31:59.002Z</time></trkpt><trkpt lat="44.8448917" lon="9.2803767"><ele>1050.1666666666665</ele><time>2026-04-11T09:32:00.001Z</time></trkpt><trkpt lat="44.8448483" lon="9.2804467"><ele>1054.0</ele><time>2026-04-11T09:32:01.002Z</time></trkpt><trkpt lat="44.8448067" lon="9.2805183"><ele>1054.0</ele><time>2026-04-11T09:32:02.002Z</time></trkpt><trkpt lat="44.8447617" lon="9.28059"><ele>1054.0</ele><time>2026-04-11T09:32:03.002Z</time></trkpt><trkpt lat="44.8446742" lon="9.2806935"><ele>1054.0</ele><time>2026-04-11T09:32:05.002Z</time></trkpt><trkpt lat="44.8445814" lon="9.2807857"><ele>1054.0</ele><time>2026-04-11T09:32:07.002Z</time></trkpt><trkpt lat="44.8445121" lon="9.280879"><ele>1054.0</ele><time>2026-04-11T09:32:09.003Z</time></trkpt><trkpt lat="44.8444631" lon="9.2809739"><ele>1055.8333333333333</ele><time>2026-04-11T09:32:11.002Z</time></trkpt><trkpt lat="44.8444142" lon="9.2810423"><ele>1057.6666666666665</ele><time>2026-04-11T09:32:13.003Z</time></trkpt><trkpt lat="44.8443585" lon="9.2811021"><ele>1059.5</ele><time>2026-04-11T09:32:15.002Z</time></trkpt><trkpt lat="44.8443039" lon="9.2811659"><ele>1061.3333333333333</ele><time>2026-04-11T09:32:18.001Z</time></trkpt><trkpt lat="44.8442994" lon="9.2812629"><ele>1063.1666666666667</ele><time>2026-04-11T09:32:28Z</time></trkpt><trkpt lat="44.8442254" lon="9.2813595"><ele>1065.0</ele><time>2026-04-11T09:32:30.002Z</time></trkpt><trkpt lat="44.8441311" lon="9.2813843"><ele>1067.7142857142858</ele><time>2026-04-11T09:32:32.001Z</time></trkpt><trkpt lat="44.844065" lon="9.2813922"><ele>1070.4285714285713</ele><time>2026-04-11T09:32:33.003Z</time></trkpt><trkpt lat="44.8440007" lon="9.2814081"><ele>1073.142857142857</ele><time>2026-04-11T09:32:34.001Z</time></trkpt><trkpt lat="44.8439354" lon="9.2814395"><ele>1075.857142857143</ele><time>2026-04-11T09:32:35.001Z</time></trkpt><trkpt lat="44.8438799" lon="9.2814982"><ele>1078.5714285714287</ele><time>2026-04-11T09:32:36.002Z</time></trkpt><trkpt lat="44.8438328" lon="9.28156"><ele>1081.2857142857142</ele><time>2026-04-11T09:32:37.003Z</time></trkpt><trkpt lat="44.8437765" lon="9.2816197"><ele>1084.0</ele><time>2026-04-11T09:32:38.006Z</time></trkpt><trkpt lat="44.8437129" lon="9.2816817"><ele>1085.5</ele><time>2026-04-11T09:32:39.003Z</time></trkpt><trkpt lat="44.8436456" lon="9.2817352"><ele>1087.0</ele><time>2026-04-11T09:32:40.002Z</time></trkpt><trkpt lat="44.8435694" lon="9.2817907"><ele>1088.5</ele><time>2026-04-11T09:32:41.001Z</time></trkpt><trkpt lat="44.8434961" lon="9.2818471"><ele>1090.0</ele><time>2026-04-11T09:32:42.001Z</time></trkpt><trkpt lat="44.8434249" lon="9.2818926"><ele>1091.5</ele><time>2026-04-11T09:32:43.003Z</time></trkpt><trkpt lat="44.843359" lon="9.281927"><ele>1093.0</ele><time>2026-04-11T09:32:44.001Z</time></trkpt><trkpt lat="44.8432912" lon="9.281948"><ele>1093.8</ele><time>2026-04-11T09:32:45.002Z</time></trkpt><trkpt lat="44.8431979" lon="9.2819644"><ele>1094.6</ele><time>2026-04-11T09:32:47.001Z</time></trkpt><trkpt lat="44.8431303" lon="9.281981"><ele>1095.4</ele><time>2026-04-11T09:32:50.002Z</time></trkpt><trkpt lat="44.84303" lon="9.2820101"><ele>1096.2</ele><time>2026-04-11T09:32:53.002Z</time></trkpt><trkpt lat="44.8429108" lon="9.2820613"><ele>1097.0</ele><time>2026-04-11T09:32:55.001Z</time></trkpt><trkpt lat="44.842844" lon="9.28209"><ele>1097.0</ele><time>2026-04-11T09:32:56.001Z</time></trkpt><trkpt lat="44.8427725" lon="9.282116"><ele>1097.0</ele><time>2026-04-11T09:32:57.002Z</time></trkpt><trkpt lat="44.8426975" lon="9.2821332"><ele>1097.0</ele><time>2026-04-11T09:32:58.002Z</time></trkpt><trkpt lat="44.8426268" lon="9.2821437"><ele>1097.0</ele><time>2026-04-11T09:32:59.003Z</time></trkpt><trkpt lat="44.8425046" lon="9.2821774"><ele>1097.0</ele><time>2026-04-11T09:33:01.002Z</time></trkpt><trkpt lat="44.8423986" lon="9.2822653"><ele>1097.1666666666667</ele><time>2026-04-11T09:33:03.002Z</time></trkpt><trkpt lat="44.842346" lon="9.2823265"><ele>1097.3333333333335</ele><time>2026-04-11T09:33:04.003Z</time></trkpt><trkpt lat="44.8422888" lon="9.2823846"><ele>1097.5</ele><time>2026-04-11T09:33:05.003Z</time></trkpt><trkpt lat="44.8422198" lon="9.2824422"><ele>1097.6666666666667</ele><time>2026-04-11T09:33:06.002Z</time></trkpt><trkpt lat="44.8421451" lon="9.2824969"><ele>1097.8333333333333</ele><time>2026-04-11T09:33:07.001Z</time></trkpt><trkpt lat="44.8420683" lon="9.2825475"><ele>1098.0</ele><time>2026-04-11T09:33:08.001Z</time></trkpt><trkpt lat="44.8419989" lon="9.2825818"><ele>1098.0</ele><time>2026-04-11T09:33:09.001Z</time></trkpt><trkpt lat="44.841934" lon="9.2826103"><ele>1098.0</ele><time>2026-04-11T09:33:10.001Z</time></trkpt><trkpt lat="44.8418693" lon="9.2826371"><ele>1098.0</ele><time>2026-04-11T09:33:11.001Z</time></trkpt><trkpt lat="44.8417483" lon="9.2827083"><ele>1098.0</ele><time>2026-04-11T09:33:13.003Z</time></trkpt><trkpt lat="44.84167" lon="9.2827833"><ele>1098.0</ele><time>2026-04-11T09:33:14.006Z</time></trkpt><trkpt lat="44.8415833" lon="9.28286"><ele>1097.0</ele><time>2026-04-11T09:33:15.002Z</time></trkpt><trkpt lat="44.841505" lon="9.28293"><ele>1096.0</ele><time>2026-04-11T09:33:16.001Z</time></trkpt><trkpt lat="44.8414117" lon="9.283005"><ele>1095.0</ele><time>2026-04-11T09:33:17Z</time></trkpt><trkpt lat="44.8413167" lon="9.2830733"><ele>1094.0</ele><time>2026-04-11T09:33:18.001Z</time></trkpt><trkpt lat="44.8412233" lon="9.2831283"><ele>1093.0</ele><time>2026-04-11T09:33:19.002Z</time></trkpt><trkpt lat="44.8411367" lon="9.2831933"><ele>1091.6</ele><time>2026-04-11T09:33:20.001Z</time></trkpt><trkpt lat="44.8410367" lon="9.28331"><ele>1090.1999999999998</ele><time>2026-04-11T09:33:22.001Z</time></trkpt><trkpt lat="44.8409383" lon="9.2834067"><ele>1088.8</ele><time>2026-04-11T09:33:24.002Z</time></trkpt><trkpt lat="44.840895" lon="9.283545"><ele>1087.3999999999999</ele><time>2026-04-11T09:40:36Z</time></trkpt><trkpt lat="44.8408517" lon="9.28362"><ele>1086.0</ele><time>2026-04-11T09:40:38Z</time></trkpt><trkpt lat="44.8407917" lon="9.2837183"><ele>1086.1666666666667</ele><time>2026-04-11T09:40:40.001Z</time></trkpt><trkpt lat="44.8407417" lon="9.283835"><ele>1086.3333333333333</ele><time>2026-04-11T09:40:42.001Z</time></trkpt><trkpt lat="44.84071" lon="9.2839167"><ele>1086.5</ele><time>2026-04-11T09:40:43.001Z</time></trkpt><trkpt lat="44.8406583" lon="9.2840133"><ele>1086.6666666666665</ele><time>2026-04-11T09:40:44Z</time></trkpt><trkpt lat="44.8405983" lon="9.2841117"><ele>1086.8333333333333</ele><time>2026-04-11T09:40:45.002Z</time></trkpt><trkpt lat="44.84053" lon="9.2842033"><ele>1087.0</ele><time>2026-04-11T09:40:46.001Z</time></trkpt><trkpt lat="44.8404533" lon="9.2842917"><ele>1087.0</ele><time>2026-04-11T09:40:47.004Z</time></trkpt><trkpt lat="44.8403783" lon="9.2843717"><ele>1087.0</ele><time>2026-04-11T09:40:48.001Z</time></trkpt><trkpt lat="44.8403083" lon="9.28444"><ele>1087.0</ele><time>2026-04-11T09:40:49.001Z</time></trkpt><trkpt lat="44.840225" lon="9.2845"><ele>1087.0</ele><time>2026-04-11T09:40:50Z</time></trkpt><trkpt lat="44.8401433" lon="9.2845417"><ele>1087.0</ele><time>2026-04-11T09:40:51.001Z</time></trkpt><trkpt lat="44.84006" lon="9.2845767"><ele>1087.0</ele><time>2026-04-11T09:40:52.001Z</time></trkpt><trkpt lat="44.8399667" lon="9.2846017"><ele>1087.1666666666665</ele><time>2026-04-11T09:40:53.001Z</time></trkpt><trkpt lat="44.839875" lon="9.28463"><ele>1087.3333333333333</ele><time>2026-04-11T09:40:54.001Z</time></trkpt><trkpt lat="44.839795" lon="9.28465"><ele>1087.5</ele><time>2026-04-11T09:40:55.002Z</time></trkpt><trkpt lat="44.8397033" lon="9.28467"><ele>1087.6666666666667</ele><time>2026-04-11T09:40:56.001Z</time></trkpt><trkpt lat="44.8396283" lon="9.28469"><ele>1087.8333333333335</ele><time>2026-04-11T09:40:57.002Z</time></trkpt><trkpt lat="44.8395433" lon="9.2847183"><ele>1088.0</ele><time>2026-04-11T09:40:58.003Z</time></trkpt><trkpt lat="44.83946" lon="9.2847533"><ele>1088.5</ele><time>2026-04-11T09:40:59.001Z</time></trkpt><trkpt lat="44.8393783" lon="9.2847867"><ele>1089.0</ele><time>2026-04-11T09:41:00.001Z</time></trkpt><trkpt lat="44.8393017" lon="9.28482"><ele>1089.5</ele><time>2026-04-11T09:41:01.001Z</time></trkpt><trkpt lat="44.8392217" lon="9.2848417"><ele>1090.0</ele><time>2026-04-11T09:41:02.001Z</time></trkpt><trkpt lat="44.8391533" lon="9.2848417"><ele>1090.5</ele><time>2026-04-11T09:41:03.001Z</time></trkpt><trkpt lat="44.8390433" lon="9.2847983"><ele>1091.0</ele><time>2026-04-11T09:41:05.003Z</time></trkpt><trkpt lat="44.8389483" lon="9.284745"><ele>1091.0</ele><time>2026-04-11T09:41:07.002Z</time></trkpt><trkpt lat="44.8388733" lon="9.2846917"><ele>1091.0</ele><time>2026-04-11T09:41:09.002Z</time></trkpt><trkpt lat="44.838755" lon="9.2846617"><ele>1091.0</ele><time>2026-04-11T09:41:11.001Z</time></trkpt><trkpt lat="44.8386733" lon="9.284655"><ele>1091.0</ele><time>2026-04-11T09:41:12.001Z</time></trkpt><trkpt lat="44.8385967" lon="9.2846383"><ele>1091.0</ele><time>2026-04-11T09:41:13.001Z</time></trkpt><trkpt lat="44.8385333" lon="9.28462"><ele>1091.0</ele><time>2026-04-11T09:41:14.001Z</time></trkpt><trkpt lat="44.8384517" lon="9.2846"><ele>1090.1666666666667</ele><time>2026-04-11T09:41:15.001Z</time></trkpt><trkpt lat="44.8383717" lon="9.2845767"><ele>1089.3333333333335</ele><time>2026-04-11T09:41:16.001Z</time></trkpt><trkpt lat="44.8382933" lon="9.284545"><ele>1088.5</ele><time>2026-04-11T09:41:17.001Z</time></trkpt><trkpt lat="44.8382267" lon="9.2844917"><ele>1087.6666666666667</ele><time>2026-04-11T09:41:18.001Z</time></trkpt><trkpt lat="44.838155" lon="9.2844417"><ele>1086.8333333333333</ele><time>2026-04-11T09:41:19.001Z</time></trkpt><trkpt lat="44.8380767" lon="9.2843983"><ele>1086.0</ele><time>2026-04-11T09:41:20.001Z</time></trkpt><trkpt lat="44.8380033" lon="9.2843517"><ele>1086.0</ele><time>2026-04-11T09:41:21.001Z</time></trkpt><trkpt lat="44.8379283" lon="9.2842983"><ele>1086.0</ele><time>2026-04-11T09:41:22.001Z</time></trkpt><trkpt lat="44.8378517" lon="9.284245"><ele>1086.0</ele><time>2026-04-11T09:41:23.001Z</time></trkpt><trkpt lat="44.837785" lon="9.2841983"><ele>1086.0</ele><time>2026-04-11T09:41:24.001Z</time></trkpt><trkpt lat="44.8377133" lon="9.2841333"><ele>1086.0</ele><time>2026-04-11T09:41:25.001Z</time></trkpt><trkpt lat="44.8376583" lon="9.28407"><ele>1086.0</ele><time>2026-04-11T09:41:26.002Z</time></trkpt><trkpt lat="44.83761" lon="9.2840033"><ele>1087.5714285714287</ele><time>2026-04-11T09:41:27.001Z</time></trkpt><trkpt lat="44.83756" lon="9.28394"><ele>1089.142857142857</ele><time>2026-04-11T09:41:28.001Z</time></trkpt><trkpt lat="44.8375067" lon="9.2838667"><ele>1090.7142857142858</ele><time>2026-04-11T09:41:29.001Z</time></trkpt><trkpt lat="44.8374567" lon="9.2837867"><ele>1092.2857142857142</ele><time>2026-04-11T09:41:30.002Z</time></trkpt><trkpt lat="44.837405" lon="9.2837033"><ele>1093.857142857143</ele><time>2026-04-11T09:41:31.001Z</time></trkpt><trkpt lat="44.837355" lon="9.2836383"><ele>1095.4285714285716</ele><time>2026-04-11T09:41:32Z</time></trkpt><trkpt lat="44.8373083" lon="9.2835617"><ele>1097.0</ele><time>2026-04-11T09:41:33.002Z</time></trkpt><trkpt lat="44.8372467" lon="9.2834767"><ele>1091.3333333333335</ele><time>2026-04-11T09:41:34Z</time></trkpt><trkpt lat="44.8371817" lon="9.283405"><ele>1085.6666666666667</ele><time>2026-04-11T09:41:35.002Z</time></trkpt><trkpt lat="44.8371183" lon="9.28333"><ele>1080.0</ele><time>2026-04-11T09:41:36.001Z</time></trkpt><trkpt lat="44.8370567" lon="9.28326"><ele>1074.3333333333333</ele><time>2026-04-11T09:41:37.003Z</time></trkpt><trkpt lat="44.837" lon="9.28319"><ele>1068.6666666666665</ele><time>2026-04-11T09:41:38.001Z</time></trkpt><trkpt lat="44.8369483" lon="9.2831267"><ele>1063.0</ele><time>2026-04-11T09:41:39Z</time></trkpt><trkpt lat="44.8368767" lon="9.2830033"><ele>1062.5</ele><time>2026-04-11T09:41:41Z</time></trkpt><trkpt lat="44.8368133" lon="9.2829217"><ele>1062.0</ele><time>2026-04-11T09:41:43.002Z</time></trkpt><trkpt lat="44.836755" lon="9.2828483"><ele>1061.5</ele><time>2026-04-11T09:41:45.002Z</time></trkpt><trkpt lat="44.836675" lon="9.2827417"><ele>1061.0</ele><time>2026-04-11T09:41:47.003Z</time></trkpt><trkpt lat="44.83663" lon="9.2826783"><ele>1060.5</ele><time>2026-04-11T09:41:48.001Z</time></trkpt><trkpt lat="44.8365717" lon="9.2826267"><ele>1060.0</ele><time>2026-04-11T09:41:49.001Z</time></trkpt><trkpt lat="44.83648" lon="9.282565"><ele>1060.0</ele><time>2026-04-11T09:41:51.001Z</time></trkpt><trkpt lat="44.8363983" lon="9.28259"><ele>1060.0</ele><time>2026-04-11T09:41:53.002Z</time></trkpt><trkpt lat="44.8363233" lon="9.2826817"><ele>1060.0</ele><time>2026-04-11T09:41:55.001Z</time></trkpt><trkpt lat="44.8362217" lon="9.282765"><ele>1060.0</ele><time>2026-04-11T09:41:57.001Z</time></trkpt><trkpt lat="44.83616" lon="9.2827833"><ele>1060.0</ele><time>2026-04-11T09:41:58.001Z</time></trkpt><trkpt lat="44.8360867" lon="9.2828067"><ele>1060.0</ele><time>2026-04-11T09:41:59Z</time></trkpt><trkpt lat="44.8360133" lon="9.28284"><ele>1058.4</ele><time>2026-04-11T09:42:00.001Z</time></trkpt><trkpt lat="44.83594" lon="9.2828933"><ele>1056.8</ele><time>2026-04-11T09:42:01.001Z</time></trkpt><trkpt lat="44.8358667" lon="9.2829617"><ele>1055.2</ele><time>2026-04-11T09:42:02.001Z</time></trkpt><trkpt lat="44.83579" lon="9.2830417"><ele>1053.6</ele><time>2026-04-11T09:42:03Z</time></trkpt><trkpt lat="44.8357117" lon="9.28312"><ele>1052.0</ele><time>2026-04-11T09:42:04Z</time></trkpt><trkpt lat="44.8356367" lon="9.2831933"><ele>1056.3333333333335</ele><time>2026-04-11T09:42:05Z</time></trkpt><trkpt lat="44.8355733" lon="9.2832667"><ele>1060.6666666666667</ele><time>2026-04-11T09:42:06Z</time></trkpt><trkpt lat="44.8355217" lon="9.28334"><ele>1065.0</ele><time>2026-04-11T09:42:07Z</time></trkpt><trkpt lat="44.835475" lon="9.2834017"><ele>1069.3333333333333</ele><time>2026-04-11T09:42:08Z</time></trkpt><trkpt lat="44.83542" lon="9.2834567"><ele>1073.6666666666665</ele><time>2026-04-11T09:42:09.001Z</time></trkpt><trkpt lat="44.8353667" lon="9.2835133"><ele>1078.0</ele><time>2026-04-11T09:42:10.001Z</time></trkpt><trkpt lat="44.8352617" lon="9.2835983"><ele>1078.0</ele><time>2026-04-11T09:42:12.002Z</time></trkpt><trkpt lat="44.8351583" lon="9.28361"><ele>1078.0</ele><time>2026-04-11T09:42:14Z</time></trkpt><trkpt lat="44.8350533" lon="9.2836383"><ele>1078.0</ele><time>2026-04-11T09:42:16.003Z</time></trkpt><trkpt lat="44.83499" lon="9.2836633"><ele>1078.0</ele><time>2026-04-11T09:42:17.001Z</time></trkpt><trkpt lat="44.8349167" lon="9.2836983"><ele>1078.0</ele><time>2026-04-11T09:42:18.001Z</time></trkpt><trkpt lat="44.8348483" lon="9.283745"><ele>1078.0</ele><time>2026-04-11T09:42:19.001Z</time></trkpt><trkpt lat="44.834775" lon="9.28379"><ele>1077.8</ele><time>2026-04-11T09:42:20.001Z</time></trkpt><trkpt lat="44.8346583" lon="9.283815"><ele>1077.6</ele><time>2026-04-11T09:42:22.001Z</time></trkpt><trkpt lat="44.834595" lon="9.2838"><ele>1077.4</ele><time>2026-04-11T09:42:23.001Z</time></trkpt><trkpt lat="44.8344683" lon="9.2838117"><ele>1077.2</ele><time>2026-04-11T09:42:25.002Z</time></trkpt><trkpt lat="44.8344" lon="9.28384"><ele>1077.0</ele><time>2026-04-11T09:42:26.002Z</time></trkpt><trkpt lat="44.83433" lon="9.2838717"><ele>1079.0</ele><time>2026-04-11T09:42:27.001Z</time></trkpt><trkpt lat="44.834255" lon="9.2839117"><ele>1081.0</ele><time>2026-04-11T09:42:28.001Z</time></trkpt><trkpt lat="44.8341533" lon="9.2839817"><ele>1083.0</ele><time>2026-04-11T09:42:30.001Z</time></trkpt><trkpt lat="44.8340367" lon="9.2840583"><ele>1085.0</ele><time>2026-04-11T09:42:32.001Z</time></trkpt><trkpt lat="44.8339533" lon="9.2840817"><ele>1087.0</ele><time>2026-04-11T09:42:33.001Z</time></trkpt><trkpt lat="44.8338717" lon="9.2841083"><ele>1090.8333333333333</ele><time>2026-04-11T09:42:34.002Z</time></trkpt><trkpt lat="44.833795" lon="9.284125"><ele>1094.6666666666665</ele><time>2026-04-11T09:42:35Z</time></trkpt><trkpt lat="44.83372" lon="9.2841333"><ele>1098.5</ele><time>2026-04-11T09:42:36.001Z</time></trkpt><trkpt lat="44.833655" lon="9.2841567"><ele>1102.3333333333333</ele><time>2026-04-11T09:42:37.001Z</time></trkpt><trkpt lat="44.8335417" lon="9.2842117"><ele>1106.1666666666667</ele><time>2026-04-11T09:42:39.003Z</time></trkpt><trkpt lat="44.833435" lon="9.2842233"><ele>1110.0</ele><time>2026-04-11T09:42:41Z</time></trkpt><trkpt lat="44.8333733" lon="9.28419"><ele>1111.1666666666667</ele><time>2026-04-11T09:42:42.002Z</time></trkpt><trkpt lat="44.8332533" lon="9.2841383"><ele>1112.3333333333333</ele><time>2026-04-11T09:42:44.001Z</time></trkpt><trkpt lat="44.8331917" lon="9.2841"><ele>1113.5</ele><time>2026-04-11T09:42:45.001Z</time></trkpt><trkpt lat="44.8331317" lon="9.284055"><ele>1114.6666666666665</ele><time>2026-04-11T09:42:46.001Z</time></trkpt><trkpt lat="44.8330683" lon="9.283995"><ele>1115.8333333333333</ele><time>2026-04-11T09:42:47.001Z</time></trkpt><trkpt lat="44.833005" lon="9.2839467"><ele>1117.0</ele><time>2026-04-11T09:42:48Z</time></trkpt><trkpt lat="44.832935" lon="9.2839083"><ele>1119.2</ele><time>2026-04-11T09:42:49.002Z</time></trkpt><trkpt lat="44.8328667" lon="9.2838767"><ele>1121.4</ele><time>2026-04-11T09:42:50Z</time></trkpt><trkpt lat="44.8327633" lon="9.28386"><ele>1123.6</ele><time>2026-04-11T09:42:52Z</time></trkpt><trkpt lat="44.8326767" lon="9.2839217"><ele>1125.8</ele><time>2026-04-11T09:42:54Z</time></trkpt><trkpt lat="44.8325783" lon="9.2840083"><ele>1128.0</ele><time>2026-04-11T09:42:56Z</time></trkpt><trkpt lat="44.8325117" lon="9.284045"><ele>1128.0</ele><time>2026-04-11T09:42:57.001Z</time></trkpt><trkpt lat="44.832425" lon="9.2840733"><ele>1128.0</ele><time>2026-04-11T09:42:58.003Z</time></trkpt><trkpt lat="44.83234" lon="9.2840983"><ele>1128.0</ele><time>2026-04-11T09:42:59Z</time></trkpt><trkpt lat="44.83226" lon="9.2841317"><ele>1128.0</ele><time>2026-04-11T09:43:00.002Z</time></trkpt><trkpt lat="44.832195" lon="9.284165"><ele>1128.0</ele><time>2026-04-11T09:43:01.002Z</time></trkpt><trkpt lat="44.832135" lon="9.2842117"><ele>1128.0</ele><time>2026-04-11T09:43:02.001Z</time></trkpt><trkpt lat="44.83209" lon="9.2842817"><ele>1128.0</ele><time>2026-04-11T09:43:03Z</time></trkpt><trkpt lat="44.8320517" lon="9.2843533"><ele>1128.0</ele><time>2026-04-11T09:43:04.002Z</time></trkpt><trkpt lat="44.831975" lon="9.284445"><ele>1128.0</ele><time>2026-04-11T09:43:06.001Z</time></trkpt><trkpt lat="44.8318767" lon="9.2844183"><ele>1128.0</ele><time>2026-04-11T09:43:08.002Z</time></trkpt><trkpt lat="44.8318267" lon="9.28436"><ele>1128.0</ele><time>2026-04-11T09:43:09.002Z</time></trkpt><trkpt lat="44.8317183" lon="9.2843033"><ele>1128.0</ele><time>2026-04-11T09:43:11.001Z</time></trkpt><trkpt lat="44.8316533" lon="9.28429"><ele>1129.1666666666667</ele><time>2026-04-11T09:43:12Z</time></trkpt><trkpt lat="44.8315483" lon="9.2842017"><ele>1130.3333333333333</ele><time>2026-04-11T09:43:14.001Z</time></trkpt><trkpt lat="44.83149" lon="9.2841517"><ele>1131.5</ele><time>2026-04-11T09:43:15.001Z</time></trkpt><trkpt lat="44.8314283" lon="9.284105"><ele>1132.6666666666665</ele><time>2026-04-11T09:43:16.001Z</time></trkpt><trkpt lat="44.8313667" lon="9.2840567"><ele>1133.8333333333333</ele><time>2026-04-11T09:43:17.001Z</time></trkpt><trkpt lat="44.8313133" lon="9.2839917"><ele>1135.0</ele><time>2026-04-11T09:43:18.001Z</time></trkpt><trkpt lat="44.831265" lon="9.28393"><ele>1132.5714285714287</ele><time>2026-04-11T09:43:19.001Z</time></trkpt><trkpt lat="44.8312067" lon="9.2838783"><ele>1130.142857142857</ele><time>2026-04-11T09:43:20.002Z</time></trkpt><trkpt lat="44.83114" lon="9.283835"><ele>1127.7142857142858</ele><time>2026-04-11T09:43:21.002Z</time></trkpt><trkpt lat="44.8310667" lon="9.28381"><ele>1125.2857142857142</ele><time>2026-04-11T09:43:22Z</time></trkpt><trkpt lat="44.8309933" lon="9.2837833"><ele>1122.857142857143</ele><time>2026-04-11T09:43:23.001Z</time></trkpt><trkpt lat="44.830925" lon="9.2837567"><ele>1120.4285714285716</ele><time>2026-04-11T09:43:24Z</time></trkpt><trkpt lat="44.8308533" lon="9.28372"><ele>1118.0</ele><time>2026-04-11T09:43:25Z</time></trkpt><trkpt lat="44.8307883" lon="9.28369"><ele>1118.0</ele><time>2026-04-11T09:43:26.001Z</time></trkpt><trkpt lat="44.8307183" lon="9.2836783"><ele>1118.0</ele><time>2026-04-11T09:43:27.001Z</time></trkpt><trkpt lat="44.8306433" lon="9.2836883"><ele>1118.0</ele><time>2026-04-11T09:43:28Z</time></trkpt><trkpt lat="44.8305683" lon="9.2837"><ele>1118.0</ele><time>2026-04-11T09:43:29.001Z</time></trkpt><trkpt lat="44.8304983" lon="9.28371"><ele>1118.0</ele><time>2026-04-11T09:43:30.001Z</time></trkpt><trkpt lat="44.8304267" lon="9.2837133"><ele>1118.0</ele><time>2026-04-11T09:43:31.002Z</time></trkpt><trkpt lat="44.8303583" lon="9.283705"><ele>1118.0</ele><time>2026-04-11T09:43:32Z</time></trkpt><trkpt lat="44.8302883" lon="9.2836933"><ele>1118.0</ele><time>2026-04-11T09:43:33.001Z</time></trkpt><trkpt lat="44.83021" lon="9.28365"><ele>1118.0</ele><time>2026-04-11T09:43:34Z</time></trkpt><trkpt lat="44.8301333" lon="9.283605"><ele>1118.0</ele><time>2026-04-11T09:43:35.002Z</time></trkpt><trkpt lat="44.8300667" lon="9.28355"><ele>1118.0</ele><time>2026-04-11T09:43:36Z</time></trkpt><trkpt lat="44.83001" lon="9.2834917"><ele>1118.0</ele><time>2026-04-11T09:43:37.002Z</time></trkpt><trkpt lat="44.8299233" lon="9.2833817"><ele>1118.0</ele><time>2026-04-11T09:43:39.001Z</time></trkpt><trkpt lat="44.8298283" lon="9.2833117"><ele>1117.8333333333335</ele><time>2026-04-11T09:43:41.001Z</time></trkpt><trkpt lat="44.8297617" lon="9.2832867"><ele>1117.6666666666667</ele><time>2026-04-11T09:43:42.002Z</time></trkpt><trkpt lat="44.8296817" lon="9.2832467"><ele>1117.5</ele><time>2026-04-11T09:43:43.001Z</time></trkpt><trkpt lat="44.8296133" lon="9.283195"><ele>1117.3333333333333</ele><time>2026-04-11T09:43:44Z</time></trkpt><trkpt lat="44.829555" lon="9.283135"><ele>1117.1666666666665</ele><time>2026-04-11T09:43:45Z</time></trkpt><trkpt lat="44.8295" lon="9.28309"><ele>1117.0</ele><time>2026-04-11T09:43:46Z</time></trkpt><trkpt lat="44.8293833" lon="9.2830567"><ele>1113.2857142857144</ele><time>2026-04-11T09:43:48.001Z</time></trkpt><trkpt lat="44.82932" lon="9.2830383"><ele>1109.5714285714287</ele><time>2026-04-11T09:43:49Z</time></trkpt><trkpt lat="44.82925" lon="9.282995"><ele>1105.857142857143</ele><time>2026-04-11T09:43:50Z</time></trkpt><trkpt lat="44.82918" lon="9.2829533"><ele>1102.1428571428573</ele><time>2026-04-11T09:43:51.001Z</time></trkpt><trkpt lat="44.8291133" lon="9.28293"><ele>1098.4285714285716</ele><time>2026-04-11T09:43:52.001Z</time></trkpt><trkpt lat="44.8290483" lon="9.282925"><ele>1094.7142857142858</ele><time>2026-04-11T09:43:53Z</time></trkpt><trkpt lat="44.8289767" lon="9.28293"><ele>1091.0</ele><time>2026-04-11T09:43:54Z</time></trkpt><trkpt lat="44.8288983" lon="9.2829417"><ele>1090.5</ele><time>2026-04-11T09:43:55.001Z</time></trkpt><trkpt lat="44.82883" lon="9.282955"><ele>1090.0</ele><time>2026-04-11T09:43:56Z</time></trkpt><trkpt lat="44.82876" lon="9.282965"><ele>1089.5</ele><time>2026-04-11T09:43:57.002Z</time></trkpt><trkpt lat="44.8286967" lon="9.282985"><ele>1089.0</ele><time>2026-04-11T09:43:58.001Z</time></trkpt><trkpt lat="44.8286283" lon="9.28302"><ele>1088.5</ele><time>2026-04-11T09:43:59.001Z</time></trkpt><trkpt lat="44.8285517" lon="9.2830683"><ele>1088.0</ele><time>2026-04-11T09:44:00Z</time></trkpt><trkpt lat="44.82847" lon="9.28312"><ele>1088.0</ele><time>2026-04-11T09:44:01Z</time></trkpt><trkpt lat="44.8283917" lon="9.283175"><ele>1088.0</ele><time>2026-04-11T09:44:02.001Z</time></trkpt><trkpt lat="44.82831" lon="9.28323"><ele>1088.0</ele><time>2026-04-11T09:44:03.001Z</time></trkpt><trkpt lat="44.8282533" lon="9.2832983"><ele>1088.0</ele><time>2026-04-11T09:44:04.001Z</time></trkpt><trkpt lat="44.8282033" lon="9.28337"><ele>1088.0</ele><time>2026-04-11T09:44:05Z</time></trkpt><trkpt lat="44.8281567" lon="9.28343"><ele>1088.0</ele><time>2026-04-11T09:44:06Z</time></trkpt><trkpt lat="44.8280467" lon="9.2834883"><ele>1088.0</ele><time>2026-04-11T09:44:08.001Z</time></trkpt><trkpt lat="44.82792" lon="9.2834567"><ele>1088.0</ele><time>2026-04-11T09:44:10.001Z</time></trkpt><trkpt lat="44.8278417" lon="9.2834033"><ele>1088.0</ele><time>2026-04-11T09:44:11.002Z</time></trkpt><trkpt lat="44.82776" lon="9.283345"><ele>1088.0</ele><time>2026-04-11T09:44:12.002Z</time></trkpt><trkpt lat="44.8276783" lon="9.2832883"><ele>1088.0</ele><time>2026-04-11T09:44:13.002Z</time></trkpt><trkpt lat="44.8275767" lon="9.28325"><ele>1086.6</ele><time>2026-04-11T09:44:14.004Z</time></trkpt><trkpt lat="44.8274733" lon="9.28323"><ele>1085.1999999999998</ele><time>2026-04-11T09:44:15.003Z</time></trkpt><trkpt lat="44.8273667" lon="9.2832067"><ele>1083.8</ele><time>2026-04-11T09:44:16.003Z</time></trkpt><trkpt lat="44.8272717" lon="9.2831983"><ele>1082.3999999999999</ele><time>2026-04-11T09:44:17.002Z</time></trkpt><trkpt lat="44.82718" lon="9.2832"><ele>1081.0</ele><time>2026-04-11T09:44:18.002Z</time></trkpt><trkpt lat="44.8270833" lon="9.2832033"><ele>1081.0</ele><time>2026-04-11T09:44:19.002Z</time></trkpt><trkpt lat="44.826995" lon="9.2832083"><ele>1081.0</ele><time>2026-04-11T09:44:20.001Z</time></trkpt><trkpt lat="44.8269133" lon="9.2832283"><ele>1081.0</ele><time>2026-04-11T09:44:21.002Z</time></trkpt><trkpt lat="44.8268533" lon="9.2832633"><ele>1081.0</ele><time>2026-04-11T09:44:22.001Z</time></trkpt><trkpt lat="44.8267683" lon="9.283325"><ele>1081.0</ele><time>2026-04-11T09:44:24.002Z</time></trkpt><trkpt lat="44.8267033" lon="9.2832733"><ele>1081.0</ele><time>2026-04-11T09:44:26.002Z</time></trkpt><trkpt lat="44.8266683" lon="9.283155"><ele>1078.6666666666665</ele><time>2026-04-11T09:44:28.003Z</time></trkpt><trkpt lat="44.8266217" lon="9.283005"><ele>1076.3333333333333</ele><time>2026-04-11T09:44:30.002Z</time></trkpt><trkpt lat="44.8266167" lon="9.2828533"><ele>1074.0</ele><time>2026-04-11T09:44:32.002Z</time></trkpt><trkpt lat="44.8266233" lon="9.2827583"><ele>1071.6666666666667</ele><time>2026-04-11T09:44:33.004Z</time></trkpt><trkpt lat="44.826625" lon="9.2826517"><ele>1069.3333333333335</ele><time>2026-04-11T09:44:34.002Z</time></trkpt><trkpt lat="44.8266217" lon="9.2825383"><ele>1067.0</ele><time>2026-04-11T09:44:35.002Z</time></trkpt><trkpt lat="44.8266083" lon="9.282415"><ele>1067.0</ele><time>2026-04-11T09:44:36.003Z</time></trkpt><trkpt lat="44.8265967" lon="9.2822983"><ele>1067.0</ele><time>2026-04-11T09:44:37.002Z</time></trkpt><trkpt lat="44.826575" lon="9.2821733"><ele>1067.0</ele><time>2026-04-11T09:44:38.003Z</time></trkpt><trkpt lat="44.8265567" lon="9.28205"><ele>1067.0</ele><time>2026-04-11T09:44:39.003Z</time></trkpt><trkpt lat="44.826545" lon="9.2819367"><ele>1067.0</ele><time>2026-04-11T09:44:40.003Z</time></trkpt><trkpt lat="44.82654" lon="9.2818417"><ele>1067.0</ele><time>2026-04-11T09:44:41.002Z</time></trkpt><trkpt lat="44.8265033" lon="9.2816883"><ele>1066.6666666666667</ele><time>2026-04-11T09:44:43.002Z</time></trkpt><trkpt lat="44.826465" lon="9.2816"><ele>1066.3333333333335</ele><time>2026-04-11T09:44:44.003Z</time></trkpt><trkpt lat="44.8264233" lon="9.2815317"><ele>1066.0</ele><time>2026-04-11T09:44:45.003Z</time></trkpt><trkpt lat="44.8263133" lon="9.2814567"><ele>1065.6666666666667</ele><time>2026-04-11T09:44:47.003Z</time></trkpt><trkpt lat="44.8262483" lon="9.281435"><ele>1065.3333333333333</ele><time>2026-04-11T09:44:48.002Z</time></trkpt><trkpt lat="44.826185" lon="9.2814233"><ele>1065.0</ele><time>2026-04-11T09:44:49.002Z</time></trkpt><trkpt lat="44.82607" lon="9.2813867"><ele>1064.0</ele><time>2026-04-11T09:44:51.002Z</time></trkpt><trkpt lat="44.8259917" lon="9.2812983"><ele>1063.0</ele><time>2026-04-11T09:44:53.002Z</time></trkpt><trkpt lat="44.8259217" lon="9.2811583"><ele>1062.0</ele><time>2026-04-11T09:44:55.002Z</time></trkpt><trkpt lat="44.8259017" lon="9.2810733"><ele>1061.0</ele><time>2026-04-11T09:44:56.001Z</time></trkpt><trkpt lat="44.8258867" lon="9.2809783"><ele>1060.0</ele><time>2026-04-11T09:44:57.002Z</time></trkpt><trkpt lat="44.8258817" lon="9.2808117"><ele>1059.2</ele><time>2026-04-11T09:44:59.002Z</time></trkpt><trkpt lat="44.8258967" lon="9.2806933"><ele>1058.4</ele><time>2026-04-11T09:45:00.002Z</time></trkpt><trkpt lat="44.8259233" lon="9.2805483"><ele>1057.6</ele><time>2026-04-11T09:45:01.002Z</time></trkpt><trkpt lat="44.8259517" lon="9.28039"><ele>1056.8</ele><time>2026-04-11T09:45:02.001Z</time></trkpt><trkpt lat="44.8259717" lon="9.280255"><ele>1056.0</ele><time>2026-04-11T09:45:03.002Z</time></trkpt><trkpt lat="44.8259933" lon="9.28014"><ele>1056.0</ele><time>2026-04-11T09:45:04.001Z</time></trkpt><trkpt lat="44.826015" lon="9.28004"><ele>1056.0</ele><time>2026-04-11T09:45:05.002Z</time></trkpt><trkpt lat="44.8260283" lon="9.2798717"><ele>1056.0</ele><time>2026-04-11T09:45:07.002Z</time></trkpt><trkpt lat="44.8260133" lon="9.2796983"><ele>1056.0</ele><time>2026-04-11T09:45:09.002Z</time></trkpt><trkpt lat="44.8259967" lon="9.2796033"><ele>1056.0</ele><time>2026-04-11T09:45:10.001Z</time></trkpt><trkpt lat="44.8259733" lon="9.279495"><ele>1057.3333333333333</ele><time>2026-04-11T09:45:11.001Z</time></trkpt><trkpt lat="44.8259283" lon="9.2793717"><ele>1058.6666666666667</ele><time>2026-04-11T09:45:12.003Z</time></trkpt><trkpt lat="44.8258933" lon="9.2792467"><ele>1060.0</ele><time>2026-04-11T09:45:13.003Z</time></trkpt><trkpt lat="44.8258733" lon="9.2791267"><ele>1061.3333333333335</ele><time>2026-04-11T09:45:14.001Z</time></trkpt><trkpt lat="44.8258667" lon="9.279015"><ele>1062.6666666666667</ele><time>2026-04-11T09:45:15.004Z</time></trkpt><trkpt lat="44.825875" lon="9.2789233"><ele>1064.0</ele><time>2026-04-11T09:45:16.002Z</time></trkpt><trkpt lat="44.8258883" lon="9.2788333"><ele>1064.0</ele><time>2026-04-11T09:45:17.002Z</time></trkpt><trkpt lat="44.8258917" lon="9.27873"><ele>1064.0</ele><time>2026-04-11T09:45:18.001Z</time></trkpt><trkpt lat="44.8259017" lon="9.278625"><ele>1064.0</ele><time>2026-04-11T09:45:19.001Z</time></trkpt><trkpt lat="44.825905" lon="9.2785183"><ele>1064.0</ele><time>2026-04-11T09:45:20.002Z</time></trkpt><trkpt lat="44.8259167" lon="9.2784267"><ele>1064.0</ele><time>2026-04-11T09:45:21.002Z</time></trkpt><trkpt lat="44.8259283" lon="9.2782683"><ele>1064.0</ele><time>2026-04-11T09:45:23.003Z</time></trkpt><trkpt lat="44.8259233" lon="9.278115"><ele>1064.0</ele><time>2026-04-11T09:45:25.001Z</time></trkpt><trkpt lat="44.82589" lon="9.2780333"><ele>1064.0</ele><time>2026-04-11T09:45:27.001Z</time></trkpt><trkpt lat="44.825845" lon="9.2781533"><ele>1064.0</ele><time>2026-04-11T09:45:31Z</time></trkpt><trkpt lat="44.8257933" lon="9.2783117"><ele>1064.0</ele><time>2026-04-11T09:45:33.002Z</time></trkpt><trkpt lat="44.8257617" lon="9.2783933"><ele>1064.0</ele><time>2026-04-11T09:45:34.002Z</time></trkpt><trkpt lat="44.8257233" lon="9.278475"><ele>1064.0</ele><time>2026-04-11T09:45:35.001Z</time></trkpt><trkpt lat="44.8256833" lon="9.278545"><ele>1064.0</ele><time>2026-04-11T09:45:36.001Z</time></trkpt><trkpt lat="44.8256383" lon="9.2786133"><ele>1064.0</ele><time>2026-04-11T09:45:37.002Z</time></trkpt><trkpt lat="44.825605" lon="9.278695"><ele>1064.0</ele><time>2026-04-11T09:45:38.003Z</time></trkpt><trkpt lat="44.8255667" lon="9.2788"><ele>1064.0</ele><time>2026-04-11T09:45:39.003Z</time></trkpt><trkpt lat="44.82555" lon="9.2789117"><ele>1064.0</ele><time>2026-04-11T09:45:40.003Z</time></trkpt><trkpt lat="44.8255333" lon="9.2790367"><ele>1064.0</ele><time>2026-04-11T09:45:41.002Z</time></trkpt><trkpt lat="44.8255267" lon="9.2791717"><ele>1066.2</ele><time>2026-04-11T09:45:42.002Z</time></trkpt><trkpt lat="44.8255217" lon="9.2793"><ele>1068.4</ele><time>2026-04-11T09:45:43.001Z</time></trkpt><trkpt lat="44.8255117" lon="9.279415"><ele>1070.6</ele><time>2026-04-11T09:45:44.002Z</time></trkpt><trkpt lat="44.8254933" lon="9.2795233"><ele>1072.8</ele><time>2026-04-11T09:45:45.002Z</time></trkpt><trkpt lat="44.8254533" lon="9.27964"><ele>1075.0</ele><time>2026-04-11T09:45:46.001Z</time></trkpt><trkpt lat="44.82541" lon="9.27979"><ele>1075.0</ele><time>2026-04-11T09:45:47.002Z</time></trkpt><trkpt lat="44.82538" lon="9.279945"><ele>1075.0</ele><time>2026-04-11T09:45:48.002Z</time></trkpt><trkpt lat="44.8253517" lon="9.28012"><ele>1075.0</ele><time>2026-04-11T09:45:49.001Z</time></trkpt><trkpt lat="44.8253317" lon="9.2802617"><ele>1075.0</ele><time>2026-04-11T09:45:50.001Z</time></trkpt><trkpt lat="44.825305" lon="9.2804033"><ele>1075.0</ele><time>2026-04-11T09:45:51.002Z</time></trkpt><trkpt lat="44.825255" lon="9.2805533"><ele>1074.75</ele><time>2026-04-11T09:45:52.003Z</time></trkpt><trkpt lat="44.8251933" lon="9.280695"><ele>1074.5</ele><time>2026-04-11T09:45:53.003Z</time></trkpt><trkpt lat="44.825125" lon="9.2808283"><ele>1074.25</ele><time>2026-04-11T09:45:54.003Z</time></trkpt><trkpt lat="44.8250617" lon="9.28096"><ele>1074.0</ele><time>2026-04-11T09:45:55.003Z</time></trkpt><trkpt lat="44.8250033" lon="9.2811117"><ele>1075.0</ele><time>2026-04-11T09:45:56.002Z</time></trkpt><trkpt lat="44.8249417" lon="9.281275"><ele>1076.0</ele><time>2026-04-11T09:45:57.004Z</time></trkpt><trkpt lat="44.8248783" lon="9.2814367"><ele>1077.0</ele><time>2026-04-11T09:45:58.003Z</time></trkpt><trkpt lat="44.824815" lon="9.281595"><ele>1078.0</ele><time>2026-04-11T09:45:59.006Z</time></trkpt><trkpt lat="44.8247617" lon="9.2817367"><ele>1081.2</ele><time>2026-04-11T09:46:00.003Z</time></trkpt><trkpt lat="44.824715" lon="9.28186"><ele>1084.4</ele><time>2026-04-11T09:46:01.004Z</time></trkpt><trkpt lat="44.82468" lon="9.2819817"><ele>1087.6000000000001</ele><time>2026-04-11T09:46:02.003Z</time></trkpt><trkpt lat="44.824665" lon="9.2821183"><ele>1090.8</ele><time>2026-04-11T09:46:03.004Z</time></trkpt><trkpt lat="44.8246583" lon="9.28227"><ele>1094.0</ele><time>2026-04-11T09:46:04.003Z</time></trkpt><trkpt lat="44.824645" lon="9.2824183"><ele>1095.8</ele><time>2026-04-11T09:46:05.003Z</time></trkpt><trkpt lat="44.824615" lon="9.2825517"><ele>1097.6000000000001</ele><time>2026-04-11T09:46:06.003Z</time></trkpt><trkpt lat="44.8245767" lon="9.28268"><ele>1099.4</ele><time>2026-04-11T09:46:07.003Z</time></trkpt><trkpt lat="44.824525" lon="9.282805"><ele>1101.2</ele><time>2026-04-11T09:46:08.003Z</time></trkpt><trkpt lat="44.8244733" lon="9.2829317"><ele>1103.0</ele><time>2026-04-11T09:46:09.004Z</time></trkpt><trkpt lat="44.8244317" lon="9.2830267"><ele>1103.6666666666667</ele><time>2026-04-11T09:46:10.004Z</time></trkpt><trkpt lat="44.824395" lon="9.2831017"><ele>1104.3333333333335</ele><time>2026-04-11T09:46:11.004Z</time></trkpt><trkpt lat="44.8243383" lon="9.2832033"><ele>1105.0</ele><time>2026-04-11T09:46:13.003Z</time></trkpt><trkpt lat="44.8242883" lon="9.28328"><ele>1105.6666666666667</ele><time>2026-04-11T09:46:15.004Z</time></trkpt><trkpt lat="44.8242367" lon="9.2833783"><ele>1106.3333333333333</ele><time>2026-04-11T09:46:17.002Z</time></trkpt><trkpt lat="44.8241833" lon="9.2834767"><ele>1107.0</ele><time>2026-04-11T09:46:19.001Z</time></trkpt><trkpt lat="44.8241383" lon="9.2835617"><ele>1107.0</ele><time>2026-04-11T09:46:21.001Z</time></trkpt><trkpt lat="44.8240917" lon="9.2836483"><ele>1107.0</ele><time>2026-04-11T09:46:23.002Z</time></trkpt><trkpt lat="44.8240283" lon="9.2837483"><ele>1107.0</ele><time>2026-04-11T09:46:25.001Z</time></trkpt><trkpt lat="44.8239617" lon="9.28385"><ele>1107.0</ele><time>2026-04-11T09:46:27.002Z</time></trkpt><trkpt lat="44.8239017" lon="9.28394"><ele>1107.0</ele><time>2026-04-11T09:46:29.001Z</time></trkpt><trkpt lat="44.8238433" lon="9.28404"><ele>1108.4</ele><time>2026-04-11T09:46:31.002Z</time></trkpt><trkpt lat="44.8237717" lon="9.2841417"><ele>1109.8000000000002</ele><time>2026-04-11T09:46:33.003Z</time></trkpt><trkpt lat="44.82369" lon="9.284255"><ele>1111.2</ele><time>2026-04-11T09:46:35.003Z</time></trkpt><trkpt lat="44.8236" lon="9.28435"><ele>1112.6000000000001</ele><time>2026-04-11T09:46:37.005Z</time></trkpt><trkpt lat="44.823515" lon="9.2844367"><ele>1114.0</ele><time>2026-04-11T09:46:39.002Z</time></trkpt><trkpt lat="44.8234367" lon="9.2845383"><ele>1114.0</ele><time>2026-04-11T09:46:41.002Z</time></trkpt><trkpt lat="44.8233633" lon="9.28464"><ele>1114.0</ele><time>2026-04-11T09:46:43.002Z</time></trkpt><trkpt lat="44.8233117" lon="9.284755"><ele>1114.0</ele><time>2026-04-11T09:46:45.001Z</time></trkpt><trkpt lat="44.8232967" lon="9.2848467"><ele>1114.0</ele><time>2026-04-11T09:46:47.001Z</time></trkpt><trkpt lat="44.82327" lon="9.28496"><ele>1114.0</ele><time>2026-04-11T09:47:00.002Z</time></trkpt><trkpt lat="44.82327" lon="9.2851433"><ele>1116.8333333333333</ele><time>2026-04-11T09:47:02.002Z</time></trkpt><trkpt lat="44.8232683" lon="9.2852567"><ele>1119.6666666666665</ele><time>2026-04-11T09:47:03.001Z</time></trkpt><trkpt lat="44.8232583" lon="9.2853633"><ele>1122.5</ele><time>2026-04-11T09:47:04.001Z</time></trkpt><trkpt lat="44.823255" lon="9.2854767"><ele>1125.3333333333333</ele><time>2026-04-11T09:47:05.003Z</time></trkpt><trkpt lat="44.82325" lon="9.2855883"><ele>1128.1666666666667</ele><time>2026-04-11T09:47:06.001Z</time></trkpt><trkpt lat="44.823245" lon="9.2857117"><ele>1131.0</ele><time>2026-04-11T09:47:07.001Z</time></trkpt><trkpt lat="44.8232383" lon="9.2858383"><ele>1132.0</ele><time>2026-04-11T09:47:08.001Z</time></trkpt><trkpt lat="44.82324" lon="9.2859617"><ele>1133.0</ele><time>2026-04-11T09:47:09.002Z</time></trkpt><trkpt lat="44.82324" lon="9.2860767"><ele>1134.0</ele><time>2026-04-11T09:47:10.003Z</time></trkpt><trkpt lat="44.8232417" lon="9.2861867"><ele>1135.0</ele><time>2026-04-11T09:47:11.001Z</time></trkpt><trkpt lat="44.8232567" lon="9.2863033"><ele>1136.0</ele><time>2026-04-11T09:47:12.001Z</time></trkpt><trkpt lat="44.8232783" lon="9.2864283"><ele>1137.0</ele><time>2026-04-11T09:47:13.001Z</time></trkpt><trkpt lat="44.8233067" lon="9.286555"><ele>1137.4</ele><time>2026-04-11T09:47:14.002Z</time></trkpt><trkpt lat="44.8233367" lon="9.2866833"><ele>1137.8000000000002</ele><time>2026-04-11T09:47:15.003Z</time></trkpt><trkpt lat="44.823355" lon="9.2868167"><ele>1138.2</ele><time>2026-04-11T09:47:16.002Z</time></trkpt><trkpt lat="44.82338" lon="9.2869367"><ele>1138.6000000000001</ele><time>2026-04-11T09:47:17.002Z</time></trkpt><trkpt lat="44.823405" lon="9.287055"><ele>1139.0</ele><time>2026-04-11T09:47:18.003Z</time></trkpt><trkpt lat="44.8234217" lon="9.287175"><ele>1140.0</ele><time>2026-04-11T09:47:19.003Z</time></trkpt><trkpt lat="44.823455" lon="9.2872767"><ele>1141.0</ele><time>2026-04-11T09:47:20.001Z</time></trkpt><trkpt lat="44.8234783" lon="9.2873683"><ele>1142.0</ele><time>2026-04-11T09:47:21.002Z</time></trkpt><trkpt lat="44.8234633" lon="9.2875283"><ele>1143.0</ele><time>2026-04-11T09:47:23.002Z</time></trkpt><trkpt lat="44.8234183" lon="9.287605"><ele>1144.0</ele><time>2026-04-11T09:47:24.002Z</time></trkpt><trkpt lat="44.82336" lon="9.2876633"><ele>1145.0</ele><time>2026-04-11T09:47:25.002Z</time></trkpt><trkpt lat="44.823265" lon="9.2877167"><ele>1145.0</ele><time>2026-04-11T09:47:26.001Z</time></trkpt><trkpt lat="44.8231567" lon="9.2877767"><ele>1145.0</ele><time>2026-04-11T09:47:27.001Z</time></trkpt><trkpt lat="44.823045" lon="9.287815"><ele>1145.0</ele><time>2026-04-11T09:47:28.002Z</time></trkpt><trkpt lat="44.822935" lon="9.287855"><ele>1145.0</ele><time>2026-04-11T09:47:29.001Z</time></trkpt><trkpt lat="44.822835" lon="9.287895"><ele>1145.0</ele><time>2026-04-11T09:47:30.002Z</time></trkpt><trkpt lat="44.8227467" lon="9.2879517"><ele>1145.0</ele><time>2026-04-11T09:47:31.001Z</time></trkpt><trkpt lat="44.822675" lon="9.2880117"><ele>1145.0</ele><time>2026-04-11T09:47:32.002Z</time></trkpt><trkpt lat="44.8226133" lon="9.288085"><ele>1145.0</ele><time>2026-04-11T09:47:33.003Z</time></trkpt><trkpt lat="44.8225617" lon="9.288165"><ele>1145.0</ele><time>2026-04-11T09:47:34.002Z</time></trkpt><trkpt lat="44.8225233" lon="9.2882567"><ele>1145.0</ele><time>2026-04-11T09:47:35.001Z</time></trkpt><trkpt lat="44.822495" lon="9.28837"><ele>1145.0</ele><time>2026-04-11T09:47:36.001Z</time></trkpt><trkpt lat="44.8224767" lon="9.28849"><ele>1144.5</ele><time>2026-04-11T09:47:37.002Z</time></trkpt><trkpt lat="44.822465" lon="9.2886167"><ele>1144.0</ele><time>2026-04-11T09:47:38.001Z</time></trkpt><trkpt lat="44.8224567" lon="9.28874"><ele>1143.5</ele><time>2026-04-11T09:47:39.003Z</time></trkpt><trkpt lat="44.8224517" lon="9.2888467"><ele>1143.0</ele><time>2026-04-11T09:47:40.001Z</time></trkpt><trkpt lat="44.8224317" lon="9.2889533"><ele>1142.5</ele><time>2026-04-11T09:47:41.002Z</time></trkpt><trkpt lat="44.822395" lon="9.2890533"><ele>1142.0</ele><time>2026-04-11T09:47:42.002Z</time></trkpt><trkpt lat="44.8223367" lon="9.2892033"><ele>1142.7142857142858</ele><time>2026-04-11T09:47:44.001Z</time></trkpt><trkpt lat="44.82229" lon="9.289275"><ele>1143.4285714285713</ele><time>2026-04-11T09:47:45.002Z</time></trkpt><trkpt lat="44.8222367" lon="9.28935"><ele>1144.142857142857</ele><time>2026-04-11T09:47:46.001Z</time></trkpt><trkpt lat="44.82219" lon="9.2894217"><ele>1144.857142857143</ele><time>2026-04-11T09:47:47.002Z</time></trkpt><trkpt lat="44.82215" lon="9.289505"><ele>1145.5714285714287</ele><time>2026-04-11T09:47:48.002Z</time></trkpt><trkpt lat="44.8221133" lon="9.289595"><ele>1146.2857142857142</ele><time>2026-04-11T09:47:49.002Z</time></trkpt><trkpt lat="44.8220783" lon="9.2896833"><ele>1147.0</ele><time>2026-04-11T09:47:50.002Z</time></trkpt><trkpt lat="44.8220383" lon="9.28984"><ele>1147.0</ele><time>2026-04-11T09:47:52.002Z</time></trkpt><trkpt lat="44.8220033" lon="9.2899767"><ele>1147.0</ele><time>2026-04-11T09:47:54.001Z</time></trkpt><trkpt lat="44.8219467" lon="9.29011"><ele>1147.0</ele><time>2026-04-11T09:47:56.001Z</time></trkpt><trkpt lat="44.821905" lon="9.2901767"><ele>1147.0</ele><time>2026-04-11T09:47:57.001Z</time></trkpt><trkpt lat="44.82186" lon="9.2902417"><ele>1147.0</ele><time>2026-04-11T09:47:58.001Z</time></trkpt><trkpt lat="44.8218083" lon="9.29031"><ele>1147.0</ele><time>2026-04-11T09:47:59.001Z</time></trkpt><trkpt lat="44.8217567" lon="9.2903717"><ele>1144.3333333333333</ele><time>2026-04-11T09:48:00.001Z</time></trkpt><trkpt lat="44.821705" lon="9.2904367"><ele>1141.6666666666665</ele><time>2026-04-11T09:48:01.001Z</time></trkpt><trkpt lat="44.8216567" lon="9.2904967"><ele>1139.0</ele><time>2026-04-11T09:48:02.002Z</time></trkpt><trkpt lat="44.8215533" lon="9.2905817"><ele>1136.3333333333333</ele><time>2026-04-11T09:48:04.001Z</time></trkpt><trkpt lat="44.8214467" lon="9.2906517"><ele>1133.6666666666667</ele><time>2026-04-11T09:48:06.001Z</time></trkpt><trkpt lat="44.821375" lon="9.290695"><ele>1131.0</ele><time>2026-04-11T09:48:08.001Z</time></trkpt><trkpt lat="44.8213917" lon="9.2907967"><ele>1131.0</ele><time>2026-04-11T09:48:13.001Z</time></trkpt><trkpt lat="44.8213933" lon="9.2909433"><ele>1131.0</ele><time>2026-04-11T09:48:16.002Z</time></trkpt><trkpt lat="44.8213533" lon="9.2910883"><ele>1131.0</ele><time>2026-04-11T09:48:18.002Z</time></trkpt><trkpt lat="44.8213217" lon="9.2912683"><ele>1131.0</ele><time>2026-04-11T09:48:20.002Z</time></trkpt><trkpt lat="44.8213" lon="9.2913667"><ele>1131.0</ele><time>2026-04-11T09:48:21.002Z</time></trkpt><trkpt lat="44.821285" lon="9.2914583"><ele>1129.3999999999999</ele><time>2026-04-11T09:48:22.002Z</time></trkpt><trkpt lat="44.821285" lon="9.29162"><ele>1127.8</ele><time>2026-04-11T09:48:24.003Z</time></trkpt><trkpt lat="44.82132" lon="9.2918033"><ele>1126.1999999999998</ele><time>2026-04-11T09:48:26.002Z</time></trkpt><trkpt lat="44.8213517" lon="9.2919117"><ele>1124.6</ele><time>2026-04-11T09:48:27.002Z</time></trkpt><trkpt lat="44.8213817" lon="9.29202"><ele>1123.0</ele><time>2026-04-11T09:48:28.002Z</time></trkpt><trkpt lat="44.8214017" lon="9.292125"><ele>1122.9999999999998</ele><time>2026-04-11T09:48:29.001Z</time></trkpt><trkpt lat="44.8214083" lon="9.29222"><ele>1123.0</ele><time>2026-04-11T09:48:30.001Z</time></trkpt><trkpt lat="44.8214017" lon="9.292315"><ele>1123.0</ele><time>2026-04-11T09:48:31.003Z</time></trkpt><trkpt lat="44.8213983" lon="9.2924117"><ele>1123.0</ele><time>2026-04-11T09:48:32.002Z</time></trkpt><trkpt lat="44.8214017" lon="9.292515"><ele>1123.0</ele><time>2026-04-11T09:48:33.003Z</time></trkpt><trkpt lat="44.82141" lon="9.292625"><ele>1122.9999999999998</ele><time>2026-04-11T09:48:34.001Z</time></trkpt><trkpt lat="44.8214183" lon="9.2927333"><ele>1123.0</ele><time>2026-04-11T09:48:35.001Z</time></trkpt><trkpt lat="44.8214233" lon="9.292835"><ele>1121.0</ele><time>2026-04-11T09:48:36.001Z</time></trkpt><trkpt lat="44.8214633" lon="9.2929883"><ele>1119.0</ele><time>2026-04-11T09:48:38.001Z</time></trkpt><trkpt lat="44.8215433" lon="9.2930583"><ele>1117.0</ele><time>2026-04-11T09:48:40.002Z</time></trkpt><trkpt lat="44.82167" lon="9.293075"><ele>1115.0</ele><time>2026-04-11T09:48:42.002Z</time></trkpt><trkpt lat="44.82175" lon="9.2930633"><ele>1113.0</ele><time>2026-04-11T09:48:43.002Z</time></trkpt><trkpt lat="44.8218383" lon="9.2930267"><ele>1110.3333333333333</ele><time>2026-04-11T09:48:44.002Z</time></trkpt><trkpt lat="44.8219217" lon="9.2929867"><ele>1107.6666666666667</ele><time>2026-04-11T09:48:45.002Z</time></trkpt><trkpt lat="44.822005" lon="9.2929433"><ele>1105.0</ele><time>2026-04-11T09:48:46.002Z</time></trkpt><trkpt lat="44.82208" lon="9.2928983"><ele>1102.3333333333335</ele><time>2026-04-11T09:48:47.001Z</time></trkpt><trkpt lat="44.8221583" lon="9.2928333"><ele>1099.6666666666667</ele><time>2026-04-11T09:48:48.001Z</time></trkpt><trkpt lat="44.8222317" lon="9.29277"><ele>1097.0</ele><time>2026-04-11T09:48:49.002Z</time></trkpt><trkpt lat="44.8223" lon="9.2926967"><ele>1097.0</ele><time>2026-04-11T09:48:50.002Z</time></trkpt><trkpt lat="44.8223567" lon="9.2926283"><ele>1097.0</ele><time>2026-04-11T09:48:51.003Z</time></trkpt><trkpt lat="44.8224117" lon="9.29257"><ele>1097.0</ele><time>2026-04-11T09:48:52.002Z</time></trkpt><trkpt lat="44.8224733" lon="9.2925283"><ele>1097.0</ele><time>2026-04-11T09:48:53.001Z</time></trkpt><trkpt lat="44.8225617" lon="9.2925067"><ele>1097.0</ele><time>2026-04-11T09:48:55.002Z</time></trkpt><trkpt lat="44.8226283" lon="9.2925683"><ele>1097.0</ele><time>2026-04-11T09:48:57.002Z</time></trkpt><trkpt lat="44.8226933" lon="9.2927183"><ele>1096.0</ele><time>2026-04-11T09:48:59.001Z</time></trkpt><trkpt lat="44.8227433" lon="9.2928133"><ele>1095.0</ele><time>2026-04-11T09:49:00.005Z</time></trkpt><trkpt lat="44.8227867" lon="9.29291"><ele>1094.0</ele><time>2026-04-11T09:49:01.002Z</time></trkpt><trkpt lat="44.822835" lon="9.2930083"><ele>1093.0</ele><time>2026-04-11T09:49:02.001Z</time></trkpt><trkpt lat="44.8228867" lon="9.2930983"><ele>1092.0</ele><time>2026-04-11T09:49:03.001Z</time></trkpt><trkpt lat="44.8229383" lon="9.2931817"><ele>1091.0</ele><time>2026-04-11T09:49:04.001Z</time></trkpt><trkpt lat="44.822985" lon="9.29327"><ele>1091.0</ele><time>2026-04-11T09:49:05.002Z</time></trkpt><trkpt lat="44.8230183" lon="9.2933583"><ele>1091.0</ele><time>2026-04-11T09:49:06Z</time></trkpt><trkpt lat="44.8230417" lon="9.2934517"><ele>1091.0</ele><time>2026-04-11T09:49:07.002Z</time></trkpt><trkpt lat="44.8230583" lon="9.29355"><ele>1091.0</ele><time>2026-04-11T09:49:08.002Z</time></trkpt><trkpt lat="44.8230733" lon="9.29365"><ele>1091.0</ele><time>2026-04-11T09:49:09.002Z</time></trkpt><trkpt lat="44.82308" lon="9.2937483"><ele>1091.0</ele><time>2026-04-11T09:49:10.001Z</time></trkpt><trkpt lat="44.8230933" lon="9.293845"><ele>1091.0</ele><time>2026-04-11T09:49:11.003Z</time></trkpt><trkpt lat="44.8231183" lon="9.29393"><ele>1088.0</ele><time>2026-04-11T09:49:12.001Z</time></trkpt><trkpt lat="44.8231383" lon="9.2940867"><ele>1085.0</ele><time>2026-04-11T09:49:14.001Z</time></trkpt><trkpt lat="44.8231267" lon="9.2942733"><ele>1082.0</ele><time>2026-04-11T09:49:16.001Z</time></trkpt><trkpt lat="44.823105" lon="9.29439"><ele>1079.0</ele><time>2026-04-11T09:49:17.001Z</time></trkpt><trkpt lat="44.823095" lon="9.2944983"><ele>1076.0</ele><time>2026-04-11T09:49:18.003Z</time></trkpt><trkpt lat="44.8230933" lon="9.2946067"><ele>1076.0</ele><time>2026-04-11T09:49:19.001Z</time></trkpt><trkpt lat="44.8231033" lon="9.2947167"><ele>1076.0</ele><time>2026-04-11T09:49:20.004Z</time></trkpt><trkpt lat="44.8231117" lon="9.2948267"><ele>1076.0</ele><time>2026-04-11T09:49:21.002Z</time></trkpt><trkpt lat="44.8231333" lon="9.2949233"><ele>1076.0</ele><time>2026-04-11T09:49:22.003Z</time></trkpt><trkpt lat="44.8231667" lon="9.2950267"><ele>1076.0</ele><time>2026-04-11T09:49:23.002Z</time></trkpt><trkpt lat="44.8232017" lon="9.29513"><ele>1076.0</ele><time>2026-04-11T09:49:24.002Z</time></trkpt><trkpt lat="44.8232433" lon="9.2952433"><ele>1073.2</ele><time>2026-04-11T09:49:25.002Z</time></trkpt><trkpt lat="44.8232733" lon="9.295345"><ele>1070.3999999999999</ele><time>2026-04-11T09:49:26.002Z</time></trkpt><trkpt lat="44.823315" lon="9.2954683"><ele>1067.6</ele><time>2026-04-11T09:49:27.002Z</time></trkpt><trkpt lat="44.82336" lon="9.29559"><ele>1064.8</ele><time>2026-04-11T09:49:28.002Z</time></trkpt><trkpt lat="44.8234067" lon="9.2957117"><ele>1062.0</ele><time>2026-04-11T09:49:29.001Z</time></trkpt><trkpt lat="44.8234567" lon="9.2958383"><ele>1061.8</ele><time>2026-04-11T09:49:30.001Z</time></trkpt><trkpt lat="44.82348" lon="9.2959667"><ele>1061.6</ele><time>2026-04-11T09:49:31.001Z</time></trkpt><trkpt lat="44.8235217" lon="9.29609"><ele>1061.3999999999999</ele><time>2026-04-11T09:49:32.002Z</time></trkpt><trkpt lat="44.8235483" lon="9.296205"><ele>1061.2</ele><time>2026-04-11T09:49:33.002Z</time></trkpt><trkpt lat="44.82358" lon="9.296325"><ele>1061.0</ele><time>2026-04-11T09:49:34.001Z</time></trkpt><trkpt lat="44.8236067" lon="9.2964517"><ele>1059.8</ele><time>2026-04-11T09:49:35.003Z</time></trkpt><trkpt lat="44.8236383" lon="9.2965867"><ele>1058.6</ele><time>2026-04-11T09:49:36.001Z</time></trkpt><trkpt lat="44.8236633" lon="9.2967133"><ele>1057.4</ele><time>2026-04-11T09:49:37.001Z</time></trkpt><trkpt lat="44.8236933" lon="9.2968333"><ele>1056.2</ele><time>2026-04-11T09:49:38.002Z</time></trkpt><trkpt lat="44.8237317" lon="9.2969567"><ele>1055.0</ele><time>2026-04-11T09:49:39.002Z</time></trkpt><trkpt lat="44.823765" lon="9.2970767"><ele>1055.0</ele><time>2026-04-11T09:49:40.001Z</time></trkpt><trkpt lat="44.8237917" lon="9.2971983"><ele>1055.0</ele><time>2026-04-11T09:49:41.002Z</time></trkpt><trkpt lat="44.823825" lon="9.2973333"><ele>1055.0</ele><time>2026-04-11T09:49:42.001Z</time></trkpt><trkpt lat="44.8238517" lon="9.2974817"><ele>1055.0</ele><time>2026-04-11T09:49:43.003Z</time></trkpt><trkpt lat="44.8238883" lon="9.2976183"><ele>1055.0</ele><time>2026-04-11T09:49:44.001Z</time></trkpt><trkpt lat="44.823925" lon="9.2977683"><ele>1053.8</ele><time>2026-04-11T09:49:45.002Z</time></trkpt><trkpt lat="44.8239617" lon="9.2979067"><ele>1052.6</ele><time>2026-04-11T09:49:46.001Z</time></trkpt><trkpt lat="44.8239983" lon="9.298045"><ele>1051.4</ele><time>2026-04-11T09:49:47.001Z</time></trkpt><trkpt lat="44.8240333" lon="9.2981633"><ele>1050.2</ele><time>2026-04-11T09:49:48.002Z</time></trkpt><trkpt lat="44.8240733" lon="9.298285"><ele>1049.0</ele><time>2026-04-11T09:49:49.002Z</time></trkpt><trkpt lat="44.8241167" lon="9.2984083"><ele>1047.6666666666667</ele><time>2026-04-11T09:49:50.002Z</time></trkpt><trkpt lat="44.8241683" lon="9.2985167"><ele>1046.3333333333335</ele><time>2026-04-11T09:49:51.002Z</time></trkpt><trkpt lat="44.8242283" lon="9.29861"><ele>1045.0</ele><time>2026-04-11T09:49:52.001Z</time></trkpt><trkpt lat="44.8242883" lon="9.2986883"><ele>1043.6666666666667</ele><time>2026-04-11T09:49:53.001Z</time></trkpt><trkpt lat="44.8243533" lon="9.2987517"><ele>1042.3333333333333</ele><time>2026-04-11T09:49:54.001Z</time></trkpt><trkpt lat="44.8244067" lon="9.2988033"><ele>1041.0</ele><time>2026-04-11T09:49:55.002Z</time></trkpt><trkpt lat="44.8244517" lon="9.298875"><ele>1039.142857142857</ele><time>2026-04-11T09:49:56.002Z</time></trkpt><trkpt lat="44.824495" lon="9.2989517"><ele>1037.2857142857144</ele><time>2026-04-11T09:49:57.002Z</time></trkpt><trkpt lat="44.8245333" lon="9.2990417"><ele>1035.4285714285716</ele><time>2026-04-11T09:49:58.003Z</time></trkpt><trkpt lat="44.8245567" lon="9.2991417"><ele>1033.5714285714287</ele><time>2026-04-11T09:49:59.004Z</time></trkpt><trkpt lat="44.8245767" lon="9.2992433"><ele>1031.7142857142858</ele><time>2026-04-11T09:50:00.004Z</time></trkpt><trkpt lat="44.8246067" lon="9.2993467"><ele>1029.857142857143</ele><time>2026-04-11T09:50:01.003Z</time></trkpt><trkpt lat="44.824635" lon="9.2994467"><ele>1028.0</ele><time>2026-04-11T09:50:02.003Z</time></trkpt><trkpt lat="44.82467" lon="9.2995317"><ele>1028.0</ele><time>2026-04-11T09:50:03.004Z</time></trkpt><trkpt lat="44.8247017" lon="9.299615"><ele>1028.0</ele><time>2026-04-11T09:50:04.003Z</time></trkpt><trkpt lat="44.824745" lon="9.2997583"><ele>1028.0</ele><time>2026-04-11T09:50:06.002Z</time></trkpt><trkpt lat="44.8247617" lon="9.299855"><ele>1028.0</ele><time>2026-04-11T09:50:08.002Z</time></trkpt><trkpt lat="44.8247733" lon="9.2999467"><ele>1028.0</ele><time>2026-04-11T09:50:11.002Z</time></trkpt><trkpt lat="44.8247933" lon="9.3000433"><ele>1028.0</ele><time>2026-04-11T09:50:17.001Z</time></trkpt><trkpt lat="44.8248" lon="9.3001367"><ele>1025.8333333333335</ele><time>2026-04-11T09:50:19.001Z</time></trkpt><trkpt lat="44.824815" lon="9.30025"><ele>1023.6666666666667</ele><time>2026-04-11T09:50:21.001Z</time></trkpt><trkpt lat="44.824865" lon="9.3003583"><ele>1021.5</ele><time>2026-04-11T09:50:23.001Z</time></trkpt><trkpt lat="44.82492" lon="9.3004183"><ele>1019.3333333333333</ele><time>2026-04-11T09:50:24.001Z</time></trkpt><trkpt lat="44.8249783" lon="9.300485"><ele>1017.1666666666666</ele><time>2026-04-11T09:50:25.001Z</time></trkpt><trkpt lat="44.8250383" lon="9.300555"><ele>1015.0</ele><time>2026-04-11T09:50:26.001Z</time></trkpt><trkpt lat="44.8251033" lon="9.30063"><ele>1010.3333333333333</ele><time>2026-04-11T09:50:27.002Z</time></trkpt><trkpt lat="44.825175" lon="9.30069"><ele>1005.6666666666666</ele><time>2026-04-11T09:50:28.001Z</time></trkpt><trkpt lat="44.825235" lon="9.300735"><ele>1001.0</ele><time>2026-04-11T09:50:29.001Z</time></trkpt><trkpt lat="44.8252917" lon="9.3007833"><ele>996.3333333333333</ele><time>2026-04-11T09:50:30.001Z</time></trkpt><trkpt lat="44.825345" lon="9.3008367"><ele>991.6666666666666</ele><time>2026-04-11T09:50:31.001Z</time></trkpt><trkpt lat="44.8254283" lon="9.30093"><ele>987.0</ele><time>2026-04-11T09:50:33.001Z</time></trkpt><trkpt lat="44.825445" lon="9.30104"><ele>987.0</ele><time>2026-04-11T09:50:36.003Z</time></trkpt><trkpt lat="44.8253683" lon="9.3010883"><ele>987.0</ele><time>2026-04-11T09:50:39.003Z</time></trkpt><trkpt lat="44.8252733" lon="9.3011083"><ele>987.0</ele><time>2026-04-11T09:50:41.001Z</time></trkpt><trkpt lat="44.8252117" lon="9.3011283"><ele>987.0</ele><time>2026-04-11T09:50:42.002Z</time></trkpt><trkpt lat="44.82515" lon="9.30115"><ele>987.0</ele><time>2026-04-11T09:50:43.002Z</time></trkpt><trkpt lat="44.82505" lon="9.3012"><ele>987.0</ele><time>2026-04-11T09:50:45.002Z</time></trkpt><trkpt lat="44.8249283" lon="9.3012517"><ele>990.2</ele><time>2026-04-11T09:50:47.004Z</time></trkpt><trkpt lat="44.8248217" lon="9.30127"><ele>993.4000000000001</ele><time>2026-04-11T09:50:49.003Z</time></trkpt><trkpt lat="44.8247117" lon="9.3012217"><ele>996.5999999999999</ele><time>2026-04-11T09:50:51.004Z</time></trkpt><trkpt lat="44.8246267" lon="9.3011433"><ele>999.8</ele><time>2026-04-11T09:50:53.001Z</time></trkpt><trkpt lat="44.82455" lon="9.3010383"><ele>1003.0</ele><time>2026-04-11T09:50:55.002Z</time></trkpt><trkpt lat="44.8244867" lon="9.3009133"><ele>1003.0</ele><time>2026-04-11T09:50:57.002Z</time></trkpt><trkpt lat="44.824425" lon="9.3007567"><ele>1003.0</ele><time>2026-04-11T09:50:59.001Z</time></trkpt><trkpt lat="44.8243933" lon="9.30065"><ele>1003.0</ele><time>2026-04-11T09:51:00.001Z</time></trkpt><trkpt lat="44.824365" lon="9.3005233"><ele>1003.0</ele><time>2026-04-11T09:51:01.002Z</time></trkpt><trkpt lat="44.8243317" lon="9.3003833"><ele>1003.0</ele><time>2026-04-11T09:51:02.001Z</time></trkpt><trkpt lat="44.8243033" lon="9.300245"><ele>1003.5999999999999</ele><time>2026-04-11T09:51:03.002Z</time></trkpt><trkpt lat="44.8242783" lon="9.3001083"><ele>1004.1999999999999</ele><time>2026-04-11T09:51:04.001Z</time></trkpt><trkpt lat="44.8242467" lon="9.2999717"><ele>1004.8</ele><time>2026-04-11T09:51:05.001Z</time></trkpt><trkpt lat="44.82421" lon="9.29985"><ele>1005.4</ele><time>2026-04-11T09:51:06.001Z</time></trkpt><trkpt lat="44.8241833" lon="9.299735"><ele>1006.0</ele><time>2026-04-11T09:51:07.001Z</time></trkpt><trkpt lat="44.8241617" lon="9.2996183"><ele>1009.5999999999999</ele><time>2026-04-11T09:51:08.002Z</time></trkpt><trkpt lat="44.82414" lon="9.29951"><ele>1013.1999999999999</ele><time>2026-04-11T09:51:09.001Z</time></trkpt><trkpt lat="44.8240983" lon="9.2993983"><ele>1016.8000000000001</ele><time>2026-04-11T09:51:10.001Z</time></trkpt><trkpt lat="44.8240383" lon="9.2992883"><ele>1020.4000000000001</ele><time>2026-04-11T09:51:11.003Z</time></trkpt><trkpt lat="44.8239883" lon="9.2991733"><ele>1024.0</ele><time>2026-04-11T09:51:12.001Z</time></trkpt><trkpt lat="44.8239367" lon="9.2990617"><ele>1024.0</ele><time>2026-04-11T09:51:13.002Z</time></trkpt><trkpt lat="44.8238883" lon="9.2989417"><ele>1024.0</ele><time>2026-04-11T09:51:14.002Z</time></trkpt><trkpt lat="44.8238367" lon="9.29882"><ele>1024.0</ele><time>2026-04-11T09:51:15.002Z</time></trkpt><trkpt lat="44.823795" lon="9.2986917"><ele>1024.0</ele><time>2026-04-11T09:51:16.001Z</time></trkpt><trkpt lat="44.82376" lon="9.2985667"><ele>1024.0</ele><time>2026-04-11T09:51:17.001Z</time></trkpt><trkpt lat="44.823735" lon="9.2984483"><ele>1027.4</ele><time>2026-04-11T09:51:18.003Z</time></trkpt><trkpt lat="44.8237083" lon="9.2983283"><ele>1030.8000000000002</ele><time>2026-04-11T09:51:19.001Z</time></trkpt><trkpt lat="44.8236817" lon="9.2982067"><ele>1034.1999999999998</ele><time>2026-04-11T09:51:20.004Z</time></trkpt><trkpt lat="44.82365" lon="9.2980867"><ele>1037.6</ele><time>2026-04-11T09:51:21.002Z</time></trkpt><trkpt lat="44.8236217" lon="9.2979667"><ele>1041.0</ele><time>2026-04-11T09:51:22.001Z</time></trkpt><trkpt lat="44.8235833" lon="9.2978417"><ele>1040.6666666666667</ele><time>2026-04-11T09:51:23.001Z</time></trkpt><trkpt lat="44.8235417" lon="9.2977267"><ele>1040.3333333333333</ele><time>2026-04-11T09:51:24.001Z</time></trkpt><trkpt lat="44.823495" lon="9.2976167"><ele>1040.0</ele><time>2026-04-11T09:51:25.002Z</time></trkpt><trkpt lat="44.82345" lon="9.2975233"><ele>1039.6666666666665</ele><time>2026-04-11T09:51:26.001Z</time></trkpt><trkpt lat="44.8234167" lon="9.2974367"><ele>1039.3333333333333</ele><time>2026-04-11T09:51:27.003Z</time></trkpt><trkpt lat="44.8233833" lon="9.2973433"><ele>1039.0</ele><time>2026-04-11T09:51:28.001Z</time></trkpt><trkpt lat="44.82336" lon="9.29725"><ele>1039.0</ele><time>2026-04-11T09:51:29.004Z</time></trkpt><trkpt lat="44.823335" lon="9.2971517"><ele>1039.0</ele><time>2026-04-11T09:51:30.003Z</time></trkpt><trkpt lat="44.8233217" lon="9.297045"><ele>1039.0</ele><time>2026-04-11T09:51:31.002Z</time></trkpt><trkpt lat="44.8232983" lon="9.29693"><ele>1039.0</ele><time>2026-04-11T09:51:32.003Z</time></trkpt><trkpt lat="44.8232783" lon="9.2968117"><ele>1039.0</ele><time>2026-04-11T09:51:33.002Z</time></trkpt><trkpt lat="44.8232767" lon="9.296695"><ele>1039.0</ele><time>2026-04-11T09:51:34.001Z</time></trkpt><trkpt lat="44.8232683" lon="9.296575"><ele>1039.0</ele><time>2026-04-11T09:51:35.001Z</time></trkpt><trkpt lat="44.82327" lon="9.2964617"><ele>1039.0</ele><time>2026-04-11T09:51:36.001Z</time></trkpt><trkpt lat="44.8232667" lon="9.2963517"><ele>1039.0</ele><time>2026-04-11T09:51:37.003Z</time></trkpt><trkpt lat="44.8232633" lon="9.2962533"><ele>1039.0</ele><time>2026-04-11T09:51:38.001Z</time></trkpt><trkpt lat="44.8232367" lon="9.29616"><ele>1039.0</ele><time>2026-04-11T09:51:39.002Z</time></trkpt><trkpt lat="44.823135" lon="9.2960333"><ele>1039.0</ele><time>2026-04-11T09:51:41.001Z</time></trkpt><trkpt lat="44.8230623" lon="9.2959929"><ele>1039.8333333333333</ele><time>2026-04-11T09:51:42.002Z</time></trkpt><trkpt lat="44.8229844" lon="9.2959478"><ele>1040.6666666666665</ele><time>2026-04-11T09:51:43.002Z</time></trkpt><trkpt lat="44.8229064" lon="9.2958958"><ele>1041.5</ele><time>2026-04-11T09:51:44.002Z</time></trkpt><trkpt lat="44.8228266" lon="9.2958337"><ele>1042.3333333333333</ele><time>2026-04-11T09:51:45.001Z</time></trkpt><trkpt lat="44.8227452" lon="9.295769"><ele>1043.1666666666667</ele><time>2026-04-11T09:51:46.001Z</time></trkpt><trkpt lat="44.8226642" lon="9.2957007"><ele>1044.0</ele><time>2026-04-11T09:51:47.003Z</time></trkpt><trkpt lat="44.8225917" lon="9.2956281"><ele>1046.0</ele><time>2026-04-11T09:51:48.001Z</time></trkpt><trkpt lat="44.8225306" lon="9.2955501"><ele>1048.0</ele><time>2026-04-11T09:51:49.002Z</time></trkpt><trkpt lat="44.8224671" lon="9.2954774"><ele>1050.0</ele><time>2026-04-11T09:51:50.001Z</time></trkpt><trkpt lat="44.8223914" lon="9.2954174"><ele>1052.0</ele><time>2026-04-11T09:51:51.001Z</time></trkpt><trkpt lat="44.8223127" lon="9.2953747"><ele>1054.0</ele><time>2026-04-11T09:51:52.002Z</time></trkpt><trkpt lat="44.822239" lon="9.2953477"><ele>1056.0</ele><time>2026-04-11T09:51:53.001Z</time></trkpt><trkpt lat="44.8221569" lon="9.2953421"><ele>1056.0</ele><time>2026-04-11T09:51:54.002Z</time></trkpt><trkpt lat="44.8220678" lon="9.2953482"><ele>1056.0</ele><time>2026-04-11T09:51:55.001Z</time></trkpt><trkpt lat="44.8219781" lon="9.2953607"><ele>1056.0</ele><time>2026-04-11T09:51:56.001Z</time></trkpt><trkpt lat="44.8218837" lon="9.2953859"><ele>1056.0</ele><time>2026-04-11T09:51:57.001Z</time></trkpt><trkpt lat="44.8217945" lon="9.2954083"><ele>1056.0</ele><time>2026-04-11T09:51:58.001Z</time></trkpt><trkpt lat="44.8216983" lon="9.295437"><ele>1055.1666666666667</ele><time>2026-04-11T09:51:59.001Z</time></trkpt><trkpt lat="44.8216183" lon="9.2954701"><ele>1054.3333333333333</ele><time>2026-04-11T09:52:00.002Z</time></trkpt><trkpt lat="44.8215463" lon="9.2955154"><ele>1053.5</ele><time>2026-04-11T09:52:01.001Z</time></trkpt><trkpt lat="44.8214776" lon="9.2955795"><ele>1052.6666666666665</ele><time>2026-04-11T09:52:02.001Z</time></trkpt><trkpt lat="44.8214089" lon="9.295658"><ele>1051.8333333333333</ele><time>2026-04-11T09:52:03.001Z</time></trkpt><trkpt lat="44.8213389" lon="9.2957463"><ele>1051.0</ele><time>2026-04-11T09:52:04.001Z</time></trkpt><trkpt lat="44.8212668" lon="9.2958394"><ele>1051.0</ele><time>2026-04-11T09:52:05.001Z</time></trkpt><trkpt lat="44.8211978" lon="9.2959212"><ele>1051.0</ele><time>2026-04-11T09:52:06.001Z</time></trkpt><trkpt lat="44.8211259" lon="9.2959854"><ele>1051.0</ele><time>2026-04-11T09:52:07.002Z</time></trkpt><trkpt lat="44.8210526" lon="9.296048"><ele>1051.0</ele><time>2026-04-11T09:52:08.003Z</time></trkpt><trkpt lat="44.8209816" lon="9.2960983"><ele>1051.0</ele><time>2026-04-11T09:52:09.007Z</time></trkpt><trkpt lat="44.8209085" lon="9.2961502"><ele>1051.0</ele><time>2026-04-11T09:52:10.001Z</time></trkpt><trkpt lat="44.8208376" lon="9.2962199"><ele>1053.0</ele><time>2026-04-11T09:52:11.001Z</time></trkpt><trkpt lat="44.8207715" lon="9.2962912"><ele>1055.0</ele><time>2026-04-11T09:52:12Z</time></trkpt><trkpt lat="44.8207004" lon="9.2963606"><ele>1057.0</ele><time>2026-04-11T09:52:13.002Z</time></trkpt><trkpt lat="44.8206284" lon="9.2964044"><ele>1059.0</ele><time>2026-04-11T09:52:14.002Z</time></trkpt><trkpt lat="44.8205475" lon="9.2964258"><ele>1061.0</ele><time>2026-04-11T09:52:15.002Z</time></trkpt><trkpt lat="44.8204689" lon="9.2964332"><ele>1063.0</ele><time>2026-04-11T09:52:16.001Z</time></trkpt><trkpt lat="44.8203982" lon="9.2964371"><ele>1063.0</ele><time>2026-04-11T09:52:17.001Z</time></trkpt><trkpt lat="44.8203283" lon="9.2964442"><ele>1063.0</ele><time>2026-04-11T09:52:18.002Z</time></trkpt><trkpt lat="44.8202643" lon="9.2964695"><ele>1063.0</ele><time>2026-04-11T09:52:19.002Z</time></trkpt><trkpt lat="44.8202019" lon="9.2965679"><ele>1063.0</ele><time>2026-04-11T09:52:21.002Z</time></trkpt><trkpt lat="44.8201308" lon="9.2966749"><ele>1063.0</ele><time>2026-04-11T09:52:23.001Z</time></trkpt><trkpt lat="44.8200185" lon="9.2967475"><ele>1066.2857142857142</ele><time>2026-04-11T09:52:25.002Z</time></trkpt><trkpt lat="44.8199601" lon="9.2967946"><ele>1069.5714285714287</ele><time>2026-04-11T09:52:26.004Z</time></trkpt><trkpt lat="44.8198976" lon="9.2968477"><ele>1072.857142857143</ele><time>2026-04-11T09:52:27.004Z</time></trkpt><trkpt lat="44.8198314" lon="9.2968953"><ele>1076.142857142857</ele><time>2026-04-11T09:52:28.005Z</time></trkpt><trkpt lat="44.8197624" lon="9.2969313"><ele>1079.4285714285713</ele><time>2026-04-11T09:52:29.002Z</time></trkpt><trkpt lat="44.819691" lon="9.2969655"><ele>1082.7142857142858</ele><time>2026-04-11T09:52:30.003Z</time></trkpt><trkpt lat="44.8196201" lon="9.2970022"><ele>1086.0</ele><time>2026-04-11T09:52:31.002Z</time></trkpt><trkpt lat="44.819558" lon="9.2970392"><ele>1086.0</ele><time>2026-04-11T09:52:32.001Z</time></trkpt><trkpt lat="44.8194635" lon="9.2971278"><ele>1086.0</ele><time>2026-04-11T09:52:34.001Z</time></trkpt><trkpt lat="44.8194193" lon="9.2972746"><ele>1086.0</ele><time>2026-04-11T09:52:36.005Z</time></trkpt><trkpt lat="44.8193843" lon="9.2974383"><ele>1086.0</ele><time>2026-04-11T09:52:38.001Z</time></trkpt><trkpt lat="44.8193234" lon="9.2975611"><ele>1087.1666666666667</ele><time>2026-04-11T09:52:40.002Z</time></trkpt><trkpt lat="44.8192232" lon="9.2976664"><ele>1088.3333333333333</ele><time>2026-04-11T09:52:42.002Z</time></trkpt><trkpt lat="44.8191709" lon="9.2977178"><ele>1089.5</ele><time>2026-04-11T09:52:43.001Z</time></trkpt><trkpt lat="44.8191175" lon="9.2977741"><ele>1090.6666666666665</ele><time>2026-04-11T09:52:44.003Z</time></trkpt><trkpt lat="44.8190563" lon="9.2978256"><ele>1091.8333333333333</ele><time>2026-04-11T09:52:45.002Z</time></trkpt><trkpt lat="44.8189896" lon="9.2978673"><ele>1093.0</ele><time>2026-04-11T09:52:46.002Z</time></trkpt><trkpt lat="44.8189243" lon="9.2978951"><ele>1093.0</ele><time>2026-04-11T09:52:47.002Z</time></trkpt><trkpt lat="44.8187955" lon="9.2978935"><ele>1093.0</ele><time>2026-04-11T09:52:49.001Z</time></trkpt><trkpt lat="44.8186896" lon="9.2978212"><ele>1093.0</ele><time>2026-04-11T09:52:51.002Z</time></trkpt><trkpt lat="44.8185919" lon="9.2977604"><ele>1093.0</ele><time>2026-04-11T09:52:53.001Z</time></trkpt><trkpt lat="44.8184689" lon="9.2977268"><ele>1096.2</ele><time>2026-04-11T09:52:55.001Z</time></trkpt><trkpt lat="44.8183902" lon="9.2977144"><ele>1099.4</ele><time>2026-04-11T09:52:56.001Z</time></trkpt><trkpt lat="44.8183066" lon="9.2977067"><ele>1102.6000000000001</ele><time>2026-04-11T09:52:57.001Z</time></trkpt><trkpt lat="44.8182223" lon="9.2977071"><ele>1105.8</ele><time>2026-04-11T09:52:58.002Z</time></trkpt><trkpt lat="44.8181085" lon="9.2977193"><ele>1109.0</ele><time>2026-04-11T09:53:00.002Z</time></trkpt><trkpt lat="44.8180149" lon="9.2977628"><ele>1109.0</ele><time>2026-04-11T09:53:02.001Z</time></trkpt><trkpt lat="44.8179408" lon="9.2978255"><ele>1109.0</ele><time>2026-04-11T09:53:04.001Z</time></trkpt><trkpt lat="44.8178755" lon="9.2979296"><ele>1109.0</ele><time>2026-04-11T09:53:06.001Z</time></trkpt><trkpt lat="44.8178024" lon="9.2980891"><ele>1109.0</ele><time>2026-04-11T09:53:08.002Z</time></trkpt><trkpt lat="44.817751" lon="9.29818"><ele>1109.0</ele><time>2026-04-11T09:53:09.001Z</time></trkpt><trkpt lat="44.817685" lon="9.2982768"><ele>1109.8333333333335</ele><time>2026-04-11T09:53:10.001Z</time></trkpt><trkpt lat="44.8176132" lon="9.2983605"><ele>1110.6666666666667</ele><time>2026-04-11T09:53:11.002Z</time></trkpt><trkpt lat="44.8175346" lon="9.2984388"><ele>1111.5</ele><time>2026-04-11T09:53:12.002Z</time></trkpt><trkpt lat="44.8174582" lon="9.2985022"><ele>1112.3333333333333</ele><time>2026-04-11T09:53:13.002Z</time></trkpt><trkpt lat="44.8173964" lon="9.2985641"><ele>1113.1666666666665</ele><time>2026-04-11T09:53:14.001Z</time></trkpt><trkpt lat="44.817347" lon="9.29863"><ele>1114.0</ele><time>2026-04-11T09:53:15.003Z</time></trkpt><trkpt lat="44.8173107" lon="9.2987441"><ele>1114.0</ele><time>2026-04-11T09:53:17.001Z</time></trkpt><trkpt lat="44.8173153" lon="9.2988682"><ele>1114.0</ele><time>2026-04-11T09:53:19.002Z</time></trkpt><trkpt lat="44.8173277" lon="9.2989647"><ele>1114.0</ele><time>2026-04-11T09:53:21.002Z</time></trkpt><trkpt lat="44.8173277" lon="9.2990613"><ele>1114.0</ele><time>2026-04-11T09:53:23.002Z</time></trkpt><trkpt lat="44.8173053" lon="9.299179"><ele>1114.0</ele><time>2026-04-11T09:53:25.002Z</time></trkpt><trkpt lat="44.8172671" lon="9.2992805"><ele>1114.0</ele><time>2026-04-11T09:53:27.003Z</time></trkpt><trkpt lat="44.8172223" lon="9.2993706"><ele>1113.0</ele><time>2026-04-11T09:53:29.002Z</time></trkpt><trkpt lat="44.8171511" lon="9.2994667"><ele>1112.0</ele><time>2026-04-11T09:53:32Z</time></trkpt><trkpt lat="44.8170511" lon="9.2995949"><ele>1111.0</ele><time>2026-04-11T09:54:10Z</time></trkpt><trkpt lat="44.8170474" lon="9.2996948"><ele>1110.0</ele><time>2026-04-11T09:54:14.001Z</time></trkpt><trkpt lat="44.8170659" lon="9.2997856"><ele>1109.0</ele><time>2026-04-11T09:54:15.001Z</time></trkpt><trkpt lat="44.8170912" lon="9.2998758"><ele>1108.0</ele><time>2026-04-11T09:54:16.001Z</time></trkpt><trkpt lat="44.8171201" lon="9.2999755"><ele>1107.6666666666665</ele><time>2026-04-11T09:54:17.001Z</time></trkpt><trkpt lat="44.8171417" lon="9.3000917"><ele>1107.3333333333333</ele><time>2026-04-11T09:54:18.003Z</time></trkpt><trkpt lat="44.8171617" lon="9.3001883"><ele>1107.0</ele><time>2026-04-11T09:54:19.002Z</time></trkpt><trkpt lat="44.8171733" lon="9.3002917"><ele>1106.6666666666667</ele><time>2026-04-11T09:54:20.001Z</time></trkpt><trkpt lat="44.8171917" lon="9.3003867"><ele>1106.3333333333335</ele><time>2026-04-11T09:54:21.001Z</time></trkpt><trkpt lat="44.817225" lon="9.300495"><ele>1106.0</ele><time>2026-04-11T09:54:22.002Z</time></trkpt><trkpt lat="44.8172633" lon="9.3005767"><ele>1104.1666666666667</ele><time>2026-04-11T09:54:23.001Z</time></trkpt><trkpt lat="44.8172933" lon="9.3006583"><ele>1102.3333333333335</ele><time>2026-04-11T09:54:24.001Z</time></trkpt><trkpt lat="44.817295" lon="9.3007917"><ele>1100.5</ele><time>2026-04-11T09:54:26.001Z</time></trkpt><trkpt lat="44.8171883" lon="9.3008883"><ele>1098.6666666666667</ele><time>2026-04-11T09:54:28.001Z</time></trkpt><trkpt lat="44.81711" lon="9.30094"><ele>1096.8333333333333</ele><time>2026-04-11T09:54:29Z</time></trkpt><trkpt lat="44.81705" lon="9.3009833"><ele>1095.0</ele><time>2026-04-11T09:54:30.001Z</time></trkpt><trkpt lat="44.81699" lon="9.3010367"><ele>1095.0</ele><time>2026-04-11T09:54:31.001Z</time></trkpt><trkpt lat="44.8169083" lon="9.301185"><ele>1095.0</ele><time>2026-04-11T09:54:33.002Z</time></trkpt><trkpt lat="44.8168883" lon="9.3012833"><ele>1095.0</ele><time>2026-04-11T09:54:34.002Z</time></trkpt><trkpt lat="44.8168767" lon="9.301385"><ele>1095.0</ele><time>2026-04-11T09:54:35.001Z</time></trkpt><trkpt lat="44.816875" lon="9.3014983"><ele>1095.0</ele><time>2026-04-11T09:54:36.001Z</time></trkpt><trkpt lat="44.8168883" lon="9.3015983"><ele>1095.0</ele><time>2026-04-11T09:54:37.003Z</time></trkpt><trkpt lat="44.8168917" lon="9.3017067"><ele>1092.6666666666667</ele><time>2026-04-11T09:54:38.002Z</time></trkpt><trkpt lat="44.8168967" lon="9.3018183"><ele>1090.3333333333333</ele><time>2026-04-11T09:54:39.002Z</time></trkpt><trkpt lat="44.8169067" lon="9.301925"><ele>1088.0</ele><time>2026-04-11T09:54:40.001Z</time></trkpt><trkpt lat="44.8169267" lon="9.3020383"><ele>1085.6666666666665</ele><time>2026-04-11T09:54:41.002Z</time></trkpt><trkpt lat="44.8169417" lon="9.3021483"><ele>1083.3333333333333</ele><time>2026-04-11T09:54:42.002Z</time></trkpt><trkpt lat="44.816975" lon="9.30226"><ele>1081.0</ele><time>2026-04-11T09:54:43.002Z</time></trkpt><trkpt lat="44.8169983" lon="9.3023767"><ele>1080.0</ele><time>2026-04-11T09:54:44.001Z</time></trkpt><trkpt lat="44.81702" lon="9.302485"><ele>1079.0</ele><time>2026-04-11T09:54:45.002Z</time></trkpt><trkpt lat="44.8170383" lon="9.302585"><ele>1078.0</ele><time>2026-04-11T09:54:46.002Z</time></trkpt><trkpt lat="44.81704" lon="9.3027"><ele>1077.0</ele><time>2026-04-11T09:54:47.001Z</time></trkpt><trkpt lat="44.8170417" lon="9.30281"><ele>1076.0</ele><time>2026-04-11T09:54:48.001Z</time></trkpt><trkpt lat="44.8170417" lon="9.3029083"><ele>1075.0</ele><time>2026-04-11T09:54:49.001Z</time></trkpt><trkpt lat="44.817045" lon="9.30305"><ele>1074.8333333333333</ele><time>2026-04-11T09:54:51.001Z</time></trkpt><trkpt lat="44.8170333" lon="9.3031483"><ele>1074.6666666666665</ele><time>2026-04-11T09:54:53.003Z</time></trkpt><trkpt lat="44.8169717" lon="9.3032483"><ele>1074.5</ele><time>2026-04-11T09:54:55.001Z</time></trkpt><trkpt lat="44.8169117" lon="9.3033667"><ele>1074.3333333333333</ele><time>2026-04-11T09:54:57.001Z</time></trkpt><trkpt lat="44.8168883" lon="9.3034633"><ele>1074.1666666666667</ele><time>2026-04-11T09:54:58.003Z</time></trkpt><trkpt lat="44.8168717" lon="9.3035733"><ele>1074.0</ele><time>2026-04-11T09:54:59.001Z</time></trkpt><trkpt lat="44.81685" lon="9.303685"><ele>1074.0</ele><time>2026-04-11T09:55:00.002Z</time></trkpt><trkpt lat="44.8168333" lon="9.3037917"><ele>1074.0</ele><time>2026-04-11T09:55:01.001Z</time></trkpt><trkpt lat="44.8168283" lon="9.30392"><ele>1074.0</ele><time>2026-04-11T09:55:02.001Z</time></trkpt><trkpt lat="44.8168283" lon="9.3040483"><ele>1074.0</ele><time>2026-04-11T09:55:03.001Z</time></trkpt><trkpt lat="44.81684" lon="9.3041733"><ele>1074.0</ele><time>2026-04-11T09:55:04.001Z</time></trkpt><trkpt lat="44.8168533" lon="9.30431"><ele>1074.0</ele><time>2026-04-11T09:55:05.001Z</time></trkpt><trkpt lat="44.8168683" lon="9.3044333"><ele>1073.1666666666667</ele><time>2026-04-11T09:55:06.001Z</time></trkpt><trkpt lat="44.8168917" lon="9.30455"><ele>1072.3333333333333</ele><time>2026-04-11T09:55:07.001Z</time></trkpt><trkpt lat="44.8169117" lon="9.3046667"><ele>1071.5</ele><time>2026-04-11T09:55:08.002Z</time></trkpt><trkpt lat="44.81693" lon="9.30477"><ele>1070.6666666666665</ele><time>2026-04-11T09:55:09.001Z</time></trkpt><trkpt lat="44.8169333" lon="9.3048717"><ele>1069.8333333333333</ele><time>2026-04-11T09:55:10.001Z</time></trkpt><trkpt lat="44.8169083" lon="9.30503"><ele>1069.0</ele><time>2026-04-11T09:55:12.001Z</time></trkpt><trkpt lat="44.8168983" lon="9.30512"><ele>1068.0</ele><time>2026-04-11T09:55:13.002Z</time></trkpt><trkpt lat="44.8168967" lon="9.3052517"><ele>1067.0</ele><time>2026-04-11T09:55:15.002Z</time></trkpt><trkpt lat="44.81688" lon="9.30537"><ele>1066.0</ele><time>2026-04-11T09:55:17.002Z</time></trkpt><trkpt lat="44.81682" lon="9.3054717"><ele>1065.0</ele><time>2026-04-11T09:55:19.002Z</time></trkpt><trkpt lat="44.8167833" lon="9.3055717"><ele>1064.0</ele><time>2026-04-11T09:55:21.003Z</time></trkpt><trkpt lat="44.8167783" lon="9.3057117"><ele>1063.6666666666667</ele><time>2026-04-11T09:55:23.001Z</time></trkpt><trkpt lat="44.81679" lon="9.3058083"><ele>1063.3333333333335</ele><time>2026-04-11T09:55:24.001Z</time></trkpt><trkpt lat="44.8167883" lon="9.30592"><ele>1063.0</ele><time>2026-04-11T09:55:25.002Z</time></trkpt><trkpt lat="44.816795" lon="9.3060483"><ele>1062.6666666666667</ele><time>2026-04-11T09:55:26.003Z</time></trkpt><trkpt lat="44.8168033" lon="9.3061483"><ele>1062.3333333333333</ele><time>2026-04-11T09:55:27.002Z</time></trkpt><trkpt lat="44.816815" lon="9.3062483"><ele>1062.0</ele><time>2026-04-11T09:55:28Z</time></trkpt><trkpt lat="44.8168283" lon="9.3063433"><ele>1062.5</ele><time>2026-04-11T09:55:29.002Z</time></trkpt><trkpt lat="44.8168333" lon="9.3064433"><ele>1063.0</ele><time>2026-04-11T09:55:30.003Z</time></trkpt><trkpt lat="44.81683" lon="9.3065433"><ele>1063.5</ele><time>2026-04-11T09:55:31.002Z</time></trkpt><trkpt lat="44.81682" lon="9.3066467"><ele>1064.0</ele><time>2026-04-11T09:55:32.001Z</time></trkpt><trkpt lat="44.8168033" lon="9.3067583"><ele>1064.5</ele><time>2026-04-11T09:55:33.001Z</time></trkpt><trkpt lat="44.8168017" lon="9.3068717"><ele>1065.0</ele><time>2026-04-11T09:55:34.002Z</time></trkpt><trkpt lat="44.8168" lon="9.3069967"><ele>1070.3333333333333</ele><time>2026-04-11T09:55:35Z</time></trkpt><trkpt lat="44.8167967" lon="9.3071183"><ele>1075.6666666666667</ele><time>2026-04-11T09:55:36.002Z</time></trkpt><trkpt lat="44.8167983" lon="9.307225"><ele>1081.0</ele><time>2026-04-11T09:55:37.001Z</time></trkpt><trkpt lat="44.8168" lon="9.3073233"><ele>1086.3333333333335</ele><time>2026-04-11T09:55:38.002Z</time></trkpt><trkpt lat="44.8168067" lon="9.3074267"><ele>1091.6666666666667</ele><time>2026-04-11T09:55:39.001Z</time></trkpt><trkpt lat="44.8168117" lon="9.3075433"><ele>1097.0</ele><time>2026-04-11T09:55:40.001Z</time></trkpt><trkpt lat="44.8168183" lon="9.3076633"><ele>1093.2</ele><time>2026-04-11T09:55:41.001Z</time></trkpt><trkpt lat="44.8168317" lon="9.3077817"><ele>1089.4</ele><time>2026-04-11T09:55:42.002Z</time></trkpt><trkpt lat="44.8168383" lon="9.3078967"><ele>1085.6</ele><time>2026-04-11T09:55:43.001Z</time></trkpt><trkpt lat="44.8168483" lon="9.30805"><ele>1081.8</ele><time>2026-04-11T09:55:45.002Z</time></trkpt><trkpt lat="44.816935" lon="9.3081617"><ele>1078.0</ele><time>2026-04-11T09:55:56Z</time></trkpt><trkpt lat="44.8169867" lon="9.30822"><ele>1078.0</ele><time>2026-04-11T09:55:58Z</time></trkpt><trkpt lat="44.8170567" lon="9.30828"><ele>1078.0</ele><time>2026-04-11T09:56:00.001Z</time></trkpt><trkpt lat="44.8171417" lon="9.308345"><ele>1078.0</ele><time>2026-04-11T09:56:02.001Z</time></trkpt><trkpt lat="44.8172383" lon="9.3083883"><ele>1078.0</ele><time>2026-04-11T09:56:04.002Z</time></trkpt><trkpt lat="44.8173033" lon="9.308465"><ele>1078.0</ele><time>2026-04-11T09:56:06.001Z</time></trkpt><trkpt lat="44.817345" lon="9.3085817"><ele>1078.0</ele><time>2026-04-11T09:56:08.001Z</time></trkpt><trkpt lat="44.8173683" lon="9.3087433"><ele>1078.0</ele><time>2026-04-11T09:56:10Z</time></trkpt><trkpt lat="44.8173783" lon="9.3089233"><ele>1078.0</ele><time>2026-04-11T09:56:12.001Z</time></trkpt><trkpt lat="44.817355" lon="9.3090667"><ele>1078.0</ele><time>2026-04-11T09:56:14.001Z</time></trkpt><trkpt lat="44.8173367" lon="9.3091583"><ele>1078.0</ele><time>2026-04-11T09:56:15.002Z</time></trkpt><trkpt lat="44.817325" lon="9.3092483"><ele>1076.857142857143</ele><time>2026-04-11T09:56:16Z</time></trkpt><trkpt lat="44.81731" lon="9.3093383"><ele>1075.7142857142858</ele><time>2026-04-11T09:56:17Z</time></trkpt><trkpt lat="44.8172933" lon="9.30944"><ele>1074.5714285714284</ele><time>2026-04-11T09:56:18Z</time></trkpt><trkpt lat="44.817285" lon="9.3095417"><ele>1073.4285714285716</ele><time>2026-04-11T09:56:19.001Z</time></trkpt><trkpt lat="44.8172833" lon="9.309645"><ele>1072.2857142857142</ele><time>2026-04-11T09:56:20.001Z</time></trkpt><trkpt lat="44.8172933" lon="9.30974"><ele>1071.142857142857</ele><time>2026-04-11T09:56:21.002Z</time></trkpt><trkpt lat="44.8173033" lon="9.3098383"><ele>1070.0</ele><time>2026-04-11T09:56:22.001Z</time></trkpt><trkpt lat="44.817305" lon="9.3099483"><ele>1068.4</ele><time>2026-04-11T09:56:23.001Z</time></trkpt><trkpt lat="44.8173" lon="9.31005"><ele>1066.8</ele><time>2026-04-11T09:56:24.001Z</time></trkpt><trkpt lat="44.8172833" lon="9.3101617"><ele>1065.2</ele><time>2026-04-11T09:56:25.001Z</time></trkpt><trkpt lat="44.817265" lon="9.31028"><ele>1063.6</ele><time>2026-04-11T09:56:27.004Z</time></trkpt><trkpt lat="44.81721" lon="9.310455"><ele>1062.0</ele><time>2026-04-11T09:56:42.001Z</time></trkpt><trkpt lat="44.8171533" lon="9.310525"><ele>1061.0</ele><time>2026-04-11T09:56:46Z</time></trkpt><trkpt lat="44.8170983" lon="9.3106283"><ele>1060.0</ele><time>2026-04-11T09:56:49Z</time></trkpt><trkpt lat="44.8170433" lon="9.3107083"><ele>1059.0</ele><time>2026-04-11T09:56:52.002Z</time></trkpt><trkpt lat="44.8169767" lon="9.31075"><ele>1058.0</ele><time>2026-04-11T09:56:54.001Z</time></trkpt><trkpt lat="44.8169333" lon="9.31085"><ele>1057.0</ele><time>2026-04-11T09:56:57.002Z</time></trkpt><trkpt lat="44.8169217" lon="9.3109417"><ele>1056.0</ele><time>2026-04-11T09:56:59Z</time></trkpt><trkpt lat="44.8169317" lon="9.3110717"><ele>1056.0</ele><time>2026-04-11T09:57:01.001Z</time></trkpt><trkpt lat="44.8169567" lon="9.3111967"><ele>1056.0</ele><time>2026-04-11T09:57:03.001Z</time></trkpt><trkpt lat="44.81693" lon="9.3113317"><ele>1056.0</ele><time>2026-04-11T09:57:05.001Z</time></trkpt><trkpt lat="44.8169017" lon="9.3114367"><ele>1056.0</ele><time>2026-04-11T09:57:07.001Z</time></trkpt><trkpt lat="44.816875" lon="9.3115933"><ele>1056.0</ele><time>2026-04-11T09:57:09.002Z</time></trkpt><trkpt lat="44.8168633" lon="9.3117483"><ele>1052.2</ele><time>2026-04-11T09:57:11.002Z</time></trkpt><trkpt lat="44.8168667" lon="9.311895"><ele>1048.3999999999999</ele><time>2026-04-11T09:57:13.001Z</time></trkpt><trkpt lat="44.8168567" lon="9.312045"><ele>1044.6</ele><time>2026-04-11T09:57:15.001Z</time></trkpt><trkpt lat="44.8168433" lon="9.3121833"><ele>1040.8</ele><time>2026-04-11T09:57:17Z</time></trkpt><trkpt lat="44.816835" lon="9.312305"><ele>1037.0</ele><time>2026-04-11T09:57:19.002Z</time></trkpt><trkpt lat="44.81683" lon="9.312405"><ele>1038.4</ele><time>2026-04-11T09:57:21.001Z</time></trkpt><trkpt lat="44.8168117" lon="9.3125367"><ele>1039.8000000000002</ele><time>2026-04-11T09:57:23.001Z</time></trkpt><trkpt lat="44.8168217" lon="9.3127133"><ele>1041.2</ele><time>2026-04-11T09:57:25.001Z</time></trkpt><trkpt lat="44.81683" lon="9.3128267"><ele>1042.6000000000001</ele><time>2026-04-11T09:57:26.001Z</time></trkpt><trkpt lat="44.8168367" lon="9.3129483"><ele>1044.0</ele><time>2026-04-11T09:57:27.003Z</time></trkpt><trkpt lat="44.8168383" lon="9.31307"><ele>1042.8333333333333</ele><time>2026-04-11T09:57:28Z</time></trkpt><trkpt lat="44.8168417" lon="9.3131833"><ele>1041.6666666666667</ele><time>2026-04-11T09:57:29.001Z</time></trkpt><trkpt lat="44.8168417" lon="9.3133017"><ele>1040.5</ele><time>2026-04-11T09:57:30.002Z</time></trkpt><trkpt lat="44.816845" lon="9.3134083"><ele>1039.3333333333335</ele><time>2026-04-11T09:57:31.001Z</time></trkpt><trkpt lat="44.8168333" lon="9.3135167"><ele>1038.1666666666667</ele><time>2026-04-11T09:57:32.002Z</time></trkpt><trkpt lat="44.8168317" lon="9.3136167"><ele>1037.0</ele><time>2026-04-11T09:57:33.002Z</time></trkpt><trkpt lat="44.8168183" lon="9.3137217"><ele>1037.0</ele><time>2026-04-11T09:57:34Z</time></trkpt><trkpt lat="44.816805" lon="9.3138117"><ele>1037.0</ele><time>2026-04-11T09:57:35Z</time></trkpt><trkpt lat="44.8168167" lon="9.313965"><ele>1037.0</ele><time>2026-04-11T09:57:37Z</time></trkpt><trkpt lat="44.8168767" lon="9.3140983"><ele>1037.0</ele><time>2026-04-11T09:57:39.002Z</time></trkpt><trkpt lat="44.8169867" lon="9.3142"><ele>1037.0</ele><time>2026-04-11T09:57:41.001Z</time></trkpt><trkpt lat="44.8170383" lon="9.3142517"><ele>1031.8</ele><time>2026-04-11T09:57:42.002Z</time></trkpt><trkpt lat="44.8170917" lon="9.3143033"><ele>1026.6</ele><time>2026-04-11T09:57:43.001Z</time></trkpt><trkpt lat="44.81717" lon="9.3144133"><ele>1021.3999999999999</ele><time>2026-04-11T09:57:45.001Z</time></trkpt><trkpt lat="44.8172333" lon="9.314525"><ele>1016.1999999999999</ele><time>2026-04-11T09:57:47.001Z</time></trkpt><trkpt lat="44.8173133" lon="9.3146017"><ele>1011.0</ele><time>2026-04-11T09:57:49.002Z</time></trkpt><trkpt lat="44.8174033" lon="9.31463"><ele>1010.9999999999999</ele><time>2026-04-11T09:57:51.001Z</time></trkpt><trkpt lat="44.817505" lon="9.314685"><ele>1011.0</ele><time>2026-04-11T09:57:53Z</time></trkpt><trkpt lat="44.8175583" lon="9.3147417"><ele>1010.9999999999999</ele><time>2026-04-11T09:57:54.001Z</time></trkpt><trkpt lat="44.8176083" lon="9.3148067"><ele>1010.9999999999999</ele><time>2026-04-11T09:57:55Z</time></trkpt><trkpt lat="44.8176483" lon="9.31488"><ele>1011.0</ele><time>2026-04-11T09:57:56.002Z</time></trkpt><trkpt lat="44.817685" lon="9.3149683"><ele>1010.9999999999999</ele><time>2026-04-11T09:57:57.001Z</time></trkpt><trkpt lat="44.8177183" lon="9.31505"><ele>1010.9999999999999</ele><time>2026-04-11T09:57:58.001Z</time></trkpt><trkpt lat="44.8177617" lon="9.3151667"><ele>1007.0</ele><time>2026-04-11T09:58:00.001Z</time></trkpt><trkpt lat="44.8178667" lon="9.31527"><ele>1002.9999999999999</ele><time>2026-04-11T09:58:19.002Z</time></trkpt><trkpt lat="44.817925" lon="9.3153517"><ele>998.9999999999999</ele><time>2026-04-11T09:58:21.001Z</time></trkpt><trkpt lat="44.8179933" lon="9.315455"><ele>995.0</ele><time>2026-04-11T09:58:23Z</time></trkpt><trkpt lat="44.8180517" lon="9.3156133"><ele>991.0</ele><time>2026-04-11T09:58:25.001Z</time></trkpt><trkpt lat="44.8180867" lon="9.3156883"><ele>990.4999999999999</ele><time>2026-04-11T09:58:26Z</time></trkpt><trkpt lat="44.8181283" lon="9.3157667"><ele>990.0</ele><time>2026-04-11T09:58:27.002Z</time></trkpt><trkpt lat="44.8182283" lon="9.3158483"><ele>989.5</ele><time>2026-04-11T09:58:29.002Z</time></trkpt><trkpt lat="44.8182883" lon="9.31588"><ele>989.0</ele><time>2026-04-11T09:58:30.001Z</time></trkpt><trkpt lat="44.8183933" lon="9.3159517"><ele>988.4999999999999</ele><time>2026-04-11T09:58:32.001Z</time></trkpt><trkpt lat="44.81845" lon="9.3159983"><ele>988.0</ele><time>2026-04-11T09:58:33.001Z</time></trkpt><trkpt lat="44.8185117" lon="9.3160617"><ele>982.8</ele><time>2026-04-11T09:58:34.001Z</time></trkpt><trkpt lat="44.8185717" lon="9.3161417"><ele>977.5999999999999</ele><time>2026-04-11T09:58:35.001Z</time></trkpt><trkpt lat="44.8186217" lon="9.3162233"><ele>972.4000000000001</ele><time>2026-04-11T09:58:36.001Z</time></trkpt><trkpt lat="44.81867" lon="9.316305"><ele>967.2</ele><time>2026-04-11T09:58:37.001Z</time></trkpt><trkpt lat="44.8187517" lon="9.31641"><ele>962.0</ele><time>2026-04-11T09:58:39.002Z</time></trkpt><trkpt lat="44.8188583" lon="9.316485"><ele>962.0</ele><time>2026-04-11T09:58:41.002Z</time></trkpt><trkpt lat="44.8189217" lon="9.31655"><ele>962.0</ele><time>2026-04-11T09:58:42.001Z</time></trkpt><trkpt lat="44.819005" lon="9.316675"><ele>962.0</ele><time>2026-04-11T09:58:44.002Z</time></trkpt><trkpt lat="44.8190733" lon="9.3168017"><ele>962.0</ele><time>2026-04-11T09:58:46.002Z</time></trkpt><trkpt lat="44.81915" lon="9.3169717"><ele>962.0</ele><time>2026-04-11T09:58:48.003Z</time></trkpt><trkpt lat="44.8192267" lon="9.3171017"><ele>962.0</ele><time>2026-04-11T09:58:50.002Z</time></trkpt><trkpt lat="44.819275" lon="9.31719"><ele>962.0</ele><time>2026-04-11T09:58:51.002Z</time></trkpt><trkpt lat="44.8193317" lon="9.3172717"><ele>962.0</ele><time>2026-04-11T09:58:52.001Z</time></trkpt><trkpt lat="44.8193867" lon="9.3173333"><ele>962.0</ele><time>2026-04-11T09:58:53.002Z</time></trkpt><trkpt lat="44.8194667" lon="9.317445"><ele>957.8</ele><time>2026-04-11T09:58:55.003Z</time></trkpt><trkpt lat="44.81954" lon="9.317555"><ele>953.6</ele><time>2026-04-11T09:58:57.002Z</time></trkpt><trkpt lat="44.8195683" lon="9.31764"><ele>949.3999999999999</ele><time>2026-04-11T09:58:58.002Z</time></trkpt><trkpt lat="44.8196083" lon="9.317715"><ele>945.1999999999999</ele><time>2026-04-11T09:58:59.002Z</time></trkpt><trkpt lat="44.8196767" lon="9.3178367"><ele>941.0</ele><time>2026-04-11T09:59:01.002Z</time></trkpt><trkpt lat="44.8197783" lon="9.317905"><ele>941.0</ele><time>2026-04-11T09:59:03.004Z</time></trkpt><trkpt lat="44.81984" lon="9.31795"><ele>940.9999999999999</ele><time>2026-04-11T09:59:04.001Z</time></trkpt><trkpt lat="44.8199733" lon="9.318015"><ele>940.9999999999999</ele><time>2026-04-11T09:59:06.003Z</time></trkpt><trkpt lat="44.82005" lon="9.31805"><ele>941.0</ele><time>2026-04-11T09:59:07.003Z</time></trkpt><trkpt lat="44.8201233" lon="9.3181"><ele>941.0</ele><time>2026-04-11T09:59:08.002Z</time></trkpt><trkpt lat="44.8201983" lon="9.3181467"><ele>935.0000000000001</ele><time>2026-04-11T09:59:09.003Z</time></trkpt><trkpt lat="44.8202583" lon="9.3181867"><ele>929.0</ele><time>2026-04-11T09:59:10.001Z</time></trkpt><trkpt lat="44.820335" lon="9.31822"><ele>923.0</ele><time>2026-04-11T09:59:11.002Z</time></trkpt><trkpt lat="44.8204117" lon="9.318265"><ele>917.0</ele><time>2026-04-11T09:59:12.002Z</time></trkpt><trkpt lat="44.82052" lon="9.3183617"><ele>911.0000000000001</ele><time>2026-04-11T09:59:14.003Z</time></trkpt><trkpt lat="44.8205783" lon="9.318425"><ele>905.0</ele><time>2026-04-11T09:59:15.002Z</time></trkpt><trkpt lat="44.8206567" lon="9.31849"><ele>905.0000000000001</ele><time>2026-04-11T09:59:16.002Z</time></trkpt><trkpt lat="44.8207217" lon="9.3185333"><ele>905.0</ele><time>2026-04-11T09:59:17.002Z</time></trkpt><trkpt lat="44.8207883" lon="9.31857"><ele>905.0</ele><time>2026-04-11T09:59:18.001Z</time></trkpt><trkpt lat="44.8208883" lon="9.31862"><ele>905.0</ele><time>2026-04-11T09:59:20.002Z</time></trkpt><trkpt lat="44.82098" lon="9.3185933"><ele>905.0000000000001</ele><time>2026-04-11T09:59:22.003Z</time></trkpt><trkpt lat="44.8210717" lon="9.3185283"><ele>905.0</ele><time>2026-04-11T09:59:24.002Z</time></trkpt><trkpt lat="44.8211683" lon="9.3185133"><ele>898.6</ele><time>2026-04-11T09:59:26.003Z</time></trkpt><trkpt lat="44.8212683" lon="9.31855"><ele>892.2</ele><time>2026-04-11T09:59:28.002Z</time></trkpt><trkpt lat="44.8213617" lon="9.31864"><ele>885.8</ele><time>2026-04-11T09:59:30.002Z</time></trkpt><trkpt lat="44.82144" lon="9.318685"><ele>879.4</ele><time>2026-04-11T09:59:32.001Z</time></trkpt><trkpt lat="44.8214767" lon="9.318585"><ele>873.0</ele><time>2026-04-11T09:59:34.002Z</time></trkpt><trkpt lat="44.82148" lon="9.3184183"><ele>873.0</ele><time>2026-04-11T09:59:36.002Z</time></trkpt><trkpt lat="44.8214717" lon="9.3183217"><ele>873.0</ele><time>2026-04-11T09:59:37.002Z</time></trkpt><trkpt lat="44.8214667" lon="9.3182017"><ele>873.0</ele><time>2026-04-11T09:59:38.002Z</time></trkpt><trkpt lat="44.821465" lon="9.3180817"><ele>873.0</ele><time>2026-04-11T09:59:39.002Z</time></trkpt><trkpt lat="44.8214633" lon="9.3179617"><ele>873.0</ele><time>2026-04-11T09:59:40.002Z</time></trkpt><trkpt lat="44.8214667" lon="9.31786"><ele>873.0</ele><time>2026-04-11T09:59:41.002Z</time></trkpt><trkpt lat="44.821485" lon="9.3177683"><ele>872.3333333333334</ele><time>2026-04-11T09:59:42.002Z</time></trkpt><trkpt lat="44.8215833" lon="9.3176617"><ele>871.6666666666667</ele><time>2026-04-11T09:59:44.002Z</time></trkpt><trkpt lat="44.8216467" lon="9.3176083"><ele>871.0</ele><time>2026-04-11T09:59:45.003Z</time></trkpt><trkpt lat="44.8217217" lon="9.3175567"><ele>870.3333333333334</ele><time>2026-04-11T09:59:46.001Z</time></trkpt><trkpt lat="44.8217883" lon="9.3175217"><ele>869.6666666666667</ele><time>2026-04-11T09:59:47.001Z</time></trkpt><trkpt lat="44.8218533" lon="9.31749"><ele>869.0</ele><time>2026-04-11T09:59:48.003Z</time></trkpt><trkpt lat="44.8219717" lon="9.3174467"><ele>863.4000000000001</ele><time>2026-04-11T09:59:50.002Z</time></trkpt><trkpt lat="44.82206" lon="9.3174517"><ele>857.8000000000001</ele><time>2026-04-11T09:59:52.003Z</time></trkpt><trkpt lat="44.8221033" lon="9.31753"><ele>852.2</ele><time>2026-04-11T09:59:55.002Z</time></trkpt><trkpt lat="44.8222233" lon="9.317605"><ele>846.5999999999999</ele><time>2026-04-11T10:00:10.003Z</time></trkpt><trkpt lat="44.8223017" lon="9.3176517"><ele>841.0</ele><time>2026-04-11T10:00:13.001Z</time></trkpt><trkpt lat="44.822365" lon="9.3177117"><ele>841.0</ele><time>2026-04-11T10:00:16.002Z</time></trkpt><trkpt lat="44.822415" lon="9.3177917"><ele>841.0</ele><time>2026-04-11T10:00:19.002Z</time></trkpt><trkpt lat="44.82246" lon="9.317855"><ele>841.0</ele><time>2026-04-11T10:00:22.001Z</time></trkpt><trkpt lat="44.8224717" lon="9.31775"><ele>841.0</ele><time>2026-04-11T10:00:26.002Z</time></trkpt><trkpt lat="44.8224233" lon="9.3176667"><ele>841.0</ele><time>2026-04-11T10:00:28.002Z</time></trkpt><trkpt lat="44.8223817" lon="9.3176"><ele>841.0</ele><time>2026-04-11T10:00:29.001Z</time></trkpt><trkpt lat="44.8223367" lon="9.3175233"><ele>841.0</ele><time>2026-04-11T10:00:30.002Z</time></trkpt><trkpt lat="44.8222917" lon="9.31745"><ele>840.9999999999999</ele><time>2026-04-11T10:00:31.002Z</time></trkpt><trkpt lat="44.822245" lon="9.3173833"><ele>841.0</ele><time>2026-04-11T10:00:32.002Z</time></trkpt><trkpt lat="44.822195" lon="9.31732"><ele>841.0</ele><time>2026-04-11T10:00:33.001Z</time></trkpt><trkpt lat="44.82215" lon="9.3172517"><ele>841.0</ele><time>2026-04-11T10:00:34.002Z</time></trkpt><trkpt lat="44.822075" lon="9.3171417"><ele>840.9999999999999</ele><time>2026-04-11T10:00:36.003Z</time></trkpt><trkpt lat="44.82207" lon="9.31704"><ele>841.0</ele><time>2026-04-11T10:00:39.001Z</time></trkpt><trkpt lat="44.82217" lon="9.3169983"><ele>845.0</ele><time>2026-04-11T10:00:42.001Z</time></trkpt><trkpt lat="44.8223067" lon="9.31702"><ele>849.0</ele><time>2026-04-11T10:00:44.001Z</time></trkpt><trkpt lat="44.8223917" lon="9.317045"><ele>852.9999999999999</ele><time>2026-04-11T10:00:45.002Z</time></trkpt><trkpt lat="44.8224683" lon="9.3170683"><ele>857.0</ele><time>2026-04-11T10:00:46.002Z</time></trkpt><trkpt lat="44.822595" lon="9.3171017"><ele>861.0</ele><time>2026-04-11T10:01:03.002Z</time></trkpt><trkpt lat="44.8226967" lon="9.31714"><ele>861.7142857142857</ele><time>2026-04-11T10:01:05.002Z</time></trkpt><trkpt lat="44.822755" lon="9.3171817"><ele>862.4285714285714</ele><time>2026-04-11T10:01:06.007Z</time></trkpt><trkpt lat="44.8228183" lon="9.3172417"><ele>863.1428571428571</ele><time>2026-04-11T10:01:07.003Z</time></trkpt><trkpt lat="44.8228767" lon="9.3173"><ele>863.8571428571429</ele><time>2026-04-11T10:01:08.002Z</time></trkpt><trkpt lat="44.8229333" lon="9.317355"><ele>864.5714285714286</ele><time>2026-04-11T10:01:09.002Z</time></trkpt><trkpt lat="44.8229817" lon="9.3174267"><ele>865.2857142857142</ele><time>2026-04-11T10:01:10.001Z</time></trkpt><trkpt lat="44.8230367" lon="9.3174967"><ele>866.0</ele><time>2026-04-11T10:01:11.001Z</time></trkpt><trkpt lat="44.8230967" lon="9.31756"><ele>862.1666666666667</ele><time>2026-04-11T10:01:12.001Z</time></trkpt><trkpt lat="44.8231583" lon="9.31763"><ele>858.3333333333334</ele><time>2026-04-11T10:01:13.001Z</time></trkpt><trkpt lat="44.8232183" lon="9.3177017"><ele>854.5</ele><time>2026-04-11T10:01:14.001Z</time></trkpt><trkpt lat="44.82328" lon="9.3177633"><ele>850.6666666666667</ele><time>2026-04-11T10:01:15.002Z</time></trkpt><trkpt lat="44.8233483" lon="9.3178267"><ele>846.8333333333334</ele><time>2026-04-11T10:01:16.001Z</time></trkpt><trkpt lat="44.82341" lon="9.3179017"><ele>843.0</ele><time>2026-04-11T10:01:17.001Z</time></trkpt><trkpt lat="44.823475" lon="9.3179933"><ele>844.2</ele><time>2026-04-11T10:01:18.002Z</time></trkpt><trkpt lat="44.823545" lon="9.31809"><ele>845.4</ele><time>2026-04-11T10:01:19.003Z</time></trkpt><trkpt lat="44.8236017" lon="9.318185"><ele>846.6</ele><time>2026-04-11T10:01:20.002Z</time></trkpt><trkpt lat="44.8236617" lon="9.3182817"><ele>847.8000000000001</ele><time>2026-04-11T10:01:21.002Z</time></trkpt><trkpt lat="44.823725" lon="9.31838"><ele>849.0</ele><time>2026-04-11T10:01:22.003Z</time></trkpt><trkpt lat="44.82378" lon="9.3184983"><ele>849.0</ele><time>2026-04-11T10:01:23.001Z</time></trkpt><trkpt lat="44.823835" lon="9.3186033"><ele>849.0</ele><time>2026-04-11T10:01:24.002Z</time></trkpt><trkpt lat="44.8238933" lon="9.3187033"><ele>849.0</ele><time>2026-04-11T10:01:25.002Z</time></trkpt><trkpt lat="44.8239517" lon="9.318795"><ele>849.0</ele><time>2026-04-11T10:01:26.001Z</time></trkpt><trkpt lat="44.82401" lon="9.3188717"><ele>849.0</ele><time>2026-04-11T10:01:27.002Z</time></trkpt><trkpt lat="44.82407" lon="9.3189317"><ele>849.0</ele><time>2026-04-11T10:01:28.002Z</time></trkpt><trkpt lat="44.8241417" lon="9.318985"><ele>847.0</ele><time>2026-04-11T10:01:29.002Z</time></trkpt><trkpt lat="44.8242067" lon="9.3190233"><ele>845.0</ele><time>2026-04-11T10:01:30.002Z</time></trkpt><trkpt lat="44.8242783" lon="9.3190517"><ele>843.0</ele><time>2026-04-11T10:01:31.003Z</time></trkpt><trkpt lat="44.82435" lon="9.3190617"><ele>841.0</ele><time>2026-04-11T10:01:32Z</time></trkpt><trkpt lat="44.8244817" lon="9.319045"><ele>839.0</ele><time>2026-04-11T10:01:34.002Z</time></trkpt><trkpt lat="44.8245783" lon="9.3190133"><ele>837.0</ele><time>2026-04-11T10:01:36.001Z</time></trkpt><trkpt lat="44.82466" lon="9.3190133"><ele>837.0</ele><time>2026-04-11T10:01:41.002Z</time></trkpt><trkpt lat="44.8247433" lon="9.31905"><ele>837.0</ele><time>2026-04-11T10:01:43.002Z</time></trkpt><trkpt lat="44.8248083" lon="9.3190733"><ele>837.0</ele><time>2026-04-11T10:01:44.002Z</time></trkpt><trkpt lat="44.824875" lon="9.3191"><ele>837.0</ele><time>2026-04-11T10:01:45.001Z</time></trkpt><trkpt lat="44.8249433" lon="9.3191233"><ele>837.0</ele><time>2026-04-11T10:01:46.001Z</time></trkpt><trkpt lat="44.8250117" lon="9.3191483"><ele>837.0</ele><time>2026-04-11T10:01:47.002Z</time></trkpt><trkpt lat="44.8250867" lon="9.31918"><ele>837.0</ele><time>2026-04-11T10:01:48.002Z</time></trkpt><trkpt lat="44.825165" lon="9.3192217"><ele>836.1666666666666</ele><time>2026-04-11T10:01:49.001Z</time></trkpt><trkpt lat="44.8252433" lon="9.31927"><ele>835.3333333333333</ele><time>2026-04-11T10:01:50.001Z</time></trkpt><trkpt lat="44.82532" lon="9.31932"><ele>834.5</ele><time>2026-04-11T10:01:51.003Z</time></trkpt><trkpt lat="44.82539" lon="9.31937"><ele>833.6666666666666</ele><time>2026-04-11T10:01:52.001Z</time></trkpt><trkpt lat="44.8254567" lon="9.319405"><ele>832.8333333333333</ele><time>2026-04-11T10:01:53.002Z</time></trkpt><trkpt lat="44.8255217" lon="9.31943"><ele>832.0</ele><time>2026-04-11T10:01:54.001Z</time></trkpt><trkpt lat="44.8255817" lon="9.31946"><ele>832.0</ele><time>2026-04-11T10:01:55.002Z</time></trkpt><trkpt lat="44.8256967" lon="9.3195317"><ele>832.0</ele><time>2026-04-11T10:01:57.002Z</time></trkpt><trkpt lat="44.8258083" lon="9.3195883"><ele>832.0</ele><time>2026-04-11T10:01:59.002Z</time></trkpt><trkpt lat="44.8259283" lon="9.319665"><ele>832.0</ele><time>2026-04-11T10:02:01.003Z</time></trkpt><trkpt lat="44.8259933" lon="9.3196767"><ele>832.0</ele><time>2026-04-11T10:02:02.001Z</time></trkpt><trkpt lat="44.8260667" lon="9.3196733"><ele>829.0</ele><time>2026-04-11T10:02:03.003Z</time></trkpt><trkpt lat="44.8261467" lon="9.31968"><ele>826.0</ele><time>2026-04-11T10:02:04.002Z</time></trkpt><trkpt lat="44.82622" lon="9.3196967"><ele>823.0</ele><time>2026-04-11T10:02:05.002Z</time></trkpt><trkpt lat="44.82629" lon="9.3197267"><ele>820.0</ele><time>2026-04-11T10:02:06.002Z</time></trkpt><trkpt lat="44.8263533" lon="9.31978"><ele>817.0</ele><time>2026-04-11T10:02:07.001Z</time></trkpt><trkpt lat="44.8264017" lon="9.3198483"><ele>814.0</ele><time>2026-04-11T10:02:08.002Z</time></trkpt><trkpt lat="44.826455" lon="9.3199017"><ele>811.0</ele><time>2026-04-11T10:02:09.002Z</time></trkpt><trkpt lat="44.8265783" lon="9.31995"><ele>810.9999999999999</ele><time>2026-04-11T10:02:11.001Z</time></trkpt><trkpt lat="44.82665" lon="9.3199683"><ele>811.0</ele><time>2026-04-11T10:02:12.001Z</time></trkpt><trkpt lat="44.8267167" lon="9.319965"><ele>811.0</ele><time>2026-04-11T10:02:13.003Z</time></trkpt><trkpt lat="44.82678" lon="9.319925"><ele>811.0</ele><time>2026-04-11T10:02:14.002Z</time></trkpt><trkpt lat="44.8268417" lon="9.3198783"><ele>810.9999999999999</ele><time>2026-04-11T10:02:15.002Z</time></trkpt><trkpt lat="44.8269033" lon="9.3198467"><ele>811.0</ele><time>2026-04-11T10:02:16.001Z</time></trkpt><trkpt lat="44.8270217" lon="9.31981"><ele>808.4999999999999</ele><time>2026-04-11T10:02:18.002Z</time></trkpt><trkpt lat="44.8271033" lon="9.3197883"><ele>806.0</ele><time>2026-04-11T10:02:19.002Z</time></trkpt><trkpt lat="44.82718" lon="9.31977"><ele>803.5</ele><time>2026-04-11T10:02:20.003Z</time></trkpt><trkpt lat="44.8272633" lon="9.31975"><ele>801.0</ele><time>2026-04-11T10:02:21.002Z</time></trkpt><trkpt lat="44.827345" lon="9.3197383"><ele>798.4999999999999</ele><time>2026-04-11T10:02:22.003Z</time></trkpt><trkpt lat="44.82742" lon="9.3197133"><ele>796.0</ele><time>2026-04-11T10:02:23.001Z</time></trkpt><trkpt lat="44.8274867" lon="9.3196833"><ele>794.4999999999999</ele><time>2026-04-11T10:02:24.001Z</time></trkpt><trkpt lat="44.8275517" lon="9.31964"><ele>793.0</ele><time>2026-04-11T10:02:25.002Z</time></trkpt><trkpt lat="44.8276217" lon="9.319585"><ele>791.5</ele><time>2026-04-11T10:02:26.001Z</time></trkpt><trkpt lat="44.82769" lon="9.3195217"><ele>790.0</ele><time>2026-04-11T10:02:27.002Z</time></trkpt><trkpt lat="44.8277517" lon="9.3194533"><ele>788.4999999999999</ele><time>2026-04-11T10:02:28.001Z</time></trkpt><trkpt lat="44.8278183" lon="9.31938"><ele>787.0</ele><time>2026-04-11T10:02:29.001Z</time></trkpt><trkpt lat="44.8278867" lon="9.3193067"><ele>784.6666666666666</ele><time>2026-04-11T10:02:30.003Z</time></trkpt><trkpt lat="44.8279533" lon="9.3192267"><ele>782.3333333333333</ele><time>2026-04-11T10:02:31.003Z</time></trkpt><trkpt lat="44.828015" lon="9.319145"><ele>780.0</ele><time>2026-04-11T10:02:32.001Z</time></trkpt><trkpt lat="44.8280817" lon="9.319055"><ele>777.6666666666667</ele><time>2026-04-11T10:02:33.003Z</time></trkpt><trkpt lat="44.8281467" lon="9.3189617"><ele>775.3333333333334</ele><time>2026-04-11T10:02:34.002Z</time></trkpt><trkpt lat="44.8282067" lon="9.3188733"><ele>773.0</ele><time>2026-04-11T10:02:35.001Z</time></trkpt><trkpt lat="44.82826" lon="9.3187867"><ele>771.5000000000001</ele><time>2026-04-11T10:02:36.002Z</time></trkpt><trkpt lat="44.82831" lon="9.31869"><ele>770.0</ele><time>2026-04-11T10:02:37.003Z</time></trkpt><trkpt lat="44.8283617" lon="9.3186017"><ele>768.5</ele><time>2026-04-11T10:02:38.003Z</time></trkpt><trkpt lat="44.82842" lon="9.31852"><ele>767.0</ele><time>2026-04-11T10:02:39.002Z</time></trkpt><trkpt lat="44.8284883" lon="9.31845"><ele>765.5</ele><time>2026-04-11T10:02:40.001Z</time></trkpt><trkpt lat="44.828555" lon="9.31839"><ele>764.0</ele><time>2026-04-11T10:02:41.001Z</time></trkpt><trkpt lat="44.8286167" lon="9.3183317"><ele>761.4000000000001</ele><time>2026-04-11T10:02:42.003Z</time></trkpt><trkpt lat="44.8286717" lon="9.3182783"><ele>758.8</ele><time>2026-04-11T10:02:43.002Z</time></trkpt><trkpt lat="44.82877" lon="9.3181767"><ele>756.2</ele><time>2026-04-11T10:02:45.003Z</time></trkpt><trkpt lat="44.8288517" lon="9.3180467"><ele>753.5999999999999</ele><time>2026-04-11T10:02:47.002Z</time></trkpt><trkpt lat="44.8289183" lon="9.317905"><ele>751.0</ele><time>2026-04-11T10:02:49.003Z</time></trkpt><trkpt lat="44.829" lon="9.3178267"><ele>749.0</ele><time>2026-04-11T10:02:51.002Z</time></trkpt><trkpt lat="44.8291267" lon="9.3178483"><ele>747.0</ele><time>2026-04-11T10:02:53.002Z</time></trkpt><trkpt lat="44.8292217" lon="9.3178733"><ele>745.0</ele><time>2026-04-11T10:02:54.003Z</time></trkpt><trkpt lat="44.829325" lon="9.3178733"><ele>743.0</ele><time>2026-04-11T10:02:55.002Z</time></trkpt><trkpt lat="44.8294417" lon="9.317855"><ele>741.0</ele><time>2026-04-11T10:02:56.002Z</time></trkpt><trkpt lat="44.8295467" lon="9.3178233"><ele>739.6666666666666</ele><time>2026-04-11T10:02:57.002Z</time></trkpt><trkpt lat="44.82964" lon="9.3177933"><ele>738.3333333333334</ele><time>2026-04-11T10:02:58.001Z</time></trkpt><trkpt lat="44.8297183" lon="9.317765"><ele>737.0</ele><time>2026-04-11T10:02:59.002Z</time></trkpt><trkpt lat="44.8297867" lon="9.3177467"><ele>735.6666666666667</ele><time>2026-04-11T10:03:00.003Z</time></trkpt><trkpt lat="44.8298917" lon="9.317725"><ele>734.3333333333334</ele><time>2026-04-11T10:03:02.002Z</time></trkpt><trkpt lat="44.8299633" lon="9.31768"><ele>733.0</ele><time>2026-04-11T10:03:04.001Z</time></trkpt><trkpt lat="44.8300417" lon="9.3176"><ele>733.0</ele><time>2026-04-11T10:03:06.003Z</time></trkpt><trkpt lat="44.8301317" lon="9.3174967"><ele>733.0</ele><time>2026-04-11T10:03:08.002Z</time></trkpt><trkpt lat="44.8301733" lon="9.31743"><ele>733.0</ele><time>2026-04-11T10:03:09.003Z</time></trkpt><trkpt lat="44.830255" lon="9.3172983"><ele>733.0</ele><time>2026-04-11T10:03:11.001Z</time></trkpt><trkpt lat="44.8303483" lon="9.3172317"><ele>733.0</ele><time>2026-04-11T10:03:13.001Z</time></trkpt><trkpt lat="44.83044" lon="9.3173267"><ele>730.0</ele><time>2026-04-11T10:03:15.001Z</time></trkpt><trkpt lat="44.830475" lon="9.31741"><ele>727.0</ele><time>2026-04-11T10:03:16.001Z</time></trkpt><trkpt lat="44.8305183" lon="9.317485"><ele>724.0</ele><time>2026-04-11T10:03:17.001Z</time></trkpt><trkpt lat="44.8305733" lon="9.31756"><ele>721.0</ele><time>2026-04-11T10:03:18.001Z</time></trkpt><trkpt lat="44.8306183" lon="9.3176283"><ele>718.0</ele><time>2026-04-11T10:03:19.002Z</time></trkpt><trkpt lat="44.83066" lon="9.3177917"><ele>715.0</ele><time>2026-04-11T10:03:21.003Z</time></trkpt><trkpt lat="44.8306633" lon="9.317885"><ele>715.0</ele><time>2026-04-11T10:03:22.003Z</time></trkpt><trkpt lat="44.8306617" lon="9.317985"><ele>715.0</ele><time>2026-04-11T10:03:23.002Z</time></trkpt><trkpt lat="44.8306567" lon="9.318085"><ele>715.0</ele><time>2026-04-11T10:03:24.005Z</time></trkpt><trkpt lat="44.8306467" lon="9.3181883"><ele>715.0</ele><time>2026-04-11T10:03:25.003Z</time></trkpt><trkpt lat="44.8306333" lon="9.3183"><ele>715.0</ele><time>2026-04-11T10:03:26.003Z</time></trkpt><trkpt lat="44.83062" lon="9.318415"><ele>715.0</ele><time>2026-04-11T10:03:27.003Z</time></trkpt><trkpt lat="44.8306083" lon="9.31852"><ele>715.1666666666667</ele><time>2026-04-11T10:03:28.002Z</time></trkpt><trkpt lat="44.8305933" lon="9.3186283"><ele>715.3333333333334</ele><time>2026-04-11T10:03:29.002Z</time></trkpt><trkpt lat="44.8305783" lon="9.31872"><ele>715.5</ele><time>2026-04-11T10:03:30.003Z</time></trkpt><trkpt lat="44.8305817" lon="9.318885"><ele>715.6666666666666</ele><time>2026-04-11T10:03:32.003Z</time></trkpt><trkpt lat="44.83061" lon="9.3189683"><ele>715.8333333333333</ele><time>2026-04-11T10:03:33.003Z</time></trkpt><trkpt lat="44.8306467" lon="9.3190417"><ele>716.0</ele><time>2026-04-11T10:03:34.003Z</time></trkpt><trkpt lat="44.83071" lon="9.3191083"><ele>716.0</ele><time>2026-04-11T10:03:35.002Z</time></trkpt><trkpt lat="44.8307917" lon="9.3191783"><ele>716.0</ele><time>2026-04-11T10:03:36.002Z</time></trkpt><trkpt lat="44.8308933" lon="9.319245"><ele>716.0</ele><time>2026-04-11T10:03:37.003Z</time></trkpt><trkpt lat="44.8309933" lon="9.3193033"><ele>716.0</ele><time>2026-04-11T10:03:38.003Z</time></trkpt><trkpt lat="44.8310817" lon="9.319375"><ele>716.0</ele><time>2026-04-11T10:03:39.003Z</time></trkpt><trkpt lat="44.831155" lon="9.3194667"><ele>714.1999999999999</ele><time>2026-04-11T10:03:40.003Z</time></trkpt><trkpt lat="44.8312267" lon="9.319585"><ele>712.4</ele><time>2026-04-11T10:03:41.003Z</time></trkpt><trkpt lat="44.8313033" lon="9.3197033"><ele>710.6</ele><time>2026-04-11T10:03:42.002Z</time></trkpt><trkpt lat="44.8313817" lon="9.3198167"><ele>708.8</ele><time>2026-04-11T10:03:43.004Z</time></trkpt><trkpt lat="44.831445" lon="9.31993"><ele>707.0</ele><time>2026-04-11T10:03:44.003Z</time></trkpt><trkpt lat="44.831485" lon="9.3200517"><ele>707.0</ele><time>2026-04-11T10:03:45.004Z</time></trkpt><trkpt lat="44.8315117" lon="9.320165"><ele>707.0</ele><time>2026-04-11T10:03:46.001Z</time></trkpt><trkpt lat="44.83153" lon="9.3202783"><ele>707.0</ele><time>2026-04-11T10:03:47.003Z</time></trkpt><trkpt lat="44.8315517" lon="9.32039"><ele>707.0</ele><time>2026-04-11T10:03:48.002Z</time></trkpt><trkpt lat="44.8315817" lon="9.3204983"><ele>707.0</ele><time>2026-04-11T10:03:49.002Z</time></trkpt><trkpt lat="44.8316167" lon="9.3206117"><ele>707.0</ele><time>2026-04-11T10:03:50.002Z</time></trkpt><trkpt lat="44.8316533" lon="9.3207233"><ele>708.1666666666666</ele><time>2026-04-11T10:03:51.004Z</time></trkpt><trkpt lat="44.8316867" lon="9.3208267"><ele>709.3333333333333</ele><time>2026-04-11T10:03:52.003Z</time></trkpt><trkpt lat="44.8317117" lon="9.3209383"><ele>710.5</ele><time>2026-04-11T10:03:53.003Z</time></trkpt><trkpt lat="44.83174" lon="9.3210483"><ele>711.6666666666666</ele><time>2026-04-11T10:03:54.002Z</time></trkpt><trkpt lat="44.83178" lon="9.3211533"><ele>712.8333333333334</ele><time>2026-04-11T10:03:55.003Z</time></trkpt><trkpt lat="44.831825" lon="9.321245"><ele>714.0</ele><time>2026-04-11T10:03:56.003Z</time></trkpt><trkpt lat="44.8318683" lon="9.321315"><ele>711.0</ele><time>2026-04-11T10:03:57.002Z</time></trkpt><trkpt lat="44.8319283" lon="9.3213617"><ele>708.0</ele><time>2026-04-11T10:03:58.002Z</time></trkpt><trkpt lat="44.8319917" lon="9.3214067"><ele>705.0</ele><time>2026-04-11T10:03:59.002Z</time></trkpt><trkpt lat="44.83205" lon="9.3214483"><ele>702.0</ele><time>2026-04-11T10:04:00.004Z</time></trkpt><trkpt lat="44.8321133" lon="9.3214983"><ele>699.0</ele><time>2026-04-11T10:04:01.004Z</time></trkpt><trkpt lat="44.83217" lon="9.3215683"><ele>696.0</ele><time>2026-04-11T10:04:02.003Z</time></trkpt><trkpt lat="44.83222" lon="9.3216617"><ele>693.0</ele><time>2026-04-11T10:04:03.003Z</time></trkpt><trkpt lat="44.8322667" lon="9.32176"><ele>693.0</ele><time>2026-04-11T10:04:04.002Z</time></trkpt><trkpt lat="44.8322967" lon="9.321865"><ele>693.0</ele><time>2026-04-11T10:04:05.001Z</time></trkpt><trkpt lat="44.8323183" lon="9.3219767"><ele>693.0</ele><time>2026-04-11T10:04:06.003Z</time></trkpt><trkpt lat="44.83233" lon="9.3220967"><ele>693.0</ele><time>2026-04-11T10:04:07.003Z</time></trkpt><trkpt lat="44.832335" lon="9.3222267"><ele>693.0</ele><time>2026-04-11T10:04:08.002Z</time></trkpt><trkpt lat="44.8323383" lon="9.3223717"><ele>693.0</ele><time>2026-04-11T10:04:09.004Z</time></trkpt><trkpt lat="44.8323467" lon="9.322525"><ele>693.8</ele><time>2026-04-11T10:04:10.002Z</time></trkpt><trkpt lat="44.83236" lon="9.3226717"><ele>694.5999999999999</ele><time>2026-04-11T10:04:11.002Z</time></trkpt><trkpt lat="44.8323783" lon="9.3228117"><ele>695.4000000000001</ele><time>2026-04-11T10:04:12.003Z</time></trkpt><trkpt lat="44.8324033" lon="9.3229417"><ele>696.2</ele><time>2026-04-11T10:04:13.003Z</time></trkpt><trkpt lat="44.8324283" lon="9.323065"><ele>697.0</ele><time>2026-04-11T10:04:14.001Z</time></trkpt><trkpt lat="44.83245" lon="9.323185"><ele>697.6</ele><time>2026-04-11T10:04:15.001Z</time></trkpt><trkpt lat="44.8324633" lon="9.3233017"><ele>698.2</ele><time>2026-04-11T10:04:16.001Z</time></trkpt><trkpt lat="44.832465" lon="9.3234183"><ele>698.8</ele><time>2026-04-11T10:04:17.001Z</time></trkpt><trkpt lat="44.8324517" lon="9.3235483"><ele>699.4</ele><time>2026-04-11T10:04:18.001Z</time></trkpt><trkpt lat="44.8324433" lon="9.32369"><ele>700.0</ele><time>2026-04-11T10:04:19.002Z</time></trkpt><trkpt lat="44.8324383" lon="9.3238367"><ele>699.8</ele><time>2026-04-11T10:04:20.001Z</time></trkpt><trkpt lat="44.8324333" lon="9.3239817"><ele>699.6</ele><time>2026-04-11T10:04:21.001Z</time></trkpt><trkpt lat="44.832425" lon="9.3241233"><ele>699.4000000000001</ele><time>2026-04-11T10:04:22.002Z</time></trkpt><trkpt lat="44.832425" lon="9.32426"><ele>699.2</ele><time>2026-04-11T10:04:23.002Z</time></trkpt><trkpt lat="44.8324383" lon="9.32439"><ele>699.0</ele><time>2026-04-11T10:04:24.003Z</time></trkpt><trkpt lat="44.8324617" lon="9.3245083"><ele>699.0</ele><time>2026-04-11T10:04:25.001Z</time></trkpt><trkpt lat="44.83249" lon="9.3246167"><ele>699.0</ele><time>2026-04-11T10:04:26.001Z</time></trkpt><trkpt lat="44.8325267" lon="9.324715"><ele>699.0</ele><time>2026-04-11T10:04:27.001Z</time></trkpt><trkpt lat="44.8325633" lon="9.3248"><ele>699.0</ele><time>2026-04-11T10:04:28.001Z</time></trkpt><trkpt lat="44.8326233" lon="9.32492"><ele>699.0</ele><time>2026-04-11T10:04:30.001Z</time></trkpt><trkpt lat="44.8326633" lon="9.325005"><ele>699.0</ele><time>2026-04-11T10:04:32.001Z</time></trkpt><trkpt lat="44.83272" lon="9.325105"><ele>695.6666666666666</ele><time>2026-04-11T10:04:35.001Z</time></trkpt><trkpt lat="44.8327683" lon="9.3251817"><ele>692.3333333333334</ele><time>2026-04-11T10:04:37.001Z</time></trkpt><trkpt lat="44.8328267" lon="9.32526"><ele>689.0</ele><time>2026-04-11T10:04:39.002Z</time></trkpt><trkpt lat="44.8328767" lon="9.3253317"><ele>685.6666666666667</ele><time>2026-04-11T10:04:41.001Z</time></trkpt><trkpt lat="44.8329333" lon="9.325435"><ele>682.3333333333334</ele><time>2026-04-11T10:04:44.001Z</time></trkpt><trkpt lat="44.8329667" lon="9.3255267"><ele>679.0</ele><time>2026-04-11T10:04:46.003Z</time></trkpt><trkpt lat="44.8329983" lon="9.3256217"><ele>679.0</ele><time>2026-04-11T10:04:48.001Z</time></trkpt><trkpt lat="44.83303" lon="9.3257133"><ele>679.0</ele><time>2026-04-11T10:04:50.001Z</time></trkpt><trkpt lat="44.8330633" lon="9.32581"><ele>679.0</ele><time>2026-04-11T10:04:52.002Z</time></trkpt><trkpt lat="44.833095" lon="9.325915"><ele>679.0</ele><time>2026-04-11T10:04:54.001Z</time></trkpt><trkpt lat="44.8331517" lon="9.3260217"><ele>679.0</ele><time>2026-04-11T10:04:56.003Z</time></trkpt><trkpt lat="44.83322" lon="9.3261283"><ele>679.0</ele><time>2026-04-11T10:04:58.002Z</time></trkpt><trkpt lat="44.8332917" lon="9.3262433"><ele>679.0</ele><time>2026-04-11T10:05:00.001Z</time></trkpt><trkpt lat="44.8333683" lon="9.32638"><ele>679.0</ele><time>2026-04-11T10:05:02.001Z</time></trkpt><trkpt lat="44.8334533" lon="9.32653"><ele>679.0</ele><time>2026-04-11T10:05:04.001Z</time></trkpt><trkpt lat="44.8335083" lon="9.32661"><ele>679.0</ele><time>2026-04-11T10:05:05.001Z</time></trkpt><trkpt lat="44.833575" lon="9.3266917"><ele>679.0</ele><time>2026-04-11T10:05:06.001Z</time></trkpt><trkpt lat="44.8336417" lon="9.3267667"><ele>676.2</ele><time>2026-04-11T10:05:07.002Z</time></trkpt><trkpt lat="44.83371" lon="9.3268233"><ele>673.4000000000001</ele><time>2026-04-11T10:05:08.002Z</time></trkpt><trkpt lat="44.83377" lon="9.3268667"><ele>670.6</ele><time>2026-04-11T10:05:09.002Z</time></trkpt><trkpt lat="44.83386" lon="9.326925"><ele>667.8</ele><time>2026-04-11T10:05:11.003Z</time></trkpt><trkpt lat="44.8339383" lon="9.3269517"><ele>665.0</ele><time>2026-04-11T10:05:13.002Z</time></trkpt><trkpt lat="44.8340833" lon="9.3269583"><ele>665.0</ele><time>2026-04-11T10:05:15.002Z</time></trkpt><trkpt lat="44.834175" lon="9.3269517"><ele>665.0</ele><time>2026-04-11T10:05:16.001Z</time></trkpt><trkpt lat="44.8342583" lon="9.3269317"><ele>665.0</ele><time>2026-04-11T10:05:17.001Z</time></trkpt><trkpt lat="44.8343333" lon="9.3268867"><ele>665.0</ele><time>2026-04-11T10:05:18.002Z</time></trkpt><trkpt lat="44.8343917" lon="9.3268233"><ele>665.0</ele><time>2026-04-11T10:05:19.002Z</time></trkpt><trkpt lat="44.8344267" lon="9.3267367"><ele>665.0</ele><time>2026-04-11T10:05:20.002Z</time></trkpt><trkpt lat="44.8344433" lon="9.3266267"><ele>664.75</ele><time>2026-04-11T10:05:21.004Z</time></trkpt><trkpt lat="44.8344117" lon="9.3264683"><ele>664.5</ele><time>2026-04-11T10:05:22.002Z</time></trkpt><trkpt lat="44.8343517" lon="9.3262983"><ele>664.25</ele><time>2026-04-11T10:05:23.002Z</time></trkpt><trkpt lat="44.8342967" lon="9.3261367"><ele>664.0</ele><time>2026-04-11T10:05:24.002Z</time></trkpt><trkpt lat="44.8342317" lon="9.3259733"><ele>664.0</ele><time>2026-04-11T10:05:25.001Z</time></trkpt><trkpt lat="44.834145" lon="9.3258083"><ele>664.0</ele><time>2026-04-11T10:05:26.002Z</time></trkpt><trkpt lat="44.8340517" lon="9.3256417"><ele>664.0</ele><time>2026-04-11T10:05:27.002Z</time></trkpt><trkpt lat="44.8339683" lon="9.3254817"><ele>664.0</ele><time>2026-04-11T10:05:28.002Z</time></trkpt><trkpt lat="44.83389" lon="9.3253333"><ele>661.0</ele><time>2026-04-11T10:05:29.001Z</time></trkpt><trkpt lat="44.8338267" lon="9.3251767"><ele>658.0</ele><time>2026-04-11T10:05:30.001Z</time></trkpt><trkpt lat="44.83378" lon="9.3250117"><ele>655.0</ele><time>2026-04-11T10:05:31.001Z</time></trkpt><trkpt lat="44.8337517" lon="9.32484"><ele>652.0</ele><time>2026-04-11T10:05:32.001Z</time></trkpt><trkpt lat="44.833735" lon="9.32465"><ele>649.25</ele><time>2026-04-11T10:05:33.001Z</time></trkpt><trkpt lat="44.83372" lon="9.3244583"><ele>646.5</ele><time>2026-04-11T10:05:34.002Z</time></trkpt><trkpt lat="44.8337033" lon="9.32426"><ele>643.75</ele><time>2026-04-11T10:05:35.001Z</time></trkpt><trkpt lat="44.8336833" lon="9.3240617"><ele>641.0</ele><time>2026-04-11T10:05:36.002Z</time></trkpt><trkpt lat="44.8336567" lon="9.32387"><ele>640.25</ele><time>2026-04-11T10:05:37.003Z</time></trkpt><trkpt lat="44.8336167" lon="9.323685"><ele>639.5</ele><time>2026-04-11T10:05:38.001Z</time></trkpt><trkpt lat="44.8335783" lon="9.3235"><ele>638.75</ele><time>2026-04-11T10:05:39.002Z</time></trkpt><trkpt lat="44.8335317" lon="9.32332"><ele>638.0</ele><time>2026-04-11T10:05:40.002Z</time></trkpt><trkpt lat="44.833485" lon="9.3231383"><ele>642.25</ele><time>2026-04-11T10:05:41.001Z</time></trkpt><trkpt lat="44.833445" lon="9.3229583"><ele>646.5</ele><time>2026-04-11T10:05:42.003Z</time></trkpt><trkpt lat="44.8334133" lon="9.3227817"><ele>650.75</ele><time>2026-04-11T10:05:43.001Z</time></trkpt><trkpt lat="44.833385" lon="9.3226167"><ele>655.0</ele><time>2026-04-11T10:05:44.002Z</time></trkpt><trkpt lat="44.833365" lon="9.3224533"><ele>655.0</ele><time>2026-04-11T10:05:45.003Z</time></trkpt><trkpt lat="44.8333483" lon="9.3222967"><ele>655.0</ele><time>2026-04-11T10:05:46.001Z</time></trkpt><trkpt lat="44.8333517" lon="9.3221533"><ele>655.0</ele><time>2026-04-11T10:05:47Z</time></trkpt><trkpt lat="44.83338" lon="9.3220333"><ele>655.0</ele><time>2026-04-11T10:05:48.001Z</time></trkpt><trkpt lat="44.833435" lon="9.3219467"><ele>655.0</ele><time>2026-04-11T10:05:49.001Z</time></trkpt><trkpt lat="44.833505" lon="9.3219067"><ele>654.8</ele><time>2026-04-11T10:05:50.001Z</time></trkpt><trkpt lat="44.8335833" lon="9.3219433"><ele>654.6</ele><time>2026-04-11T10:05:51.002Z</time></trkpt><trkpt lat="44.8336567" lon="9.322015"><ele>654.4000000000001</ele><time>2026-04-11T10:05:52.002Z</time></trkpt><trkpt lat="44.8337383" lon="9.3221233"><ele>654.2</ele><time>2026-04-11T10:05:53.001Z</time></trkpt><trkpt lat="44.8338233" lon="9.3222517"><ele>654.0</ele><time>2026-04-11T10:05:54.001Z</time></trkpt><trkpt lat="44.8339083" lon="9.322385"><ele>652.4000000000001</ele><time>2026-04-11T10:05:55.001Z</time></trkpt><trkpt lat="44.8339833" lon="9.3225117"><ele>650.8</ele><time>2026-04-11T10:05:56Z</time></trkpt><trkpt lat="44.8340533" lon="9.3226383"><ele>649.2</ele><time>2026-04-11T10:05:57.001Z</time></trkpt><trkpt lat="44.8341167" lon="9.322755"><ele>647.5999999999999</ele><time>2026-04-11T10:05:58.002Z</time></trkpt><trkpt lat="44.8341717" lon="9.3228733"><ele>646.0</ele><time>2026-04-11T10:05:59.002Z</time></trkpt><trkpt lat="44.8342267" lon="9.32298"><ele>645.6666666666667</ele><time>2026-04-11T10:06:00.001Z</time></trkpt><trkpt lat="44.834285" lon="9.3230783"><ele>645.3333333333334</ele><time>2026-04-11T10:06:01.001Z</time></trkpt><trkpt lat="44.8343433" lon="9.3231667"><ele>645.0</ele><time>2026-04-11T10:06:02.001Z</time></trkpt><trkpt lat="44.8344017" lon="9.32325"><ele>644.6666666666666</ele><time>2026-04-11T10:06:03.001Z</time></trkpt><trkpt lat="44.83446" lon="9.3233267"><ele>644.3333333333333</ele><time>2026-04-11T10:06:04.002Z</time></trkpt><trkpt lat="44.834515" lon="9.3234017"><ele>644.0</ele><time>2026-04-11T10:06:05.001Z</time></trkpt><trkpt lat="44.8345633" lon="9.3234733"><ele>644.0</ele><time>2026-04-11T10:06:06.002Z</time></trkpt><trkpt lat="44.834605" lon="9.3235433"><ele>644.0</ele><time>2026-04-11T10:06:07.001Z</time></trkpt><trkpt lat="44.8346333" lon="9.3236817"><ele>644.0</ele><time>2026-04-11T10:06:09.002Z</time></trkpt><trkpt lat="44.8346017" lon="9.3238017"><ele>644.0</ele><time>2026-04-11T10:06:11.002Z</time></trkpt><trkpt lat="44.8345883" lon="9.32391"><ele>644.0</ele><time>2026-04-11T10:06:13.001Z</time></trkpt><trkpt lat="44.83469" lon="9.32378"><ele>644.0</ele><time>2026-04-11T10:11:29.001Z</time></trkpt><trkpt lat="44.834775" lon="9.3238367"><ele>644.0</ele><time>2026-04-11T10:12:21.002Z</time></trkpt><trkpt lat="44.8348317" lon="9.3238983"><ele>644.0</ele><time>2026-04-11T10:12:22.001Z</time></trkpt><trkpt lat="44.834905" lon="9.323975"><ele>644.0</ele><time>2026-04-11T10:12:23.001Z</time></trkpt><trkpt lat="44.8349883" lon="9.3240683"><ele>644.0</ele><time>2026-04-11T10:12:24.003Z</time></trkpt><trkpt lat="44.8350733" lon="9.3241683"><ele>643.2</ele><time>2026-04-11T10:12:25.001Z</time></trkpt><trkpt lat="44.83515" lon="9.324265"><ele>642.4000000000001</ele><time>2026-04-11T10:12:26.001Z</time></trkpt><trkpt lat="44.835225" lon="9.324355"><ele>641.6</ele><time>2026-04-11T10:12:27.001Z</time></trkpt><trkpt lat="44.8352983" lon="9.32444"><ele>640.8</ele><time>2026-04-11T10:12:28Z</time></trkpt><trkpt lat="44.8353733" lon="9.3245333"><ele>640.0</ele><time>2026-04-11T10:12:29.002Z</time></trkpt><trkpt lat="44.8354567" lon="9.32463"><ele>636.8</ele><time>2026-04-11T10:12:30Z</time></trkpt><trkpt lat="44.83554" lon="9.3247317"><ele>633.6</ele><time>2026-04-11T10:12:31Z</time></trkpt><trkpt lat="44.835625" lon="9.3248383"><ele>630.4</ele><time>2026-04-11T10:12:32Z</time></trkpt><trkpt lat="44.83571" lon="9.3249433"><ele>627.2</ele><time>2026-04-11T10:12:33.001Z</time></trkpt><trkpt lat="44.83579" lon="9.3250483"><ele>624.0</ele><time>2026-04-11T10:12:34.002Z</time></trkpt><trkpt lat="44.8358667" lon="9.3251567"><ele>624.0</ele><time>2026-04-11T10:12:35.001Z</time></trkpt><trkpt lat="44.8359433" lon="9.3252667"><ele>624.0</ele><time>2026-04-11T10:12:36.002Z</time></trkpt><trkpt lat="44.83602" lon="9.3253833"><ele>624.0</ele><time>2026-04-11T10:12:37.001Z</time></trkpt><trkpt lat="44.836095" lon="9.3255083"><ele>624.0</ele><time>2026-04-11T10:12:38.001Z</time></trkpt><trkpt lat="44.83617" lon="9.32564"><ele>625.0</ele><time>2026-04-11T10:12:39.003Z</time></trkpt><trkpt lat="44.83624" lon="9.3257817"><ele>626.0</ele><time>2026-04-11T10:12:40Z</time></trkpt><trkpt lat="44.8363" lon="9.325935"><ele>627.0</ele><time>2026-04-11T10:12:41.002Z</time></trkpt><trkpt lat="44.8363533" lon="9.3260883"><ele>628.0</ele><time>2026-04-11T10:12:42.001Z</time></trkpt><trkpt lat="44.8364017" lon="9.3262417"><ele>625.5</ele><time>2026-04-11T10:12:43.001Z</time></trkpt><trkpt lat="44.83645" lon="9.3263983"><ele>623.0</ele><time>2026-04-11T10:12:44.001Z</time></trkpt><trkpt lat="44.836495" lon="9.3265483"><ele>620.5</ele><time>2026-04-11T10:12:45.002Z</time></trkpt><trkpt lat="44.83654" lon="9.3267"><ele>618.0</ele><time>2026-04-11T10:12:46Z</time></trkpt><trkpt lat="44.8365833" lon="9.3268483"><ele>618.0</ele><time>2026-04-11T10:12:47.001Z</time></trkpt><trkpt lat="44.83663" lon="9.3269967"><ele>618.0</ele><time>2026-04-11T10:12:48.001Z</time></trkpt><trkpt lat="44.8366767" lon="9.32715"><ele>618.0</ele><time>2026-04-11T10:12:49.001Z</time></trkpt><trkpt lat="44.8367217" lon="9.3273017"><ele>618.0</ele><time>2026-04-11T10:12:50.001Z</time></trkpt><trkpt lat="44.836765" lon="9.3274517"><ele>618.1999999999999</ele><time>2026-04-11T10:12:51.001Z</time></trkpt><trkpt lat="44.8368067" lon="9.3276017"><ele>618.4</ele><time>2026-04-11T10:12:52.001Z</time></trkpt><trkpt lat="44.8368483" lon="9.3277467"><ele>618.5999999999999</ele><time>2026-04-11T10:12:53.001Z</time></trkpt><trkpt lat="44.8368883" lon="9.3278883"><ele>618.8</ele><time>2026-04-11T10:12:54.001Z</time></trkpt><trkpt lat="44.83693" lon="9.3280283"><ele>619.0</ele><time>2026-04-11T10:12:55.001Z</time></trkpt><trkpt lat="44.8369717" lon="9.32817"><ele>619.0</ele><time>2026-04-11T10:12:56.002Z</time></trkpt><trkpt lat="44.8370133" lon="9.3283033"><ele>619.0</ele><time>2026-04-11T10:12:57.002Z</time></trkpt><trkpt lat="44.8370567" lon="9.3284383"><ele>619.0</ele><time>2026-04-11T10:12:58Z</time></trkpt><trkpt lat="44.8371" lon="9.328575"><ele>619.0</ele><time>2026-04-11T10:12:59Z</time></trkpt><trkpt lat="44.8371417" lon="9.328715"><ele>619.0</ele><time>2026-04-11T10:13:00.002Z</time></trkpt><trkpt lat="44.8371817" lon="9.328865"><ele>618.5</ele><time>2026-04-11T10:13:01.001Z</time></trkpt><trkpt lat="44.83722" lon="9.329025"><ele>618.0</ele><time>2026-04-11T10:13:02.001Z</time></trkpt><trkpt lat="44.8372567" lon="9.3291933"><ele>617.5</ele><time>2026-04-11T10:13:03.002Z</time></trkpt><trkpt lat="44.8372933" lon="9.3293583"><ele>617.0</ele><time>2026-04-11T10:13:04Z</time></trkpt><trkpt lat="44.8373283" lon="9.3295183"><ele>617.0</ele><time>2026-04-11T10:13:05.001Z</time></trkpt><trkpt lat="44.8373633" lon="9.32967"><ele>617.0</ele><time>2026-04-11T10:13:06.001Z</time></trkpt><trkpt lat="44.8374033" lon="9.329815"><ele>617.0</ele><time>2026-04-11T10:13:07.001Z</time></trkpt><trkpt lat="44.8374517" lon="9.329955"><ele>617.0</ele><time>2026-04-11T10:13:08.001Z</time></trkpt><trkpt lat="44.8375017" lon="9.3300883"><ele>617.0</ele><time>2026-04-11T10:13:09.001Z</time></trkpt><trkpt lat="44.837555" lon="9.3302083"><ele>616.6</ele><time>2026-04-11T10:13:10Z</time></trkpt><trkpt lat="44.837615" lon="9.3303133"><ele>616.2</ele><time>2026-04-11T10:13:11.001Z</time></trkpt><trkpt lat="44.8376883" lon="9.3303983"><ele>615.8</ele><time>2026-04-11T10:13:12.001Z</time></trkpt><trkpt lat="44.8377717" lon="9.3304667"><ele>615.4</ele><time>2026-04-11T10:13:13Z</time></trkpt><trkpt lat="44.837865" lon="9.3305317"><ele>615.0</ele><time>2026-04-11T10:13:14.001Z</time></trkpt><trkpt lat="44.8379683" lon="9.3305917"><ele>609.5</ele><time>2026-04-11T10:13:15.001Z</time></trkpt><trkpt lat="44.838085" lon="9.33065"><ele>604.0</ele><time>2026-04-11T10:13:16Z</time></trkpt><trkpt lat="44.8382017" lon="9.33071"><ele>598.5</ele><time>2026-04-11T10:13:17Z</time></trkpt><trkpt lat="44.838315" lon="9.3307667"><ele>593.0</ele><time>2026-04-11T10:13:18.001Z</time></trkpt><trkpt lat="44.8384233" lon="9.3308233"><ele>591.8</ele><time>2026-04-11T10:13:19.001Z</time></trkpt><trkpt lat="44.8385267" lon="9.330875"><ele>590.5999999999999</ele><time>2026-04-11T10:13:20.001Z</time></trkpt><trkpt lat="44.83863" lon="9.3309183"><ele>589.4000000000001</ele><time>2026-04-11T10:13:21.003Z</time></trkpt><trkpt lat="44.8387333" lon="9.330945"><ele>588.2</ele><time>2026-04-11T10:13:22Z</time></trkpt><trkpt lat="44.8388417" lon="9.3309517"><ele>587.0</ele><time>2026-04-11T10:13:23Z</time></trkpt><trkpt lat="44.83895" lon="9.3309267"><ele>587.0</ele><time>2026-04-11T10:13:24.001Z</time></trkpt><trkpt lat="44.83906" lon="9.330885"><ele>587.0</ele><time>2026-04-11T10:13:25.001Z</time></trkpt><trkpt lat="44.8391733" lon="9.3308333"><ele>587.0</ele><time>2026-04-11T10:13:26.003Z</time></trkpt><trkpt lat="44.8392867" lon="9.3307767"><ele>587.0</ele><time>2026-04-11T10:13:27.001Z</time></trkpt><trkpt lat="44.8394033" lon="9.33072"><ele>587.0</ele><time>2026-04-11T10:13:28Z</time></trkpt><trkpt lat="44.83952" lon="9.3306567"><ele>587.0</ele><time>2026-04-11T10:13:29Z</time></trkpt><trkpt lat="44.8396333" lon="9.330605"><ele>587.0</ele><time>2026-04-11T10:13:30.001Z</time></trkpt><trkpt lat="44.839745" lon="9.3305733"><ele>587.0</ele><time>2026-04-11T10:13:31Z</time></trkpt><trkpt lat="44.8398483" lon="9.330565"><ele>587.0</ele><time>2026-04-11T10:13:32.001Z</time></trkpt><trkpt lat="44.8399433" lon="9.3305883"><ele>587.0</ele><time>2026-04-11T10:13:33.002Z</time></trkpt><trkpt lat="44.84003" lon="9.3306517"><ele>587.0</ele><time>2026-04-11T10:13:34.001Z</time></trkpt><trkpt lat="44.8401167" lon="9.330755"><ele>587.0</ele><time>2026-04-11T10:13:35.001Z</time></trkpt><trkpt lat="44.840205" lon="9.3308833"><ele>587.0</ele><time>2026-04-11T10:13:36Z</time></trkpt><trkpt lat="44.8403017" lon="9.3310167"><ele>586.75</ele><time>2026-04-11T10:13:37.001Z</time></trkpt><trkpt lat="44.8404" lon="9.3311483"><ele>586.5</ele><time>2026-04-11T10:13:38Z</time></trkpt><trkpt lat="44.8405" lon="9.3312817"><ele>586.25</ele><time>2026-04-11T10:13:39.001Z</time></trkpt><trkpt lat="44.840595" lon="9.3314133"><ele>586.0</ele><time>2026-04-11T10:13:40.001Z</time></trkpt><trkpt lat="44.84069" lon="9.3315383"><ele>586.0</ele><time>2026-04-11T10:13:41Z</time></trkpt><trkpt lat="44.840785" lon="9.33166"><ele>586.0</ele><time>2026-04-11T10:13:42.002Z</time></trkpt><trkpt lat="44.8408767" lon="9.3317783"><ele>586.0</ele><time>2026-04-11T10:13:43Z</time></trkpt><trkpt lat="44.8409683" lon="9.331895"><ele>586.0</ele><time>2026-04-11T10:13:44.001Z</time></trkpt><trkpt lat="44.8410683" lon="9.3320017"><ele>585.0</ele><time>2026-04-11T10:13:45.002Z</time></trkpt><trkpt lat="44.8411783" lon="9.3320883"><ele>584.0</ele><time>2026-04-11T10:13:46Z</time></trkpt><trkpt lat="44.8412933" lon="9.3321533"><ele>583.0</ele><time>2026-04-11T10:13:47.001Z</time></trkpt><trkpt lat="44.841415" lon="9.332195"><ele>582.0</ele><time>2026-04-11T10:13:48.001Z</time></trkpt><trkpt lat="44.841535" lon="9.3322033"><ele>582.0</ele><time>2026-04-11T10:13:49.002Z</time></trkpt><trkpt lat="44.8416467" lon="9.3321733"><ele>582.0</ele><time>2026-04-11T10:13:50Z</time></trkpt><trkpt lat="44.8417517" lon="9.3321"><ele>582.0</ele><time>2026-04-11T10:13:51.002Z</time></trkpt><trkpt lat="44.841845" lon="9.3319867"><ele>582.0</ele><time>2026-04-11T10:13:52.001Z</time></trkpt><trkpt lat="44.84193" lon="9.33185"><ele>580.75</ele><time>2026-04-11T10:13:53.002Z</time></trkpt><trkpt lat="44.8420183" lon="9.3317283"><ele>579.5</ele><time>2026-04-11T10:13:54.001Z</time></trkpt><trkpt lat="44.84212" lon="9.3316383"><ele>578.25</ele><time>2026-04-11T10:13:55.002Z</time></trkpt><trkpt lat="44.8422333" lon="9.33158"><ele>577.0</ele><time>2026-04-11T10:13:56.001Z</time></trkpt><trkpt lat="44.842355" lon="9.3315467"><ele>577.0</ele><time>2026-04-11T10:13:57.001Z</time></trkpt><trkpt lat="44.8424867" lon="9.3315433"><ele>577.0</ele><time>2026-04-11T10:13:58.001Z</time></trkpt><trkpt lat="44.8426217" lon="9.3315683"><ele>577.0</ele><time>2026-04-11T10:13:59.002Z</time></trkpt><trkpt lat="44.8427567" lon="9.3316117"><ele>577.0</ele><time>2026-04-11T10:14:00Z</time></trkpt><trkpt lat="44.8428917" lon="9.331665"><ele>576.75</ele><time>2026-04-11T10:14:01.002Z</time></trkpt><trkpt lat="44.8430267" lon="9.3317117"><ele>576.5</ele><time>2026-04-11T10:14:02Z</time></trkpt><trkpt lat="44.843165" lon="9.331745"><ele>576.25</ele><time>2026-04-11T10:14:03.001Z</time></trkpt><trkpt lat="44.84331" lon="9.3317617"><ele>576.0</ele><time>2026-04-11T10:14:04.001Z</time></trkpt><trkpt lat="44.8434533" lon="9.3317633"><ele>575.5</ele><time>2026-04-11T10:14:05Z</time></trkpt><trkpt lat="44.843595" lon="9.3317533"><ele>575.0</ele><time>2026-04-11T10:14:06.001Z</time></trkpt><trkpt lat="44.8437367" lon="9.3317333"><ele>574.5</ele><time>2026-04-11T10:14:07Z</time></trkpt><trkpt lat="44.8438767" lon="9.33171"><ele>574.0</ele><time>2026-04-11T10:14:08.002Z</time></trkpt><trkpt lat="44.844015" lon="9.3316833"><ele>574.0</ele><time>2026-04-11T10:14:09.002Z</time></trkpt><trkpt lat="44.844145" lon="9.3316533"><ele>574.0</ele><time>2026-04-11T10:14:10Z</time></trkpt><trkpt lat="44.8442667" lon="9.3316267"><ele>574.0</ele><time>2026-04-11T10:14:11Z</time></trkpt><trkpt lat="44.84438" lon="9.331605"><ele>574.0</ele><time>2026-04-11T10:14:12.001Z</time></trkpt><trkpt lat="44.84449" lon="9.3315867"><ele>572.75</ele><time>2026-04-11T10:14:13.001Z</time></trkpt><trkpt lat="44.8446067" lon="9.3315667"><ele>571.5</ele><time>2026-04-11T10:14:14.001Z</time></trkpt><trkpt lat="44.8447317" lon="9.3315433"><ele>570.25</ele><time>2026-04-11T10:14:15Z</time></trkpt><trkpt lat="44.84486" lon="9.331515"><ele>569.0</ele><time>2026-04-11T10:14:16.001Z</time></trkpt><trkpt lat="44.8449833" lon="9.3314683"><ele>569.0</ele><time>2026-04-11T10:14:17Z</time></trkpt><trkpt lat="44.8451033" lon="9.3314017"><ele>569.0</ele><time>2026-04-11T10:14:18Z</time></trkpt><trkpt lat="44.8452233" lon="9.33132"><ele>569.0</ele><time>2026-04-11T10:14:19Z</time></trkpt><trkpt lat="44.845345" lon="9.3312383"><ele>569.0</ele><time>2026-04-11T10:14:20Z</time></trkpt><trkpt lat="44.845475" lon="9.3311817"><ele>568.75</ele><time>2026-04-11T10:14:21.002Z</time></trkpt><trkpt lat="44.845615" lon="9.33115"><ele>568.5</ele><time>2026-04-11T10:14:22.001Z</time></trkpt><trkpt lat="44.8457583" lon="9.3311417"><ele>568.25</ele><time>2026-04-11T10:14:23Z</time></trkpt><trkpt lat="44.845905" lon="9.33115"><ele>568.0</ele><time>2026-04-11T10:14:24.001Z</time></trkpt><trkpt lat="44.8460517" lon="9.33116"><ele>568.0</ele><time>2026-04-11T10:14:25Z</time></trkpt><trkpt lat="44.8461983" lon="9.3311583"><ele>568.0</ele><time>2026-04-11T10:14:26Z</time></trkpt><trkpt lat="44.84634" lon="9.33115"><ele>568.0</ele><time>2026-04-11T10:14:27.001Z</time></trkpt><trkpt lat="44.8464733" lon="9.3311417"><ele>568.0</ele><time>2026-04-11T10:14:28.001Z</time></trkpt><trkpt lat="44.8465967" lon="9.3311517"><ele>568.0</ele><time>2026-04-11T10:14:29.003Z</time></trkpt><trkpt lat="44.8467133" lon="9.331185"><ele>568.0</ele><time>2026-04-11T10:14:30Z</time></trkpt><trkpt lat="44.8468217" lon="9.3312533"><ele>568.0</ele><time>2026-04-11T10:14:31.001Z</time></trkpt><trkpt lat="44.84693" lon="9.3313483"><ele>568.0</ele><time>2026-04-11T10:14:32Z</time></trkpt><trkpt lat="44.8470433" lon="9.3314483"><ele>567.0</ele><time>2026-04-11T10:14:33.002Z</time></trkpt><trkpt lat="44.8471667" lon="9.3315383"><ele>566.0</ele><time>2026-04-11T10:14:34.001Z</time></trkpt><trkpt lat="44.8472933" lon="9.3316117"><ele>565.0</ele><time>2026-04-11T10:14:35Z</time></trkpt><trkpt lat="44.847425" lon="9.3316783"><ele>564.0</ele><time>2026-04-11T10:14:36.001Z</time></trkpt><trkpt lat="44.8475583" lon="9.3317333"><ele>563.5</ele><time>2026-04-11T10:14:37.003Z</time></trkpt><trkpt lat="44.8476933" lon="9.3317783"><ele>563.0</ele><time>2026-04-11T10:14:38.001Z</time></trkpt><trkpt lat="44.8478317" lon="9.3318117"><ele>562.5</ele><time>2026-04-11T10:14:39.003Z</time></trkpt><trkpt lat="44.84797" lon="9.3318333"><ele>562.0</ele><time>2026-04-11T10:14:40.002Z</time></trkpt><trkpt lat="44.8481067" lon="9.3318483"><ele>562.0</ele><time>2026-04-11T10:14:41.001Z</time></trkpt><trkpt lat="44.84824" lon="9.3318433"><ele>562.0</ele><time>2026-04-11T10:14:42.001Z</time></trkpt><trkpt lat="44.8483717" lon="9.3318183"><ele>562.0</ele><time>2026-04-11T10:14:43Z</time></trkpt><trkpt lat="44.848495" lon="9.331765"><ele>562.0</ele><time>2026-04-11T10:14:44Z</time></trkpt><trkpt lat="44.848615" lon="9.3316967"><ele>562.0</ele><time>2026-04-11T10:14:45Z</time></trkpt><trkpt lat="44.848735" lon="9.331625"><ele>562.0</ele><time>2026-04-11T10:14:46.001Z</time></trkpt><trkpt lat="44.848855" lon="9.3315533"><ele>562.0</ele><time>2026-04-11T10:14:47Z</time></trkpt><trkpt lat="44.8489767" lon="9.331485"><ele>562.0</ele><time>2026-04-11T10:14:48.001Z</time></trkpt><trkpt lat="44.8491033" lon="9.331415"><ele>562.75</ele><time>2026-04-11T10:14:49.001Z</time></trkpt><trkpt lat="44.8492367" lon="9.331345"><ele>563.5</ele><time>2026-04-11T10:14:50.001Z</time></trkpt><trkpt lat="44.84937" lon="9.331275"><ele>564.25</ele><time>2026-04-11T10:14:51Z</time></trkpt><trkpt lat="44.8495067" lon="9.3312083"><ele>565.0</ele><time>2026-04-11T10:14:52Z</time></trkpt><trkpt lat="44.8496467" lon="9.3311467"><ele>565.0</ele><time>2026-04-11T10:14:53.001Z</time></trkpt><trkpt lat="44.8497883" lon="9.3310883"><ele>565.0</ele><time>2026-04-11T10:14:54.002Z</time></trkpt><trkpt lat="44.8499317" lon="9.3310283"><ele>565.0</ele><time>2026-04-11T10:14:55Z</time></trkpt><trkpt lat="44.8500767" lon="9.3309717"><ele>565.0</ele><time>2026-04-11T10:14:56.001Z</time></trkpt><trkpt lat="44.8502183" lon="9.3309217"><ele>564.0</ele><time>2026-04-11T10:14:57.001Z</time></trkpt><trkpt lat="44.8503567" lon="9.3308767"><ele>563.0</ele><time>2026-04-11T10:14:58Z</time></trkpt><trkpt lat="44.8504917" lon="9.3308283"><ele>562.0</ele><time>2026-04-11T10:14:59.001Z</time></trkpt><trkpt lat="44.85063" lon="9.3307783"><ele>561.0</ele><time>2026-04-11T10:15:00.003Z</time></trkpt><trkpt lat="44.8507667" lon="9.330735"><ele>561.0</ele><time>2026-04-11T10:15:01Z</time></trkpt><trkpt lat="44.8508967" lon="9.3307"><ele>561.0</ele><time>2026-04-11T10:15:02.001Z</time></trkpt><trkpt lat="44.85102" lon="9.33067"><ele>561.0</ele><time>2026-04-11T10:15:03.001Z</time></trkpt><trkpt lat="44.8511367" lon="9.3306483"><ele>561.0</ele><time>2026-04-11T10:15:04Z</time></trkpt><trkpt lat="44.8512467" lon="9.33063"><ele>561.1666666666666</ele><time>2026-04-11T10:15:05Z</time></trkpt><trkpt lat="44.8513483" lon="9.3306133"><ele>561.3333333333334</ele><time>2026-04-11T10:15:06Z</time></trkpt><trkpt lat="44.8514383" lon="9.3305917"><ele>561.5</ele><time>2026-04-11T10:15:07Z</time></trkpt><trkpt lat="44.8515217" lon="9.3305633"><ele>561.6666666666667</ele><time>2026-04-11T10:15:08.001Z</time></trkpt><trkpt lat="44.8515917" lon="9.3305167"><ele>561.8333333333334</ele><time>2026-04-11T10:15:09.002Z</time></trkpt><trkpt lat="44.851655" lon="9.330455"><ele>562.0</ele><time>2026-04-11T10:15:10Z</time></trkpt><trkpt lat="44.8517067" lon="9.33038"><ele>562.0000000000001</ele><time>2026-04-11T10:15:11Z</time></trkpt><trkpt lat="44.8517483" lon="9.330305"><ele>562.0</ele><time>2026-04-11T10:15:12Z</time></trkpt><trkpt lat="44.8517917" lon="9.3301833"><ele>562.0</ele><time>2026-04-11T10:15:14Z</time></trkpt><trkpt lat="44.8518117" lon="9.3300917"><ele>562.0</ele><time>2026-04-11T10:15:16.001Z</time></trkpt><trkpt lat="44.8518226" lon="9.3301452"><ele>562.0</ele><time>2026-04-11T10:22:09.003Z</time></trkpt><trkpt lat="44.8517829" lon="9.3302369"><ele>562.0000000000001</ele><time>2026-04-11T10:22:10.002Z</time></trkpt><trkpt lat="44.851735" lon="9.3303302"><ele>562.0</ele><time>2026-04-11T10:22:11.003Z</time></trkpt><trkpt lat="44.8516861" lon="9.3304092"><ele>562.0</ele><time>2026-04-11T10:22:12.003Z</time></trkpt><trkpt lat="44.8516313" lon="9.3304757"><ele>562.0</ele><time>2026-04-11T10:22:13.003Z</time></trkpt><trkpt lat="44.8515666" lon="9.3305265"><ele>562.0</ele><time>2026-04-11T10:22:14.003Z</time></trkpt><trkpt lat="44.8514876" lon="9.3305625"><ele>562.0</ele><time>2026-04-11T10:22:15.003Z</time></trkpt><trkpt lat="44.8513989" lon="9.3305818"><ele>562.0</ele><time>2026-04-11T10:22:16.003Z</time></trkpt><trkpt lat="44.851301" lon="9.330594"><ele>562.0</ele><time>2026-04-11T10:22:17.004Z</time></trkpt><trkpt lat="44.8512067" lon="9.3306074"><ele>561.75</ele><time>2026-04-11T10:22:18.003Z</time></trkpt><trkpt lat="44.8511073" lon="9.3306262"><ele>561.5</ele><time>2026-04-11T10:22:19.002Z</time></trkpt><trkpt lat="44.8509944" lon="9.3306495"><ele>561.25</ele><time>2026-04-11T10:22:20.004Z</time></trkpt><trkpt lat="44.8508759" lon="9.3306792"><ele>561.0</ele><time>2026-04-11T10:22:21.004Z</time></trkpt><trkpt lat="44.8507569" lon="9.3307116"><ele>561.0</ele><time>2026-04-11T10:22:22.003Z</time></trkpt><trkpt lat="44.8506439" lon="9.3307482"><ele>561.0</ele><time>2026-04-11T10:22:23.002Z</time></trkpt><trkpt lat="44.8505293" lon="9.3307898"><ele>561.0</ele><time>2026-04-11T10:22:24.002Z</time></trkpt><trkpt lat="44.8504033" lon="9.3308333"><ele>561.0</ele><time>2026-04-11T10:22:25.003Z</time></trkpt><trkpt lat="44.8502733" lon="9.33088"><ele>561.0</ele><time>2026-04-11T10:22:26.003Z</time></trkpt><trkpt lat="44.850135" lon="9.3309283"><ele>561.0</ele><time>2026-04-11T10:22:27.003Z</time></trkpt><trkpt lat="44.8499933" lon="9.330975"><ele>561.0</ele><time>2026-04-11T10:22:28.003Z</time></trkpt><trkpt lat="44.8498483" lon="9.3310217"><ele>561.0</ele><time>2026-04-11T10:22:29.002Z</time></trkpt><trkpt lat="44.8497033" lon="9.3310733"><ele>562.0</ele><time>2026-04-11T10:22:30.003Z</time></trkpt><trkpt lat="44.84956" lon="9.33113"><ele>563.0</ele><time>2026-04-11T10:22:31.003Z</time></trkpt><trkpt lat="44.8494183" lon="9.3311933"><ele>564.0</ele><time>2026-04-11T10:22:32.002Z</time></trkpt><trkpt lat="44.8492817" lon="9.3312633"><ele>565.0</ele><time>2026-04-11T10:22:33.003Z</time></trkpt><trkpt lat="44.8491433" lon="9.331335"><ele>564.25</ele><time>2026-04-11T10:22:34.003Z</time></trkpt><trkpt lat="44.8490117" lon="9.3314067"><ele>563.5</ele><time>2026-04-11T10:22:35.003Z</time></trkpt><trkpt lat="44.8488767" lon="9.33148"><ele>562.75</ele><time>2026-04-11T10:22:36.003Z</time></trkpt><trkpt lat="44.8487467" lon="9.3315533"><ele>562.0</ele><time>2026-04-11T10:22:37.001Z</time></trkpt><trkpt lat="44.8486283" lon="9.3316283"><ele>562.0</ele><time>2026-04-11T10:22:38.004Z</time></trkpt><trkpt lat="44.8485183" lon="9.3316967"><ele>562.0</ele><time>2026-04-11T10:22:39.002Z</time></trkpt><trkpt lat="44.84841" lon="9.3317517"><ele>562.0</ele><time>2026-04-11T10:22:40.002Z</time></trkpt><trkpt lat="44.8482917" lon="9.33179"><ele>562.0</ele><time>2026-04-11T10:22:41.002Z</time></trkpt><trkpt lat="44.8481583" lon="9.331805"><ele>562.0</ele><time>2026-04-11T10:22:42.002Z</time></trkpt><trkpt lat="44.8480133" lon="9.3317933"><ele>562.0</ele><time>2026-04-11T10:22:43.002Z</time></trkpt><trkpt lat="44.8478683" lon="9.3317633"><ele>562.0</ele><time>2026-04-11T10:22:44.001Z</time></trkpt><trkpt lat="44.847735" lon="9.3317233"><ele>562.0</ele><time>2026-04-11T10:22:45.003Z</time></trkpt><trkpt lat="44.8476083" lon="9.33168"><ele>562.6666666666667</ele><time>2026-04-11T10:22:46.002Z</time></trkpt><trkpt lat="44.847475" lon="9.33163"><ele>563.3333333333334</ele><time>2026-04-11T10:22:47.004Z</time></trkpt><trkpt lat="44.84733" lon="9.3315667"><ele>564.0</ele><time>2026-04-11T10:22:48.003Z</time></trkpt><trkpt lat="44.8471783" lon="9.3314867"><ele>564.0</ele><time>2026-04-11T10:22:49.005Z</time></trkpt><trkpt lat="44.8470367" lon="9.3313917"><ele>564.0</ele><time>2026-04-11T10:22:50.003Z</time></trkpt><trkpt lat="44.8469067" lon="9.331295"><ele>564.0</ele><time>2026-04-11T10:22:51.003Z</time></trkpt><trkpt lat="44.8467833" lon="9.3312067"><ele>564.0</ele><time>2026-04-11T10:22:52.002Z</time></trkpt><trkpt lat="44.846655" lon="9.3311467"><ele>565.3333333333334</ele><time>2026-04-11T10:22:53.003Z</time></trkpt><trkpt lat="44.8465117" lon="9.3311217"><ele>566.6666666666667</ele><time>2026-04-11T10:22:54.004Z</time></trkpt><trkpt lat="44.8463617" lon="9.3311167"><ele>568.0</ele><time>2026-04-11T10:22:55.003Z</time></trkpt><trkpt lat="44.8462" lon="9.3311233"><ele>568.0</ele><time>2026-04-11T10:22:56.002Z</time></trkpt><trkpt lat="44.8460383" lon="9.33113"><ele>568.0</ele><time>2026-04-11T10:22:57.003Z</time></trkpt><trkpt lat="44.8458783" lon="9.3311317"><ele>568.0</ele><time>2026-04-11T10:22:58.003Z</time></trkpt><trkpt lat="44.8457183" lon="9.3311367"><ele>569.0</ele><time>2026-04-11T10:22:59.003Z</time></trkpt><trkpt lat="44.845565" lon="9.3311517"><ele>570.0</ele><time>2026-04-11T10:23:00.002Z</time></trkpt><trkpt lat="44.84542" lon="9.3311983"><ele>571.0</ele><time>2026-04-11T10:23:01.002Z</time></trkpt><trkpt lat="44.8452817" lon="9.33127"><ele>571.0</ele><time>2026-04-11T10:23:02.001Z</time></trkpt><trkpt lat="44.8451467" lon="9.3313533"><ele>571.0</ele><time>2026-04-11T10:23:03.003Z</time></trkpt><trkpt lat="44.8450117" lon="9.3314317"><ele>571.0</ele><time>2026-04-11T10:23:04.002Z</time></trkpt><trkpt lat="44.8448733" lon="9.3314917"><ele>571.0</ele><time>2026-04-11T10:23:05.003Z</time></trkpt><trkpt lat="44.8447233" lon="9.3315333"><ele>570.3333333333334</ele><time>2026-04-11T10:23:06.002Z</time></trkpt><trkpt lat="44.84457" lon="9.331565"><ele>569.6666666666666</ele><time>2026-04-11T10:23:07.001Z</time></trkpt><trkpt lat="44.84441" lon="9.3316"><ele>569.0</ele><time>2026-04-11T10:23:08.004Z</time></trkpt><trkpt lat="44.84425" lon="9.33163"><ele>570.6666666666666</ele><time>2026-04-11T10:23:09.003Z</time></trkpt><trkpt lat="44.84409" lon="9.3316583"><ele>572.3333333333334</ele><time>2026-04-11T10:23:10.003Z</time></trkpt><trkpt lat="44.84393" lon="9.3316883"><ele>574.0</ele><time>2026-04-11T10:23:11.003Z</time></trkpt><trkpt lat="44.8437683" lon="9.331715"><ele>574.0</ele><time>2026-04-11T10:23:12.001Z</time></trkpt><trkpt lat="44.8436083" lon="9.3317367"><ele>574.0</ele><time>2026-04-11T10:23:13.002Z</time></trkpt><trkpt lat="44.8434533" lon="9.3317417"><ele>574.0</ele><time>2026-04-11T10:23:14.001Z</time></trkpt><trkpt lat="44.8433017" lon="9.3317283"><ele>574.5</ele><time>2026-04-11T10:23:15.003Z</time></trkpt><trkpt lat="44.843155" lon="9.3317033"><ele>575.0</ele><time>2026-04-11T10:23:16.002Z</time></trkpt><trkpt lat="44.84301" lon="9.331665"><ele>575.5</ele><time>2026-04-11T10:23:17.002Z</time></trkpt><trkpt lat="44.8428633" lon="9.3316183"><ele>576.0</ele><time>2026-04-11T10:23:18.003Z</time></trkpt><trkpt lat="44.84273" lon="9.33157"><ele>576.25</ele><time>2026-04-11T10:23:19.003Z</time></trkpt><trkpt lat="44.8426" lon="9.3315317"><ele>576.5</ele><time>2026-04-11T10:23:20.001Z</time></trkpt><trkpt lat="44.842475" lon="9.3315083"><ele>576.75</ele><time>2026-04-11T10:23:21.005Z</time></trkpt><trkpt lat="44.8423483" lon="9.33151"><ele>577.0</ele><time>2026-04-11T10:23:22.003Z</time></trkpt><trkpt lat="44.84222" lon="9.331545"><ele>577.0</ele><time>2026-04-11T10:23:23.002Z</time></trkpt><trkpt lat="44.8421017" lon="9.33161"><ele>577.0</ele><time>2026-04-11T10:23:24.003Z</time></trkpt><trkpt lat="44.8420017" lon="9.331695"><ele>577.0</ele><time>2026-04-11T10:23:25.002Z</time></trkpt><trkpt lat="44.8419183" lon="9.3318"><ele>577.0</ele><time>2026-04-11T10:23:26.002Z</time></trkpt><trkpt lat="44.8418433" lon="9.3319133"><ele>578.0</ele><time>2026-04-11T10:23:27.003Z</time></trkpt><trkpt lat="44.841765" lon="9.3320233"><ele>579.0</ele><time>2026-04-11T10:23:28.001Z</time></trkpt><trkpt lat="44.8416733" lon="9.3321117"><ele>580.0</ele><time>2026-04-11T10:23:29.004Z</time></trkpt><trkpt lat="44.8415767" lon="9.3321667"><ele>581.0</ele><time>2026-04-11T10:23:30.001Z</time></trkpt><trkpt lat="44.8414733" lon="9.33218"><ele>582.0</ele><time>2026-04-11T10:23:31Z</time></trkpt><trkpt lat="44.8413617" lon="9.3321567"><ele>582.0</ele><time>2026-04-11T10:23:32.001Z</time></trkpt><trkpt lat="44.841245" lon="9.332105"><ele>582.0</ele><time>2026-04-11T10:23:33.004Z</time></trkpt><trkpt lat="44.8411367" lon="9.3320267"><ele>582.0</ele><time>2026-04-11T10:23:34.002Z</time></trkpt><trkpt lat="44.841035" lon="9.3319317"><ele>582.0</ele><time>2026-04-11T10:23:35.003Z</time></trkpt><trkpt lat="44.84094" lon="9.3318267"><ele>583.0</ele><time>2026-04-11T10:23:36.003Z</time></trkpt><trkpt lat="44.8408467" lon="9.33171"><ele>584.0</ele><time>2026-04-11T10:23:37.003Z</time></trkpt><trkpt lat="44.8407533" lon="9.331585"><ele>585.0</ele><time>2026-04-11T10:23:38.003Z</time></trkpt><trkpt lat="44.8406617" lon="9.3314567"><ele>586.0</ele><time>2026-04-11T10:23:39.003Z</time></trkpt><trkpt lat="44.8405683" lon="9.33133"><ele>590.25</ele><time>2026-04-11T10:23:40.002Z</time></trkpt><trkpt lat="44.8404783" lon="9.3312083"><ele>594.5</ele><time>2026-04-11T10:23:41.002Z</time></trkpt><trkpt lat="44.8403867" lon="9.3310917"><ele>598.75</ele><time>2026-04-11T10:23:42.003Z</time></trkpt><trkpt lat="44.8403017" lon="9.3309717"><ele>603.0</ele><time>2026-04-11T10:23:43.002Z</time></trkpt><trkpt lat="44.8402167" lon="9.3308583"><ele>603.0</ele><time>2026-04-11T10:23:44.002Z</time></trkpt><trkpt lat="44.8401367" lon="9.3307533"><ele>603.0</ele><time>2026-04-11T10:23:45.002Z</time></trkpt><trkpt lat="44.8400583" lon="9.3306583"><ele>603.0</ele><time>2026-04-11T10:23:46.002Z</time></trkpt><trkpt lat="44.839975" lon="9.3305833"><ele>603.0</ele><time>2026-04-11T10:23:47.003Z</time></trkpt><trkpt lat="44.8398767" lon="9.3305467"><ele>603.0</ele><time>2026-04-11T10:23:48.003Z</time></trkpt><trkpt lat="44.8397717" lon="9.330545"><ele>599.0</ele><time>2026-04-11T10:23:49.004Z</time></trkpt><trkpt lat="44.8396633" lon="9.3305767"><ele>595.0</ele><time>2026-04-11T10:23:50.003Z</time></trkpt><trkpt lat="44.83955" lon="9.3306233"><ele>591.0</ele><time>2026-04-11T10:23:51.003Z</time></trkpt><trkpt lat="44.8394367" lon="9.3306833"><ele>587.0</ele><time>2026-04-11T10:23:52.005Z</time></trkpt><trkpt lat="44.8393217" lon="9.3307467"><ele>587.0</ele><time>2026-04-11T10:23:53.002Z</time></trkpt><trkpt lat="44.8392033" lon="9.3308067"><ele>587.0</ele><time>2026-04-11T10:23:54.004Z</time></trkpt><trkpt lat="44.8390933" lon="9.3308633"><ele>587.0</ele><time>2026-04-11T10:23:55.003Z</time></trkpt><trkpt lat="44.8389883" lon="9.3309117"><ele>587.0</ele><time>2026-04-11T10:23:56.003Z</time></trkpt><trkpt lat="44.838885" lon="9.3309417"><ele>587.0</ele><time>2026-04-11T10:23:57.003Z</time></trkpt><trkpt lat="44.8387883" lon="9.3309433"><ele>587.0</ele><time>2026-04-11T10:23:58.002Z</time></trkpt><trkpt lat="44.8386917" lon="9.3309183"><ele>587.0</ele><time>2026-04-11T10:23:59.003Z</time></trkpt><trkpt lat="44.8385917" lon="9.33087"><ele>587.0</ele><time>2026-04-11T10:24:00.003Z</time></trkpt><trkpt lat="44.838485" lon="9.3308133"><ele>587.0</ele><time>2026-04-11T10:24:01.004Z</time></trkpt><trkpt lat="44.8383717" lon="9.330755"><ele>588.5</ele><time>2026-04-11T10:24:02.003Z</time></trkpt><trkpt lat="44.8382567" lon="9.3306883"><ele>590.0</ele><time>2026-04-11T10:24:03.005Z</time></trkpt><trkpt lat="44.83814" lon="9.33062"><ele>591.5</ele><time>2026-04-11T10:24:04.005Z</time></trkpt><trkpt lat="44.8380217" lon="9.3305583"><ele>593.0</ele><time>2026-04-11T10:24:05.005Z</time></trkpt><trkpt lat="44.8379033" lon="9.3305017"><ele>595.75</ele><time>2026-04-11T10:24:06.004Z</time></trkpt><trkpt lat="44.8377883" lon="9.3304417"><ele>598.5</ele><time>2026-04-11T10:24:07.004Z</time></trkpt><trkpt lat="44.8376883" lon="9.3303683"><ele>601.25</ele><time>2026-04-11T10:24:08.003Z</time></trkpt><trkpt lat="44.8376017" lon="9.3302683"><ele>604.0</ele><time>2026-04-11T10:24:09.005Z</time></trkpt><trkpt lat="44.8375333" lon="9.330145"><ele>604.0</ele><time>2026-04-11T10:24:10.003Z</time></trkpt><trkpt lat="44.8374767" lon="9.3299917"><ele>604.0</ele><time>2026-04-11T10:24:11.004Z</time></trkpt><trkpt lat="44.8374267" lon="9.3298283"><ele>604.0</ele><time>2026-04-11T10:24:12.003Z</time></trkpt><trkpt lat="44.83738" lon="9.32965"><ele>604.0</ele><time>2026-04-11T10:24:13.003Z</time></trkpt><trkpt lat="44.83734" lon="9.3294783"><ele>606.6</ele><time>2026-04-11T10:24:14.003Z</time></trkpt><trkpt lat="44.837305" lon="9.3293217"><ele>609.2</ele><time>2026-04-11T10:24:15.004Z</time></trkpt><trkpt lat="44.8372783" lon="9.3291717"><ele>611.8000000000001</ele><time>2026-04-11T10:24:16.004Z</time></trkpt><trkpt lat="44.8372583" lon="9.32904"><ele>614.4</ele><time>2026-04-11T10:24:17.003Z</time></trkpt><trkpt lat="44.8372417" lon="9.32892"><ele>617.0</ele><time>2026-04-11T10:24:18.003Z</time></trkpt><trkpt lat="44.8372333" lon="9.3288117"><ele>617.0</ele><time>2026-04-11T10:24:19.003Z</time></trkpt><trkpt lat="44.8372417" lon="9.3287217"><ele>617.0</ele><time>2026-04-11T10:24:20.005Z</time></trkpt><trkpt lat="44.8373183" lon="9.32863"><ele>617.0</ele><time>2026-04-11T10:24:22.004Z</time></trkpt><trkpt lat="44.83741" lon="9.3287217"><ele>617.0</ele><time>2026-04-11T10:24:24.005Z</time></trkpt><trkpt lat="44.83744" lon="9.3288133"><ele>617.0</ele><time>2026-04-11T10:24:25.004Z</time></trkpt><trkpt lat="44.8374633" lon="9.3289483"><ele>617.0</ele><time>2026-04-11T10:24:26.004Z</time></trkpt><trkpt lat="44.837495" lon="9.32909"><ele>617.0</ele><time>2026-04-11T10:24:27.005Z</time></trkpt><trkpt lat="44.8375267" lon="9.3292317"><ele>617.0</ele><time>2026-04-11T10:24:28.001Z</time></trkpt><trkpt lat="44.837565" lon="9.3293683"><ele>617.0</ele><time>2026-04-11T10:24:29.002Z</time></trkpt><trkpt lat="44.8376033" lon="9.3294983"><ele>617.0</ele><time>2026-04-11T10:24:30.003Z</time></trkpt><trkpt lat="44.83764" lon="9.3296217"><ele>617.0</ele><time>2026-04-11T10:24:31.005Z</time></trkpt><trkpt lat="44.8376767" lon="9.329735"><ele>616.6</ele><time>2026-04-11T10:24:32.003Z</time></trkpt><trkpt lat="44.8377317" lon="9.329825"><ele>616.2</ele><time>2026-04-11T10:24:33.003Z</time></trkpt><trkpt lat="44.8378017" lon="9.329875"><ele>615.8</ele><time>2026-04-11T10:24:34.003Z</time></trkpt><trkpt lat="44.837895" lon="9.3299017"><ele>615.4</ele><time>2026-04-11T10:24:35.004Z</time></trkpt><trkpt lat="44.8379983" lon="9.3299067"><ele>615.0</ele><time>2026-04-11T10:24:36.004Z</time></trkpt><trkpt lat="44.8380967" lon="9.3299133"><ele>615.0</ele><time>2026-04-11T10:24:37.004Z</time></trkpt><trkpt lat="44.838185" lon="9.329915"><ele>615.0</ele><time>2026-04-11T10:24:38.003Z</time></trkpt><trkpt lat="44.8382567" lon="9.32991"><ele>615.0</ele><time>2026-04-11T10:24:39.004Z</time></trkpt><trkpt lat="44.8383217" lon="9.3298917"><ele>615.0</ele><time>2026-04-11T10:24:40.003Z</time></trkpt><trkpt lat="44.8384067" lon="9.3297917"><ele>615.0</ele><time>2026-04-11T10:24:42.004Z</time></trkpt><trkpt lat="44.8383967" lon="9.3296133"><ele>615.8333333333334</ele><time>2026-04-11T10:24:44.003Z</time></trkpt><trkpt lat="44.8383683" lon="9.3295133"><ele>616.6666666666666</ele><time>2026-04-11T10:24:45.004Z</time></trkpt><trkpt lat="44.838325" lon="9.3294033"><ele>617.5</ele><time>2026-04-11T10:24:46.003Z</time></trkpt><trkpt lat="44.8382867" lon="9.3292867"><ele>618.3333333333333</ele><time>2026-04-11T10:24:47.004Z</time></trkpt><trkpt lat="44.838245" lon="9.3291783"><ele>619.1666666666666</ele><time>2026-04-11T10:24:48.004Z</time></trkpt><trkpt lat="44.83821" lon="9.3290833"><ele>620.0</ele><time>2026-04-11T10:24:49.003Z</time></trkpt><trkpt lat="44.8381817" lon="9.3289967"><ele>618.6</ele><time>2026-04-11T10:24:50.003Z</time></trkpt><trkpt lat="44.8381217" lon="9.3288533"><ele>617.2</ele><time>2026-04-11T10:24:52.004Z</time></trkpt><trkpt lat="44.8380433" lon="9.3287333"><ele>615.8</ele><time>2026-04-11T10:24:54.004Z</time></trkpt><trkpt lat="44.8379717" lon="9.3286367"><ele>614.4</ele><time>2026-04-11T10:24:56.003Z</time></trkpt><trkpt lat="44.83792" lon="9.3285317"><ele>613.0</ele><time>2026-04-11T10:24:58.002Z</time></trkpt><trkpt lat="44.837875" lon="9.3283333"><ele>613.0</ele><time>2026-04-11T10:25:01.003Z</time></trkpt><trkpt lat="44.83783" lon="9.32819"><ele>613.0</ele><time>2026-04-11T10:25:03.004Z</time></trkpt><trkpt lat="44.837775" lon="9.3280383"><ele>613.0</ele><time>2026-04-11T10:25:05.004Z</time></trkpt><trkpt lat="44.8377033" lon="9.3278917"><ele>613.0</ele><time>2026-04-11T10:25:07.004Z</time></trkpt><trkpt lat="44.83766" lon="9.3278067"><ele>613.0</ele><time>2026-04-11T10:25:08.004Z</time></trkpt><trkpt lat="44.8376217" lon="9.3277267"><ele>615.0</ele><time>2026-04-11T10:25:09.004Z</time></trkpt><trkpt lat="44.8375517" lon="9.3275817"><ele>617.0</ele><time>2026-04-11T10:25:11.004Z</time></trkpt><trkpt lat="44.8374983" lon="9.3274617"><ele>619.0</ele><time>2026-04-11T10:25:13.004Z</time></trkpt><trkpt lat="44.8374483" lon="9.3273667"><ele>621.0</ele><time>2026-04-11T10:25:16.003Z</time></trkpt><trkpt lat="44.8373817" lon="9.3272883"><ele>623.0</ele><time>2026-04-11T10:25:20.002Z</time></trkpt><trkpt lat="44.8373267" lon="9.32721"><ele>623.0</ele><time>2026-04-11T10:25:23.004Z</time></trkpt><trkpt lat="44.8373567" lon="9.32729"><ele>623.0</ele><time>2026-04-11T10:26:39.003Z</time></trkpt><trkpt lat="44.8373083" lon="9.3271833"><ele>623.0</ele><time>2026-04-11T10:36:42.002Z</time></trkpt><trkpt lat="44.8373817" lon="9.327245"><ele>623.0</ele><time>2026-04-11T11:05:32.004Z</time></trkpt><trkpt lat="44.837365" lon="9.3271183"><ele>623.0</ele><time>2026-04-11T11:19:57.004Z</time></trkpt><trkpt lat="44.837275" lon="9.3271017"><ele>623.0</ele><time>2026-04-11T11:24:29.002Z</time></trkpt><trkpt lat="44.8372567" lon="9.327"><ele>623.6666666666666</ele><time>2026-04-11T11:24:31.002Z</time></trkpt><trkpt lat="44.8372133" lon="9.3268533"><ele>624.3333333333333</ele><time>2026-04-11T11:24:33.001Z</time></trkpt><trkpt lat="44.837185" lon="9.3267683"><ele>625.0</ele><time>2026-04-11T11:24:34.002Z</time></trkpt><trkpt lat="44.83715" lon="9.3266783"><ele>625.6666666666666</ele><time>2026-04-11T11:24:35.002Z</time></trkpt><trkpt lat="44.837115" lon="9.326585"><ele>626.3333333333334</ele><time>2026-04-11T11:24:36.002Z</time></trkpt><trkpt lat="44.837075" lon="9.3264867"><ele>627.0</ele><time>2026-04-11T11:24:37Z</time></trkpt><trkpt lat="44.83703" lon="9.3263933"><ele>627.2</ele><time>2026-04-11T11:24:38.001Z</time></trkpt><trkpt lat="44.8369833" lon="9.32631"><ele>627.4000000000001</ele><time>2026-04-11T11:24:39.002Z</time></trkpt><trkpt lat="44.8369417" lon="9.3262333"><ele>627.5999999999999</ele><time>2026-04-11T11:24:40.001Z</time></trkpt><trkpt lat="44.836875" lon="9.3261017"><ele>627.8</ele><time>2026-04-11T11:24:42.002Z</time></trkpt><trkpt lat="44.8368117" lon="9.3259933"><ele>628.0</ele><time>2026-04-11T11:24:44.002Z</time></trkpt><trkpt lat="44.8367417" lon="9.325895"><ele>628.0</ele><time>2026-04-11T11:24:46.002Z</time></trkpt><trkpt lat="44.8366667" lon="9.32578"><ele>628.0</ele><time>2026-04-11T11:24:48.001Z</time></trkpt><trkpt lat="44.8365883" lon="9.3256417"><ele>628.0</ele><time>2026-04-11T11:24:50.002Z</time></trkpt><trkpt lat="44.8365483" lon="9.325565"><ele>628.0</ele><time>2026-04-11T11:24:51.001Z</time></trkpt><trkpt lat="44.8365083" lon="9.3254883"><ele>628.0</ele><time>2026-04-11T11:24:52.001Z</time></trkpt><trkpt lat="44.836465" lon="9.3254083"><ele>628.0</ele><time>2026-04-11T11:24:53.003Z</time></trkpt><trkpt lat="44.8364233" lon="9.3253267"><ele>629.1666666666667</ele><time>2026-04-11T11:24:54.003Z</time></trkpt><trkpt lat="44.8363783" lon="9.325245"><ele>630.3333333333334</ele><time>2026-04-11T11:24:55.001Z</time></trkpt><trkpt lat="44.836335" lon="9.3251667"><ele>631.5</ele><time>2026-04-11T11:24:56.002Z</time></trkpt><trkpt lat="44.8362933" lon="9.3251"><ele>632.6666666666666</ele><time>2026-04-11T11:24:57.002Z</time></trkpt><trkpt lat="44.8362183" lon="9.3249983"><ele>633.8333333333333</ele><time>2026-04-11T11:24:59.001Z</time></trkpt><trkpt lat="44.8361533" lon="9.32493"><ele>635.0</ele><time>2026-04-11T11:25:01.001Z</time></trkpt><trkpt lat="44.836095" lon="9.324875"><ele>635.0</ele><time>2026-04-11T11:25:03.002Z</time></trkpt><trkpt lat="44.8360233" lon="9.324835"><ele>635.0</ele><time>2026-04-11T11:25:06.002Z</time></trkpt><trkpt lat="44.8359633" lon="9.3247783"><ele>635.0</ele><time>2026-04-11T11:25:09.001Z</time></trkpt><trkpt lat="44.8358983" lon="9.324715"><ele>635.0</ele><time>2026-04-11T11:25:12.001Z</time></trkpt><trkpt lat="44.8358333" lon="9.32465"><ele>635.0</ele><time>2026-04-11T11:25:15.004Z</time></trkpt><trkpt lat="44.8357617" lon="9.32458"><ele>635.0</ele><time>2026-04-11T11:25:34.001Z</time></trkpt><trkpt lat="44.83568" lon="9.3245067"><ele>636.0</ele><time>2026-04-11T11:25:36.002Z</time></trkpt><trkpt lat="44.8355833" lon="9.324395"><ele>637.0</ele><time>2026-04-11T11:25:38.001Z</time></trkpt><trkpt lat="44.835485" lon="9.32433"><ele>638.0</ele><time>2026-04-11T11:25:40.001Z</time></trkpt><trkpt lat="44.8354017" lon="9.3243317"><ele>639.0</ele><time>2026-04-11T11:25:42.001Z</time></trkpt><trkpt lat="44.8353617" lon="9.3244433"><ele>640.0</ele><time>2026-04-11T11:25:44.002Z</time></trkpt><trkpt lat="44.835445" lon="9.3246083"><ele>640.0</ele><time>2026-04-11T11:25:46.001Z</time></trkpt><trkpt lat="44.8355217" lon="9.3247"><ele>640.0</ele><time>2026-04-11T11:25:47.002Z</time></trkpt><trkpt lat="44.8356017" lon="9.3247967"><ele>640.0</ele><time>2026-04-11T11:25:48.001Z</time></trkpt><trkpt lat="44.83568" lon="9.3248917"><ele>640.0</ele><time>2026-04-11T11:25:49.001Z</time></trkpt><trkpt lat="44.8357533" lon="9.3249933"><ele>640.0</ele><time>2026-04-11T11:25:50.002Z</time></trkpt><trkpt lat="44.8358333" lon="9.325105"><ele>638.75</ele><time>2026-04-11T11:25:51.002Z</time></trkpt><trkpt lat="44.83592" lon="9.325225"><ele>637.5</ele><time>2026-04-11T11:25:52Z</time></trkpt><trkpt lat="44.836005" lon="9.3253517"><ele>636.25</ele><time>2026-04-11T11:25:53.001Z</time></trkpt><trkpt lat="44.836085" lon="9.3254783"><ele>635.0</ele><time>2026-04-11T11:25:54.001Z</time></trkpt><trkpt lat="44.8361567" lon="9.325605"><ele>633.6</ele><time>2026-04-11T11:25:55.003Z</time></trkpt><trkpt lat="44.8362167" lon="9.325735"><ele>632.2</ele><time>2026-04-11T11:25:56.001Z</time></trkpt><trkpt lat="44.8362717" lon="9.3258683"><ele>630.8</ele><time>2026-04-11T11:25:57.002Z</time></trkpt><trkpt lat="44.83632" lon="9.3260033"><ele>629.4</ele><time>2026-04-11T11:25:58.001Z</time></trkpt><trkpt lat="44.8363683" lon="9.3261483"><ele>628.0</ele><time>2026-04-11T11:25:59.001Z</time></trkpt><trkpt lat="44.8364167" lon="9.3263033"><ele>625.5</ele><time>2026-04-11T11:26:00.001Z</time></trkpt><trkpt lat="44.8364633" lon="9.3264567"><ele>623.0</ele><time>2026-04-11T11:26:01.001Z</time></trkpt><trkpt lat="44.8365083" lon="9.3266083"><ele>620.5</ele><time>2026-04-11T11:26:02.003Z</time></trkpt><trkpt lat="44.8365517" lon="9.326755"><ele>618.0</ele><time>2026-04-11T11:26:03.002Z</time></trkpt><trkpt lat="44.8365933" lon="9.3268917"><ele>618.0</ele><time>2026-04-11T11:26:04.001Z</time></trkpt><trkpt lat="44.8366333" lon="9.3270217"><ele>618.0</ele><time>2026-04-11T11:26:05.002Z</time></trkpt><trkpt lat="44.83667" lon="9.327145"><ele>618.0</ele><time>2026-04-11T11:26:06.001Z</time></trkpt><trkpt lat="44.836695" lon="9.3272633"><ele>618.0</ele><time>2026-04-11T11:26:07.002Z</time></trkpt><trkpt lat="44.8367017" lon="9.3273783"><ele>618.0</ele><time>2026-04-11T11:26:08.001Z</time></trkpt><trkpt lat="44.83669" lon="9.3274933"><ele>618.0</ele><time>2026-04-11T11:26:09.001Z</time></trkpt><trkpt lat="44.836675" lon="9.327605"><ele>616.5</ele><time>2026-04-11T11:26:10.001Z</time></trkpt><trkpt lat="44.8366633" lon="9.3277267"><ele>615.0</ele><time>2026-04-11T11:26:11.001Z</time></trkpt><trkpt lat="44.836655" lon="9.3278533"><ele>613.5</ele><time>2026-04-11T11:26:12.001Z</time></trkpt><trkpt lat="44.83665" lon="9.32798"><ele>612.0</ele><time>2026-04-11T11:26:13.001Z</time></trkpt><trkpt lat="44.836645" lon="9.328095"><ele>610.5</ele><time>2026-04-11T11:26:14.001Z</time></trkpt><trkpt lat="44.8366317" lon="9.3281883"><ele>609.0</ele><time>2026-04-11T11:26:15.002Z</time></trkpt><trkpt lat="44.8365483" lon="9.3282983"><ele>607.8</ele><time>2026-04-11T11:26:17.001Z</time></trkpt><trkpt lat="44.8364633" lon="9.3284"><ele>606.5999999999999</ele><time>2026-04-11T11:26:19.001Z</time></trkpt><trkpt lat="44.8364417" lon="9.328495"><ele>605.4</ele><time>2026-04-11T11:26:20.002Z</time></trkpt><trkpt lat="44.8364567" lon="9.3286367"><ele>604.1999999999999</ele><time>2026-04-11T11:26:21.004Z</time></trkpt><trkpt lat="44.8364683" lon="9.32879"><ele>603.0</ele><time>2026-04-11T11:26:22.003Z</time></trkpt><trkpt lat="44.836465" lon="9.3289617"><ele>602.0</ele><time>2026-04-11T11:26:23.001Z</time></trkpt><trkpt lat="44.8364517" lon="9.3291317"><ele>601.0</ele><time>2026-04-11T11:26:24.002Z</time></trkpt><trkpt lat="44.8364317" lon="9.3292883"><ele>600.0</ele><time>2026-04-11T11:26:25.002Z</time></trkpt><trkpt lat="44.8364067" lon="9.3294217"><ele>599.0</ele><time>2026-04-11T11:26:26.001Z</time></trkpt><trkpt lat="44.8363783" lon="9.32953"><ele>598.0</ele><time>2026-04-11T11:26:27.003Z</time></trkpt><trkpt lat="44.8363467" lon="9.3296183"><ele>598.0</ele><time>2026-04-11T11:26:28.001Z</time></trkpt><trkpt lat="44.836275" lon="9.3297117"><ele>598.0</ele><time>2026-04-11T11:26:30.001Z</time></trkpt><trkpt lat="44.8361583" lon="9.3296817"><ele>598.0</ele><time>2026-04-11T11:26:32.001Z</time></trkpt><trkpt lat="44.836085" lon="9.3296567"><ele>598.0</ele><time>2026-04-11T11:26:33.001Z</time></trkpt><trkpt lat="44.83601" lon="9.3296583"><ele>598.0</ele><time>2026-04-11T11:26:34.001Z</time></trkpt><trkpt lat="44.8358983" lon="9.32976"><ele>596.6666666666667</ele><time>2026-04-11T11:26:36.001Z</time></trkpt><trkpt lat="44.8358433" lon="9.3298433"><ele>595.3333333333334</ele><time>2026-04-11T11:26:37.001Z</time></trkpt><trkpt lat="44.8357933" lon="9.3299333"><ele>594.0</ele><time>2026-04-11T11:26:38.001Z</time></trkpt><trkpt lat="44.835745" lon="9.3300033"><ele>592.6666666666666</ele><time>2026-04-11T11:26:39.001Z</time></trkpt><trkpt lat="44.8356483" lon="9.33004"><ele>591.3333333333333</ele><time>2026-04-11T11:26:41.001Z</time></trkpt><trkpt lat="44.8355817" lon="9.3300283"><ele>590.0</ele><time>2026-04-11T11:26:43.001Z</time></trkpt><trkpt lat="44.8355117" lon="9.33"><ele>590.0</ele><time>2026-04-11T11:26:46.001Z</time></trkpt><trkpt lat="44.835455" lon="9.3300483"><ele>590.0</ele><time>2026-04-11T11:28:46Z</time></trkpt><trkpt lat="44.8354333" lon="9.3301633"><ele>590.0</ele><time>2026-04-11T11:28:49.001Z</time></trkpt><trkpt lat="44.83541" lon="9.3302667"><ele>590.0</ele><time>2026-04-11T11:28:52.001Z</time></trkpt><trkpt lat="44.8354467" lon="9.3303467"><ele>590.0</ele><time>2026-04-11T11:28:54.002Z</time></trkpt><trkpt lat="44.8355317" lon="9.3303967"><ele>590.0</ele><time>2026-04-11T11:28:56.001Z</time></trkpt><trkpt lat="44.8356233" lon="9.3304583"><ele>590.0</ele><time>2026-04-11T11:28:58.001Z</time></trkpt><trkpt lat="44.8356783" lon="9.33052"><ele>590.0</ele><time>2026-04-11T11:29:00.001Z</time></trkpt><trkpt lat="44.8357333" lon="9.3306083"><ele>590.0</ele><time>2026-04-11T11:29:03.001Z</time></trkpt><trkpt lat="44.8357483" lon="9.3307517"><ele>590.0</ele><time>2026-04-11T11:29:08.002Z</time></trkpt><trkpt lat="44.8357333" lon="9.33087"><ele>590.0</ele><time>2026-04-11T11:29:10.001Z</time></trkpt><trkpt lat="44.8356583" lon="9.3309817"><ele>590.1428571428572</ele><time>2026-04-11T11:29:12.001Z</time></trkpt><trkpt lat="44.8355967" lon="9.331025"><ele>590.2857142857143</ele><time>2026-04-11T11:29:13.001Z</time></trkpt><trkpt lat="44.83553" lon="9.3310567"><ele>590.4285714285714</ele><time>2026-04-11T11:29:14.002Z</time></trkpt><trkpt lat="44.8354633" lon="9.3310817"><ele>590.5714285714287</ele><time>2026-04-11T11:29:15.002Z</time></trkpt><trkpt lat="44.8354" lon="9.331085"><ele>590.7142857142858</ele><time>2026-04-11T11:29:16.002Z</time></trkpt><trkpt lat="44.835295" lon="9.33108"><ele>590.8571428571429</ele><time>2026-04-11T11:29:18.001Z</time></trkpt><trkpt lat="44.8352333" lon="9.331105"><ele>591.0</ele><time>2026-04-11T11:29:20.001Z</time></trkpt><trkpt lat="44.8352217" lon="9.3312317"><ele>591.0</ele><time>2026-04-11T11:29:22Z</time></trkpt><trkpt lat="44.8352167" lon="9.3313717"><ele>591.0</ele><time>2026-04-11T11:29:24.002Z</time></trkpt><trkpt lat="44.8351783" lon="9.3314917"><ele>591.0</ele><time>2026-04-11T11:29:26Z</time></trkpt><trkpt lat="44.8350967" lon="9.3315833"><ele>591.0</ele><time>2026-04-11T11:29:28.002Z</time></trkpt><trkpt lat="44.83504" lon="9.331625"><ele>591.0</ele><time>2026-04-11T11:29:29.001Z</time></trkpt><trkpt lat="44.8349817" lon="9.3316617"><ele>591.0</ele><time>2026-04-11T11:29:30.002Z</time></trkpt><trkpt lat="44.8348783" lon="9.331705"><ele>595.0</ele><time>2026-04-11T11:29:32.002Z</time></trkpt><trkpt lat="44.8348017" lon="9.331735"><ele>599.0</ele><time>2026-04-11T11:29:35.001Z</time></trkpt><trkpt lat="44.8347117" lon="9.33177"><ele>603.0</ele><time>2026-04-11T11:29:37.001Z</time></trkpt><trkpt lat="44.83465" lon="9.3317883"><ele>607.0</ele><time>2026-04-11T11:29:38.001Z</time></trkpt><trkpt lat="44.8345817" lon="9.3318"><ele>611.0</ele><time>2026-04-11T11:29:39.002Z</time></trkpt><trkpt lat="44.8345167" lon="9.3318083"><ele>615.0</ele><time>2026-04-11T11:29:40.002Z</time></trkpt><trkpt lat="44.834395" lon="9.331845"><ele>620.2</ele><time>2026-04-11T11:29:42.001Z</time></trkpt><trkpt lat="44.8342817" lon="9.33188"><ele>625.4</ele><time>2026-04-11T11:29:44.001Z</time></trkpt><trkpt lat="44.8342183" lon="9.331945"><ele>630.5999999999999</ele><time>2026-04-11T11:29:46.001Z</time></trkpt><trkpt lat="44.8342233" lon="9.3320883"><ele>635.8</ele><time>2026-04-11T11:29:48.002Z</time></trkpt><trkpt lat="44.8342033" lon="9.3322233"><ele>641.0</ele><time>2026-04-11T11:29:50.003Z</time></trkpt><trkpt lat="44.8341533" lon="9.3323267"><ele>642.8</ele><time>2026-04-11T11:29:52.001Z</time></trkpt><trkpt lat="44.8341167" lon="9.33243"><ele>644.5999999999999</ele><time>2026-04-11T11:29:55.001Z</time></trkpt><trkpt lat="44.8340583" lon="9.33249"><ele>646.4</ele><time>2026-04-11T11:29:57.001Z</time></trkpt><trkpt lat="44.833975" lon="9.33253"><ele>648.2</ele><time>2026-04-11T11:29:59.001Z</time></trkpt><trkpt lat="44.83386" lon="9.332555"><ele>650.0</ele><time>2026-04-11T11:30:01.001Z</time></trkpt><trkpt lat="44.833765" lon="9.332585"><ele>650.0</ele><time>2026-04-11T11:30:03.002Z</time></trkpt><trkpt lat="44.8336783" lon="9.3325733"><ele>650.0</ele><time>2026-04-11T11:30:06.002Z</time></trkpt><trkpt lat="44.8336117" lon="9.332565"><ele>650.0</ele><time>2026-04-11T11:30:08.001Z</time></trkpt><trkpt lat="44.8335483" lon="9.33262"><ele>650.0</ele><time>2026-04-11T11:30:11.002Z</time></trkpt><trkpt lat="44.83347" lon="9.3327167"><ele>650.0</ele><time>2026-04-11T11:30:13Z</time></trkpt><trkpt lat="44.83337" lon="9.3328267"><ele>654.5</ele><time>2026-04-11T11:30:15.001Z</time></trkpt><trkpt lat="44.8332616" lon="9.3329331"><ele>659.0</ele><time>2026-04-11T11:30:17.001Z</time></trkpt><trkpt lat="44.8332056" lon="9.3329924"><ele>663.5</ele><time>2026-04-11T11:30:18.001Z</time></trkpt><trkpt lat="44.8331542" lon="9.3330543"><ele>668.0</ele><time>2026-04-11T11:30:19.002Z</time></trkpt><trkpt lat="44.8331021" lon="9.3331133"><ele>672.5</ele><time>2026-04-11T11:30:20.001Z</time></trkpt><trkpt lat="44.8330154" lon="9.3331904"><ele>677.0</ele><time>2026-04-11T11:30:22.001Z</time></trkpt><trkpt lat="44.8329181" lon="9.3331999"><ele>677.0</ele><time>2026-04-11T11:30:24.001Z</time></trkpt><trkpt lat="44.8328486" lon="9.333154"><ele>677.0</ele><time>2026-04-11T11:30:26.002Z</time></trkpt><trkpt lat="44.8327905" lon="9.3330823"><ele>677.0</ele><time>2026-04-11T11:30:28.002Z</time></trkpt><trkpt lat="44.8327321" lon="9.3329862"><ele>677.0</ele><time>2026-04-11T11:30:30.001Z</time></trkpt><trkpt lat="44.8326778" lon="9.3329016"><ele>677.0</ele><time>2026-04-11T11:30:32.002Z</time></trkpt><trkpt lat="44.8326303" lon="9.3328419"><ele>677.0</ele><time>2026-04-11T11:30:33.979Z</time></trkpt><trkpt lat="44.8325998" lon="9.3327586"><ele>681.3333333333333</ele><time>2026-04-11T11:30:37.018Z</time></trkpt><trkpt lat="44.8325488" lon="9.3326909"><ele>685.6666666666666</ele><time>2026-04-11T11:30:40.033Z</time></trkpt><trkpt lat="44.8324603" lon="9.3326312"><ele>690.0</ele><time>2026-04-11T11:30:43.049Z</time></trkpt><trkpt lat="44.8323929" lon="9.3326305"><ele>694.3333333333334</ele><time>2026-04-11T11:30:45.06Z</time></trkpt><trkpt lat="44.832325" lon="9.3326588"><ele>698.6666666666667</ele><time>2026-04-11T11:30:47.001Z</time></trkpt><trkpt lat="44.8322393" lon="9.3326529"><ele>703.0</ele><time>2026-04-11T11:30:49.082Z</time></trkpt><trkpt lat="44.8321584" lon="9.3327222"><ele>703.0</ele><time>2026-04-11T11:30:51.001Z</time></trkpt><trkpt lat="44.832096" lon="9.3327825"><ele>703.0</ele><time>2026-04-11T11:30:53Z</time></trkpt><trkpt lat="44.8320508" lon="9.3328622"><ele>703.0</ele><time>2026-04-11T11:30:55.039Z</time></trkpt><trkpt lat="44.8320169" lon="9.3329384"><ele>703.0</ele><time>2026-04-11T11:30:57.078Z</time></trkpt><trkpt lat="44.8319617" lon="9.33303"><ele>703.0</ele><time>2026-04-11T11:30:59.001Z</time></trkpt><trkpt lat="44.8319617" lon="9.333125"><ele>703.0</ele><time>2026-04-11T11:31:01.002Z</time></trkpt><trkpt lat="44.8319533" lon="9.333245"><ele>704.2</ele><time>2026-04-11T11:31:03.002Z</time></trkpt><trkpt lat="44.83193" lon="9.3333417"><ele>705.4</ele><time>2026-04-11T11:31:05.002Z</time></trkpt><trkpt lat="44.83185" lon="9.3334083"><ele>706.6</ele><time>2026-04-11T11:31:08.001Z</time></trkpt><trkpt lat="44.8317583" lon="9.3334633"><ele>707.8000000000001</ele><time>2026-04-11T11:31:10.001Z</time></trkpt><trkpt lat="44.8316967" lon="9.333525"><ele>709.0</ele><time>2026-04-11T11:31:12.001Z</time></trkpt><trkpt lat="44.831625" lon="9.3336683"><ele>713.0</ele><time>2026-04-11T11:32:46.001Z</time></trkpt><trkpt lat="44.8315633" lon="9.3337317"><ele>717.0</ele><time>2026-04-11T11:32:48.001Z</time></trkpt><trkpt lat="44.8314833" lon="9.3337817"><ele>721.0</ele><time>2026-04-11T11:32:50.002Z</time></trkpt><trkpt lat="44.83138" lon="9.3337917"><ele>725.0</ele><time>2026-04-11T11:32:52.002Z</time></trkpt><trkpt lat="44.8312833" lon="9.33384"><ele>729.0</ele><time>2026-04-11T11:32:54.001Z</time></trkpt><trkpt lat="44.8312033" lon="9.333955"><ele>730.0</ele><time>2026-04-11T11:32:56.003Z</time></trkpt><trkpt lat="44.83115" lon="9.3340983"><ele>731.0</ele><time>2026-04-11T11:32:58.001Z</time></trkpt><trkpt lat="44.8311" lon="9.3342333"><ele>732.0</ele><time>2026-04-11T11:33:00.003Z</time></trkpt><trkpt lat="44.8310167" lon="9.334335"><ele>733.0</ele><time>2026-04-11T11:33:02.001Z</time></trkpt><trkpt lat="44.830915" lon="9.334365"><ele>734.0</ele><time>2026-04-11T11:33:04.001Z</time></trkpt><trkpt lat="44.83079" lon="9.3343333"><ele>738.8333333333333</ele><time>2026-04-11T11:33:06.001Z</time></trkpt><trkpt lat="44.8307167" lon="9.334315"><ele>743.6666666666666</ele><time>2026-04-11T11:33:07.002Z</time></trkpt><trkpt lat="44.83065" lon="9.3343183"><ele>748.5</ele><time>2026-04-11T11:33:08.001Z</time></trkpt><trkpt lat="44.8305817" lon="9.3343333"><ele>753.3333333333334</ele><time>2026-04-11T11:33:09.001Z</time></trkpt><trkpt lat="44.8304833" lon="9.3343617"><ele>758.1666666666667</ele><time>2026-04-11T11:33:11.001Z</time></trkpt><trkpt lat="44.8304217" lon="9.3344183"><ele>763.0</ele><time>2026-04-11T11:33:38.001Z</time></trkpt><trkpt lat="44.830355" lon="9.33438"><ele>763.0</ele><time>2026-04-11T11:33:40.001Z</time></trkpt><trkpt lat="44.830285" lon="9.334295"><ele>763.0</ele><time>2026-04-11T11:33:42.001Z</time></trkpt><trkpt lat="44.8302183" lon="9.3342517"><ele>763.0</ele><time>2026-04-11T11:33:43.001Z</time></trkpt><trkpt lat="44.83012" lon="9.33417"><ele>763.0</ele><time>2026-04-11T11:33:45.002Z</time></trkpt><trkpt lat="44.8300267" lon="9.3340817"><ele>763.0</ele><time>2026-04-11T11:33:47.001Z</time></trkpt><trkpt lat="44.8299667" lon="9.3340367"><ele>766.0</ele><time>2026-04-11T11:33:48.002Z</time></trkpt><trkpt lat="44.8298717" lon="9.333955"><ele>769.0</ele><time>2026-04-11T11:33:50.001Z</time></trkpt><trkpt lat="44.8297998" lon="9.3338508"><ele>772.0</ele><time>2026-04-11T11:33:52.002Z</time></trkpt><trkpt lat="44.8297654" lon="9.3337736"><ele>775.0</ele><time>2026-04-11T11:33:53.001Z</time></trkpt><trkpt lat="44.8297358" lon="9.3336867"><ele>777.9999999999999</ele><time>2026-04-11T11:33:54.001Z</time></trkpt><trkpt lat="44.8297055" lon="9.3336049"><ele>781.0</ele><time>2026-04-11T11:33:55.001Z</time></trkpt><trkpt lat="44.82963" lon="9.33348"><ele>780.9999999999999</ele><time>2026-04-11T11:33:57.003Z</time></trkpt><trkpt lat="44.8295221" lon="9.3334479"><ele>781.0</ele><time>2026-04-11T11:33:59.002Z</time></trkpt><trkpt lat="44.8294451" lon="9.3334713"><ele>781.0</ele><time>2026-04-11T11:34:00.001Z</time></trkpt><trkpt lat="44.8293594" lon="9.3334948"><ele>781.0</ele><time>2026-04-11T11:34:01.002Z</time></trkpt><trkpt lat="44.8292743" lon="9.3335167"><ele>780.9999999999999</ele><time>2026-04-11T11:34:02.002Z</time></trkpt><trkpt lat="44.8292072" lon="9.3335457"><ele>781.0</ele><time>2026-04-11T11:34:03.002Z</time></trkpt><trkpt lat="44.8291482" lon="9.3335797"><ele>785.4</ele><time>2026-04-11T11:34:04.002Z</time></trkpt><trkpt lat="44.8290618" lon="9.3336538"><ele>789.8</ele><time>2026-04-11T11:34:06.001Z</time></trkpt><trkpt lat="44.8289926" lon="9.3337241"><ele>794.1999999999999</ele><time>2026-04-11T11:34:08.003Z</time></trkpt><trkpt lat="44.8289135" lon="9.3337998"><ele>798.5999999999999</ele><time>2026-04-11T11:34:10.003Z</time></trkpt><trkpt lat="44.8287979" lon="9.3338283"><ele>803.0</ele><time>2026-04-11T11:34:12.001Z</time></trkpt><trkpt lat="44.8286763" lon="9.3338543"><ele>805.3333333333334</ele><time>2026-04-11T11:34:14.002Z</time></trkpt><trkpt lat="44.8285903" lon="9.3338897"><ele>807.6666666666667</ele><time>2026-04-11T11:34:16.001Z</time></trkpt><trkpt lat="44.8285229" lon="9.333911"><ele>810.0</ele><time>2026-04-11T11:34:18Z</time></trkpt><trkpt lat="44.828468" lon="9.333997"><ele>812.3333333333333</ele><time>2026-04-11T11:34:21.001Z</time></trkpt><trkpt lat="44.8284207" lon="9.3340709"><ele>814.6666666666666</ele><time>2026-04-11T11:34:24.001Z</time></trkpt><trkpt lat="44.8283668" lon="9.3341427"><ele>817.0</ele><time>2026-04-11T11:34:28.05Z</time></trkpt><trkpt lat="44.8284206" lon="9.3341926"><ele>817.0</ele><time>2026-04-11T11:34:30.025Z</time></trkpt><trkpt lat="44.8284985" lon="9.3342265"><ele>817.0</ele><time>2026-04-11T11:34:32.002Z</time></trkpt><trkpt lat="44.8285234" lon="9.3343638"><ele>817.0</ele><time>2026-04-11T11:34:34.081Z</time></trkpt><trkpt lat="44.8285053" lon="9.3345323"><ele>817.0</ele><time>2026-04-11T11:34:36.033Z</time></trkpt><trkpt lat="44.8284651" lon="9.3346282"><ele>817.0</ele><time>2026-04-11T11:34:38.034Z</time></trkpt><trkpt lat="44.8283758" lon="9.3346336"><ele>820.0</ele><time>2026-04-11T11:34:40.009Z</time></trkpt><trkpt lat="44.8282948" lon="9.3345958"><ele>823.0</ele><time>2026-04-11T11:34:42.032Z</time></trkpt><trkpt lat="44.8281834" lon="9.3346185"><ele>826.0</ele><time>2026-04-11T11:34:43.002Z</time></trkpt><trkpt lat="44.8280886" lon="9.3346593"><ele>829.0</ele><time>2026-04-11T11:34:45.069Z</time></trkpt><trkpt lat="44.8279978" lon="9.3347332"><ele>832.0</ele><time>2026-04-11T11:35:04.001Z</time></trkpt><trkpt lat="44.8279342" lon="9.3348318"><ele>835.8</ele><time>2026-04-11T11:35:06.002Z</time></trkpt><trkpt lat="44.8278852" lon="9.3349657"><ele>839.6</ele><time>2026-04-11T11:35:08.001Z</time></trkpt><trkpt lat="44.8278387" lon="9.3351273"><ele>843.4</ele><time>2026-04-11T11:35:10.001Z</time></trkpt><trkpt lat="44.8278162" lon="9.3352889"><ele>847.1999999999999</ele><time>2026-04-11T11:35:12.001Z</time></trkpt><trkpt lat="44.8278119" lon="9.335382"><ele>851.0</ele><time>2026-04-11T11:35:13.001Z</time></trkpt><trkpt lat="44.8277955" lon="9.3355408"><ele>851.5000000000001</ele><time>2026-04-11T11:35:15.002Z</time></trkpt><trkpt lat="44.8277351" lon="9.3356613"><ele>852.0</ele><time>2026-04-11T11:35:17.001Z</time></trkpt><trkpt lat="44.8276628" lon="9.3357303"><ele>852.5</ele><time>2026-04-11T11:35:19.001Z</time></trkpt><trkpt lat="44.8275978" lon="9.3357714"><ele>853.0</ele><time>2026-04-11T11:35:22.001Z</time></trkpt><trkpt lat="44.8275261" lon="9.335781"><ele>853.5000000000001</ele><time>2026-04-11T11:35:25.002Z</time></trkpt><trkpt lat="44.8274357" lon="9.3357987"><ele>854.0</ele><time>2026-04-11T11:35:27.002Z</time></trkpt><trkpt lat="44.8273303" lon="9.335817"><ele>857.5</ele><time>2026-04-11T11:35:29.001Z</time></trkpt><trkpt lat="44.8272226" lon="9.3358413"><ele>861.0</ele><time>2026-04-11T11:35:31.002Z</time></trkpt><trkpt lat="44.8271074" lon="9.335898"><ele>864.5</ele><time>2026-04-11T11:35:33.004Z</time></trkpt><trkpt lat="44.8269984" lon="9.3359394"><ele>868.0</ele><time>2026-04-11T11:35:35.002Z</time></trkpt><trkpt lat="44.8268821" lon="9.3359544"><ele>868.0</ele><time>2026-04-11T11:35:37.003Z</time></trkpt><trkpt lat="44.8268189" lon="9.3359522"><ele>868.0</ele><time>2026-04-11T11:35:38.001Z</time></trkpt><trkpt lat="44.8267415" lon="9.3359456"><ele>868.0</ele><time>2026-04-11T11:35:39.002Z</time></trkpt><trkpt lat="44.8266701" lon="9.3359327"><ele>868.0</ele><time>2026-04-11T11:35:40.002Z</time></trkpt><trkpt lat="44.8265966" lon="9.3359159"><ele>868.0</ele><time>2026-04-11T11:35:41.001Z</time></trkpt><trkpt lat="44.8265255" lon="9.3358957"><ele>868.0</ele><time>2026-04-11T11:35:42.001Z</time></trkpt><trkpt lat="44.8264526" lon="9.335878"><ele>868.0</ele><time>2026-04-11T11:35:43.001Z</time></trkpt><trkpt lat="44.8263767" lon="9.3358696"><ele>869.3333333333333</ele><time>2026-04-11T11:35:44.002Z</time></trkpt><trkpt lat="44.8262886" lon="9.335892"><ele>870.6666666666666</ele><time>2026-04-11T11:35:45.002Z</time></trkpt><trkpt lat="44.8261955" lon="9.3359155"><ele>872.0</ele><time>2026-04-11T11:35:46.002Z</time></trkpt><trkpt lat="44.8261044" lon="9.3359294"><ele>873.3333333333333</ele><time>2026-04-11T11:35:47.002Z</time></trkpt><trkpt lat="44.8260215" lon="9.3359467"><ele>874.6666666666666</ele><time>2026-04-11T11:35:48.002Z</time></trkpt><trkpt lat="44.8259535" lon="9.3359654"><ele>876.0</ele><time>2026-04-11T11:35:49.001Z</time></trkpt><trkpt lat="44.8258858" lon="9.3359911"><ele>877.0</ele><time>2026-04-11T11:35:50.002Z</time></trkpt><trkpt lat="44.8258269" lon="9.3360352"><ele>878.0</ele><time>2026-04-11T11:35:51.003Z</time></trkpt><trkpt lat="44.8257702" lon="9.3360992"><ele>879.0</ele><time>2026-04-11T11:35:52.002Z</time></trkpt><trkpt lat="44.825705" lon="9.3361726"><ele>880.0</ele><time>2026-04-11T11:35:53.001Z</time></trkpt><trkpt lat="44.8256345" lon="9.3362333"><ele>881.0</ele><time>2026-04-11T11:35:54.002Z</time></trkpt><trkpt lat="44.8255539" lon="9.3362885"><ele>882.0</ele><time>2026-04-11T11:35:55.003Z</time></trkpt><trkpt lat="44.8254606" lon="9.3363423"><ele>882.8333333333334</ele><time>2026-04-11T11:35:56.001Z</time></trkpt><trkpt lat="44.8253705" lon="9.3363943"><ele>883.6666666666667</ele><time>2026-04-11T11:35:57.003Z</time></trkpt><trkpt lat="44.8252815" lon="9.336454"><ele>884.5</ele><time>2026-04-11T11:35:58.001Z</time></trkpt><trkpt lat="44.8252117" lon="9.3365254"><ele>885.3333333333334</ele><time>2026-04-11T11:35:59.002Z</time></trkpt><trkpt lat="44.8251557" lon="9.336601"><ele>886.1666666666667</ele><time>2026-04-11T11:36:00.001Z</time></trkpt><trkpt lat="44.8250963" lon="9.3366724"><ele>887.0</ele><time>2026-04-11T11:36:01.001Z</time></trkpt><trkpt lat="44.8250395" lon="9.3367429"><ele>889.0</ele><time>2026-04-11T11:36:02.004Z</time></trkpt><trkpt lat="44.8249895" lon="9.3368215"><ele>891.0</ele><time>2026-04-11T11:36:03.002Z</time></trkpt><trkpt lat="44.8249368" lon="9.3369588"><ele>893.0</ele><time>2026-04-11T11:36:05.003Z</time></trkpt><trkpt lat="44.8249327" lon="9.3370486"><ele>895.0</ele><time>2026-04-11T11:36:06.003Z</time></trkpt><trkpt lat="44.8248838" lon="9.3371953"><ele>897.0</ele><time>2026-04-11T11:36:08.001Z</time></trkpt><trkpt lat="44.8248557" lon="9.3373223"><ele>899.5</ele><time>2026-04-11T11:36:10.001Z</time></trkpt><trkpt lat="44.8248334" lon="9.3374338"><ele>902.0</ele><time>2026-04-11T11:36:12.002Z</time></trkpt><trkpt lat="44.8248028" lon="9.337554"><ele>904.5</ele><time>2026-04-11T11:36:14.002Z</time></trkpt><trkpt lat="44.8248166" lon="9.3377121"><ele>907.0</ele><time>2026-04-11T11:36:16.003Z</time></trkpt><trkpt lat="44.8248425" lon="9.3377974"><ele>909.5</ele><time>2026-04-11T11:36:17.002Z</time></trkpt><trkpt lat="44.8248752" lon="9.3378803"><ele>912.0</ele><time>2026-04-11T11:36:18.001Z</time></trkpt><trkpt lat="44.824909" lon="9.3379655"><ele>912.0</ele><time>2026-04-11T11:36:19.003Z</time></trkpt><trkpt lat="44.8249381" lon="9.3380472"><ele>912.0</ele><time>2026-04-11T11:36:20.003Z</time></trkpt><trkpt lat="44.8249605" lon="9.3381307"><ele>912.0</ele><time>2026-04-11T11:36:21.002Z</time></trkpt><trkpt lat="44.8249914" lon="9.3382114"><ele>912.0</ele><time>2026-04-11T11:36:22.001Z</time></trkpt><trkpt lat="44.8250482" lon="9.3383686"><ele>912.0</ele><time>2026-04-11T11:36:24.001Z</time></trkpt><trkpt lat="44.8250711" lon="9.338464"><ele>912.0</ele><time>2026-04-11T11:36:25.002Z</time></trkpt><trkpt lat="44.8250867" lon="9.3385683"><ele>914.1666666666666</ele><time>2026-04-11T11:36:26.001Z</time></trkpt><trkpt lat="44.82509" lon="9.338685"><ele>916.3333333333333</ele><time>2026-04-11T11:36:27.002Z</time></trkpt><trkpt lat="44.8250783" lon="9.3388133"><ele>918.5</ele><time>2026-04-11T11:36:28.001Z</time></trkpt><trkpt lat="44.8250667" lon="9.33893"><ele>920.6666666666666</ele><time>2026-04-11T11:36:29.002Z</time></trkpt><trkpt lat="44.8250467" lon="9.339045"><ele>922.8333333333333</ele><time>2026-04-11T11:36:30.002Z</time></trkpt><trkpt lat="44.8250233" lon="9.3391433"><ele>925.0</ele><time>2026-04-11T11:36:31.001Z</time></trkpt><trkpt lat="44.8249917" lon="9.339235"><ele>926.0</ele><time>2026-04-11T11:36:32.001Z</time></trkpt><trkpt lat="44.824955" lon="9.3393183"><ele>927.0</ele><time>2026-04-11T11:36:33.002Z</time></trkpt><trkpt lat="44.8249083" lon="9.3394017"><ele>928.0</ele><time>2026-04-11T11:36:34.001Z</time></trkpt><trkpt lat="44.8248483" lon="9.339455"><ele>929.0</ele><time>2026-04-11T11:36:35.001Z</time></trkpt><trkpt lat="44.8247683" lon="9.339475"><ele>930.0</ele><time>2026-04-11T11:36:37.002Z</time></trkpt><trkpt lat="44.8247383" lon="9.3393867"><ele>931.0</ele><time>2026-04-11T11:36:39.003Z</time></trkpt><trkpt lat="44.824705" lon="9.3392867"><ele>932.0</ele><time>2026-04-11T11:36:41.001Z</time></trkpt><trkpt lat="44.8246367" lon="9.3391817"><ele>932.0</ele><time>2026-04-11T11:36:54.002Z</time></trkpt><trkpt lat="44.824575" lon="9.33909"><ele>932.0</ele><time>2026-04-11T11:36:56.001Z</time></trkpt><trkpt lat="44.8245217" lon="9.3390383"><ele>932.0</ele><time>2026-04-11T11:36:57.003Z</time></trkpt><trkpt lat="44.8244233" lon="9.3389717"><ele>932.0</ele><time>2026-04-11T11:36:59.002Z</time></trkpt><trkpt lat="44.8243333" lon="9.3391133"><ele>932.0</ele><time>2026-04-11T11:37:01.001Z</time></trkpt><trkpt lat="44.82429" lon="9.3392317"><ele>935.5</ele><time>2026-04-11T11:37:02.003Z</time></trkpt><trkpt lat="44.8242367" lon="9.3393483"><ele>939.0</ele><time>2026-04-11T11:37:03.002Z</time></trkpt><trkpt lat="44.8241733" lon="9.3394783"><ele>942.5</ele><time>2026-04-11T11:37:04.002Z</time></trkpt><trkpt lat="44.8240967" lon="9.339615"><ele>946.0</ele><time>2026-04-11T11:37:05.002Z</time></trkpt><trkpt lat="44.824025" lon="9.33975"><ele>946.5</ele><time>2026-04-11T11:37:06.002Z</time></trkpt><trkpt lat="44.8239617" lon="9.3399"><ele>947.0</ele><time>2026-04-11T11:37:07.001Z</time></trkpt><trkpt lat="44.8239" lon="9.3400533"><ele>947.5</ele><time>2026-04-11T11:37:08.003Z</time></trkpt><trkpt lat="44.823855" lon="9.34018"><ele>948.0</ele><time>2026-04-11T11:37:09.002Z</time></trkpt><trkpt lat="44.8237783" lon="9.3403017"><ele>948.0</ele><time>2026-04-11T11:37:10.001Z</time></trkpt><trkpt lat="44.823695" lon="9.3404083"><ele>948.0</ele><time>2026-04-11T11:37:11.002Z</time></trkpt><trkpt lat="44.8236317" lon="9.34048"><ele>948.0</ele><time>2026-04-11T11:37:12.004Z</time></trkpt><trkpt lat="44.8235683" lon="9.34057"><ele>948.0</ele><time>2026-04-11T11:37:13.001Z</time></trkpt><trkpt lat="44.8235117" lon="9.3406633"><ele>948.0</ele><time>2026-04-11T11:37:14.002Z</time></trkpt><trkpt lat="44.823465" lon="9.3407567"><ele>947.2</ele><time>2026-04-11T11:37:15.002Z</time></trkpt><trkpt lat="44.8234233" lon="9.3408667"><ele>946.4</ele><time>2026-04-11T11:37:16.001Z</time></trkpt><trkpt lat="44.82338" lon="9.3409917"><ele>945.6000000000001</ele><time>2026-04-11T11:37:17.002Z</time></trkpt><trkpt lat="44.8233267" lon="9.3411183"><ele>944.8000000000001</ele><time>2026-04-11T11:37:18.002Z</time></trkpt><trkpt lat="44.8232667" lon="9.341235"><ele>944.0</ele><time>2026-04-11T11:37:19.001Z</time></trkpt><trkpt lat="44.823205" lon="9.34134"><ele>943.5000000000001</ele><time>2026-04-11T11:37:20.002Z</time></trkpt><trkpt lat="44.823155" lon="9.341415"><ele>943.0</ele><time>2026-04-11T11:37:21.002Z</time></trkpt><trkpt lat="44.823085" lon="9.3415233"><ele>942.5</ele><time>2026-04-11T11:37:23.002Z</time></trkpt><trkpt lat="44.8230417" lon="9.3415917"><ele>942.0</ele><time>2026-04-11T11:37:26.002Z</time></trkpt><trkpt lat="44.8230267" lon="9.3416867"><ele>941.5000000000001</ele><time>2026-04-11T11:37:41.003Z</time></trkpt><trkpt lat="44.8230517" lon="9.3417817"><ele>941.0</ele><time>2026-04-11T11:37:43.002Z</time></trkpt><trkpt lat="44.8231" lon="9.341915"><ele>941.0</ele><time>2026-04-11T11:37:45.002Z</time></trkpt><trkpt lat="44.8231183" lon="9.3420483"><ele>940.9999999999999</ele><time>2026-04-11T11:37:47.002Z</time></trkpt><trkpt lat="44.8231217" lon="9.3421717"><ele>940.9999999999999</ele><time>2026-04-11T11:37:49.001Z</time></trkpt><trkpt lat="44.8231533" lon="9.3423067"><ele>941.0</ele><time>2026-04-11T11:37:51.003Z</time></trkpt><trkpt lat="44.8231633" lon="9.34247"><ele>941.0</ele><time>2026-04-11T11:37:53.002Z</time></trkpt><trkpt lat="44.8231583" lon="9.3426583"><ele>940.8333333333334</ele><time>2026-04-11T11:37:55.001Z</time></trkpt><trkpt lat="44.823155" lon="9.342765"><ele>940.6666666666667</ele><time>2026-04-11T11:37:56.001Z</time></trkpt><trkpt lat="44.82316" lon="9.3428767"><ele>940.5</ele><time>2026-04-11T11:37:57.002Z</time></trkpt><trkpt lat="44.8231633" lon="9.3429883"><ele>940.3333333333333</ele><time>2026-04-11T11:37:58.001Z</time></trkpt><trkpt lat="44.82316" lon="9.3431083"><ele>940.1666666666666</ele><time>2026-04-11T11:37:59.001Z</time></trkpt><trkpt lat="44.823145" lon="9.3432333"><ele>940.0</ele><time>2026-04-11T11:38:00.002Z</time></trkpt><trkpt lat="44.8231267" lon="9.3433433"><ele>940.6666666666666</ele><time>2026-04-11T11:38:01.001Z</time></trkpt><trkpt lat="44.8230667" lon="9.3434967"><ele>941.3333333333333</ele><time>2026-04-11T11:38:03.002Z</time></trkpt><trkpt lat="44.823015" lon="9.3435483"><ele>942.0</ele><time>2026-04-11T11:38:04.002Z</time></trkpt><trkpt lat="44.822945" lon="9.3435833"><ele>942.6666666666667</ele><time>2026-04-11T11:38:05.001Z</time></trkpt><trkpt lat="44.822875" lon="9.3435967"><ele>943.3333333333334</ele><time>2026-04-11T11:38:06.001Z</time></trkpt><trkpt lat="44.8228033" lon="9.3436167"><ele>944.0</ele><time>2026-04-11T11:38:07.001Z</time></trkpt><trkpt lat="44.8227417" lon="9.3436583"><ele>944.0000000000001</ele><time>2026-04-11T11:38:08.001Z</time></trkpt><trkpt lat="44.8226833" lon="9.3437667"><ele>944.0</ele><time>2026-04-11T11:38:10.001Z</time></trkpt><trkpt lat="44.82267" lon="9.3438917"><ele>944.0</ele><time>2026-04-11T11:38:12.001Z</time></trkpt><trkpt lat="44.8226767" lon="9.34399"><ele>944.0</ele><time>2026-04-11T11:38:14.001Z</time></trkpt><trkpt lat="44.822735" lon="9.3440983"><ele>944.0000000000001</ele><time>2026-04-11T11:38:17.001Z</time></trkpt><trkpt lat="44.8227267" lon="9.344205"><ele>944.0</ele><time>2026-04-11T11:38:19Z</time></trkpt><trkpt lat="44.8226133" lon="9.344325"><ele>948.1666666666667</ele><time>2026-04-11T11:38:21.002Z</time></trkpt><trkpt lat="44.8225467" lon="9.34436"><ele>952.3333333333334</ele><time>2026-04-11T11:38:22.001Z</time></trkpt><trkpt lat="44.8224733" lon="9.3443733"><ele>956.5</ele><time>2026-04-11T11:38:23.001Z</time></trkpt><trkpt lat="44.8223933" lon="9.3443617"><ele>960.6666666666667</ele><time>2026-04-11T11:38:24.002Z</time></trkpt><trkpt lat="44.82231" lon="9.344305"><ele>964.8333333333334</ele><time>2026-04-11T11:38:25.002Z</time></trkpt><trkpt lat="44.8222433" lon="9.3442483"><ele>969.0</ele><time>2026-04-11T11:38:26.002Z</time></trkpt><trkpt lat="44.822135" lon="9.344205"><ele>969.0</ele><time>2026-04-11T11:38:28.001Z</time></trkpt><trkpt lat="44.8220617" lon="9.3442317"><ele>969.0</ele><time>2026-04-11T11:38:29.002Z</time></trkpt><trkpt lat="44.8219983" lon="9.3442633"><ele>969.0</ele><time>2026-04-11T11:38:30.002Z</time></trkpt><trkpt lat="44.8219333" lon="9.344315"><ele>969.0</ele><time>2026-04-11T11:38:31.001Z</time></trkpt><trkpt lat="44.8218717" lon="9.34439"><ele>969.0</ele><time>2026-04-11T11:38:32.003Z</time></trkpt><trkpt lat="44.82182" lon="9.34447"><ele>969.0</ele><time>2026-04-11T11:38:33.001Z</time></trkpt><trkpt lat="44.8217767" lon="9.3445617"><ele>970.4000000000001</ele><time>2026-04-11T11:38:34.001Z</time></trkpt><trkpt lat="44.8217467" lon="9.3447067"><ele>971.8000000000001</ele><time>2026-04-11T11:38:36.002Z</time></trkpt><trkpt lat="44.8217467" lon="9.3447983"><ele>973.1999999999999</ele><time>2026-04-11T11:38:39.003Z</time></trkpt><trkpt lat="44.8217483" lon="9.344925"><ele>974.5999999999999</ele><time>2026-04-11T11:38:53.002Z</time></trkpt><trkpt lat="44.8217133" lon="9.3451083"><ele>976.0</ele><time>2026-04-11T11:38:55.001Z</time></trkpt><trkpt lat="44.8216917" lon="9.3452083"><ele>976.1999999999999</ele><time>2026-04-11T11:38:56.001Z</time></trkpt><trkpt lat="44.821675" lon="9.3452983"><ele>976.3999999999999</ele><time>2026-04-11T11:38:57.002Z</time></trkpt><trkpt lat="44.82168" lon="9.3454383"><ele>976.6</ele><time>2026-04-11T11:38:59.001Z</time></trkpt><trkpt lat="44.8216883" lon="9.3456183"><ele>976.8</ele><time>2026-04-11T11:39:30.001Z</time></trkpt><trkpt lat="44.8217767" lon="9.3457233"><ele>977.0</ele><time>2026-04-11T11:39:32.002Z</time></trkpt><trkpt lat="44.821835" lon="9.34577"><ele>975.8</ele><time>2026-04-11T11:39:33.002Z</time></trkpt><trkpt lat="44.8219133" lon="9.3458167"><ele>974.6</ele><time>2026-04-11T11:39:34.001Z</time></trkpt><trkpt lat="44.8220133" lon="9.345855"><ele>973.3999999999999</ele><time>2026-04-11T11:39:35.002Z</time></trkpt><trkpt lat="44.8221183" lon="9.3458917"><ele>972.1999999999999</ele><time>2026-04-11T11:39:36.002Z</time></trkpt><trkpt lat="44.822215" lon="9.3459"><ele>971.0</ele><time>2026-04-11T11:39:37.002Z</time></trkpt><trkpt lat="44.8223167" lon="9.34589"><ele>971.0</ele><time>2026-04-11T11:39:38.001Z</time></trkpt><trkpt lat="44.82241" lon="9.3458717"><ele>970.9999999999999</ele><time>2026-04-11T11:39:39.003Z</time></trkpt><trkpt lat="44.8225067" lon="9.3458617"><ele>970.9999999999999</ele><time>2026-04-11T11:39:40.002Z</time></trkpt><trkpt lat="44.8226017" lon="9.3458733"><ele>971.0</ele><time>2026-04-11T11:39:41.002Z</time></trkpt><trkpt lat="44.82269" lon="9.34591"><ele>971.0</ele><time>2026-04-11T11:39:42.002Z</time></trkpt><trkpt lat="44.8227717" lon="9.3459633"><ele>968.5000000000001</ele><time>2026-04-11T11:39:43Z</time></trkpt><trkpt lat="44.8228483" lon="9.3460283"><ele>966.0</ele><time>2026-04-11T11:39:44.003Z</time></trkpt><trkpt lat="44.8229067" lon="9.3461167"><ele>963.5</ele><time>2026-04-11T11:39:45.002Z</time></trkpt><trkpt lat="44.8229483" lon="9.346205"><ele>961.0</ele><time>2026-04-11T11:39:46.002Z</time></trkpt><trkpt lat="44.8229883" lon="9.3462767"><ele>958.5000000000001</ele><time>2026-04-11T11:39:47.001Z</time></trkpt><trkpt lat="44.8230883" lon="9.34635"><ele>956.0</ele><time>2026-04-11T11:39:49.001Z</time></trkpt><trkpt lat="44.823165" lon="9.346365"><ele>956.0000000000001</ele><time>2026-04-11T11:39:50.003Z</time></trkpt><trkpt lat="44.8232433" lon="9.346375"><ele>956.0</ele><time>2026-04-11T11:39:51.002Z</time></trkpt><trkpt lat="44.8233267" lon="9.3463817"><ele>956.0</ele><time>2026-04-11T11:39:52.001Z</time></trkpt><trkpt lat="44.8234083" lon="9.3463717"><ele>956.0</ele><time>2026-04-11T11:39:53.004Z</time></trkpt><trkpt lat="44.82348" lon="9.3463317"><ele>956.0000000000001</ele><time>2026-04-11T11:39:54.002Z</time></trkpt><trkpt lat="44.8235433" lon="9.3462717"><ele>956.0</ele><time>2026-04-11T11:39:55.001Z</time></trkpt><trkpt lat="44.8236117" lon="9.346225"><ele>954.0000000000001</ele><time>2026-04-11T11:39:56.003Z</time></trkpt><trkpt lat="44.8236683" lon="9.3461767"><ele>952.0</ele><time>2026-04-11T11:39:57.002Z</time></trkpt><trkpt lat="44.8237617" lon="9.3460633"><ele>950.0</ele><time>2026-04-11T11:39:59.003Z</time></trkpt><trkpt lat="44.8238317" lon="9.3459683"><ele>948.0</ele><time>2026-04-11T11:40:01.001Z</time></trkpt><trkpt lat="44.8238767" lon="9.3458683"><ele>946.0000000000001</ele><time>2026-04-11T11:40:03.001Z</time></trkpt><trkpt lat="44.8238683" lon="9.3457667"><ele>944.0</ele><time>2026-04-11T11:40:05.002Z</time></trkpt><trkpt lat="44.8238967" lon="9.3456433"><ele>944.0000000000001</ele><time>2026-04-11T11:40:08.002Z</time></trkpt><trkpt lat="44.8239517" lon="9.3455783"><ele>944.0</ele><time>2026-04-11T11:40:10.002Z</time></trkpt><trkpt lat="44.8240367" lon="9.3455267"><ele>944.0</ele><time>2026-04-11T11:40:12.001Z</time></trkpt><trkpt lat="44.8240933" lon="9.3454283"><ele>944.0</ele><time>2026-04-11T11:40:14.002Z</time></trkpt><trkpt lat="44.8241333" lon="9.34532"><ele>944.0000000000001</ele><time>2026-04-11T11:40:16.003Z</time></trkpt><trkpt lat="44.8241883" lon="9.3452367"><ele>944.0</ele><time>2026-04-11T11:40:18.001Z</time></trkpt><trkpt lat="44.82425" lon="9.3451283"><ele>938.3333333333334</ele><time>2026-04-11T11:40:20.004Z</time></trkpt><trkpt lat="44.8243233" lon="9.3450117"><ele>932.6666666666667</ele><time>2026-04-11T11:40:22.001Z</time></trkpt><trkpt lat="44.8243717" lon="9.3449167"><ele>927.0</ele><time>2026-04-11T11:40:24.002Z</time></trkpt><trkpt lat="44.82439" lon="9.3448267"><ele>921.3333333333333</ele><time>2026-04-11T11:40:26.002Z</time></trkpt><trkpt lat="44.824415" lon="9.3447433"><ele>915.6666666666666</ele><time>2026-04-11T11:40:28.002Z</time></trkpt><trkpt lat="44.8245217" lon="9.3446583"><ele>910.0</ele><time>2026-04-11T11:40:41.001Z</time></trkpt><trkpt lat="44.8245883" lon="9.3446717"><ele>909.9999999999999</ele><time>2026-04-11T11:40:43.001Z</time></trkpt><trkpt lat="44.8246717" lon="9.3446933"><ele>910.0</ele><time>2026-04-11T11:40:45.001Z</time></trkpt><trkpt lat="44.8247533" lon="9.34472"><ele>910.0</ele><time>2026-04-11T11:40:47.001Z</time></trkpt><trkpt lat="44.82483" lon="9.3447367"><ele>910.0</ele><time>2026-04-11T11:40:49.003Z</time></trkpt><trkpt lat="44.8249083" lon="9.3446583"><ele>909.9999999999999</ele><time>2026-04-11T11:40:52.001Z</time></trkpt><trkpt lat="44.824985" lon="9.344575"><ele>910.0</ele><time>2026-04-11T11:40:54.003Z</time></trkpt><trkpt lat="44.8250633" lon="9.344485"><ele>909.0</ele><time>2026-04-11T11:40:56.001Z</time></trkpt><trkpt lat="44.8251283" lon="9.344365"><ele>908.0</ele><time>2026-04-11T11:40:58.001Z</time></trkpt><trkpt lat="44.8252083" lon="9.34427"><ele>907.0</ele><time>2026-04-11T11:41:00Z</time></trkpt><trkpt lat="44.8253017" lon="9.3442083"><ele>906.0</ele><time>2026-04-11T11:41:02.001Z</time></trkpt><trkpt lat="44.8253817" lon="9.3441533"><ele>905.0</ele><time>2026-04-11T11:41:04.001Z</time></trkpt><trkpt lat="44.825475" lon="9.3440833"><ele>901.2</ele><time>2026-04-11T11:41:06.001Z</time></trkpt><trkpt lat="44.82558" lon="9.3440333"><ele>897.4</ele><time>2026-04-11T11:41:08.001Z</time></trkpt><trkpt lat="44.8256633" lon="9.3440283"><ele>893.5999999999999</ele><time>2026-04-11T11:41:10.001Z</time></trkpt><trkpt lat="44.8257317" lon="9.3440983"><ele>889.8</ele><time>2026-04-11T11:41:12.002Z</time></trkpt><trkpt lat="44.8257567" lon="9.344205"><ele>886.0</ele><time>2026-04-11T11:41:14.002Z</time></trkpt><trkpt lat="44.82576" lon="9.3443433"><ele>886.0</ele><time>2026-04-11T11:41:16.002Z</time></trkpt><trkpt lat="44.825755" lon="9.3444917"><ele>885.9999999999999</ele><time>2026-04-11T11:41:18.002Z</time></trkpt><trkpt lat="44.8257633" lon="9.34465"><ele>885.9999999999999</ele><time>2026-04-11T11:41:20.001Z</time></trkpt><trkpt lat="44.8257867" lon="9.3447883"><ele>886.0</ele><time>2026-04-11T11:41:22.001Z</time></trkpt><trkpt lat="44.8257617" lon="9.3448983"><ele>886.0</ele><time>2026-04-11T11:41:24.003Z</time></trkpt><trkpt lat="44.82574" lon="9.3450267"><ele>885.0</ele><time>2026-04-11T11:41:26.002Z</time></trkpt><trkpt lat="44.8257267" lon="9.3451167"><ele>884.0</ele><time>2026-04-11T11:41:27.003Z</time></trkpt><trkpt lat="44.8256983" lon="9.3452133"><ele>883.0</ele><time>2026-04-11T11:41:28.001Z</time></trkpt><trkpt lat="44.8256767" lon="9.3453133"><ele>882.0</ele><time>2026-04-11T11:41:29.001Z</time></trkpt><trkpt lat="44.82567" lon="9.3454183"><ele>881.0</ele><time>2026-04-11T11:41:30.002Z</time></trkpt><trkpt lat="44.8256617" lon="9.34553"><ele>880.0</ele><time>2026-04-11T11:41:31Z</time></trkpt><trkpt lat="44.8256567" lon="9.34564"><ele>879.0</ele><time>2026-04-11T11:41:32.002Z</time></trkpt><trkpt lat="44.8256567" lon="9.3457433"><ele>877.6</ele><time>2026-04-11T11:41:33.002Z</time></trkpt><trkpt lat="44.825665" lon="9.34586"><ele>876.2</ele><time>2026-04-11T11:41:34.001Z</time></trkpt><trkpt lat="44.825665" lon="9.3459883"><ele>874.8000000000001</ele><time>2026-04-11T11:41:35.001Z</time></trkpt><trkpt lat="44.8256633" lon="9.3461567"><ele>873.4000000000001</ele><time>2026-04-11T11:41:37.001Z</time></trkpt><trkpt lat="44.8256467" lon="9.3462567"><ele>872.0</ele><time>2026-04-11T11:41:38.002Z</time></trkpt><trkpt lat="44.825595" lon="9.34641"><ele>871.7142857142858</ele><time>2026-04-11T11:41:40Z</time></trkpt><trkpt lat="44.82557" lon="9.346505"><ele>871.4285714285714</ele><time>2026-04-11T11:41:41.001Z</time></trkpt><trkpt lat="44.825555" lon="9.34661"><ele>871.1428571428571</ele><time>2026-04-11T11:41:42.003Z</time></trkpt><trkpt lat="44.82553" lon="9.3467183"><ele>870.8571428571429</ele><time>2026-04-11T11:41:43.001Z</time></trkpt><trkpt lat="44.8254967" lon="9.3468117"><ele>870.5714285714286</ele><time>2026-04-11T11:41:44.002Z</time></trkpt><trkpt lat="44.8254583" lon="9.3468933"><ele>870.2857142857143</ele><time>2026-04-11T11:41:45.002Z</time></trkpt><trkpt lat="44.825425" lon="9.3469733"><ele>870.0</ele><time>2026-04-11T11:41:46.001Z</time></trkpt><trkpt lat="44.8253833" lon="9.3470517"><ele>870.0</ele><time>2026-04-11T11:41:47.001Z</time></trkpt><trkpt lat="44.8253367" lon="9.3471317"><ele>870.0</ele><time>2026-04-11T11:41:48.001Z</time></trkpt><trkpt lat="44.8252967" lon="9.34722"><ele>870.0</ele><time>2026-04-11T11:41:49.002Z</time></trkpt><trkpt lat="44.82526" lon="9.3473067"><ele>870.0</ele><time>2026-04-11T11:41:50.002Z</time></trkpt><trkpt lat="44.8252183" lon="9.3474083"><ele>870.0</ele><time>2026-04-11T11:41:51.002Z</time></trkpt><trkpt lat="44.8251767" lon="9.3475067"><ele>870.0</ele><time>2026-04-11T11:41:52.002Z</time></trkpt><trkpt lat="44.8251317" lon="9.3475983"><ele>871.8333333333334</ele><time>2026-04-11T11:41:53.003Z</time></trkpt><trkpt lat="44.825075" lon="9.347685"><ele>873.6666666666667</ele><time>2026-04-11T11:41:54.003Z</time></trkpt><trkpt lat="44.8250267" lon="9.3477517"><ele>875.5</ele><time>2026-04-11T11:41:55.001Z</time></trkpt><trkpt lat="44.82497" lon="9.347825"><ele>877.3333333333334</ele><time>2026-04-11T11:41:56.002Z</time></trkpt><trkpt lat="44.8249133" lon="9.3479033"><ele>879.1666666666667</ele><time>2026-04-11T11:41:57.003Z</time></trkpt><trkpt lat="44.8248517" lon="9.3479817"><ele>881.0</ele><time>2026-04-11T11:41:58.033Z</time></trkpt><trkpt lat="44.8247867" lon="9.3480667"><ele>881.0000000000001</ele><time>2026-04-11T11:41:59.003Z</time></trkpt><trkpt lat="44.8247217" lon="9.3481467"><ele>881.0</ele><time>2026-04-11T11:42:00.001Z</time></trkpt><trkpt lat="44.824655" lon="9.34823"><ele>881.0</ele><time>2026-04-11T11:42:01.002Z</time></trkpt><trkpt lat="44.8245883" lon="9.3483033"><ele>881.0</ele><time>2026-04-11T11:42:02.006Z</time></trkpt><trkpt lat="44.8245183" lon="9.3483667"><ele>881.0000000000001</ele><time>2026-04-11T11:42:03.002Z</time></trkpt><trkpt lat="44.8244467" lon="9.348415"><ele>881.0</ele><time>2026-04-11T11:42:04.002Z</time></trkpt><trkpt lat="44.8243833" lon="9.348445"><ele>884.8</ele><time>2026-04-11T11:42:05.001Z</time></trkpt><trkpt lat="44.824265" lon="9.348475"><ele>888.5999999999999</ele><time>2026-04-11T11:42:07.002Z</time></trkpt><trkpt lat="44.8241583" lon="9.3485283"><ele>892.4</ele><time>2026-04-11T11:42:09.002Z</time></trkpt><trkpt lat="44.8240967" lon="9.3485733"><ele>896.2</ele><time>2026-04-11T11:42:10.002Z</time></trkpt><trkpt lat="44.8240267" lon="9.3486183"><ele>900.0</ele><time>2026-04-11T11:42:11.002Z</time></trkpt><trkpt lat="44.8239567" lon="9.3486667"><ele>900.0</ele><time>2026-04-11T11:42:12.004Z</time></trkpt><trkpt lat="44.8238983" lon="9.348715"><ele>900.0</ele><time>2026-04-11T11:42:13Z</time></trkpt><trkpt lat="44.82383" lon="9.3488267"><ele>900.0</ele><time>2026-04-11T11:42:15.001Z</time></trkpt><trkpt lat="44.8238783" lon="9.348925"><ele>900.0</ele><time>2026-04-11T11:42:17.002Z</time></trkpt><trkpt lat="44.8239" lon="9.3490767"><ele>900.0</ele><time>2026-04-11T11:42:19.001Z</time></trkpt><trkpt lat="44.8239233" lon="9.349215"><ele>896.8333333333334</ele><time>2026-04-11T11:42:21.002Z</time></trkpt><trkpt lat="44.8238883" lon="9.3493417"><ele>893.6666666666667</ele><time>2026-04-11T11:42:23.001Z</time></trkpt><trkpt lat="44.82384" lon="9.3494017"><ele>890.5</ele><time>2026-04-11T11:42:24.002Z</time></trkpt><trkpt lat="44.82379" lon="9.3494683"><ele>887.3333333333334</ele><time>2026-04-11T11:42:25.002Z</time></trkpt><trkpt lat="44.8237367" lon="9.3495983"><ele>884.1666666666667</ele><time>2026-04-11T11:42:27.004Z</time></trkpt><trkpt lat="44.8237233" lon="9.3497467"><ele>881.0</ele><time>2026-04-11T11:42:29.001Z</time></trkpt><trkpt lat="44.823725" lon="9.3498783"><ele>879.8333333333334</ele><time>2026-04-11T11:42:31.001Z</time></trkpt><trkpt lat="44.8237167" lon="9.3499967"><ele>878.6666666666667</ele><time>2026-04-11T11:42:33.002Z</time></trkpt><trkpt lat="44.8236967" lon="9.3501"><ele>877.5</ele><time>2026-04-11T11:42:35.002Z</time></trkpt><trkpt lat="44.8236883" lon="9.3502433"><ele>876.3333333333333</ele><time>2026-04-11T11:42:37.001Z</time></trkpt><trkpt lat="44.823705" lon="9.3503317"><ele>875.1666666666666</ele><time>2026-04-11T11:42:38.001Z</time></trkpt><trkpt lat="44.823735" lon="9.35049"><ele>874.0</ele><time>2026-04-11T11:42:40.001Z</time></trkpt><trkpt lat="44.8237717" lon="9.3506083"><ele>873.9999999999999</ele><time>2026-04-11T11:42:42.001Z</time></trkpt><trkpt lat="44.8238367" lon="9.3506983"><ele>874.0</ele><time>2026-04-11T11:42:44.002Z</time></trkpt><trkpt lat="44.8238783" lon="9.3507817"><ele>874.0</ele><time>2026-04-11T11:42:46.002Z</time></trkpt><trkpt lat="44.8239283" lon="9.3508767"><ele>874.0</ele><time>2026-04-11T11:42:48.001Z</time></trkpt><trkpt lat="44.8239883" lon="9.3509633"><ele>873.9999999999999</ele><time>2026-04-11T11:42:50.001Z</time></trkpt><trkpt lat="44.8240433" lon="9.3510667"><ele>874.0</ele><time>2026-04-11T11:42:52.003Z</time></trkpt><trkpt lat="44.8240717" lon="9.35118"><ele>873.9999999999999</ele><time>2026-04-11T11:42:54.001Z</time></trkpt><trkpt lat="44.8240533" lon="9.3512967"><ele>874.0</ele><time>2026-04-11T11:42:56.003Z</time></trkpt><trkpt lat="44.82396" lon="9.3514183"><ele>874.0</ele><time>2026-04-11T11:42:58.001Z</time></trkpt><trkpt lat="44.8239017" lon="9.3514833"><ele>874.0</ele><time>2026-04-11T11:42:59.001Z</time></trkpt><trkpt lat="44.8238533" lon="9.3515483"><ele>873.9999999999999</ele><time>2026-04-11T11:43:00.003Z</time></trkpt><trkpt lat="44.8238267" lon="9.3516667"><ele>874.0</ele><time>2026-04-11T11:43:02.001Z</time></trkpt><trkpt lat="44.823885" lon="9.3517867"><ele>875.6</ele><time>2026-04-11T11:43:04.001Z</time></trkpt><trkpt lat="44.823935" lon="9.3519117"><ele>877.2</ele><time>2026-04-11T11:43:06.001Z</time></trkpt><trkpt lat="44.8239933" lon="9.3520533"><ele>878.8000000000001</ele><time>2026-04-11T11:43:08.002Z</time></trkpt><trkpt lat="44.8240483" lon="9.35217"><ele>880.4000000000001</ele><time>2026-04-11T11:43:10.001Z</time></trkpt><trkpt lat="44.82411" lon="9.352235"><ele>882.0</ele><time>2026-04-11T11:43:12.002Z</time></trkpt><trkpt lat="44.82418" lon="9.3522683"><ele>882.5</ele><time>2026-04-11T11:43:14.002Z</time></trkpt><trkpt lat="44.824245" lon="9.3523433"><ele>883.0</ele><time>2026-04-11T11:43:16.001Z</time></trkpt><trkpt lat="44.824265" lon="9.352455"><ele>883.5</ele><time>2026-04-11T11:43:18.001Z</time></trkpt><trkpt lat="44.8242783" lon="9.35259"><ele>884.0</ele><time>2026-04-11T11:43:20.001Z</time></trkpt><trkpt lat="44.8243483" lon="9.3526617"><ele>884.5</ele><time>2026-04-11T11:43:23.001Z</time></trkpt><trkpt lat="44.82441" lon="9.352625"><ele>885.0</ele><time>2026-04-11T11:43:39.002Z</time></trkpt><trkpt lat="44.8244717" lon="9.3525583"><ele>885.0</ele><time>2026-04-11T11:43:41.002Z</time></trkpt><trkpt lat="44.8245433" lon="9.3524967"><ele>885.0</ele><time>2026-04-11T11:43:44.001Z</time></trkpt><trkpt lat="44.82461" lon="9.352445"><ele>885.0</ele><time>2026-04-11T11:43:47.001Z</time></trkpt><trkpt lat="44.8246683" lon="9.3524017"><ele>885.0</ele><time>2026-04-11T11:43:50.002Z</time></trkpt><trkpt lat="44.82475" lon="9.35237"><ele>885.0</ele><time>2026-04-11T11:43:53Z</time></trkpt><trkpt lat="44.8248283" lon="9.3523667"><ele>885.0</ele><time>2026-04-11T11:43:55.001Z</time></trkpt><trkpt lat="44.824915" lon="9.3523683"><ele>885.0</ele><time>2026-04-11T11:43:57.001Z</time></trkpt><trkpt lat="44.825005" lon="9.35237"><ele>885.0</ele><time>2026-04-11T11:43:59.001Z</time></trkpt><trkpt lat="44.8251133" lon="9.35239"><ele>885.0</ele><time>2026-04-11T11:44:01.001Z</time></trkpt><trkpt lat="44.8252233" lon="9.3524367"><ele>885.0</ele><time>2026-04-11T11:44:03.002Z</time></trkpt><trkpt lat="44.8253167" lon="9.3524867"><ele>885.0</ele><time>2026-04-11T11:44:05.002Z</time></trkpt><trkpt lat="44.8253867" lon="9.352535"><ele>883.5</ele><time>2026-04-11T11:44:07Z</time></trkpt><trkpt lat="44.825445" lon="9.3526167"><ele>882.0</ele><time>2026-04-11T11:44:09.001Z</time></trkpt><trkpt lat="44.825495" lon="9.3527217"><ele>880.5</ele><time>2026-04-11T11:44:11Z</time></trkpt><trkpt lat="44.825545" lon="9.3528"><ele>879.0</ele><time>2026-04-11T11:44:13.001Z</time></trkpt><trkpt lat="44.82561" lon="9.3528783"><ele>877.5</ele><time>2026-04-11T11:44:15.002Z</time></trkpt><trkpt lat="44.82567" lon="9.3529583"><ele>876.0</ele><time>2026-04-11T11:44:17.001Z</time></trkpt><trkpt lat="44.8257167" lon="9.3530483"><ele>879.8333333333334</ele><time>2026-04-11T11:44:19.001Z</time></trkpt><trkpt lat="44.82576" lon="9.35313"><ele>883.6666666666667</ele><time>2026-04-11T11:44:21.002Z</time></trkpt><trkpt lat="44.8258067" lon="9.3531967"><ele>887.5</ele><time>2026-04-11T11:44:27.002Z</time></trkpt><trkpt lat="44.8257967" lon="9.3532983"><ele>891.3333333333334</ele><time>2026-04-11T11:44:39.001Z</time></trkpt><trkpt lat="44.8257417" lon="9.3533817"><ele>895.1666666666667</ele><time>2026-04-11T11:44:43.001Z</time></trkpt><trkpt lat="44.82575" lon="9.3535217"><ele>899.0</ele><time>2026-04-11T11:44:45.002Z</time></trkpt><trkpt lat="44.82578" lon="9.353665"><ele>898.9999999999999</ele><time>2026-04-11T11:44:47.001Z</time></trkpt><trkpt lat="44.825805" lon="9.353755"><ele>899.0</ele><time>2026-04-11T11:44:48.001Z</time></trkpt><trkpt lat="44.8258333" lon="9.353845"><ele>898.9999999999999</ele><time>2026-04-11T11:44:49.001Z</time></trkpt><trkpt lat="44.8258667" lon="9.35393"><ele>898.9999999999999</ele><time>2026-04-11T11:44:50.001Z</time></trkpt><trkpt lat="44.8258917" lon="9.3540333"><ele>899.0</ele><time>2026-04-11T11:44:51.002Z</time></trkpt><trkpt lat="44.8259" lon="9.3541233"><ele>898.9999999999999</ele><time>2026-04-11T11:44:52.001Z</time></trkpt><trkpt lat="44.8259083" lon="9.3542133"><ele>898.9999999999999</ele><time>2026-04-11T11:44:53.001Z</time></trkpt><trkpt lat="44.8259067" lon="9.3543683"><ele>901.5000000000001</ele><time>2026-04-11T11:44:55.001Z</time></trkpt><trkpt lat="44.82589" lon="9.3545217"><ele>904.0</ele><time>2026-04-11T11:44:57.002Z</time></trkpt><trkpt lat="44.8258183" lon="9.3545617"><ele>906.5</ele><time>2026-04-11T11:45:07.001Z</time></trkpt><trkpt lat="44.825745" lon="9.3545583"><ele>909.0</ele><time>2026-04-11T11:45:09.001Z</time></trkpt><trkpt lat="44.825665" lon="9.3545717"><ele>911.5000000000001</ele><time>2026-04-11T11:45:11.001Z</time></trkpt><trkpt lat="44.8255917" lon="9.354605"><ele>914.0</ele><time>2026-04-11T11:45:13.002Z</time></trkpt><trkpt lat="44.8255067" lon="9.354635"><ele>914.0000000000001</ele><time>2026-04-11T11:45:16.001Z</time></trkpt><trkpt lat="44.8254217" lon="9.35464"><ele>914.0</ele><time>2026-04-11T11:45:22.001Z</time></trkpt><trkpt lat="44.8253267" lon="9.3546917"><ele>914.0</ele><time>2026-04-11T11:45:25.001Z</time></trkpt><trkpt lat="44.8252483" lon="9.35472"><ele>914.0</ele><time>2026-04-11T11:45:26.001Z</time></trkpt><trkpt lat="44.825175" lon="9.3547417"><ele>914.0000000000001</ele><time>2026-04-11T11:45:27.002Z</time></trkpt><trkpt lat="44.825095" lon="9.354775"><ele>914.0</ele><time>2026-04-11T11:45:28.001Z</time></trkpt><trkpt lat="44.8250233" lon="9.3548017"><ele>917.0000000000001</ele><time>2026-04-11T11:45:29.001Z</time></trkpt><trkpt lat="44.8249483" lon="9.354835"><ele>920.0</ele><time>2026-04-11T11:45:30.001Z</time></trkpt><trkpt lat="44.8248617" lon="9.3548783"><ele>923.0</ele><time>2026-04-11T11:45:31.001Z</time></trkpt><trkpt lat="44.8247833" lon="9.3549317"><ele>926.0</ele><time>2026-04-11T11:45:32.001Z</time></trkpt><trkpt lat="44.8247017" lon="9.355"><ele>929.0000000000001</ele><time>2026-04-11T11:45:33.002Z</time></trkpt><trkpt lat="44.82463" lon="9.355075"><ele>932.0</ele><time>2026-04-11T11:45:34.001Z</time></trkpt><trkpt lat="44.8245633" lon="9.3551533"><ele>932.0000000000001</ele><time>2026-04-11T11:45:35.002Z</time></trkpt><trkpt lat="44.8244983" lon="9.35523"><ele>932.0</ele><time>2026-04-11T11:45:36.001Z</time></trkpt><trkpt lat="44.824435" lon="9.3553"><ele>932.0</ele><time>2026-04-11T11:45:37.001Z</time></trkpt><trkpt lat="44.8243683" lon="9.35535"><ele>932.0</ele><time>2026-04-11T11:45:38.002Z</time></trkpt><trkpt lat="44.824305" lon="9.3553867"><ele>932.0000000000001</ele><time>2026-04-11T11:45:39.002Z</time></trkpt><trkpt lat="44.82423" lon="9.3554217"><ele>932.0</ele><time>2026-04-11T11:45:40.001Z</time></trkpt><trkpt lat="44.824155" lon="9.3554517"><ele>932.6666666666667</ele><time>2026-04-11T11:45:41.002Z</time></trkpt><trkpt lat="44.8240317" lon="9.35551"><ele>933.3333333333334</ele><time>2026-04-11T11:45:43.002Z</time></trkpt><trkpt lat="44.8239633" lon="9.3555367"><ele>934.0</ele><time>2026-04-11T11:45:44.002Z</time></trkpt><trkpt lat="44.8238817" lon="9.3555633"><ele>934.6666666666667</ele><time>2026-04-11T11:45:45.002Z</time></trkpt><trkpt lat="44.823805" lon="9.3555917"><ele>935.3333333333334</ele><time>2026-04-11T11:45:46.001Z</time></trkpt><trkpt lat="44.82373" lon="9.3556217"><ele>936.0</ele><time>2026-04-11T11:45:47.001Z</time></trkpt><trkpt lat="44.8236583" lon="9.3556583"><ele>936.1666666666666</ele><time>2026-04-11T11:45:48.001Z</time></trkpt><trkpt lat="44.8235883" lon="9.355695"><ele>936.3333333333333</ele><time>2026-04-11T11:45:49.001Z</time></trkpt><trkpt lat="44.8235183" lon="9.3557317"><ele>936.5</ele><time>2026-04-11T11:45:50.002Z</time></trkpt><trkpt lat="44.8234467" lon="9.3557533"><ele>936.6666666666666</ele><time>2026-04-11T11:45:51.002Z</time></trkpt><trkpt lat="44.823375" lon="9.3557667"><ele>936.8333333333333</ele><time>2026-04-11T11:45:52.001Z</time></trkpt><trkpt lat="44.8233" lon="9.35578"><ele>937.0</ele><time>2026-04-11T11:45:53.001Z</time></trkpt><trkpt lat="44.8232167" lon="9.3558"><ele>936.9999999999999</ele><time>2026-04-11T11:45:54.001Z</time></trkpt><trkpt lat="44.8231417" lon="9.355825"><ele>937.0</ele><time>2026-04-11T11:45:55.001Z</time></trkpt><trkpt lat="44.8230733" lon="9.3558683"><ele>937.0</ele><time>2026-04-11T11:45:56.001Z</time></trkpt><trkpt lat="44.8230067" lon="9.35593"><ele>937.0</ele><time>2026-04-11T11:45:57.002Z</time></trkpt><trkpt lat="44.82294" lon="9.3560183"><ele>936.9999999999999</ele><time>2026-04-11T11:45:58.001Z</time></trkpt><trkpt lat="44.8228733" lon="9.3561317"><ele>937.0</ele><time>2026-04-11T11:45:59.001Z</time></trkpt><trkpt lat="44.8228117" lon="9.3562417"><ele>937.0</ele><time>2026-04-11T11:46:00.001Z</time></trkpt><trkpt lat="44.82276" lon="9.3563383"><ele>937.0</ele><time>2026-04-11T11:46:01.001Z</time></trkpt><trkpt lat="44.8227117" lon="9.3564217"><ele>937.0</ele><time>2026-04-11T11:46:02.002Z</time></trkpt><trkpt lat="44.8226583" lon="9.3564933"><ele>937.0</ele><time>2026-04-11T11:46:03.001Z</time></trkpt><trkpt lat="44.822605" lon="9.3565417"><ele>937.0</ele><time>2026-04-11T11:46:04.001Z</time></trkpt><trkpt lat="44.8225433" lon="9.3566017"><ele>937.0</ele><time>2026-04-11T11:46:06.003Z</time></trkpt><trkpt lat="44.8224683" lon="9.3565983"><ele>937.0</ele><time>2026-04-11T11:46:09.002Z</time></trkpt><trkpt lat="44.8224067" lon="9.3565617"><ele>938.4999999999999</ele><time>2026-04-11T11:46:11.001Z</time></trkpt><trkpt lat="44.8223317" lon="9.3565467"><ele>940.0</ele><time>2026-04-11T11:46:13.001Z</time></trkpt><trkpt lat="44.8222583" lon="9.3565517"><ele>941.5</ele><time>2026-04-11T11:46:15.001Z</time></trkpt><trkpt lat="44.82219" lon="9.356545"><ele>943.0</ele><time>2026-04-11T11:46:17.001Z</time></trkpt><trkpt lat="44.8221183" lon="9.356545"><ele>944.4999999999999</ele><time>2026-04-11T11:46:19.001Z</time></trkpt><trkpt lat="44.8220417" lon="9.3565367"><ele>946.0</ele><time>2026-04-11T11:46:21.001Z</time></trkpt><trkpt lat="44.821955" lon="9.35651"><ele>946.0</ele><time>2026-04-11T11:46:24Z</time></trkpt><trkpt lat="44.8218883" lon="9.3564733"><ele>945.9999999999999</ele><time>2026-04-11T11:46:26.002Z</time></trkpt><trkpt lat="44.821815" lon="9.3564467"><ele>945.9999999999999</ele><time>2026-04-11T11:46:28.002Z</time></trkpt><trkpt lat="44.8217333" lon="9.3564"><ele>946.0</ele><time>2026-04-11T11:46:30.001Z</time></trkpt><trkpt lat="44.8216383" lon="9.3563233"><ele>946.0</ele><time>2026-04-11T11:46:32.001Z</time></trkpt><trkpt lat="44.82154" lon="9.356235"><ele>946.5999999999999</ele><time>2026-04-11T11:46:34Z</time></trkpt><trkpt lat="44.8214617" lon="9.3561817"><ele>947.1999999999999</ele><time>2026-04-11T11:46:36.001Z</time></trkpt><trkpt lat="44.821365" lon="9.35618"><ele>947.8000000000001</ele><time>2026-04-11T11:46:38.003Z</time></trkpt><trkpt lat="44.8212617" lon="9.3562083"><ele>948.4000000000001</ele><time>2026-04-11T11:46:40.001Z</time></trkpt><trkpt lat="44.8211833" lon="9.3562783"><ele>949.0</ele><time>2026-04-11T11:46:42.001Z</time></trkpt><trkpt lat="44.8211383" lon="9.3563683"><ele>949.9999999999999</ele><time>2026-04-11T11:46:44.001Z</time></trkpt><trkpt lat="44.8211017" lon="9.356465"><ele>951.0</ele><time>2026-04-11T11:46:46.001Z</time></trkpt><trkpt lat="44.82105" lon="9.3565717"><ele>952.0</ele><time>2026-04-11T11:46:48.001Z</time></trkpt><trkpt lat="44.820975" lon="9.356645"><ele>953.0</ele><time>2026-04-11T11:46:50.001Z</time></trkpt><trkpt lat="44.8208633" lon="9.35667"><ele>953.9999999999999</ele><time>2026-04-11T11:46:52.002Z</time></trkpt><trkpt lat="44.8208" lon="9.3566867"><ele>955.0</ele><time>2026-04-11T11:46:53.002Z</time></trkpt><trkpt lat="44.82069" lon="9.3567283"><ele>957.3333333333333</ele><time>2026-04-11T11:46:55.001Z</time></trkpt><trkpt lat="44.8205917" lon="9.35679"><ele>959.6666666666666</ele><time>2026-04-11T11:46:57.003Z</time></trkpt><trkpt lat="44.8204967" lon="9.3568383"><ele>962.0</ele><time>2026-04-11T11:46:59.001Z</time></trkpt><trkpt lat="44.8204317" lon="9.35689"><ele>964.3333333333333</ele><time>2026-04-11T11:47:01.001Z</time></trkpt><trkpt lat="44.8203617" lon="9.3569583"><ele>966.6666666666666</ele><time>2026-04-11T11:47:03.002Z</time></trkpt><trkpt lat="44.8202933" lon="9.3570167"><ele>969.0</ele><time>2026-04-11T11:47:05.003Z</time></trkpt><trkpt lat="44.820235" lon="9.3570867"><ele>969.0</ele><time>2026-04-11T11:47:08.002Z</time></trkpt><trkpt lat="44.8201917" lon="9.3571767"><ele>969.0</ele><time>2026-04-11T11:47:11.001Z</time></trkpt><trkpt lat="44.82015" lon="9.3572717"><ele>969.0</ele><time>2026-04-11T11:47:14.002Z</time></trkpt><trkpt lat="44.8201167" lon="9.357405"><ele>969.0</ele><time>2026-04-11T11:47:17.003Z</time></trkpt><trkpt lat="44.8200833" lon="9.3575133"><ele>969.0</ele><time>2026-04-11T11:47:19.001Z</time></trkpt><trkpt lat="44.82005" lon="9.3576317"><ele>969.0</ele><time>2026-04-11T11:47:21.002Z</time></trkpt><trkpt lat="44.8200217" lon="9.3577233"><ele>971.3333333333334</ele><time>2026-04-11T11:47:23.003Z</time></trkpt><trkpt lat="44.8199767" lon="9.3578017"><ele>973.6666666666667</ele><time>2026-04-11T11:47:25.001Z</time></trkpt><trkpt lat="44.8199233" lon="9.357905"><ele>976.0</ele><time>2026-04-11T11:47:28.001Z</time></trkpt><trkpt lat="44.8199017" lon="9.3580217"><ele>978.3333333333334</ele><time>2026-04-11T11:47:31.001Z</time></trkpt><trkpt lat="44.81986" lon="9.3580917"><ele>980.6666666666667</ele><time>2026-04-11T11:47:33.003Z</time></trkpt><trkpt lat="44.8198167" lon="9.35818"><ele>983.0</ele><time>2026-04-11T11:47:36.002Z</time></trkpt><trkpt lat="44.8197933" lon="9.3582833"><ele>985.5999999999999</ele><time>2026-04-11T11:47:38.002Z</time></trkpt><trkpt lat="44.8197683" lon="9.3584167"><ele>988.1999999999999</ele><time>2026-04-11T11:47:40.002Z</time></trkpt><trkpt lat="44.8197267" lon="9.3585067"><ele>990.8</ele><time>2026-04-11T11:47:41.002Z</time></trkpt><trkpt lat="44.8196883" lon="9.3586"><ele>993.4</ele><time>2026-04-11T11:47:43Z</time></trkpt><trkpt lat="44.8196167" lon="9.3587133"><ele>996.0</ele><time>2026-04-11T11:47:45.002Z</time></trkpt><trkpt lat="44.8195733" lon="9.3588267"><ele>997.6666666666666</ele><time>2026-04-11T11:47:47.002Z</time></trkpt><trkpt lat="44.8195133" lon="9.35893"><ele>999.3333333333333</ele><time>2026-04-11T11:47:49.001Z</time></trkpt><trkpt lat="44.81949" lon="9.3590417"><ele>1001.0</ele><time>2026-04-11T11:47:51.002Z</time></trkpt><trkpt lat="44.8194817" lon="9.35914"><ele>1002.6666666666666</ele><time>2026-04-11T11:47:53.002Z</time></trkpt><trkpt lat="44.8194367" lon="9.3592167"><ele>1004.3333333333333</ele><time>2026-04-11T11:47:55.001Z</time></trkpt><trkpt lat="44.8193733" lon="9.3592717"><ele>1006.0</ele><time>2026-04-11T11:47:58.002Z</time></trkpt><trkpt lat="44.8193383" lon="9.35938"><ele>1006.4</ele><time>2026-04-11T11:48:03.004Z</time></trkpt><trkpt lat="44.819315" lon="9.3594733"><ele>1006.8</ele><time>2026-04-11T11:48:05.002Z</time></trkpt><trkpt lat="44.8192967" lon="9.3596183"><ele>1007.1999999999999</ele><time>2026-04-11T11:48:07Z</time></trkpt><trkpt lat="44.8192967" lon="9.3597883"><ele>1007.5999999999999</ele><time>2026-04-11T11:48:09.003Z</time></trkpt><trkpt lat="44.8193283" lon="9.3599567"><ele>1008.0</ele><time>2026-04-11T11:48:11.002Z</time></trkpt><trkpt lat="44.8193483" lon="9.3600517"><ele>1009.0</ele><time>2026-04-11T11:48:12.001Z</time></trkpt><trkpt lat="44.8193733" lon="9.3601333"><ele>1010.0</ele><time>2026-04-11T11:48:13.001Z</time></trkpt><trkpt lat="44.8194417" lon="9.360255"><ele>1011.0</ele><time>2026-04-11T11:48:15.001Z</time></trkpt><trkpt lat="44.819465" lon="9.360375"><ele>1012.0</ele><time>2026-04-11T11:48:17Z</time></trkpt><trkpt lat="44.81944" lon="9.36052"><ele>1013.0</ele><time>2026-04-11T11:48:19.001Z</time></trkpt><trkpt lat="44.819405" lon="9.360655"><ele>1013.0000000000001</ele><time>2026-04-11T11:48:21.003Z</time></trkpt><trkpt lat="44.8193933" lon="9.3607533"><ele>1013.0</ele><time>2026-04-11T11:48:23.001Z</time></trkpt><trkpt lat="44.8194533" lon="9.3606717"><ele>1013.0</ele><time>2026-04-11T11:49:42.002Z</time></trkpt><trkpt lat="44.8195417" lon="9.360565"><ele>1013.0</ele><time>2026-04-11T11:49:44.002Z</time></trkpt><trkpt lat="44.8196017" lon="9.3605183"><ele>1013.0000000000001</ele><time>2026-04-11T11:49:45.002Z</time></trkpt><trkpt lat="44.8196733" lon="9.360485"><ele>1013.0</ele><time>2026-04-11T11:49:46.001Z</time></trkpt><trkpt lat="44.8197517" lon="9.3604517"><ele>1013.0</ele><time>2026-04-11T11:49:47.001Z</time></trkpt><trkpt lat="44.819825" lon="9.3604167"><ele>1013.0</ele><time>2026-04-11T11:49:48.003Z</time></trkpt><trkpt lat="44.81989" lon="9.3603733"><ele>1013.0</ele><time>2026-04-11T11:49:49.001Z</time></trkpt><trkpt lat="44.8199517" lon="9.3603267"><ele>1013.0</ele><time>2026-04-11T11:49:50.001Z</time></trkpt><trkpt lat="44.820065" lon="9.360295"><ele>1013.0</ele><time>2026-04-11T11:49:52.001Z</time></trkpt><trkpt lat="44.8201833" lon="9.360345"><ele>1012.3333333333334</ele><time>2026-04-11T11:49:54.001Z</time></trkpt><trkpt lat="44.8202417" lon="9.360385"><ele>1011.6666666666667</ele><time>2026-04-11T11:49:55.001Z</time></trkpt><trkpt lat="44.8203633" lon="9.3604333"><ele>1011.0</ele><time>2026-04-11T11:49:57.001Z</time></trkpt><trkpt lat="44.8204267" lon="9.360435"><ele>1010.3333333333333</ele><time>2026-04-11T11:49:58.001Z</time></trkpt><trkpt lat="44.8205117" lon="9.3604733"><ele>1009.6666666666666</ele><time>2026-04-11T11:50:00.002Z</time></trkpt><trkpt lat="44.8205567" lon="9.360545"><ele>1009.0</ele><time>2026-04-11T11:50:02.002Z</time></trkpt><trkpt lat="44.8206317" lon="9.3605883"><ele>1009.4999999999999</ele><time>2026-04-11T11:50:05.001Z</time></trkpt><trkpt lat="44.8207183" lon="9.360555"><ele>1010.0</ele><time>2026-04-11T11:50:11.002Z</time></trkpt><trkpt lat="44.8207867" lon="9.3605617"><ele>1010.5</ele><time>2026-04-11T11:50:14.002Z</time></trkpt><trkpt lat="44.82089" lon="9.3606117"><ele>1011.0</ele><time>2026-04-11T11:50:40.001Z</time></trkpt><trkpt lat="44.8209367" lon="9.3606717"><ele>1011.4999999999999</ele><time>2026-04-11T11:50:42.001Z</time></trkpt><trkpt lat="44.8209867" lon="9.3607383"><ele>1012.0</ele><time>2026-04-11T11:50:44.001Z</time></trkpt><trkpt lat="44.82104" lon="9.3608"><ele>1011.9999999999999</ele><time>2026-04-11T11:50:46.002Z</time></trkpt><trkpt lat="44.8210917" lon="9.360865"><ele>1012.0</ele><time>2026-04-11T11:50:48.001Z</time></trkpt><trkpt lat="44.8211383" lon="9.360995"><ele>1012.0</ele><time>2026-04-11T11:50:50.002Z</time></trkpt><trkpt lat="44.821165" lon="9.3610783"><ele>1012.0</ele><time>2026-04-11T11:50:51.002Z</time></trkpt><trkpt lat="44.8212267" lon="9.36117"><ele>1011.9999999999999</ele><time>2026-04-11T11:50:53.001Z</time></trkpt><trkpt lat="44.8212767" lon="9.361245"><ele>1012.0</ele><time>2026-04-11T11:50:55.001Z</time></trkpt><trkpt lat="44.8213167" lon="9.361335"><ele>1013.9999999999999</ele><time>2026-04-11T11:50:57.002Z</time></trkpt><trkpt lat="44.8213833" lon="9.3614083"><ele>1016.0</ele><time>2026-04-11T11:50:59.001Z</time></trkpt><trkpt lat="44.8214567" lon="9.3614617"><ele>1018.0</ele><time>2026-04-11T11:51:01Z</time></trkpt><trkpt lat="44.8215333" lon="9.361505"><ele>1020.0</ele><time>2026-04-11T11:51:04.001Z</time></trkpt><trkpt lat="44.821575" lon="9.3616283"><ele>1021.9999999999999</ele><time>2026-04-11T11:51:07.001Z</time></trkpt><trkpt lat="44.8216417" lon="9.3616817"><ele>1024.0</ele><time>2026-04-11T11:51:11.001Z</time></trkpt><trkpt lat="44.8217333" lon="9.3616683"><ele>1026.4</ele><time>2026-04-11T11:51:14.003Z</time></trkpt><trkpt lat="44.8218367" lon="9.36168"><ele>1028.8000000000002</ele><time>2026-04-11T11:51:16.001Z</time></trkpt><trkpt lat="44.8219233" lon="9.36171"><ele>1031.1999999999998</ele><time>2026-04-11T11:51:18.001Z</time></trkpt><trkpt lat="44.8220133" lon="9.3617017"><ele>1033.6</ele><time>2026-04-11T11:51:20.001Z</time></trkpt><trkpt lat="44.8221167" lon="9.36171"><ele>1036.0</ele><time>2026-04-11T11:51:22.001Z</time></trkpt><trkpt lat="44.8222017" lon="9.36174"><ele>1036.0</ele><time>2026-04-11T11:51:24.002Z</time></trkpt><trkpt lat="44.8222667" lon="9.3618133"><ele>1036.0</ele><time>2026-04-11T11:51:26.006Z</time></trkpt><trkpt lat="44.8223167" lon="9.361905"><ele>1036.0</ele><time>2026-04-11T11:51:28.001Z</time></trkpt><trkpt lat="44.8223467" lon="9.3620417"><ele>1036.0</ele><time>2026-04-11T11:51:30.003Z</time></trkpt><trkpt lat="44.8223883" lon="9.36215"><ele>1036.0</ele><time>2026-04-11T11:51:32.001Z</time></trkpt><trkpt lat="44.822455" lon="9.3622167"><ele>1036.0</ele><time>2026-04-11T11:51:35.002Z</time></trkpt><trkpt lat="44.8225567" lon="9.3623617"><ele>1036.1666666666665</ele><time>2026-04-11T11:52:00.002Z</time></trkpt><trkpt lat="44.8225933" lon="9.3624833"><ele>1036.3333333333333</ele><time>2026-04-11T11:52:03.002Z</time></trkpt><trkpt lat="44.8226217" lon="9.362565"><ele>1036.5</ele><time>2026-04-11T11:52:05.001Z</time></trkpt><trkpt lat="44.8226533" lon="9.3626433"><ele>1036.6666666666667</ele><time>2026-04-11T11:52:07.001Z</time></trkpt><trkpt lat="44.822675" lon="9.3627533"><ele>1036.8333333333335</ele><time>2026-04-11T11:52:10.002Z</time></trkpt><trkpt lat="44.82273" lon="9.3628417"><ele>1037.0</ele><time>2026-04-11T11:52:13.001Z</time></trkpt><trkpt lat="44.8228083" lon="9.3629017"><ele>1034.8333333333335</ele><time>2026-04-11T11:52:16.002Z</time></trkpt><trkpt lat="44.8228817" lon="9.3629567"><ele>1032.6666666666667</ele><time>2026-04-11T11:52:18.001Z</time></trkpt><trkpt lat="44.8229517" lon="9.3629817"><ele>1030.5</ele><time>2026-04-11T11:52:20.004Z</time></trkpt><trkpt lat="44.8230317" lon="9.3629617"><ele>1028.3333333333333</ele><time>2026-04-11T11:52:23.003Z</time></trkpt><trkpt lat="44.8231117" lon="9.3629267"><ele>1026.1666666666665</ele><time>2026-04-11T11:52:26.002Z</time></trkpt><trkpt lat="44.823175" lon="9.3628933"><ele>1024.0</ele><time>2026-04-11T11:52:28.001Z</time></trkpt><trkpt lat="44.8232567" lon="9.362855"><ele>1024.0</ele><time>2026-04-11T11:52:30.001Z</time></trkpt><trkpt lat="44.8233433" lon="9.3628083"><ele>1023.9999999999999</ele><time>2026-04-11T11:52:32.001Z</time></trkpt><trkpt lat="44.823395" lon="9.3627483"><ele>1024.0</ele><time>2026-04-11T11:52:34.002Z</time></trkpt><trkpt lat="44.823385" lon="9.36266"><ele>1024.0</ele><time>2026-04-11T11:52:38.001Z</time></trkpt><trkpt lat="44.8234217" lon="9.3625833"><ele>1023.9999999999999</ele><time>2026-04-11T11:52:42.001Z</time></trkpt><trkpt lat="44.8234867" lon="9.3625933"><ele>1024.0</ele><time>2026-04-11T11:52:44.002Z</time></trkpt><trkpt lat="44.8235717" lon="9.36265"><ele>1024.0</ele><time>2026-04-11T11:52:47.002Z</time></trkpt><trkpt lat="44.82364" lon="9.36266"><ele>1017.1666666666666</ele><time>2026-04-11T11:52:50.001Z</time></trkpt><trkpt lat="44.823765" lon="9.3626233"><ele>1010.3333333333333</ele><time>2026-04-11T11:53:42Z</time></trkpt><trkpt lat="44.8238283" lon="9.3625783"><ele>1003.5</ele><time>2026-04-11T11:53:45.003Z</time></trkpt><trkpt lat="44.8239067" lon="9.36255"><ele>996.6666666666667</ele><time>2026-04-11T11:53:50.001Z</time></trkpt><trkpt lat="44.8239667" lon="9.3624967"><ele>989.8333333333334</ele><time>2026-04-11T11:53:55.001Z</time></trkpt><trkpt lat="44.824005" lon="9.36242"><ele>983.0</ele><time>2026-04-11T11:53:59.001Z</time></trkpt><trkpt lat="44.82406" lon="9.3623667"><ele>983.0000000000001</ele><time>2026-04-11T11:54:02.001Z</time></trkpt><trkpt lat="44.8241233" lon="9.3624333"><ele>983.0</ele><time>2026-04-11T11:54:06Z</time></trkpt><trkpt lat="44.8241683" lon="9.3625267"><ele>983.0</ele><time>2026-04-11T11:54:09.001Z</time></trkpt><trkpt lat="44.8240917" lon="9.36247"><ele>983.0</ele><time>2026-04-11T11:54:31.001Z</time></trkpt><trkpt lat="44.8240467" lon="9.3623983"><ele>983.0000000000001</ele><time>2026-04-11T11:54:34Z</time></trkpt><trkpt lat="44.8240417" lon="9.36226"><ele>983.0</ele><time>2026-04-11T11:54:41.001Z</time></trkpt><trkpt lat="44.8240717" lon="9.3621783"><ele>984.0</ele><time>2026-04-11T11:54:43Z</time></trkpt><trkpt lat="44.8241317" lon="9.36211"><ele>985.0</ele><time>2026-04-11T11:54:45.002Z</time></trkpt><trkpt lat="44.82419" lon="9.3620117"><ele>986.0</ele><time>2026-04-11T11:54:47Z</time></trkpt><trkpt lat="44.8242917" lon="9.36186"><ele>987.0</ele><time>2026-04-11T11:54:49.002Z</time></trkpt><trkpt lat="44.82435" lon="9.3617767"><ele>988.0</ele><time>2026-04-11T11:54:50.001Z</time></trkpt><trkpt lat="44.8244233" lon="9.36168"><ele>984.6666666666666</ele><time>2026-04-11T11:54:51.002Z</time></trkpt><trkpt lat="44.82449" lon="9.361585"><ele>981.3333333333333</ele><time>2026-04-11T11:54:52.001Z</time></trkpt><trkpt lat="44.8245583" lon="9.3615033"><ele>978.0</ele><time>2026-04-11T11:54:53.001Z</time></trkpt><trkpt lat="44.8246183" lon="9.3614317"><ele>974.6666666666667</ele><time>2026-04-11T11:54:54.001Z</time></trkpt><trkpt lat="44.824705" lon="9.361355"><ele>971.3333333333334</ele><time>2026-04-11T11:54:55.001Z</time></trkpt><trkpt lat="44.8247717" lon="9.3612933"><ele>968.0</ele><time>2026-04-11T11:54:56.001Z</time></trkpt><trkpt lat="44.82484" lon="9.361155"><ele>968.0000000000001</ele><time>2026-04-11T11:54:58.002Z</time></trkpt><trkpt lat="44.8248767" lon="9.3610667"><ele>968.0</ele><time>2026-04-11T11:54:59.001Z</time></trkpt><trkpt lat="44.8249" lon="9.36097"><ele>968.0</ele><time>2026-04-11T11:55:00.002Z</time></trkpt><trkpt lat="44.8249267" lon="9.3608733"><ele>968.0</ele><time>2026-04-11T11:55:01.001Z</time></trkpt><trkpt lat="44.824965" lon="9.3607667"><ele>968.0000000000001</ele><time>2026-04-11T11:55:02.001Z</time></trkpt><trkpt lat="44.8250033" lon="9.3606467"><ele>968.0</ele><time>2026-04-11T11:55:03.001Z</time></trkpt><trkpt lat="44.8250267" lon="9.3605217"><ele>969.3333333333334</ele><time>2026-04-11T11:55:04.001Z</time></trkpt><trkpt lat="44.82505" lon="9.3604"><ele>970.6666666666667</ele><time>2026-04-11T11:55:05Z</time></trkpt><trkpt lat="44.8250833" lon="9.360285"><ele>972.0</ele><time>2026-04-11T11:55:06.002Z</time></trkpt><trkpt lat="44.825125" lon="9.3601767"><ele>973.3333333333333</ele><time>2026-04-11T11:55:07Z</time></trkpt><trkpt lat="44.82517" lon="9.3600733"><ele>974.6666666666666</ele><time>2026-04-11T11:55:08.002Z</time></trkpt><trkpt lat="44.8252033" lon="9.3599717"><ele>976.0</ele><time>2026-04-11T11:55:09.001Z</time></trkpt><trkpt lat="44.8252267" lon="9.3598683"><ele>972.3333333333333</ele><time>2026-04-11T11:55:10Z</time></trkpt><trkpt lat="44.82524" lon="9.3597617"><ele>968.6666666666666</ele><time>2026-04-11T11:55:11.001Z</time></trkpt><trkpt lat="44.82526" lon="9.3596517"><ele>965.0</ele><time>2026-04-11T11:55:12.001Z</time></trkpt><trkpt lat="44.8252817" lon="9.359535"><ele>961.3333333333333</ele><time>2026-04-11T11:55:13.002Z</time></trkpt><trkpt lat="44.8253133" lon="9.35942"><ele>957.6666666666666</ele><time>2026-04-11T11:55:14.002Z</time></trkpt><trkpt lat="44.8253483" lon="9.3593133"><ele>954.0</ele><time>2026-04-11T11:55:15.002Z</time></trkpt><trkpt lat="44.8253867" lon="9.35921"><ele>954.0</ele><time>2026-04-11T11:55:16.002Z</time></trkpt><trkpt lat="44.8254333" lon="9.3591083"><ele>954.0</ele><time>2026-04-11T11:55:17.001Z</time></trkpt><trkpt lat="44.825465" lon="9.3590167"><ele>954.0</ele><time>2026-04-11T11:55:18.001Z</time></trkpt><trkpt lat="44.8254867" lon="9.358905"><ele>954.0</ele><time>2026-04-11T11:55:19Z</time></trkpt><trkpt lat="44.82551" lon="9.3587883"><ele>954.0</ele><time>2026-04-11T11:55:20.001Z</time></trkpt><trkpt lat="44.8255333" lon="9.3586833"><ele>954.0</ele><time>2026-04-11T11:55:21.002Z</time></trkpt><trkpt lat="44.8255667" lon="9.35858"><ele>953.5</ele><time>2026-04-11T11:55:22.001Z</time></trkpt><trkpt lat="44.82561" lon="9.3584867"><ele>953.0</ele><time>2026-04-11T11:55:23Z</time></trkpt><trkpt lat="44.8256667" lon="9.358405"><ele>952.5</ele><time>2026-04-11T11:55:24.001Z</time></trkpt><trkpt lat="44.8257383" lon="9.358335"><ele>952.0</ele><time>2026-04-11T11:55:25.001Z</time></trkpt><trkpt lat="44.82583" lon="9.3582783"><ele>951.5</ele><time>2026-04-11T11:55:26.001Z</time></trkpt><trkpt lat="44.8259117" lon="9.3582367"><ele>951.0</ele><time>2026-04-11T11:55:27.002Z</time></trkpt><trkpt lat="44.8260033" lon="9.3581917"><ele>951.0</ele><time>2026-04-11T11:55:28Z</time></trkpt><trkpt lat="44.8260767" lon="9.3581717"><ele>950.9999999999999</ele><time>2026-04-11T11:55:29.002Z</time></trkpt><trkpt lat="44.8261533" lon="9.3581667"><ele>950.9999999999999</ele><time>2026-04-11T11:55:30Z</time></trkpt><trkpt lat="44.8262767" lon="9.358185"><ele>951.0</ele><time>2026-04-11T11:55:32Z</time></trkpt><trkpt lat="44.82634" lon="9.3581983"><ele>951.0</ele><time>2026-04-11T11:55:33.005Z</time></trkpt><trkpt lat="44.82647" lon="9.3582117"><ele>951.0</ele><time>2026-04-11T11:55:35.002Z</time></trkpt><trkpt lat="44.8265417" lon="9.3582017"><ele>951.0</ele><time>2026-04-11T11:55:36.001Z</time></trkpt><trkpt lat="44.82661" lon="9.3581817"><ele>951.0</ele><time>2026-04-11T11:55:37.001Z</time></trkpt><trkpt lat="44.8267133" lon="9.3581467"><ele>951.0</ele><time>2026-04-11T11:55:39.001Z</time></trkpt><trkpt lat="44.8268033" lon="9.3581467"><ele>951.0</ele><time>2026-04-11T11:55:42.001Z</time></trkpt><trkpt lat="44.8268717" lon="9.358105"><ele>951.0</ele><time>2026-04-11T11:55:45.002Z</time></trkpt><trkpt lat="44.82693" lon="9.3580583"><ele>949.1666666666666</ele><time>2026-04-11T11:55:47.001Z</time></trkpt><trkpt lat="44.8270086" lon="9.3580504"><ele>947.3333333333333</ele><time>2026-04-11T11:55:49.992Z</time></trkpt><trkpt lat="44.8270841" lon="9.3580286"><ele>945.5</ele><time>2026-04-11T11:55:52.049Z</time></trkpt><trkpt lat="44.8271154" lon="9.3579088"><ele>943.6666666666666</ele><time>2026-04-11T11:55:54.032Z</time></trkpt><trkpt lat="44.8272023" lon="9.3578728"><ele>941.8333333333333</ele><time>2026-04-11T11:55:56.031Z</time></trkpt><trkpt lat="44.8272751" lon="9.3578462"><ele>940.0</ele><time>2026-04-11T11:55:57.952Z</time></trkpt><trkpt lat="44.8273799" lon="9.3577866"><ele>939.4999999999999</ele><time>2026-04-11T11:56:00.002Z</time></trkpt><trkpt lat="44.8274488" lon="9.3577609"><ele>939.0</ele><time>2026-04-11T11:56:02.013Z</time></trkpt><trkpt lat="44.8275435" lon="9.3577973"><ele>938.5</ele><time>2026-04-11T11:56:04.002Z</time></trkpt><trkpt lat="44.8276193" lon="9.3578199"><ele>938.0</ele><time>2026-04-11T11:56:06.07Z</time></trkpt><trkpt lat="44.827684" lon="9.3577573"><ele>937.4999999999999</ele><time>2026-04-11T11:56:08.076Z</time></trkpt><trkpt lat="44.8276992" lon="9.3576696"><ele>937.0</ele><time>2026-04-11T11:56:10.055Z</time></trkpt><trkpt lat="44.8277219" lon="9.3575614"><ele>933.6</ele><time>2026-04-11T11:56:12.359Z</time></trkpt><trkpt lat="44.8278017" lon="9.357455"><ele>930.2</ele><time>2026-04-11T11:56:15.003Z</time></trkpt><trkpt lat="44.82787" lon="9.3573833"><ele>926.8</ele><time>2026-04-11T11:56:17.002Z</time></trkpt><trkpt lat="44.827905" lon="9.3572817"><ele>923.4</ele><time>2026-04-11T11:56:19.001Z</time></trkpt><trkpt lat="44.827935" lon="9.3571767"><ele>920.0</ele><time>2026-04-11T11:56:21.002Z</time></trkpt><trkpt lat="44.8280033" lon="9.35707"><ele>920.0000000000001</ele><time>2026-04-11T11:56:23.001Z</time></trkpt><trkpt lat="44.8280483" lon="9.3569833"><ele>920.0</ele><time>2026-04-11T11:56:25.001Z</time></trkpt><trkpt lat="44.82808" lon="9.356885"><ele>920.0</ele><time>2026-04-11T11:56:27.002Z</time></trkpt><trkpt lat="44.8281317" lon="9.3568183"><ele>920.0</ele><time>2026-04-11T11:56:29.001Z</time></trkpt><trkpt lat="44.828175" lon="9.3567083"><ele>920.0000000000001</ele><time>2026-04-11T11:56:32.002Z</time></trkpt><trkpt lat="44.8282133" lon="9.3566217"><ele>920.0</ele><time>2026-04-11T11:56:34Z</time></trkpt><trkpt lat="44.8282683" lon="9.35653"><ele>920.0000000000001</ele><time>2026-04-11T11:56:36.001Z</time></trkpt><trkpt lat="44.8283133" lon="9.3564383"><ele>920.0</ele><time>2026-04-11T11:56:38.001Z</time></trkpt><trkpt lat="44.8283567" lon="9.3563633"><ele>920.0</ele><time>2026-04-11T11:56:40Z</time></trkpt><trkpt lat="44.8284017" lon="9.3562967"><ele>920.0</ele><time>2026-04-11T11:56:42.001Z</time></trkpt><trkpt lat="44.8284367" lon="9.3562117"><ele>920.0000000000001</ele><time>2026-04-11T11:56:44.001Z</time></trkpt><trkpt lat="44.8285067" lon="9.3561217"><ele>920.0</ele><time>2026-04-11T11:56:47.002Z</time></trkpt><trkpt lat="44.8286167" lon="9.35609"><ele>918.3333333333334</ele><time>2026-04-11T11:56:49.002Z</time></trkpt><trkpt lat="44.8286817" lon="9.3560833"><ele>916.6666666666667</ele><time>2026-04-11T11:56:50.002Z</time></trkpt><trkpt lat="44.8287533" lon="9.356065"><ele>915.0</ele><time>2026-04-11T11:56:51.003Z</time></trkpt><trkpt lat="44.828825" lon="9.35604"><ele>913.3333333333333</ele><time>2026-04-11T11:56:52.002Z</time></trkpt><trkpt lat="44.8288883" lon="9.3560017"><ele>911.6666666666666</ele><time>2026-04-11T11:56:53.001Z</time></trkpt><trkpt lat="44.8289467" lon="9.3559567"><ele>910.0</ele><time>2026-04-11T11:56:54.001Z</time></trkpt><trkpt lat="44.829045" lon="9.355885"><ele>910.0</ele><time>2026-04-11T11:56:56.001Z</time></trkpt><trkpt lat="44.829155" lon="9.35581"><ele>910.0</ele><time>2026-04-11T11:56:58.001Z</time></trkpt><trkpt lat="44.829215" lon="9.3557583"><ele>910.0</ele><time>2026-04-11T11:56:59.001Z</time></trkpt><trkpt lat="44.8292667" lon="9.3556833"><ele>910.0</ele><time>2026-04-11T11:57:00.001Z</time></trkpt><trkpt lat="44.8293267" lon="9.3555433"><ele>910.0</ele><time>2026-04-11T11:57:02.002Z</time></trkpt><trkpt lat="44.8294017" lon="9.3553983"><ele>908.2</ele><time>2026-04-11T11:57:04Z</time></trkpt><trkpt lat="44.8294967" lon="9.355275"><ele>906.4</ele><time>2026-04-11T11:57:06.002Z</time></trkpt><trkpt lat="44.8296033" lon="9.3551933"><ele>904.5999999999999</ele><time>2026-04-11T11:57:08.001Z</time></trkpt><trkpt lat="44.8297333" lon="9.35521"><ele>902.8</ele><time>2026-04-11T11:57:10.001Z</time></trkpt><trkpt lat="44.829795" lon="9.3552333"><ele>901.0</ele><time>2026-04-11T11:57:11.001Z</time></trkpt><trkpt lat="44.8298533" lon="9.355275"><ele>900.9999999999999</ele><time>2026-04-11T11:57:12.002Z</time></trkpt><trkpt lat="44.82995" lon="9.3553633"><ele>901.0</ele><time>2026-04-11T11:57:14.001Z</time></trkpt><trkpt lat="44.8300167" lon="9.3554083"><ele>901.0</ele><time>2026-04-11T11:57:16.001Z</time></trkpt><trkpt lat="44.8300817" lon="9.3554183"><ele>901.0</ele><time>2026-04-11T11:57:20.002Z</time></trkpt><trkpt lat="44.8301567" lon="9.3554417"><ele>900.9999999999999</ele><time>2026-04-11T11:57:24Z</time></trkpt><trkpt lat="44.8302317" lon="9.3554783"><ele>901.0</ele><time>2026-04-11T11:57:27.002Z</time></trkpt><trkpt lat="44.83033" lon="9.3556283"><ele>898.6666666666666</ele><time>2026-04-11T11:57:38.001Z</time></trkpt><trkpt lat="44.8303917" lon="9.3557"><ele>896.3333333333333</ele><time>2026-04-11T11:57:41.001Z</time></trkpt><trkpt lat="44.8304467" lon="9.355745"><ele>894.0</ele><time>2026-04-11T11:57:43.001Z</time></trkpt><trkpt lat="44.83054" lon="9.3557867"><ele>891.6666666666667</ele><time>2026-04-11T11:57:46.001Z</time></trkpt><trkpt lat="44.830605" lon="9.3557817"><ele>889.3333333333334</ele><time>2026-04-11T11:57:48.002Z</time></trkpt><trkpt lat="44.8306717" lon="9.355755"><ele>887.0</ele><time>2026-04-11T11:57:50.001Z</time></trkpt><trkpt lat="44.8307433" lon="9.355725"><ele>887.0</ele><time>2026-04-11T11:57:52.002Z</time></trkpt><trkpt lat="44.83085" lon="9.355725"><ele>887.0</ele><time>2026-04-11T11:57:54.001Z</time></trkpt><trkpt lat="44.8309467" lon="9.3557633"><ele>887.0</ele><time>2026-04-11T11:57:56Z</time></trkpt><trkpt lat="44.8310433" lon="9.355825"><ele>887.0</ele><time>2026-04-11T11:57:58.001Z</time></trkpt><trkpt lat="44.8311217" lon="9.3558983"><ele>887.0</ele><time>2026-04-11T11:58:00.002Z</time></trkpt><trkpt lat="44.83121" lon="9.3558833"><ele>884.4000000000001</ele><time>2026-04-11T11:58:02.003Z</time></trkpt><trkpt lat="44.8313217" lon="9.3558333"><ele>881.8000000000001</ele><time>2026-04-11T11:58:04.002Z</time></trkpt><trkpt lat="44.8314183" lon="9.3558017"><ele>879.2</ele><time>2026-04-11T11:58:06.002Z</time></trkpt><trkpt lat="44.831505" lon="9.3557133"><ele>876.6</ele><time>2026-04-11T11:58:08.002Z</time></trkpt><trkpt lat="44.8315617" lon="9.35564"><ele>874.0</ele><time>2026-04-11T11:58:09.003Z</time></trkpt><trkpt lat="44.8316233" lon="9.35557"><ele>874.1666666666666</ele><time>2026-04-11T11:58:10.003Z</time></trkpt><trkpt lat="44.831685" lon="9.3555067"><ele>874.3333333333333</ele><time>2026-04-11T11:58:11.001Z</time></trkpt><trkpt lat="44.83174" lon="9.3554467"><ele>874.5</ele><time>2026-04-11T11:58:12.001Z</time></trkpt><trkpt lat="44.8317967" lon="9.3553933"><ele>874.6666666666667</ele><time>2026-04-11T11:58:13.001Z</time></trkpt><trkpt lat="44.8318833" lon="9.3553383"><ele>874.8333333333334</ele><time>2026-04-11T11:58:15.002Z</time></trkpt><trkpt lat="44.8319867" lon="9.355345"><ele>875.0</ele><time>2026-04-11T11:59:21.002Z</time></trkpt><trkpt lat="44.8320883" lon="9.35542"><ele>874.2</ele><time>2026-04-11T11:59:23.001Z</time></trkpt><trkpt lat="44.8321433" lon="9.3554667"><ele>873.4</ele><time>2026-04-11T11:59:24.003Z</time></trkpt><trkpt lat="44.83223" lon="9.35556"><ele>872.5999999999999</ele><time>2026-04-11T11:59:26.001Z</time></trkpt><trkpt lat="44.8322983" lon="9.355665"><ele>871.8</ele><time>2026-04-11T11:59:28.001Z</time></trkpt><trkpt lat="44.8323833" lon="9.3557717"><ele>871.0</ele><time>2026-04-11T11:59:30.001Z</time></trkpt><trkpt lat="44.8324533" lon="9.35586"><ele>869.3333333333333</ele><time>2026-04-11T11:59:32.002Z</time></trkpt><trkpt lat="44.83252" lon="9.35591"><ele>867.6666666666666</ele><time>2026-04-11T11:59:34.001Z</time></trkpt><trkpt lat="44.8325533" lon="9.3559967"><ele>866.0</ele><time>2026-04-11T11:59:39Z</time></trkpt><trkpt lat="44.8324983" lon="9.3560933"><ele>864.3333333333333</ele><time>2026-04-11T11:59:41.001Z</time></trkpt><trkpt lat="44.8324167" lon="9.3562"><ele>862.6666666666666</ele><time>2026-04-11T11:59:43Z</time></trkpt><trkpt lat="44.8323667" lon="9.3563017"><ele>861.0</ele><time>2026-04-11T11:59:45.002Z</time></trkpt><trkpt lat="44.8323717" lon="9.3563933"><ele>858.6666666666666</ele><time>2026-04-11T12:00:04.001Z</time></trkpt><trkpt lat="44.83239" lon="9.356495"><ele>856.3333333333333</ele><time>2026-04-11T12:00:06.002Z</time></trkpt><trkpt lat="44.8324017" lon="9.3566233"><ele>854.0</ele><time>2026-04-11T12:00:08.001Z</time></trkpt><trkpt lat="44.8324017" lon="9.3567483"><ele>851.6666666666666</ele><time>2026-04-11T12:00:10.003Z</time></trkpt><trkpt lat="44.8323933" lon="9.3568817"><ele>849.3333333333333</ele><time>2026-04-11T12:00:12.001Z</time></trkpt><trkpt lat="44.8323667" lon="9.3569933"><ele>847.0</ele><time>2026-04-11T12:00:14.001Z</time></trkpt><trkpt lat="44.8323133" lon="9.3570867"><ele>846.9999999999999</ele><time>2026-04-11T12:00:16.001Z</time></trkpt><trkpt lat="44.83225" lon="9.3571467"><ele>847.0</ele><time>2026-04-11T12:00:18.002Z</time></trkpt><trkpt lat="44.8322567" lon="9.3572683"><ele>847.0</ele><time>2026-04-11T12:00:21.001Z</time></trkpt><trkpt lat="44.83232" lon="9.3573083"><ele>847.0</ele><time>2026-04-11T12:00:23.001Z</time></trkpt><trkpt lat="44.8323733" lon="9.3573633"><ele>846.9999999999999</ele><time>2026-04-11T12:00:25.001Z</time></trkpt><trkpt lat="44.832445" lon="9.3574217"><ele>847.0</ele><time>2026-04-11T12:00:28Z</time></trkpt><trkpt lat="44.8325133" lon="9.357465"><ele>845.9999999999999</ele><time>2026-04-11T12:00:30Z</time></trkpt><trkpt lat="44.832605" lon="9.3575317"><ele>845.0</ele><time>2026-04-11T12:00:32.001Z</time></trkpt><trkpt lat="44.8327033" lon="9.3575883"><ele>844.0</ele><time>2026-04-11T12:00:34.001Z</time></trkpt><trkpt lat="44.8327817" lon="9.3576217"><ele>843.0</ele><time>2026-04-11T12:00:36.001Z</time></trkpt><trkpt lat="44.8328433" lon="9.3576483"><ele>841.9999999999999</ele><time>2026-04-11T12:00:38.002Z</time></trkpt><trkpt lat="44.8329167" lon="9.357685"><ele>841.0</ele><time>2026-04-11T12:00:40.001Z</time></trkpt><trkpt lat="44.83298" lon="9.3577017"><ele>837.8</ele><time>2026-04-11T12:00:42.001Z</time></trkpt><trkpt lat="44.8330633" lon="9.3577217"><ele>834.5999999999999</ele><time>2026-04-11T12:00:45.001Z</time></trkpt><trkpt lat="44.8331233" lon="9.35781"><ele>831.4</ele><time>2026-04-11T12:00:47Z</time></trkpt><trkpt lat="44.8332183" lon="9.3579317"><ele>828.2</ele><time>2026-04-11T12:00:49.002Z</time></trkpt><trkpt lat="44.8332833" lon="9.3579883"><ele>825.0</ele><time>2026-04-11T12:00:50.002Z</time></trkpt><trkpt lat="44.8333533" lon="9.3580417"><ele>824.0</ele><time>2026-04-11T12:00:51.003Z</time></trkpt><trkpt lat="44.8334233" lon="9.358095"><ele>823.0</ele><time>2026-04-11T12:00:52.001Z</time></trkpt><trkpt lat="44.833485" lon="9.3581583"><ele>822.0</ele><time>2026-04-11T12:00:53.002Z</time></trkpt><trkpt lat="44.833525" lon="9.35824"><ele>821.0</ele><time>2026-04-11T12:00:54.002Z</time></trkpt><trkpt lat="44.833555" lon="9.3583333"><ele>820.0</ele><time>2026-04-11T12:00:55.002Z</time></trkpt><trkpt lat="44.8335817" lon="9.3584317"><ele>819.0</ele><time>2026-04-11T12:00:56.003Z</time></trkpt><trkpt lat="44.83361" lon="9.3585217"><ele>818.0</ele><time>2026-04-11T12:00:57.002Z</time></trkpt><trkpt lat="44.8336467" lon="9.3586017"><ele>815.5999999999999</ele><time>2026-04-11T12:00:58.001Z</time></trkpt><trkpt lat="44.8336933" lon="9.3586783"><ele>813.1999999999999</ele><time>2026-04-11T12:00:59.001Z</time></trkpt><trkpt lat="44.8337533" lon="9.3587567"><ele>810.8</ele><time>2026-04-11T12:01:00.001Z</time></trkpt><trkpt lat="44.8338267" lon="9.35884"><ele>808.4</ele><time>2026-04-11T12:01:01.001Z</time></trkpt><trkpt lat="44.833905" lon="9.35893"><ele>806.0</ele><time>2026-04-11T12:01:02.001Z</time></trkpt><trkpt lat="44.8339883" lon="9.3590217"><ele>804.8</ele><time>2026-04-11T12:01:03.002Z</time></trkpt><trkpt lat="44.8340683" lon="9.3591167"><ele>803.5999999999999</ele><time>2026-04-11T12:01:04.002Z</time></trkpt><trkpt lat="44.834145" lon="9.35922"><ele>802.4</ele><time>2026-04-11T12:01:05.001Z</time></trkpt><trkpt lat="44.8342167" lon="9.3593233"><ele>801.2</ele><time>2026-04-11T12:01:06.002Z</time></trkpt><trkpt lat="44.8342833" lon="9.3594217"><ele>800.0</ele><time>2026-04-11T12:01:07.002Z</time></trkpt><trkpt lat="44.8343417" lon="9.3595"><ele>797.3333333333334</ele><time>2026-04-11T12:01:08.001Z</time></trkpt><trkpt lat="44.8343967" lon="9.3595617"><ele>794.6666666666667</ele><time>2026-04-11T12:01:09.002Z</time></trkpt><trkpt lat="44.834495" lon="9.3596317"><ele>792.0</ele><time>2026-04-11T12:01:11.005Z</time></trkpt><trkpt lat="44.8345917" lon="9.3596983"><ele>789.3333333333333</ele><time>2026-04-11T12:01:13.001Z</time></trkpt><trkpt lat="44.8346483" lon="9.359755"><ele>786.6666666666666</ele><time>2026-04-11T12:01:14.001Z</time></trkpt><trkpt lat="44.8347133" lon="9.3598233"><ele>784.0</ele><time>2026-04-11T12:01:15.001Z</time></trkpt><trkpt lat="44.834775" lon="9.3598917"><ele>782.6666666666666</ele><time>2026-04-11T12:01:16.001Z</time></trkpt><trkpt lat="44.83484" lon="9.3599633"><ele>781.3333333333333</ele><time>2026-04-11T12:01:17.002Z</time></trkpt><trkpt lat="44.834905" lon="9.3600333"><ele>780.0</ele><time>2026-04-11T12:01:18.001Z</time></trkpt><trkpt lat="44.8349667" lon="9.3601017"><ele>778.6666666666667</ele><time>2026-04-11T12:01:19.001Z</time></trkpt><trkpt lat="44.8350217" lon="9.3601683"><ele>777.3333333333334</ele><time>2026-04-11T12:01:20.004Z</time></trkpt><trkpt lat="44.8350917" lon="9.360315"><ele>776.0</ele><time>2026-04-11T12:01:22.002Z</time></trkpt><trkpt lat="44.8351233" lon="9.3604017"><ele>773.6666666666667</ele><time>2026-04-11T12:01:23.001Z</time></trkpt><trkpt lat="44.8351683" lon="9.3604917"><ele>771.3333333333334</ele><time>2026-04-11T12:01:24.001Z</time></trkpt><trkpt lat="44.8352183" lon="9.3605683"><ele>769.0</ele><time>2026-04-11T12:01:25.002Z</time></trkpt><trkpt lat="44.8352817" lon="9.36063"><ele>766.6666666666667</ele><time>2026-04-11T12:01:26.001Z</time></trkpt><trkpt lat="44.8353567" lon="9.3606767"><ele>764.3333333333334</ele><time>2026-04-11T12:01:27.002Z</time></trkpt><trkpt lat="44.8354383" lon="9.3607183"><ele>762.0</ele><time>2026-04-11T12:01:28.001Z</time></trkpt><trkpt lat="44.8355217" lon="9.3607717"><ele>760.5</ele><time>2026-04-11T12:01:29.001Z</time></trkpt><trkpt lat="44.8356" lon="9.3608317"><ele>759.0</ele><time>2026-04-11T12:01:30.001Z</time></trkpt><trkpt lat="44.835675" lon="9.3608933"><ele>757.5</ele><time>2026-04-11T12:01:31.001Z</time></trkpt><trkpt lat="44.8357517" lon="9.3609517"><ele>756.0</ele><time>2026-04-11T12:01:32.001Z</time></trkpt><trkpt lat="44.8358283" lon="9.3610083"><ele>754.5</ele><time>2026-04-11T12:01:33.002Z</time></trkpt><trkpt lat="44.8359017" lon="9.361065"><ele>753.0</ele><time>2026-04-11T12:01:34.001Z</time></trkpt><trkpt lat="44.83597" lon="9.3611317"><ele>751.3333333333334</ele><time>2026-04-11T12:01:35.001Z</time></trkpt><trkpt lat="44.8360367" lon="9.3611983"><ele>749.6666666666666</ele><time>2026-04-11T12:01:36.002Z</time></trkpt><trkpt lat="44.836105" lon="9.3612533"><ele>748.0</ele><time>2026-04-11T12:01:37.002Z</time></trkpt><trkpt lat="44.836175" lon="9.3613"><ele>746.3333333333333</ele><time>2026-04-11T12:01:38.002Z</time></trkpt><trkpt lat="44.836245" lon="9.3613483"><ele>744.6666666666666</ele><time>2026-04-11T12:01:39.001Z</time></trkpt><trkpt lat="44.8363117" lon="9.3614"><ele>743.0</ele><time>2026-04-11T12:01:40.001Z</time></trkpt><trkpt lat="44.8363783" lon="9.361455"><ele>741.1666666666666</ele><time>2026-04-11T12:01:41.002Z</time></trkpt><trkpt lat="44.836435" lon="9.3615"><ele>739.3333333333333</ele><time>2026-04-11T12:01:42.001Z</time></trkpt><trkpt lat="44.8365333" lon="9.361625"><ele>737.5</ele><time>2026-04-11T12:01:44.001Z</time></trkpt><trkpt lat="44.83659" lon="9.3617067"><ele>735.6666666666666</ele><time>2026-04-11T12:01:45.002Z</time></trkpt><trkpt lat="44.8366433" lon="9.36178"><ele>733.8333333333334</ele><time>2026-04-11T12:01:46.002Z</time></trkpt><trkpt lat="44.8366833" lon="9.3618533"><ele>732.0</ele><time>2026-04-11T12:01:47.001Z</time></trkpt><trkpt lat="44.8367083" lon="9.362"><ele>732.0</ele><time>2026-04-11T12:01:49.001Z</time></trkpt><trkpt lat="44.8367067" lon="9.3621317"><ele>732.0</ele><time>2026-04-11T12:01:51.002Z</time></trkpt><trkpt lat="44.8367617" lon="9.362235"><ele>732.0</ele><time>2026-04-11T12:01:53.001Z</time></trkpt><trkpt lat="44.8368217" lon="9.3622967"><ele>732.0</ele><time>2026-04-11T12:01:54Z</time></trkpt><trkpt lat="44.836885" lon="9.3623667"><ele>732.0</ele><time>2026-04-11T12:01:55.001Z</time></trkpt><trkpt lat="44.8369483" lon="9.36244"><ele>732.0</ele><time>2026-04-11T12:01:56.001Z</time></trkpt><trkpt lat="44.8370017" lon="9.3625133"><ele>729.0</ele><time>2026-04-11T12:01:57.005Z</time></trkpt><trkpt lat="44.8370467" lon="9.362585"><ele>726.0</ele><time>2026-04-11T12:01:58.001Z</time></trkpt><trkpt lat="44.8370867" lon="9.3627317"><ele>723.0</ele><time>2026-04-11T12:02:00.001Z</time></trkpt><trkpt lat="44.837075" lon="9.362915"><ele>720.0</ele><time>2026-04-11T12:02:02.001Z</time></trkpt><trkpt lat="44.8370717" lon="9.3630117"><ele>717.0</ele><time>2026-04-11T12:02:03.001Z</time></trkpt><trkpt lat="44.8370783" lon="9.363115"><ele>715.8333333333334</ele><time>2026-04-11T12:02:04Z</time></trkpt><trkpt lat="44.83708" lon="9.3632183"><ele>714.6666666666666</ele><time>2026-04-11T12:02:05.001Z</time></trkpt><trkpt lat="44.8370683" lon="9.363325"><ele>713.5</ele><time>2026-04-11T12:02:06.001Z</time></trkpt><trkpt lat="44.8370533" lon="9.363445"><ele>712.3333333333333</ele><time>2026-04-11T12:02:07.001Z</time></trkpt><trkpt lat="44.837035" lon="9.363575"><ele>711.1666666666666</ele><time>2026-04-11T12:02:08.002Z</time></trkpt><trkpt lat="44.837015" lon="9.3637083"><ele>710.0</ele><time>2026-04-11T12:02:09.001Z</time></trkpt><trkpt lat="44.8369983" lon="9.363835"><ele>709.3333333333333</ele><time>2026-04-11T12:02:10.002Z</time></trkpt><trkpt lat="44.8369833" lon="9.363945"><ele>708.6666666666666</ele><time>2026-04-11T12:02:11.001Z</time></trkpt><trkpt lat="44.8369733" lon="9.364105"><ele>708.0</ele><time>2026-04-11T12:02:13.002Z</time></trkpt><trkpt lat="44.837005" lon="9.36425"><ele>707.3333333333334</ele><time>2026-04-11T12:02:15.002Z</time></trkpt><trkpt lat="44.837025" lon="9.364335"><ele>706.6666666666667</ele><time>2026-04-11T12:02:16.001Z</time></trkpt><trkpt lat="44.8370533" lon="9.3644317"><ele>706.0</ele><time>2026-04-11T12:02:17.001Z</time></trkpt><trkpt lat="44.83709" lon="9.3645367"><ele>706.0</ele><time>2026-04-11T12:02:18.001Z</time></trkpt><trkpt lat="44.837125" lon="9.3646467"><ele>706.0</ele><time>2026-04-11T12:02:19.002Z</time></trkpt><trkpt lat="44.8371567" lon="9.36475"><ele>706.0</ele><time>2026-04-11T12:02:20.001Z</time></trkpt><trkpt lat="44.83719" lon="9.3648483"><ele>706.0</ele><time>2026-04-11T12:02:21.001Z</time></trkpt><trkpt lat="44.8372183" lon="9.3649417"><ele>706.0</ele><time>2026-04-11T12:02:22.001Z</time></trkpt><trkpt lat="44.837255" lon="9.365025"><ele>706.0</ele><time>2026-04-11T12:02:23.001Z</time></trkpt><trkpt lat="44.8373" lon="9.3651067"><ele>704.5714285714286</ele><time>2026-04-11T12:02:24.001Z</time></trkpt><trkpt lat="44.83735" lon="9.3651967"><ele>703.1428571428572</ele><time>2026-04-11T12:02:25.002Z</time></trkpt><trkpt lat="44.8374017" lon="9.3652717"><ele>701.7142857142858</ele><time>2026-04-11T12:02:26.002Z</time></trkpt><trkpt lat="44.8374533" lon="9.3653383"><ele>700.2857142857142</ele><time>2026-04-11T12:02:27.002Z</time></trkpt><trkpt lat="44.8375" lon="9.365405"><ele>698.8571428571429</ele><time>2026-04-11T12:02:28.001Z</time></trkpt><trkpt lat="44.837545" lon="9.3654733"><ele>697.4285714285714</ele><time>2026-04-11T12:02:29.002Z</time></trkpt><trkpt lat="44.8375967" lon="9.365545"><ele>696.0</ele><time>2026-04-11T12:02:30.001Z</time></trkpt><trkpt lat="44.8376517" lon="9.365605"><ele>692.0</ele><time>2026-04-11T12:02:31.001Z</time></trkpt><trkpt lat="44.8377517" lon="9.365725"><ele>688.0</ele><time>2026-04-11T12:02:33Z</time></trkpt><trkpt lat="44.8378033" lon="9.3657983"><ele>684.0</ele><time>2026-04-11T12:02:34.001Z</time></trkpt><trkpt lat="44.837855" lon="9.365895"><ele>680.0</ele><time>2026-04-11T12:02:35Z</time></trkpt><trkpt lat="44.8379017" lon="9.366"><ele>676.0</ele><time>2026-04-11T12:02:36.001Z</time></trkpt><trkpt lat="44.8379433" lon="9.3661217"><ele>676.0</ele><time>2026-04-11T12:02:37.001Z</time></trkpt><trkpt lat="44.837975" lon="9.36624"><ele>676.0</ele><time>2026-04-11T12:02:38.002Z</time></trkpt><trkpt lat="44.8380067" lon="9.3663483"><ele>676.0</ele><time>2026-04-11T12:02:39.002Z</time></trkpt><trkpt lat="44.8380483" lon="9.3664583"><ele>676.0</ele><time>2026-04-11T12:02:40Z</time></trkpt><trkpt lat="44.8380933" lon="9.3665633"><ele>676.0</ele><time>2026-04-11T12:02:41.002Z</time></trkpt><trkpt lat="44.838135" lon="9.3666517"><ele>676.0</ele><time>2026-04-11T12:02:42.001Z</time></trkpt><trkpt lat="44.8381783" lon="9.3667533"><ele>676.3333333333334</ele><time>2026-04-11T12:02:43.002Z</time></trkpt><trkpt lat="44.8382233" lon="9.36686"><ele>676.6666666666667</ele><time>2026-04-11T12:02:44.001Z</time></trkpt><trkpt lat="44.8382683" lon="9.3669567"><ele>677.0</ele><time>2026-04-11T12:02:45.001Z</time></trkpt><trkpt lat="44.83831" lon="9.3670533"><ele>677.3333333333334</ele><time>2026-04-11T12:02:46.003Z</time></trkpt><trkpt lat="44.8383567" lon="9.36715"><ele>677.6666666666666</ele><time>2026-04-11T12:02:47.001Z</time></trkpt><trkpt lat="44.838405" lon="9.3672433"><ele>678.0</ele><time>2026-04-11T12:02:48.001Z</time></trkpt><trkpt lat="44.8384567" lon="9.3673433"><ele>674.5999999999999</ele><time>2026-04-11T12:02:49.001Z</time></trkpt><trkpt lat="44.8385033" lon="9.3674383"><ele>671.1999999999999</ele><time>2026-04-11T12:02:50.003Z</time></trkpt><trkpt lat="44.83855" lon="9.3675267"><ele>667.8</ele><time>2026-04-11T12:02:51.002Z</time></trkpt><trkpt lat="44.83859" lon="9.3676033"><ele>664.4</ele><time>2026-04-11T12:02:52.002Z</time></trkpt><trkpt lat="44.8386583" lon="9.36773"><ele>661.0</ele><time>2026-04-11T12:02:54.001Z</time></trkpt><trkpt lat="44.8387483" lon="9.3678417"><ele>661.0</ele><time>2026-04-11T12:02:56.003Z</time></trkpt><trkpt lat="44.8387933" lon="9.3679067"><ele>661.0</ele><time>2026-04-11T12:02:57.002Z</time></trkpt><trkpt lat="44.8388267" lon="9.3679833"><ele>661.0</ele><time>2026-04-11T12:02:58Z</time></trkpt><trkpt lat="44.8388683" lon="9.3681367"><ele>661.0</ele><time>2026-04-11T12:03:00.002Z</time></trkpt><trkpt lat="44.8388933" lon="9.3683033"><ele>661.0</ele><time>2026-04-11T12:03:02.001Z</time></trkpt><trkpt lat="44.8389333" lon="9.368465"><ele>660.1999999999999</ele><time>2026-04-11T12:03:04.002Z</time></trkpt><trkpt lat="44.8390083" lon="9.3686167"><ele>659.4</ele><time>2026-04-11T12:03:06Z</time></trkpt><trkpt lat="44.8390517" lon="9.36871"><ele>658.6</ele><time>2026-04-11T12:03:07.002Z</time></trkpt><trkpt lat="44.8390883" lon="9.3688133"><ele>657.8</ele><time>2026-04-11T12:03:08.001Z</time></trkpt><trkpt lat="44.8391217" lon="9.368925"><ele>657.0</ele><time>2026-04-11T12:03:09.002Z</time></trkpt><trkpt lat="44.8391483" lon="9.36903"><ele>654.6</ele><time>2026-04-11T12:03:10.001Z</time></trkpt><trkpt lat="44.839175" lon="9.3691217"><ele>652.2</ele><time>2026-04-11T12:03:11.002Z</time></trkpt><trkpt lat="44.8392333" lon="9.3692333"><ele>649.8</ele><time>2026-04-11T12:03:13.001Z</time></trkpt><trkpt lat="44.8393367" lon="9.3692617"><ele>647.4</ele><time>2026-04-11T12:03:16.002Z</time></trkpt><trkpt lat="44.8394283" lon="9.3692867"><ele>645.0</ele><time>2026-04-11T12:03:18.001Z</time></trkpt><trkpt lat="44.839535" lon="9.369365"><ele>643.2857142857143</ele><time>2026-04-11T12:03:20.003Z</time></trkpt><trkpt lat="44.83959" lon="9.3694117"><ele>641.5714285714286</ele><time>2026-04-11T12:03:21.002Z</time></trkpt><trkpt lat="44.839645" lon="9.3694633"><ele>639.8571428571429</ele><time>2026-04-11T12:03:22Z</time></trkpt><trkpt lat="44.8397033" lon="9.3694983"><ele>638.1428571428571</ele><time>2026-04-11T12:03:23.001Z</time></trkpt><trkpt lat="44.839765" lon="9.3695317"><ele>636.4285714285714</ele><time>2026-04-11T12:03:24.001Z</time></trkpt><trkpt lat="44.8398217" lon="9.3695833"><ele>634.7142857142857</ele><time>2026-04-11T12:03:25.002Z</time></trkpt><trkpt lat="44.8398717" lon="9.3696583"><ele>633.0</ele><time>2026-04-11T12:03:26.002Z</time></trkpt><trkpt lat="44.8399067" lon="9.3697517"><ele>631.0</ele><time>2026-04-11T12:03:27.001Z</time></trkpt><trkpt lat="44.8399433" lon="9.369845"><ele>629.0</ele><time>2026-04-11T12:03:28.001Z</time></trkpt><trkpt lat="44.839985" lon="9.3699433"><ele>627.0</ele><time>2026-04-11T12:03:29.001Z</time></trkpt><trkpt lat="44.8400317" lon="9.3700217"><ele>625.0</ele><time>2026-04-11T12:03:30.001Z</time></trkpt><trkpt lat="44.8401233" lon="9.3700683"><ele>623.0</ele><time>2026-04-11T12:03:32.002Z</time></trkpt><trkpt lat="44.8402233" lon="9.37013"><ele>621.0</ele><time>2026-04-11T12:03:34.001Z</time></trkpt><trkpt lat="44.8403067" lon="9.3702517"><ele>619.2</ele><time>2026-04-11T12:03:36.001Z</time></trkpt><trkpt lat="44.8403383" lon="9.370415"><ele>617.4000000000001</ele><time>2026-04-11T12:03:38.002Z</time></trkpt><trkpt lat="44.8403083" lon="9.370555"><ele>615.6</ele><time>2026-04-11T12:03:40.001Z</time></trkpt><trkpt lat="44.84025" lon="9.3706683"><ele>613.8000000000001</ele><time>2026-04-11T12:03:42Z</time></trkpt><trkpt lat="44.840195" lon="9.3707633"><ele>612.0</ele><time>2026-04-11T12:03:44.002Z</time></trkpt><trkpt lat="44.8402217" lon="9.3709267"><ele>612.1666666666666</ele><time>2026-04-11T12:04:36.001Z</time></trkpt><trkpt lat="44.8403383" lon="9.370995"><ele>612.3333333333334</ele><time>2026-04-11T12:04:38.001Z</time></trkpt><trkpt lat="44.8404" lon="9.3710517"><ele>612.5</ele><time>2026-04-11T12:04:39.003Z</time></trkpt><trkpt lat="44.8404483" lon="9.3711283"><ele>612.6666666666667</ele><time>2026-04-11T12:04:40.001Z</time></trkpt><trkpt lat="44.84049" lon="9.3712017"><ele>612.8333333333334</ele><time>2026-04-11T12:04:41.001Z</time></trkpt><trkpt lat="44.8405083" lon="9.3712867"><ele>613.0</ele><time>2026-04-11T12:04:42.001Z</time></trkpt><trkpt lat="44.84052" lon="9.37143"><ele>613.0</ele><time>2026-04-11T12:04:44.001Z</time></trkpt><trkpt lat="44.8405267" lon="9.3715433"><ele>613.0</ele><time>2026-04-11T12:04:47.002Z</time></trkpt><trkpt lat="44.8405533" lon="9.3716483"><ele>613.0</ele><time>2026-04-11T12:04:49.001Z</time></trkpt><trkpt lat="44.8406133" lon="9.3717667"><ele>613.0</ele><time>2026-04-11T12:04:51.002Z</time></trkpt><trkpt lat="44.8407183" lon="9.37185"><ele>613.0</ele><time>2026-04-11T12:04:53.002Z</time></trkpt><trkpt lat="44.8408483" lon="9.3719033"><ele>613.0</ele><time>2026-04-11T12:04:55.002Z</time></trkpt><trkpt lat="44.8409283" lon="9.3719367"><ele>613.0</ele><time>2026-04-11T12:04:56.001Z</time></trkpt><trkpt lat="44.8410033" lon="9.3719733"><ele>613.0</ele><time>2026-04-11T12:04:57.001Z</time></trkpt><trkpt lat="44.8410733" lon="9.372005"><ele>613.0</ele><time>2026-04-11T12:04:58.001Z</time></trkpt><trkpt lat="44.8411433" lon="9.37203"><ele>613.0</ele><time>2026-04-11T12:04:59.001Z</time></trkpt><trkpt lat="44.84122" lon="9.372055"><ele>613.0</ele><time>2026-04-11T12:05:00.002Z</time></trkpt><trkpt lat="44.841295" lon="9.372075"><ele>612.5</ele><time>2026-04-11T12:05:01.002Z</time></trkpt><trkpt lat="44.8413667" lon="9.37209"><ele>612.0</ele><time>2026-04-11T12:05:02.002Z</time></trkpt><trkpt lat="44.8414867" lon="9.3721183"><ele>611.5</ele><time>2026-04-11T12:05:04.003Z</time></trkpt><trkpt lat="44.8415533" lon="9.3721533"><ele>611.0</ele><time>2026-04-11T12:05:05.002Z</time></trkpt><trkpt lat="44.8416267" lon="9.3722"><ele>610.5</ele><time>2026-04-11T12:05:06.001Z</time></trkpt><trkpt lat="44.8417033" lon="9.372255"><ele>610.0</ele><time>2026-04-11T12:05:07.002Z</time></trkpt><trkpt lat="44.8417733" lon="9.37231"><ele>613.2857142857143</ele><time>2026-04-11T12:05:08.002Z</time></trkpt><trkpt lat="44.8418333" lon="9.3723683"><ele>616.5714285714286</ele><time>2026-04-11T12:05:09.003Z</time></trkpt><trkpt lat="44.8418867" lon="9.3724383"><ele>619.8571428571429</ele><time>2026-04-11T12:05:10.001Z</time></trkpt><trkpt lat="44.8419333" lon="9.3725233"><ele>623.1428571428571</ele><time>2026-04-11T12:05:11.003Z</time></trkpt><trkpt lat="44.8419767" lon="9.3726133"><ele>626.4285714285714</ele><time>2026-04-11T12:05:12.002Z</time></trkpt><trkpt lat="44.842025" lon="9.3726967"><ele>629.7142857142857</ele><time>2026-04-11T12:05:13Z</time></trkpt><trkpt lat="44.8420767" lon="9.37277"><ele>633.0</ele><time>2026-04-11T12:05:14Z</time></trkpt><trkpt lat="44.8421333" lon="9.3728283"><ele>633.0</ele><time>2026-04-11T12:05:15.002Z</time></trkpt><trkpt lat="44.8422" lon="9.3728683"><ele>633.0</ele><time>2026-04-11T12:05:16.001Z</time></trkpt><trkpt lat="44.84227" lon="9.37289"><ele>633.0</ele><time>2026-04-11T12:05:17.001Z</time></trkpt><trkpt lat="44.84234" lon="9.372895"><ele>633.0</ele><time>2026-04-11T12:05:18.001Z</time></trkpt><trkpt lat="44.8424067" lon="9.3728833"><ele>633.0</ele><time>2026-04-11T12:05:19.001Z</time></trkpt><trkpt lat="44.842475" lon="9.372855"><ele>633.0</ele><time>2026-04-11T12:05:20.002Z</time></trkpt><trkpt lat="44.84254" lon="9.372825"><ele>633.0</ele><time>2026-04-11T12:05:21.001Z</time></trkpt><trkpt lat="44.8426083" lon="9.3728083"><ele>632.6666666666666</ele><time>2026-04-11T12:05:22.002Z</time></trkpt><trkpt lat="44.842675" lon="9.3728083"><ele>632.3333333333334</ele><time>2026-04-11T12:05:23.001Z</time></trkpt><trkpt lat="44.8427433" lon="9.3728283"><ele>632.0</ele><time>2026-04-11T12:05:24.001Z</time></trkpt><trkpt lat="44.8428167" lon="9.3728733"><ele>631.6666666666667</ele><time>2026-04-11T12:05:25.001Z</time></trkpt><trkpt lat="44.8428933" lon="9.3729317"><ele>631.3333333333334</ele><time>2026-04-11T12:05:26Z</time></trkpt><trkpt lat="44.8429567" lon="9.3729917"><ele>631.0</ele><time>2026-04-11T12:05:27.001Z</time></trkpt><trkpt lat="44.8430367" lon="9.3731167"><ele>634.6</ele><time>2026-04-11T12:05:29.001Z</time></trkpt><trkpt lat="44.8430617" lon="9.3732333"><ele>638.2</ele><time>2026-04-11T12:05:31.001Z</time></trkpt><trkpt lat="44.8430517" lon="9.3734233"><ele>641.8000000000001</ele><time>2026-04-11T12:05:33.002Z</time></trkpt><trkpt lat="44.8430533" lon="9.3735583"><ele>645.4000000000001</ele><time>2026-04-11T12:05:34.001Z</time></trkpt><trkpt lat="44.8430567" lon="9.3736883"><ele>649.0</ele><time>2026-04-11T12:05:35.002Z</time></trkpt><trkpt lat="44.843055" lon="9.3738067"><ele>651.8333333333334</ele><time>2026-04-11T12:05:36.001Z</time></trkpt><trkpt lat="44.8430483" lon="9.3739083"><ele>654.6666666666667</ele><time>2026-04-11T12:05:37Z</time></trkpt><trkpt lat="44.8430483" lon="9.3740083"><ele>657.5</ele><time>2026-04-11T12:05:38.002Z</time></trkpt><trkpt lat="44.84306" lon="9.3741133"><ele>660.3333333333334</ele><time>2026-04-11T12:05:39.001Z</time></trkpt><trkpt lat="44.8431" lon="9.374205"><ele>663.1666666666666</ele><time>2026-04-11T12:05:40.001Z</time></trkpt><trkpt lat="44.84313" lon="9.374315"><ele>666.0</ele><time>2026-04-11T12:05:41.002Z</time></trkpt><trkpt lat="44.8431517" lon="9.3744233"><ele>666.0</ele><time>2026-04-11T12:05:42.002Z</time></trkpt><trkpt lat="44.84317" lon="9.3745267"><ele>666.0</ele><time>2026-04-11T12:05:43.001Z</time></trkpt><trkpt lat="44.84318" lon="9.3746283"><ele>666.0</ele><time>2026-04-11T12:05:44Z</time></trkpt><trkpt lat="44.8431833" lon="9.37472"><ele>666.0</ele><time>2026-04-11T12:05:45.001Z</time></trkpt><trkpt lat="44.84317" lon="9.3748333"><ele>666.0</ele><time>2026-04-11T12:05:47.002Z</time></trkpt><trkpt lat="44.8431167" lon="9.3748867"><ele>666.0</ele><time>2026-04-11T12:05:52.001Z</time></trkpt><trkpt lat="44.8430483" lon="9.3749083"><ele>666.0</ele><time>2026-04-11T12:05:54.002Z</time></trkpt><trkpt lat="44.8429617" lon="9.3748833"><ele>668.4</ele><time>2026-04-11T12:05:57.003Z</time></trkpt><trkpt lat="44.8428467" lon="9.3748517"><ele>670.8</ele><time>2026-04-11T12:05:59Z</time></trkpt><trkpt lat="44.8427567" lon="9.3747917"><ele>673.1999999999999</ele><time>2026-04-11T12:06:01.001Z</time></trkpt><trkpt lat="44.8426517" lon="9.3747483"><ele>675.5999999999999</ele><time>2026-04-11T12:06:03.003Z</time></trkpt><trkpt lat="44.8425517" lon="9.3747367"><ele>678.0</ele><time>2026-04-11T12:06:05.001Z</time></trkpt><trkpt lat="44.842485" lon="9.3747867"><ele>679.8</ele><time>2026-04-11T12:06:08.001Z</time></trkpt><trkpt lat="44.842505" lon="9.3748917"><ele>681.5999999999999</ele><time>2026-04-11T12:06:10.001Z</time></trkpt><trkpt lat="44.8425217" lon="9.375035"><ele>683.4000000000001</ele><time>2026-04-11T12:06:12.003Z</time></trkpt><trkpt lat="44.842535" lon="9.37516"><ele>685.2</ele><time>2026-04-11T12:06:14Z</time></trkpt><trkpt lat="44.842565" lon="9.37529"><ele>687.0</ele><time>2026-04-11T12:06:16Z</time></trkpt><trkpt lat="44.842585" lon="9.3754183"><ele>688.0</ele><time>2026-04-11T12:06:18.001Z</time></trkpt><trkpt lat="44.8426617" lon="9.3755433"><ele>689.0</ele><time>2026-04-11T12:06:20Z</time></trkpt><trkpt lat="44.842705" lon="9.3756817"><ele>690.0</ele><time>2026-04-11T12:06:22Z</time></trkpt><trkpt lat="44.8427083" lon="9.3758183"><ele>691.0</ele><time>2026-04-11T12:06:24.001Z</time></trkpt><trkpt lat="44.842685" lon="9.3759933"><ele>692.0</ele><time>2026-04-11T12:06:26.002Z</time></trkpt><trkpt lat="44.8426667" lon="9.37608"><ele>692.4000000000001</ele><time>2026-04-11T12:06:27.002Z</time></trkpt><trkpt lat="44.84263" lon="9.376235"><ele>692.8000000000001</ele><time>2026-04-11T12:06:29.002Z</time></trkpt><trkpt lat="44.8426317" lon="9.3763583"><ele>693.2</ele><time>2026-04-11T12:06:31.001Z</time></trkpt><trkpt lat="44.8427333" lon="9.3763967"><ele>693.6</ele><time>2026-04-11T12:06:34.001Z</time></trkpt><trkpt lat="44.8428067" lon="9.3763867"><ele>694.0</ele><time>2026-04-11T12:06:35.001Z</time></trkpt><trkpt lat="44.8428733" lon="9.3763683"><ele>693.6666666666667</ele><time>2026-04-11T12:06:36.001Z</time></trkpt><trkpt lat="44.8429417" lon="9.37635"><ele>693.3333333333334</ele><time>2026-04-11T12:06:37.002Z</time></trkpt><trkpt lat="44.84302" lon="9.37633"><ele>693.0</ele><time>2026-04-11T12:06:38.001Z</time></trkpt><trkpt lat="44.8431017" lon="9.376315"><ele>692.6666666666666</ele><time>2026-04-11T12:06:39.001Z</time></trkpt><trkpt lat="44.843185" lon="9.3762917"><ele>692.3333333333333</ele><time>2026-04-11T12:06:40.001Z</time></trkpt><trkpt lat="44.8432633" lon="9.3762667"><ele>692.0</ele><time>2026-04-11T12:06:41.002Z</time></trkpt><trkpt lat="44.84333" lon="9.3762467"><ele>692.0</ele><time>2026-04-11T12:06:42.002Z</time></trkpt><trkpt lat="44.843395" lon="9.37622"><ele>692.0</ele><time>2026-04-11T12:06:43.002Z</time></trkpt><trkpt lat="44.8435217" lon="9.3761933"><ele>692.0</ele><time>2026-04-11T12:06:45.001Z</time></trkpt><trkpt lat="44.8435917" lon="9.37621"><ele>692.0</ele><time>2026-04-11T12:06:46Z</time></trkpt><trkpt lat="44.8436667" lon="9.3762533"><ele>692.0</ele><time>2026-04-11T12:06:47.002Z</time></trkpt><trkpt lat="44.8437417" lon="9.3763017"><ele>692.0</ele><time>2026-04-11T12:06:48.001Z</time></trkpt><trkpt lat="44.8438033" lon="9.3763417"><ele>695.8</ele><time>2026-04-11T12:06:49Z</time></trkpt><trkpt lat="44.843915" lon="9.3763883"><ele>699.6</ele><time>2026-04-11T12:06:51.001Z</time></trkpt><trkpt lat="44.8440333" lon="9.3764083"><ele>703.4</ele><time>2026-04-11T12:06:53Z</time></trkpt><trkpt lat="44.8441317" lon="9.3764283"><ele>707.1999999999999</ele><time>2026-04-11T12:06:55.001Z</time></trkpt><trkpt lat="44.844225" lon="9.376475"><ele>711.0</ele><time>2026-04-11T12:06:57.001Z</time></trkpt><trkpt lat="44.844295" lon="9.3765217"><ele>710.5999999999999</ele><time>2026-04-11T12:06:59.001Z</time></trkpt><trkpt lat="44.8443733" lon="9.3765633"><ele>710.2</ele><time>2026-04-11T12:07:01.002Z</time></trkpt><trkpt lat="44.84449" lon="9.3765967"><ele>709.8</ele><time>2026-04-11T12:07:03.003Z</time></trkpt><trkpt lat="44.84455" lon="9.3766283"><ele>709.4000000000001</ele><time>2026-04-11T12:07:04.002Z</time></trkpt><trkpt lat="44.84464" lon="9.37671"><ele>709.0</ele><time>2026-04-11T12:07:06.002Z</time></trkpt><trkpt lat="44.8446967" lon="9.3767983"><ele>709.0000000000001</ele><time>2026-04-11T12:07:08.001Z</time></trkpt><trkpt lat="44.84473" lon="9.3768867"><ele>709.0</ele><time>2026-04-11T12:07:10.001Z</time></trkpt><trkpt lat="44.8447817" lon="9.37699"><ele>709.0</ele><time>2026-04-11T12:07:12.001Z</time></trkpt><trkpt lat="44.8448233" lon="9.3770667"><ele>709.0</ele><time>2026-04-11T12:07:13Z</time></trkpt><trkpt lat="44.8448683" lon="9.3771467"><ele>709.0</ele><time>2026-04-11T12:07:14.001Z</time></trkpt><trkpt lat="44.8449117" lon="9.3772233"><ele>709.0000000000001</ele><time>2026-04-11T12:07:15.001Z</time></trkpt><trkpt lat="44.844945" lon="9.3773117"><ele>709.0</ele><time>2026-04-11T12:07:16.001Z</time></trkpt><trkpt lat="44.8449717" lon="9.3774167"><ele>712.3333333333334</ele><time>2026-04-11T12:07:17.001Z</time></trkpt><trkpt lat="44.8449917" lon="9.3775317"><ele>715.6666666666667</ele><time>2026-04-11T12:07:18.001Z</time></trkpt><trkpt lat="44.8450133" lon="9.3776533"><ele>719.0</ele><time>2026-04-11T12:07:19.001Z</time></trkpt><trkpt lat="44.845045" lon="9.37777"><ele>722.3333333333334</ele><time>2026-04-11T12:07:20.001Z</time></trkpt><trkpt lat="44.845085" lon="9.3778717"><ele>725.6666666666666</ele><time>2026-04-11T12:07:21.001Z</time></trkpt><trkpt lat="44.845135" lon="9.377965"><ele>729.0</ele><time>2026-04-11T12:07:22Z</time></trkpt><trkpt lat="44.8452017" lon="9.37804"><ele>733.5</ele><time>2026-04-11T12:07:23Z</time></trkpt><trkpt lat="44.8452717" lon="9.3781083"><ele>738.0</ele><time>2026-04-11T12:07:24Z</time></trkpt><trkpt lat="44.8453367" lon="9.3781783"><ele>742.5</ele><time>2026-04-11T12:07:25Z</time></trkpt><trkpt lat="44.8453867" lon="9.3782467"><ele>747.0</ele><time>2026-04-11T12:07:26Z</time></trkpt><trkpt lat="44.8454283" lon="9.3783217"><ele>751.5</ele><time>2026-04-11T12:07:27.001Z</time></trkpt><trkpt lat="44.845495" lon="9.3784433"><ele>756.0</ele><time>2026-04-11T12:07:29.002Z</time></trkpt><trkpt lat="44.8455717" lon="9.378465"><ele>756.0</ele><time>2026-04-11T12:07:32.001Z</time></trkpt><trkpt lat="44.8456267" lon="9.378385"><ele>756.0</ele><time>2026-04-11T12:07:34Z</time></trkpt><trkpt lat="44.8456667" lon="9.3783033"><ele>756.0</ele><time>2026-04-11T12:07:35.001Z</time></trkpt><trkpt lat="44.8457117" lon="9.3782083"><ele>756.0</ele><time>2026-04-11T12:07:36Z</time></trkpt><trkpt lat="44.84576" lon="9.3781167"><ele>756.0</ele><time>2026-04-11T12:07:37.001Z</time></trkpt><trkpt lat="44.8458117" lon="9.378045"><ele>756.0</ele><time>2026-04-11T12:07:38.001Z</time></trkpt><trkpt lat="44.8458667" lon="9.3779933"><ele>756.0</ele><time>2026-04-11T12:07:40.001Z</time></trkpt><trkpt lat="44.8458433" lon="9.3781183"><ele>756.0</ele><time>2026-04-11T12:07:43.001Z</time></trkpt><trkpt lat="44.8458183" lon="9.3782833"><ele>756.0</ele><time>2026-04-11T12:07:45.001Z</time></trkpt><trkpt lat="44.8458167" lon="9.37838"><ele>756.0</ele><time>2026-04-11T12:07:46.001Z</time></trkpt><trkpt lat="44.8458267" lon="9.3784817"><ele>756.0</ele><time>2026-04-11T12:07:47Z</time></trkpt><trkpt lat="44.8458483" lon="9.3785983"><ele>756.0</ele><time>2026-04-11T12:07:48.001Z</time></trkpt><trkpt lat="44.8458733" lon="9.37872"><ele>756.0</ele><time>2026-04-11T12:07:49Z</time></trkpt><trkpt lat="44.8458933" lon="9.378835"><ele>756.0</ele><time>2026-04-11T12:07:50Z</time></trkpt><trkpt lat="44.8458983" lon="9.3789317"><ele>756.0</ele><time>2026-04-11T12:07:51.002Z</time></trkpt><trkpt lat="44.8458883" lon="9.3790283"><ele>756.0</ele><time>2026-04-11T12:07:52Z</time></trkpt><trkpt lat="44.8458583" lon="9.379115"><ele>756.0</ele><time>2026-04-11T12:07:53Z</time></trkpt><trkpt lat="44.8458167" lon="9.3791867"><ele>756.0</ele><time>2026-04-11T12:07:54.001Z</time></trkpt><trkpt lat="44.845765" lon="9.37924"><ele>756.0</ele><time>2026-04-11T12:07:55Z</time></trkpt><trkpt lat="44.8457067" lon="9.3793233"><ele>759.1999999999999</ele><time>2026-04-11T12:07:57.002Z</time></trkpt><trkpt lat="44.845775" lon="9.379365"><ele>762.4</ele><time>2026-04-11T12:08:01.002Z</time></trkpt><trkpt lat="44.8458783" lon="9.37927"><ele>765.6</ele><time>2026-04-11T12:08:03.003Z</time></trkpt><trkpt lat="44.8459433" lon="9.3792017"><ele>768.8</ele><time>2026-04-11T12:08:04.002Z</time></trkpt><trkpt lat="44.8460133" lon="9.3791283"><ele>772.0</ele><time>2026-04-11T12:08:05.001Z</time></trkpt><trkpt lat="44.84608" lon="9.37905"><ele>772.8333333333333</ele><time>2026-04-11T12:08:06.003Z</time></trkpt><trkpt lat="44.8461417" lon="9.3789633"><ele>773.6666666666666</ele><time>2026-04-11T12:08:07.001Z</time></trkpt><trkpt lat="44.8462017" lon="9.3788767"><ele>774.5</ele><time>2026-04-11T12:08:08.002Z</time></trkpt><trkpt lat="44.8462617" lon="9.3788017"><ele>775.3333333333333</ele><time>2026-04-11T12:08:09.001Z</time></trkpt><trkpt lat="44.8463083" lon="9.37873"><ele>776.1666666666666</ele><time>2026-04-11T12:08:10.001Z</time></trkpt><trkpt lat="44.84637" lon="9.3785967"><ele>777.0</ele><time>2026-04-11T12:08:12.002Z</time></trkpt><trkpt lat="44.8464383" lon="9.3785617"><ele>777.0</ele><time>2026-04-11T12:08:14.001Z</time></trkpt><trkpt lat="44.8464917" lon="9.3786333"><ele>777.0</ele><time>2026-04-11T12:08:16.001Z</time></trkpt><trkpt lat="44.8464867" lon="9.3788"><ele>777.0</ele><time>2026-04-11T12:08:18.001Z</time></trkpt><trkpt lat="44.84648" lon="9.37892"><ele>777.0</ele><time>2026-04-11T12:08:19Z</time></trkpt><trkpt lat="44.846475" lon="9.379045"><ele>777.0</ele><time>2026-04-11T12:08:20Z</time></trkpt><trkpt lat="44.846465" lon="9.37917"><ele>780.1666666666666</ele><time>2026-04-11T12:08:21.001Z</time></trkpt><trkpt lat="44.8464567" lon="9.3792967"><ele>783.3333333333333</ele><time>2026-04-11T12:08:22.003Z</time></trkpt><trkpt lat="44.8464483" lon="9.37942"><ele>786.5</ele><time>2026-04-11T12:08:23Z</time></trkpt><trkpt lat="44.84644" lon="9.3795333"><ele>789.6666666666666</ele><time>2026-04-11T12:08:24Z</time></trkpt><trkpt lat="44.84643" lon="9.3796283"><ele>792.8333333333333</ele><time>2026-04-11T12:08:25.002Z</time></trkpt><trkpt lat="44.8464017" lon="9.3797867"><ele>796.0</ele><time>2026-04-11T12:08:27.002Z</time></trkpt><trkpt lat="44.846375" lon="9.37992"><ele>799.1999999999999</ele><time>2026-04-11T12:08:29.002Z</time></trkpt><trkpt lat="44.846375" lon="9.3800317"><ele>802.4</ele><time>2026-04-11T12:08:31.001Z</time></trkpt><trkpt lat="44.8464133" lon="9.3801467"><ele>805.6</ele><time>2026-04-11T12:08:33.003Z</time></trkpt><trkpt lat="44.8465217" lon="9.380175"><ele>808.8</ele><time>2026-04-11T12:08:35.001Z</time></trkpt><trkpt lat="44.8466283" lon="9.3801583"><ele>812.0</ele><time>2026-04-11T12:08:37.002Z</time></trkpt><trkpt lat="44.8467183" lon="9.38012"><ele>812.0000000000001</ele><time>2026-04-11T12:08:39.001Z</time></trkpt><trkpt lat="44.8467883" lon="9.3801317"><ele>812.0</ele><time>2026-04-11T12:08:41.001Z</time></trkpt><trkpt lat="44.8468367" lon="9.380225"><ele>812.0</ele><time>2026-04-11T12:08:43.001Z</time></trkpt><trkpt lat="44.846845" lon="9.3803417"><ele>812.0</ele><time>2026-04-11T12:08:45.002Z</time></trkpt><trkpt lat="44.8468283" lon="9.3804517"><ele>812.0000000000001</ele><time>2026-04-11T12:08:47Z</time></trkpt><trkpt lat="44.846865" lon="9.380555"><ele>812.0</ele><time>2026-04-11T12:08:49.002Z</time></trkpt><trkpt lat="44.84695" lon="9.3806783"><ele>815.1428571428571</ele><time>2026-04-11T12:08:51.001Z</time></trkpt><trkpt lat="44.8469906" lon="9.3807609"><ele>818.2857142857142</ele><time>2026-04-11T12:08:52.002Z</time></trkpt><trkpt lat="44.8470126" lon="9.3808486"><ele>821.4285714285714</ele><time>2026-04-11T12:08:53.002Z</time></trkpt><trkpt lat="44.8470237" lon="9.3809458"><ele>824.5714285714286</ele><time>2026-04-11T12:08:54.001Z</time></trkpt><trkpt lat="44.8470258" lon="9.3810418"><ele>827.7142857142857</ele><time>2026-04-11T12:08:55Z</time></trkpt><trkpt lat="44.8470294" lon="9.3811392"><ele>830.8571428571429</ele><time>2026-04-11T12:08:56Z</time></trkpt><trkpt lat="44.8470558" lon="9.3812327"><ele>834.0</ele><time>2026-04-11T12:08:57.001Z</time></trkpt><trkpt lat="44.8470942" lon="9.3813208"><ele>835.1666666666666</ele><time>2026-04-11T12:08:58.001Z</time></trkpt><trkpt lat="44.847135" lon="9.3814118"><ele>836.3333333333333</ele><time>2026-04-11T12:08:59.001Z</time></trkpt><trkpt lat="44.8471743" lon="9.3814987"><ele>837.5</ele><time>2026-04-11T12:09:00.002Z</time></trkpt><trkpt lat="44.8472151" lon="9.3815716"><ele>838.6666666666666</ele><time>2026-04-11T12:09:01.001Z</time></trkpt><trkpt lat="44.8472978" lon="9.3816704"><ele>839.8333333333333</ele><time>2026-04-11T12:09:03.001Z</time></trkpt><trkpt lat="44.8473457" lon="9.3817433"><ele>841.0</ele><time>2026-04-11T12:09:05.001Z</time></trkpt><trkpt lat="44.847407" lon="9.3818286"><ele>840.9999999999999</ele><time>2026-04-11T12:10:24.001Z</time></trkpt><trkpt lat="44.8475057" lon="9.3818205"><ele>841.0</ele><time>2026-04-11T12:10:26.001Z</time></trkpt><trkpt lat="44.8476151" lon="9.3818508"><ele>841.0</ele><time>2026-04-11T12:10:28.003Z</time></trkpt><trkpt lat="44.8476737" lon="9.381886"><ele>841.0</ele><time>2026-04-11T12:10:29Z</time></trkpt><trkpt lat="44.8477335" lon="9.3819304"><ele>840.9999999999999</ele><time>2026-04-11T12:10:30Z</time></trkpt><trkpt lat="44.8477902" lon="9.381986"><ele>841.0</ele><time>2026-04-11T12:10:31Z</time></trkpt><trkpt lat="44.8478399" lon="9.3820438"><ele>840.4999999999999</ele><time>2026-04-11T12:10:32Z</time></trkpt><trkpt lat="44.8478962" lon="9.3821026"><ele>840.0</ele><time>2026-04-11T12:10:33Z</time></trkpt><trkpt lat="44.8479694" lon="9.3821631"><ele>839.5</ele><time>2026-04-11T12:10:34Z</time></trkpt><trkpt lat="44.8480521" lon="9.3822381"><ele>839.0</ele><time>2026-04-11T12:10:35.001Z</time></trkpt><trkpt lat="44.848133" lon="9.3823128"><ele>838.4999999999999</ele><time>2026-04-11T12:10:36.001Z</time></trkpt><trkpt lat="44.8482098" lon="9.3823856"><ele>838.0</ele><time>2026-04-11T12:10:37.001Z</time></trkpt><trkpt lat="44.8482776" lon="9.3824553"><ele>837.6666666666666</ele><time>2026-04-11T12:10:38.001Z</time></trkpt><trkpt lat="44.8483466" lon="9.3825319"><ele>837.3333333333333</ele><time>2026-04-11T12:10:39.001Z</time></trkpt><trkpt lat="44.8484105" lon="9.3826064"><ele>837.0</ele><time>2026-04-11T12:10:40Z</time></trkpt><trkpt lat="44.8484627" lon="9.3826804"><ele>836.6666666666667</ele><time>2026-04-11T12:10:41.001Z</time></trkpt><trkpt lat="44.8485012" lon="9.3827542"><ele>836.3333333333334</ele><time>2026-04-11T12:10:42.001Z</time></trkpt><trkpt lat="44.8485587" lon="9.3829093"><ele>836.0</ele><time>2026-04-11T12:10:44.002Z</time></trkpt><trkpt lat="44.848589" lon="9.3830022"><ele>831.1999999999999</ele><time>2026-04-11T12:10:45.001Z</time></trkpt><trkpt lat="44.8486189" lon="9.3830933"><ele>826.4</ele><time>2026-04-11T12:10:46.002Z</time></trkpt><trkpt lat="44.8486983" lon="9.3832003"><ele>821.6</ele><time>2026-04-11T12:10:48.001Z</time></trkpt><trkpt lat="44.848809" lon="9.3832358"><ele>816.8</ele><time>2026-04-11T12:10:50.001Z</time></trkpt><trkpt lat="44.8488836" lon="9.3832401"><ele>812.0</ele><time>2026-04-11T12:10:51.002Z</time></trkpt><trkpt lat="44.848965" lon="9.3832456"><ele>812.0000000000001</ele><time>2026-04-11T12:10:52.001Z</time></trkpt><trkpt lat="44.8490428" lon="9.3832466"><ele>812.0</ele><time>2026-04-11T12:10:53.001Z</time></trkpt><trkpt lat="44.8491216" lon="9.3832408"><ele>812.0</ele><time>2026-04-11T12:10:54.001Z</time></trkpt><trkpt lat="44.8491964" lon="9.3832145"><ele>812.0</ele><time>2026-04-11T12:10:55.001Z</time></trkpt><trkpt lat="44.8492662" lon="9.3831656"><ele>812.0000000000001</ele><time>2026-04-11T12:10:56.001Z</time></trkpt><trkpt lat="44.8493383" lon="9.383099"><ele>812.0</ele><time>2026-04-11T12:10:57.001Z</time></trkpt><trkpt lat="44.8494112" lon="9.3830326"><ele>809.2</ele><time>2026-04-11T12:10:58.001Z</time></trkpt><trkpt lat="44.8494819" lon="9.3829905"><ele>806.4000000000001</ele><time>2026-04-11T12:10:59Z</time></trkpt><trkpt lat="44.8495495" lon="9.3829753"><ele>803.5999999999999</ele><time>2026-04-11T12:11:00Z</time></trkpt><trkpt lat="44.84967" lon="9.3829828"><ele>800.8</ele><time>2026-04-11T12:11:02.002Z</time></trkpt><trkpt lat="44.8497707" lon="9.3830386"><ele>798.0</ele><time>2026-04-11T12:11:04.001Z</time></trkpt><trkpt lat="44.8498362" lon="9.3831676"><ele>798.0</ele><time>2026-04-11T12:11:06Z</time></trkpt><trkpt lat="44.849872" lon="9.3832408"><ele>798.0</ele><time>2026-04-11T12:11:07Z</time></trkpt><trkpt lat="44.8499254" lon="9.3833079"><ele>798.0</ele><time>2026-04-11T12:11:08Z</time></trkpt><trkpt lat="44.8500023" lon="9.3833732"><ele>798.0</ele><time>2026-04-11T12:11:09.003Z</time></trkpt><trkpt lat="44.8500812" lon="9.3834304"><ele>798.0</ele><time>2026-04-11T12:11:10Z</time></trkpt><trkpt lat="44.8501655" lon="9.3834886"><ele>798.0</ele><time>2026-04-11T12:11:11.003Z</time></trkpt><trkpt lat="44.8502393" lon="9.3835536"><ele>796.1666666666666</ele><time>2026-04-11T12:11:12.002Z</time></trkpt><trkpt lat="44.8502997" lon="9.3836281"><ele>794.3333333333333</ele><time>2026-04-11T12:11:13.001Z</time></trkpt><trkpt lat="44.8503509" lon="9.3837142"><ele>792.5</ele><time>2026-04-11T12:11:14.051Z</time></trkpt><trkpt lat="44.8503991" lon="9.3837943"><ele>790.6666666666666</ele><time>2026-04-11T12:11:15.002Z</time></trkpt><trkpt lat="44.8504518" lon="9.3838697"><ele>788.8333333333333</ele><time>2026-04-11T12:11:16.001Z</time></trkpt><trkpt lat="44.8505117" lon="9.3839267"><ele>787.0</ele><time>2026-04-11T12:11:17Z</time></trkpt><trkpt lat="44.850585" lon="9.3839667"><ele>786.4285714285714</ele><time>2026-04-11T12:11:18.001Z</time></trkpt><trkpt lat="44.8506617" lon="9.3840033"><ele>785.8571428571429</ele><time>2026-04-11T12:11:19.001Z</time></trkpt><trkpt lat="44.8507367" lon="9.38404"><ele>785.2857142857142</ele><time>2026-04-11T12:11:20.001Z</time></trkpt><trkpt lat="44.8508083" lon="9.3840617"><ele>784.7142857142858</ele><time>2026-04-11T12:11:21.003Z</time></trkpt><trkpt lat="44.8508767" lon="9.38406"><ele>784.1428571428572</ele><time>2026-04-11T12:11:22.003Z</time></trkpt><trkpt lat="44.850945" lon="9.3840267"><ele>783.5714285714286</ele><time>2026-04-11T12:11:23.001Z</time></trkpt><trkpt lat="44.8510117" lon="9.38398"><ele>783.0</ele><time>2026-04-11T12:11:24.001Z</time></trkpt><trkpt lat="44.8510717" lon="9.383945"><ele>781.1428571428571</ele><time>2026-04-11T12:11:25.002Z</time></trkpt><trkpt lat="44.8511333" lon="9.3839233"><ele>779.2857142857143</ele><time>2026-04-11T12:11:26.001Z</time></trkpt><trkpt lat="44.8511967" lon="9.3839117"><ele>777.4285714285714</ele><time>2026-04-11T12:11:27.002Z</time></trkpt><trkpt lat="44.8512633" lon="9.383895"><ele>775.5714285714286</ele><time>2026-04-11T12:11:28Z</time></trkpt><trkpt lat="44.85133" lon="9.3838717"><ele>773.7142857142858</ele><time>2026-04-11T12:11:29.001Z</time></trkpt><trkpt lat="44.8513933" lon="9.38386"><ele>771.8571428571429</ele><time>2026-04-11T12:11:30.002Z</time></trkpt><trkpt lat="44.851505" lon="9.383835"><ele>770.0</ele><time>2026-04-11T12:11:32.002Z</time></trkpt><trkpt lat="44.85158" lon="9.38377"><ele>770.0</ele><time>2026-04-11T12:11:34.001Z</time></trkpt><trkpt lat="44.8516767" lon="9.3837917"><ele>770.0</ele><time>2026-04-11T12:11:37.001Z</time></trkpt><trkpt lat="44.8517567" lon="9.3839183"><ele>770.0</ele><time>2026-04-11T12:11:39.002Z</time></trkpt><trkpt lat="44.8518033" lon="9.3839783"><ele>770.0</ele><time>2026-04-11T12:11:40.001Z</time></trkpt><trkpt lat="44.85191" lon="9.384035"><ele>770.0</ele><time>2026-04-11T12:11:42.002Z</time></trkpt><trkpt lat="44.8519783" lon="9.38403"><ele>767.1666666666667</ele><time>2026-04-11T12:11:43.002Z</time></trkpt><trkpt lat="44.8520583" lon="9.3840083"><ele>764.3333333333334</ele><time>2026-04-11T12:11:44.001Z</time></trkpt><trkpt lat="44.8521367" lon="9.3839783"><ele>761.5</ele><time>2026-04-11T12:11:45.002Z</time></trkpt><trkpt lat="44.8522233" lon="9.383945"><ele>758.6666666666667</ele><time>2026-04-11T12:11:46.001Z</time></trkpt><trkpt lat="44.8523133" lon="9.3839083"><ele>755.8333333333334</ele><time>2026-04-11T12:11:47.001Z</time></trkpt><trkpt lat="44.8524033" lon="9.383865"><ele>753.0</ele><time>2026-04-11T12:11:48.001Z</time></trkpt><trkpt lat="44.8524733" lon="9.3838217"><ele>751.8333333333334</ele><time>2026-04-11T12:11:49.001Z</time></trkpt><trkpt lat="44.8525417" lon="9.38377"><ele>750.6666666666666</ele><time>2026-04-11T12:11:50.002Z</time></trkpt><trkpt lat="44.8526083" lon="9.3837317"><ele>749.5</ele><time>2026-04-11T12:11:51.001Z</time></trkpt><trkpt lat="44.8526733" lon="9.3837183"><ele>748.3333333333333</ele><time>2026-04-11T12:11:52.001Z</time></trkpt><trkpt lat="44.8527383" lon="9.383725"><ele>747.1666666666666</ele><time>2026-04-11T12:11:53.003Z</time></trkpt><trkpt lat="44.852855" lon="9.383705"><ele>746.0</ele><time>2026-04-11T12:11:55Z</time></trkpt><trkpt lat="44.852915" lon="9.383665"><ele>746.0</ele><time>2026-04-11T12:11:56.001Z</time></trkpt><trkpt lat="44.8529783" lon="9.3836183"><ele>746.0</ele><time>2026-04-11T12:11:57.001Z</time></trkpt><trkpt lat="44.8530417" lon="9.3835817"><ele>746.0</ele><time>2026-04-11T12:11:58.001Z</time></trkpt><trkpt lat="44.8531783" lon="9.3835483"><ele>746.0</ele><time>2026-04-11T12:12:00.001Z</time></trkpt><trkpt lat="44.85325" lon="9.3835417"><ele>746.0</ele><time>2026-04-11T12:12:01.002Z</time></trkpt><trkpt lat="44.8533167" lon="9.3835333"><ele>746.0</ele><time>2026-04-11T12:12:02.001Z</time></trkpt><trkpt lat="44.853435" lon="9.3835033"><ele>745.8333333333333</ele><time>2026-04-11T12:12:04.001Z</time></trkpt><trkpt lat="44.85355" lon="9.3834583"><ele>745.6666666666666</ele><time>2026-04-11T12:12:06Z</time></trkpt><trkpt lat="44.853615" lon="9.3834167"><ele>745.5</ele><time>2026-04-11T12:12:07.001Z</time></trkpt><trkpt lat="44.8536867" lon="9.3833767"><ele>745.3333333333334</ele><time>2026-04-11T12:12:08.002Z</time></trkpt><trkpt lat="44.85377" lon="9.38333"><ele>745.1666666666667</ele><time>2026-04-11T12:12:09.003Z</time></trkpt><trkpt lat="44.8538533" lon="9.3832933"><ele>745.0</ele><time>2026-04-11T12:12:10.002Z</time></trkpt><trkpt lat="44.8539317" lon="9.3832533"><ele>745.0</ele><time>2026-04-11T12:12:11Z</time></trkpt><trkpt lat="44.8540067" lon="9.38321"><ele>745.0</ele><time>2026-04-11T12:12:12Z</time></trkpt><trkpt lat="44.8540883" lon="9.3831817"><ele>745.0</ele><time>2026-04-11T12:12:13.001Z</time></trkpt><trkpt lat="44.8541583" lon="9.383175"><ele>745.0</ele><time>2026-04-11T12:12:14Z</time></trkpt><trkpt lat="44.85423" lon="9.38316"><ele>745.0</ele><time>2026-04-11T12:12:15.001Z</time></trkpt><trkpt lat="44.8543067" lon="9.3831333"><ele>745.0</ele><time>2026-04-11T12:12:16Z</time></trkpt><trkpt lat="44.85438" lon="9.3830967"><ele>743.0</ele><time>2026-04-11T12:12:17Z</time></trkpt><trkpt lat="44.8544533" lon="9.38306"><ele>741.0</ele><time>2026-04-11T12:12:18.001Z</time></trkpt><trkpt lat="44.8545317" lon="9.3830333"><ele>739.0</ele><time>2026-04-11T12:12:19.001Z</time></trkpt><trkpt lat="44.8546067" lon="9.3829983"><ele>737.0</ele><time>2026-04-11T12:12:20.001Z</time></trkpt><trkpt lat="44.8546883" lon="9.38296"><ele>735.0</ele><time>2026-04-11T12:12:21.002Z</time></trkpt><trkpt lat="44.85477" lon="9.38292"><ele>733.0</ele><time>2026-04-11T12:12:22.003Z</time></trkpt><trkpt lat="44.8548567" lon="9.382855"><ele>732.2</ele><time>2026-04-11T12:12:23.002Z</time></trkpt><trkpt lat="44.8549367" lon="9.3827817"><ele>731.4</ele><time>2026-04-11T12:12:24.001Z</time></trkpt><trkpt lat="44.8550083" lon="9.38269"><ele>730.6</ele><time>2026-04-11T12:12:25.002Z</time></trkpt><trkpt lat="44.8550783" lon="9.3826033"><ele>729.8000000000001</ele><time>2026-04-11T12:12:26Z</time></trkpt><trkpt lat="44.8551567" lon="9.38253"><ele>729.0</ele><time>2026-04-11T12:12:27Z</time></trkpt><trkpt lat="44.855245" lon="9.38247"><ele>728.0</ele><time>2026-04-11T12:12:28.001Z</time></trkpt><trkpt lat="44.8553333" lon="9.3824183"><ele>727.0</ele><time>2026-04-11T12:12:29.002Z</time></trkpt><trkpt lat="44.8554167" lon="9.3823617"><ele>726.0</ele><time>2026-04-11T12:12:30.001Z</time></trkpt><trkpt lat="44.8554967" lon="9.3823067"><ele>725.0</ele><time>2026-04-11T12:12:31.001Z</time></trkpt><trkpt lat="44.8555683" lon="9.3822483"><ele>724.0</ele><time>2026-04-11T12:12:32.001Z</time></trkpt><trkpt lat="44.8556333" lon="9.3821883"><ele>723.0</ele><time>2026-04-11T12:12:33.002Z</time></trkpt><trkpt lat="44.8557067" lon="9.3820633"><ele>722.8333333333334</ele><time>2026-04-11T12:12:35.001Z</time></trkpt><trkpt lat="44.85575" lon="9.3819183"><ele>722.6666666666666</ele><time>2026-04-11T12:12:37Z</time></trkpt><trkpt lat="44.8557617" lon="9.3818167"><ele>722.5</ele><time>2026-04-11T12:12:38Z</time></trkpt><trkpt lat="44.8557783" lon="9.3817267"><ele>722.3333333333333</ele><time>2026-04-11T12:12:39.002Z</time></trkpt><trkpt lat="44.8558017" lon="9.3816383"><ele>722.1666666666666</ele><time>2026-04-11T12:12:40Z</time></trkpt><trkpt lat="44.8558833" lon="9.381535"><ele>722.0</ele><time>2026-04-11T12:12:42.002Z</time></trkpt><trkpt lat="44.8559517" lon="9.3814933"><ele>720.8</ele><time>2026-04-11T12:12:44.001Z</time></trkpt><trkpt lat="44.85604" lon="9.3814367"><ele>719.6</ele><time>2026-04-11T12:12:55Z</time></trkpt><trkpt lat="44.8561233" lon="9.3813483"><ele>718.4</ele><time>2026-04-11T12:12:57.001Z</time></trkpt><trkpt lat="44.856225" lon="9.3812983"><ele>717.1999999999999</ele><time>2026-04-11T12:12:59.001Z</time></trkpt><trkpt lat="44.856355" lon="9.3812583"><ele>716.0</ele><time>2026-04-11T12:13:01.002Z</time></trkpt><trkpt lat="44.856415" lon="9.3812067"><ele>716.0</ele><time>2026-04-11T12:13:02Z</time></trkpt><trkpt lat="44.856475" lon="9.38115"><ele>716.0</ele><time>2026-04-11T12:13:03.003Z</time></trkpt><trkpt lat="44.8565567" lon="9.3810267"><ele>716.0</ele><time>2026-04-11T12:13:05.001Z</time></trkpt><trkpt lat="44.8565867" lon="9.38089"><ele>716.0</ele><time>2026-04-11T12:13:07.001Z</time></trkpt><trkpt lat="44.856645" lon="9.3807683"><ele>716.0</ele><time>2026-04-11T12:13:09.001Z</time></trkpt><trkpt lat="44.8567367" lon="9.3806183"><ele>715.3333333333333</ele><time>2026-04-11T12:13:11.001Z</time></trkpt><trkpt lat="44.8567867" lon="9.3805183"><ele>714.6666666666666</ele><time>2026-04-11T12:13:12Z</time></trkpt><trkpt lat="44.8568483" lon="9.380415"><ele>714.0</ele><time>2026-04-11T12:13:13Z</time></trkpt><trkpt lat="44.8569117" lon="9.3803283"><ele>713.3333333333334</ele><time>2026-04-11T12:13:14Z</time></trkpt><trkpt lat="44.8569717" lon="9.38025"><ele>712.6666666666667</ele><time>2026-04-11T12:13:15.001Z</time></trkpt><trkpt lat="44.8570333" lon="9.3801583"><ele>712.0</ele><time>2026-04-11T12:13:16.001Z</time></trkpt><trkpt lat="44.8570883" lon="9.3800467"><ele>712.0</ele><time>2026-04-11T12:13:17.002Z</time></trkpt><trkpt lat="44.8571433" lon="9.379955"><ele>712.0</ele><time>2026-04-11T12:13:18.001Z</time></trkpt><trkpt lat="44.857195" lon="9.37989"><ele>712.0</ele><time>2026-04-11T12:13:19.001Z</time></trkpt><trkpt lat="44.8573167" lon="9.37986"><ele>712.0</ele><time>2026-04-11T12:13:21.002Z</time></trkpt><trkpt lat="44.8573983" lon="9.379875"><ele>712.0</ele><time>2026-04-11T12:13:22.001Z</time></trkpt><trkpt lat="44.8574833" lon="9.3798933"><ele>712.0</ele><time>2026-04-11T12:13:23.001Z</time></trkpt><trkpt lat="44.8575683" lon="9.3799167"><ele>709.8333333333334</ele><time>2026-04-11T12:13:24.001Z</time></trkpt><trkpt lat="44.8576483" lon="9.3799533"><ele>707.6666666666667</ele><time>2026-04-11T12:13:25.001Z</time></trkpt><trkpt lat="44.8577217" lon="9.38"><ele>705.5</ele><time>2026-04-11T12:13:26.001Z</time></trkpt><trkpt lat="44.857795" lon="9.3800433"><ele>703.3333333333334</ele><time>2026-04-11T12:13:27.002Z</time></trkpt><trkpt lat="44.85787" lon="9.3800883"><ele>701.1666666666666</ele><time>2026-04-11T12:13:28.001Z</time></trkpt><trkpt lat="44.857945" lon="9.3801333"><ele>699.0</ele><time>2026-04-11T12:13:29.001Z</time></trkpt><trkpt lat="44.8580233" lon="9.380165"><ele>699.0</ele><time>2026-04-11T12:13:30.003Z</time></trkpt><trkpt lat="44.8581083" lon="9.3801783"><ele>699.0</ele><time>2026-04-11T12:13:31.001Z</time></trkpt><trkpt lat="44.8581933" lon="9.3801817"><ele>699.0</ele><time>2026-04-11T12:13:32.001Z</time></trkpt><trkpt lat="44.8582733" lon="9.38018"><ele>699.0</ele><time>2026-04-11T12:13:33.003Z</time></trkpt><trkpt lat="44.858345" lon="9.38018"><ele>699.0</ele><time>2026-04-11T12:13:34.001Z</time></trkpt><trkpt lat="44.8584133" lon="9.3801917"><ele>699.0</ele><time>2026-04-11T12:13:35.001Z</time></trkpt><trkpt lat="44.8585183" lon="9.3802783"><ele>697.8333333333334</ele><time>2026-04-11T12:13:37.002Z</time></trkpt><trkpt lat="44.858565" lon="9.3803633"><ele>696.6666666666666</ele><time>2026-04-11T12:13:38.001Z</time></trkpt><trkpt lat="44.8586217" lon="9.3804583"><ele>695.5</ele><time>2026-04-11T12:13:39.003Z</time></trkpt><trkpt lat="44.8586783" lon="9.38055"><ele>694.3333333333333</ele><time>2026-04-11T12:13:40.001Z</time></trkpt><trkpt lat="44.8587333" lon="9.3806467"><ele>693.1666666666666</ele><time>2026-04-11T12:13:41.002Z</time></trkpt><trkpt lat="44.8587917" lon="9.3807467"><ele>692.0</ele><time>2026-04-11T12:13:42.001Z</time></trkpt><trkpt lat="44.8588533" lon="9.3808417"><ele>692.0</ele><time>2026-04-11T12:13:43.001Z</time></trkpt><trkpt lat="44.8589017" lon="9.3809267"><ele>692.0</ele><time>2026-04-11T12:13:44.002Z</time></trkpt><trkpt lat="44.85895" lon="9.381005"><ele>692.0</ele><time>2026-04-11T12:13:45.001Z</time></trkpt><trkpt lat="44.8589933" lon="9.381075"><ele>692.0</ele><time>2026-04-11T12:13:46Z</time></trkpt><trkpt lat="44.8590767" lon="9.3811767"><ele>692.0</ele><time>2026-04-11T12:13:48.001Z</time></trkpt><trkpt lat="44.8592033" lon="9.3812083"><ele>692.0</ele><time>2026-04-11T12:13:50.001Z</time></trkpt><trkpt lat="44.8592767" lon="9.3812033"><ele>692.0</ele><time>2026-04-11T12:13:51.002Z</time></trkpt><trkpt lat="44.8593467" lon="9.3811933"><ele>692.0</ele><time>2026-04-11T12:13:52.001Z</time></trkpt><trkpt lat="44.8594133" lon="9.3811833"><ele>692.0</ele><time>2026-04-11T12:13:53.002Z</time></trkpt><trkpt lat="44.85948" lon="9.3811883"><ele>692.0</ele><time>2026-04-11T12:13:54.001Z</time></trkpt><trkpt lat="44.85959" lon="9.3812483"><ele>692.0</ele><time>2026-04-11T12:13:56.003Z</time></trkpt><trkpt lat="44.8596833" lon="9.3813083"><ele>687.8</ele><time>2026-04-11T12:13:58.002Z</time></trkpt><trkpt lat="44.8597933" lon="9.38132"><ele>683.6</ele><time>2026-04-11T12:14:00.002Z</time></trkpt><trkpt lat="44.8598883" lon="9.381325"><ele>679.4</ele><time>2026-04-11T12:14:02.001Z</time></trkpt><trkpt lat="44.8599183" lon="9.3814367"><ele>675.1999999999999</ele><time>2026-04-11T12:14:04.001Z</time></trkpt><trkpt lat="44.8599167" lon="9.381575"><ele>671.0</ele><time>2026-04-11T12:14:06.001Z</time></trkpt><trkpt lat="44.85997" lon="9.3816383"><ele>669.75</ele><time>2026-04-11T12:14:08Z</time></trkpt><trkpt lat="44.8600933" lon="9.3816483"><ele>668.5</ele><time>2026-04-11T12:14:10.001Z</time></trkpt><trkpt lat="44.8601767" lon="9.3817433"><ele>667.25</ele><time>2026-04-11T12:14:12.001Z</time></trkpt><trkpt lat="44.8602183" lon="9.3818967"><ele>666.0</ele><time>2026-04-11T12:14:14.001Z</time></trkpt><trkpt lat="44.8602983" lon="9.38201"><ele>661.3333333333334</ele><time>2026-04-11T12:14:16.001Z</time></trkpt><trkpt lat="44.8603733" lon="9.3820533"><ele>656.6666666666666</ele><time>2026-04-11T12:14:18.003Z</time></trkpt><trkpt lat="44.8604483" lon="9.38197"><ele>652.0</ele><time>2026-04-11T12:14:20.001Z</time></trkpt><trkpt lat="44.8605117" lon="9.3818617"><ele>647.3333333333333</ele><time>2026-04-11T12:14:22Z</time></trkpt><trkpt lat="44.8605467" lon="9.38175"><ele>642.6666666666666</ele><time>2026-04-11T12:14:24.002Z</time></trkpt><trkpt lat="44.8605117" lon="9.3816467"><ele>638.0</ele><time>2026-04-11T12:14:26.002Z</time></trkpt><trkpt lat="44.860485" lon="9.3815367"><ele>638.0</ele><time>2026-04-11T12:14:28.002Z</time></trkpt><trkpt lat="44.86051" lon="9.381445"><ele>638.0</ele><time>2026-04-11T12:14:30.001Z</time></trkpt><trkpt lat="44.86052" lon="9.381355"><ele>638.0</ele><time>2026-04-11T12:14:32.002Z</time></trkpt><trkpt lat="44.860515" lon="9.3812533"><ele>638.0</ele><time>2026-04-11T12:16:05.001Z</time></trkpt><trkpt lat="44.8605267" lon="9.3811333"><ele>638.0</ele><time>2026-04-11T12:16:07.002Z</time></trkpt><trkpt lat="44.860565" lon="9.3809567"><ele>638.0</ele><time>2026-04-11T12:16:09.002Z</time></trkpt><trkpt lat="44.8605883" lon="9.3808433"><ele>638.0</ele><time>2026-04-11T12:16:10.002Z</time></trkpt><trkpt lat="44.8606083" lon="9.3807133"><ele>638.0</ele><time>2026-04-11T12:16:11.001Z</time></trkpt><trkpt lat="44.8606167" lon="9.3805817"><ele>638.0</ele><time>2026-04-11T12:16:12.001Z</time></trkpt><trkpt lat="44.860605" lon="9.3804517"><ele>638.0</ele><time>2026-04-11T12:16:13.001Z</time></trkpt><trkpt lat="44.8605767" lon="9.3803217"><ele>638.0</ele><time>2026-04-11T12:16:14.001Z</time></trkpt><trkpt lat="44.86054" lon="9.3802067"><ele>638.0</ele><time>2026-04-11T12:16:15.001Z</time></trkpt><trkpt lat="44.860505" lon="9.3801033"><ele>638.0</ele><time>2026-04-11T12:16:16.001Z</time></trkpt><trkpt lat="44.8604733" lon="9.380015"><ele>638.0</ele><time>2026-04-11T12:16:17.001Z</time></trkpt><trkpt lat="44.8604467" lon="9.3799283"><ele>638.0</ele><time>2026-04-11T12:16:18.001Z</time></trkpt><trkpt lat="44.8604167" lon="9.37984"><ele>638.0</ele><time>2026-04-11T12:16:19.001Z</time></trkpt><trkpt lat="44.860385" lon="9.379745"><ele>638.0</ele><time>2026-04-11T12:16:20.007Z</time></trkpt><trkpt lat="44.8603517" lon="9.379645"><ele>638.0</ele><time>2026-04-11T12:16:21.002Z</time></trkpt><trkpt lat="44.8603167" lon="9.3795417"><ele>636.8</ele><time>2026-04-11T12:16:22.002Z</time></trkpt><trkpt lat="44.86028" lon="9.37945"><ele>635.5999999999999</ele><time>2026-04-11T12:16:23.001Z</time></trkpt><trkpt lat="44.8602283" lon="9.3793267"><ele>634.4000000000001</ele><time>2026-04-11T12:16:25.002Z</time></trkpt><trkpt lat="44.8602367" lon="9.3792067"><ele>633.2</ele><time>2026-04-11T12:16:30.001Z</time></trkpt><trkpt lat="44.86033" lon="9.3791833"><ele>632.0</ele><time>2026-04-11T12:16:33.003Z</time></trkpt><trkpt lat="44.8604233" lon="9.3792317"><ele>632.0</ele><time>2026-04-11T12:16:35.001Z</time></trkpt><trkpt lat="44.8605333" lon="9.379255"><ele>632.0</ele><time>2026-04-11T12:16:37.002Z</time></trkpt><trkpt lat="44.8606383" lon="9.37921"><ele>632.0</ele><time>2026-04-11T12:16:39.002Z</time></trkpt><trkpt lat="44.860735" lon="9.3791517"><ele>632.0</ele><time>2026-04-11T12:16:41.001Z</time></trkpt><trkpt lat="44.8607967" lon="9.3790733"><ele>632.0</ele><time>2026-04-11T12:16:43.001Z</time></trkpt><trkpt lat="44.8608317" lon="9.3789733"><ele>632.0</ele><time>2026-04-11T12:16:45.002Z</time></trkpt><trkpt lat="44.8608533" lon="9.3788633"><ele>632.0</ele><time>2026-04-11T12:16:47.001Z</time></trkpt><trkpt lat="44.86091" lon="9.37876"><ele>632.0</ele><time>2026-04-11T12:16:49.001Z</time></trkpt><trkpt lat="44.861005" lon="9.3786583"><ele>632.0</ele><time>2026-04-11T12:16:51.002Z</time></trkpt><trkpt lat="44.8610917" lon="9.378535"><ele>632.0</ele><time>2026-04-11T12:16:53.002Z</time></trkpt><trkpt lat="44.861155" lon="9.37839"><ele>626.3333333333333</ele><time>2026-04-11T12:16:55.004Z</time></trkpt><trkpt lat="44.8612083" lon="9.3782867"><ele>620.6666666666666</ele><time>2026-04-11T12:16:57.002Z</time></trkpt><trkpt lat="44.8612817" lon="9.37825"><ele>615.0</ele><time>2026-04-11T12:16:59.001Z</time></trkpt><trkpt lat="44.861365" lon="9.3782517"><ele>609.3333333333334</ele><time>2026-04-11T12:17:01.001Z</time></trkpt><trkpt lat="44.861435" lon="9.3782717"><ele>603.6666666666667</ele><time>2026-04-11T12:17:03.001Z</time></trkpt><trkpt lat="44.861505" lon="9.3782967"><ele>598.0</ele><time>2026-04-11T12:17:05.001Z</time></trkpt><trkpt lat="44.8615633" lon="9.3783333"><ele>598.0</ele><time>2026-04-11T12:17:07.001Z</time></trkpt><trkpt lat="44.86163" lon="9.3783483"><ele>598.0</ele><time>2026-04-11T12:17:09.002Z</time></trkpt><trkpt lat="44.861695" lon="9.3783733"><ele>598.0</ele><time>2026-04-11T12:17:11.001Z</time></trkpt><trkpt lat="44.8617733" lon="9.3784267"><ele>598.0</ele><time>2026-04-11T12:17:13Z</time></trkpt><trkpt lat="44.8618567" lon="9.3784533"><ele>598.0</ele><time>2026-04-11T12:17:15.002Z</time></trkpt><trkpt lat="44.8619383" lon="9.3785267"><ele>598.0</ele><time>2026-04-11T12:17:17.001Z</time></trkpt><trkpt lat="44.86201" lon="9.3786133"><ele>593.0</ele><time>2026-04-11T12:17:19.003Z</time></trkpt><trkpt lat="44.862065" lon="9.378715"><ele>588.0</ele><time>2026-04-11T12:17:21.002Z</time></trkpt><trkpt lat="44.862075" lon="9.3788333"><ele>583.0</ele><time>2026-04-11T12:17:23.002Z</time></trkpt><trkpt lat="44.8620767" lon="9.3789367"><ele>578.0</ele><time>2026-04-11T12:17:25.001Z</time></trkpt><trkpt lat="44.862065" lon="9.3790667"><ele>573.0</ele><time>2026-04-11T12:17:28.002Z</time></trkpt><trkpt lat="44.8620667" lon="9.3792117"><ele>568.0</ele><time>2026-04-11T12:17:30.003Z</time></trkpt><trkpt lat="44.862065" lon="9.379305"><ele>568.0</ele><time>2026-04-11T12:17:31.003Z</time></trkpt><trkpt lat="44.8620583" lon="9.3794017"><ele>568.0</ele><time>2026-04-11T12:17:32.002Z</time></trkpt><trkpt lat="44.8620633" lon="9.3794933"><ele>568.0</ele><time>2026-04-11T12:17:33.002Z</time></trkpt><trkpt lat="44.8620767" lon="9.3795817"><ele>568.0</ele><time>2026-04-11T12:17:34.002Z</time></trkpt><trkpt lat="44.8621833" lon="9.3797017"><ele>568.0</ele><time>2026-04-11T12:17:36.002Z</time></trkpt><trkpt lat="44.86225" lon="9.3797417"><ele>568.0</ele><time>2026-04-11T12:17:37.001Z</time></trkpt><trkpt lat="44.8623167" lon="9.379785"><ele>568.3333333333334</ele><time>2026-04-11T12:17:38.002Z</time></trkpt><trkpt lat="44.8623767" lon="9.3798467"><ele>568.6666666666667</ele><time>2026-04-11T12:17:39.003Z</time></trkpt><trkpt lat="44.862425" lon="9.3799167"><ele>569.0</ele><time>2026-04-11T12:17:40.001Z</time></trkpt><trkpt lat="44.8624633" lon="9.3799883"><ele>569.3333333333334</ele><time>2026-04-11T12:17:41.001Z</time></trkpt><trkpt lat="44.8624933" lon="9.380155"><ele>569.6666666666666</ele><time>2026-04-11T12:17:43Z</time></trkpt><trkpt lat="44.8624817" lon="9.3802467"><ele>570.0</ele><time>2026-04-11T12:17:44.002Z</time></trkpt><trkpt lat="44.862475" lon="9.3803383"><ele>570.0</ele><time>2026-04-11T12:17:45.002Z</time></trkpt><trkpt lat="44.862485" lon="9.3805083"><ele>570.0</ele><time>2026-04-11T12:17:47.003Z</time></trkpt><trkpt lat="44.8625717" lon="9.3806467"><ele>570.0</ele><time>2026-04-11T12:17:49.002Z</time></trkpt><trkpt lat="44.8626183" lon="9.38074"><ele>570.0</ele><time>2026-04-11T12:17:50.002Z</time></trkpt><trkpt lat="44.8626533" lon="9.3808383"><ele>570.0</ele><time>2026-04-11T12:17:51.002Z</time></trkpt><trkpt lat="44.8626633" lon="9.380945"><ele>570.8</ele><time>2026-04-11T12:17:52.001Z</time></trkpt><trkpt lat="44.8626883" lon="9.3810517"><ele>571.6</ele><time>2026-04-11T12:17:53.001Z</time></trkpt><trkpt lat="44.8627133" lon="9.3811567"><ele>572.4</ele><time>2026-04-11T12:17:54.002Z</time></trkpt><trkpt lat="44.862755" lon="9.38127"><ele>573.2</ele><time>2026-04-11T12:17:55.001Z</time></trkpt><trkpt lat="44.8628133" lon="9.3813883"><ele>574.0</ele><time>2026-04-11T12:17:56.001Z</time></trkpt><trkpt lat="44.8628817" lon="9.3815083"><ele>575.6</ele><time>2026-04-11T12:17:57.002Z</time></trkpt><trkpt lat="44.8629383" lon="9.3816233"><ele>577.2</ele><time>2026-04-11T12:17:58.003Z</time></trkpt><trkpt lat="44.8629967" lon="9.38174"><ele>578.8000000000001</ele><time>2026-04-11T12:17:59.002Z</time></trkpt><trkpt lat="44.8630517" lon="9.381855"><ele>580.4</ele><time>2026-04-11T12:18:00.001Z</time></trkpt><trkpt lat="44.8630867" lon="9.381955"><ele>582.0</ele><time>2026-04-11T12:18:01.003Z</time></trkpt><trkpt lat="44.8631167" lon="9.3820483"><ele>582.0</ele><time>2026-04-11T12:18:02.001Z</time></trkpt><trkpt lat="44.8631517" lon="9.3821633"><ele>582.0</ele><time>2026-04-11T12:18:03.002Z</time></trkpt><trkpt lat="44.8631633" lon="9.382275"><ele>582.0</ele><time>2026-04-11T12:18:04.002Z</time></trkpt><trkpt lat="44.8631617" lon="9.38237"><ele>582.0</ele><time>2026-04-11T12:18:05.002Z</time></trkpt><trkpt lat="44.86315" lon="9.3824983"><ele>582.0</ele><time>2026-04-11T12:18:07.002Z</time></trkpt><trkpt lat="44.8631983" lon="9.3825833"><ele>582.0</ele><time>2026-04-11T12:18:10Z</time></trkpt><trkpt lat="44.8632733" lon="9.3826217"><ele>582.0</ele><time>2026-04-11T12:18:12.001Z</time></trkpt><trkpt lat="44.8633867" lon="9.3827083"><ele>582.0</ele><time>2026-04-11T12:18:14.002Z</time></trkpt><trkpt lat="44.86344" lon="9.3827783"><ele>582.0</ele><time>2026-04-11T12:18:15.001Z</time></trkpt><trkpt lat="44.863485" lon="9.3828617"><ele>582.0</ele><time>2026-04-11T12:18:16.001Z</time></trkpt><trkpt lat="44.8635183" lon="9.382945"><ele>582.0</ele><time>2026-04-11T12:18:17.001Z</time></trkpt><trkpt lat="44.8635383" lon="9.3830333"><ele>582.0</ele><time>2026-04-11T12:18:18.002Z</time></trkpt><trkpt lat="44.8635533" lon="9.38312"><ele>579.0</ele><time>2026-04-11T12:18:19.001Z</time></trkpt><trkpt lat="44.8635933" lon="9.3832817"><ele>576.0</ele><time>2026-04-11T12:18:21.002Z</time></trkpt><trkpt lat="44.8636667" lon="9.3834217"><ele>573.0</ele><time>2026-04-11T12:18:23.001Z</time></trkpt><trkpt lat="44.8637233" lon="9.3834717"><ele>570.0</ele><time>2026-04-11T12:18:24.001Z</time></trkpt><trkpt lat="44.8637867" lon="9.3835217"><ele>567.0</ele><time>2026-04-11T12:18:25.002Z</time></trkpt><trkpt lat="44.86385" lon="9.3835817"><ele>567.0</ele><time>2026-04-11T12:18:26.002Z</time></trkpt><trkpt lat="44.863905" lon="9.3836383"><ele>567.0</ele><time>2026-04-11T12:18:27.003Z</time></trkpt><trkpt lat="44.8639917" lon="9.3837517"><ele>567.0</ele><time>2026-04-11T12:18:29.001Z</time></trkpt><trkpt lat="44.8640483" lon="9.3838333"><ele>567.0</ele><time>2026-04-11T12:18:31.001Z</time></trkpt><trkpt lat="44.8641583" lon="9.3838617"><ele>567.0</ele><time>2026-04-11T12:18:33.001Z</time></trkpt><trkpt lat="44.8642317" lon="9.38385"><ele>564.8000000000001</ele><time>2026-04-11T12:18:34.002Z</time></trkpt><trkpt lat="44.8643217" lon="9.38382"><ele>562.6</ele><time>2026-04-11T12:18:35.001Z</time></trkpt><trkpt lat="44.864425" lon="9.38378"><ele>560.4000000000001</ele><time>2026-04-11T12:18:36.001Z</time></trkpt><trkpt lat="44.864535" lon="9.38375"><ele>558.2</ele><time>2026-04-11T12:18:37.001Z</time></trkpt><trkpt lat="44.8646417" lon="9.3837333"><ele>556.0</ele><time>2026-04-11T12:18:38.002Z</time></trkpt><trkpt lat="44.8647433" lon="9.3837183"><ele>556.0</ele><time>2026-04-11T12:18:39.002Z</time></trkpt><trkpt lat="44.8648383" lon="9.3837"><ele>556.0</ele><time>2026-04-11T12:18:40.001Z</time></trkpt><trkpt lat="44.8649267" lon="9.3836733"><ele>556.0</ele><time>2026-04-11T12:18:41.001Z</time></trkpt><trkpt lat="44.8650117" lon="9.3836467"><ele>556.0</ele><time>2026-04-11T12:18:42.002Z</time></trkpt><trkpt lat="44.8650967" lon="9.3836267"><ele>556.0</ele><time>2026-04-11T12:18:43.001Z</time></trkpt><trkpt lat="44.8651867" lon="9.383625"><ele>555.6</ele><time>2026-04-11T12:18:44.003Z</time></trkpt><trkpt lat="44.8652817" lon="9.383645"><ele>555.2</ele><time>2026-04-11T12:18:45.003Z</time></trkpt><trkpt lat="44.86538" lon="9.383685"><ele>554.8</ele><time>2026-04-11T12:18:46.001Z</time></trkpt><trkpt lat="44.8654817" lon="9.3837433"><ele>554.4</ele><time>2026-04-11T12:18:47.001Z</time></trkpt><trkpt lat="44.8655783" lon="9.38381"><ele>554.0</ele><time>2026-04-11T12:18:48.001Z</time></trkpt><trkpt lat="44.86567" lon="9.3838733"><ele>554.0</ele><time>2026-04-11T12:18:49.001Z</time></trkpt><trkpt lat="44.865755" lon="9.3839417"><ele>554.0</ele><time>2026-04-11T12:18:50.001Z</time></trkpt><trkpt lat="44.8658217" lon="9.3840183"><ele>554.0</ele><time>2026-04-11T12:18:51.003Z</time></trkpt><trkpt lat="44.865865" lon="9.3841067"><ele>554.0</ele><time>2026-04-11T12:18:52.002Z</time></trkpt><trkpt lat="44.865885" lon="9.3842017"><ele>554.0</ele><time>2026-04-11T12:18:53.002Z</time></trkpt><trkpt lat="44.8658833" lon="9.3843"><ele>554.0</ele><time>2026-04-11T12:18:54.002Z</time></trkpt><trkpt lat="44.86586" lon="9.3844033"><ele>554.0</ele><time>2026-04-11T12:18:55.001Z</time></trkpt><trkpt lat="44.8658167" lon="9.3845"><ele>554.0</ele><time>2026-04-11T12:18:56.003Z</time></trkpt><trkpt lat="44.865755" lon="9.38458"><ele>554.0</ele><time>2026-04-11T12:18:57.002Z</time></trkpt><trkpt lat="44.86568" lon="9.3846517"><ele>554.0</ele><time>2026-04-11T12:18:58.004Z</time></trkpt><trkpt lat="44.8656067" lon="9.3847383"><ele>554.0</ele><time>2026-04-11T12:18:59.001Z</time></trkpt><trkpt lat="44.8655467" lon="9.3848567"><ele>552.5</ele><time>2026-04-11T12:19:00.003Z</time></trkpt><trkpt lat="44.865505" lon="9.3849867"><ele>551.0</ele><time>2026-04-11T12:19:01.002Z</time></trkpt><trkpt lat="44.865475" lon="9.3851083"><ele>549.5</ele><time>2026-04-11T12:19:02.002Z</time></trkpt><trkpt lat="44.865445" lon="9.3852117"><ele>548.0</ele><time>2026-04-11T12:19:03.002Z</time></trkpt><trkpt lat="44.8654183" lon="9.3852967"><ele>546.5</ele><time>2026-04-11T12:19:04.002Z</time></trkpt><trkpt lat="44.8653633" lon="9.38542"><ele>545.0</ele><time>2026-04-11T12:19:06.002Z</time></trkpt><trkpt lat="44.865315" lon="9.3855017"><ele>543.5</ele><time>2026-04-11T12:19:08.002Z</time></trkpt><trkpt lat="44.8653817" lon="9.3855767"><ele>542.0</ele><time>2026-04-11T12:19:12.002Z</time></trkpt><trkpt lat="44.8654567" lon="9.3856083"><ele>540.5</ele><time>2026-04-11T12:19:14.001Z</time></trkpt><trkpt lat="44.8655133" lon="9.38571"><ele>539.0</ele><time>2026-04-11T12:19:16.001Z</time></trkpt><trkpt lat="44.86555" lon="9.3858633"><ele>537.5</ele><time>2026-04-11T12:19:18.002Z</time></trkpt><trkpt lat="44.86556" lon="9.3859517"><ele>536.0</ele><time>2026-04-11T12:19:19.001Z</time></trkpt><trkpt lat="44.8655883" lon="9.386105"><ele>536.0</ele><time>2026-04-11T12:19:21.002Z</time></trkpt><trkpt lat="44.8656683" lon="9.3862433"><ele>536.0</ele><time>2026-04-11T12:19:23.001Z</time></trkpt><trkpt lat="44.8657267" lon="9.3862983"><ele>536.0</ele><time>2026-04-11T12:19:24.001Z</time></trkpt><trkpt lat="44.865795" lon="9.38634"><ele>536.0</ele><time>2026-04-11T12:19:25.002Z</time></trkpt><trkpt lat="44.8658617" lon="9.3863783"><ele>536.0</ele><time>2026-04-11T12:19:26.002Z</time></trkpt><trkpt lat="44.8659183" lon="9.38643"><ele>536.0</ele><time>2026-04-11T12:19:27.004Z</time></trkpt><trkpt lat="44.8659683" lon="9.3864917"><ele>533.0</ele><time>2026-04-11T12:19:28.002Z</time></trkpt><trkpt lat="44.8660133" lon="9.386565"><ele>530.0</ele><time>2026-04-11T12:19:29.002Z</time></trkpt><trkpt lat="44.8660533" lon="9.386635"><ele>527.0</ele><time>2026-04-11T12:19:30.001Z</time></trkpt><trkpt lat="44.8661067" lon="9.3866917"><ele>524.0</ele><time>2026-04-11T12:19:31.002Z</time></trkpt><trkpt lat="44.8661617" lon="9.3867383"><ele>521.0</ele><time>2026-04-11T12:19:32.002Z</time></trkpt><trkpt lat="44.8662217" lon="9.3867667"><ele>518.0</ele><time>2026-04-11T12:19:33.002Z</time></trkpt><trkpt lat="44.8662867" lon="9.3867783"><ele>515.0</ele><time>2026-04-11T12:19:34.002Z</time></trkpt><trkpt lat="44.8663517" lon="9.38678"><ele>515.0</ele><time>2026-04-11T12:19:35.002Z</time></trkpt><trkpt lat="44.866415" lon="9.3867767"><ele>515.0</ele><time>2026-04-11T12:19:36.002Z</time></trkpt><trkpt lat="44.8665267" lon="9.3868017"><ele>515.0</ele><time>2026-04-11T12:19:38.001Z</time></trkpt><trkpt lat="44.86662" lon="9.3868317"><ele>515.0</ele><time>2026-04-11T12:19:40.003Z</time></trkpt><trkpt lat="44.8666983" lon="9.38687"><ele>515.0</ele><time>2026-04-11T12:19:42.001Z</time></trkpt><trkpt lat="44.8667717" lon="9.3869167"><ele>515.0</ele><time>2026-04-11T12:19:44.001Z</time></trkpt><trkpt lat="44.866845" lon="9.3869983"><ele>512.6</ele><time>2026-04-11T12:19:46.002Z</time></trkpt><trkpt lat="44.8669133" lon="9.3871133"><ele>510.2</ele><time>2026-04-11T12:19:48.001Z</time></trkpt><trkpt lat="44.8669717" lon="9.3872383"><ele>507.79999999999995</ele><time>2026-04-11T12:19:50.002Z</time></trkpt><trkpt lat="44.867055" lon="9.387305"><ele>505.4</ele><time>2026-04-11T12:19:52.001Z</time></trkpt><trkpt lat="44.867145" lon="9.38737"><ele>503.0</ele><time>2026-04-11T12:19:54.003Z</time></trkpt><trkpt lat="44.8672383" lon="9.3874583"><ele>503.0</ele><time>2026-04-11T12:19:56.001Z</time></trkpt><trkpt lat="44.8673317" lon="9.3875533"><ele>502.99999999999994</ele><time>2026-04-11T12:19:58.001Z</time></trkpt><trkpt lat="44.867425" lon="9.387585"><ele>502.99999999999994</ele><time>2026-04-11T12:20:00.002Z</time></trkpt><trkpt lat="44.8675217" lon="9.387585"><ele>503.0</ele><time>2026-04-11T12:20:02.001Z</time></trkpt><trkpt lat="44.8676367" lon="9.3875817"><ele>503.0</ele><time>2026-04-11T12:20:04.002Z</time></trkpt><trkpt lat="44.8677533" lon="9.3876167"><ele>500.0</ele><time>2026-04-11T12:20:06.001Z</time></trkpt><trkpt lat="44.8678317" lon="9.3877083"><ele>496.99999999999994</ele><time>2026-04-11T12:20:08.001Z</time></trkpt><trkpt lat="44.8678817" lon="9.3877667"><ele>493.99999999999994</ele><time>2026-04-11T12:20:09.001Z</time></trkpt><trkpt lat="44.8679667" lon="9.38785"><ele>491.0</ele><time>2026-04-11T12:20:11.001Z</time></trkpt><trkpt lat="44.868035" lon="9.3879633"><ele>488.0</ele><time>2026-04-11T12:20:13.002Z</time></trkpt><trkpt lat="44.8680917" lon="9.3880683"><ele>487.66666666666663</ele><time>2026-04-11T12:20:15.003Z</time></trkpt><trkpt lat="44.8681733" lon="9.3880867"><ele>487.3333333333333</ele><time>2026-04-11T12:20:17.001Z</time></trkpt><trkpt lat="44.86827" lon="9.3880683"><ele>487.0</ele><time>2026-04-11T12:20:19.002Z</time></trkpt><trkpt lat="44.8683667" lon="9.3880417"><ele>486.66666666666663</ele><time>2026-04-11T12:20:21.002Z</time></trkpt><trkpt lat="44.868445" lon="9.3880017"><ele>486.3333333333333</ele><time>2026-04-11T12:20:23Z</time></trkpt><trkpt lat="44.8685267" lon="9.38802"><ele>486.0</ele><time>2026-04-11T12:20:25.001Z</time></trkpt><trkpt lat="44.8686417" lon="9.3880267"><ele>482.25</ele><time>2026-04-11T12:20:27.002Z</time></trkpt><trkpt lat="44.868765" lon="9.3879833"><ele>478.5</ele><time>2026-04-11T12:20:29.001Z</time></trkpt><trkpt lat="44.8688533" lon="9.38789"><ele>474.75</ele><time>2026-04-11T12:20:31.002Z</time></trkpt><trkpt lat="44.8689383" lon="9.3877883"><ele>471.0</ele><time>2026-04-11T12:20:33.002Z</time></trkpt><trkpt lat="44.8690117" lon="9.3876883"><ele>471.00000000000006</ele><time>2026-04-11T12:20:35.002Z</time></trkpt><trkpt lat="44.869075" lon="9.3876033"><ele>471.0</ele><time>2026-04-11T12:20:37.001Z</time></trkpt><trkpt lat="44.8691267" lon="9.3875483"><ele>471.00000000000006</ele><time>2026-04-11T12:20:39.002Z</time></trkpt><trkpt lat="44.8691783" lon="9.3874883"><ele>471.00000000000006</ele><time>2026-04-11T12:20:41.001Z</time></trkpt><trkpt lat="44.8692067" lon="9.3874033"><ele>471.0</ele><time>2026-04-11T12:20:43.001Z</time></trkpt><trkpt lat="44.8692517" lon="9.3873233"><ele>471.00000000000006</ele><time>2026-04-11T12:20:45.002Z</time></trkpt><trkpt lat="44.8693167" lon="9.3873117"><ele>471.00000000000006</ele><time>2026-04-11T12:20:47.002Z</time></trkpt><trkpt lat="44.8694067" lon="9.387355"><ele>465.0</ele><time>2026-04-11T12:21:06.001Z</time></trkpt><trkpt lat="44.86947" lon="9.38738"><ele>459.0</ele><time>2026-04-11T12:21:09.002Z</time></trkpt><trkpt lat="44.8694567" lon="9.3872633"><ele>453.0</ele><time>2026-04-11T12:21:13Z</time></trkpt><trkpt lat="44.86943" lon="9.3871433"><ele>447.0</ele><time>2026-04-11T12:21:16.003Z</time></trkpt><trkpt lat="44.8694683" lon="9.38705"><ele>441.0</ele><time>2026-04-11T12:21:19.002Z</time></trkpt><trkpt lat="44.86953" lon="9.38702"><ele>435.0</ele><time>2026-04-11T12:21:21.001Z</time></trkpt><trkpt lat="44.8696017" lon="9.3870383"><ele>434.8571428571429</ele><time>2026-04-11T12:21:23.001Z</time></trkpt><trkpt lat="44.869675" lon="9.387085"><ele>434.7142857142857</ele><time>2026-04-11T12:21:25.001Z</time></trkpt><trkpt lat="44.869735" lon="9.3870483"><ele>434.57142857142856</ele><time>2026-04-11T12:21:28.001Z</time></trkpt><trkpt lat="44.8697017" lon="9.3869533"><ele>434.42857142857144</ele><time>2026-04-11T12:21:31.002Z</time></trkpt><trkpt lat="44.8697267" lon="9.3868467"><ele>434.2857142857143</ele><time>2026-04-11T12:21:34.001Z</time></trkpt><trkpt lat="44.8697983" lon="9.3868383"><ele>434.14285714285717</ele><time>2026-04-11T12:21:38.001Z</time></trkpt><trkpt lat="44.8698533" lon="9.38691"><ele>434.0</ele><time>2026-04-11T12:21:43.002Z</time></trkpt><trkpt lat="44.869915" lon="9.3869367"><ele>434.0</ele><time>2026-04-11T12:22:40.002Z</time></trkpt><trkpt lat="44.8699833" lon="9.3870383"><ele>434.0</ele><time>2026-04-11T12:22:42.001Z</time></trkpt><trkpt lat="44.8700283" lon="9.3871017"><ele>434.0</ele><time>2026-04-11T12:22:43.001Z</time></trkpt><trkpt lat="44.8700683" lon="9.38718"><ele>434.0</ele><time>2026-04-11T12:22:44.002Z</time></trkpt><trkpt lat="44.8701083" lon="9.3872583"><ele>434.0</ele><time>2026-04-11T12:22:45.002Z</time></trkpt><trkpt lat="44.8701483" lon="9.3873467"><ele>434.0</ele><time>2026-04-11T12:22:46.002Z</time></trkpt><trkpt lat="44.8701883" lon="9.3874333"><ele>434.0</ele><time>2026-04-11T12:22:47.001Z</time></trkpt><trkpt lat="44.8702333" lon="9.38752"><ele>431.8333333333333</ele><time>2026-04-11T12:22:48.002Z</time></trkpt><trkpt lat="44.8702833" lon="9.3876083"><ele>429.66666666666663</ele><time>2026-04-11T12:22:49.002Z</time></trkpt><trkpt lat="44.8703417" lon="9.3877"><ele>427.5</ele><time>2026-04-11T12:22:50.002Z</time></trkpt><trkpt lat="44.8704" lon="9.38779"><ele>425.33333333333337</ele><time>2026-04-11T12:22:51.002Z</time></trkpt><trkpt lat="44.870455" lon="9.3878667"><ele>423.1666666666667</ele><time>2026-04-11T12:22:52.002Z</time></trkpt><trkpt lat="44.8705083" lon="9.3879367"><ele>421.0</ele><time>2026-04-11T12:22:53.002Z</time></trkpt><trkpt lat="44.8705583" lon="9.387995"><ele>421.00000000000006</ele><time>2026-04-11T12:22:54.001Z</time></trkpt><trkpt lat="44.8706283" lon="9.3880867"><ele>421.0</ele><time>2026-04-11T12:22:56.001Z</time></trkpt><trkpt lat="44.870705" lon="9.3880917"><ele>421.0</ele><time>2026-04-11T12:22:59.001Z</time></trkpt><trkpt lat="44.8707683" lon="9.3880083"><ele>421.0</ele><time>2026-04-11T12:23:01.002Z</time></trkpt><trkpt lat="44.8707883" lon="9.3878533"><ele>421.00000000000006</ele><time>2026-04-11T12:23:03.001Z</time></trkpt><trkpt lat="44.8707883" lon="9.3877517"><ele>421.0</ele><time>2026-04-11T12:23:04.001Z</time></trkpt><trkpt lat="44.8707933" lon="9.3876367"><ele>421.00000000000006</ele><time>2026-04-11T12:23:05.001Z</time></trkpt><trkpt lat="44.8708117" lon="9.3875133"><ele>421.0</ele><time>2026-04-11T12:23:06.001Z</time></trkpt><trkpt lat="44.8708433" lon="9.387405"><ele>421.0</ele><time>2026-04-11T12:23:07.002Z</time></trkpt><trkpt lat="44.870885" lon="9.3873133"><ele>421.0</ele><time>2026-04-11T12:23:08.003Z</time></trkpt><trkpt lat="44.870925" lon="9.387225"><ele>421.00000000000006</ele><time>2026-04-11T12:23:09.002Z</time></trkpt><trkpt lat="44.87096" lon="9.387125"><ele>421.0</ele><time>2026-04-11T12:23:10.001Z</time></trkpt><trkpt lat="44.8709783" lon="9.3870033"><ele>420.6666666666667</ele><time>2026-04-11T12:23:11.001Z</time></trkpt><trkpt lat="44.871" lon="9.38687"><ele>420.33333333333337</ele><time>2026-04-11T12:23:12.001Z</time></trkpt><trkpt lat="44.8710133" lon="9.38675"><ele>420.0</ele><time>2026-04-11T12:23:13.001Z</time></trkpt><trkpt lat="44.8710233" lon="9.3866317"><ele>419.66666666666663</ele><time>2026-04-11T12:23:14.001Z</time></trkpt><trkpt lat="44.871025" lon="9.3865117"><ele>419.3333333333333</ele><time>2026-04-11T12:23:15.003Z</time></trkpt><trkpt lat="44.8710217" lon="9.3864"><ele>419.0</ele><time>2026-04-11T12:23:16.001Z</time></trkpt><trkpt lat="44.8710183" lon="9.3863017"><ele>418.16666666666663</ele><time>2026-04-11T12:23:17.001Z</time></trkpt><trkpt lat="44.8710383" lon="9.3862083"><ele>417.3333333333333</ele><time>2026-04-11T12:23:18.002Z</time></trkpt><trkpt lat="44.8710717" lon="9.38612"><ele>416.5</ele><time>2026-04-11T12:23:19.002Z</time></trkpt><trkpt lat="44.8711267" lon="9.3860283"><ele>415.66666666666663</ele><time>2026-04-11T12:23:20.001Z</time></trkpt><trkpt lat="44.8711933" lon="9.3859417"><ele>414.8333333333333</ele><time>2026-04-11T12:23:21.002Z</time></trkpt><trkpt lat="44.8712633" lon="9.3858683"><ele>414.0</ele><time>2026-04-11T12:23:22.002Z</time></trkpt><trkpt lat="44.8713267" lon="9.3858117"><ele>414.0</ele><time>2026-04-11T12:23:23.001Z</time></trkpt><trkpt lat="44.8714033" lon="9.385735"><ele>414.0</ele><time>2026-04-11T12:23:25.002Z</time></trkpt><trkpt lat="44.8714783" lon="9.385655"><ele>414.0</ele><time>2026-04-11T12:23:28.001Z</time></trkpt><trkpt lat="44.8715317" lon="9.3855833"><ele>414.0</ele><time>2026-04-11T12:23:30.002Z</time></trkpt><trkpt lat="44.8715117" lon="9.3854783"><ele>414.0</ele><time>2026-04-11T12:23:32.001Z</time></trkpt><trkpt lat="44.8714383" lon="9.3853617"><ele>414.0</ele><time>2026-04-11T12:23:34.002Z</time></trkpt><trkpt lat="44.871445" lon="9.3852683"><ele>414.1666666666667</ele><time>2026-04-11T12:23:36.002Z</time></trkpt><trkpt lat="44.8714967" lon="9.3851917"><ele>414.33333333333337</ele><time>2026-04-11T12:23:40.002Z</time></trkpt><trkpt lat="44.8715367" lon="9.3851133"><ele>414.5</ele><time>2026-04-11T12:23:42.001Z</time></trkpt><trkpt lat="44.8715733" lon="9.3849467"><ele>414.6666666666667</ele><time>2026-04-11T12:23:44.001Z</time></trkpt><trkpt lat="44.8715833" lon="9.3848283"><ele>414.83333333333337</ele><time>2026-04-11T12:23:45.003Z</time></trkpt><trkpt lat="44.8715883" lon="9.3847033"><ele>415.0</ele><time>2026-04-11T12:23:46.001Z</time></trkpt><trkpt lat="44.871585" lon="9.3845783"><ele>414.6</ele><time>2026-04-11T12:23:47.001Z</time></trkpt><trkpt lat="44.87157" lon="9.3844517"><ele>414.2</ele><time>2026-04-11T12:23:48.002Z</time></trkpt><trkpt lat="44.871545" lon="9.384325"><ele>413.79999999999995</ele><time>2026-04-11T12:23:49.002Z</time></trkpt><trkpt lat="44.8715283" lon="9.3842033"><ele>413.4</ele><time>2026-04-11T12:23:50.002Z</time></trkpt><trkpt lat="44.8715283" lon="9.3840967"><ele>413.0</ele><time>2026-04-11T12:23:51.003Z</time></trkpt><trkpt lat="44.8715383" lon="9.3839317"><ele>412.16666666666663</ele><time>2026-04-11T12:23:53.002Z</time></trkpt><trkpt lat="44.8715117" lon="9.38378"><ele>411.3333333333333</ele><time>2026-04-11T12:23:55.002Z</time></trkpt><trkpt lat="44.8714833" lon="9.3836967"><ele>410.5</ele><time>2026-04-11T12:23:56.002Z</time></trkpt><trkpt lat="44.8714533" lon="9.3836017"><ele>409.66666666666663</ele><time>2026-04-11T12:23:57.003Z</time></trkpt><trkpt lat="44.8714433" lon="9.3834933"><ele>408.8333333333333</ele><time>2026-04-11T12:23:58.002Z</time></trkpt><trkpt lat="44.8714467" lon="9.38337"><ele>408.0</ele><time>2026-04-11T12:23:59.001Z</time></trkpt><trkpt lat="44.8714533" lon="9.38326"><ele>408.0</ele><time>2026-04-11T12:24:00.003Z</time></trkpt><trkpt lat="44.87147" lon="9.383165"><ele>408.0</ele><time>2026-04-11T12:24:01.002Z</time></trkpt><trkpt lat="44.871505" lon="9.3830567"><ele>408.0</ele><time>2026-04-11T12:24:02.001Z</time></trkpt><trkpt lat="44.8715433" lon="9.3829517"><ele>408.0</ele><time>2026-04-11T12:24:03.004Z</time></trkpt><trkpt lat="44.8715817" lon="9.382825"><ele>408.0</ele><time>2026-04-11T12:24:04.001Z</time></trkpt><trkpt lat="44.87161" lon="9.3826717"><ele>408.0</ele><time>2026-04-11T12:24:05.002Z</time></trkpt><trkpt lat="44.871635" lon="9.3825183"><ele>408.1666666666667</ele><time>2026-04-11T12:24:06.001Z</time></trkpt><trkpt lat="44.8716567" lon="9.382375"><ele>408.33333333333337</ele><time>2026-04-11T12:24:07.001Z</time></trkpt><trkpt lat="44.8716783" lon="9.3822583"><ele>408.5</ele><time>2026-04-11T12:24:08.002Z</time></trkpt><trkpt lat="44.871715" lon="9.3821783"><ele>408.6666666666667</ele><time>2026-04-11T12:24:09.002Z</time></trkpt><trkpt lat="44.871795" lon="9.382125"><ele>408.83333333333337</ele><time>2026-04-11T12:24:11.003Z</time></trkpt><trkpt lat="44.871885" lon="9.3821317"><ele>409.0</ele><time>2026-04-11T12:24:13.002Z</time></trkpt><trkpt lat="44.8719567" lon="9.3821"><ele>407.6666666666667</ele><time>2026-04-11T12:24:15.002Z</time></trkpt><trkpt lat="44.872" lon="9.3820183"><ele>406.33333333333337</ele><time>2026-04-11T12:24:17.001Z</time></trkpt><trkpt lat="44.8720567" lon="9.3818767"><ele>405.0</ele><time>2026-04-11T12:24:19.002Z</time></trkpt><trkpt lat="44.8721067" lon="9.3818067"><ele>403.66666666666663</ele><time>2026-04-11T12:24:20.002Z</time></trkpt><trkpt lat="44.8721683" lon="9.3817467"><ele>402.3333333333333</ele><time>2026-04-11T12:24:21.002Z</time></trkpt><trkpt lat="44.8722417" lon="9.38169"><ele>401.0</ele><time>2026-04-11T12:24:22.003Z</time></trkpt><trkpt lat="44.8723233" lon="9.3816167"><ele>401.0</ele><time>2026-04-11T12:24:23.002Z</time></trkpt><trkpt lat="44.8723983" lon="9.38152"><ele>401.0</ele><time>2026-04-11T12:24:24.003Z</time></trkpt><trkpt lat="44.8724717" lon="9.3814117"><ele>401.0</ele><time>2026-04-11T12:24:25.002Z</time></trkpt><trkpt lat="44.872545" lon="9.3812983"><ele>401.0</ele><time>2026-04-11T12:24:26.001Z</time></trkpt><trkpt lat="44.8726167" lon="9.3812"><ele>401.0</ele><time>2026-04-11T12:24:27.002Z</time></trkpt><trkpt lat="44.8727017" lon="9.38112"><ele>400.49999999999994</ele><time>2026-04-11T12:24:28.002Z</time></trkpt><trkpt lat="44.87279" lon="9.3810567"><ele>400.0</ele><time>2026-04-11T12:24:29.001Z</time></trkpt><trkpt lat="44.8728767" lon="9.3809933"><ele>399.5</ele><time>2026-04-11T12:24:30.002Z</time></trkpt><trkpt lat="44.87295" lon="9.3809267"><ele>399.0</ele><time>2026-04-11T12:24:31.002Z</time></trkpt><trkpt lat="44.8730133" lon="9.3808667"><ele>398.49999999999994</ele><time>2026-04-11T12:24:32.003Z</time></trkpt><trkpt lat="44.8730767" lon="9.3808067"><ele>398.0</ele><time>2026-04-11T12:24:33.003Z</time></trkpt><trkpt lat="44.8731383" lon="9.3807383"><ele>398.0</ele><time>2026-04-11T12:24:34.001Z</time></trkpt><trkpt lat="44.8732067" lon="9.38065"><ele>398.0</ele><time>2026-04-11T12:24:35.002Z</time></trkpt><trkpt lat="44.8732883" lon="9.3805517"><ele>398.0</ele><time>2026-04-11T12:24:36.001Z</time></trkpt><trkpt lat="44.8733683" lon="9.38045"><ele>398.0</ele><time>2026-04-11T12:24:37.002Z</time></trkpt><trkpt lat="44.873455" lon="9.3803467"><ele>398.0</ele><time>2026-04-11T12:24:38.001Z</time></trkpt><trkpt lat="44.8735417" lon="9.3802417"><ele>398.4</ele><time>2026-04-11T12:24:39.001Z</time></trkpt><trkpt lat="44.87363" lon="9.3801433"><ele>398.79999999999995</ele><time>2026-04-11T12:24:40.002Z</time></trkpt><trkpt lat="44.87371" lon="9.380065"><ele>399.2</ele><time>2026-04-11T12:24:41.001Z</time></trkpt><trkpt lat="44.8737883" lon="9.38"><ele>399.6</ele><time>2026-04-11T12:24:42.001Z</time></trkpt><trkpt lat="44.873865" lon="9.3799567"><ele>400.0</ele><time>2026-04-11T12:24:43.001Z</time></trkpt><trkpt lat="44.8739383" lon="9.37992"><ele>400.0</ele><time>2026-04-11T12:24:44.001Z</time></trkpt><trkpt lat="44.8740167" lon="9.379875"><ele>400.0</ele><time>2026-04-11T12:24:45.002Z</time></trkpt><trkpt lat="44.8741033" lon="9.3798133"><ele>400.0</ele><time>2026-04-11T12:24:46.001Z</time></trkpt><trkpt lat="44.8742033" lon="9.379735"><ele>400.0</ele><time>2026-04-11T12:24:47.001Z</time></trkpt><trkpt lat="44.8743017" lon="9.3796533"><ele>400.0</ele><time>2026-04-11T12:24:48.001Z</time></trkpt><trkpt lat="44.8743917" lon="9.3795733"><ele>398.2</ele><time>2026-04-11T12:24:49.003Z</time></trkpt><trkpt lat="44.8744717" lon="9.3794867"><ele>396.4</ele><time>2026-04-11T12:24:50.002Z</time></trkpt><trkpt lat="44.87455" lon="9.3793867"><ele>394.6</ele><time>2026-04-11T12:24:51.003Z</time></trkpt><trkpt lat="44.8746283" lon="9.3793"><ele>392.8</ele><time>2026-04-11T12:24:52.001Z</time></trkpt><trkpt lat="44.8747083" lon="9.379225"><ele>391.0</ele><time>2026-04-11T12:24:53.003Z</time></trkpt><trkpt lat="44.874795" lon="9.3791667"><ele>391.0</ele><time>2026-04-11T12:24:54.004Z</time></trkpt><trkpt lat="44.8748917" lon="9.3791283"><ele>391.0</ele><time>2026-04-11T12:24:55.001Z</time></trkpt><trkpt lat="44.8749967" lon="9.3791083"><ele>391.0</ele><time>2026-04-11T12:24:56.001Z</time></trkpt><trkpt lat="44.8750917" lon="9.3791033"><ele>391.0</ele><time>2026-04-11T12:24:57.002Z</time></trkpt><trkpt lat="44.8751833" lon="9.3791217"><ele>391.0</ele><time>2026-04-11T12:24:58.002Z</time></trkpt><trkpt lat="44.8752683" lon="9.3791733"><ele>391.6</ele><time>2026-04-11T12:24:59.001Z</time></trkpt><trkpt lat="44.87535" lon="9.3792583"><ele>392.20000000000005</ele><time>2026-04-11T12:25:00.001Z</time></trkpt><trkpt lat="44.8754267" lon="9.3793367"><ele>392.79999999999995</ele><time>2026-04-11T12:25:01.002Z</time></trkpt><trkpt lat="44.8754967" lon="9.3793883"><ele>393.4</ele><time>2026-04-11T12:25:02.001Z</time></trkpt><trkpt lat="44.8755983" lon="9.379405"><ele>394.0</ele><time>2026-04-11T12:25:04.001Z</time></trkpt><trkpt lat="44.875545" lon="9.379305"><ele>394.0</ele><time>2026-04-11T12:25:07.001Z</time></trkpt><trkpt lat="44.87544" lon="9.379195"><ele>394.0</ele><time>2026-04-11T12:25:09.002Z</time></trkpt><trkpt lat="44.8753883" lon="9.3791133"><ele>394.0</ele><time>2026-04-11T12:25:10.002Z</time></trkpt><trkpt lat="44.8753467" lon="9.3790133"><ele>394.0</ele><time>2026-04-11T12:25:11.003Z</time></trkpt><trkpt lat="44.8753117" lon="9.3789017"><ele>394.0</ele><time>2026-04-11T12:25:12.002Z</time></trkpt><trkpt lat="44.8752767" lon="9.37878"><ele>393.2</ele><time>2026-04-11T12:25:13.002Z</time></trkpt><trkpt lat="44.87524" lon="9.3786517"><ele>392.4</ele><time>2026-04-11T12:25:14.002Z</time></trkpt><trkpt lat="44.8752017" lon="9.3785217"><ele>391.6</ele><time>2026-04-11T12:25:15.002Z</time></trkpt><trkpt lat="44.8751617" lon="9.3783917"><ele>390.8</ele><time>2026-04-11T12:25:16.001Z</time></trkpt><trkpt lat="44.8751133" lon="9.3782683"><ele>390.0</ele><time>2026-04-11T12:25:17.001Z</time></trkpt><trkpt lat="44.8750467" lon="9.3781617"><ele>390.0</ele><time>2026-04-11T12:25:18.002Z</time></trkpt><trkpt lat="44.87496" lon="9.37808"><ele>390.0</ele><time>2026-04-11T12:25:19.003Z</time></trkpt><trkpt lat="44.87486" lon="9.378025"><ele>390.0</ele><time>2026-04-11T12:25:20.002Z</time></trkpt><trkpt lat="44.874745" lon="9.3779933"><ele>390.0</ele><time>2026-04-11T12:25:21.002Z</time></trkpt><trkpt lat="44.8746267" lon="9.3779733"><ele>390.0</ele><time>2026-04-11T12:25:22.002Z</time></trkpt><trkpt lat="44.8745033" lon="9.3779517"><ele>391.2</ele><time>2026-04-11T12:25:23.001Z</time></trkpt><trkpt lat="44.874385" lon="9.3779267"><ele>392.4</ele><time>2026-04-11T12:25:24.002Z</time></trkpt><trkpt lat="44.874275" lon="9.3778933"><ele>393.6</ele><time>2026-04-11T12:25:25.001Z</time></trkpt><trkpt lat="44.8741733" lon="9.3778483"><ele>394.8</ele><time>2026-04-11T12:25:26.002Z</time></trkpt><trkpt lat="44.8740817" lon="9.37779"><ele>396.0</ele><time>2026-04-11T12:25:27.002Z</time></trkpt><trkpt lat="44.8740033" lon="9.377715"><ele>396.0</ele><time>2026-04-11T12:25:28.001Z</time></trkpt><trkpt lat="44.8739267" lon="9.3776233"><ele>396.0</ele><time>2026-04-11T12:25:29.002Z</time></trkpt><trkpt lat="44.873845" lon="9.37753"><ele>396.0</ele><time>2026-04-11T12:25:30.003Z</time></trkpt><trkpt lat="44.8737617" lon="9.377445"><ele>396.0</ele><time>2026-04-11T12:25:31.001Z</time></trkpt><trkpt lat="44.873675" lon="9.3773717"><ele>396.0</ele><time>2026-04-11T12:25:32.002Z</time></trkpt><trkpt lat="44.87359" lon="9.3773067"><ele>396.0</ele><time>2026-04-11T12:25:33.003Z</time></trkpt><trkpt lat="44.8734983" lon="9.37725"><ele>396.0</ele><time>2026-04-11T12:25:34.001Z</time></trkpt><trkpt lat="44.8733933" lon="9.3772017"><ele>396.0</ele><time>2026-04-11T12:25:35.003Z</time></trkpt><trkpt lat="44.87328" lon="9.377155"><ele>396.0</ele><time>2026-04-11T12:25:36.002Z</time></trkpt><trkpt lat="44.8731633" lon="9.3771033"><ele>397.0</ele><time>2026-04-11T12:25:37.001Z</time></trkpt><trkpt lat="44.8730467" lon="9.3770383"><ele>398.0</ele><time>2026-04-11T12:25:38.002Z</time></trkpt><trkpt lat="44.8729433" lon="9.3769517"><ele>399.0</ele><time>2026-04-11T12:25:39.002Z</time></trkpt><trkpt lat="44.8728533" lon="9.3768367"><ele>400.0</ele><time>2026-04-11T12:25:40.001Z</time></trkpt><trkpt lat="44.8727717" lon="9.3767033"><ele>400.0</ele><time>2026-04-11T12:25:41.002Z</time></trkpt><trkpt lat="44.8726983" lon="9.3765583"><ele>400.0</ele><time>2026-04-11T12:25:42.002Z</time></trkpt><trkpt lat="44.8726267" lon="9.376405"><ele>400.0</ele><time>2026-04-11T12:25:43.001Z</time></trkpt><trkpt lat="44.8725583" lon="9.37625"><ele>400.0</ele><time>2026-04-11T12:25:44.003Z</time></trkpt><trkpt lat="44.8724983" lon="9.3761"><ele>400.4</ele><time>2026-04-11T12:25:45.002Z</time></trkpt><trkpt lat="44.8724417" lon="9.37596"><ele>400.8</ele><time>2026-04-11T12:25:46.002Z</time></trkpt><trkpt lat="44.8723917" lon="9.375835"><ele>401.20000000000005</ele><time>2026-04-11T12:25:47.001Z</time></trkpt><trkpt lat="44.8723517" lon="9.3757217"><ele>401.6</ele><time>2026-04-11T12:25:48.001Z</time></trkpt><trkpt lat="44.872315" lon="9.37562"><ele>402.0</ele><time>2026-04-11T12:25:49.002Z</time></trkpt><trkpt lat="44.8722833" lon="9.3755317"><ele>403.6</ele><time>2026-04-11T12:25:50.001Z</time></trkpt><trkpt lat="44.8722283" lon="9.3753917"><ele>405.20000000000005</ele><time>2026-04-11T12:25:52.001Z</time></trkpt><trkpt lat="44.8722067" lon="9.3752467"><ele>406.8</ele><time>2026-04-11T12:25:54.002Z</time></trkpt><trkpt lat="44.87222" lon="9.3751067"><ele>408.4</ele><time>2026-04-11T12:25:56.004Z</time></trkpt><trkpt lat="44.87228" lon="9.3749833"><ele>410.0</ele><time>2026-04-11T12:25:58.001Z</time></trkpt><trkpt lat="44.8723683" lon="9.3748533"><ele>411.49999999999994</ele><time>2026-04-11T12:26:00.001Z</time></trkpt><trkpt lat="44.8724" lon="9.3746867"><ele>413.0</ele><time>2026-04-11T12:26:02.002Z</time></trkpt><trkpt lat="44.8723817" lon="9.374595"><ele>414.5</ele><time>2026-04-11T12:26:03.003Z</time></trkpt><trkpt lat="44.87234" lon="9.3745083"><ele>416.0</ele><time>2026-04-11T12:26:04.002Z</time></trkpt><trkpt lat="44.8723117" lon="9.3744217"><ele>417.49999999999994</ele><time>2026-04-11T12:26:05.003Z</time></trkpt><trkpt lat="44.8722933" lon="9.3743367"><ele>419.0</ele><time>2026-04-11T12:26:06.002Z</time></trkpt><trkpt lat="44.8722883" lon="9.374235"><ele>418.99999999999994</ele><time>2026-04-11T12:26:07.002Z</time></trkpt><trkpt lat="44.8723033" lon="9.3741217"><ele>419.0</ele><time>2026-04-11T12:26:08.002Z</time></trkpt><trkpt lat="44.8723333" lon="9.3740033"><ele>419.0</ele><time>2026-04-11T12:26:09.002Z</time></trkpt><trkpt lat="44.8723717" lon="9.3739017"><ele>419.0</ele><time>2026-04-11T12:26:10.001Z</time></trkpt><trkpt lat="44.8724133" lon="9.37382"><ele>418.99999999999994</ele><time>2026-04-11T12:26:11.002Z</time></trkpt><trkpt lat="44.8724633" lon="9.373755"><ele>419.0</ele><time>2026-04-11T12:26:12.002Z</time></trkpt><trkpt lat="44.8725183" lon="9.3736933"><ele>421.16666666666663</ele><time>2026-04-11T12:26:13.001Z</time></trkpt><trkpt lat="44.872565" lon="9.37362"><ele>423.3333333333333</ele><time>2026-04-11T12:26:14.001Z</time></trkpt><trkpt lat="44.8726067" lon="9.3735283"><ele>425.5</ele><time>2026-04-11T12:26:15.002Z</time></trkpt><trkpt lat="44.8726283" lon="9.37343"><ele>427.66666666666663</ele><time>2026-04-11T12:26:16.002Z</time></trkpt><trkpt lat="44.872645" lon="9.3733383"><ele>429.8333333333333</ele><time>2026-04-11T12:26:17.002Z</time></trkpt><trkpt lat="44.8726167" lon="9.3732317"><ele>432.0</ele><time>2026-04-11T12:26:19.002Z</time></trkpt><trkpt lat="44.8725233" lon="9.3731983"><ele>432.0</ele><time>2026-04-11T12:26:21.003Z</time></trkpt><trkpt lat="44.87242" lon="9.3731717"><ele>432.00000000000006</ele><time>2026-04-11T12:26:23.002Z</time></trkpt><trkpt lat="44.87232" lon="9.3731433"><ele>432.00000000000006</ele><time>2026-04-11T12:26:25.003Z</time></trkpt><trkpt lat="44.8722433" lon="9.3730733"><ele>432.0</ele><time>2026-04-11T12:26:28.003Z</time></trkpt><trkpt lat="44.8721867" lon="9.3730017"><ele>432.0</ele><time>2026-04-11T12:26:30.003Z</time></trkpt><trkpt lat="44.8721133" lon="9.3729667"><ele>434.8</ele><time>2026-04-11T12:26:32.004Z</time></trkpt><trkpt lat="44.8720717" lon="9.3728967"><ele>437.6</ele><time>2026-04-11T12:26:34.003Z</time></trkpt><trkpt lat="44.872085" lon="9.3727717"><ele>440.40000000000003</ele><time>2026-04-11T12:26:36.004Z</time></trkpt><trkpt lat="44.8721633" lon="9.3726383"><ele>443.20000000000005</ele><time>2026-04-11T12:26:38.001Z</time></trkpt><trkpt lat="44.872225" lon="9.3724967"><ele>446.0</ele><time>2026-04-11T12:26:40.001Z</time></trkpt><trkpt lat="44.87222" lon="9.3723417"><ele>446.0</ele><time>2026-04-11T12:26:42.001Z</time></trkpt><trkpt lat="44.8721933" lon="9.3722083"><ele>446.0</ele><time>2026-04-11T12:26:44.002Z</time></trkpt><trkpt lat="44.87216" lon="9.3721"><ele>446.0</ele><time>2026-04-11T12:26:46.002Z</time></trkpt><trkpt lat="44.87211" lon="9.3719367"><ele>446.0</ele><time>2026-04-11T12:26:48.002Z</time></trkpt><trkpt lat="44.8720883" lon="9.3718317"><ele>446.0</ele><time>2026-04-11T12:26:49.003Z</time></trkpt><trkpt lat="44.8720767" lon="9.3717417"><ele>449.0</ele><time>2026-04-11T12:26:50.003Z</time></trkpt><trkpt lat="44.8720733" lon="9.3716467"><ele>452.0</ele><time>2026-04-11T12:26:51.005Z</time></trkpt><trkpt lat="44.8720967" lon="9.37146"><ele>455.0</ele><time>2026-04-11T12:26:53.003Z</time></trkpt><trkpt lat="44.8721117" lon="9.3713367"><ele>458.0</ele><time>2026-04-11T12:26:54.002Z</time></trkpt><trkpt lat="44.8721333" lon="9.3712067"><ele>461.0</ele><time>2026-04-11T12:26:55.001Z</time></trkpt><trkpt lat="44.8721683" lon="9.3710767"><ele>463.3333333333333</ele><time>2026-04-11T12:26:56.001Z</time></trkpt><trkpt lat="44.8722083" lon="9.3709567"><ele>465.66666666666663</ele><time>2026-04-11T12:26:57.002Z</time></trkpt><trkpt lat="44.8722317" lon="9.3708383"><ele>468.0</ele><time>2026-04-11T12:26:58.002Z</time></trkpt><trkpt lat="44.8722417" lon="9.370715"><ele>470.33333333333337</ele><time>2026-04-11T12:26:59.002Z</time></trkpt><trkpt lat="44.87225" lon="9.3705967"><ele>472.6666666666667</ele><time>2026-04-11T12:27:00.002Z</time></trkpt><trkpt lat="44.8722567" lon="9.370485"><ele>475.0</ele><time>2026-04-11T12:27:01.002Z</time></trkpt><trkpt lat="44.872275" lon="9.37038"><ele>478.8</ele><time>2026-04-11T12:27:02.002Z</time></trkpt><trkpt lat="44.8722983" lon="9.3702683"><ele>482.6</ele><time>2026-04-11T12:27:03.003Z</time></trkpt><trkpt lat="44.872325" lon="9.3701417"><ele>486.4</ele><time>2026-04-11T12:27:04.002Z</time></trkpt><trkpt lat="44.8723538" lon="9.3700128"><ele>490.2</ele><time>2026-04-11T12:27:05.001Z</time></trkpt><trkpt lat="44.8723912" lon="9.3698808"><ele>494.0</ele><time>2026-04-11T12:27:06.002Z</time></trkpt><trkpt lat="44.8724218" lon="9.3697522"><ele>496.3333333333333</ele><time>2026-04-11T12:27:07.002Z</time></trkpt><trkpt lat="44.8724405" lon="9.3696172"><ele>498.66666666666663</ele><time>2026-04-11T12:27:08.004Z</time></trkpt><trkpt lat="44.8724529" lon="9.3694756"><ele>501.0</ele><time>2026-04-11T12:27:09.002Z</time></trkpt><trkpt lat="44.8724667" lon="9.3693467"><ele>503.33333333333337</ele><time>2026-04-11T12:27:10.002Z</time></trkpt><trkpt lat="44.8724736" lon="9.3692346"><ele>505.6666666666667</ele><time>2026-04-11T12:27:11.002Z</time></trkpt><trkpt lat="44.8724684" lon="9.3691337"><ele>508.0</ele><time>2026-04-11T12:27:12.002Z</time></trkpt><trkpt lat="44.8724434" lon="9.3690304"><ele>508.00000000000006</ele><time>2026-04-11T12:27:13.002Z</time></trkpt><trkpt lat="44.8724083" lon="9.3689224"><ele>508.0</ele><time>2026-04-11T12:27:14.002Z</time></trkpt><trkpt lat="44.8723728" lon="9.3688028"><ele>508.0</ele><time>2026-04-11T12:27:15.003Z</time></trkpt><trkpt lat="44.8723407" lon="9.3686793"><ele>508.0</ele><time>2026-04-11T12:27:16.002Z</time></trkpt><trkpt lat="44.8723163" lon="9.3685729"><ele>508.00000000000006</ele><time>2026-04-11T12:27:17.001Z</time></trkpt><trkpt lat="44.8722951" lon="9.368481"><ele>508.0</ele><time>2026-04-11T12:27:18.003Z</time></trkpt><trkpt lat="44.8722505" lon="9.3683538"><ele>510.1666666666667</ele><time>2026-04-11T12:27:20.003Z</time></trkpt><trkpt lat="44.8722047" lon="9.3682496"><ele>512.3333333333334</ele><time>2026-04-11T12:27:23.002Z</time></trkpt><trkpt lat="44.8721766" lon="9.3681467"><ele>514.5</ele><time>2026-04-11T12:27:25.001Z</time></trkpt><trkpt lat="44.8721711" lon="9.3680557"><ele>516.6666666666666</ele><time>2026-04-11T12:27:26.002Z</time></trkpt><trkpt lat="44.8721735" lon="9.3679563"><ele>518.8333333333333</ele><time>2026-04-11T12:27:27.002Z</time></trkpt><trkpt lat="44.8721757" lon="9.367842"><ele>521.0</ele><time>2026-04-11T12:27:28.002Z</time></trkpt><trkpt lat="44.8721726" lon="9.3677114"><ele>522.8</ele><time>2026-04-11T12:27:29.002Z</time></trkpt><trkpt lat="44.8721685" lon="9.3675672"><ele>524.6</ele><time>2026-04-11T12:27:30.002Z</time></trkpt><trkpt lat="44.8721623" lon="9.3674112"><ele>526.4</ele><time>2026-04-11T12:27:31.004Z</time></trkpt><trkpt lat="44.8721543" lon="9.3672627"><ele>528.2</ele><time>2026-04-11T12:27:32.002Z</time></trkpt><trkpt lat="44.8721477" lon="9.3671185"><ele>530.0</ele><time>2026-04-11T12:27:33.002Z</time></trkpt><trkpt lat="44.8721388" lon="9.3669717"><ele>531.2</ele><time>2026-04-11T12:27:34.001Z</time></trkpt><trkpt lat="44.8721294" lon="9.36682"><ele>532.4</ele><time>2026-04-11T12:27:35.002Z</time></trkpt><trkpt lat="44.872117" lon="9.3666689"><ele>533.6</ele><time>2026-04-11T12:27:36.001Z</time></trkpt><trkpt lat="44.8721022" lon="9.3665187"><ele>534.8</ele><time>2026-04-11T12:27:37.001Z</time></trkpt><trkpt lat="44.872091" lon="9.3663704"><ele>536.0</ele><time>2026-04-11T12:27:38.002Z</time></trkpt><trkpt lat="44.8720812" lon="9.366226"><ele>538.6</ele><time>2026-04-11T12:27:39.003Z</time></trkpt><trkpt lat="44.8720803" lon="9.36608"><ele>541.2</ele><time>2026-04-11T12:27:40.003Z</time></trkpt><trkpt lat="44.872085" lon="9.365945"><ele>543.8</ele><time>2026-04-11T12:27:41.003Z</time></trkpt><trkpt lat="44.8720867" lon="9.3658167"><ele>546.4</ele><time>2026-04-11T12:27:42.004Z</time></trkpt><trkpt lat="44.872085" lon="9.3656867"><ele>549.0</ele><time>2026-04-11T12:27:43.004Z</time></trkpt><trkpt lat="44.8720883" lon="9.3655417"><ele>552.0</ele><time>2026-04-11T12:27:44.004Z</time></trkpt><trkpt lat="44.8720983" lon="9.3653733"><ele>555.0</ele><time>2026-04-11T12:27:45.004Z</time></trkpt><trkpt lat="44.87211" lon="9.36521"><ele>558.0</ele><time>2026-04-11T12:27:46.002Z</time></trkpt><trkpt lat="44.8721217" lon="9.3650767"><ele>561.0</ele><time>2026-04-11T12:27:47.002Z</time></trkpt><trkpt lat="44.8721333" lon="9.3649583"><ele>564.0</ele><time>2026-04-11T12:27:48.001Z</time></trkpt><trkpt lat="44.8721383" lon="9.364855"><ele>564.0</ele><time>2026-04-11T12:27:49.002Z</time></trkpt><trkpt lat="44.872135" lon="9.364745"><ele>564.0</ele><time>2026-04-11T12:27:50.003Z</time></trkpt><trkpt lat="44.872135" lon="9.3646367"><ele>564.0</ele><time>2026-04-11T12:27:51.002Z</time></trkpt><trkpt lat="44.8721467" lon="9.3645317"><ele>564.0</ele><time>2026-04-11T12:27:52.002Z</time></trkpt><trkpt lat="44.8721617" lon="9.3644167"><ele>564.0</ele><time>2026-04-11T12:27:53.002Z</time></trkpt><trkpt lat="44.8721817" lon="9.3642983"><ele>564.0</ele><time>2026-04-11T12:27:54.003Z</time></trkpt><trkpt lat="44.8721917" lon="9.3641917"><ele>567.0</ele><time>2026-04-11T12:27:55.003Z</time></trkpt><trkpt lat="44.8721917" lon="9.364095"><ele>570.0</ele><time>2026-04-11T12:27:56.002Z</time></trkpt><trkpt lat="44.872175" lon="9.364"><ele>573.0</ele><time>2026-04-11T12:27:57.003Z</time></trkpt><trkpt lat="44.8721267" lon="9.3638667"><ele>576.0</ele><time>2026-04-11T12:27:59.002Z</time></trkpt><trkpt lat="44.8721517" lon="9.3637067"><ele>579.0</ele><time>2026-04-11T12:28:01.003Z</time></trkpt><trkpt lat="44.872185" lon="9.363575"><ele>582.5</ele><time>2026-04-11T12:28:02.003Z</time></trkpt><trkpt lat="44.8722217" lon="9.3634267"><ele>586.0</ele><time>2026-04-11T12:28:03.003Z</time></trkpt><trkpt lat="44.8722517" lon="9.36327"><ele>589.5</ele><time>2026-04-11T12:28:04.004Z</time></trkpt><trkpt lat="44.8722783" lon="9.363115"><ele>593.0</ele><time>2026-04-11T12:28:05.003Z</time></trkpt><trkpt lat="44.8723033" lon="9.3629633"><ele>596.75</ele><time>2026-04-11T12:28:06.004Z</time></trkpt><trkpt lat="44.872335" lon="9.3628017"><ele>600.5</ele><time>2026-04-11T12:28:07.003Z</time></trkpt><trkpt lat="44.87237" lon="9.362635"><ele>604.25</ele><time>2026-04-11T12:28:08.004Z</time></trkpt><trkpt lat="44.8724033" lon="9.3624683"><ele>608.0</ele><time>2026-04-11T12:28:09.003Z</time></trkpt><trkpt lat="44.8724417" lon="9.3623067"><ele>610.3333333333333</ele><time>2026-04-11T12:28:10.004Z</time></trkpt><trkpt lat="44.8724767" lon="9.3621583"><ele>612.6666666666666</ele><time>2026-04-11T12:28:11.003Z</time></trkpt><trkpt lat="44.8725067" lon="9.36203"><ele>615.0</ele><time>2026-04-11T12:28:12.003Z</time></trkpt><trkpt lat="44.8725367" lon="9.3619267"><ele>617.3333333333334</ele><time>2026-04-11T12:28:13.003Z</time></trkpt><trkpt lat="44.872575" lon="9.3618383"><ele>619.6666666666667</ele><time>2026-04-11T12:28:14.004Z</time></trkpt><trkpt lat="44.8726133" lon="9.361755"><ele>622.0</ele><time>2026-04-11T12:28:15.002Z</time></trkpt><trkpt lat="44.8726367" lon="9.361665"><ele>622.3333333333334</ele><time>2026-04-11T12:28:16.002Z</time></trkpt><trkpt lat="44.8726517" lon="9.3615683"><ele>622.6666666666667</ele><time>2026-04-11T12:28:17.001Z</time></trkpt><trkpt lat="44.8726667" lon="9.36147"><ele>623.0</ele><time>2026-04-11T12:28:18.001Z</time></trkpt><trkpt lat="44.8726867" lon="9.36137"><ele>623.3333333333334</ele><time>2026-04-11T12:28:19.002Z</time></trkpt><trkpt lat="44.8727017" lon="9.36128"><ele>623.6666666666666</ele><time>2026-04-11T12:28:20.002Z</time></trkpt><trkpt lat="44.8727267" lon="9.3611183"><ele>624.0</ele><time>2026-04-11T12:28:22.004Z</time></trkpt><trkpt lat="44.8727617" lon="9.360955"><ele>626.1666666666666</ele><time>2026-04-11T12:28:24.003Z</time></trkpt><trkpt lat="44.87279" lon="9.3608633"><ele>628.3333333333334</ele><time>2026-04-11T12:28:25.002Z</time></trkpt><trkpt lat="44.8728167" lon="9.3607583"><ele>630.5</ele><time>2026-04-11T12:28:26.003Z</time></trkpt><trkpt lat="44.8728467" lon="9.3606583"><ele>632.6666666666667</ele><time>2026-04-11T12:28:27.004Z</time></trkpt><trkpt lat="44.87289" lon="9.3605717"><ele>634.8333333333334</ele><time>2026-04-11T12:28:28.003Z</time></trkpt><trkpt lat="44.872945" lon="9.3604917"><ele>637.0</ele><time>2026-04-11T12:28:29.002Z</time></trkpt><trkpt lat="44.873005" lon="9.3604333"><ele>638.6666666666667</ele><time>2026-04-11T12:28:30.003Z</time></trkpt><trkpt lat="44.87307" lon="9.3603933"><ele>640.3333333333334</ele><time>2026-04-11T12:28:31.002Z</time></trkpt><trkpt lat="44.8731383" lon="9.360365"><ele>642.0</ele><time>2026-04-11T12:28:32.002Z</time></trkpt><trkpt lat="44.8732283" lon="9.3603133"><ele>643.6666666666666</ele><time>2026-04-11T12:28:34.003Z</time></trkpt><trkpt lat="44.87327" lon="9.360235"><ele>645.3333333333333</ele><time>2026-04-11T12:28:36.002Z</time></trkpt><trkpt lat="44.8733" lon="9.3600817"><ele>647.0</ele><time>2026-04-11T12:30:00.002Z</time></trkpt><trkpt lat="44.87332" lon="9.3599883"><ele>647.0</ele><time>2026-04-11T12:30:01.002Z</time></trkpt><trkpt lat="44.8733517" lon="9.35985"><ele>647.0</ele><time>2026-04-11T12:30:02.001Z</time></trkpt><trkpt lat="44.8733817" lon="9.3596983"><ele>647.0</ele><time>2026-04-11T12:30:03.003Z</time></trkpt><trkpt lat="44.87341" lon="9.35954"><ele>647.0</ele><time>2026-04-11T12:30:04.003Z</time></trkpt><trkpt lat="44.8734317" lon="9.3593733"><ele>647.0</ele><time>2026-04-11T12:30:05.003Z</time></trkpt><trkpt lat="44.8734483" lon="9.3592"><ele>647.0</ele><time>2026-04-11T12:30:06.002Z</time></trkpt><trkpt lat="44.8734583" lon="9.359025"><ele>647.0</ele><time>2026-04-11T12:30:07.003Z</time></trkpt><trkpt lat="44.8734617" lon="9.35885"><ele>647.0</ele><time>2026-04-11T12:30:08.003Z</time></trkpt><trkpt lat="44.8734633" lon="9.3586833"><ele>648.2</ele><time>2026-04-11T12:30:09.002Z</time></trkpt><trkpt lat="44.87346" lon="9.3585317"><ele>649.4000000000001</ele><time>2026-04-11T12:30:10.003Z</time></trkpt><trkpt lat="44.8734517" lon="9.3583833"><ele>650.5999999999999</ele><time>2026-04-11T12:30:11.003Z</time></trkpt><trkpt lat="44.8734483" lon="9.3582333"><ele>651.8</ele><time>2026-04-11T12:30:12.001Z</time></trkpt><trkpt lat="44.8734483" lon="9.3580917"><ele>653.0</ele><time>2026-04-11T12:30:13.002Z</time></trkpt><trkpt lat="44.87345" lon="9.3579583"><ele>653.0</ele><time>2026-04-11T12:30:14.003Z</time></trkpt><trkpt lat="44.8734533" lon="9.35784"><ele>653.0</ele><time>2026-04-11T12:30:15.004Z</time></trkpt><trkpt lat="44.8734517" lon="9.35772"><ele>653.0</ele><time>2026-04-11T12:30:16.002Z</time></trkpt><trkpt lat="44.87344" lon="9.3575967"><ele>653.0</ele><time>2026-04-11T12:30:17.001Z</time></trkpt><trkpt lat="44.873415" lon="9.357465"><ele>653.0</ele><time>2026-04-11T12:30:18.001Z</time></trkpt><trkpt lat="44.87339" lon="9.3573283"><ele>657.1666666666666</ele><time>2026-04-11T12:30:19.002Z</time></trkpt><trkpt lat="44.8733717" lon="9.3571933"><ele>661.3333333333333</ele><time>2026-04-11T12:30:20.002Z</time></trkpt><trkpt lat="44.8733533" lon="9.3570667"><ele>665.5</ele><time>2026-04-11T12:30:21.002Z</time></trkpt><trkpt lat="44.873335" lon="9.3569617"><ele>669.6666666666666</ele><time>2026-04-11T12:30:22.002Z</time></trkpt><trkpt lat="44.8733217" lon="9.35682"><ele>673.8333333333334</ele><time>2026-04-11T12:30:24.002Z</time></trkpt><trkpt lat="44.8733417" lon="9.3567317"><ele>678.0</ele><time>2026-04-11T12:30:26.001Z</time></trkpt><trkpt lat="44.8733583" lon="9.356625"><ele>678.0</ele><time>2026-04-11T12:30:28.003Z</time></trkpt><trkpt lat="44.8733783" lon="9.3564567"><ele>678.0</ele><time>2026-04-11T12:30:30.002Z</time></trkpt><trkpt lat="44.873395" lon="9.3562867"><ele>678.0</ele><time>2026-04-11T12:30:32.002Z</time></trkpt><trkpt lat="44.8733867" lon="9.3561983"><ele>678.0</ele><time>2026-04-11T12:30:33.002Z</time></trkpt><trkpt lat="44.8733583" lon="9.35603"><ele>678.0</ele><time>2026-04-11T12:30:35.002Z</time></trkpt><trkpt lat="44.8733367" lon="9.35594"><ele>680.0</ele><time>2026-04-11T12:30:36.003Z</time></trkpt><trkpt lat="44.8733083" lon="9.3558517"><ele>682.0</ele><time>2026-04-11T12:30:37.003Z</time></trkpt><trkpt lat="44.873275" lon="9.3557617"><ele>684.0</ele><time>2026-04-11T12:30:38.004Z</time></trkpt><trkpt lat="44.8732417" lon="9.3556733"><ele>686.0</ele><time>2026-04-11T12:30:39.004Z</time></trkpt><trkpt lat="44.8732183" lon="9.3555717"><ele>688.0</ele><time>2026-04-11T12:30:40.003Z</time></trkpt><trkpt lat="44.8732017" lon="9.3554617"><ele>690.0</ele><time>2026-04-11T12:30:41.002Z</time></trkpt><trkpt lat="44.8731867" lon="9.355345"><ele>691.5</ele><time>2026-04-11T12:30:42.001Z</time></trkpt><trkpt lat="44.8731767" lon="9.3552233"><ele>693.0</ele><time>2026-04-11T12:30:43.002Z</time></trkpt><trkpt lat="44.8731717" lon="9.3551067"><ele>694.5</ele><time>2026-04-11T12:30:44.001Z</time></trkpt><trkpt lat="44.87318" lon="9.3549917"><ele>696.0</ele><time>2026-04-11T12:30:45.001Z</time></trkpt><trkpt lat="44.8731967" lon="9.3548833"><ele>697.5</ele><time>2026-04-11T12:30:46.002Z</time></trkpt><trkpt lat="44.87321" lon="9.3547867"><ele>699.0</ele><time>2026-04-11T12:30:47.003Z</time></trkpt><trkpt lat="44.8732117" lon="9.3546483"><ele>700.6666666666666</ele><time>2026-04-11T12:30:49.001Z</time></trkpt><trkpt lat="44.87314" lon="9.35455"><ele>702.3333333333334</ele><time>2026-04-11T12:30:51.002Z</time></trkpt><trkpt lat="44.87309" lon="9.354495"><ele>704.0</ele><time>2026-04-11T12:30:52.001Z</time></trkpt><trkpt lat="44.873045" lon="9.354415"><ele>705.6666666666667</ele><time>2026-04-11T12:30:53.001Z</time></trkpt><trkpt lat="44.873005" lon="9.3543167"><ele>707.3333333333334</ele><time>2026-04-11T12:30:54.001Z</time></trkpt><trkpt lat="44.8729683" lon="9.3542033"><ele>709.0</ele><time>2026-04-11T12:30:55Z</time></trkpt><trkpt lat="44.8729333" lon="9.3540883"><ele>709.0</ele><time>2026-04-11T12:30:56.002Z</time></trkpt><trkpt lat="44.872895" lon="9.353955"><ele>709.0</ele><time>2026-04-11T12:30:57.001Z</time></trkpt><trkpt lat="44.8728567" lon="9.35382"><ele>709.0</ele><time>2026-04-11T12:30:58.001Z</time></trkpt><trkpt lat="44.8728283" lon="9.3537"><ele>709.0</ele><time>2026-04-11T12:30:59.002Z</time></trkpt><trkpt lat="44.8728067" lon="9.3536017"><ele>709.0</ele><time>2026-04-11T12:31:00.002Z</time></trkpt><trkpt lat="44.872805" lon="9.35346"><ele>710.0</ele><time>2026-04-11T12:31:02.001Z</time></trkpt><trkpt lat="44.872805" lon="9.353345"><ele>711.0</ele><time>2026-04-11T12:31:04.001Z</time></trkpt><trkpt lat="44.8727383" lon="9.3532267"><ele>712.0</ele><time>2026-04-11T12:31:06.002Z</time></trkpt><trkpt lat="44.8726817" lon="9.35316"><ele>713.0</ele><time>2026-04-11T12:31:07.001Z</time></trkpt><trkpt lat="44.87263" lon="9.353085"><ele>714.0</ele><time>2026-04-11T12:31:08.002Z</time></trkpt><trkpt lat="44.8725783" lon="9.3530067"><ele>715.0</ele><time>2026-04-11T12:31:09.002Z</time></trkpt><trkpt lat="44.8725267" lon="9.3529267"><ele>717.6666666666667</ele><time>2026-04-11T12:31:10.001Z</time></trkpt><trkpt lat="44.87247" lon="9.3528433"><ele>720.3333333333334</ele><time>2026-04-11T12:31:11.001Z</time></trkpt><trkpt lat="44.8724117" lon="9.35275"><ele>723.0</ele><time>2026-04-11T12:31:12.001Z</time></trkpt><trkpt lat="44.872355" lon="9.3526633"><ele>725.6666666666666</ele><time>2026-04-11T12:31:13.001Z</time></trkpt><trkpt lat="44.872305" lon="9.35258"><ele>728.3333333333333</ele><time>2026-04-11T12:31:14.001Z</time></trkpt><trkpt lat="44.872255" lon="9.3525033"><ele>731.0</ele><time>2026-04-11T12:31:15.002Z</time></trkpt><trkpt lat="44.8721883" lon="9.3523617"><ele>731.0</ele><time>2026-04-11T12:31:17.002Z</time></trkpt><trkpt lat="44.87217" lon="9.3522767"><ele>731.0</ele><time>2026-04-11T12:31:18.002Z</time></trkpt><trkpt lat="44.872145" lon="9.3521817"><ele>731.0</ele><time>2026-04-11T12:31:19.001Z</time></trkpt><trkpt lat="44.872115" lon="9.35209"><ele>731.0</ele><time>2026-04-11T12:31:20.001Z</time></trkpt><trkpt lat="44.8720817" lon="9.3520033"><ele>731.0</ele><time>2026-04-11T12:31:21.001Z</time></trkpt><trkpt lat="44.87205" lon="9.3518983"><ele>731.0</ele><time>2026-04-11T12:31:22.001Z</time></trkpt><trkpt lat="44.8720133" lon="9.351775"><ele>731.1999999999999</ele><time>2026-04-11T12:31:23Z</time></trkpt><trkpt lat="44.8719833" lon="9.3516467"><ele>731.4</ele><time>2026-04-11T12:31:24Z</time></trkpt><trkpt lat="44.8719667" lon="9.3515083"><ele>731.6</ele><time>2026-04-11T12:31:25Z</time></trkpt><trkpt lat="44.8719633" lon="9.3513567"><ele>731.8</ele><time>2026-04-11T12:31:26Z</time></trkpt><trkpt lat="44.8719633" lon="9.3512183"><ele>732.0</ele><time>2026-04-11T12:31:27.001Z</time></trkpt><trkpt lat="44.8719483" lon="9.3510917"><ele>732.0</ele><time>2026-04-11T12:31:28.001Z</time></trkpt><trkpt lat="44.8719217" lon="9.3509767"><ele>732.0</ele><time>2026-04-11T12:31:29.002Z</time></trkpt><trkpt lat="44.871895" lon="9.3508783"><ele>732.0</ele><time>2026-04-11T12:31:30.001Z</time></trkpt><trkpt lat="44.87187" lon="9.3507717"><ele>732.0</ele><time>2026-04-11T12:31:31Z</time></trkpt><trkpt lat="44.8718383" lon="9.3506517"><ele>732.0</ele><time>2026-04-11T12:31:32.001Z</time></trkpt><trkpt lat="44.8718" lon="9.3505233"><ele>732.0</ele><time>2026-04-11T12:31:33.001Z</time></trkpt><trkpt lat="44.87175" lon="9.3503867"><ele>736.6</ele><time>2026-04-11T12:31:34.001Z</time></trkpt><trkpt lat="44.8716967" lon="9.35025"><ele>741.2</ele><time>2026-04-11T12:31:35.001Z</time></trkpt><trkpt lat="44.8716417" lon="9.3501117"><ele>745.8</ele><time>2026-04-11T12:31:36.001Z</time></trkpt><trkpt lat="44.8715883" lon="9.34998"><ele>750.4</ele><time>2026-04-11T12:31:37.002Z</time></trkpt><trkpt lat="44.8715367" lon="9.349875"><ele>755.0</ele><time>2026-04-11T12:31:38.001Z</time></trkpt><trkpt lat="44.8714717" lon="9.3497817"><ele>757.6666666666666</ele><time>2026-04-11T12:31:39.002Z</time></trkpt><trkpt lat="44.871405" lon="9.3496967"><ele>760.3333333333333</ele><time>2026-04-11T12:31:40.001Z</time></trkpt><trkpt lat="44.8713483" lon="9.3496133"><ele>763.0</ele><time>2026-04-11T12:31:41.001Z</time></trkpt><trkpt lat="44.8713083" lon="9.349525"><ele>765.6666666666666</ele><time>2026-04-11T12:31:42.002Z</time></trkpt><trkpt lat="44.87128" lon="9.3494267"><ele>768.3333333333334</ele><time>2026-04-11T12:31:43.002Z</time></trkpt><trkpt lat="44.8712667" lon="9.3493183"><ele>771.0</ele><time>2026-04-11T12:31:44.002Z</time></trkpt><trkpt lat="44.871255" lon="9.3492017"><ele>771.0</ele><time>2026-04-11T12:31:45.001Z</time></trkpt><trkpt lat="44.87125" lon="9.3490867"><ele>771.0</ele><time>2026-04-11T12:31:46Z</time></trkpt><trkpt lat="44.8712633" lon="9.348965"><ele>771.0</ele><time>2026-04-11T12:31:47.001Z</time></trkpt><trkpt lat="44.8712917" lon="9.348825"><ele>771.0</ele><time>2026-04-11T12:31:48.001Z</time></trkpt><trkpt lat="44.8713267" lon="9.34868"><ele>771.0</ele><time>2026-04-11T12:31:49Z</time></trkpt><trkpt lat="44.8713617" lon="9.3485467"><ele>771.1666666666666</ele><time>2026-04-11T12:31:50.001Z</time></trkpt><trkpt lat="44.8713867" lon="9.3484317"><ele>771.3333333333333</ele><time>2026-04-11T12:31:51.001Z</time></trkpt><trkpt lat="44.8714133" lon="9.3483383"><ele>771.5</ele><time>2026-04-11T12:31:52.001Z</time></trkpt><trkpt lat="44.8714433" lon="9.3482567"><ele>771.6666666666666</ele><time>2026-04-11T12:31:52.999Z</time></trkpt><trkpt lat="44.8714917" lon="9.34815"><ele>771.8333333333333</ele><time>2026-04-11T12:31:55Z</time></trkpt><trkpt lat="44.8715117" lon="9.3480417"><ele>772.0</ele><time>2026-04-11T12:31:57.001Z</time></trkpt><trkpt lat="44.8714733" lon="9.3479383"><ele>772.0</ele><time>2026-04-11T12:31:59.001Z</time></trkpt><trkpt lat="44.8713983" lon="9.3478167"><ele>772.0</ele><time>2026-04-11T12:32:01.001Z</time></trkpt><trkpt lat="44.871355" lon="9.34775"><ele>772.0</ele><time>2026-04-11T12:32:02.001Z</time></trkpt><trkpt lat="44.8713133" lon="9.3476817"><ele>772.0</ele><time>2026-04-11T12:32:03.002Z</time></trkpt><trkpt lat="44.8712433" lon="9.3475383"><ele>772.0</ele><time>2026-04-11T12:32:05.003Z</time></trkpt><trkpt lat="44.8712" lon="9.347385"><ele>772.0</ele><time>2026-04-11T12:32:07.002Z</time></trkpt><trkpt lat="44.871185" lon="9.3472483"><ele>772.0</ele><time>2026-04-11T12:32:09.004Z</time></trkpt><trkpt lat="44.87116" lon="9.3471417"><ele>772.0</ele><time>2026-04-11T12:32:11.002Z</time></trkpt><trkpt lat="44.871155" lon="9.3470083"><ele>772.0</ele><time>2026-04-11T12:32:14Z</time></trkpt><trkpt lat="44.871195" lon="9.34686"><ele>772.0</ele><time>2026-04-11T12:32:16.001Z</time></trkpt><trkpt lat="44.87122" lon="9.3467667"><ele>772.4000000000001</ele><time>2026-04-11T12:32:17.001Z</time></trkpt><trkpt lat="44.8712533" lon="9.3466683"><ele>772.8000000000001</ele><time>2026-04-11T12:32:18Z</time></trkpt><trkpt lat="44.8713017" lon="9.3465583"><ele>773.2</ele><time>2026-04-11T12:32:19.002Z</time></trkpt><trkpt lat="44.8713583" lon="9.34644"><ele>773.6</ele><time>2026-04-11T12:32:20Z</time></trkpt><trkpt lat="44.8714183" lon="9.34631"><ele>774.0</ele><time>2026-04-11T12:32:21.001Z</time></trkpt><trkpt lat="44.8714717" lon="9.346185"><ele>774.0</ele><time>2026-04-11T12:32:22Z</time></trkpt><trkpt lat="44.8715233" lon="9.3460633"><ele>774.0</ele><time>2026-04-11T12:32:23.001Z</time></trkpt><trkpt lat="44.8715667" lon="9.34595"><ele>774.0</ele><time>2026-04-11T12:32:24Z</time></trkpt><trkpt lat="44.8716033" lon="9.3458517"><ele>774.0</ele><time>2026-04-11T12:32:25Z</time></trkpt><trkpt lat="44.8716333" lon="9.3457633"><ele>774.0</ele><time>2026-04-11T12:32:26Z</time></trkpt><trkpt lat="44.8716633" lon="9.3456767"><ele>774.0</ele><time>2026-04-11T12:32:27.001Z</time></trkpt><trkpt lat="44.871705" lon="9.3455817"><ele>774.5</ele><time>2026-04-11T12:32:28Z</time></trkpt><trkpt lat="44.8717533" lon="9.3454883"><ele>775.0</ele><time>2026-04-11T12:32:29.001Z</time></trkpt><trkpt lat="44.8718067" lon="9.3453983"><ele>775.5</ele><time>2026-04-11T12:32:30.002Z</time></trkpt><trkpt lat="44.8718667" lon="9.345315"><ele>776.0</ele><time>2026-04-11T12:32:31.003Z</time></trkpt><trkpt lat="44.8719217" lon="9.34524"><ele>776.5</ele><time>2026-04-11T12:32:32.002Z</time></trkpt><trkpt lat="44.8719667" lon="9.3451767"><ele>777.0</ele><time>2026-04-11T12:32:33.003Z</time></trkpt><trkpt lat="44.8720283" lon="9.3451117"><ele>774.2</ele><time>2026-04-11T12:32:35.001Z</time></trkpt><trkpt lat="44.8721117" lon="9.3450483"><ele>771.4000000000001</ele><time>2026-04-11T12:32:38.001Z</time></trkpt><trkpt lat="44.8722017" lon="9.34503"><ele>768.5999999999999</ele><time>2026-04-11T12:32:40.001Z</time></trkpt><trkpt lat="44.87234" lon="9.3450067"><ele>765.8</ele><time>2026-04-11T12:32:42.001Z</time></trkpt><trkpt lat="44.8724283" lon="9.3449967"><ele>763.0</ele><time>2026-04-11T12:32:43.001Z</time></trkpt><trkpt lat="44.87251" lon="9.344985"><ele>763.0</ele><time>2026-04-11T12:32:44.001Z</time></trkpt><trkpt lat="44.8725917" lon="9.3449767"><ele>763.0</ele><time>2026-04-11T12:32:45.001Z</time></trkpt><trkpt lat="44.87267" lon="9.3449667"><ele>763.0</ele><time>2026-04-11T12:32:46Z</time></trkpt><trkpt lat="44.8727433" lon="9.344965"><ele>763.0</ele><time>2026-04-11T12:32:47.001Z</time></trkpt><trkpt lat="44.8728133" lon="9.3449667"><ele>763.0</ele><time>2026-04-11T12:32:48.001Z</time></trkpt><trkpt lat="44.87288" lon="9.3449683"><ele>763.0</ele><time>2026-04-11T12:32:49.001Z</time></trkpt><trkpt lat="44.8729883" lon="9.3449817"><ele>759.8</ele><time>2026-04-11T12:32:51.002Z</time></trkpt><trkpt lat="44.873095" lon="9.345"><ele>756.5999999999999</ele><time>2026-04-11T12:32:53Z</time></trkpt><trkpt lat="44.8732017" lon="9.3450167"><ele>753.4000000000001</ele><time>2026-04-11T12:32:55.002Z</time></trkpt><trkpt lat="44.873265" lon="9.345025"><ele>750.2</ele><time>2026-04-11T12:32:56.001Z</time></trkpt><trkpt lat="44.87333" lon="9.3450317"><ele>747.0</ele><time>2026-04-11T12:32:57.001Z</time></trkpt><trkpt lat="44.8734533" lon="9.3450433"><ele>744.4000000000001</ele><time>2026-04-11T12:32:59Z</time></trkpt><trkpt lat="44.87355" lon="9.3450617"><ele>741.8000000000001</ele><time>2026-04-11T12:33:01.001Z</time></trkpt><trkpt lat="44.8736617" lon="9.3451033"><ele>739.2</ele><time>2026-04-11T12:33:03.001Z</time></trkpt><trkpt lat="44.87378" lon="9.3450883"><ele>736.6</ele><time>2026-04-11T12:33:05.001Z</time></trkpt><trkpt lat="44.87385" lon="9.34508"><ele>734.0</ele><time>2026-04-11T12:33:06.002Z</time></trkpt><trkpt lat="44.873965" lon="9.3450583"><ele>734.0</ele><time>2026-04-11T12:33:08.001Z</time></trkpt><trkpt lat="44.8740367" lon="9.3450567"><ele>734.0</ele><time>2026-04-11T12:33:10.002Z</time></trkpt><trkpt lat="44.874095" lon="9.345095"><ele>734.0</ele><time>2026-04-11T12:33:13Z</time></trkpt><trkpt lat="44.874195" lon="9.3451133"><ele>734.0</ele><time>2026-04-11T12:33:16Z</time></trkpt><trkpt lat="44.8742717" lon="9.3450683"><ele>734.0</ele><time>2026-04-11T12:33:18.001Z</time></trkpt><trkpt lat="44.8743483" lon="9.3450317"><ele>734.0</ele><time>2026-04-11T12:33:20.001Z</time></trkpt><trkpt lat="44.8744317" lon="9.3450083"><ele>730.5</ele><time>2026-04-11T12:33:22.001Z</time></trkpt><trkpt lat="44.8745183" lon="9.344965"><ele>727.0</ele><time>2026-04-11T12:33:24.001Z</time></trkpt><trkpt lat="44.8746117" lon="9.3449617"><ele>723.5</ele><time>2026-04-11T12:33:26Z</time></trkpt><trkpt lat="44.8746733" lon="9.34499"><ele>720.0</ele><time>2026-04-11T12:33:27.002Z</time></trkpt><trkpt lat="44.87474" lon="9.34501"><ele>716.5</ele><time>2026-04-11T12:33:28.001Z</time></trkpt><trkpt lat="44.874805" lon="9.3450233"><ele>713.0</ele><time>2026-04-11T12:33:29.001Z</time></trkpt><trkpt lat="44.8749083" lon="9.345075"><ele>713.0</ele><time>2026-04-11T12:33:31.001Z</time></trkpt><trkpt lat="44.874985" lon="9.3451133"><ele>713.0</ele><time>2026-04-11T12:33:33.001Z</time></trkpt><trkpt lat="44.8750467" lon="9.345155"><ele>713.0</ele><time>2026-04-11T12:33:35.001Z</time></trkpt><trkpt lat="44.8751233" lon="9.3451833"><ele>713.0</ele><time>2026-04-11T12:33:37.001Z</time></trkpt><trkpt lat="44.8752017" lon="9.3451817"><ele>713.0</ele><time>2026-04-11T12:33:39.001Z</time></trkpt><trkpt lat="44.8752733" lon="9.3451967"><ele>713.0</ele><time>2026-04-11T12:33:41.001Z</time></trkpt><trkpt lat="44.8753567" lon="9.345205"><ele>710.4285714285714</ele><time>2026-04-11T12:33:43Z</time></trkpt><trkpt lat="44.8754283" lon="9.34518"><ele>707.8571428571429</ele><time>2026-04-11T12:33:45.001Z</time></trkpt><trkpt lat="44.875475" lon="9.34512"><ele>705.2857142857143</ele><time>2026-04-11T12:33:47Z</time></trkpt><trkpt lat="44.8755233" lon="9.34506"><ele>702.7142857142858</ele><time>2026-04-11T12:33:49Z</time></trkpt><trkpt lat="44.8755783" lon="9.3449967"><ele>700.1428571428571</ele><time>2026-04-11T12:33:51.002Z</time></trkpt><trkpt lat="44.87564" lon="9.3449333"><ele>697.5714285714287</ele><time>2026-04-11T12:33:53Z</time></trkpt><trkpt lat="44.8757117" lon="9.3448667"><ele>695.0</ele><time>2026-04-11T12:33:55Z</time></trkpt><trkpt lat="44.8757848" lon="9.3448044"><ele>695.0</ele><time>2026-04-11T12:33:57.073Z</time></trkpt><trkpt lat="44.8758328" lon="9.3447364"><ele>695.0</ele><time>2026-04-11T12:33:58.98Z</time></trkpt><trkpt lat="44.8759048" lon="9.3446652"><ele>695.0</ele><time>2026-04-11T12:34:01.099Z</time></trkpt><trkpt lat="44.8760021" lon="9.3445932"><ele>695.0</ele><time>2026-04-11T12:34:03.002Z</time></trkpt><trkpt lat="44.8761018" lon="9.3445593"><ele>695.0</ele><time>2026-04-11T12:34:05.001Z</time></trkpt><trkpt lat="44.8762402" lon="9.3445609"><ele>694.3333333333333</ele><time>2026-04-11T12:34:07.002Z</time></trkpt><trkpt lat="44.8763248" lon="9.3445636"><ele>693.6666666666666</ele><time>2026-04-11T12:34:08.002Z</time></trkpt><trkpt lat="44.8764063" lon="9.3445622"><ele>693.0</ele><time>2026-04-11T12:34:09.002Z</time></trkpt><trkpt lat="44.8764857" lon="9.344555"><ele>692.3333333333334</ele><time>2026-04-11T12:34:10.001Z</time></trkpt><trkpt lat="44.8765607" lon="9.3445353"><ele>691.6666666666667</ele><time>2026-04-11T12:34:11.002Z</time></trkpt><trkpt lat="44.8766291" lon="9.3444961"><ele>691.0</ele><time>2026-04-11T12:34:12.002Z</time></trkpt><trkpt lat="44.8766878" lon="9.3444407"><ele>687.8</ele><time>2026-04-11T12:34:13.002Z</time></trkpt><trkpt lat="44.8767783" lon="9.3443207"><ele>684.5999999999999</ele><time>2026-04-11T12:34:15.001Z</time></trkpt><trkpt lat="44.8768615" lon="9.344219"><ele>681.4</ele><time>2026-04-11T12:34:17.002Z</time></trkpt><trkpt lat="44.8769526" lon="9.3441246"><ele>678.2</ele><time>2026-04-11T12:34:19Z</time></trkpt><trkpt lat="44.8770091" lon="9.3440671"><ele>675.0</ele><time>2026-04-11T12:34:20.001Z</time></trkpt><trkpt lat="44.8770693" lon="9.3440104"><ele>675.0</ele><time>2026-04-11T12:34:21.002Z</time></trkpt><trkpt lat="44.8771299" lon="9.3439538"><ele>675.0</ele><time>2026-04-11T12:34:22.002Z</time></trkpt><trkpt lat="44.8771928" lon="9.3439135"><ele>675.0</ele><time>2026-04-11T12:34:23.001Z</time></trkpt><trkpt lat="44.8773034" lon="9.3438712"><ele>675.0</ele><time>2026-04-11T12:34:25.001Z</time></trkpt><trkpt lat="44.8773665" lon="9.3438543"><ele>675.0</ele><time>2026-04-11T12:34:26.002Z</time></trkpt><trkpt lat="44.8774365" lon="9.3438279"><ele>675.0</ele><time>2026-04-11T12:34:27.002Z</time></trkpt><trkpt lat="44.8775121" lon="9.3437924"><ele>674.5</ele><time>2026-04-11T12:34:28.002Z</time></trkpt><trkpt lat="44.8775877" lon="9.3437604"><ele>674.0</ele><time>2026-04-11T12:34:29.001Z</time></trkpt><trkpt lat="44.8776643" lon="9.3437271"><ele>673.5</ele><time>2026-04-11T12:34:30.001Z</time></trkpt><trkpt lat="44.8777403" lon="9.3436883"><ele>673.0</ele><time>2026-04-11T12:34:31.001Z</time></trkpt><trkpt lat="44.8778172" lon="9.3436522"><ele>672.5</ele><time>2026-04-11T12:34:32.001Z</time></trkpt><trkpt lat="44.8778915" lon="9.3436218"><ele>672.0</ele><time>2026-04-11T12:34:33.002Z</time></trkpt><trkpt lat="44.8779728" lon="9.3436068"><ele>672.0</ele><time>2026-04-11T12:34:34Z</time></trkpt><trkpt lat="44.8780613" lon="9.3435897"><ele>672.0</ele><time>2026-04-11T12:34:35.001Z</time></trkpt><trkpt lat="44.8781438" lon="9.3435597"><ele>672.0</ele><time>2026-04-11T12:34:36Z</time></trkpt><trkpt lat="44.878231" lon="9.3435209"><ele>672.0</ele><time>2026-04-11T12:34:37.002Z</time></trkpt><trkpt lat="44.8783194" lon="9.3434817"><ele>672.0</ele><time>2026-04-11T12:34:38.001Z</time></trkpt><trkpt lat="44.8784143" lon="9.3434552"><ele>668.6666666666666</ele><time>2026-04-11T12:34:39.001Z</time></trkpt><trkpt lat="44.8785074" lon="9.3434304"><ele>665.3333333333334</ele><time>2026-04-11T12:34:40.001Z</time></trkpt><trkpt lat="44.8785909" lon="9.3434018"><ele>662.0</ele><time>2026-04-11T12:34:41.001Z</time></trkpt><trkpt lat="44.8786574" lon="9.3433707"><ele>658.6666666666667</ele><time>2026-04-11T12:34:42Z</time></trkpt><trkpt lat="44.8787408" lon="9.3433257"><ele>655.3333333333334</ele><time>2026-04-11T12:34:44Z</time></trkpt><trkpt lat="44.8787149" lon="9.3434085"><ele>652.0</ele><time>2026-04-11T12:37:28Z</time></trkpt><trkpt lat="44.8786342" lon="9.343474"><ele>652.0</ele><time>2026-04-11T12:37:30.001Z</time></trkpt><trkpt lat="44.8785225" lon="9.3435066"><ele>652.0</ele><time>2026-04-11T12:37:32.005Z</time></trkpt><trkpt lat="44.8783951" lon="9.3435604"><ele>652.0</ele><time>2026-04-11T12:37:34.001Z</time></trkpt><trkpt lat="44.8783247" lon="9.3435889"><ele>652.0</ele><time>2026-04-11T12:37:35Z</time></trkpt><trkpt lat="44.8782418" lon="9.3436164"><ele>652.0</ele><time>2026-04-11T12:37:36.001Z</time></trkpt><trkpt lat="44.878157" lon="9.3436438"><ele>656.0</ele><time>2026-04-11T12:37:37.001Z</time></trkpt><trkpt lat="44.8780731" lon="9.3436623"><ele>660.0</ele><time>2026-04-11T12:37:38.001Z</time></trkpt><trkpt lat="44.8779854" lon="9.3436772"><ele>664.0</ele><time>2026-04-11T12:37:39.003Z</time></trkpt><trkpt lat="44.8778943" lon="9.3437002"><ele>668.0</ele><time>2026-04-11T12:37:40.001Z</time></trkpt><trkpt lat="44.8778035" lon="9.3437345"><ele>672.0</ele><time>2026-04-11T12:37:41.002Z</time></trkpt><trkpt lat="44.8777066" lon="9.3437776"><ele>672.0</ele><time>2026-04-11T12:37:42.003Z</time></trkpt><trkpt lat="44.8776167" lon="9.3438231"><ele>672.0</ele><time>2026-04-11T12:37:43.002Z</time></trkpt><trkpt lat="44.8775305" lon="9.3438657"><ele>672.0</ele><time>2026-04-11T12:37:44.003Z</time></trkpt><trkpt lat="44.8774497" lon="9.3438985"><ele>672.0</ele><time>2026-04-11T12:37:45.003Z</time></trkpt><trkpt lat="44.8773792" lon="9.3439217"><ele>672.0</ele><time>2026-04-11T12:37:46.003Z</time></trkpt><trkpt lat="44.8773098" lon="9.3439353"><ele>672.0</ele><time>2026-04-11T12:37:47.001Z</time></trkpt><trkpt lat="44.8772422" lon="9.3439538"><ele>672.5</ele><time>2026-04-11T12:37:48.001Z</time></trkpt><trkpt lat="44.8771752" lon="9.3439793"><ele>673.0</ele><time>2026-04-11T12:37:49.002Z</time></trkpt><trkpt lat="44.8771156" lon="9.3440177"><ele>673.5</ele><time>2026-04-11T12:37:50.001Z</time></trkpt><trkpt lat="44.8770545" lon="9.344073"><ele>674.0</ele><time>2026-04-11T12:37:51.002Z</time></trkpt><trkpt lat="44.8769838" lon="9.3441325"><ele>674.5</ele><time>2026-04-11T12:37:52Z</time></trkpt><trkpt lat="44.8769048" lon="9.3442041"><ele>675.0</ele><time>2026-04-11T12:37:53.001Z</time></trkpt><trkpt lat="44.8768247" lon="9.3442798"><ele>677.6666666666666</ele><time>2026-04-11T12:37:54.001Z</time></trkpt><trkpt lat="44.8767499" lon="9.3443614"><ele>680.3333333333334</ele><time>2026-04-11T12:37:55Z</time></trkpt><trkpt lat="44.8766791" lon="9.3444423"><ele>683.0</ele><time>2026-04-11T12:37:56.001Z</time></trkpt><trkpt lat="44.8766102" lon="9.3445076"><ele>685.6666666666667</ele><time>2026-04-11T12:37:57.002Z</time></trkpt><trkpt lat="44.8765458" lon="9.34455"><ele>688.3333333333334</ele><time>2026-04-11T12:37:58.002Z</time></trkpt><trkpt lat="44.8764851" lon="9.3445852"><ele>691.0</ele><time>2026-04-11T12:37:59.002Z</time></trkpt><trkpt lat="44.8764224" lon="9.3446039"><ele>690.9999999999999</ele><time>2026-04-11T12:38:00.001Z</time></trkpt><trkpt lat="44.8763536" lon="9.3446108"><ele>691.0</ele><time>2026-04-11T12:38:01.002Z</time></trkpt><trkpt lat="44.8762822" lon="9.3446075"><ele>691.0</ele><time>2026-04-11T12:38:02.002Z</time></trkpt><trkpt lat="44.8762081" lon="9.3446038"><ele>691.0</ele><time>2026-04-11T12:38:03.002Z</time></trkpt><trkpt lat="44.8761441" lon="9.3446032"><ele>691.0</ele><time>2026-04-11T12:38:04.002Z</time></trkpt><trkpt lat="44.8760587" lon="9.3446127"><ele>690.9999999999999</ele><time>2026-04-11T12:38:06.002Z</time></trkpt><trkpt lat="44.8760105" lon="9.344697"><ele>691.0</ele><time>2026-04-11T12:46:40.002Z</time></trkpt><trkpt lat="44.8759703" lon="9.3447975"><ele>691.0</ele><time>2026-04-11T12:46:43.002Z</time></trkpt><trkpt lat="44.8759759" lon="9.344707"><ele>691.0</ele><time>2026-04-11T12:46:46Z</time></trkpt><trkpt lat="44.8760178" lon="9.3446241"><ele>691.0</ele><time>2026-04-11T12:46:49Z</time></trkpt><trkpt lat="44.8760852" lon="9.3445706"><ele>691.0</ele><time>2026-04-11T12:46:53.001Z</time></trkpt><trkpt lat="44.8761703" lon="9.3445409"><ele>691.0</ele><time>2026-04-11T12:48:28.001Z</time></trkpt><trkpt lat="44.8762353" lon="9.344524"><ele>691.0</ele><time>2026-04-11T12:48:30.001Z</time></trkpt><trkpt lat="44.8763164" lon="9.3445071"><ele>691.0</ele><time>2026-04-11T12:48:32.001Z</time></trkpt><trkpt lat="44.8764205" lon="9.3444941"><ele>691.0</ele><time>2026-04-11T12:48:34.002Z</time></trkpt><trkpt lat="44.8765374" lon="9.3444561"><ele>691.0</ele><time>2026-04-11T12:48:36.001Z</time></trkpt><trkpt lat="44.8766544" lon="9.34436"><ele>691.0</ele><time>2026-04-11T12:48:38.001Z</time></trkpt><trkpt lat="44.8767189" lon="9.3442941"><ele>691.0</ele><time>2026-04-11T12:48:39.002Z</time></trkpt><trkpt lat="44.8767838" lon="9.3442391"><ele>688.7142857142857</ele><time>2026-04-11T12:48:40.001Z</time></trkpt><trkpt lat="44.8768511" lon="9.3441846"><ele>686.4285714285714</ele><time>2026-04-11T12:48:41.001Z</time></trkpt><trkpt lat="44.8769148" lon="9.3441303"><ele>684.1428571428571</ele><time>2026-04-11T12:48:42.001Z</time></trkpt><trkpt lat="44.8769808" lon="9.3440745"><ele>681.8571428571429</ele><time>2026-04-11T12:48:43.002Z</time></trkpt><trkpt lat="44.8770485" lon="9.3440179"><ele>679.5714285714286</ele><time>2026-04-11T12:48:44.001Z</time></trkpt><trkpt lat="44.8771153" lon="9.3439702"><ele>677.2857142857142</ele><time>2026-04-11T12:48:45.002Z</time></trkpt><trkpt lat="44.8771734" lon="9.3439318"><ele>675.0</ele><time>2026-04-11T12:48:46.002Z</time></trkpt><trkpt lat="44.8773018" lon="9.343892"><ele>674.5</ele><time>2026-04-11T12:48:48.003Z</time></trkpt><trkpt lat="44.8773672" lon="9.3438652"><ele>674.0</ele><time>2026-04-11T12:48:49.003Z</time></trkpt><trkpt lat="44.8774315" lon="9.3438359"><ele>673.5</ele><time>2026-04-11T12:48:50.004Z</time></trkpt><trkpt lat="44.8775081" lon="9.3438057"><ele>673.0</ele><time>2026-04-11T12:48:51.003Z</time></trkpt><trkpt lat="44.8775956" lon="9.3437698"><ele>672.5</ele><time>2026-04-11T12:48:52.001Z</time></trkpt><trkpt lat="44.8776888" lon="9.3437248"><ele>672.0</ele><time>2026-04-11T12:48:53.003Z</time></trkpt><trkpt lat="44.8777803" lon="9.3436791"><ele>672.0</ele><time>2026-04-11T12:48:54.003Z</time></trkpt><trkpt lat="44.877871" lon="9.3436403"><ele>672.0</ele><time>2026-04-11T12:48:55.003Z</time></trkpt><trkpt lat="44.877954" lon="9.343613"><ele>672.0</ele><time>2026-04-11T12:48:56.002Z</time></trkpt><trkpt lat="44.8780323" lon="9.343591"><ele>672.0</ele><time>2026-04-11T12:48:57.002Z</time></trkpt><trkpt lat="44.8781178" lon="9.3435642"><ele>672.0</ele><time>2026-04-11T12:48:58.001Z</time></trkpt><trkpt lat="44.8782108" lon="9.3435302"><ele>672.0</ele><time>2026-04-11T12:48:59.002Z</time></trkpt><trkpt lat="44.8782995" lon="9.3434913"><ele>672.0</ele><time>2026-04-11T12:49:00.001Z</time></trkpt><trkpt lat="44.8783929" lon="9.3434604"><ele>672.0</ele><time>2026-04-11T12:49:01.003Z</time></trkpt><trkpt lat="44.8784824" lon="9.343439"><ele>672.0</ele><time>2026-04-11T12:49:02.001Z</time></trkpt><trkpt lat="44.8785697" lon="9.3434144"><ele>672.0</ele><time>2026-04-11T12:49:03.002Z</time></trkpt><trkpt lat="44.8786424" lon="9.3433817"><ele>672.0</ele><time>2026-04-11T12:49:04.002Z</time></trkpt><trkpt lat="44.8787238" lon="9.3433259"><ele>672.0</ele><time>2026-04-11T12:49:06.002Z</time></trkpt><trkpt lat="44.8787843" lon="9.3433617"><ele>668.0</ele><time>2026-04-11T12:49:10.001Z</time></trkpt><trkpt lat="44.8788674" lon="9.3434438"><ele>664.0</ele><time>2026-04-11T12:49:17.001Z</time></trkpt><trkpt lat="44.87895" lon="9.3435348"><ele>660.0</ele><time>2026-04-11T12:49:19.002Z</time></trkpt><trkpt lat="44.8790276" lon="9.3436488"><ele>656.0</ele><time>2026-04-11T12:49:21.002Z</time></trkpt><trkpt lat="44.8791178" lon="9.3437454"><ele>652.0</ele><time>2026-04-11T12:49:23.003Z</time></trkpt><trkpt lat="44.8791974" lon="9.3437966"><ele>649.5</ele><time>2026-04-11T12:49:25.001Z</time></trkpt><trkpt lat="44.8792833" lon="9.3437733"><ele>647.0</ele><time>2026-04-11T12:49:28.001Z</time></trkpt><trkpt lat="44.8793417" lon="9.3436833"><ele>644.5</ele><time>2026-04-11T12:49:31.001Z</time></trkpt><trkpt lat="44.8793767" lon="9.3436033"><ele>642.0</ele><time>2026-04-11T12:49:33.003Z</time></trkpt><trkpt lat="44.8794217" lon="9.3435217"><ele>639.5</ele><time>2026-04-11T12:49:35Z</time></trkpt><trkpt lat="44.8794783" lon="9.3434483"><ele>637.0</ele><time>2026-04-11T12:49:37.001Z</time></trkpt><trkpt lat="44.8795483" lon="9.3434367"><ele>637.0</ele><time>2026-04-11T12:49:39.002Z</time></trkpt><trkpt lat="44.8796517" lon="9.3434717"><ele>637.0</ele><time>2026-04-11T12:49:41.001Z</time></trkpt><trkpt lat="44.8797133" lon="9.3434933"><ele>637.0</ele><time>2026-04-11T12:49:42.002Z</time></trkpt><trkpt lat="44.8797783" lon="9.34352"><ele>637.0</ele><time>2026-04-11T12:49:43.002Z</time></trkpt><trkpt lat="44.8798483" lon="9.3435567"><ele>637.0</ele><time>2026-04-11T12:49:44.002Z</time></trkpt><trkpt lat="44.8799183" lon="9.343605"><ele>637.0</ele><time>2026-04-11T12:49:45.003Z</time></trkpt><trkpt lat="44.8799883" lon="9.34366"><ele>637.0</ele><time>2026-04-11T12:49:46.002Z</time></trkpt><trkpt lat="44.8800617" lon="9.3437083"><ele>637.0</ele><time>2026-04-11T12:49:47.001Z</time></trkpt><trkpt lat="44.8801333" lon="9.3437483"><ele>637.0</ele><time>2026-04-11T12:49:48.002Z</time></trkpt><trkpt lat="44.8802067" lon="9.3437817"><ele>637.0</ele><time>2026-04-11T12:49:49.002Z</time></trkpt><trkpt lat="44.880285" lon="9.343825"><ele>637.0</ele><time>2026-04-11T12:49:50.001Z</time></trkpt><trkpt lat="44.8803583" lon="9.3438817"><ele>637.0</ele><time>2026-04-11T12:49:51.001Z</time></trkpt><trkpt lat="44.880425" lon="9.34394"><ele>634.2</ele><time>2026-04-11T12:49:52.002Z</time></trkpt><trkpt lat="44.8805167" lon="9.3440333"><ele>631.4000000000001</ele><time>2026-04-11T12:49:54.002Z</time></trkpt><trkpt lat="44.88057" lon="9.3440817"><ele>628.5999999999999</ele><time>2026-04-11T12:49:56.001Z</time></trkpt><trkpt lat="44.880645" lon="9.3441167"><ele>625.8</ele><time>2026-04-11T12:49:58.001Z</time></trkpt><trkpt lat="44.8807517" lon="9.3441583"><ele>623.0</ele><time>2026-04-11T12:50:00.003Z</time></trkpt><trkpt lat="44.8808683" lon="9.3441783"><ele>619.8333333333333</ele><time>2026-04-11T12:50:02.002Z</time></trkpt><trkpt lat="44.8809367" lon="9.3441867"><ele>616.6666666666666</ele><time>2026-04-11T12:50:03.002Z</time></trkpt><trkpt lat="44.881005" lon="9.3442"><ele>613.5</ele><time>2026-04-11T12:50:04.002Z</time></trkpt><trkpt lat="44.881085" lon="9.3442183"><ele>610.3333333333334</ele><time>2026-04-11T12:50:05.001Z</time></trkpt><trkpt lat="44.8811617" lon="9.3442217"><ele>607.1666666666667</ele><time>2026-04-11T12:50:06.001Z</time></trkpt><trkpt lat="44.8812383" lon="9.344215"><ele>604.0</ele><time>2026-04-11T12:50:07.002Z</time></trkpt><trkpt lat="44.8813183" lon="9.3442067"><ele>604.0</ele><time>2026-04-11T12:50:08.001Z</time></trkpt><trkpt lat="44.8813967" lon="9.3442083"><ele>604.0</ele><time>2026-04-11T12:50:09.004Z</time></trkpt><trkpt lat="44.8814833" lon="9.3442167"><ele>604.0</ele><time>2026-04-11T12:50:10.002Z</time></trkpt><trkpt lat="44.8815683" lon="9.3442317"><ele>604.0</ele><time>2026-04-11T12:50:11.001Z</time></trkpt><trkpt lat="44.8816483" lon="9.3442533"><ele>604.0</ele><time>2026-04-11T12:50:12.001Z</time></trkpt><trkpt lat="44.881725" lon="9.344285"><ele>604.0</ele><time>2026-04-11T12:50:13.001Z</time></trkpt><trkpt lat="44.8818017" lon="9.3443317"><ele>601.5</ele><time>2026-04-11T12:50:14.001Z</time></trkpt><trkpt lat="44.8818783" lon="9.3443833"><ele>599.0</ele><time>2026-04-11T12:50:15.002Z</time></trkpt><trkpt lat="44.881955" lon="9.3444333"><ele>596.5</ele><time>2026-04-11T12:50:16.002Z</time></trkpt><trkpt lat="44.8820367" lon="9.3444717"><ele>594.0</ele><time>2026-04-11T12:50:17.001Z</time></trkpt><trkpt lat="44.8821183" lon="9.3444967"><ele>591.5</ele><time>2026-04-11T12:50:18.001Z</time></trkpt><trkpt lat="44.8821983" lon="9.3445067"><ele>589.0</ele><time>2026-04-11T12:50:19.001Z</time></trkpt><trkpt lat="44.8822767" lon="9.34452"><ele>589.0</ele><time>2026-04-11T12:50:20.002Z</time></trkpt><trkpt lat="44.8823533" lon="9.3445467"><ele>589.0</ele><time>2026-04-11T12:50:21.002Z</time></trkpt><trkpt lat="44.882425" lon="9.3445817"><ele>589.0</ele><time>2026-04-11T12:50:22.001Z</time></trkpt><trkpt lat="44.8824983" lon="9.3446167"><ele>589.0</ele><time>2026-04-11T12:50:23.001Z</time></trkpt><trkpt lat="44.8825733" lon="9.34465"><ele>589.0</ele><time>2026-04-11T12:50:24.002Z</time></trkpt><trkpt lat="44.8826517" lon="9.3446717"><ele>589.0</ele><time>2026-04-11T12:50:25.001Z</time></trkpt><trkpt lat="44.8827283" lon="9.344675"><ele>586.8333333333334</ele><time>2026-04-11T12:50:26.001Z</time></trkpt><trkpt lat="44.882805" lon="9.3446683"><ele>584.6666666666667</ele><time>2026-04-11T12:50:27.001Z</time></trkpt><trkpt lat="44.8828817" lon="9.3446633"><ele>582.5</ele><time>2026-04-11T12:50:28.001Z</time></trkpt><trkpt lat="44.882955" lon="9.344665"><ele>580.3333333333334</ele><time>2026-04-11T12:50:29.002Z</time></trkpt><trkpt lat="44.883025" lon="9.3446683"><ele>578.1666666666666</ele><time>2026-04-11T12:50:30.001Z</time></trkpt><trkpt lat="44.883105" lon="9.3446683"><ele>576.0</ele><time>2026-04-11T12:50:31.002Z</time></trkpt><trkpt lat="44.8832" lon="9.3446767"><ele>576.0</ele><time>2026-04-11T12:50:32.001Z</time></trkpt><trkpt lat="44.8832933" lon="9.34468"><ele>576.0</ele><time>2026-04-11T12:50:33.002Z</time></trkpt><trkpt lat="44.8833833" lon="9.3446767"><ele>576.0</ele><time>2026-04-11T12:50:34.002Z</time></trkpt><trkpt lat="44.883465" lon="9.3446683"><ele>576.0</ele><time>2026-04-11T12:50:35.002Z</time></trkpt><trkpt lat="44.8835467" lon="9.3446517"><ele>576.0</ele><time>2026-04-11T12:50:36.001Z</time></trkpt><trkpt lat="44.8836183" lon="9.3446383"><ele>576.0</ele><time>2026-04-11T12:50:37.002Z</time></trkpt><trkpt lat="44.883685" lon="9.3446333"><ele>574.5</ele><time>2026-04-11T12:50:38.001Z</time></trkpt><trkpt lat="44.8837983" lon="9.3446533"><ele>573.0</ele><time>2026-04-11T12:50:40.001Z</time></trkpt><trkpt lat="44.8839233" lon="9.3446417"><ele>571.5</ele><time>2026-04-11T12:50:42.003Z</time></trkpt><trkpt lat="44.8839767" lon="9.3445933"><ele>570.0</ele><time>2026-04-11T12:50:43.002Z</time></trkpt><trkpt lat="44.8840283" lon="9.3445283"><ele>568.5</ele><time>2026-04-11T12:50:44.002Z</time></trkpt><trkpt lat="44.88408" lon="9.3444667"><ele>567.0</ele><time>2026-04-11T12:50:45.002Z</time></trkpt><trkpt lat="44.88414" lon="9.34442"><ele>567.0</ele><time>2026-04-11T12:50:46.001Z</time></trkpt><trkpt lat="44.8842133" lon="9.3443933"><ele>567.0</ele><time>2026-04-11T12:50:47.002Z</time></trkpt><trkpt lat="44.8842967" lon="9.3443783"><ele>567.0</ele><time>2026-04-11T12:50:48.003Z</time></trkpt><trkpt lat="44.8843717" lon="9.3443633"><ele>567.0</ele><time>2026-04-11T12:50:49.001Z</time></trkpt><trkpt lat="44.8844517" lon="9.3443467"><ele>567.0</ele><time>2026-04-11T12:50:50.002Z</time></trkpt><trkpt lat="44.8845333" lon="9.3443233"><ele>567.0</ele><time>2026-04-11T12:50:51.002Z</time></trkpt><trkpt lat="44.8846" lon="9.3442933"><ele>564.2</ele><time>2026-04-11T12:50:52.002Z</time></trkpt><trkpt lat="44.8846983" lon="9.3441983"><ele>561.4000000000001</ele><time>2026-04-11T12:50:54.001Z</time></trkpt><trkpt lat="44.884745" lon="9.3440667"><ele>558.5999999999999</ele><time>2026-04-11T12:50:56.002Z</time></trkpt><trkpt lat="44.8847933" lon="9.343935"><ele>555.8</ele><time>2026-04-11T12:50:58.001Z</time></trkpt><trkpt lat="44.8848367" lon="9.343815"><ele>553.0</ele><time>2026-04-11T12:51:00.002Z</time></trkpt><trkpt lat="44.884885" lon="9.343695"><ele>551.3333333333334</ele><time>2026-04-11T12:51:02.003Z</time></trkpt><trkpt lat="44.8849333" lon="9.3435717"><ele>549.6666666666667</ele><time>2026-04-11T12:51:04.001Z</time></trkpt><trkpt lat="44.8849783" lon="9.3434583"><ele>548.0</ele><time>2026-04-11T12:51:06.001Z</time></trkpt><trkpt lat="44.8850083" lon="9.34335"><ele>546.3333333333334</ele><time>2026-04-11T12:51:08.001Z</time></trkpt><trkpt lat="44.8850517" lon="9.34327"><ele>544.6666666666666</ele><time>2026-04-11T12:51:10.002Z</time></trkpt><trkpt lat="44.8851367" lon="9.34326"><ele>543.0</ele><time>2026-04-11T12:51:12.001Z</time></trkpt><trkpt lat="44.8852467" lon="9.3432717"><ele>540.8</ele><time>2026-04-11T12:51:14.001Z</time></trkpt><trkpt lat="44.8853633" lon="9.3433283"><ele>538.5999999999999</ele><time>2026-04-11T12:51:16.001Z</time></trkpt><trkpt lat="44.885465" lon="9.34341"><ele>536.4000000000001</ele><time>2026-04-11T12:51:18.001Z</time></trkpt><trkpt lat="44.8855733" lon="9.3434383"><ele>534.2</ele><time>2026-04-11T12:51:20.002Z</time></trkpt><trkpt lat="44.8856617" lon="9.3434983"><ele>532.0</ele><time>2026-04-11T12:51:22.003Z</time></trkpt><trkpt lat="44.8857233" lon="9.343605"><ele>532.0</ele><time>2026-04-11T12:51:24.002Z</time></trkpt><trkpt lat="44.8857983" lon="9.34371"><ele>532.0</ele><time>2026-04-11T12:51:26.002Z</time></trkpt><trkpt lat="44.8859067" lon="9.3437917"><ele>532.0</ele><time>2026-04-11T12:51:28.003Z</time></trkpt><trkpt lat="44.88597" lon="9.343835"><ele>532.0</ele><time>2026-04-11T12:51:29.002Z</time></trkpt><trkpt lat="44.8860383" lon="9.3438733"><ele>532.0</ele><time>2026-04-11T12:51:30.002Z</time></trkpt><trkpt lat="44.8861133" lon="9.34391"><ele>530.1666666666667</ele><time>2026-04-11T12:51:31.001Z</time></trkpt><trkpt lat="44.88619" lon="9.3439417"><ele>528.3333333333334</ele><time>2026-04-11T12:51:32.001Z</time></trkpt><trkpt lat="44.8862717" lon="9.3439867"><ele>526.5</ele><time>2026-04-11T12:51:33.002Z</time></trkpt><trkpt lat="44.886345" lon="9.3440317"><ele>524.6666666666666</ele><time>2026-04-11T12:51:34.001Z</time></trkpt><trkpt lat="44.88642" lon="9.3440767"><ele>522.8333333333333</ele><time>2026-04-11T12:51:35.002Z</time></trkpt><trkpt lat="44.8864933" lon="9.344115"><ele>521.0</ele><time>2026-04-11T12:51:36.002Z</time></trkpt><trkpt lat="44.8865683" lon="9.3441483"><ele>521.0</ele><time>2026-04-11T12:51:37.002Z</time></trkpt><trkpt lat="44.88666" lon="9.344175"><ele>521.0</ele><time>2026-04-11T12:51:38.002Z</time></trkpt><trkpt lat="44.8867533" lon="9.3442"><ele>521.0</ele><time>2026-04-11T12:51:39.002Z</time></trkpt><trkpt lat="44.8868417" lon="9.3442267"><ele>521.0</ele><time>2026-04-11T12:51:40.002Z</time></trkpt><trkpt lat="44.8869317" lon="9.34427"><ele>521.0</ele><time>2026-04-11T12:51:41.002Z</time></trkpt><trkpt lat="44.8870167" lon="9.3443217"><ele>518.1666666666666</ele><time>2026-04-11T12:51:42.002Z</time></trkpt><trkpt lat="44.8871017" lon="9.3443667"><ele>515.3333333333333</ele><time>2026-04-11T12:51:43.001Z</time></trkpt><trkpt lat="44.8871833" lon="9.3443883"><ele>512.5</ele><time>2026-04-11T12:51:44.001Z</time></trkpt><trkpt lat="44.8872717" lon="9.3444033"><ele>509.66666666666663</ele><time>2026-04-11T12:51:45.001Z</time></trkpt><trkpt lat="44.8873583" lon="9.344415"><ele>506.8333333333333</ele><time>2026-04-11T12:51:46.001Z</time></trkpt><trkpt lat="44.88745" lon="9.3444367"><ele>504.0</ele><time>2026-04-11T12:51:47.001Z</time></trkpt><trkpt lat="44.8875383" lon="9.3444683"><ele>502.6666666666667</ele><time>2026-04-11T12:51:48.001Z</time></trkpt><trkpt lat="44.8876267" lon="9.3444967"><ele>501.33333333333337</ele><time>2026-04-11T12:51:49.002Z</time></trkpt><trkpt lat="44.887715" lon="9.3445133"><ele>500.0</ele><time>2026-04-11T12:51:50.002Z</time></trkpt><trkpt lat="44.8877983" lon="9.3445167"><ele>498.6666666666667</ele><time>2026-04-11T12:51:51.002Z</time></trkpt><trkpt lat="44.887875" lon="9.3445233"><ele>497.33333333333337</ele><time>2026-04-11T12:51:52.003Z</time></trkpt><trkpt lat="44.8879567" lon="9.3445433"><ele>496.0</ele><time>2026-04-11T12:51:53.001Z</time></trkpt><trkpt lat="44.888035" lon="9.3445667"><ele>496.00000000000006</ele><time>2026-04-11T12:51:54.002Z</time></trkpt><trkpt lat="44.88812" lon="9.3446"><ele>496.0</ele><time>2026-04-11T12:51:55.002Z</time></trkpt><trkpt lat="44.888195" lon="9.3446467"><ele>496.0</ele><time>2026-04-11T12:51:56.004Z</time></trkpt><trkpt lat="44.8882633" lon="9.3446883"><ele>496.0</ele><time>2026-04-11T12:51:57.002Z</time></trkpt><trkpt lat="44.8883283" lon="9.3447283"><ele>496.00000000000006</ele><time>2026-04-11T12:51:58.003Z</time></trkpt><trkpt lat="44.888395" lon="9.3447483"><ele>496.0</ele><time>2026-04-11T12:51:59.001Z</time></trkpt><trkpt lat="44.88852" lon="9.3447067"><ele>494.50000000000006</ele><time>2026-04-11T12:52:01.004Z</time></trkpt><trkpt lat="44.888585" lon="9.3446633"><ele>493.0</ele><time>2026-04-11T12:52:02.002Z</time></trkpt><trkpt lat="44.8886467" lon="9.3446167"><ele>491.5</ele><time>2026-04-11T12:52:03.002Z</time></trkpt><trkpt lat="44.8887067" lon="9.3445767"><ele>490.0</ele><time>2026-04-11T12:52:04.002Z</time></trkpt><trkpt lat="44.88877" lon="9.3445583"><ele>488.50000000000006</ele><time>2026-04-11T12:52:05.002Z</time></trkpt><trkpt lat="44.8888767" lon="9.3446317"><ele>487.0</ele><time>2026-04-11T12:52:07.003Z</time></trkpt><trkpt lat="44.8889317" lon="9.3446883"><ele>485.42857142857144</ele><time>2026-04-11T12:52:08.003Z</time></trkpt><trkpt lat="44.8889917" lon="9.3447533"><ele>483.85714285714283</ele><time>2026-04-11T12:52:09.002Z</time></trkpt><trkpt lat="44.88905" lon="9.34482"><ele>482.2857142857143</ele><time>2026-04-11T12:52:10.002Z</time></trkpt><trkpt lat="44.8891033" lon="9.3448883"><ele>480.7142857142857</ele><time>2026-04-11T12:52:11.003Z</time></trkpt><trkpt lat="44.8891567" lon="9.344955"><ele>479.1428571428571</ele><time>2026-04-11T12:52:12.003Z</time></trkpt><trkpt lat="44.8892167" lon="9.3450017"><ele>477.57142857142856</ele><time>2026-04-11T12:52:13.005Z</time></trkpt><trkpt lat="44.8892883" lon="9.3450283"><ele>476.0</ele><time>2026-04-11T12:52:14.003Z</time></trkpt><trkpt lat="44.889365" lon="9.3450517"><ele>473.49999999999994</ele><time>2026-04-11T12:52:15.004Z</time></trkpt><trkpt lat="44.8894417" lon="9.345085"><ele>471.0</ele><time>2026-04-11T12:52:16.002Z</time></trkpt><trkpt lat="44.8895183" lon="9.3451267"><ele>468.5</ele><time>2026-04-11T12:52:17.001Z</time></trkpt><trkpt lat="44.889595" lon="9.3451817"><ele>466.0</ele><time>2026-04-11T12:52:18.002Z</time></trkpt><trkpt lat="44.8896683" lon="9.345235"><ele>463.49999999999994</ele><time>2026-04-11T12:52:19.003Z</time></trkpt><trkpt lat="44.8897383" lon="9.3452783"><ele>461.0</ele><time>2026-04-11T12:52:20.002Z</time></trkpt><trkpt lat="44.889805" lon="9.3453133"><ele>460.99999999999994</ele><time>2026-04-11T12:52:21.002Z</time></trkpt><trkpt lat="44.88987" lon="9.3453417"><ele>461.0</ele><time>2026-04-11T12:52:22.002Z</time></trkpt><trkpt lat="44.88994" lon="9.3453683"><ele>461.0</ele><time>2026-04-11T12:52:23.003Z</time></trkpt><trkpt lat="44.8900083" lon="9.3453983"><ele>461.0</ele><time>2026-04-11T12:52:24.002Z</time></trkpt><trkpt lat="44.89007" lon="9.345435"><ele>460.99999999999994</ele><time>2026-04-11T12:52:25.002Z</time></trkpt><trkpt lat="44.890125" lon="9.34548"><ele>461.0</ele><time>2026-04-11T12:52:26.002Z</time></trkpt><trkpt lat="44.89022" lon="9.34558"><ele>456.0</ele><time>2026-04-11T12:52:28.003Z</time></trkpt><trkpt lat="44.8903133" lon="9.3456483"><ele>451.0</ele><time>2026-04-11T12:52:30.002Z</time></trkpt><trkpt lat="44.8904333" lon="9.345635"><ele>446.0</ele><time>2026-04-11T12:52:32.001Z</time></trkpt><trkpt lat="44.8905433" lon="9.3455983"><ele>441.0</ele><time>2026-04-11T12:52:34.002Z</time></trkpt><trkpt lat="44.8906533" lon="9.3455617"><ele>441.0</ele><time>2026-04-11T12:52:36.001Z</time></trkpt><trkpt lat="44.89073" lon="9.3455733"><ele>441.0</ele><time>2026-04-11T12:52:38.001Z</time></trkpt><trkpt lat="44.89084" lon="9.3456267"><ele>441.0</ele><time>2026-04-11T12:53:09.002Z</time></trkpt><trkpt lat="44.8909417" lon="9.3456983"><ele>441.0</ele><time>2026-04-11T12:53:11.003Z</time></trkpt><trkpt lat="44.891" lon="9.3457433"><ele>441.0</ele><time>2026-04-11T12:53:12.001Z</time></trkpt><trkpt lat="44.8910667" lon="9.3457933"><ele>441.0</ele><time>2026-04-11T12:53:13.001Z</time></trkpt><trkpt lat="44.891135" lon="9.3458433"><ele>438.5</ele><time>2026-04-11T12:53:14.001Z</time></trkpt><trkpt lat="44.8912017" lon="9.3458933"><ele>436.0</ele><time>2026-04-11T12:53:15.002Z</time></trkpt><trkpt lat="44.891275" lon="9.3459367"><ele>433.5</ele><time>2026-04-11T12:53:16.001Z</time></trkpt><trkpt lat="44.8913533" lon="9.3459767"><ele>431.0</ele><time>2026-04-11T12:53:17.003Z</time></trkpt><trkpt lat="44.891435" lon="9.3460217"><ele>428.5</ele><time>2026-04-11T12:53:18.001Z</time></trkpt><trkpt lat="44.8915167" lon="9.346075"><ele>426.0</ele><time>2026-04-11T12:53:19.002Z</time></trkpt><trkpt lat="44.8915967" lon="9.3461467"><ele>426.0</ele><time>2026-04-11T12:53:20.003Z</time></trkpt><trkpt lat="44.8916767" lon="9.346225"><ele>426.0</ele><time>2026-04-11T12:53:21.003Z</time></trkpt><trkpt lat="44.8917617" lon="9.346295"><ele>426.0</ele><time>2026-04-11T12:53:22.002Z</time></trkpt><trkpt lat="44.891855" lon="9.346345"><ele>426.0</ele><time>2026-04-11T12:53:23.002Z</time></trkpt><trkpt lat="44.8919483" lon="9.34639"><ele>426.0</ele><time>2026-04-11T12:53:24.005Z</time></trkpt><trkpt lat="44.8920367" lon="9.3464417"><ele>422.0</ele><time>2026-04-11T12:53:25.001Z</time></trkpt><trkpt lat="44.8921217" lon="9.34651"><ele>418.0</ele><time>2026-04-11T12:53:26.004Z</time></trkpt><trkpt lat="44.8921967" lon="9.34659"><ele>414.0</ele><time>2026-04-11T12:53:27.002Z</time></trkpt><trkpt lat="44.89227" lon="9.3466667"><ele>410.0</ele><time>2026-04-11T12:53:28.001Z</time></trkpt><trkpt lat="44.89234" lon="9.3467333"><ele>406.0</ele><time>2026-04-11T12:53:29.002Z</time></trkpt><trkpt lat="44.8924083" lon="9.3468167"><ele>406.0</ele><time>2026-04-11T12:53:30.001Z</time></trkpt><trkpt lat="44.8924717" lon="9.3469167"><ele>406.0</ele><time>2026-04-11T12:53:31.001Z</time></trkpt><trkpt lat="44.89253" lon="9.3470233"><ele>406.0</ele><time>2026-04-11T12:53:32.001Z</time></trkpt><trkpt lat="44.892595" lon="9.3471217"><ele>406.0</ele><time>2026-04-11T12:53:33.002Z</time></trkpt><trkpt lat="44.8926783" lon="9.3472033"><ele>406.0</ele><time>2026-04-11T12:53:34.002Z</time></trkpt><trkpt lat="44.8927667" lon="9.3472717"><ele>402.6</ele><time>2026-04-11T12:53:35.001Z</time></trkpt><trkpt lat="44.8928517" lon="9.3473417"><ele>399.20000000000005</ele><time>2026-04-11T12:53:36.001Z</time></trkpt><trkpt lat="44.89293" lon="9.3474117"><ele>395.79999999999995</ele><time>2026-04-11T12:53:37.002Z</time></trkpt><trkpt lat="44.893005" lon="9.347475"><ele>392.4</ele><time>2026-04-11T12:53:38.002Z</time></trkpt><trkpt lat="44.89307" lon="9.3475233"><ele>389.0</ele><time>2026-04-11T12:53:39.003Z</time></trkpt><trkpt lat="44.89318" lon="9.3475817"><ele>388.99999999999994</ele><time>2026-04-11T12:53:41.002Z</time></trkpt><trkpt lat="44.89325" lon="9.3475733"><ele>389.0</ele><time>2026-04-11T12:53:42.001Z</time></trkpt><trkpt lat="44.8933367" lon="9.3475517"><ele>389.0</ele><time>2026-04-11T12:53:43.002Z</time></trkpt><trkpt lat="44.8934217" lon="9.3475383"><ele>389.0</ele><time>2026-04-11T12:53:44.001Z</time></trkpt><trkpt lat="44.8935017" lon="9.3475433"><ele>388.99999999999994</ele><time>2026-04-11T12:53:45.002Z</time></trkpt><trkpt lat="44.8935683" lon="9.3475583"><ele>389.0</ele><time>2026-04-11T12:53:46.002Z</time></trkpt><trkpt lat="44.893635" lon="9.34759"><ele>386.49999999999994</ele><time>2026-04-11T12:53:47.001Z</time></trkpt><trkpt lat="44.8936917" lon="9.3476417"><ele>384.0</ele><time>2026-04-11T12:53:48.002Z</time></trkpt><trkpt lat="44.8937417" lon="9.347705"><ele>381.5</ele><time>2026-04-11T12:53:49.002Z</time></trkpt><trkpt lat="44.8938283" lon="9.34782"><ele>379.0</ele><time>2026-04-11T12:53:51.004Z</time></trkpt><trkpt lat="44.8939333" lon="9.3478433"><ele>376.5</ele><time>2026-04-11T12:53:53.002Z</time></trkpt><trkpt lat="44.8939983" lon="9.3478333"><ele>374.0</ele><time>2026-04-11T12:53:54.002Z</time></trkpt><trkpt lat="44.89407" lon="9.3478233"><ele>374.0</ele><time>2026-04-11T12:53:55.002Z</time></trkpt><trkpt lat="44.894145" lon="9.3478133"><ele>374.0</ele><time>2026-04-11T12:53:56.002Z</time></trkpt><trkpt lat="44.8942283" lon="9.3478067"><ele>374.0</ele><time>2026-04-11T12:53:57.002Z</time></trkpt><trkpt lat="44.8943133" lon="9.3478033"><ele>374.0</ele><time>2026-04-11T12:53:58.002Z</time></trkpt><trkpt lat="44.8944" lon="9.3478"><ele>374.0</ele><time>2026-04-11T12:53:59.001Z</time></trkpt><trkpt lat="44.894485" lon="9.3477983"><ele>374.0</ele><time>2026-04-11T12:54:00.001Z</time></trkpt><trkpt lat="44.89457" lon="9.3478"><ele>371.0</ele><time>2026-04-11T12:54:01.001Z</time></trkpt><trkpt lat="44.89465" lon="9.347805"><ele>368.0</ele><time>2026-04-11T12:54:02.002Z</time></trkpt><trkpt lat="44.8947133" lon="9.3478083"><ele>365.0</ele><time>2026-04-11T12:54:03.002Z</time></trkpt><trkpt lat="44.8948017" lon="9.3477817"><ele>362.0</ele><time>2026-04-11T12:54:05.002Z</time></trkpt><trkpt lat="44.89483" lon="9.34765"><ele>359.0</ele><time>2026-04-11T12:54:07.002Z</time></trkpt><trkpt lat="44.894825" lon="9.347505"><ele>356.0</ele><time>2026-04-11T12:54:09.002Z</time></trkpt><trkpt lat="44.8948217" lon="9.347375"><ele>356.0</ele><time>2026-04-11T12:54:11.002Z</time></trkpt><trkpt lat="44.89482" lon="9.3472317"><ele>356.0</ele><time>2026-04-11T12:54:13.002Z</time></trkpt><trkpt lat="44.8948233" lon="9.3470733"><ele>356.0</ele><time>2026-04-11T12:54:15.001Z</time></trkpt><trkpt lat="44.8948317" lon="9.3469467"><ele>356.0</ele><time>2026-04-11T12:54:17.001Z</time></trkpt><trkpt lat="44.8949067" lon="9.34685"><ele>356.0</ele><time>2026-04-11T12:54:34.001Z</time></trkpt><trkpt lat="44.8950083" lon="9.346835"><ele>356.0</ele><time>2026-04-11T12:54:36.002Z</time></trkpt><trkpt lat="44.8950783" lon="9.3468317"><ele>356.0</ele><time>2026-04-11T12:54:37.002Z</time></trkpt><trkpt lat="44.8951517" lon="9.34683"><ele>356.0</ele><time>2026-04-11T12:54:38.001Z</time></trkpt><trkpt lat="44.8952317" lon="9.3468367"><ele>356.0</ele><time>2026-04-11T12:54:39.003Z</time></trkpt><trkpt lat="44.8953133" lon="9.346855"><ele>356.0</ele><time>2026-04-11T12:54:40.001Z</time></trkpt><trkpt lat="44.8953933" lon="9.3468833"><ele>356.0</ele><time>2026-04-11T12:54:41.002Z</time></trkpt><trkpt lat="44.89547" lon="9.346935"><ele>352.6</ele><time>2026-04-11T12:54:42.001Z</time></trkpt><trkpt lat="44.8955383" lon="9.34701"><ele>349.20000000000005</ele><time>2026-04-11T12:54:43.001Z</time></trkpt><trkpt lat="44.8955917" lon="9.3471133"><ele>345.79999999999995</ele><time>2026-04-11T12:54:44.003Z</time></trkpt><trkpt lat="44.8956267" lon="9.3472383"><ele>342.4</ele><time>2026-04-11T12:54:45.004Z</time></trkpt><trkpt lat="44.89565" lon="9.34737"><ele>339.0</ele><time>2026-04-11T12:54:46.001Z</time></trkpt><trkpt lat="44.895665" lon="9.3474967"><ele>338.5</ele><time>2026-04-11T12:54:47.001Z</time></trkpt><trkpt lat="44.8956817" lon="9.3476167"><ele>338.0</ele><time>2026-04-11T12:54:48.002Z</time></trkpt><trkpt lat="44.8957083" lon="9.3477367"><ele>337.5</ele><time>2026-04-11T12:54:49.001Z</time></trkpt><trkpt lat="44.895745" lon="9.347845"><ele>337.0</ele><time>2026-04-11T12:54:50.001Z</time></trkpt><trkpt lat="44.8957917" lon="9.3479383"><ele>336.5</ele><time>2026-04-11T12:54:51.002Z</time></trkpt><trkpt lat="44.895865" lon="9.348015"><ele>336.0</ele><time>2026-04-11T12:54:52.002Z</time></trkpt><trkpt lat="44.89596" lon="9.3480783"><ele>333.4</ele><time>2026-04-11T12:54:53.002Z</time></trkpt><trkpt lat="44.896065" lon="9.348135"><ele>330.8</ele><time>2026-04-11T12:54:54.001Z</time></trkpt><trkpt lat="44.8961683" lon="9.3481867"><ele>328.2</ele><time>2026-04-11T12:54:55.001Z</time></trkpt><trkpt lat="44.8962717" lon="9.3482433"><ele>325.59999999999997</ele><time>2026-04-11T12:54:56.002Z</time></trkpt><trkpt lat="44.896375" lon="9.3483033"><ele>323.0</ele><time>2026-04-11T12:54:57.002Z</time></trkpt><trkpt lat="44.896475" lon="9.34837"><ele>323.0</ele><time>2026-04-11T12:54:58.001Z</time></trkpt><trkpt lat="44.8965717" lon="9.348445"><ele>323.0</ele><time>2026-04-11T12:54:59.001Z</time></trkpt><trkpt lat="44.8966633" lon="9.34853"><ele>323.0</ele><time>2026-04-11T12:55:00.003Z</time></trkpt><trkpt lat="44.8967517" lon="9.3486133"><ele>323.0</ele><time>2026-04-11T12:55:01.002Z</time></trkpt><trkpt lat="44.896835" lon="9.3486817"><ele>323.0</ele><time>2026-04-11T12:55:02.002Z</time></trkpt><trkpt lat="44.8969117" lon="9.3487267"><ele>320.6666666666667</ele><time>2026-04-11T12:55:03.002Z</time></trkpt><trkpt lat="44.8969867" lon="9.348745"><ele>318.33333333333337</ele><time>2026-04-11T12:55:04.003Z</time></trkpt><trkpt lat="44.8970567" lon="9.3486917"><ele>316.0</ele><time>2026-04-11T12:55:05.003Z</time></trkpt><trkpt lat="44.897115" lon="9.3486067"><ele>313.6666666666667</ele><time>2026-04-11T12:55:06.002Z</time></trkpt><trkpt lat="44.8971567" lon="9.348495"><ele>311.3333333333333</ele><time>2026-04-11T12:55:07.001Z</time></trkpt><trkpt lat="44.897185" lon="9.3483783"><ele>309.0</ele><time>2026-04-11T12:55:08.002Z</time></trkpt><trkpt lat="44.8972133" lon="9.34828"><ele>309.0</ele><time>2026-04-11T12:55:09.003Z</time></trkpt><trkpt lat="44.8972683" lon="9.3481567"><ele>309.0</ele><time>2026-04-11T12:55:11.002Z</time></trkpt><trkpt lat="44.8972617" lon="9.3482717"><ele>309.0</ele><time>2026-04-11T12:55:14.002Z</time></trkpt><trkpt lat="44.8972417" lon="9.3483583"><ele>309.0</ele><time>2026-04-11T12:55:15.002Z</time></trkpt><trkpt lat="44.8972217" lon="9.34847"><ele>309.0</ele><time>2026-04-11T12:55:16.002Z</time></trkpt><trkpt lat="44.8971967" lon="9.3486067"><ele>309.0</ele><time>2026-04-11T12:55:17.001Z</time></trkpt><trkpt lat="44.8971633" lon="9.34876"><ele>308.4</ele><time>2026-04-11T12:55:18.001Z</time></trkpt><trkpt lat="44.8971317" lon="9.34891"><ele>307.79999999999995</ele><time>2026-04-11T12:55:19.002Z</time></trkpt><trkpt lat="44.897105" lon="9.3490533"><ele>307.20000000000005</ele><time>2026-04-11T12:55:20.001Z</time></trkpt><trkpt lat="44.89709" lon="9.3491833"><ele>306.6</ele><time>2026-04-11T12:55:21.004Z</time></trkpt><trkpt lat="44.89709" lon="9.34931"><ele>306.0</ele><time>2026-04-11T12:55:22.002Z</time></trkpt><trkpt lat="44.8971" lon="9.34943"><ele>306.0</ele><time>2026-04-11T12:55:23.003Z</time></trkpt><trkpt lat="44.8971217" lon="9.3495517"><ele>306.0</ele><time>2026-04-11T12:55:24.003Z</time></trkpt><trkpt lat="44.8971583" lon="9.3496767"><ele>306.0</ele><time>2026-04-11T12:55:25.001Z</time></trkpt><trkpt lat="44.8971967" lon="9.3498133"><ele>306.0</ele><time>2026-04-11T12:55:26.002Z</time></trkpt><trkpt lat="44.8972367" lon="9.3499467"><ele>306.0</ele><time>2026-04-11T12:55:27.002Z</time></trkpt><trkpt lat="44.8972733" lon="9.3500683"><ele>306.5</ele><time>2026-04-11T12:55:28.001Z</time></trkpt><trkpt lat="44.8973083" lon="9.3501817"><ele>307.0</ele><time>2026-04-11T12:55:29.001Z</time></trkpt><trkpt lat="44.897335" lon="9.3502883"><ele>307.5</ele><time>2026-04-11T12:55:30.002Z</time></trkpt><trkpt lat="44.89735" lon="9.3503983"><ele>308.0</ele><time>2026-04-11T12:55:31.002Z</time></trkpt><trkpt lat="44.89735" lon="9.3505183"><ele>308.5</ele><time>2026-04-11T12:55:32.002Z</time></trkpt><trkpt lat="44.8973333" lon="9.3506467"><ele>309.0</ele><time>2026-04-11T12:55:33.002Z</time></trkpt><trkpt lat="44.8973" lon="9.35078"><ele>310.75</ele><time>2026-04-11T12:55:34.004Z</time></trkpt><trkpt lat="44.8972483" lon="9.3509117"><ele>312.5</ele><time>2026-04-11T12:55:35.001Z</time></trkpt><trkpt lat="44.897185" lon="9.3510433"><ele>314.25</ele><time>2026-04-11T12:55:36.002Z</time></trkpt><trkpt lat="44.8971167" lon="9.35118"><ele>316.0</ele><time>2026-04-11T12:55:37.002Z</time></trkpt><trkpt lat="44.8970483" lon="9.351325"><ele>318.25</ele><time>2026-04-11T12:55:38.002Z</time></trkpt><trkpt lat="44.8969767" lon="9.351475"><ele>320.5</ele><time>2026-04-11T12:55:39.002Z</time></trkpt><trkpt lat="44.89691" lon="9.3516267"><ele>322.75</ele><time>2026-04-11T12:55:40.002Z</time></trkpt><trkpt lat="44.89685" lon="9.3517833"><ele>325.0</ele><time>2026-04-11T12:55:41.001Z</time></trkpt><trkpt lat="44.8968" lon="9.3519467"><ele>325.0</ele><time>2026-04-11T12:55:42.002Z</time></trkpt><trkpt lat="44.89676" lon="9.3521133"><ele>325.0</ele><time>2026-04-11T12:55:43.001Z</time></trkpt><trkpt lat="44.8967283" lon="9.3522833"><ele>325.0</ele><time>2026-04-11T12:55:44.003Z</time></trkpt><trkpt lat="44.8967" lon="9.352455"><ele>325.0</ele><time>2026-04-11T12:55:45.004Z</time></trkpt><trkpt lat="44.89667" lon="9.3526283"><ele>322.75</ele><time>2026-04-11T12:55:46.002Z</time></trkpt><trkpt lat="44.8966433" lon="9.352805"><ele>320.5</ele><time>2026-04-11T12:55:47.002Z</time></trkpt><trkpt lat="44.896615" lon="9.3529833"><ele>318.25</ele><time>2026-04-11T12:55:48.003Z</time></trkpt><trkpt lat="44.896585" lon="9.3531683"><ele>316.0</ele><time>2026-04-11T12:55:49.002Z</time></trkpt><trkpt lat="44.896555" lon="9.3533533"><ele>316.0</ele><time>2026-04-11T12:55:50.001Z</time></trkpt><trkpt lat="44.896535" lon="9.353525"><ele>316.0</ele><time>2026-04-11T12:55:51.002Z</time></trkpt><trkpt lat="44.8965283" lon="9.3536917"><ele>316.0</ele><time>2026-04-11T12:55:52.001Z</time></trkpt><trkpt lat="44.8965467" lon="9.35386"><ele>316.0</ele><time>2026-04-11T12:55:53.001Z</time></trkpt><trkpt lat="44.896585" lon="9.3540217"><ele>316.0</ele><time>2026-04-11T12:55:54.002Z</time></trkpt><trkpt lat="44.8966317" lon="9.35418"><ele>316.0</ele><time>2026-04-11T12:55:55.002Z</time></trkpt><trkpt lat="44.89668" lon="9.3543383"><ele>316.0</ele><time>2026-04-11T12:55:56.002Z</time></trkpt><trkpt lat="44.8967283" lon="9.3545033"><ele>316.0</ele><time>2026-04-11T12:55:57.004Z</time></trkpt><trkpt lat="44.8967733" lon="9.3546717"><ele>323.5</ele><time>2026-04-11T12:55:58.003Z</time></trkpt><trkpt lat="44.89681" lon="9.3548417"><ele>331.0</ele><time>2026-04-11T12:55:59.001Z</time></trkpt><trkpt lat="44.8968233" lon="9.3550117"><ele>338.5</ele><time>2026-04-11T12:56:00.002Z</time></trkpt><trkpt lat="44.8968117" lon="9.3551833"><ele>346.0</ele><time>2026-04-11T12:56:01.001Z</time></trkpt><trkpt lat="44.89678" lon="9.35536"><ele>342.25</ele><time>2026-04-11T12:56:02.002Z</time></trkpt><trkpt lat="44.89674" lon="9.3555383"><ele>338.5</ele><time>2026-04-11T12:56:03.002Z</time></trkpt><trkpt lat="44.896695" lon="9.3557167"><ele>334.75</ele><time>2026-04-11T12:56:04.002Z</time></trkpt><trkpt lat="44.8966533" lon="9.3558917"><ele>331.0</ele><time>2026-04-11T12:56:05.002Z</time></trkpt><trkpt lat="44.8966083" lon="9.35607"><ele>331.0</ele><time>2026-04-11T12:56:06.001Z</time></trkpt><trkpt lat="44.8965567" lon="9.3562417"><ele>331.0</ele><time>2026-04-11T12:56:07.002Z</time></trkpt><trkpt lat="44.8964917" lon="9.3564067"><ele>331.0</ele><time>2026-04-11T12:56:08.003Z</time></trkpt><trkpt lat="44.896425" lon="9.35657"><ele>331.0</ele><time>2026-04-11T12:56:09.002Z</time></trkpt><trkpt lat="44.8963667" lon="9.35673"><ele>333.75</ele><time>2026-04-11T12:56:10.002Z</time></trkpt><trkpt lat="44.8963283" lon="9.3568917"><ele>336.5</ele><time>2026-04-11T12:56:11.002Z</time></trkpt><trkpt lat="44.8962967" lon="9.35705"><ele>339.25</ele><time>2026-04-11T12:56:12.003Z</time></trkpt><trkpt lat="44.89627" lon="9.3572117"><ele>342.0</ele><time>2026-04-11T12:56:13.002Z</time></trkpt><trkpt lat="44.89625" lon="9.3573767"><ele>344.25</ele><time>2026-04-11T12:56:14.002Z</time></trkpt><trkpt lat="44.8962267" lon="9.357545"><ele>346.5</ele><time>2026-04-11T12:56:15.002Z</time></trkpt><trkpt lat="44.8961933" lon="9.3577117"><ele>348.75</ele><time>2026-04-11T12:56:16.003Z</time></trkpt><trkpt lat="44.89614" lon="9.3578633"><ele>351.0</ele><time>2026-04-11T12:56:17.003Z</time></trkpt><trkpt lat="44.89607" lon="9.3579983"><ele>352.0</ele><time>2026-04-11T12:56:18.003Z</time></trkpt><trkpt lat="44.8959817" lon="9.3581133"><ele>353.0</ele><time>2026-04-11T12:56:19.002Z</time></trkpt><trkpt lat="44.8958817" lon="9.35821"><ele>354.0</ele><time>2026-04-11T12:56:20.001Z</time></trkpt><trkpt lat="44.8957867" lon="9.3582967"><ele>355.0</ele><time>2026-04-11T12:56:21.002Z</time></trkpt><trkpt lat="44.8957083" lon="9.35839"><ele>353.0</ele><time>2026-04-11T12:56:22.002Z</time></trkpt><trkpt lat="44.89565" lon="9.35851"><ele>351.0</ele><time>2026-04-11T12:56:23.002Z</time></trkpt><trkpt lat="44.8956083" lon="9.35866"><ele>349.0</ele><time>2026-04-11T12:56:24.002Z</time></trkpt><trkpt lat="44.8955967" lon="9.3588333"><ele>347.0</ele><time>2026-04-11T12:56:25.001Z</time></trkpt><trkpt lat="44.8956117" lon="9.3590083"><ele>347.0</ele><time>2026-04-11T12:56:26.002Z</time></trkpt><trkpt lat="44.89563" lon="9.3591767"><ele>347.0</ele><time>2026-04-11T12:56:27.002Z</time></trkpt><trkpt lat="44.8956383" lon="9.359335"><ele>347.0</ele><time>2026-04-11T12:56:28.001Z</time></trkpt><trkpt lat="44.89563" lon="9.3595017"><ele>347.0</ele><time>2026-04-11T12:56:29.001Z</time></trkpt><trkpt lat="44.895595" lon="9.3596583"><ele>350.25</ele><time>2026-04-11T12:56:30.002Z</time></trkpt><trkpt lat="44.8955333" lon="9.3597967"><ele>353.5</ele><time>2026-04-11T12:56:31.002Z</time></trkpt><trkpt lat="44.8954433" lon="9.3599117"><ele>356.75</ele><time>2026-04-11T12:56:32.002Z</time></trkpt><trkpt lat="44.89534" lon="9.36001"><ele>360.0</ele><time>2026-04-11T12:56:33.002Z</time></trkpt><trkpt lat="44.8952317" lon="9.3601017"><ele>360.0</ele><time>2026-04-11T12:56:34.002Z</time></trkpt><trkpt lat="44.8951167" lon="9.3601917"><ele>360.0</ele><time>2026-04-11T12:56:35.001Z</time></trkpt><trkpt lat="44.8950033" lon="9.3602917"><ele>360.0</ele><time>2026-04-11T12:56:36.002Z</time></trkpt><trkpt lat="44.8948933" lon="9.3604067"><ele>360.0</ele><time>2026-04-11T12:56:37.003Z</time></trkpt><trkpt lat="44.894795" lon="9.3605417"><ele>358.75</ele><time>2026-04-11T12:56:38.002Z</time></trkpt><trkpt lat="44.8947067" lon="9.3606917"><ele>357.5</ele><time>2026-04-11T12:56:39.001Z</time></trkpt><trkpt lat="44.89464" lon="9.360855"><ele>356.25</ele><time>2026-04-11T12:56:40.001Z</time></trkpt><trkpt lat="44.8945933" lon="9.36103"><ele>355.0</ele><time>2026-04-11T12:56:41Z</time></trkpt><trkpt lat="44.8945633" lon="9.3612117"><ele>357.0</ele><time>2026-04-11T12:56:42.001Z</time></trkpt><trkpt lat="44.8945317" lon="9.361395"><ele>359.0</ele><time>2026-04-11T12:56:43Z</time></trkpt><trkpt lat="44.8945" lon="9.36158"><ele>361.0</ele><time>2026-04-11T12:56:44.001Z</time></trkpt><trkpt lat="44.8944667" lon="9.3617617"><ele>363.0</ele><time>2026-04-11T12:56:45.001Z</time></trkpt><trkpt lat="44.894415" lon="9.3619283"><ele>363.0</ele><time>2026-04-11T12:56:46Z</time></trkpt><trkpt lat="44.894345" lon="9.3620717"><ele>363.0</ele><time>2026-04-11T12:56:47Z</time></trkpt><trkpt lat="44.894255" lon="9.3621867"><ele>363.0</ele><time>2026-04-11T12:56:48.001Z</time></trkpt><trkpt lat="44.89415" lon="9.3622817"><ele>363.0</ele><time>2026-04-11T12:56:49.001Z</time></trkpt><trkpt lat="44.894035" lon="9.3623733"><ele>362.75</ele><time>2026-04-11T12:56:50Z</time></trkpt><trkpt lat="44.893915" lon="9.3624733"><ele>362.5</ele><time>2026-04-11T12:56:51.001Z</time></trkpt><trkpt lat="44.8938017" lon="9.3625833"><ele>362.25</ele><time>2026-04-11T12:56:52.001Z</time></trkpt><trkpt lat="44.8936883" lon="9.3626917"><ele>362.0</ele><time>2026-04-11T12:56:53.001Z</time></trkpt><trkpt lat="44.8935833" lon="9.3628133"><ele>362.0</ele><time>2026-04-11T12:56:54Z</time></trkpt><trkpt lat="44.8934833" lon="9.3629417"><ele>362.0</ele><time>2026-04-11T12:56:55Z</time></trkpt><trkpt lat="44.8933917" lon="9.3630733"><ele>362.0</ele><time>2026-04-11T12:56:56Z</time></trkpt><trkpt lat="44.8933083" lon="9.3632033"><ele>362.0</ele><time>2026-04-11T12:56:57.001Z</time></trkpt><trkpt lat="44.89323" lon="9.363335"><ele>362.25</ele><time>2026-04-11T12:56:58.001Z</time></trkpt><trkpt lat="44.8931583" lon="9.3634833"><ele>362.5</ele><time>2026-04-11T12:56:59.002Z</time></trkpt><trkpt lat="44.8930933" lon="9.3636483"><ele>362.75</ele><time>2026-04-11T12:57:00Z</time></trkpt><trkpt lat="44.8930317" lon="9.3638233"><ele>363.0</ele><time>2026-04-11T12:57:01Z</time></trkpt><trkpt lat="44.8929733" lon="9.3639983"><ele>363.0</ele><time>2026-04-11T12:57:02Z</time></trkpt><trkpt lat="44.8929133" lon="9.3641683"><ele>363.0</ele><time>2026-04-11T12:57:03.002Z</time></trkpt><trkpt lat="44.89286" lon="9.3643333"><ele>363.0</ele><time>2026-04-11T12:57:04.001Z</time></trkpt><trkpt lat="44.8928067" lon="9.364495"><ele>363.0</ele><time>2026-04-11T12:57:05.001Z</time></trkpt><trkpt lat="44.89276" lon="9.36466"><ele>364.75</ele><time>2026-04-11T12:57:06Z</time></trkpt><trkpt lat="44.89272" lon="9.3648267"><ele>366.5</ele><time>2026-04-11T12:57:07.001Z</time></trkpt><trkpt lat="44.8926933" lon="9.365"><ele>368.25</ele><time>2026-04-11T12:57:08Z</time></trkpt><trkpt lat="44.8926833" lon="9.3651767"><ele>370.0</ele><time>2026-04-11T12:57:09.001Z</time></trkpt><trkpt lat="44.8926817" lon="9.3653533"><ele>371.25</ele><time>2026-04-11T12:57:10.001Z</time></trkpt><trkpt lat="44.892675" lon="9.3655317"><ele>372.5</ele><time>2026-04-11T12:57:11Z</time></trkpt><trkpt lat="44.8926683" lon="9.3657033"><ele>373.75</ele><time>2026-04-11T12:57:12.003Z</time></trkpt><trkpt lat="44.8926517" lon="9.365865"><ele>375.0</ele><time>2026-04-11T12:57:13Z</time></trkpt><trkpt lat="44.89262" lon="9.3660083"><ele>372.0</ele><time>2026-04-11T12:57:14.001Z</time></trkpt><trkpt lat="44.8925667" lon="9.366135"><ele>369.0</ele><time>2026-04-11T12:57:15.002Z</time></trkpt><trkpt lat="44.8924883" lon="9.3662283"><ele>366.0</ele><time>2026-04-11T12:57:16.001Z</time></trkpt><trkpt lat="44.89239" lon="9.366285"><ele>363.0</ele><time>2026-04-11T12:57:17Z</time></trkpt><trkpt lat="44.892275" lon="9.366305"><ele>360.0</ele><time>2026-04-11T12:57:18.001Z</time></trkpt><trkpt lat="44.892155" lon="9.3662917"><ele>360.0</ele><time>2026-04-11T12:57:19.001Z</time></trkpt><trkpt lat="44.892035" lon="9.3662717"><ele>360.0</ele><time>2026-04-11T12:57:20.001Z</time></trkpt><trkpt lat="44.8919267" lon="9.3662717"><ele>360.0</ele><time>2026-04-11T12:57:21.002Z</time></trkpt><trkpt lat="44.8918133" lon="9.3663017"><ele>360.0</ele><time>2026-04-11T12:57:22.001Z</time></trkpt><trkpt lat="44.89171" lon="9.3663717"><ele>361.5</ele><time>2026-04-11T12:57:23.001Z</time></trkpt><trkpt lat="44.89161" lon="9.3664717"><ele>363.0</ele><time>2026-04-11T12:57:24.001Z</time></trkpt><trkpt lat="44.8915183" lon="9.3666017"><ele>364.5</ele><time>2026-04-11T12:57:25Z</time></trkpt><trkpt lat="44.891435" lon="9.36675"><ele>366.0</ele><time>2026-04-11T12:57:26.002Z</time></trkpt><trkpt lat="44.8913533" lon="9.36691"><ele>366.0</ele><time>2026-04-11T12:57:27.001Z</time></trkpt><trkpt lat="44.8912733" lon="9.367065"><ele>366.0</ele><time>2026-04-11T12:57:28.001Z</time></trkpt><trkpt lat="44.891195" lon="9.3672133"><ele>366.0</ele><time>2026-04-11T12:57:29Z</time></trkpt><trkpt lat="44.8911083" lon="9.3673483"><ele>366.0</ele><time>2026-04-11T12:57:30Z</time></trkpt><trkpt lat="44.8910117" lon="9.36747"><ele>365.75</ele><time>2026-04-11T12:57:31Z</time></trkpt><trkpt lat="44.890905" lon="9.36757"><ele>365.5</ele><time>2026-04-11T12:57:32Z</time></trkpt><trkpt lat="44.8907883" lon="9.3676483"><ele>365.25</ele><time>2026-04-11T12:57:33.001Z</time></trkpt><trkpt lat="44.89067" lon="9.3677133"><ele>365.0</ele><time>2026-04-11T12:57:34.002Z</time></trkpt><trkpt lat="44.890555" lon="9.367775"><ele>365.0</ele><time>2026-04-11T12:57:35Z</time></trkpt><trkpt lat="44.89044" lon="9.3678433"><ele>365.0</ele><time>2026-04-11T12:57:36.001Z</time></trkpt><trkpt lat="44.8903267" lon="9.3679233"><ele>365.0</ele><time>2026-04-11T12:57:37.001Z</time></trkpt><trkpt lat="44.8902183" lon="9.36802"><ele>365.0</ele><time>2026-04-11T12:57:38.001Z</time></trkpt><trkpt lat="44.8901133" lon="9.3681283"><ele>367.0</ele><time>2026-04-11T12:57:39.002Z</time></trkpt><trkpt lat="44.8900117" lon="9.3682383"><ele>369.0</ele><time>2026-04-11T12:57:40Z</time></trkpt><trkpt lat="44.889915" lon="9.36835"><ele>371.0</ele><time>2026-04-11T12:57:41.001Z</time></trkpt><trkpt lat="44.8898183" lon="9.3684583"><ele>373.0</ele><time>2026-04-11T12:57:42.001Z</time></trkpt><trkpt lat="44.8897233" lon="9.3685683"><ele>373.0</ele><time>2026-04-11T12:57:43.001Z</time></trkpt><trkpt lat="44.8896317" lon="9.3686817"><ele>373.0</ele><time>2026-04-11T12:57:44Z</time></trkpt><trkpt lat="44.8895533" lon="9.36881"><ele>373.0</ele><time>2026-04-11T12:57:45.001Z</time></trkpt><trkpt lat="44.8894967" lon="9.3689583"><ele>373.0</ele><time>2026-04-11T12:57:46.002Z</time></trkpt><trkpt lat="44.8894617" lon="9.3691283"><ele>377.75</ele><time>2026-04-11T12:57:47.001Z</time></trkpt><trkpt lat="44.8894433" lon="9.36931"><ele>382.5</ele><time>2026-04-11T12:57:48Z</time></trkpt><trkpt lat="44.8894333" lon="9.36949"><ele>387.25</ele><time>2026-04-11T12:57:49.001Z</time></trkpt><trkpt lat="44.8894167" lon="9.36967"><ele>392.0</ele><time>2026-04-11T12:57:50.001Z</time></trkpt><trkpt lat="44.8893783" lon="9.369825"><ele>390.40000000000003</ele><time>2026-04-11T12:57:51.002Z</time></trkpt><trkpt lat="44.889315" lon="9.36995"><ele>388.8</ele><time>2026-04-11T12:57:52Z</time></trkpt><trkpt lat="44.8892283" lon="9.37004"><ele>387.2</ele><time>2026-04-11T12:57:53.004Z</time></trkpt><trkpt lat="44.8891233" lon="9.3700817"><ele>385.6</ele><time>2026-04-11T12:57:54.001Z</time></trkpt><trkpt lat="44.8890067" lon="9.3700767"><ele>384.0</ele><time>2026-04-11T12:57:55.002Z</time></trkpt><trkpt lat="44.8888833" lon="9.3700267"><ele>384.0</ele><time>2026-04-11T12:57:56.001Z</time></trkpt><trkpt lat="44.8887617" lon="9.36995"><ele>384.0</ele><time>2026-04-11T12:57:57.001Z</time></trkpt><trkpt lat="44.88864" lon="9.369875"><ele>384.0</ele><time>2026-04-11T12:57:58.001Z</time></trkpt><trkpt lat="44.88852" lon="9.3697983"><ele>384.0</ele><time>2026-04-11T12:57:59.001Z</time></trkpt><trkpt lat="44.8884033" lon="9.3697217"><ele>381.25</ele><time>2026-04-11T12:58:00.001Z</time></trkpt><trkpt lat="44.8882833" lon="9.3696467"><ele>378.5</ele><time>2026-04-11T12:58:01.001Z</time></trkpt><trkpt lat="44.88816" lon="9.3695717"><ele>375.75</ele><time>2026-04-11T12:58:02.001Z</time></trkpt><trkpt lat="44.8880367" lon="9.3694983"><ele>373.0</ele><time>2026-04-11T12:58:03.002Z</time></trkpt><trkpt lat="44.88792" lon="9.369425"><ele>373.0</ele><time>2026-04-11T12:58:04.001Z</time></trkpt><trkpt lat="44.88781" lon="9.369365"><ele>373.0</ele><time>2026-04-11T12:58:05Z</time></trkpt><trkpt lat="44.8877017" lon="9.3693267"><ele>373.0</ele><time>2026-04-11T12:58:06.001Z</time></trkpt><trkpt lat="44.887595" lon="9.3693117"><ele>373.0</ele><time>2026-04-11T12:58:07.001Z</time></trkpt><trkpt lat="44.8874883" lon="9.3693183"><ele>373.0</ele><time>2026-04-11T12:58:08.002Z</time></trkpt><trkpt lat="44.8873833" lon="9.369345"><ele>374.75</ele><time>2026-04-11T12:58:09.003Z</time></trkpt><trkpt lat="44.8872783" lon="9.3693933"><ele>376.5</ele><time>2026-04-11T12:58:10.002Z</time></trkpt><trkpt lat="44.88717" lon="9.3694633"><ele>378.25</ele><time>2026-04-11T12:58:11.002Z</time></trkpt><trkpt lat="44.88707" lon="9.3695633"><ele>380.0</ele><time>2026-04-11T12:58:12Z</time></trkpt><trkpt lat="44.886985" lon="9.3696967"><ele>382.75</ele><time>2026-04-11T12:58:13.001Z</time></trkpt><trkpt lat="44.88691" lon="9.36985"><ele>385.5</ele><time>2026-04-11T12:58:14Z</time></trkpt><trkpt lat="44.88685" lon="9.3700183"><ele>388.25</ele><time>2026-04-11T12:58:15.001Z</time></trkpt><trkpt lat="44.88681" lon="9.3701983"><ele>391.0</ele><time>2026-04-11T12:58:16.002Z</time></trkpt><trkpt lat="44.8867983" lon="9.3703833"><ele>392.5</ele><time>2026-04-11T12:58:17Z</time></trkpt><trkpt lat="44.88681" lon="9.37057"><ele>394.0</ele><time>2026-04-11T12:58:18.001Z</time></trkpt><trkpt lat="44.8868283" lon="9.3707517"><ele>395.5</ele><time>2026-04-11T12:58:19.001Z</time></trkpt><trkpt lat="44.8868267" lon="9.370925"><ele>397.0</ele><time>2026-04-11T12:58:20.001Z</time></trkpt><trkpt lat="44.886805" lon="9.3711"><ele>397.0</ele><time>2026-04-11T12:58:21.001Z</time></trkpt><trkpt lat="44.8867683" lon="9.3712733"><ele>397.0</ele><time>2026-04-11T12:58:22Z</time></trkpt><trkpt lat="44.886725" lon="9.3714433"><ele>397.0</ele><time>2026-04-11T12:58:23.001Z</time></trkpt><trkpt lat="44.8866783" lon="9.3716067"><ele>397.0</ele><time>2026-04-11T12:58:24Z</time></trkpt><trkpt lat="44.88662" lon="9.3717383"><ele>396.20000000000005</ele><time>2026-04-11T12:58:25Z</time></trkpt><trkpt lat="44.8865467" lon="9.3718317"><ele>395.4</ele><time>2026-04-11T12:58:26.001Z</time></trkpt><trkpt lat="44.886455" lon="9.3718767"><ele>394.6</ele><time>2026-04-11T12:58:27.002Z</time></trkpt><trkpt lat="44.8863533" lon="9.3718733"><ele>393.79999999999995</ele><time>2026-04-11T12:58:28Z</time></trkpt><trkpt lat="44.8862417" lon="9.3718483"><ele>393.0</ele><time>2026-04-11T12:58:29.002Z</time></trkpt><trkpt lat="44.886135" lon="9.3718367"><ele>393.0</ele><time>2026-04-11T12:58:30.001Z</time></trkpt><trkpt lat="44.88603" lon="9.3718717"><ele>393.0</ele><time>2026-04-11T12:58:31.001Z</time></trkpt><trkpt lat="44.88594" lon="9.37195"><ele>393.0</ele><time>2026-04-11T12:58:32.001Z</time></trkpt><trkpt lat="44.885865" lon="9.3720783"><ele>393.0</ele><time>2026-04-11T12:58:33.002Z</time></trkpt><trkpt lat="44.88581" lon="9.3722433"><ele>395.0</ele><time>2026-04-11T12:58:34Z</time></trkpt><trkpt lat="44.88575" lon="9.3724033"><ele>397.0</ele><time>2026-04-11T12:58:35.001Z</time></trkpt><trkpt lat="44.8856767" lon="9.3725417"><ele>399.0</ele><time>2026-04-11T12:58:36Z</time></trkpt><trkpt lat="44.8855783" lon="9.37264"><ele>401.0</ele><time>2026-04-11T12:58:37.001Z</time></trkpt><trkpt lat="44.8854617" lon="9.3727"><ele>401.0</ele><time>2026-04-11T12:58:38Z</time></trkpt><trkpt lat="44.8853317" lon="9.372735"><ele>401.0</ele><time>2026-04-11T12:58:39.001Z</time></trkpt><trkpt lat="44.885195" lon="9.372755"><ele>401.0</ele><time>2026-04-11T12:58:40.002Z</time></trkpt><trkpt lat="44.8850533" lon="9.3727767"><ele>401.0</ele><time>2026-04-11T12:58:41.002Z</time></trkpt><trkpt lat="44.8849167" lon="9.3727983"><ele>399.0</ele><time>2026-04-11T12:58:42.001Z</time></trkpt><trkpt lat="44.8847883" lon="9.372835"><ele>397.0</ele><time>2026-04-11T12:58:43.001Z</time></trkpt><trkpt lat="44.8846683" lon="9.3728917"><ele>395.0</ele><time>2026-04-11T12:58:44.002Z</time></trkpt><trkpt lat="44.8845583" lon="9.37298"><ele>393.0</ele><time>2026-04-11T12:58:45.001Z</time></trkpt><trkpt lat="44.884465" lon="9.373105"><ele>394.5</ele><time>2026-04-11T12:58:46Z</time></trkpt><trkpt lat="44.8843867" lon="9.3732483"><ele>396.0</ele><time>2026-04-11T12:58:47Z</time></trkpt><trkpt lat="44.8843067" lon="9.3734"><ele>397.5</ele><time>2026-04-11T12:58:48.001Z</time></trkpt><trkpt lat="44.8842233" lon="9.373545"><ele>399.0</ele><time>2026-04-11T12:58:49.001Z</time></trkpt><trkpt lat="44.8841317" lon="9.37368"><ele>399.0</ele><time>2026-04-11T12:58:50.001Z</time></trkpt><trkpt lat="44.884035" lon="9.373805"><ele>399.0</ele><time>2026-04-11T12:58:51.001Z</time></trkpt><trkpt lat="44.8839367" lon="9.3739233"><ele>399.0</ele><time>2026-04-11T12:58:52.001Z</time></trkpt><trkpt lat="44.88384" lon="9.37404"><ele>399.0</ele><time>2026-04-11T12:58:53.001Z</time></trkpt><trkpt lat="44.8837367" lon="9.3741533"><ele>400.0</ele><time>2026-04-11T12:58:54.001Z</time></trkpt><trkpt lat="44.8836383" lon="9.3742717"><ele>401.0</ele><time>2026-04-11T12:58:55.002Z</time></trkpt><trkpt lat="44.8835467" lon="9.3744017"><ele>402.0</ele><time>2026-04-11T12:58:56.001Z</time></trkpt><trkpt lat="44.88346" lon="9.3745333"><ele>403.0</ele><time>2026-04-11T12:58:57.002Z</time></trkpt><trkpt lat="44.8833767" lon="9.3746683"><ele>406.0</ele><time>2026-04-11T12:58:58Z</time></trkpt><trkpt lat="44.8832867" lon="9.3747983"><ele>409.0</ele><time>2026-04-11T12:58:59Z</time></trkpt><trkpt lat="44.8831867" lon="9.3749067"><ele>412.0</ele><time>2026-04-11T12:59:00Z</time></trkpt><trkpt lat="44.8830783" lon="9.374985"><ele>415.0</ele><time>2026-04-11T12:59:01.002Z</time></trkpt><trkpt lat="44.88296" lon="9.3750367"><ele>415.0</ele><time>2026-04-11T12:59:02.001Z</time></trkpt><trkpt lat="44.88283" lon="9.3750533"><ele>415.0</ele><time>2026-04-11T12:59:03.001Z</time></trkpt><trkpt lat="44.8827017" lon="9.3750367"><ele>415.0</ele><time>2026-04-11T12:59:04.001Z</time></trkpt><trkpt lat="44.88257" lon="9.37499"><ele>415.0</ele><time>2026-04-11T12:59:05Z</time></trkpt><trkpt lat="44.8824483" lon="9.3749183"><ele>415.25</ele><time>2026-04-11T12:59:06Z</time></trkpt><trkpt lat="44.882335" lon="9.3748467"><ele>415.5</ele><time>2026-04-11T12:59:07Z</time></trkpt><trkpt lat="44.882225" lon="9.3747817"><ele>415.75</ele><time>2026-04-11T12:59:08.001Z</time></trkpt><trkpt lat="44.88211" lon="9.3747433"><ele>416.0</ele><time>2026-04-11T12:59:09.001Z</time></trkpt><trkpt lat="44.8820067" lon="9.3747583"><ele>416.0</ele><time>2026-04-11T12:59:10.002Z</time></trkpt><trkpt lat="44.8819117" lon="9.3748233"><ele>416.0</ele><time>2026-04-11T12:59:11.001Z</time></trkpt><trkpt lat="44.8818183" lon="9.3749283"><ele>416.0</ele><time>2026-04-11T12:59:12Z</time></trkpt><trkpt lat="44.8817217" lon="9.375055"><ele>416.0</ele><time>2026-04-11T12:59:13.001Z</time></trkpt><trkpt lat="44.8816183" lon="9.3751917"><ele>414.75</ele><time>2026-04-11T12:59:14.001Z</time></trkpt><trkpt lat="44.881515" lon="9.3753283"><ele>413.5</ele><time>2026-04-11T12:59:15.001Z</time></trkpt><trkpt lat="44.881405" lon="9.3754667"><ele>412.25</ele><time>2026-04-11T12:59:16.002Z</time></trkpt><trkpt lat="44.8813017" lon="9.375605"><ele>411.0</ele><time>2026-04-11T12:59:17.002Z</time></trkpt><trkpt lat="44.881205" lon="9.37574"><ele>415.75</ele><time>2026-04-11T12:59:18.003Z</time></trkpt><trkpt lat="44.8811183" lon="9.3758783"><ele>420.5</ele><time>2026-04-11T12:59:19.003Z</time></trkpt><trkpt lat="44.881045" lon="9.3760333"><ele>425.25</ele><time>2026-04-11T12:59:20Z</time></trkpt><trkpt lat="44.880985" lon="9.3761917"><ele>430.0</ele><time>2026-04-11T12:59:21.002Z</time></trkpt><trkpt lat="44.88096" lon="9.376355"><ele>432.8</ele><time>2026-04-11T12:59:22.001Z</time></trkpt><trkpt lat="44.88096" lon="9.3765183"><ele>435.6</ele><time>2026-04-11T12:59:23.002Z</time></trkpt><trkpt lat="44.8809733" lon="9.3766717"><ele>438.4</ele><time>2026-04-11T12:59:24.002Z</time></trkpt><trkpt lat="44.8809917" lon="9.3768083"><ele>441.2</ele><time>2026-04-11T12:59:25.002Z</time></trkpt><trkpt lat="44.88101" lon="9.3769333"><ele>444.0</ele><time>2026-04-11T12:59:26.001Z</time></trkpt><trkpt lat="44.88103" lon="9.3770517"><ele>444.0</ele><time>2026-04-11T12:59:27.002Z</time></trkpt><trkpt lat="44.8810383" lon="9.3771583"><ele>444.0</ele><time>2026-04-11T12:59:28.001Z</time></trkpt><trkpt lat="44.8809983" lon="9.3773133"><ele>444.0</ele><time>2026-04-11T12:59:30.001Z</time></trkpt><trkpt lat="44.88093" lon="9.3774133"><ele>444.0</ele><time>2026-04-11T12:59:32.001Z</time></trkpt><trkpt lat="44.8808283" lon="9.3774583"><ele>444.0</ele><time>2026-04-11T12:59:34.001Z</time></trkpt><trkpt lat="44.8807033" lon="9.3774267"><ele>441.0</ele><time>2026-04-11T12:59:36.001Z</time></trkpt><trkpt lat="44.8806317" lon="9.37739"><ele>438.0</ele><time>2026-04-11T12:59:37.001Z</time></trkpt><trkpt lat="44.8805633" lon="9.37735"><ele>435.0</ele><time>2026-04-11T12:59:38.001Z</time></trkpt><trkpt lat="44.8804967" lon="9.3773233"><ele>432.0</ele><time>2026-04-11T12:59:39.002Z</time></trkpt><trkpt lat="44.8803817" lon="9.377315"><ele>429.0</ele><time>2026-04-11T12:59:41.001Z</time></trkpt><trkpt lat="44.8802683" lon="9.3773567"><ele>429.0</ele><time>2026-04-11T12:59:43.001Z</time></trkpt><trkpt lat="44.8802017" lon="9.37741"><ele>429.0</ele><time>2026-04-11T12:59:44.001Z</time></trkpt><trkpt lat="44.88013" lon="9.37749"><ele>429.0</ele><time>2026-04-11T12:59:45.001Z</time></trkpt><trkpt lat="44.880065" lon="9.3775983"><ele>429.0</ele><time>2026-04-11T12:59:46.001Z</time></trkpt><trkpt lat="44.880005" lon="9.3777183"><ele>429.0</ele><time>2026-04-11T12:59:47Z</time></trkpt><trkpt lat="44.8799433" lon="9.3778417"><ele>428.6</ele><time>2026-04-11T12:59:48.001Z</time></trkpt><trkpt lat="44.87988" lon="9.37797"><ele>428.2</ele><time>2026-04-11T12:59:49.001Z</time></trkpt><trkpt lat="44.8798217" lon="9.3781033"><ele>427.80000000000007</ele><time>2026-04-11T12:59:50.002Z</time></trkpt><trkpt lat="44.8797767" lon="9.3782483"><ele>427.40000000000003</ele><time>2026-04-11T12:59:51.002Z</time></trkpt><trkpt lat="44.8797517" lon="9.378405"><ele>427.0</ele><time>2026-04-11T12:59:52Z</time></trkpt><trkpt lat="44.8797317" lon="9.378565"><ele>427.0</ele><time>2026-04-11T12:59:53.002Z</time></trkpt><trkpt lat="44.8797133" lon="9.3787217"><ele>427.00000000000006</ele><time>2026-04-11T12:59:54.001Z</time></trkpt><trkpt lat="44.8796783" lon="9.3788633"><ele>427.00000000000006</ele><time>2026-04-11T12:59:55.001Z</time></trkpt><trkpt lat="44.87963" lon="9.3789983"><ele>427.0</ele><time>2026-04-11T12:59:56.001Z</time></trkpt><trkpt lat="44.8795667" lon="9.3791267"><ele>427.0</ele><time>2026-04-11T12:59:57.001Z</time></trkpt><trkpt lat="44.8794867" lon="9.3792433"><ele>426.75</ele><time>2026-04-11T12:59:58Z</time></trkpt><trkpt lat="44.8793917" lon="9.3793533"><ele>426.5</ele><time>2026-04-11T12:59:59.002Z</time></trkpt><trkpt lat="44.87928" lon="9.3794533"><ele>426.25</ele><time>2026-04-11T13:00:00.001Z</time></trkpt><trkpt lat="44.8791567" lon="9.3795417"><ele>426.0</ele><time>2026-04-11T13:00:01.001Z</time></trkpt><trkpt lat="44.8790267" lon="9.379615"><ele>426.0</ele><time>2026-04-11T13:00:02.002Z</time></trkpt><trkpt lat="44.878895" lon="9.3796667"><ele>426.0</ele><time>2026-04-11T13:00:03.002Z</time></trkpt><trkpt lat="44.8787617" lon="9.3797"><ele>426.0</ele><time>2026-04-11T13:00:04.001Z</time></trkpt><trkpt lat="44.8786367" lon="9.3797233"><ele>426.0</ele><time>2026-04-11T13:00:05.001Z</time></trkpt><trkpt lat="44.8785117" lon="9.37974"><ele>428.0</ele><time>2026-04-11T13:00:06.001Z</time></trkpt><trkpt lat="44.8783917" lon="9.37976"><ele>430.0</ele><time>2026-04-11T13:00:07.001Z</time></trkpt><trkpt lat="44.878275" lon="9.379795"><ele>432.0</ele><time>2026-04-11T13:00:08.002Z</time></trkpt><trkpt lat="44.87816" lon="9.379855"><ele>434.0</ele><time>2026-04-11T13:00:09.002Z</time></trkpt><trkpt lat="44.8780533" lon="9.3799367"><ele>434.0</ele><time>2026-04-11T13:00:10.001Z</time></trkpt><trkpt lat="44.8779483" lon="9.3800283"><ele>434.0</ele><time>2026-04-11T13:00:11.001Z</time></trkpt><trkpt lat="44.8778433" lon="9.38011"><ele>434.0</ele><time>2026-04-11T13:00:12.001Z</time></trkpt><trkpt lat="44.877735" lon="9.380175"><ele>434.0</ele><time>2026-04-11T13:00:13.001Z</time></trkpt><trkpt lat="44.8776183" lon="9.38022"><ele>432.0</ele><time>2026-04-11T13:00:14.001Z</time></trkpt><trkpt lat="44.8775" lon="9.380255"><ele>430.0</ele><time>2026-04-11T13:00:15.003Z</time></trkpt><trkpt lat="44.877385" lon="9.3803"><ele>428.0</ele><time>2026-04-11T13:00:16.001Z</time></trkpt><trkpt lat="44.877265" lon="9.380365"><ele>426.0</ele><time>2026-04-11T13:00:17.001Z</time></trkpt><trkpt lat="44.8771533" lon="9.3804517"><ele>430.5</ele><time>2026-04-11T13:00:18.001Z</time></trkpt><trkpt lat="44.87705" lon="9.3805517"><ele>435.0</ele><time>2026-04-11T13:00:19.003Z</time></trkpt><trkpt lat="44.876955" lon="9.3806683"><ele>439.5</ele><time>2026-04-11T13:00:20.001Z</time></trkpt><trkpt lat="44.8768633" lon="9.3808"><ele>444.0</ele><time>2026-04-11T13:00:21.002Z</time></trkpt><trkpt lat="44.876785" lon="9.3809417"><ele>446.5</ele><time>2026-04-11T13:00:22.001Z</time></trkpt><trkpt lat="44.8767083" lon="9.3810867"><ele>449.0</ele><time>2026-04-11T13:00:23.001Z</time></trkpt><trkpt lat="44.8766267" lon="9.38122"><ele>451.5</ele><time>2026-04-11T13:00:24.002Z</time></trkpt><trkpt lat="44.876535" lon="9.3813417"><ele>454.0</ele><time>2026-04-11T13:00:25.001Z</time></trkpt><trkpt lat="44.876435" lon="9.3814367"><ele>454.0</ele><time>2026-04-11T13:00:26.001Z</time></trkpt><trkpt lat="44.8763233" lon="9.3815083"><ele>454.0</ele><time>2026-04-11T13:00:27.002Z</time></trkpt><trkpt lat="44.87621" lon="9.3815733"><ele>454.0</ele><time>2026-04-11T13:00:28.001Z</time></trkpt><trkpt lat="44.8760917" lon="9.3816367"><ele>454.0</ele><time>2026-04-11T13:00:29Z</time></trkpt><trkpt lat="44.8759783" lon="9.3817033"><ele>451.75</ele><time>2026-04-11T13:00:30.001Z</time></trkpt><trkpt lat="44.875865" lon="9.3817667"><ele>449.5</ele><time>2026-04-11T13:00:31.001Z</time></trkpt><trkpt lat="44.87575" lon="9.38183"><ele>447.25</ele><time>2026-04-11T13:00:32.001Z</time></trkpt><trkpt lat="44.8756367" lon="9.3818917"><ele>445.0</ele><time>2026-04-11T13:00:33.001Z</time></trkpt><trkpt lat="44.8755267" lon="9.3819567"><ele>445.0</ele><time>2026-04-11T13:00:34.001Z</time></trkpt><trkpt lat="44.8754183" lon="9.3820183"><ele>445.0</ele><time>2026-04-11T13:00:35.002Z</time></trkpt><trkpt lat="44.8753083" lon="9.3820817"><ele>445.0</ele><time>2026-04-11T13:00:36.001Z</time></trkpt><trkpt lat="44.8751967" lon="9.3821433"><ele>445.0</ele><time>2026-04-11T13:00:37.002Z</time></trkpt><trkpt lat="44.875085" lon="9.3822067"><ele>446.25</ele><time>2026-04-11T13:00:38.002Z</time></trkpt><trkpt lat="44.8749767" lon="9.382275"><ele>447.5</ele><time>2026-04-11T13:00:39.002Z</time></trkpt><trkpt lat="44.8748733" lon="9.382355"><ele>448.75</ele><time>2026-04-11T13:00:40.001Z</time></trkpt><trkpt lat="44.8747867" lon="9.3824583"><ele>450.0</ele><time>2026-04-11T13:00:41.001Z</time></trkpt><trkpt lat="44.8747233" lon="9.3825817"><ele>450.0</ele><time>2026-04-11T13:00:42.001Z</time></trkpt><trkpt lat="44.8746833" lon="9.3827267"><ele>450.0</ele><time>2026-04-11T13:00:43Z</time></trkpt><trkpt lat="44.8746717" lon="9.3828917"><ele>450.0</ele><time>2026-04-11T13:00:44.001Z</time></trkpt><trkpt lat="44.8746817" lon="9.3830517"><ele>450.0</ele><time>2026-04-11T13:00:45.001Z</time></trkpt><trkpt lat="44.8747133" lon="9.38321"><ele>452.5</ele><time>2026-04-11T13:00:46.001Z</time></trkpt><trkpt lat="44.8747583" lon="9.3833667"><ele>455.0</ele><time>2026-04-11T13:00:47Z</time></trkpt><trkpt lat="44.87481" lon="9.3835217"><ele>457.5</ele><time>2026-04-11T13:00:48.002Z</time></trkpt><trkpt lat="44.874855" lon="9.3836733"><ele>460.0</ele><time>2026-04-11T13:00:49.001Z</time></trkpt><trkpt lat="44.874875" lon="9.3838133"><ele>460.50000000000006</ele><time>2026-04-11T13:00:50.001Z</time></trkpt><trkpt lat="44.8748683" lon="9.3839433"><ele>461.0</ele><time>2026-04-11T13:00:51.002Z</time></trkpt><trkpt lat="44.874845" lon="9.38406"><ele>461.5</ele><time>2026-04-11T13:00:52.001Z</time></trkpt><trkpt lat="44.8748117" lon="9.3841633"><ele>462.0</ele><time>2026-04-11T13:00:53.001Z</time></trkpt><trkpt lat="44.874775" lon="9.3842567"><ele>462.50000000000006</ele><time>2026-04-11T13:00:54.001Z</time></trkpt><trkpt lat="44.8747417" lon="9.3843367"><ele>463.0</ele><time>2026-04-11T13:00:55.001Z</time></trkpt><trkpt lat="44.8747083" lon="9.3844817"><ele>463.00000000000006</ele><time>2026-04-11T13:00:57.002Z</time></trkpt><trkpt lat="44.874745" lon="9.3845583"><ele>463.0</ele><time>2026-04-11T13:00:59.002Z</time></trkpt><trkpt lat="44.8747967" lon="9.3846317"><ele>463.0</ele><time>2026-04-11T13:03:00Z</time></trkpt><trkpt lat="44.874795" lon="9.3847283"><ele>463.0</ele><time>2026-04-11T13:03:02.001Z</time></trkpt><trkpt lat="44.8747417" lon="9.38487"><ele>463.00000000000006</ele><time>2026-04-11T13:03:04.001Z</time></trkpt><trkpt lat="44.8746933" lon="9.38496"><ele>463.0</ele><time>2026-04-11T13:03:05.001Z</time></trkpt><trkpt lat="44.87465" lon="9.3850533"><ele>463.83333333333337</ele><time>2026-04-11T13:03:06.001Z</time></trkpt><trkpt lat="44.874605" lon="9.3851483"><ele>464.6666666666667</ele><time>2026-04-11T13:03:07.001Z</time></trkpt><trkpt lat="44.87456" lon="9.385245"><ele>465.5</ele><time>2026-04-11T13:03:08Z</time></trkpt><trkpt lat="44.874525" lon="9.385345"><ele>466.33333333333337</ele><time>2026-04-11T13:03:09.001Z</time></trkpt><trkpt lat="44.8745117" lon="9.3854383"><ele>467.1666666666667</ele><time>2026-04-11T13:03:10.001Z</time></trkpt><trkpt lat="44.8745467" lon="9.38558"><ele>468.0</ele><time>2026-04-11T13:03:12.002Z</time></trkpt><trkpt lat="44.8746583" lon="9.3855967"><ele>468.0</ele><time>2026-04-11T13:03:14.001Z</time></trkpt><trkpt lat="44.8747883" lon="9.3854217"><ele>468.0</ele><time>2026-04-11T13:03:15.001Z</time></trkpt><trkpt lat="44.87487" lon="9.3853167"><ele>468.0</ele><time>2026-04-11T13:03:16.001Z</time></trkpt><trkpt lat="44.8749467" lon="9.385225"><ele>468.0</ele><time>2026-04-11T13:03:17.001Z</time></trkpt><trkpt lat="44.875025" lon="9.3851383"><ele>471.75</ele><time>2026-04-11T13:03:18.001Z</time></trkpt><trkpt lat="44.8751117" lon="9.3850483"><ele>475.5</ele><time>2026-04-11T13:03:19.001Z</time></trkpt><trkpt lat="44.8752067" lon="9.3849533"><ele>479.25</ele><time>2026-04-11T13:03:20.002Z</time></trkpt><trkpt lat="44.8753083" lon="9.3848617"><ele>483.0</ele><time>2026-04-11T13:03:21.003Z</time></trkpt><trkpt lat="44.875395" lon="9.3847633"><ele>482.25</ele><time>2026-04-11T13:03:22.001Z</time></trkpt><trkpt lat="44.8754933" lon="9.3846783"><ele>481.5</ele><time>2026-04-11T13:03:23.003Z</time></trkpt><trkpt lat="44.875605" lon="9.384605"><ele>480.75</ele><time>2026-04-11T13:03:24.002Z</time></trkpt><trkpt lat="44.875705" lon="9.3845283"><ele>480.0</ele><time>2026-04-11T13:03:25.001Z</time></trkpt><trkpt lat="44.8757933" lon="9.3844633"><ele>480.0</ele><time>2026-04-11T13:03:26.002Z</time></trkpt><trkpt lat="44.87587" lon="9.3844133"><ele>480.0</ele><time>2026-04-11T13:03:27.001Z</time></trkpt><trkpt lat="44.875935" lon="9.384395"><ele>480.0</ele><time>2026-04-11T13:03:28.002Z</time></trkpt><trkpt lat="44.876035" lon="9.3844583"><ele>480.0</ele><time>2026-04-11T13:03:30.002Z</time></trkpt><trkpt lat="44.8760183" lon="9.3846033"><ele>480.0</ele><time>2026-04-11T13:03:32Z</time></trkpt><trkpt lat="44.8759667" lon="9.384685"><ele>480.0</ele><time>2026-04-11T13:03:33.002Z</time></trkpt><trkpt lat="44.8758983" lon="9.384765"><ele>480.5</ele><time>2026-04-11T13:03:34.001Z</time></trkpt><trkpt lat="44.8758417" lon="9.3848517"><ele>481.0</ele><time>2026-04-11T13:03:35Z</time></trkpt><trkpt lat="44.8757883" lon="9.38493"><ele>481.5</ele><time>2026-04-11T13:03:36.001Z</time></trkpt><trkpt lat="44.8757833" lon="9.3850467"><ele>482.0</ele><time>2026-04-11T13:03:38Z</time></trkpt><trkpt lat="44.87588" lon="9.3850083"><ele>482.5</ele><time>2026-04-11T13:03:40.001Z</time></trkpt><trkpt lat="44.8759367" lon="9.3849283"><ele>483.0</ele><time>2026-04-11T13:03:41.001Z</time></trkpt><trkpt lat="44.8760117" lon="9.3848117"><ele>485.4</ele><time>2026-04-11T13:03:42.001Z</time></trkpt><trkpt lat="44.8760883" lon="9.3846883"><ele>487.79999999999995</ele><time>2026-04-11T13:03:43.001Z</time></trkpt><trkpt lat="44.8761467" lon="9.3845667"><ele>490.2</ele><time>2026-04-11T13:03:44.001Z</time></trkpt><trkpt lat="44.87619" lon="9.3844533"><ele>492.6</ele><time>2026-04-11T13:03:45.002Z</time></trkpt><trkpt lat="44.8762233" lon="9.3843517"><ele>495.0</ele><time>2026-04-11T13:03:46.001Z</time></trkpt><trkpt lat="44.8762517" lon="9.3842583"><ele>495.0</ele><time>2026-04-11T13:03:47.001Z</time></trkpt><trkpt lat="44.8763017" lon="9.3841183"><ele>495.0</ele><time>2026-04-11T13:03:49.003Z</time></trkpt><trkpt lat="44.8763567" lon="9.3840583"><ele>495.0</ele><time>2026-04-11T13:03:51.002Z</time></trkpt><trkpt lat="44.8764083" lon="9.3841167"><ele>495.0</ele><time>2026-04-11T13:03:53Z</time></trkpt><trkpt lat="44.8764067" lon="9.38425"><ele>495.0</ele><time>2026-04-11T13:03:55.001Z</time></trkpt><trkpt lat="44.8763883" lon="9.3844333"><ele>495.0</ele><time>2026-04-11T13:03:57.002Z</time></trkpt><trkpt lat="44.8763767" lon="9.3845383"><ele>495.0</ele><time>2026-04-11T13:03:58.001Z</time></trkpt><trkpt lat="44.8763883" lon="9.3846433"><ele>495.0</ele><time>2026-04-11T13:03:59.001Z</time></trkpt><trkpt lat="44.8763867" lon="9.3847517"><ele>495.0</ele><time>2026-04-11T13:04:00.002Z</time></trkpt><trkpt lat="44.8763883" lon="9.384865"><ele>495.0</ele><time>2026-04-11T13:04:01.001Z</time></trkpt><trkpt lat="44.8764033" lon="9.3849833"><ele>495.0</ele><time>2026-04-11T13:04:02.001Z</time></trkpt><trkpt lat="44.8764383" lon="9.3851017"><ele>495.3333333333333</ele><time>2026-04-11T13:04:03.001Z</time></trkpt><trkpt lat="44.876495" lon="9.3852033"><ele>495.66666666666663</ele><time>2026-04-11T13:04:04.003Z</time></trkpt><trkpt lat="44.87656" lon="9.3852833"><ele>496.0</ele><time>2026-04-11T13:04:05.002Z</time></trkpt><trkpt lat="44.876645" lon="9.3853417"><ele>496.3333333333333</ele><time>2026-04-11T13:04:06.002Z</time></trkpt><trkpt lat="44.87673" lon="9.385385"><ele>496.66666666666663</ele><time>2026-04-11T13:04:07.002Z</time></trkpt><trkpt lat="44.8768117" lon="9.3854067"><ele>497.0</ele><time>2026-04-11T13:04:08.003Z</time></trkpt><trkpt lat="44.8768983" lon="9.3853867"><ele>499.2857142857143</ele><time>2026-04-11T13:04:09.002Z</time></trkpt><trkpt lat="44.8769783" lon="9.385345"><ele>501.57142857142856</ele><time>2026-04-11T13:04:10.002Z</time></trkpt><trkpt lat="44.8770383" lon="9.3852917"><ele>503.8571428571429</ele><time>2026-04-11T13:04:11.001Z</time></trkpt><trkpt lat="44.8770983" lon="9.3852283"><ele>506.14285714285717</ele><time>2026-04-11T13:04:12.002Z</time></trkpt><trkpt lat="44.877135" lon="9.3851483"><ele>508.42857142857144</ele><time>2026-04-11T13:04:13.001Z</time></trkpt><trkpt lat="44.8771633" lon="9.3850567"><ele>510.7142857142858</ele><time>2026-04-11T13:04:14.002Z</time></trkpt><trkpt lat="44.8771633" lon="9.384945"><ele>513.0</ele><time>2026-04-11T13:04:15.003Z</time></trkpt><trkpt lat="44.8771483" lon="9.384815"><ele>512.6</ele><time>2026-04-11T13:04:16.001Z</time></trkpt><trkpt lat="44.8771233" lon="9.3846733"><ele>512.1999999999999</ele><time>2026-04-11T13:04:17.002Z</time></trkpt><trkpt lat="44.8770967" lon="9.3845383"><ele>511.8</ele><time>2026-04-11T13:04:18.002Z</time></trkpt><trkpt lat="44.877075" lon="9.3844133"><ele>511.4</ele><time>2026-04-11T13:04:19.002Z</time></trkpt><trkpt lat="44.8770583" lon="9.3842917"><ele>511.0</ele><time>2026-04-11T13:04:20.002Z</time></trkpt><trkpt lat="44.8770583" lon="9.384185"><ele>511.0</ele><time>2026-04-11T13:04:21.002Z</time></trkpt><trkpt lat="44.8770983" lon="9.3840717"><ele>511.0</ele><time>2026-04-11T13:04:23.001Z</time></trkpt><trkpt lat="44.877165" lon="9.3841283"><ele>511.0</ele><time>2026-04-11T13:04:25.001Z</time></trkpt><trkpt lat="44.8772083" lon="9.384305"><ele>511.0</ele><time>2026-04-11T13:04:27.002Z</time></trkpt><trkpt lat="44.87723" lon="9.384425"><ele>511.0</ele><time>2026-04-11T13:04:28.001Z</time></trkpt><trkpt lat="44.8772717" lon="9.3845633"><ele>511.5</ele><time>2026-04-11T13:04:29.001Z</time></trkpt><trkpt lat="44.8773317" lon="9.3847"><ele>512.0</ele><time>2026-04-11T13:04:30.002Z</time></trkpt><trkpt lat="44.8773983" lon="9.3848367"><ele>512.5</ele><time>2026-04-11T13:04:31.002Z</time></trkpt><trkpt lat="44.8774633" lon="9.3849717"><ele>513.0</ele><time>2026-04-11T13:04:32.001Z</time></trkpt><trkpt lat="44.8775167" lon="9.3851183"><ele>513.0</ele><time>2026-04-11T13:04:33.002Z</time></trkpt><trkpt lat="44.8775583" lon="9.385275"><ele>513.0</ele><time>2026-04-11T13:04:34.002Z</time></trkpt><trkpt lat="44.8775883" lon="9.3854267"><ele>513.0</ele><time>2026-04-11T13:04:35.002Z</time></trkpt><trkpt lat="44.8776" lon="9.3855633"><ele>513.0</ele><time>2026-04-11T13:04:36.001Z</time></trkpt><trkpt lat="44.8775983" lon="9.3856867"><ele>513.0</ele><time>2026-04-11T13:04:37.003Z</time></trkpt><trkpt lat="44.8776" lon="9.385795"><ele>516.4</ele><time>2026-04-11T13:04:38.002Z</time></trkpt><trkpt lat="44.8776083" lon="9.38589"><ele>519.8</ele><time>2026-04-11T13:04:39.002Z</time></trkpt><trkpt lat="44.8776867" lon="9.38594"><ele>523.2</ele><time>2026-04-11T13:04:41.001Z</time></trkpt><trkpt lat="44.8777533" lon="9.3857833"><ele>526.6</ele><time>2026-04-11T13:04:43.003Z</time></trkpt><trkpt lat="44.8777567" lon="9.3856533"><ele>530.0</ele><time>2026-04-11T13:04:44.002Z</time></trkpt><trkpt lat="44.87777" lon="9.38551"><ele>530.0</ele><time>2026-04-11T13:04:45.002Z</time></trkpt><trkpt lat="44.8777967" lon="9.3853683"><ele>530.0</ele><time>2026-04-11T13:04:46.001Z</time></trkpt><trkpt lat="44.877845" lon="9.3852283"><ele>530.0</ele><time>2026-04-11T13:04:47.001Z</time></trkpt><trkpt lat="44.8779033" lon="9.385085"><ele>530.0</ele><time>2026-04-11T13:04:48.002Z</time></trkpt><trkpt lat="44.8779583" lon="9.3849283"><ele>530.0</ele><time>2026-04-11T13:04:49.003Z</time></trkpt><trkpt lat="44.8779967" lon="9.3847733"><ele>530.0</ele><time>2026-04-11T13:04:50.001Z</time></trkpt><trkpt lat="44.87802" lon="9.3846383"><ele>530.0</ele><time>2026-04-11T13:04:51.002Z</time></trkpt><trkpt lat="44.8780483" lon="9.38453"><ele>530.0</ele><time>2026-04-11T13:04:52.002Z</time></trkpt><trkpt lat="44.878105" lon="9.384455"><ele>530.0</ele><time>2026-04-11T13:04:53.003Z</time></trkpt><trkpt lat="44.8781867" lon="9.384405"><ele>530.75</ele><time>2026-04-11T13:04:54.002Z</time></trkpt><trkpt lat="44.8782917" lon="9.3843833"><ele>531.5</ele><time>2026-04-11T13:04:55.002Z</time></trkpt><trkpt lat="44.878405" lon="9.3843733"><ele>532.25</ele><time>2026-04-11T13:04:56.002Z</time></trkpt><trkpt lat="44.87853" lon="9.3843667"><ele>533.0</ele><time>2026-04-11T13:04:57.002Z</time></trkpt><trkpt lat="44.8786567" lon="9.3843533"><ele>533.0</ele><time>2026-04-11T13:04:58.001Z</time></trkpt><trkpt lat="44.8787767" lon="9.384325"><ele>533.0</ele><time>2026-04-11T13:04:59.004Z</time></trkpt><trkpt lat="44.8788967" lon="9.3842783"><ele>533.0</ele><time>2026-04-11T13:05:00.003Z</time></trkpt><trkpt lat="44.8790083" lon="9.3842083"><ele>533.0</ele><time>2026-04-11T13:05:01.001Z</time></trkpt><trkpt lat="44.87912" lon="9.3841333"><ele>533.0</ele><time>2026-04-11T13:05:02.001Z</time></trkpt><trkpt lat="44.879235" lon="9.3840683"><ele>533.0</ele><time>2026-04-11T13:05:03.002Z</time></trkpt><trkpt lat="44.8793517" lon="9.384025"><ele>533.0</ele><time>2026-04-11T13:05:04.001Z</time></trkpt><trkpt lat="44.8794767" lon="9.3839933"><ele>533.0</ele><time>2026-04-11T13:05:05.001Z</time></trkpt><trkpt lat="44.879605" lon="9.38397"><ele>535.5</ele><time>2026-04-11T13:05:06.001Z</time></trkpt><trkpt lat="44.8797317" lon="9.3839433"><ele>538.0</ele><time>2026-04-11T13:05:07.001Z</time></trkpt><trkpt lat="44.879855" lon="9.3839033"><ele>540.5</ele><time>2026-04-11T13:05:08.001Z</time></trkpt><trkpt lat="44.87997" lon="9.3838383"><ele>543.0</ele><time>2026-04-11T13:05:09.002Z</time></trkpt><trkpt lat="44.8800867" lon="9.3837683"><ele>540.5</ele><time>2026-04-11T13:05:10.001Z</time></trkpt><trkpt lat="44.88021" lon="9.3837167"><ele>538.0</ele><time>2026-04-11T13:05:11.001Z</time></trkpt><trkpt lat="44.880345" lon="9.3836967"><ele>535.5</ele><time>2026-04-11T13:05:12.002Z</time></trkpt><trkpt lat="44.8804867" lon="9.3837"><ele>533.0</ele><time>2026-04-11T13:05:13.001Z</time></trkpt><trkpt lat="44.8806233" lon="9.3837183"><ele>533.0</ele><time>2026-04-11T13:05:14.001Z</time></trkpt><trkpt lat="44.88075" lon="9.3837433"><ele>533.0</ele><time>2026-04-11T13:05:15.002Z</time></trkpt><trkpt lat="44.88086" lon="9.38378"><ele>533.0</ele><time>2026-04-11T13:05:16.001Z</time></trkpt><trkpt lat="44.8809533" lon="9.3838167"><ele>533.0</ele><time>2026-04-11T13:05:17.001Z</time></trkpt><trkpt lat="44.88103" lon="9.3838583"><ele>533.0</ele><time>2026-04-11T13:05:18.001Z</time></trkpt><trkpt lat="44.8811183" lon="9.3839483"><ele>535.3333333333333</ele><time>2026-04-11T13:05:20.002Z</time></trkpt><trkpt lat="44.8811067" lon="9.3840367"><ele>537.6666666666666</ele><time>2026-04-11T13:05:22.003Z</time></trkpt><trkpt lat="44.8810117" lon="9.38409"><ele>540.0</ele><time>2026-04-11T13:05:24.001Z</time></trkpt><trkpt lat="44.8809517" lon="9.3841333"><ele>542.3333333333334</ele><time>2026-04-11T13:05:25.001Z</time></trkpt><trkpt lat="44.8808933" lon="9.3841983"><ele>544.6666666666667</ele><time>2026-04-11T13:05:26.002Z</time></trkpt><trkpt lat="44.8808367" lon="9.3842767"><ele>547.0</ele><time>2026-04-11T13:05:27.001Z</time></trkpt><trkpt lat="44.8807833" lon="9.3843583"><ele>547.0</ele><time>2026-04-11T13:05:28.002Z</time></trkpt><trkpt lat="44.880725" lon="9.3844433"><ele>547.0</ele><time>2026-04-11T13:05:29.001Z</time></trkpt><trkpt lat="44.88066" lon="9.384525"><ele>547.0</ele><time>2026-04-11T13:05:30.001Z</time></trkpt><trkpt lat="44.8805867" lon="9.3846017"><ele>547.0</ele><time>2026-04-11T13:05:31.002Z</time></trkpt><trkpt lat="44.8805133" lon="9.3846817"><ele>547.0</ele><time>2026-04-11T13:05:32.001Z</time></trkpt><trkpt lat="44.8804467" lon="9.3847583"><ele>547.0</ele><time>2026-04-11T13:05:33.002Z</time></trkpt><trkpt lat="44.8803817" lon="9.3848417"><ele>548.5</ele><time>2026-04-11T13:05:34.002Z</time></trkpt><trkpt lat="44.8803183" lon="9.384925"><ele>550.0</ele><time>2026-04-11T13:05:35.002Z</time></trkpt><trkpt lat="44.8802517" lon="9.3850067"><ele>551.5</ele><time>2026-04-11T13:05:36.001Z</time></trkpt><trkpt lat="44.880185" lon="9.3850883"><ele>553.0</ele><time>2026-04-11T13:05:37.001Z</time></trkpt><trkpt lat="44.8801233" lon="9.385165"><ele>554.5</ele><time>2026-04-11T13:05:38.001Z</time></trkpt><trkpt lat="44.880065" lon="9.3852383"><ele>556.0</ele><time>2026-04-11T13:05:39.003Z</time></trkpt><trkpt lat="44.88001" lon="9.3853"><ele>556.0</ele><time>2026-04-11T13:05:40.002Z</time></trkpt><trkpt lat="44.8799567" lon="9.3853533"><ele>556.0</ele><time>2026-04-11T13:05:41.003Z</time></trkpt><trkpt lat="44.879905" lon="9.38541"><ele>556.0</ele><time>2026-04-11T13:05:42.001Z</time></trkpt><trkpt lat="44.8798533" lon="9.38548"><ele>556.0</ele><time>2026-04-11T13:05:43.001Z</time></trkpt><trkpt lat="44.8798" lon="9.38557"><ele>556.0</ele><time>2026-04-11T13:05:44.001Z</time></trkpt><trkpt lat="44.8797533" lon="9.38566"><ele>556.0</ele><time>2026-04-11T13:05:45.001Z</time></trkpt><trkpt lat="44.87972" lon="9.3857417"><ele>556.0</ele><time>2026-04-11T13:05:46.001Z</time></trkpt><trkpt lat="44.879715" lon="9.3858883"><ele>557.6666666666667</ele><time>2026-04-11T13:05:48.001Z</time></trkpt><trkpt lat="44.879785" lon="9.3860033"><ele>559.3333333333334</ele><time>2026-04-11T13:05:50.002Z</time></trkpt><trkpt lat="44.8798133" lon="9.386165"><ele>561.0</ele><time>2026-04-11T13:05:52.001Z</time></trkpt><trkpt lat="44.8798167" lon="9.3862683"><ele>562.6666666666666</ele><time>2026-04-11T13:05:53.001Z</time></trkpt><trkpt lat="44.8798217" lon="9.3863783"><ele>564.3333333333333</ele><time>2026-04-11T13:05:54.004Z</time></trkpt><trkpt lat="44.879835" lon="9.38647"><ele>566.0</ele><time>2026-04-11T13:05:55.001Z</time></trkpt><trkpt lat="44.8798833" lon="9.386595"><ele>568.4</ele><time>2026-04-11T13:05:57.001Z</time></trkpt><trkpt lat="44.8799583" lon="9.3866433"><ele>570.8</ele><time>2026-04-11T13:05:59.002Z</time></trkpt><trkpt lat="44.8800683" lon="9.3866667"><ele>573.1999999999999</ele><time>2026-04-11T13:06:01.001Z</time></trkpt><trkpt lat="44.8801817" lon="9.3866783"><ele>575.6</ele><time>2026-04-11T13:06:03.001Z</time></trkpt><trkpt lat="44.8802767" lon="9.3866633"><ele>578.0</ele><time>2026-04-11T13:06:05.001Z</time></trkpt><trkpt lat="44.8803483" lon="9.386665"><ele>579.6666666666666</ele><time>2026-04-11T13:06:07.001Z</time></trkpt><trkpt lat="44.8803733" lon="9.386755"><ele>581.3333333333333</ele><time>2026-04-11T13:06:09.002Z</time></trkpt><trkpt lat="44.8803833" lon="9.3868617"><ele>583.0</ele><time>2026-04-11T13:06:11.001Z</time></trkpt><trkpt lat="44.8804183" lon="9.3869617"><ele>584.6666666666666</ele><time>2026-04-11T13:06:13.001Z</time></trkpt><trkpt lat="44.88048" lon="9.3870517"><ele>586.3333333333334</ele><time>2026-04-11T13:06:15.001Z</time></trkpt><trkpt lat="44.88055" lon="9.38714"><ele>588.0</ele><time>2026-04-11T13:06:17.001Z</time></trkpt><trkpt lat="44.88063" lon="9.3872317"><ele>591.0</ele><time>2026-04-11T13:06:19.001Z</time></trkpt><trkpt lat="44.880715" lon="9.387275"><ele>594.0</ele><time>2026-04-11T13:06:21.003Z</time></trkpt><trkpt lat="44.8807783" lon="9.3872783"><ele>597.0</ele><time>2026-04-11T13:06:23.001Z</time></trkpt><trkpt lat="44.8808367" lon="9.387365"><ele>600.0</ele><time>2026-04-11T13:06:25.001Z</time></trkpt><trkpt lat="44.8808817" lon="9.3874767"><ele>603.0</ele><time>2026-04-11T13:06:27.002Z</time></trkpt><trkpt lat="44.8809567" lon="9.3875533"><ele>606.0</ele><time>2026-04-11T13:06:29.001Z</time></trkpt><trkpt lat="44.88107" lon="9.38763"><ele>607.3333333333334</ele><time>2026-04-11T13:06:31.001Z</time></trkpt><trkpt lat="44.8811283" lon="9.38769"><ele>608.6666666666666</ele><time>2026-04-11T13:06:32.003Z</time></trkpt><trkpt lat="44.8811783" lon="9.3877533"><ele>610.0</ele><time>2026-04-11T13:06:33.001Z</time></trkpt><trkpt lat="44.88123" lon="9.387815"><ele>611.3333333333333</ele><time>2026-04-11T13:06:34.001Z</time></trkpt><trkpt lat="44.8813117" lon="9.3879383"><ele>612.6666666666666</ele><time>2026-04-11T13:06:36.001Z</time></trkpt><trkpt lat="44.8814067" lon="9.3880283"><ele>614.0</ele><time>2026-04-11T13:06:38.001Z</time></trkpt><trkpt lat="44.8815067" lon="9.3881283"><ele>616.1666666666666</ele><time>2026-04-11T13:06:40.001Z</time></trkpt><trkpt lat="44.8815483" lon="9.3882"><ele>618.3333333333333</ele><time>2026-04-11T13:06:41.001Z</time></trkpt><trkpt lat="44.88159" lon="9.3883267"><ele>620.5</ele><time>2026-04-11T13:06:43.001Z</time></trkpt><trkpt lat="44.8815817" lon="9.38845"><ele>622.6666666666666</ele><time>2026-04-11T13:06:45.002Z</time></trkpt><trkpt lat="44.8815933" lon="9.388555"><ele>624.8333333333334</ele><time>2026-04-11T13:06:47.002Z</time></trkpt><trkpt lat="44.8816233" lon="9.3886433"><ele>627.0</ele><time>2026-04-11T13:06:49.001Z</time></trkpt><trkpt lat="44.8816583" lon="9.388755"><ele>626.5</ele><time>2026-04-11T13:06:52.002Z</time></trkpt><trkpt lat="44.881725" lon="9.3888817"><ele>626.0</ele><time>2026-04-11T13:06:54.001Z</time></trkpt><trkpt lat="44.8817667" lon="9.38896"><ele>625.5</ele><time>2026-04-11T13:06:55.002Z</time></trkpt><trkpt lat="44.8818133" lon="9.389045"><ele>625.0</ele><time>2026-04-11T13:06:56.003Z</time></trkpt><trkpt lat="44.88185" lon="9.3891283"><ele>624.5</ele><time>2026-04-11T13:06:57.002Z</time></trkpt><trkpt lat="44.8818717" lon="9.389295"><ele>624.0</ele><time>2026-04-11T13:06:59.002Z</time></trkpt><trkpt lat="44.8818567" lon="9.3893883"><ele>624.0</ele><time>2026-04-11T13:07:00.002Z</time></trkpt><trkpt lat="44.8818333" lon="9.3894783"><ele>624.0</ele><time>2026-04-11T13:07:01.002Z</time></trkpt><trkpt lat="44.8818183" lon="9.3895717"><ele>624.0</ele><time>2026-04-11T13:07:02.002Z</time></trkpt><trkpt lat="44.8818167" lon="9.3896867"><ele>624.0</ele><time>2026-04-11T13:07:03.003Z</time></trkpt><trkpt lat="44.881815" lon="9.3897967"><ele>624.0</ele><time>2026-04-11T13:07:04.001Z</time></trkpt><trkpt lat="44.88182" lon="9.3899017"><ele>624.0</ele><time>2026-04-11T13:07:05.001Z</time></trkpt><trkpt lat="44.88184" lon="9.389995"><ele>624.0</ele><time>2026-04-11T13:07:06.002Z</time></trkpt><trkpt lat="44.88188" lon="9.39008"><ele>625.8333333333334</ele><time>2026-04-11T13:07:07.003Z</time></trkpt><trkpt lat="44.8819283" lon="9.390165"><ele>627.6666666666666</ele><time>2026-04-11T13:07:08.003Z</time></trkpt><trkpt lat="44.8819733" lon="9.3902583"><ele>629.5</ele><time>2026-04-11T13:07:09.003Z</time></trkpt><trkpt lat="44.8820117" lon="9.39036"><ele>631.3333333333333</ele><time>2026-04-11T13:07:10.002Z</time></trkpt><trkpt lat="44.8820467" lon="9.3904783"><ele>633.1666666666666</ele><time>2026-04-11T13:07:11.002Z</time></trkpt><trkpt lat="44.88209" lon="9.3906117"><ele>635.0</ele><time>2026-04-11T13:07:12.001Z</time></trkpt><trkpt lat="44.882135" lon="9.3907433"><ele>637.4</ele><time>2026-04-11T13:07:13.002Z</time></trkpt><trkpt lat="44.8821767" lon="9.3908683"><ele>639.8</ele><time>2026-04-11T13:07:14.003Z</time></trkpt><trkpt lat="44.882215" lon="9.3909767"><ele>642.2</ele><time>2026-04-11T13:07:15.002Z</time></trkpt><trkpt lat="44.882245" lon="9.3910667"><ele>644.6</ele><time>2026-04-11T13:07:16.002Z</time></trkpt><trkpt lat="44.8822717" lon="9.391155"><ele>647.0</ele><time>2026-04-11T13:07:17.002Z</time></trkpt><trkpt lat="44.8823217" lon="9.3913283"><ele>649.2</ele><time>2026-04-11T13:07:19.002Z</time></trkpt><trkpt lat="44.8823533" lon="9.39141"><ele>651.4000000000001</ele><time>2026-04-11T13:07:20.002Z</time></trkpt><trkpt lat="44.8824167" lon="9.3915367"><ele>653.5999999999999</ele><time>2026-04-11T13:07:22.001Z</time></trkpt><trkpt lat="44.882505" lon="9.39162"><ele>655.8</ele><time>2026-04-11T13:07:24.001Z</time></trkpt><trkpt lat="44.8826" lon="9.3917233"><ele>658.0</ele><time>2026-04-11T13:07:26.002Z</time></trkpt><trkpt lat="44.882655" lon="9.391775"><ele>658.8</ele><time>2026-04-11T13:07:27.003Z</time></trkpt><trkpt lat="44.8827717" lon="9.391855"><ele>659.5999999999999</ele><time>2026-04-11T13:07:29.002Z</time></trkpt><trkpt lat="44.8828783" lon="9.3919283"><ele>660.4000000000001</ele><time>2026-04-11T13:07:31.002Z</time></trkpt><trkpt lat="44.8829717" lon="9.3920033"><ele>661.2</ele><time>2026-04-11T13:07:33.002Z</time></trkpt><trkpt lat="44.8830317" lon="9.3920383"><ele>662.0</ele><time>2026-04-11T13:07:34.002Z</time></trkpt><trkpt lat="44.8831383" lon="9.3921433"><ele>664.1666666666666</ele><time>2026-04-11T13:07:36.002Z</time></trkpt><trkpt lat="44.883185" lon="9.3922083"><ele>666.3333333333333</ele><time>2026-04-11T13:07:37.002Z</time></trkpt><trkpt lat="44.8832633" lon="9.3923283"><ele>668.5</ele><time>2026-04-11T13:07:39.002Z</time></trkpt><trkpt lat="44.8833117" lon="9.3924033"><ele>670.6666666666666</ele><time>2026-04-11T13:07:40.002Z</time></trkpt><trkpt lat="44.883365" lon="9.3924783"><ele>672.8333333333334</ele><time>2026-04-11T13:07:41.002Z</time></trkpt><trkpt lat="44.883415" lon="9.392545"><ele>675.0</ele><time>2026-04-11T13:07:42.002Z</time></trkpt><trkpt lat="44.8834933" lon="9.3926483"><ele>675.8</ele><time>2026-04-11T13:07:44.001Z</time></trkpt><trkpt lat="44.883575" lon="9.39275"><ele>676.6</ele><time>2026-04-11T13:07:46.002Z</time></trkpt><trkpt lat="44.883665" lon="9.3928183"><ele>677.4000000000001</ele><time>2026-04-11T13:07:48.002Z</time></trkpt><trkpt lat="44.8837617" lon="9.392845"><ele>678.2</ele><time>2026-04-11T13:07:50.003Z</time></trkpt><trkpt lat="44.8838267" lon="9.39287"><ele>679.0</ele><time>2026-04-11T13:07:51.003Z</time></trkpt><trkpt lat="44.8839" lon="9.3929"><ele>679.0</ele><time>2026-04-11T13:07:52.002Z</time></trkpt><trkpt lat="44.88397" lon="9.3929167"><ele>679.0</ele><time>2026-04-11T13:07:53.002Z</time></trkpt><trkpt lat="44.8840683" lon="9.3928883"><ele>679.0</ele><time>2026-04-11T13:07:55.001Z</time></trkpt><trkpt lat="44.8841733" lon="9.3928483"><ele>679.0</ele><time>2026-04-11T13:07:57.002Z</time></trkpt><trkpt lat="44.8842467" lon="9.3927783"><ele>679.0</ele><time>2026-04-11T13:07:59.001Z</time></trkpt><trkpt lat="44.8843217" lon="9.3926983"><ele>679.0</ele><time>2026-04-11T13:08:01.001Z</time></trkpt><trkpt lat="44.8843867" lon="9.392695"><ele>679.0</ele><time>2026-04-11T13:08:03.002Z</time></trkpt><trkpt lat="44.8843983" lon="9.3928333"><ele>679.0</ele><time>2026-04-11T13:08:41.001Z</time></trkpt><trkpt lat="44.8843783" lon="9.3929767"><ele>679.0</ele><time>2026-04-11T13:08:43.001Z</time></trkpt><trkpt lat="44.8843217" lon="9.3931383"><ele>679.0</ele><time>2026-04-11T13:08:45.002Z</time></trkpt><trkpt lat="44.8842817" lon="9.3932217"><ele>680.0</ele><time>2026-04-11T13:08:46.001Z</time></trkpt><trkpt lat="44.884235" lon="9.3932933"><ele>681.0</ele><time>2026-04-11T13:08:47.001Z</time></trkpt><trkpt lat="44.884125" lon="9.3933683"><ele>682.0</ele><time>2026-04-11T13:08:49.001Z</time></trkpt><trkpt lat="44.8840167" lon="9.39344"><ele>683.0</ele><time>2026-04-11T13:08:51.002Z</time></trkpt><trkpt lat="44.88397" lon="9.3935033"><ele>684.0</ele><time>2026-04-11T13:08:52.002Z</time></trkpt><trkpt lat="44.883935" lon="9.3935883"><ele>685.0</ele><time>2026-04-11T13:08:53.001Z</time></trkpt><trkpt lat="44.8838967" lon="9.393675"><ele>685.0</ele><time>2026-04-11T13:08:54.002Z</time></trkpt><trkpt lat="44.8838533" lon="9.39374"><ele>685.0</ele><time>2026-04-11T13:08:55.002Z</time></trkpt><trkpt lat="44.8837783" lon="9.3938767"><ele>685.0</ele><time>2026-04-11T13:08:57.002Z</time></trkpt><trkpt lat="44.88377" lon="9.394055"><ele>685.0</ele><time>2026-04-11T13:08:59.001Z</time></trkpt><trkpt lat="44.8837617" lon="9.3941483"><ele>685.0</ele><time>2026-04-11T13:09:00.002Z</time></trkpt><trkpt lat="44.88372" lon="9.394295"><ele>685.2</ele><time>2026-04-11T13:09:02.001Z</time></trkpt><trkpt lat="44.8836617" lon="9.3944083"><ele>685.4</ele><time>2026-04-11T13:09:04.002Z</time></trkpt><trkpt lat="44.88361" lon="9.3945317"><ele>685.5999999999999</ele><time>2026-04-11T13:09:06.001Z</time></trkpt><trkpt lat="44.8835417" lon="9.3946767"><ele>685.8</ele><time>2026-04-11T13:09:08.002Z</time></trkpt><trkpt lat="44.8835233" lon="9.39477"><ele>686.0</ele><time>2026-04-11T13:09:09.003Z</time></trkpt><trkpt lat="44.883525" lon="9.3948733"><ele>686.0</ele><time>2026-04-11T13:09:10.002Z</time></trkpt><trkpt lat="44.883535" lon="9.3949867"><ele>686.0</ele><time>2026-04-11T13:09:11.002Z</time></trkpt><trkpt lat="44.88355" lon="9.3951"><ele>686.0</ele><time>2026-04-11T13:09:12.002Z</time></trkpt><trkpt lat="44.8835617" lon="9.395205"><ele>686.0</ele><time>2026-04-11T13:09:13.001Z</time></trkpt><trkpt lat="44.8835567" lon="9.3953017"><ele>686.0</ele><time>2026-04-11T13:09:14.001Z</time></trkpt><trkpt lat="44.88355" lon="9.3954017"><ele>686.0</ele><time>2026-04-11T13:09:15.003Z</time></trkpt><trkpt lat="44.8835483" lon="9.39552"><ele>685.6666666666666</ele><time>2026-04-11T13:09:16.002Z</time></trkpt><trkpt lat="44.883535" lon="9.3956467"><ele>685.3333333333333</ele><time>2026-04-11T13:09:17.002Z</time></trkpt><trkpt lat="44.88352" lon="9.3957567"><ele>685.0</ele><time>2026-04-11T13:09:18.001Z</time></trkpt><trkpt lat="44.88351" lon="9.3958567"><ele>684.6666666666666</ele><time>2026-04-11T13:09:19.002Z</time></trkpt><trkpt lat="44.8834983" lon="9.39596"><ele>684.3333333333334</ele><time>2026-04-11T13:09:20.002Z</time></trkpt><trkpt lat="44.8834817" lon="9.3960817"><ele>684.0</ele><time>2026-04-11T13:09:21.003Z</time></trkpt><trkpt lat="44.883465" lon="9.3962"><ele>684.0</ele><time>2026-04-11T13:09:22.002Z</time></trkpt><trkpt lat="44.88345" lon="9.3963183"><ele>684.0</ele><time>2026-04-11T13:09:23.003Z</time></trkpt><trkpt lat="44.8834267" lon="9.3964283"><ele>684.0</ele><time>2026-04-11T13:09:24.002Z</time></trkpt><trkpt lat="44.883405" lon="9.396585"><ele>684.0</ele><time>2026-04-11T13:09:26.001Z</time></trkpt><trkpt lat="44.88337" lon="9.3967133"><ele>684.0</ele><time>2026-04-11T13:09:28.002Z</time></trkpt><trkpt lat="44.883305" lon="9.3968517"><ele>688.0</ele><time>2026-04-11T13:09:30.001Z</time></trkpt><trkpt lat="44.883255" lon="9.3969267"><ele>692.0</ele><time>2026-04-11T13:09:31.002Z</time></trkpt><trkpt lat="44.8831967" lon="9.3969933"><ele>696.0</ele><time>2026-04-11T13:09:32.001Z</time></trkpt><trkpt lat="44.883125" lon="9.3970517"><ele>700.0</ele><time>2026-04-11T13:09:33.003Z</time></trkpt><trkpt lat="44.8830567" lon="9.3970983"><ele>704.0</ele><time>2026-04-11T13:09:34.001Z</time></trkpt><trkpt lat="44.8829883" lon="9.3971217"><ele>708.0</ele><time>2026-04-11T13:09:35.001Z</time></trkpt><trkpt lat="44.8829133" lon="9.3971283"><ele>708.0</ele><time>2026-04-11T13:09:36.002Z</time></trkpt><trkpt lat="44.8828333" lon="9.39714"><ele>708.0</ele><time>2026-04-11T13:09:37.002Z</time></trkpt><trkpt lat="44.8827567" lon="9.3971533"><ele>708.0</ele><time>2026-04-11T13:09:38.002Z</time></trkpt><trkpt lat="44.8826817" lon="9.3971583"><ele>708.0</ele><time>2026-04-11T13:09:39.002Z</time></trkpt><trkpt lat="44.8826117" lon="9.3971433"><ele>708.0</ele><time>2026-04-11T13:09:40.001Z</time></trkpt><trkpt lat="44.8825417" lon="9.3971283"><ele>708.0</ele><time>2026-04-11T13:09:41.002Z</time></trkpt><trkpt lat="44.8824767" lon="9.397125"><ele>708.0</ele><time>2026-04-11T13:09:42.002Z</time></trkpt><trkpt lat="44.8824" lon="9.39713"><ele>706.1666666666666</ele><time>2026-04-11T13:09:44.001Z</time></trkpt><trkpt lat="44.882335" lon="9.3971317"><ele>704.3333333333334</ele><time>2026-04-11T13:09:46.004Z</time></trkpt><trkpt lat="44.88222" lon="9.397095"><ele>702.5</ele><time>2026-04-11T13:09:48.003Z</time></trkpt><trkpt lat="44.8821483" lon="9.3970733"><ele>700.6666666666667</ele><time>2026-04-11T13:09:49.002Z</time></trkpt><trkpt lat="44.882075" lon="9.3970667"><ele>698.8333333333334</ele><time>2026-04-11T13:09:50.001Z</time></trkpt><trkpt lat="44.882" lon="9.3970683"><ele>697.0</ele><time>2026-04-11T13:09:51.001Z</time></trkpt><trkpt lat="44.8819217" lon="9.3970767"><ele>697.0</ele><time>2026-04-11T13:09:52.001Z</time></trkpt><trkpt lat="44.8818483" lon="9.3970917"><ele>697.0</ele><time>2026-04-11T13:09:53.001Z</time></trkpt><trkpt lat="44.8817767" lon="9.39711"><ele>697.0</ele><time>2026-04-11T13:09:54.002Z</time></trkpt><trkpt lat="44.881705" lon="9.3971233"><ele>697.0</ele><time>2026-04-11T13:09:55.001Z</time></trkpt><trkpt lat="44.88163" lon="9.397135"><ele>697.0</ele><time>2026-04-11T13:09:56.002Z</time></trkpt><trkpt lat="44.88156" lon="9.3971467"><ele>697.0</ele><time>2026-04-11T13:09:57.002Z</time></trkpt><trkpt lat="44.8814933" lon="9.3971517"><ele>697.0</ele><time>2026-04-11T13:09:58.001Z</time></trkpt><trkpt lat="44.8813783" lon="9.397185"><ele>694.5</ele><time>2026-04-11T13:10:00.001Z</time></trkpt><trkpt lat="44.881285" lon="9.3972633"><ele>692.0</ele><time>2026-04-11T13:10:02.002Z</time></trkpt><trkpt lat="44.8812017" lon="9.39737"><ele>689.5</ele><time>2026-04-11T13:10:04.001Z</time></trkpt><trkpt lat="44.8811667" lon="9.3974467"><ele>687.0</ele><time>2026-04-11T13:10:05.002Z</time></trkpt><trkpt lat="44.8811483" lon="9.39755"><ele>684.5</ele><time>2026-04-11T13:10:06.002Z</time></trkpt><trkpt lat="44.8811283" lon="9.3976417"><ele>682.0</ele><time>2026-04-11T13:10:07.002Z</time></trkpt><trkpt lat="44.8811017" lon="9.3977233"><ele>682.0</ele><time>2026-04-11T13:10:08.001Z</time></trkpt><trkpt lat="44.8810083" lon="9.3978383"><ele>682.0</ele><time>2026-04-11T13:10:10.002Z</time></trkpt><trkpt lat="44.880945" lon="9.39787"><ele>682.0</ele><time>2026-04-11T13:10:11.001Z</time></trkpt><trkpt lat="44.8808733" lon="9.3978717"><ele>682.0</ele><time>2026-04-11T13:10:12.001Z</time></trkpt><trkpt lat="44.8807983" lon="9.3978433"><ele>682.0</ele><time>2026-04-11T13:10:13.001Z</time></trkpt><trkpt lat="44.88073" lon="9.3978"><ele>682.0</ele><time>2026-04-11T13:10:14.001Z</time></trkpt><trkpt lat="44.880665" lon="9.3977517"><ele>682.2</ele><time>2026-04-11T13:10:15.001Z</time></trkpt><trkpt lat="44.8805967" lon="9.3977033"><ele>682.4000000000001</ele><time>2026-04-11T13:10:16.002Z</time></trkpt><trkpt lat="44.88053" lon="9.3976583"><ele>682.5999999999999</ele><time>2026-04-11T13:10:17.002Z</time></trkpt><trkpt lat="44.8804217" lon="9.397595"><ele>682.8</ele><time>2026-04-11T13:10:19Z</time></trkpt><trkpt lat="44.880315" lon="9.3975133"><ele>683.0</ele><time>2026-04-11T13:10:21.001Z</time></trkpt><trkpt lat="44.8802617" lon="9.3974567"><ele>683.0</ele><time>2026-04-11T13:10:22Z</time></trkpt><trkpt lat="44.8801517" lon="9.3974067"><ele>683.0</ele><time>2026-04-11T13:10:24Z</time></trkpt><trkpt lat="44.8800833" lon="9.397425"><ele>683.0</ele><time>2026-04-11T13:10:25.001Z</time></trkpt><trkpt lat="44.8800083" lon="9.397425"><ele>683.0</ele><time>2026-04-11T13:10:26.002Z</time></trkpt><trkpt lat="44.8799367" lon="9.39741"><ele>683.0</ele><time>2026-04-11T13:10:27.001Z</time></trkpt><trkpt lat="44.8798717" lon="9.3973783"><ele>683.0</ele><time>2026-04-11T13:10:28Z</time></trkpt><trkpt lat="44.8798117" lon="9.397335"><ele>680.0</ele><time>2026-04-11T13:10:29.001Z</time></trkpt><trkpt lat="44.8797533" lon="9.3972967"><ele>677.0</ele><time>2026-04-11T13:10:30.001Z</time></trkpt><trkpt lat="44.8796383" lon="9.3973117"><ele>674.0</ele><time>2026-04-11T13:10:32Z</time></trkpt><trkpt lat="44.8795317" lon="9.3973767"><ele>671.0</ele><time>2026-04-11T13:10:34.001Z</time></trkpt><trkpt lat="44.879425" lon="9.3973983"><ele>668.0</ele><time>2026-04-11T13:10:36Z</time></trkpt><trkpt lat="44.87931" lon="9.3973767"><ele>666.8333333333333</ele><time>2026-04-11T13:10:38Z</time></trkpt><trkpt lat="44.879245" lon="9.3973817"><ele>665.6666666666666</ele><time>2026-04-11T13:10:39.002Z</time></trkpt><trkpt lat="44.8791783" lon="9.3974"><ele>664.5</ele><time>2026-04-11T13:10:40Z</time></trkpt><trkpt lat="44.8791083" lon="9.3974367"><ele>663.3333333333334</ele><time>2026-04-11T13:10:41.001Z</time></trkpt><trkpt lat="44.8790433" lon="9.397495"><ele>662.1666666666667</ele><time>2026-04-11T13:10:42.001Z</time></trkpt><trkpt lat="44.8789733" lon="9.3975733"><ele>661.0</ele><time>2026-04-11T13:10:43Z</time></trkpt><trkpt lat="44.8789067" lon="9.3976583"><ele>661.0</ele><time>2026-04-11T13:10:44Z</time></trkpt><trkpt lat="44.8788467" lon="9.3977383"><ele>661.0</ele><time>2026-04-11T13:10:45.001Z</time></trkpt><trkpt lat="44.8787933" lon="9.3978183"><ele>661.0</ele><time>2026-04-11T13:10:46Z</time></trkpt><trkpt lat="44.8787467" lon="9.3978983"><ele>661.0</ele><time>2026-04-11T13:10:47Z</time></trkpt><trkpt lat="44.8787" lon="9.3979833"><ele>661.0</ele><time>2026-04-11T13:10:48.002Z</time></trkpt><trkpt lat="44.8786467" lon="9.3980817"><ele>661.0</ele><time>2026-04-11T13:10:49Z</time></trkpt><trkpt lat="44.8785867" lon="9.398185"><ele>660.1666666666667</ele><time>2026-04-11T13:10:50.002Z</time></trkpt><trkpt lat="44.878525" lon="9.3982883"><ele>659.3333333333334</ele><time>2026-04-11T13:10:51.001Z</time></trkpt><trkpt lat="44.8784717" lon="9.3983917"><ele>658.5</ele><time>2026-04-11T13:10:52Z</time></trkpt><trkpt lat="44.878425" lon="9.3984967"><ele>657.6666666666666</ele><time>2026-04-11T13:10:53.001Z</time></trkpt><trkpt lat="44.8783833" lon="9.3986017"><ele>656.8333333333333</ele><time>2026-04-11T13:10:54.001Z</time></trkpt><trkpt lat="44.8783317" lon="9.3987033"><ele>656.0</ele><time>2026-04-11T13:10:55Z</time></trkpt><trkpt lat="44.8782767" lon="9.39879"><ele>655.0</ele><time>2026-04-11T13:10:56.001Z</time></trkpt><trkpt lat="44.87823" lon="9.39886"><ele>654.0</ele><time>2026-04-11T13:10:57.001Z</time></trkpt><trkpt lat="44.8781733" lon="9.3989917"><ele>653.0</ele><time>2026-04-11T13:10:59Z</time></trkpt><trkpt lat="44.8781833" lon="9.3990867"><ele>652.0</ele><time>2026-04-11T13:11:03.001Z</time></trkpt><trkpt lat="44.8782383" lon="9.3991517"><ele>651.0</ele><time>2026-04-11T13:11:05Z</time></trkpt><trkpt lat="44.8783033" lon="9.39929"><ele>650.0</ele><time>2026-04-11T13:11:07Z</time></trkpt><trkpt lat="44.8783167" lon="9.3993833"><ele>650.0</ele><time>2026-04-11T13:11:08.002Z</time></trkpt><trkpt lat="44.8783167" lon="9.3994767"><ele>650.0</ele><time>2026-04-11T13:11:09.001Z</time></trkpt><trkpt lat="44.8782617" lon="9.39963"><ele>650.0</ele><time>2026-04-11T13:11:11Z</time></trkpt><trkpt lat="44.878225" lon="9.3997117"><ele>650.0</ele><time>2026-04-11T13:11:12.001Z</time></trkpt><trkpt lat="44.8781867" lon="9.3998017"><ele>650.0</ele><time>2026-04-11T13:11:13Z</time></trkpt><trkpt lat="44.8781533" lon="9.3998933"><ele>650.0</ele><time>2026-04-11T13:11:14.001Z</time></trkpt><trkpt lat="44.8781233" lon="9.3999833"><ele>649.0</ele><time>2026-04-11T13:11:15.002Z</time></trkpt><trkpt lat="44.8780967" lon="9.400065"><ele>648.0</ele><time>2026-04-11T13:11:16.001Z</time></trkpt><trkpt lat="44.8780417" lon="9.4002217"><ele>647.0</ele><time>2026-04-11T13:11:18.001Z</time></trkpt><trkpt lat="44.8780083" lon="9.400305"><ele>646.0</ele><time>2026-04-11T13:11:19.001Z</time></trkpt><trkpt lat="44.87796" lon="9.4004567"><ele>645.0</ele><time>2026-04-11T13:11:21.001Z</time></trkpt><trkpt lat="44.8779267" lon="9.4006183"><ele>644.3333333333334</ele><time>2026-04-11T13:11:23.001Z</time></trkpt><trkpt lat="44.8779333" lon="9.4007733"><ele>643.6666666666666</ele><time>2026-04-11T13:11:25.001Z</time></trkpt><trkpt lat="44.8779633" lon="9.4008883"><ele>643.0</ele><time>2026-04-11T13:11:27.002Z</time></trkpt><trkpt lat="44.8780033" lon="9.400985"><ele>642.3333333333333</ele><time>2026-04-11T13:11:30.001Z</time></trkpt><trkpt lat="44.8780333" lon="9.40108"><ele>641.6666666666666</ele><time>2026-04-11T13:11:40Z</time></trkpt><trkpt lat="44.8780833" lon="9.4011783"><ele>641.0</ele><time>2026-04-11T13:11:43Z</time></trkpt><trkpt lat="44.878115" lon="9.401265"><ele>639.4</ele><time>2026-04-11T13:11:45.001Z</time></trkpt><trkpt lat="44.8781617" lon="9.401385"><ele>637.8</ele><time>2026-04-11T13:11:47Z</time></trkpt><trkpt lat="44.8782183" lon="9.4015067"><ele>636.1999999999999</ele><time>2026-04-11T13:11:49.001Z</time></trkpt><trkpt lat="44.87827" lon="9.4016017"><ele>634.5999999999999</ele><time>2026-04-11T13:11:51.002Z</time></trkpt><trkpt lat="44.8783117" lon="9.4017017"><ele>633.0</ele><time>2026-04-11T13:11:53.002Z</time></trkpt><trkpt lat="44.8783417" lon="9.4018117"><ele>633.0</ele><time>2026-04-11T13:11:55.002Z</time></trkpt><trkpt lat="44.8783833" lon="9.4019183"><ele>633.0</ele><time>2026-04-11T13:11:57.001Z</time></trkpt><trkpt lat="44.8784467" lon="9.4020233"><ele>633.0</ele><time>2026-04-11T13:11:59.001Z</time></trkpt><trkpt lat="44.8785283" lon="9.4021483"><ele>633.0</ele><time>2026-04-11T13:12:01.001Z</time></trkpt><trkpt lat="44.8785917" lon="9.402285"><ele>633.0</ele><time>2026-04-11T13:12:03.001Z</time></trkpt><trkpt lat="44.8786433" lon="9.402405"><ele>629.6</ele><time>2026-04-11T13:12:05.002Z</time></trkpt><trkpt lat="44.8786933" lon="9.40252"><ele>626.1999999999999</ele><time>2026-04-11T13:12:07.001Z</time></trkpt><trkpt lat="44.8787383" lon="9.4026117"><ele>622.8</ele><time>2026-04-11T13:12:09.002Z</time></trkpt><trkpt lat="44.8787883" lon="9.40271"><ele>619.4</ele><time>2026-04-11T13:12:11.001Z</time></trkpt><trkpt lat="44.8788667" lon="9.4028267"><ele>616.0</ele><time>2026-04-11T13:12:13.001Z</time></trkpt><trkpt lat="44.8789083" lon="9.4029417"><ele>614.5</ele><time>2026-04-11T13:12:15.001Z</time></trkpt><trkpt lat="44.878865" lon="9.4030433"><ele>613.0</ele><time>2026-04-11T13:12:18.002Z</time></trkpt><trkpt lat="44.8788383" lon="9.4031367"><ele>611.5</ele><time>2026-04-11T13:20:18.999Z</time></trkpt><trkpt lat="44.8787633" lon="9.40321"><ele>610.0</ele><time>2026-04-11T13:20:21.002Z</time></trkpt><trkpt lat="44.8786867" lon="9.403235"><ele>608.5</ele><time>2026-04-11T13:20:23.001Z</time></trkpt><trkpt lat="44.87861" lon="9.4032467"><ele>607.0</ele><time>2026-04-11T13:20:25.001Z</time></trkpt><trkpt lat="44.8785133" lon="9.403275"><ele>607.0</ele><time>2026-04-11T13:20:27.001Z</time></trkpt><trkpt lat="44.87845" lon="9.4032917"><ele>607.0</ele><time>2026-04-11T13:20:28.002Z</time></trkpt><trkpt lat="44.8783817" lon="9.4033067"><ele>607.0</ele><time>2026-04-11T13:20:29.001Z</time></trkpt><trkpt lat="44.878315" lon="9.40332"><ele>607.0</ele><time>2026-04-11T13:20:30.001Z</time></trkpt><trkpt lat="44.8782517" lon="9.4033383"><ele>607.0</ele><time>2026-04-11T13:20:31Z</time></trkpt><trkpt lat="44.878135" lon="9.4033967"><ele>607.0</ele><time>2026-04-11T13:20:33.001Z</time></trkpt><trkpt lat="44.878025" lon="9.4034433"><ele>610.5</ele><time>2026-04-11T13:20:35.001Z</time></trkpt><trkpt lat="44.8779067" lon="9.4034517"><ele>614.0</ele><time>2026-04-11T13:20:37.001Z</time></trkpt><trkpt lat="44.8778017" lon="9.4034083"><ele>617.5</ele><time>2026-04-11T13:20:39.001Z</time></trkpt><trkpt lat="44.8776917" lon="9.4034083"><ele>621.0</ele><time>2026-04-11T13:20:41.001Z</time></trkpt><trkpt lat="44.87759" lon="9.4035"><ele>624.4</ele><time>2026-04-11T13:20:43.001Z</time></trkpt><trkpt lat="44.8774883" lon="9.4035933"><ele>627.8</ele><time>2026-04-11T13:20:45.001Z</time></trkpt><trkpt lat="44.8774267" lon="9.4036367"><ele>631.1999999999999</ele><time>2026-04-11T13:20:46Z</time></trkpt><trkpt lat="44.8773583" lon="9.4036667"><ele>634.6</ele><time>2026-04-11T13:20:47.001Z</time></trkpt><trkpt lat="44.877295" lon="9.40369"><ele>638.0</ele><time>2026-04-11T13:20:48Z</time></trkpt><trkpt lat="44.87717" lon="9.4037167"><ele>638.0</ele><time>2026-04-11T13:20:50.001Z</time></trkpt><trkpt lat="44.8771017" lon="9.4037417"><ele>638.0</ele><time>2026-04-11T13:20:51.001Z</time></trkpt><trkpt lat="44.877035" lon="9.4037767"><ele>638.0</ele><time>2026-04-11T13:20:52Z</time></trkpt><trkpt lat="44.8769783" lon="9.403825"><ele>638.0</ele><time>2026-04-11T13:20:53.001Z</time></trkpt><trkpt lat="44.876885" lon="9.40393"><ele>638.0</ele><time>2026-04-11T13:20:55Z</time></trkpt><trkpt lat="44.8768083" lon="9.4040233"><ele>638.0</ele><time>2026-04-11T13:20:57.002Z</time></trkpt><trkpt lat="44.8767233" lon="9.4041333"><ele>639.5999999999999</ele><time>2026-04-11T13:20:59.002Z</time></trkpt><trkpt lat="44.876665" lon="9.40418"><ele>641.1999999999999</ele><time>2026-04-11T13:21:00.002Z</time></trkpt><trkpt lat="44.876605" lon="9.40422"><ele>642.8</ele><time>2026-04-11T13:21:01.001Z</time></trkpt><trkpt lat="44.8764867" lon="9.4042467"><ele>644.4</ele><time>2026-04-11T13:21:03.001Z</time></trkpt><trkpt lat="44.8763633" lon="9.404205"><ele>646.0</ele><time>2026-04-11T13:21:05.001Z</time></trkpt><trkpt lat="44.8762967" lon="9.4041767"><ele>646.0</ele><time>2026-04-11T13:21:06Z</time></trkpt><trkpt lat="44.8762317" lon="9.404155"><ele>646.0</ele><time>2026-04-11T13:21:07Z</time></trkpt><trkpt lat="44.8761183" lon="9.4041267"><ele>646.0</ele><time>2026-04-11T13:21:09.001Z</time></trkpt><trkpt lat="44.87605" lon="9.4041133"><ele>646.0</ele><time>2026-04-11T13:21:11.001Z</time></trkpt><trkpt lat="44.8759817" lon="9.4041017"><ele>646.0</ele><time>2026-04-11T13:21:15.003Z</time></trkpt><trkpt lat="44.8759083" lon="9.4041283"><ele>646.0</ele><time>2026-04-11T13:21:26.001Z</time></trkpt><trkpt lat="44.87584" lon="9.4041567"><ele>645.1666666666667</ele><time>2026-04-11T13:21:29.001Z</time></trkpt><trkpt lat="44.87575" lon="9.4041833"><ele>644.3333333333334</ele><time>2026-04-11T13:21:31.001Z</time></trkpt><trkpt lat="44.8756867" lon="9.4041967"><ele>643.5</ele><time>2026-04-11T13:21:32Z</time></trkpt><trkpt lat="44.8756167" lon="9.4042033"><ele>642.6666666666666</ele><time>2026-04-11T13:21:33.003Z</time></trkpt><trkpt lat="44.875545" lon="9.4042067"><ele>641.8333333333333</ele><time>2026-04-11T13:21:34.001Z</time></trkpt><trkpt lat="44.8754267" lon="9.4042067"><ele>641.0</ele><time>2026-04-11T13:21:36.001Z</time></trkpt><trkpt lat="44.875325" lon="9.40419"><ele>641.0</ele><time>2026-04-11T13:21:38.001Z</time></trkpt><trkpt lat="44.8752483" lon="9.4041733"><ele>641.0</ele><time>2026-04-11T13:21:40.001Z</time></trkpt><trkpt lat="44.8751617" lon="9.40414"><ele>641.0</ele><time>2026-04-11T13:21:43.001Z</time></trkpt><trkpt lat="44.8750833" lon="9.4041083"><ele>641.0</ele><time>2026-04-11T13:21:45.001Z</time></trkpt><trkpt lat="44.8749933" lon="9.4041183"><ele>641.0</ele><time>2026-04-11T13:21:47.001Z</time></trkpt><trkpt lat="44.8749083" lon="9.4041683"><ele>641.0</ele><time>2026-04-11T13:21:49Z</time></trkpt><trkpt lat="44.8748283" lon="9.40423"><ele>638.4</ele><time>2026-04-11T13:21:51.002Z</time></trkpt><trkpt lat="44.8747617" lon="9.4043267"><ele>635.8</ele><time>2026-04-11T13:21:53.001Z</time></trkpt><trkpt lat="44.8747167" lon="9.404455"><ele>633.1999999999999</ele><time>2026-04-11T13:21:55.001Z</time></trkpt><trkpt lat="44.87466" lon="9.4045933"><ele>630.5999999999999</ele><time>2026-04-11T13:21:57.002Z</time></trkpt><trkpt lat="44.8745717" lon="9.4046867"><ele>628.0</ele><time>2026-04-11T13:21:59Z</time></trkpt><trkpt lat="44.8744933" lon="9.4047033"><ele>628.0</ele><time>2026-04-11T13:22:01.001Z</time></trkpt><trkpt lat="44.8744333" lon="9.4046433"><ele>628.0</ele><time>2026-04-11T13:22:03.001Z</time></trkpt><trkpt lat="44.8744217" lon="9.40453"><ele>628.0</ele><time>2026-04-11T13:22:05Z</time></trkpt><trkpt lat="44.8744117" lon="9.40441"><ele>628.0</ele><time>2026-04-11T13:22:07.002Z</time></trkpt><trkpt lat="44.87436" lon="9.404315"><ele>628.0</ele><time>2026-04-11T13:22:09.001Z</time></trkpt><trkpt lat="44.8742683" lon="9.4042483"><ele>628.0</ele><time>2026-04-11T13:22:11.002Z</time></trkpt><trkpt lat="44.8741567" lon="9.4041833"><ele>625.2857142857142</ele><time>2026-04-11T13:22:13.001Z</time></trkpt><trkpt lat="44.8740983" lon="9.4041367"><ele>622.5714285714286</ele><time>2026-04-11T13:22:14.002Z</time></trkpt><trkpt lat="44.8740483" lon="9.4040767"><ele>619.8571428571429</ele><time>2026-04-11T13:22:15.002Z</time></trkpt><trkpt lat="44.874005" lon="9.4040033"><ele>617.1428571428571</ele><time>2026-04-11T13:22:16.001Z</time></trkpt><trkpt lat="44.8739633" lon="9.403925"><ele>614.4285714285714</ele><time>2026-04-11T13:22:17.002Z</time></trkpt><trkpt lat="44.8739233" lon="9.4038467"><ele>611.7142857142857</ele><time>2026-04-11T13:22:18.001Z</time></trkpt><trkpt lat="44.873885" lon="9.40377"><ele>609.0</ele><time>2026-04-11T13:22:19.002Z</time></trkpt><trkpt lat="44.8738233" lon="9.4036283"><ele>609.0</ele><time>2026-04-11T13:22:21.001Z</time></trkpt><trkpt lat="44.8737467" lon="9.4035183"><ele>609.0</ele><time>2026-04-11T13:22:23.001Z</time></trkpt><trkpt lat="44.8736267" lon="9.4035067"><ele>609.0</ele><time>2026-04-11T13:22:25.001Z</time></trkpt><trkpt lat="44.873545" lon="9.4035417"><ele>609.0</ele><time>2026-04-11T13:22:26.001Z</time></trkpt><trkpt lat="44.8734583" lon="9.4035767"><ele>609.0</ele><time>2026-04-11T13:22:27.002Z</time></trkpt><trkpt lat="44.873375" lon="9.4036183"><ele>605.5</ele><time>2026-04-11T13:22:28.001Z</time></trkpt><trkpt lat="44.8732933" lon="9.40366"><ele>602.0</ele><time>2026-04-11T13:22:29.001Z</time></trkpt><trkpt lat="44.8732133" lon="9.4037017"><ele>598.5</ele><time>2026-04-11T13:22:30.002Z</time></trkpt><trkpt lat="44.8731417" lon="9.4037383"><ele>595.0</ele><time>2026-04-11T13:22:31.002Z</time></trkpt><trkpt lat="44.8730767" lon="9.4037717"><ele>591.5</ele><time>2026-04-11T13:22:32.001Z</time></trkpt><trkpt lat="44.873015" lon="9.403795"><ele>588.0</ele><time>2026-04-11T13:22:33.001Z</time></trkpt><trkpt lat="44.8729167" lon="9.4038467"><ele>587.5</ele><time>2026-04-11T13:22:35.001Z</time></trkpt><trkpt lat="44.8728883" lon="9.403955"><ele>587.0</ele><time>2026-04-11T13:22:37.002Z</time></trkpt><trkpt lat="44.8729017" lon="9.404045"><ele>586.5</ele><time>2026-04-11T13:22:38.001Z</time></trkpt><trkpt lat="44.872925" lon="9.4041467"><ele>586.0</ele><time>2026-04-11T13:22:39.002Z</time></trkpt><trkpt lat="44.872945" lon="9.4042517"><ele>585.5</ele><time>2026-04-11T13:22:40Z</time></trkpt><trkpt lat="44.8729517" lon="9.4043633"><ele>585.0</ele><time>2026-04-11T13:22:41.001Z</time></trkpt><trkpt lat="44.8729483" lon="9.4044783"><ele>585.0</ele><time>2026-04-11T13:22:42.001Z</time></trkpt><trkpt lat="44.8729333" lon="9.404595"><ele>585.0</ele><time>2026-04-11T13:22:43.002Z</time></trkpt><trkpt lat="44.87291" lon="9.4047117"><ele>585.0</ele><time>2026-04-11T13:22:44.001Z</time></trkpt><trkpt lat="44.87289" lon="9.40483"><ele>585.0</ele><time>2026-04-11T13:22:45.001Z</time></trkpt><trkpt lat="44.8728767" lon="9.4049433"><ele>585.0</ele><time>2026-04-11T13:22:46.001Z</time></trkpt><trkpt lat="44.8728783" lon="9.4050533"><ele>585.0</ele><time>2026-04-11T13:22:47.001Z</time></trkpt><trkpt lat="44.87289" lon="9.40517"><ele>585.1666666666666</ele><time>2026-04-11T13:22:48.004Z</time></trkpt><trkpt lat="44.8729017" lon="9.4052933"><ele>585.3333333333334</ele><time>2026-04-11T13:22:49.001Z</time></trkpt><trkpt lat="44.872915" lon="9.4054183"><ele>585.5</ele><time>2026-04-11T13:22:50.001Z</time></trkpt><trkpt lat="44.8729333" lon="9.4055367"><ele>585.6666666666667</ele><time>2026-04-11T13:22:51.002Z</time></trkpt><trkpt lat="44.87297" lon="9.405645"><ele>585.8333333333334</ele><time>2026-04-11T13:22:52.003Z</time></trkpt><trkpt lat="44.873015" lon="9.405745"><ele>586.0</ele><time>2026-04-11T13:22:53.002Z</time></trkpt><trkpt lat="44.8730683" lon="9.4058367"><ele>586.5</ele><time>2026-04-11T13:22:54.002Z</time></trkpt><trkpt lat="44.8731217" lon="9.405935"><ele>587.0</ele><time>2026-04-11T13:22:55.002Z</time></trkpt><trkpt lat="44.873175" lon="9.406035"><ele>587.5</ele><time>2026-04-11T13:22:56.001Z</time></trkpt><trkpt lat="44.87323" lon="9.4061283"><ele>588.0</ele><time>2026-04-11T13:22:57.001Z</time></trkpt><trkpt lat="44.87329" lon="9.406215"><ele>588.5</ele><time>2026-04-11T13:22:58.002Z</time></trkpt><trkpt lat="44.87336" lon="9.406295"><ele>589.0</ele><time>2026-04-11T13:22:59.001Z</time></trkpt><trkpt lat="44.8734433" lon="9.4063583"><ele>589.0</ele><time>2026-04-11T13:23:00.001Z</time></trkpt><trkpt lat="44.8735367" lon="9.4064067"><ele>589.0</ele><time>2026-04-11T13:23:01.002Z</time></trkpt><trkpt lat="44.87363" lon="9.4064483"><ele>589.0</ele><time>2026-04-11T13:23:02.001Z</time></trkpt><trkpt lat="44.8737167" lon="9.4064917"><ele>589.0</ele><time>2026-04-11T13:23:03.002Z</time></trkpt><trkpt lat="44.87379" lon="9.4065433"><ele>589.0</ele><time>2026-04-11T13:23:04.003Z</time></trkpt><trkpt lat="44.8738433" lon="9.4066167"><ele>589.0</ele><time>2026-04-11T13:23:05.001Z</time></trkpt><trkpt lat="44.87388" lon="9.406705"><ele>589.0</ele><time>2026-04-11T13:23:06.002Z</time></trkpt><trkpt lat="44.87391" lon="9.4068117"><ele>589.0</ele><time>2026-04-11T13:23:07.001Z</time></trkpt><trkpt lat="44.873935" lon="9.4069367"><ele>589.0</ele><time>2026-04-11T13:23:08.001Z</time></trkpt><trkpt lat="44.8739617" lon="9.4070717"><ele>589.0</ele><time>2026-04-11T13:23:09.002Z</time></trkpt><trkpt lat="44.87399" lon="9.4072067"><ele>589.0</ele><time>2026-04-11T13:23:10.001Z</time></trkpt><trkpt lat="44.87403" lon="9.4073417"><ele>588.6</ele><time>2026-04-11T13:23:11.001Z</time></trkpt><trkpt lat="44.87407" lon="9.407475"><ele>588.2</ele><time>2026-04-11T13:23:12.001Z</time></trkpt><trkpt lat="44.8741117" lon="9.4076033"><ele>587.8000000000001</ele><time>2026-04-11T13:23:13.001Z</time></trkpt><trkpt lat="44.8741483" lon="9.4077267"><ele>587.4</ele><time>2026-04-11T13:23:14Z</time></trkpt><trkpt lat="44.87419" lon="9.4078467"><ele>587.0</ele><time>2026-04-11T13:23:15.001Z</time></trkpt><trkpt lat="44.87423" lon="9.407965"><ele>587.3333333333333</ele><time>2026-04-11T13:23:16.001Z</time></trkpt><trkpt lat="44.8742683" lon="9.408085"><ele>587.6666666666666</ele><time>2026-04-11T13:23:17.001Z</time></trkpt><trkpt lat="44.874305" lon="9.4082017"><ele>588.0</ele><time>2026-04-11T13:23:18.002Z</time></trkpt><trkpt lat="44.8743383" lon="9.4083217"><ele>588.3333333333334</ele><time>2026-04-11T13:23:19.002Z</time></trkpt><trkpt lat="44.87436" lon="9.4084417"><ele>588.6666666666667</ele><time>2026-04-11T13:23:20.002Z</time></trkpt><trkpt lat="44.8743667" lon="9.4085583"><ele>589.0</ele><time>2026-04-11T13:23:21.003Z</time></trkpt><trkpt lat="44.8743567" lon="9.4086717"><ele>590.8</ele><time>2026-04-11T13:23:22.001Z</time></trkpt><trkpt lat="44.8743367" lon="9.40879"><ele>592.5999999999999</ele><time>2026-04-11T13:23:23.002Z</time></trkpt><trkpt lat="44.87431" lon="9.4089117"><ele>594.4</ele><time>2026-04-11T13:23:24.003Z</time></trkpt><trkpt lat="44.87428" lon="9.4090383"><ele>596.1999999999999</ele><time>2026-04-11T13:23:25.002Z</time></trkpt><trkpt lat="44.8742517" lon="9.4091717"><ele>598.0</ele><time>2026-04-11T13:23:26.002Z</time></trkpt><trkpt lat="44.8742267" lon="9.4093083"><ele>598.0</ele><time>2026-04-11T13:23:27.001Z</time></trkpt><trkpt lat="44.8741983" lon="9.4094433"><ele>598.0</ele><time>2026-04-11T13:23:28.001Z</time></trkpt><trkpt lat="44.8741683" lon="9.4095683"><ele>598.0</ele><time>2026-04-11T13:23:29.001Z</time></trkpt><trkpt lat="44.8741383" lon="9.409685"><ele>598.0</ele><time>2026-04-11T13:23:30.002Z</time></trkpt><trkpt lat="44.8741133" lon="9.4097983"><ele>598.0</ele><time>2026-04-11T13:23:31.001Z</time></trkpt><trkpt lat="44.8740933" lon="9.4099017"><ele>598.0</ele><time>2026-04-11T13:23:32.001Z</time></trkpt><trkpt lat="44.874085" lon="9.4099933"><ele>599.3333333333334</ele><time>2026-04-11T13:23:33.001Z</time></trkpt><trkpt lat="44.8741" lon="9.410145"><ele>600.6666666666667</ele><time>2026-04-11T13:23:35.001Z</time></trkpt><trkpt lat="44.874135" lon="9.4103117"><ele>602.0</ele><time>2026-04-11T13:23:37.001Z</time></trkpt><trkpt lat="44.8741483" lon="9.4104083"><ele>603.3333333333334</ele><time>2026-04-11T13:23:38.003Z</time></trkpt><trkpt lat="44.874155" lon="9.4105017"><ele>604.6666666666666</ele><time>2026-04-11T13:23:39.002Z</time></trkpt><trkpt lat="44.8741617" lon="9.4105967"><ele>606.0</ele><time>2026-04-11T13:23:40.001Z</time></trkpt><trkpt lat="44.8741733" lon="9.41069"><ele>606.0</ele><time>2026-04-11T13:23:41.001Z</time></trkpt><trkpt lat="44.8741967" lon="9.410785"><ele>606.0</ele><time>2026-04-11T13:23:42.001Z</time></trkpt><trkpt lat="44.874225" lon="9.4108833"><ele>606.0</ele><time>2026-04-11T13:23:43.001Z</time></trkpt><trkpt lat="44.874265" lon="9.41098"><ele>606.0</ele><time>2026-04-11T13:23:44.001Z</time></trkpt><trkpt lat="44.87432" lon="9.4110683"><ele>606.0</ele><time>2026-04-11T13:23:45.002Z</time></trkpt><trkpt lat="44.8743833" lon="9.411145"><ele>606.0</ele><time>2026-04-11T13:23:46.002Z</time></trkpt><trkpt lat="44.8744367" lon="9.4112117"><ele>608.7142857142858</ele><time>2026-04-11T13:23:47.003Z</time></trkpt><trkpt lat="44.87448" lon="9.41128"><ele>611.4285714285714</ele><time>2026-04-11T13:23:48.002Z</time></trkpt><trkpt lat="44.8745167" lon="9.4113567"><ele>614.1428571428571</ele><time>2026-04-11T13:23:49.001Z</time></trkpt><trkpt lat="44.874545" lon="9.4114467"><ele>616.8571428571429</ele><time>2026-04-11T13:23:50.003Z</time></trkpt><trkpt lat="44.8745617" lon="9.4115433"><ele>619.5714285714286</ele><time>2026-04-11T13:23:51.004Z</time></trkpt><trkpt lat="44.874565" lon="9.41164"><ele>622.2857142857143</ele><time>2026-04-11T13:23:52.003Z</time></trkpt><trkpt lat="44.87455" lon="9.4117417"><ele>625.0</ele><time>2026-04-11T13:23:53.004Z</time></trkpt><trkpt lat="44.8745233" lon="9.411835"><ele>625.0000000000001</ele><time>2026-04-11T13:23:54.002Z</time></trkpt><trkpt lat="44.8744983" lon="9.4119383"><ele>625.0</ele><time>2026-04-11T13:23:55.001Z</time></trkpt><trkpt lat="44.8744967" lon="9.41204"><ele>625.0</ele><time>2026-04-11T13:23:56.001Z</time></trkpt><trkpt lat="44.8745083" lon="9.412135"><ele>625.0</ele><time>2026-04-11T13:23:57.002Z</time></trkpt><trkpt lat="44.8745383" lon="9.4122367"><ele>625.0</ele><time>2026-04-11T13:23:58.003Z</time></trkpt><trkpt lat="44.8745733" lon="9.412335"><ele>625.0000000000001</ele><time>2026-04-11T13:23:59.001Z</time></trkpt><trkpt lat="44.8745883" lon="9.4124283"><ele>625.0</ele><time>2026-04-11T13:24:00.001Z</time></trkpt><trkpt lat="44.874595" lon="9.4125233"><ele>625.0</ele><time>2026-04-11T13:24:01.001Z</time></trkpt><trkpt lat="44.8745383" lon="9.41269"><ele>625.0</ele><time>2026-04-11T13:24:03.002Z</time></trkpt><trkpt lat="44.87449" lon="9.4127867"><ele>625.0</ele><time>2026-04-11T13:24:04.002Z</time></trkpt><trkpt lat="44.87445" lon="9.4128983"><ele>625.0</ele><time>2026-04-11T13:24:05.001Z</time></trkpt><trkpt lat="44.8744233" lon="9.4130117"><ele>625.0</ele><time>2026-04-11T13:24:06.002Z</time></trkpt><trkpt lat="44.8744033" lon="9.4131183"><ele>625.8333333333334</ele><time>2026-04-11T13:24:07.001Z</time></trkpt><trkpt lat="44.8743833" lon="9.4132267"><ele>626.6666666666667</ele><time>2026-04-11T13:24:08.002Z</time></trkpt><trkpt lat="44.8743617" lon="9.41334"><ele>627.5</ele><time>2026-04-11T13:24:09.003Z</time></trkpt><trkpt lat="44.87434" lon="9.413455"><ele>628.3333333333334</ele><time>2026-04-11T13:24:10.001Z</time></trkpt><trkpt lat="44.87432" lon="9.413575"><ele>629.1666666666666</ele><time>2026-04-11T13:24:11.001Z</time></trkpt><trkpt lat="44.8743067" lon="9.4137"><ele>630.0</ele><time>2026-04-11T13:24:12.001Z</time></trkpt><trkpt lat="44.8743033" lon="9.4138317"><ele>630.5</ele><time>2026-04-11T13:24:13.001Z</time></trkpt><trkpt lat="44.87431" lon="9.4139667"><ele>631.0</ele><time>2026-04-11T13:24:14.002Z</time></trkpt><trkpt lat="44.874325" lon="9.4140967"><ele>631.5</ele><time>2026-04-11T13:24:15.002Z</time></trkpt><trkpt lat="44.8743483" lon="9.4142167"><ele>632.0</ele><time>2026-04-11T13:24:16.001Z</time></trkpt><trkpt lat="44.8743683" lon="9.4143317"><ele>632.5</ele><time>2026-04-11T13:24:17.001Z</time></trkpt><trkpt lat="44.8743833" lon="9.414445"><ele>633.0</ele><time>2026-04-11T13:24:18.002Z</time></trkpt><trkpt lat="44.8744017" lon="9.4145583"><ele>631.5</ele><time>2026-04-11T13:24:19.003Z</time></trkpt><trkpt lat="44.8744217" lon="9.414655"><ele>630.0</ele><time>2026-04-11T13:24:20.002Z</time></trkpt><trkpt lat="44.8744383" lon="9.4147417"><ele>628.5</ele><time>2026-04-11T13:24:21.002Z</time></trkpt><trkpt lat="44.8744683" lon="9.4148983"><ele>627.0</ele><time>2026-04-11T13:24:23.003Z</time></trkpt><trkpt lat="44.8744883" lon="9.4150717"><ele>625.5</ele><time>2026-04-11T13:24:25.001Z</time></trkpt><trkpt lat="44.8744817" lon="9.4151633"><ele>624.0</ele><time>2026-04-11T13:24:26.002Z</time></trkpt><trkpt lat="44.8744633" lon="9.4152533"><ele>624.0</ele><time>2026-04-11T13:24:27.001Z</time></trkpt><trkpt lat="44.8744317" lon="9.4153417"><ele>624.0</ele><time>2026-04-11T13:24:28.001Z</time></trkpt><trkpt lat="44.8744" lon="9.4154317"><ele>624.0</ele><time>2026-04-11T13:24:29.003Z</time></trkpt><trkpt lat="44.8743367" lon="9.4155767"><ele>624.0</ele><time>2026-04-11T13:24:31.001Z</time></trkpt><trkpt lat="44.8742583" lon="9.4156883"><ele>624.0</ele><time>2026-04-11T13:24:33.003Z</time></trkpt><trkpt lat="44.874155" lon="9.415785"><ele>623.6666666666666</ele><time>2026-04-11T13:24:35.001Z</time></trkpt><trkpt lat="44.87409" lon="9.4158317"><ele>623.3333333333334</ele><time>2026-04-11T13:24:36.001Z</time></trkpt><trkpt lat="44.87402" lon="9.4158867"><ele>623.0</ele><time>2026-04-11T13:24:37.001Z</time></trkpt><trkpt lat="44.873955" lon="9.4159517"><ele>622.6666666666667</ele><time>2026-04-11T13:24:38.001Z</time></trkpt><trkpt lat="44.8738883" lon="9.4160217"><ele>622.3333333333334</ele><time>2026-04-11T13:24:39.002Z</time></trkpt><trkpt lat="44.8738283" lon="9.41609"><ele>622.0</ele><time>2026-04-11T13:24:40.002Z</time></trkpt><trkpt lat="44.8737733" lon="9.4161517"><ele>622.0</ele><time>2026-04-11T13:24:41.002Z</time></trkpt><trkpt lat="44.8737283" lon="9.4162167"><ele>622.0</ele><time>2026-04-11T13:24:42.001Z</time></trkpt><trkpt lat="44.8736833" lon="9.4162933"><ele>622.0</ele><time>2026-04-11T13:24:43.002Z</time></trkpt><trkpt lat="44.8736417" lon="9.4163833"><ele>622.0</ele><time>2026-04-11T13:24:44.002Z</time></trkpt><trkpt lat="44.873615" lon="9.416485"><ele>622.0</ele><time>2026-04-11T13:24:45.001Z</time></trkpt><trkpt lat="44.8736" lon="9.4165983"><ele>622.0</ele><time>2026-04-11T13:24:46.001Z</time></trkpt><trkpt lat="44.8735883" lon="9.4167217"><ele>620.4</ele><time>2026-04-11T13:24:47.001Z</time></trkpt><trkpt lat="44.87358" lon="9.4168583"><ele>618.8000000000001</ele><time>2026-04-11T13:24:48.002Z</time></trkpt><trkpt lat="44.8735667" lon="9.417"><ele>617.2</ele><time>2026-04-11T13:24:49.002Z</time></trkpt><trkpt lat="44.87355" lon="9.417145"><ele>615.6</ele><time>2026-04-11T13:24:50.002Z</time></trkpt><trkpt lat="44.8735267" lon="9.4172867"><ele>614.0</ele><time>2026-04-11T13:24:51.003Z</time></trkpt><trkpt lat="44.8734967" lon="9.4174267"><ele>613.6666666666666</ele><time>2026-04-11T13:24:52.003Z</time></trkpt><trkpt lat="44.8734717" lon="9.41756"><ele>613.3333333333333</ele><time>2026-04-11T13:24:53.002Z</time></trkpt><trkpt lat="44.8734467" lon="9.4176833"><ele>613.0</ele><time>2026-04-11T13:24:54.005Z</time></trkpt><trkpt lat="44.8734283" lon="9.4178067"><ele>612.6666666666666</ele><time>2026-04-11T13:24:55.001Z</time></trkpt><trkpt lat="44.8734133" lon="9.417925"><ele>612.3333333333334</ele><time>2026-04-11T13:24:56.001Z</time></trkpt><trkpt lat="44.8733933" lon="9.418035"><ele>612.0</ele><time>2026-04-11T13:24:57.002Z</time></trkpt><trkpt lat="44.87336" lon="9.4181383"><ele>616.8000000000001</ele><time>2026-04-11T13:24:58.002Z</time></trkpt><trkpt lat="44.8733133" lon="9.418235"><ele>621.6</ele><time>2026-04-11T13:24:59.001Z</time></trkpt><trkpt lat="44.8732517" lon="9.4183183"><ele>626.4000000000001</ele><time>2026-04-11T13:25:00.001Z</time></trkpt><trkpt lat="44.8731733" lon="9.418395"><ele>631.2</ele><time>2026-04-11T13:25:01.001Z</time></trkpt><trkpt lat="44.8730917" lon="9.4184767"><ele>636.0</ele><time>2026-04-11T13:25:02.001Z</time></trkpt><trkpt lat="44.8730117" lon="9.4185567"><ele>636.0</ele><time>2026-04-11T13:25:03.002Z</time></trkpt><trkpt lat="44.8729367" lon="9.4186367"><ele>636.0</ele><time>2026-04-11T13:25:04.002Z</time></trkpt><trkpt lat="44.8728767" lon="9.4187183"><ele>636.0</ele><time>2026-04-11T13:25:05.001Z</time></trkpt><trkpt lat="44.8728183" lon="9.418815"><ele>636.0</ele><time>2026-04-11T13:25:06.002Z</time></trkpt><trkpt lat="44.8727683" lon="9.41893"><ele>636.0</ele><time>2026-04-11T13:25:07.002Z</time></trkpt><trkpt lat="44.8727283" lon="9.4190567"><ele>636.0</ele><time>2026-04-11T13:25:08.002Z</time></trkpt><trkpt lat="44.8726967" lon="9.4191817"><ele>636.0</ele><time>2026-04-11T13:25:09.002Z</time></trkpt><trkpt lat="44.8726617" lon="9.4193083"><ele>636.0</ele><time>2026-04-11T13:25:10.001Z</time></trkpt><trkpt lat="44.872625" lon="9.41944"><ele>636.0</ele><time>2026-04-11T13:25:11.001Z</time></trkpt><trkpt lat="44.8725883" lon="9.4195733"><ele>636.0</ele><time>2026-04-11T13:25:12.001Z</time></trkpt><trkpt lat="44.8725417" lon="9.4196967"><ele>636.2</ele><time>2026-04-11T13:25:13.002Z</time></trkpt><trkpt lat="44.8724917" lon="9.4198117"><ele>636.4000000000001</ele><time>2026-04-11T13:25:14.001Z</time></trkpt><trkpt lat="44.87244" lon="9.4199133"><ele>636.6</ele><time>2026-04-11T13:25:15.002Z</time></trkpt><trkpt lat="44.8723867" lon="9.4200117"><ele>636.8000000000001</ele><time>2026-04-11T13:25:16.002Z</time></trkpt><trkpt lat="44.8723267" lon="9.42011"><ele>637.0</ele><time>2026-04-11T13:25:17.001Z</time></trkpt><trkpt lat="44.8722583" lon="9.42021"><ele>637.0</ele><time>2026-04-11T13:25:18.003Z</time></trkpt><trkpt lat="44.872185" lon="9.420305"><ele>637.0</ele><time>2026-04-11T13:25:19.002Z</time></trkpt><trkpt lat="44.8721117" lon="9.4203967"><ele>637.0</ele><time>2026-04-11T13:25:20.002Z</time></trkpt><trkpt lat="44.8720417" lon="9.42048"><ele>637.0</ele><time>2026-04-11T13:25:21.002Z</time></trkpt><trkpt lat="44.871985" lon="9.4205667"><ele>637.0</ele><time>2026-04-11T13:25:22.002Z</time></trkpt><trkpt lat="44.8719383" lon="9.420655"><ele>637.1666666666667</ele><time>2026-04-11T13:25:23.002Z</time></trkpt><trkpt lat="44.8718983" lon="9.4207483"><ele>637.3333333333334</ele><time>2026-04-11T13:25:24.004Z</time></trkpt><trkpt lat="44.871855" lon="9.4208433"><ele>637.5</ele><time>2026-04-11T13:25:25.002Z</time></trkpt><trkpt lat="44.8718017" lon="9.4209333"><ele>637.6666666666666</ele><time>2026-04-11T13:25:26.001Z</time></trkpt><trkpt lat="44.871745" lon="9.4210317"><ele>637.8333333333333</ele><time>2026-04-11T13:25:27.001Z</time></trkpt><trkpt lat="44.87169" lon="9.42114"><ele>638.0</ele><time>2026-04-11T13:25:28.001Z</time></trkpt><trkpt lat="44.8716483" lon="9.4212517"><ele>638.8333333333333</ele><time>2026-04-11T13:25:29Z</time></trkpt><trkpt lat="44.8716083" lon="9.4213733"><ele>639.6666666666666</ele><time>2026-04-11T13:25:30Z</time></trkpt><trkpt lat="44.8715817" lon="9.4215"><ele>640.5</ele><time>2026-04-11T13:25:31.001Z</time></trkpt><trkpt lat="44.8715683" lon="9.4216283"><ele>641.3333333333334</ele><time>2026-04-11T13:25:32.001Z</time></trkpt><trkpt lat="44.8715717" lon="9.4217483"><ele>642.1666666666667</ele><time>2026-04-11T13:25:33.001Z</time></trkpt><trkpt lat="44.8716" lon="9.4218583"><ele>643.0</ele><time>2026-04-11T13:25:34Z</time></trkpt><trkpt lat="44.8716333" lon="9.42196"><ele>643.0</ele><time>2026-04-11T13:25:35.001Z</time></trkpt><trkpt lat="44.87166" lon="9.42206"><ele>643.0</ele><time>2026-04-11T13:25:36.001Z</time></trkpt><trkpt lat="44.871625" lon="9.42222"><ele>643.0</ele><time>2026-04-11T13:25:38Z</time></trkpt><trkpt lat="44.87155" lon="9.42234"><ele>643.0</ele><time>2026-04-11T13:25:40Z</time></trkpt><trkpt lat="44.8715033" lon="9.4224717"><ele>643.0</ele><time>2026-04-11T13:25:42Z</time></trkpt><trkpt lat="44.871485" lon="9.4225617"><ele>644.2857142857142</ele><time>2026-04-11T13:25:43Z</time></trkpt><trkpt lat="44.8714783" lon="9.4226617"><ele>645.5714285714287</ele><time>2026-04-11T13:25:44Z</time></trkpt><trkpt lat="44.8714833" lon="9.422765"><ele>646.8571428571429</ele><time>2026-04-11T13:25:45.001Z</time></trkpt><trkpt lat="44.8714933" lon="9.4228667"><ele>648.1428571428571</ele><time>2026-04-11T13:25:46Z</time></trkpt><trkpt lat="44.87151" lon="9.4229717"><ele>649.4285714285713</ele><time>2026-04-11T13:25:47Z</time></trkpt><trkpt lat="44.8715283" lon="9.423075"><ele>650.7142857142858</ele><time>2026-04-11T13:25:48.001Z</time></trkpt><trkpt lat="44.8715367" lon="9.42317"><ele>652.0</ele><time>2026-04-11T13:25:49Z</time></trkpt><trkpt lat="44.8715033" lon="9.4233317"><ele>654.0</ele><time>2026-04-11T13:25:51.001Z</time></trkpt><trkpt lat="44.8714783" lon="9.4234833"><ele>656.0</ele><time>2026-04-11T13:25:53Z</time></trkpt><trkpt lat="44.87144" lon="9.4236467"><ele>658.0</ele><time>2026-04-11T13:25:55.001Z</time></trkpt><trkpt lat="44.87138" lon="9.42373"><ele>660.0</ele><time>2026-04-11T13:25:57.002Z</time></trkpt><trkpt lat="44.871305" lon="9.42375"><ele>662.0</ele><time>2026-04-11T13:25:59.001Z</time></trkpt><trkpt lat="44.871215" lon="9.42379"><ele>662.75</ele><time>2026-04-11T13:26:01.001Z</time></trkpt><trkpt lat="44.87114" lon="9.4238967"><ele>663.5</ele><time>2026-04-11T13:26:03.001Z</time></trkpt><trkpt lat="44.8710833" lon="9.42403"><ele>664.25</ele><time>2026-04-11T13:26:05Z</time></trkpt><trkpt lat="44.8710383" lon="9.4241767"><ele>665.0</ele><time>2026-04-11T13:26:07.001Z</time></trkpt><trkpt lat="44.8710417" lon="9.4243467"><ele>665.0</ele><time>2026-04-11T13:26:09.001Z</time></trkpt><trkpt lat="44.8710483" lon="9.424445"><ele>665.0</ele><time>2026-04-11T13:26:10.002Z</time></trkpt><trkpt lat="44.8710483" lon="9.424545"><ele>665.0</ele><time>2026-04-11T13:26:11.001Z</time></trkpt><trkpt lat="44.8710433" lon="9.424635"><ele>665.0</ele><time>2026-04-11T13:26:12Z</time></trkpt><trkpt lat="44.8710067" lon="9.424795"><ele>665.0</ele><time>2026-04-11T13:26:14Z</time></trkpt><trkpt lat="44.87096" lon="9.4249333"><ele>665.0</ele><time>2026-04-11T13:26:16.001Z</time></trkpt><trkpt lat="44.87093" lon="9.4251133"><ele>667.8571428571429</ele><time>2026-04-11T13:26:18Z</time></trkpt><trkpt lat="44.87092" lon="9.42521"><ele>670.7142857142858</ele><time>2026-04-11T13:26:19.002Z</time></trkpt><trkpt lat="44.87091" lon="9.4253067"><ele>673.5714285714286</ele><time>2026-04-11T13:26:20.001Z</time></trkpt><trkpt lat="44.8708917" lon="9.425405"><ele>676.4285714285714</ele><time>2026-04-11T13:26:21.002Z</time></trkpt><trkpt lat="44.8708567" lon="9.4254917"><ele>679.2857142857143</ele><time>2026-04-11T13:26:22Z</time></trkpt><trkpt lat="44.8708133" lon="9.425565"><ele>682.1428571428571</ele><time>2026-04-11T13:26:23.001Z</time></trkpt><trkpt lat="44.8707667" lon="9.4256317"><ele>685.0</ele><time>2026-04-11T13:26:24.001Z</time></trkpt><trkpt lat="44.870725" lon="9.4256983"><ele>686.1666666666667</ele><time>2026-04-11T13:26:25Z</time></trkpt><trkpt lat="44.870665" lon="9.425835"><ele>687.3333333333334</ele><time>2026-04-11T13:26:27Z</time></trkpt><trkpt lat="44.87065" lon="9.4259217"><ele>688.5</ele><time>2026-04-11T13:26:28Z</time></trkpt><trkpt lat="44.8706367" lon="9.426015"><ele>689.6666666666666</ele><time>2026-04-11T13:26:29Z</time></trkpt><trkpt lat="44.8706283" lon="9.4261067"><ele>690.8333333333333</ele><time>2026-04-11T13:26:30Z</time></trkpt><trkpt lat="44.8705933" lon="9.4262617"><ele>692.0</ele><time>2026-04-11T13:26:32.001Z</time></trkpt><trkpt lat="44.8705167" lon="9.4263717"><ele>692.2857142857142</ele><time>2026-04-11T13:26:34Z</time></trkpt><trkpt lat="44.8704617" lon="9.42643"><ele>692.5714285714287</ele><time>2026-04-11T13:26:35Z</time></trkpt><trkpt lat="44.8704083" lon="9.426495"><ele>692.8571428571429</ele><time>2026-04-11T13:26:36Z</time></trkpt><trkpt lat="44.87036" lon="9.4265683"><ele>693.1428571428571</ele><time>2026-04-11T13:26:37.001Z</time></trkpt><trkpt lat="44.8703167" lon="9.42664"><ele>693.4285714285713</ele><time>2026-04-11T13:26:38.001Z</time></trkpt><trkpt lat="44.87027" lon="9.4267167"><ele>693.7142857142858</ele><time>2026-04-11T13:26:39.001Z</time></trkpt><trkpt lat="44.8702167" lon="9.426795"><ele>694.0</ele><time>2026-04-11T13:26:40Z</time></trkpt><trkpt lat="44.87015" lon="9.4268817"><ele>694.0</ele><time>2026-04-11T13:26:41.001Z</time></trkpt><trkpt lat="44.8700867" lon="9.4269717"><ele>694.0</ele><time>2026-04-11T13:26:42Z</time></trkpt><trkpt lat="44.8700233" lon="9.4270583"><ele>694.0</ele><time>2026-04-11T13:26:43.001Z</time></trkpt><trkpt lat="44.869965" lon="9.42714"><ele>694.0</ele><time>2026-04-11T13:26:44.001Z</time></trkpt><trkpt lat="44.8699133" lon="9.4272167"><ele>694.0</ele><time>2026-04-11T13:26:45.001Z</time></trkpt><trkpt lat="44.86987" lon="9.4272917"><ele>694.0</ele><time>2026-04-11T13:26:46.003Z</time></trkpt><trkpt lat="44.8698133" lon="9.4274367"><ele>695.8000000000001</ele><time>2026-04-11T13:26:48.002Z</time></trkpt><trkpt lat="44.869805" lon="9.4275767"><ele>697.6</ele><time>2026-04-11T13:26:50.002Z</time></trkpt><trkpt lat="44.8698217" lon="9.4276733"><ele>699.4</ele><time>2026-04-11T13:26:52.002Z</time></trkpt><trkpt lat="44.86984" lon="9.4277717"><ele>701.2</ele><time>2026-04-11T13:26:54.001Z</time></trkpt><trkpt lat="44.869815" lon="9.42791"><ele>703.0</ele><time>2026-04-11T13:26:56Z</time></trkpt><trkpt lat="44.8697883" lon="9.4280733"><ele>705.2</ele><time>2026-04-11T13:26:58.001Z</time></trkpt><trkpt lat="44.8697433" lon="9.4282333"><ele>707.4</ele><time>2026-04-11T13:27:00.001Z</time></trkpt><trkpt lat="44.869695" lon="9.4283983"><ele>709.6</ele><time>2026-04-11T13:27:02.001Z</time></trkpt><trkpt lat="44.8696633" lon="9.4284767"><ele>711.8000000000001</ele><time>2026-04-11T13:27:03.001Z</time></trkpt><trkpt lat="44.86959" lon="9.428605"><ele>714.0</ele><time>2026-04-11T13:27:05.001Z</time></trkpt><trkpt lat="44.86952" lon="9.42876"><ele>714.4000000000001</ele><time>2026-04-11T13:27:07.001Z</time></trkpt><trkpt lat="44.8694967" lon="9.4288467"><ele>714.8</ele><time>2026-04-11T13:27:08Z</time></trkpt><trkpt lat="44.86948" lon="9.4290067"><ele>715.2</ele><time>2026-04-11T13:27:10.001Z</time></trkpt><trkpt lat="44.8694233" lon="9.4291217"><ele>715.5999999999999</ele><time>2026-04-11T13:27:12.002Z</time></trkpt><trkpt lat="44.86933" lon="9.42923"><ele>716.0</ele><time>2026-04-11T13:27:14Z</time></trkpt><trkpt lat="44.8692717" lon="9.429285"><ele>716.0</ele><time>2026-04-11T13:27:15.001Z</time></trkpt><trkpt lat="44.869215" lon="9.429345"><ele>716.0</ele><time>2026-04-11T13:27:16.001Z</time></trkpt><trkpt lat="44.869155" lon="9.42941"><ele>716.0</ele><time>2026-04-11T13:27:17.001Z</time></trkpt><trkpt lat="44.86909" lon="9.429465"><ele>716.0</ele><time>2026-04-11T13:27:18.002Z</time></trkpt><trkpt lat="44.8690267" lon="9.429505"><ele>716.0</ele><time>2026-04-11T13:27:19.001Z</time></trkpt><trkpt lat="44.8689217" lon="9.4295717"><ele>716.0</ele><time>2026-04-11T13:27:21.001Z</time></trkpt><trkpt lat="44.8688283" lon="9.4296783"><ele>717.8333333333333</ele><time>2026-04-11T13:27:23.001Z</time></trkpt><trkpt lat="44.8687817" lon="9.4297467"><ele>719.6666666666666</ele><time>2026-04-11T13:27:24.003Z</time></trkpt><trkpt lat="44.8687317" lon="9.4298183"><ele>721.5</ele><time>2026-04-11T13:27:25.003Z</time></trkpt><trkpt lat="44.8686817" lon="9.4298867"><ele>723.3333333333334</ele><time>2026-04-11T13:27:26.001Z</time></trkpt><trkpt lat="44.8686283" lon="9.4299517"><ele>725.1666666666667</ele><time>2026-04-11T13:27:27.002Z</time></trkpt><trkpt lat="44.868535" lon="9.4300383"><ele>727.0</ele><time>2026-04-11T13:27:29.002Z</time></trkpt><trkpt lat="44.8684717" lon="9.4300783"><ele>727.3333333333334</ele><time>2026-04-11T13:27:31.001Z</time></trkpt><trkpt lat="44.8684067" lon="9.4301367"><ele>727.6666666666667</ele><time>2026-04-11T13:27:34.001Z</time></trkpt><trkpt lat="44.8683467" lon="9.4302117"><ele>728.0</ele><time>2026-04-11T13:27:38.001Z</time></trkpt><trkpt lat="44.8682833" lon="9.4302833"><ele>728.3333333333334</ele><time>2026-04-11T13:27:40.001Z</time></trkpt><trkpt lat="44.8681933" lon="9.4303967"><ele>728.6666666666666</ele><time>2026-04-11T13:27:42.001Z</time></trkpt><trkpt lat="44.868145" lon="9.4304583"><ele>729.0</ele><time>2026-04-11T13:27:43.001Z</time></trkpt><trkpt lat="44.8680967" lon="9.4305183"><ele>729.0</ele><time>2026-04-11T13:27:44Z</time></trkpt><trkpt lat="44.8680033" lon="9.4306067"><ele>729.0</ele><time>2026-04-11T13:27:46Z</time></trkpt><trkpt lat="44.867915" lon="9.4306817"><ele>729.0</ele><time>2026-04-11T13:27:48.001Z</time></trkpt><trkpt lat="44.867815" lon="9.4307967"><ele>729.0</ele><time>2026-04-11T13:27:50.002Z</time></trkpt><trkpt lat="44.8677583" lon="9.430855"><ele>729.0</ele><time>2026-04-11T13:27:51.004Z</time></trkpt><trkpt lat="44.867695" lon="9.4309133"><ele>729.0</ele><time>2026-04-11T13:27:52.002Z</time></trkpt><trkpt lat="44.8676317" lon="9.430965"><ele>729.0</ele><time>2026-04-11T13:27:53.001Z</time></trkpt><trkpt lat="44.86757" lon="9.4310167"><ele>729.0</ele><time>2026-04-11T13:27:54.002Z</time></trkpt><trkpt lat="44.86751" lon="9.4310633"><ele>729.0</ele><time>2026-04-11T13:27:55.001Z</time></trkpt><trkpt lat="44.867405" lon="9.431135"><ele>729.0</ele><time>2026-04-11T13:27:57.002Z</time></trkpt><trkpt lat="44.8673483" lon="9.43118"><ele>729.0</ele><time>2026-04-11T13:27:58.002Z</time></trkpt><trkpt lat="44.8672883" lon="9.4312233"><ele>728.0</ele><time>2026-04-11T13:27:59.001Z</time></trkpt><trkpt lat="44.8672217" lon="9.431265"><ele>727.0</ele><time>2026-04-11T13:28:00Z</time></trkpt><trkpt lat="44.8671583" lon="9.4312967"><ele>726.0</ele><time>2026-04-11T13:28:01.001Z</time></trkpt><trkpt lat="44.8670533" lon="9.4313483"><ele>725.0</ele><time>2026-04-11T13:28:03.002Z</time></trkpt><trkpt lat="44.8669683" lon="9.43137"><ele>724.0</ele><time>2026-04-11T13:28:05Z</time></trkpt><trkpt lat="44.8668567" lon="9.4313667"><ele>723.0</ele><time>2026-04-11T13:29:07.002Z</time></trkpt><trkpt lat="44.8667633" lon="9.4313533"><ele>722.5714285714287</ele><time>2026-04-11T13:29:09.002Z</time></trkpt><trkpt lat="44.8666967" lon="9.4313483"><ele>722.1428571428571</ele><time>2026-04-11T13:29:10.001Z</time></trkpt><trkpt lat="44.86663" lon="9.431345"><ele>721.7142857142858</ele><time>2026-04-11T13:29:11.001Z</time></trkpt><trkpt lat="44.8665667" lon="9.4313483"><ele>721.2857142857143</ele><time>2026-04-11T13:29:12.003Z</time></trkpt><trkpt lat="44.8665" lon="9.4313567"><ele>720.8571428571429</ele><time>2026-04-11T13:29:13.004Z</time></trkpt><trkpt lat="44.8664333" lon="9.43137"><ele>720.4285714285714</ele><time>2026-04-11T13:29:14.003Z</time></trkpt><trkpt lat="44.866365" lon="9.4313917"><ele>720.0</ele><time>2026-04-11T13:29:15.003Z</time></trkpt><trkpt lat="44.8662867" lon="9.4314183"><ele>720.0</ele><time>2026-04-11T13:29:16.001Z</time></trkpt><trkpt lat="44.8662" lon="9.431455"><ele>720.0</ele><time>2026-04-11T13:29:17Z</time></trkpt><trkpt lat="44.8661167" lon="9.431495"><ele>720.0</ele><time>2026-04-11T13:29:18.002Z</time></trkpt><trkpt lat="44.8660367" lon="9.431535"><ele>720.0</ele><time>2026-04-11T13:29:19.001Z</time></trkpt><trkpt lat="44.8659517" lon="9.4315783"><ele>720.0</ele><time>2026-04-11T13:29:20.001Z</time></trkpt><trkpt lat="44.8658633" lon="9.4316233"><ele>720.0</ele><time>2026-04-11T13:29:21.002Z</time></trkpt><trkpt lat="44.8657733" lon="9.4316667"><ele>721.4</ele><time>2026-04-11T13:29:22.002Z</time></trkpt><trkpt lat="44.865685" lon="9.4317033"><ele>722.8</ele><time>2026-04-11T13:29:23.002Z</time></trkpt><trkpt lat="44.865595" lon="9.4317383"><ele>724.2</ele><time>2026-04-11T13:29:24.002Z</time></trkpt><trkpt lat="44.8655033" lon="9.4317683"><ele>725.6</ele><time>2026-04-11T13:29:25.001Z</time></trkpt><trkpt lat="44.8654067" lon="9.4317967"><ele>727.0</ele><time>2026-04-11T13:29:26.002Z</time></trkpt><trkpt lat="44.8653033" lon="9.4318267"><ele>727.0</ele><time>2026-04-11T13:29:27.003Z</time></trkpt><trkpt lat="44.8651967" lon="9.4318633"><ele>727.0</ele><time>2026-04-11T13:29:28Z</time></trkpt><trkpt lat="44.8650983" lon="9.43191"><ele>727.0</ele><time>2026-04-11T13:29:29.002Z</time></trkpt><trkpt lat="44.86501" lon="9.4319683"><ele>727.0</ele><time>2026-04-11T13:29:30.002Z</time></trkpt><trkpt lat="44.8649217" lon="9.4320383"><ele>727.0</ele><time>2026-04-11T13:29:31.002Z</time></trkpt><trkpt lat="44.8648267" lon="9.43212"><ele>727.2</ele><time>2026-04-11T13:29:32.001Z</time></trkpt><trkpt lat="44.8647317" lon="9.4322067"><ele>727.4000000000001</ele><time>2026-04-11T13:29:33.002Z</time></trkpt><trkpt lat="44.8646367" lon="9.432295"><ele>727.5999999999999</ele><time>2026-04-11T13:29:34.003Z</time></trkpt><trkpt lat="44.8645483" lon="9.4323833"><ele>727.8</ele><time>2026-04-11T13:29:35.001Z</time></trkpt><trkpt lat="44.8644633" lon="9.4324767"><ele>728.0</ele><time>2026-04-11T13:29:36.002Z</time></trkpt><trkpt lat="44.8643783" lon="9.4325817"><ele>728.0</ele><time>2026-04-11T13:29:37.003Z</time></trkpt><trkpt lat="44.86429" lon="9.4326917"><ele>728.0</ele><time>2026-04-11T13:29:38.002Z</time></trkpt><trkpt lat="44.8642033" lon="9.4328083"><ele>728.0</ele><time>2026-04-11T13:29:39.003Z</time></trkpt><trkpt lat="44.8641233" lon="9.4329233"><ele>728.0</ele><time>2026-04-11T13:29:40.003Z</time></trkpt><trkpt lat="44.8640483" lon="9.4330283"><ele>729.8</ele><time>2026-04-11T13:29:41.002Z</time></trkpt><trkpt lat="44.86397" lon="9.4331267"><ele>731.5999999999999</ele><time>2026-04-11T13:29:42.002Z</time></trkpt><trkpt lat="44.8638833" lon="9.43321"><ele>733.4000000000001</ele><time>2026-04-11T13:29:43.002Z</time></trkpt><trkpt lat="44.8637883" lon="9.4332717"><ele>735.2</ele><time>2026-04-11T13:29:44.003Z</time></trkpt><trkpt lat="44.8636767" lon="9.433305"><ele>737.0</ele><time>2026-04-11T13:29:45.002Z</time></trkpt><trkpt lat="44.8635567" lon="9.4333117"><ele>739.2</ele><time>2026-04-11T13:29:46.001Z</time></trkpt><trkpt lat="44.86344" lon="9.4333017"><ele>741.4000000000001</ele><time>2026-04-11T13:29:47.001Z</time></trkpt><trkpt lat="44.8633333" lon="9.4332933"><ele>743.5999999999999</ele><time>2026-04-11T13:29:48.001Z</time></trkpt><trkpt lat="44.863235" lon="9.4333033"><ele>745.8</ele><time>2026-04-11T13:29:49.002Z</time></trkpt><trkpt lat="44.8631367" lon="9.433345"><ele>748.0</ele><time>2026-04-11T13:29:50.002Z</time></trkpt><trkpt lat="44.8630433" lon="9.433425"><ele>748.0</ele><time>2026-04-11T13:29:51.002Z</time></trkpt><trkpt lat="44.8629667" lon="9.4335383"><ele>748.0</ele><time>2026-04-11T13:29:52.002Z</time></trkpt><trkpt lat="44.8629067" lon="9.4336767"><ele>748.0</ele><time>2026-04-11T13:29:53.002Z</time></trkpt><trkpt lat="44.86286" lon="9.4338267"><ele>748.0</ele><time>2026-04-11T13:29:54.002Z</time></trkpt><trkpt lat="44.8628183" lon="9.4339617"><ele>748.0</ele><time>2026-04-11T13:29:55.002Z</time></trkpt><trkpt lat="44.86277" lon="9.4340717"><ele>748.1666666666667</ele><time>2026-04-11T13:29:56.001Z</time></trkpt><trkpt lat="44.8627083" lon="9.4341533"><ele>748.3333333333334</ele><time>2026-04-11T13:29:57.002Z</time></trkpt><trkpt lat="44.86265" lon="9.4342033"><ele>748.5</ele><time>2026-04-11T13:29:58.001Z</time></trkpt><trkpt lat="44.8625833" lon="9.4342133"><ele>748.6666666666666</ele><time>2026-04-11T13:29:59.001Z</time></trkpt><trkpt lat="44.8624967" lon="9.434185"><ele>748.8333333333333</ele><time>2026-04-11T13:30:00.004Z</time></trkpt><trkpt lat="44.8623967" lon="9.434145"><ele>749.0</ele><time>2026-04-11T13:30:01.001Z</time></trkpt><trkpt lat="44.8622917" lon="9.4341167"><ele>749.0</ele><time>2026-04-11T13:30:02.002Z</time></trkpt><trkpt lat="44.8621867" lon="9.43412"><ele>749.0</ele><time>2026-04-11T13:30:03.001Z</time></trkpt><trkpt lat="44.8620867" lon="9.4341717"><ele>749.0</ele><time>2026-04-11T13:30:04.001Z</time></trkpt><trkpt lat="44.86198" lon="9.4342567"><ele>749.0</ele><time>2026-04-11T13:30:05.001Z</time></trkpt><trkpt lat="44.8618717" lon="9.4343483"><ele>751.5</ele><time>2026-04-11T13:30:06.002Z</time></trkpt><trkpt lat="44.861755" lon="9.4344217"><ele>754.0</ele><time>2026-04-11T13:30:07.001Z</time></trkpt><trkpt lat="44.8616333" lon="9.43449"><ele>756.5</ele><time>2026-04-11T13:30:08.001Z</time></trkpt><trkpt lat="44.8615083" lon="9.4345617"><ele>759.0</ele><time>2026-04-11T13:30:09.002Z</time></trkpt><trkpt lat="44.86138" lon="9.4346367"><ele>757.0</ele><time>2026-04-11T13:30:10.001Z</time></trkpt><trkpt lat="44.86125" lon="9.4347067"><ele>755.0</ele><time>2026-04-11T13:30:11.002Z</time></trkpt><trkpt lat="44.8611183" lon="9.4347667"><ele>753.0</ele><time>2026-04-11T13:30:12.001Z</time></trkpt><trkpt lat="44.8609917" lon="9.4348133"><ele>751.0</ele><time>2026-04-11T13:30:13.001Z</time></trkpt><trkpt lat="44.8608717" lon="9.434855"><ele>751.0</ele><time>2026-04-11T13:30:14.002Z</time></trkpt><trkpt lat="44.8607633" lon="9.4349083"><ele>751.0</ele><time>2026-04-11T13:30:15.002Z</time></trkpt><trkpt lat="44.8606617" lon="9.4349683"><ele>751.0</ele><time>2026-04-11T13:30:16.001Z</time></trkpt><trkpt lat="44.8605517" lon="9.4350117"><ele>751.0</ele><time>2026-04-11T13:30:17.001Z</time></trkpt><trkpt lat="44.86044" lon="9.4350217"><ele>751.0</ele><time>2026-04-11T13:30:18.001Z</time></trkpt><trkpt lat="44.8603267" lon="9.4349917"><ele>751.0</ele><time>2026-04-11T13:30:19.001Z</time></trkpt><trkpt lat="44.8602167" lon="9.43493"><ele>751.0</ele><time>2026-04-11T13:30:20.002Z</time></trkpt><trkpt lat="44.860105" lon="9.4348533"><ele>751.0</ele><time>2026-04-11T13:30:21.002Z</time></trkpt><trkpt lat="44.8599883" lon="9.434775"><ele>751.25</ele><time>2026-04-11T13:30:22.002Z</time></trkpt><trkpt lat="44.8598733" lon="9.4346983"><ele>751.5</ele><time>2026-04-11T13:30:23.001Z</time></trkpt><trkpt lat="44.859755" lon="9.4346317"><ele>751.75</ele><time>2026-04-11T13:30:24.001Z</time></trkpt><trkpt lat="44.85964" lon="9.43459"><ele>752.0</ele><time>2026-04-11T13:30:25.001Z</time></trkpt><trkpt lat="44.859525" lon="9.434575"><ele>753.25</ele><time>2026-04-11T13:30:26.001Z</time></trkpt><trkpt lat="44.85941" lon="9.4345867"><ele>754.5</ele><time>2026-04-11T13:30:27.001Z</time></trkpt><trkpt lat="44.8592883" lon="9.4346183"><ele>755.75</ele><time>2026-04-11T13:30:28.002Z</time></trkpt><trkpt lat="44.8591867" lon="9.43471"><ele>757.0</ele><time>2026-04-11T13:30:29.003Z</time></trkpt><trkpt lat="44.8590917" lon="9.4348367"><ele>757.0</ele><time>2026-04-11T13:30:30.003Z</time></trkpt><trkpt lat="44.858995" lon="9.4349817"><ele>757.0</ele><time>2026-04-11T13:30:31.002Z</time></trkpt><trkpt lat="44.8588933" lon="9.43514"><ele>757.0</ele><time>2026-04-11T13:30:32.002Z</time></trkpt><trkpt lat="44.8587933" lon="9.4353033"><ele>757.0</ele><time>2026-04-11T13:30:33.003Z</time></trkpt><trkpt lat="44.8586933" lon="9.4354733"><ele>759.3333333333334</ele><time>2026-04-11T13:30:34.002Z</time></trkpt><trkpt lat="44.8585917" lon="9.435645"><ele>761.6666666666666</ele><time>2026-04-11T13:30:35.002Z</time></trkpt><trkpt lat="44.8584917" lon="9.4358167"><ele>764.0</ele><time>2026-04-11T13:30:36.003Z</time></trkpt><trkpt lat="44.8583933" lon="9.435985"><ele>764.0</ele><time>2026-04-11T13:30:37.003Z</time></trkpt><trkpt lat="44.858295" lon="9.4361483"><ele>764.0</ele><time>2026-04-11T13:30:38.003Z</time></trkpt><trkpt lat="44.8582" lon="9.4363083"><ele>764.0</ele><time>2026-04-11T13:30:39.003Z</time></trkpt><trkpt lat="44.8581067" lon="9.4364617"><ele>764.0</ele><time>2026-04-11T13:30:40.003Z</time></trkpt><trkpt lat="44.8580167" lon="9.4366033"><ele>761.4000000000001</ele><time>2026-04-11T13:30:41.002Z</time></trkpt><trkpt lat="44.857935" lon="9.4367333"><ele>758.8</ele><time>2026-04-11T13:30:42.003Z</time></trkpt><trkpt lat="44.857855" lon="9.4368567"><ele>756.2</ele><time>2026-04-11T13:30:43.002Z</time></trkpt><trkpt lat="44.8578" lon="9.4369833"><ele>753.5999999999999</ele><time>2026-04-11T13:30:44.003Z</time></trkpt><trkpt lat="44.85777" lon="9.43712"><ele>751.0</ele><time>2026-04-11T13:30:45.004Z</time></trkpt><trkpt lat="44.857765" lon="9.43726"><ele>750.8</ele><time>2026-04-11T13:30:46.003Z</time></trkpt><trkpt lat="44.85778" lon="9.4373967"><ele>750.5999999999999</ele><time>2026-04-11T13:30:47.002Z</time></trkpt><trkpt lat="44.857815" lon="9.4375333"><ele>750.4</ele><time>2026-04-11T13:30:48.002Z</time></trkpt><trkpt lat="44.85784" lon="9.4376733"><ele>750.2</ele><time>2026-04-11T13:30:49.002Z</time></trkpt><trkpt lat="44.8578617" lon="9.4378017"><ele>750.0</ele><time>2026-04-11T13:30:50.003Z</time></trkpt><trkpt lat="44.8578567" lon="9.4379133"><ele>751.2</ele><time>2026-04-11T13:30:51.002Z</time></trkpt><trkpt lat="44.8578267" lon="9.438005"><ele>752.4</ele><time>2026-04-11T13:30:52.001Z</time></trkpt><trkpt lat="44.8577733" lon="9.4380783"><ele>753.5999999999999</ele><time>2026-04-11T13:30:53.001Z</time></trkpt><trkpt lat="44.8576883" lon="9.43812"><ele>754.8</ele><time>2026-04-11T13:30:54.001Z</time></trkpt><trkpt lat="44.8575783" lon="9.4381417"><ele>756.0</ele><time>2026-04-11T13:30:55.001Z</time></trkpt><trkpt lat="44.8574417" lon="9.4381483"><ele>756.0</ele><time>2026-04-11T13:30:56.001Z</time></trkpt><trkpt lat="44.857305" lon="9.4381533"><ele>756.0</ele><time>2026-04-11T13:30:57.003Z</time></trkpt><trkpt lat="44.8571633" lon="9.4381733"><ele>756.0</ele><time>2026-04-11T13:30:58.002Z</time></trkpt><trkpt lat="44.85702" lon="9.43821"><ele>756.0</ele><time>2026-04-11T13:30:59.002Z</time></trkpt><trkpt lat="44.8568817" lon="9.438275"><ele>756.25</ele><time>2026-04-11T13:31:00.002Z</time></trkpt><trkpt lat="44.8567633" lon="9.4383733"><ele>756.5</ele><time>2026-04-11T13:31:01.002Z</time></trkpt><trkpt lat="44.8566617" lon="9.438505"><ele>756.75</ele><time>2026-04-11T13:31:02.002Z</time></trkpt><trkpt lat="44.8565767" lon="9.4386617"><ele>757.0</ele><time>2026-04-11T13:31:03.002Z</time></trkpt><trkpt lat="44.856515" lon="9.4388383"><ele>757.0</ele><time>2026-04-11T13:31:04.001Z</time></trkpt><trkpt lat="44.85647" lon="9.43903"><ele>757.0</ele><time>2026-04-11T13:31:05.001Z</time></trkpt><trkpt lat="44.8564383" lon="9.4392333"><ele>757.0</ele><time>2026-04-11T13:31:06.002Z</time></trkpt><trkpt lat="44.8564133" lon="9.4394367"><ele>757.0</ele><time>2026-04-11T13:31:07.003Z</time></trkpt><trkpt lat="44.8563883" lon="9.43964"><ele>754.5</ele><time>2026-04-11T13:31:08.002Z</time></trkpt><trkpt lat="44.856365" lon="9.43983"><ele>752.0</ele><time>2026-04-11T13:31:09.002Z</time></trkpt><trkpt lat="44.856335" lon="9.4400033"><ele>749.5</ele><time>2026-04-11T13:31:10.001Z</time></trkpt><trkpt lat="44.8563017" lon="9.4401667"><ele>747.0</ele><time>2026-04-11T13:31:11.001Z</time></trkpt><trkpt lat="44.8562533" lon="9.4403083"><ele>747.0</ele><time>2026-04-11T13:31:12.001Z</time></trkpt><trkpt lat="44.85619" lon="9.44043"><ele>747.0</ele><time>2026-04-11T13:31:13.001Z</time></trkpt><trkpt lat="44.8561083" lon="9.44053"><ele>747.0</ele><time>2026-04-11T13:31:14.001Z</time></trkpt><trkpt lat="44.8560233" lon="9.4406017"><ele>747.0</ele><time>2026-04-11T13:31:15.001Z</time></trkpt><trkpt lat="44.8559383" lon="9.4406617"><ele>747.0</ele><time>2026-04-11T13:31:16.001Z</time></trkpt><trkpt lat="44.8558533" lon="9.4407383"><ele>747.8</ele><time>2026-04-11T13:31:17.001Z</time></trkpt><trkpt lat="44.855795" lon="9.4408417"><ele>748.6</ele><time>2026-04-11T13:31:18.001Z</time></trkpt><trkpt lat="44.8557733" lon="9.4409717"><ele>749.4</ele><time>2026-04-11T13:31:19.001Z</time></trkpt><trkpt lat="44.855785" lon="9.4411083"><ele>750.1999999999999</ele><time>2026-04-11T13:31:20Z</time></trkpt><trkpt lat="44.8558083" lon="9.4412517"><ele>751.0</ele><time>2026-04-11T13:31:21.003Z</time></trkpt><trkpt lat="44.8558417" lon="9.4414083"><ele>751.0</ele><time>2026-04-11T13:31:22.002Z</time></trkpt><trkpt lat="44.8558833" lon="9.44157"><ele>751.0</ele><time>2026-04-11T13:31:23.002Z</time></trkpt><trkpt lat="44.8559317" lon="9.44173"><ele>751.0</ele><time>2026-04-11T13:31:24.001Z</time></trkpt><trkpt lat="44.85597" lon="9.4418917"><ele>751.0</ele><time>2026-04-11T13:31:25.001Z</time></trkpt><trkpt lat="44.8559933" lon="9.4420567"><ele>751.5</ele><time>2026-04-11T13:31:26.001Z</time></trkpt><trkpt lat="44.8559917" lon="9.4422317"><ele>752.0</ele><time>2026-04-11T13:31:27.002Z</time></trkpt><trkpt lat="44.8559783" lon="9.4424067"><ele>752.5</ele><time>2026-04-11T13:31:28.001Z</time></trkpt><trkpt lat="44.85596" lon="9.4425817"><ele>753.0</ele><time>2026-04-11T13:31:29.002Z</time></trkpt><trkpt lat="44.855935" lon="9.4427567"><ele>753.0</ele><time>2026-04-11T13:31:30.001Z</time></trkpt><trkpt lat="44.8559" lon="9.4429283"><ele>753.0</ele><time>2026-04-11T13:31:31.001Z</time></trkpt><trkpt lat="44.85585" lon="9.44309"><ele>753.0</ele><time>2026-04-11T13:31:32.003Z</time></trkpt><trkpt lat="44.8557783" lon="9.4432317"><ele>753.0</ele><time>2026-04-11T13:31:33.003Z</time></trkpt><trkpt lat="44.855695" lon="9.4433517"><ele>751.8</ele><time>2026-04-11T13:31:34.002Z</time></trkpt><trkpt lat="44.8556" lon="9.4434517"><ele>750.5999999999999</ele><time>2026-04-11T13:31:35.002Z</time></trkpt><trkpt lat="44.855505" lon="9.4435383"><ele>749.4000000000001</ele><time>2026-04-11T13:31:36.003Z</time></trkpt><trkpt lat="44.8554217" lon="9.443615"><ele>748.2</ele><time>2026-04-11T13:31:37.002Z</time></trkpt><trkpt lat="44.8553467" lon="9.443675"><ele>747.0</ele><time>2026-04-11T13:31:38.001Z</time></trkpt><trkpt lat="44.8552583" lon="9.443745"><ele>745.7142857142857</ele><time>2026-04-11T13:31:40.001Z</time></trkpt><trkpt lat="44.8551967" lon="9.4438"><ele>744.4285714285714</ele><time>2026-04-11T13:31:43.003Z</time></trkpt><trkpt lat="44.855175" lon="9.4439033"><ele>743.1428571428571</ele><time>2026-04-11T13:31:45.002Z</time></trkpt><trkpt lat="44.85519" lon="9.444015"><ele>741.8571428571429</ele><time>2026-04-11T13:32:55Z</time></trkpt><trkpt lat="44.855205" lon="9.44411"><ele>740.5714285714286</ele><time>2026-04-11T13:32:56.002Z</time></trkpt><trkpt lat="44.85521" lon="9.44421"><ele>739.2857142857142</ele><time>2026-04-11T13:32:57.005Z</time></trkpt><trkpt lat="44.8552067" lon="9.44431"><ele>738.0</ele><time>2026-04-11T13:32:58.002Z</time></trkpt><trkpt lat="44.8552017" lon="9.444415"><ele>738.0</ele><time>2026-04-11T13:32:59.003Z</time></trkpt><trkpt lat="44.8551933" lon="9.4445283"><ele>738.0</ele><time>2026-04-11T13:33:00.004Z</time></trkpt><trkpt lat="44.8551817" lon="9.4446433"><ele>738.0</ele><time>2026-04-11T13:33:01.005Z</time></trkpt><trkpt lat="44.85517" lon="9.444755"><ele>738.0</ele><time>2026-04-11T13:33:02.004Z</time></trkpt><trkpt lat="44.8551567" lon="9.4448667"><ele>738.0</ele><time>2026-04-11T13:33:03.003Z</time></trkpt><trkpt lat="44.8551417" lon="9.44498"><ele>738.0</ele><time>2026-04-11T13:33:04.003Z</time></trkpt><trkpt lat="44.8551283" lon="9.4451017"><ele>737.4</ele><time>2026-04-11T13:33:05.002Z</time></trkpt><trkpt lat="44.8551133" lon="9.4452217"><ele>736.8</ele><time>2026-04-11T13:33:06.001Z</time></trkpt><trkpt lat="44.8551033" lon="9.4453417"><ele>736.2</ele><time>2026-04-11T13:33:07.001Z</time></trkpt><trkpt lat="44.8551017" lon="9.445465"><ele>735.6</ele><time>2026-04-11T13:33:08.002Z</time></trkpt><trkpt lat="44.8551217" lon="9.4455933"><ele>735.0</ele><time>2026-04-11T13:33:09.002Z</time></trkpt><trkpt lat="44.8551567" lon="9.4457217"><ele>735.0</ele><time>2026-04-11T13:33:10.001Z</time></trkpt><trkpt lat="44.8552083" lon="9.4458533"><ele>735.0</ele><time>2026-04-11T13:33:11.002Z</time></trkpt><trkpt lat="44.85526" lon="9.4459833"><ele>735.0</ele><time>2026-04-11T13:33:12.001Z</time></trkpt><trkpt lat="44.8553067" lon="9.4461167"><ele>735.0</ele><time>2026-04-11T13:33:13.001Z</time></trkpt><trkpt lat="44.8553467" lon="9.4462517"><ele>735.0</ele><time>2026-04-11T13:33:14Z</time></trkpt><trkpt lat="44.855375" lon="9.446385"><ele>734.2</ele><time>2026-04-11T13:33:15.001Z</time></trkpt><trkpt lat="44.8553817" lon="9.4465167"><ele>733.4</ele><time>2026-04-11T13:33:16.001Z</time></trkpt><trkpt lat="44.8553733" lon="9.4466433"><ele>732.5999999999999</ele><time>2026-04-11T13:33:17.002Z</time></trkpt><trkpt lat="44.8553467" lon="9.44677"><ele>731.8</ele><time>2026-04-11T13:33:18.001Z</time></trkpt><trkpt lat="44.855305" lon="9.4468967"><ele>731.0</ele><time>2026-04-11T13:33:19.002Z</time></trkpt><trkpt lat="44.8552517" lon="9.44702"><ele>732.4</ele><time>2026-04-11T13:33:20.002Z</time></trkpt><trkpt lat="44.8552" lon="9.44714"><ele>733.8</ele><time>2026-04-11T13:33:21.002Z</time></trkpt><trkpt lat="44.8551717" lon="9.447265"><ele>735.1999999999999</ele><time>2026-04-11T13:33:22.001Z</time></trkpt><trkpt lat="44.8551667" lon="9.4474017"><ele>736.5999999999999</ele><time>2026-04-11T13:33:23.001Z</time></trkpt><trkpt lat="44.85518" lon="9.44755"><ele>738.0</ele><time>2026-04-11T13:33:24.002Z</time></trkpt><trkpt lat="44.8552083" lon="9.4476983"><ele>738.0</ele><time>2026-04-11T13:33:25.001Z</time></trkpt><trkpt lat="44.8552467" lon="9.4478417"><ele>738.0</ele><time>2026-04-11T13:33:26.001Z</time></trkpt><trkpt lat="44.8552867" lon="9.4479767"><ele>738.0</ele><time>2026-04-11T13:33:27.003Z</time></trkpt><trkpt lat="44.8553167" lon="9.4481167"><ele>738.0</ele><time>2026-04-11T13:33:28.001Z</time></trkpt><trkpt lat="44.855315" lon="9.44825"><ele>738.0</ele><time>2026-04-11T13:33:29.002Z</time></trkpt><trkpt lat="44.8552783" lon="9.4483583"><ele>737.4</ele><time>2026-04-11T13:33:30.002Z</time></trkpt><trkpt lat="44.8552133" lon="9.4484483"><ele>736.8</ele><time>2026-04-11T13:33:31.002Z</time></trkpt><trkpt lat="44.85514" lon="9.44854"><ele>736.2</ele><time>2026-04-11T13:33:32.002Z</time></trkpt><trkpt lat="44.8550667" lon="9.4486383"><ele>735.6</ele><time>2026-04-11T13:33:33.002Z</time></trkpt><trkpt lat="44.8549883" lon="9.4487333"><ele>735.0</ele><time>2026-04-11T13:33:34.003Z</time></trkpt><trkpt lat="44.8549067" lon="9.4488133"><ele>737.0</ele><time>2026-04-11T13:33:35.001Z</time></trkpt><trkpt lat="44.8548117" lon="9.4488667"><ele>739.0</ele><time>2026-04-11T13:33:36.002Z</time></trkpt><trkpt lat="44.8547083" lon="9.4489017"><ele>741.0</ele><time>2026-04-11T13:33:37.001Z</time></trkpt><trkpt lat="44.8546117" lon="9.4489333"><ele>743.0</ele><time>2026-04-11T13:33:38.001Z</time></trkpt><trkpt lat="44.8545217" lon="9.4489817"><ele>745.0</ele><time>2026-04-11T13:33:39.003Z</time></trkpt><trkpt lat="44.85446" lon="9.4490617"><ele>745.0</ele><time>2026-04-11T13:33:40.001Z</time></trkpt><trkpt lat="44.8544183" lon="9.44916"><ele>745.0</ele><time>2026-04-11T13:33:41.001Z</time></trkpt><trkpt lat="44.8544" lon="9.4492833"><ele>745.0</ele><time>2026-04-11T13:33:42.002Z</time></trkpt><trkpt lat="44.8543833" lon="9.44943"><ele>745.0</ele><time>2026-04-11T13:33:43.003Z</time></trkpt><trkpt lat="44.854375" lon="9.449585"><ele>745.0</ele><time>2026-04-11T13:33:44.001Z</time></trkpt><trkpt lat="44.85437" lon="9.4497483"><ele>747.5</ele><time>2026-04-11T13:33:45.002Z</time></trkpt><trkpt lat="44.8543717" lon="9.4499133"><ele>750.0</ele><time>2026-04-11T13:33:46.002Z</time></trkpt><trkpt lat="44.8543833" lon="9.4500733"><ele>752.5</ele><time>2026-04-11T13:33:47.002Z</time></trkpt><trkpt lat="44.8544033" lon="9.4502283"><ele>755.0</ele><time>2026-04-11T13:33:48.002Z</time></trkpt><trkpt lat="44.8544217" lon="9.45039"><ele>754.25</ele><time>2026-04-11T13:33:49.001Z</time></trkpt><trkpt lat="44.8544333" lon="9.4505667"><ele>753.5</ele><time>2026-04-11T13:33:50.001Z</time></trkpt><trkpt lat="44.8544533" lon="9.4507417"><ele>752.75</ele><time>2026-04-11T13:33:51.002Z</time></trkpt><trkpt lat="44.8544717" lon="9.4509133"><ele>752.0</ele><time>2026-04-11T13:33:52.002Z</time></trkpt><trkpt lat="44.854485" lon="9.451085"><ele>752.0</ele><time>2026-04-11T13:33:53.001Z</time></trkpt><trkpt lat="44.8545033" lon="9.451255"><ele>752.0</ele><time>2026-04-11T13:33:54.001Z</time></trkpt><trkpt lat="44.8545267" lon="9.4514267"><ele>752.0</ele><time>2026-04-11T13:33:55.001Z</time></trkpt><trkpt lat="44.85455" lon="9.4515967"><ele>752.0</ele><time>2026-04-11T13:33:56.002Z</time></trkpt><trkpt lat="44.8545633" lon="9.45176"><ele>751.25</ele><time>2026-04-11T13:33:57.001Z</time></trkpt><trkpt lat="44.85457" lon="9.451925"><ele>750.5</ele><time>2026-04-11T13:33:58.003Z</time></trkpt><trkpt lat="44.85456" lon="9.4520917"><ele>749.75</ele><time>2026-04-11T13:33:59.003Z</time></trkpt><trkpt lat="44.8545433" lon="9.452255"><ele>749.0</ele><time>2026-04-11T13:34:00.001Z</time></trkpt><trkpt lat="44.8545417" lon="9.4524117"><ele>747.0</ele><time>2026-04-11T13:34:01.002Z</time></trkpt><trkpt lat="44.8545533" lon="9.45257"><ele>745.0</ele><time>2026-04-11T13:34:02.001Z</time></trkpt><trkpt lat="44.8545683" lon="9.4527283"><ele>743.0</ele><time>2026-04-11T13:34:03.001Z</time></trkpt><trkpt lat="44.8545617" lon="9.4528733"><ele>741.0</ele><time>2026-04-11T13:34:04.003Z</time></trkpt><trkpt lat="44.8545233" lon="9.4529917"><ele>739.0</ele><time>2026-04-11T13:34:05.002Z</time></trkpt><trkpt lat="44.8544583" lon="9.4530783"><ele>738.2</ele><time>2026-04-11T13:34:06.003Z</time></trkpt><trkpt lat="44.8543717" lon="9.4531133"><ele>737.4000000000001</ele><time>2026-04-11T13:34:07.002Z</time></trkpt><trkpt lat="44.85427" lon="9.4531067"><ele>736.6</ele><time>2026-04-11T13:34:08.002Z</time></trkpt><trkpt lat="44.854155" lon="9.45308"><ele>735.8</ele><time>2026-04-11T13:34:09.002Z</time></trkpt><trkpt lat="44.854045" lon="9.4530717"><ele>735.0</ele><time>2026-04-11T13:34:10.001Z</time></trkpt><trkpt lat="44.8539317" lon="9.4530933"><ele>729.25</ele><time>2026-04-11T13:34:11.001Z</time></trkpt><trkpt lat="44.8538167" lon="9.4531417"><ele>723.5</ele><time>2026-04-11T13:34:12.001Z</time></trkpt><trkpt lat="44.85371" lon="9.453215"><ele>717.75</ele><time>2026-04-11T13:34:13.001Z</time></trkpt><trkpt lat="44.8536117" lon="9.453305"><ele>712.0</ele><time>2026-04-11T13:34:14.002Z</time></trkpt><trkpt lat="44.8535317" lon="9.4534033"><ele>712.0</ele><time>2026-04-11T13:34:15.002Z</time></trkpt><trkpt lat="44.8534717" lon="9.4535133"><ele>712.0</ele><time>2026-04-11T13:34:16.003Z</time></trkpt><trkpt lat="44.8534383" lon="9.453635"><ele>712.0</ele><time>2026-04-11T13:34:17.002Z</time></trkpt><trkpt lat="44.85343" lon="9.4537683"><ele>712.0</ele><time>2026-04-11T13:34:18.002Z</time></trkpt><trkpt lat="44.853425" lon="9.453915"><ele>712.0</ele><time>2026-04-11T13:34:19.002Z</time></trkpt><trkpt lat="44.8534233" lon="9.4540733"><ele>711.5</ele><time>2026-04-11T13:34:20.002Z</time></trkpt><trkpt lat="44.853405" lon="9.4542383"><ele>711.0</ele><time>2026-04-11T13:34:21.004Z</time></trkpt><trkpt lat="44.8533667" lon="9.4543967"><ele>710.5</ele><time>2026-04-11T13:34:22.001Z</time></trkpt><trkpt lat="44.853305" lon="9.45454"><ele>710.0</ele><time>2026-04-11T13:34:23.003Z</time></trkpt><trkpt lat="44.85323" lon="9.4546717"><ele>710.0</ele><time>2026-04-11T13:34:24.002Z</time></trkpt><trkpt lat="44.853155" lon="9.4547983"><ele>710.0</ele><time>2026-04-11T13:34:25.002Z</time></trkpt><trkpt lat="44.8530817" lon="9.45492"><ele>710.0</ele><time>2026-04-11T13:34:26.001Z</time></trkpt><trkpt lat="44.8530033" lon="9.45503"><ele>710.0</ele><time>2026-04-11T13:34:27.002Z</time></trkpt><trkpt lat="44.852915" lon="9.455115"><ele>710.0</ele><time>2026-04-11T13:34:28.001Z</time></trkpt><trkpt lat="44.8528167" lon="9.4551683"><ele>710.0</ele><time>2026-04-11T13:34:29.001Z</time></trkpt><trkpt lat="44.852705" lon="9.4552"><ele>710.0</ele><time>2026-04-11T13:34:30Z</time></trkpt><trkpt lat="44.8525783" lon="9.455225"><ele>710.0</ele><time>2026-04-11T13:34:31Z</time></trkpt><trkpt lat="44.8524433" lon="9.45525"><ele>710.0</ele><time>2026-04-11T13:34:32.001Z</time></trkpt><trkpt lat="44.8523117" lon="9.4552783"><ele>706.0</ele><time>2026-04-11T13:34:33.001Z</time></trkpt><trkpt lat="44.85219" lon="9.4553017"><ele>702.0</ele><time>2026-04-11T13:34:34.001Z</time></trkpt><trkpt lat="44.85207" lon="9.4553217"><ele>698.0</ele><time>2026-04-11T13:34:35.002Z</time></trkpt><trkpt lat="44.8519533" lon="9.4553467"><ele>694.0</ele><time>2026-04-11T13:34:36.001Z</time></trkpt><trkpt lat="44.8518367" lon="9.4553833"><ele>692.5</ele><time>2026-04-11T13:34:37.001Z</time></trkpt><trkpt lat="44.8517267" lon="9.4554267"><ele>691.0</ele><time>2026-04-11T13:34:38.002Z</time></trkpt><trkpt lat="44.8516183" lon="9.4554683"><ele>689.5</ele><time>2026-04-11T13:34:39.001Z</time></trkpt><trkpt lat="44.8515083" lon="9.455505"><ele>688.0</ele><time>2026-04-11T13:34:40.002Z</time></trkpt><trkpt lat="44.8513967" lon="9.4555417"><ele>688.0</ele><time>2026-04-11T13:34:41Z</time></trkpt><trkpt lat="44.851285" lon="9.4555783"><ele>688.0</ele><time>2026-04-11T13:34:42Z</time></trkpt><trkpt lat="44.8511733" lon="9.45562"><ele>688.0</ele><time>2026-04-11T13:34:43.001Z</time></trkpt><trkpt lat="44.851055" lon="9.4556683"><ele>688.0</ele><time>2026-04-11T13:34:44Z</time></trkpt><trkpt lat="44.8509317" lon="9.4557283"><ele>685.75</ele><time>2026-04-11T13:34:45.002Z</time></trkpt><trkpt lat="44.85081" lon="9.455805"><ele>683.5</ele><time>2026-04-11T13:34:46Z</time></trkpt><trkpt lat="44.8507" lon="9.4558983"><ele>681.25</ele><time>2026-04-11T13:34:47Z</time></trkpt><trkpt lat="44.8506017" lon="9.4560033"><ele>679.0</ele><time>2026-04-11T13:34:48.001Z</time></trkpt><trkpt lat="44.850515" lon="9.4561133"><ele>679.0</ele><time>2026-04-11T13:34:49.003Z</time></trkpt><trkpt lat="44.850435" lon="9.4562217"><ele>679.0</ele><time>2026-04-11T13:34:50.002Z</time></trkpt><trkpt lat="44.8503583" lon="9.4563267"><ele>679.0</ele><time>2026-04-11T13:34:51.002Z</time></trkpt><trkpt lat="44.8502833" lon="9.4564317"><ele>679.0</ele><time>2026-04-11T13:34:52.003Z</time></trkpt><trkpt lat="44.8502083" lon="9.4565367"><ele>679.0</ele><time>2026-04-11T13:34:53.001Z</time></trkpt><trkpt lat="44.850135" lon="9.4566417"><ele>677.8000000000001</ele><time>2026-04-11T13:34:54.001Z</time></trkpt><trkpt lat="44.8500633" lon="9.4567467"><ele>676.6</ele><time>2026-04-11T13:34:55.002Z</time></trkpt><trkpt lat="44.8499967" lon="9.4568517"><ele>675.4</ele><time>2026-04-11T13:34:56.001Z</time></trkpt><trkpt lat="44.8499383" lon="9.4569483"><ele>674.2</ele><time>2026-04-11T13:34:57.001Z</time></trkpt><trkpt lat="44.849895" lon="9.457035"><ele>673.0</ele><time>2026-04-11T13:34:58.002Z</time></trkpt><trkpt lat="44.849835" lon="9.45713"><ele>673.0</ele><time>2026-04-11T13:35:00.001Z</time></trkpt><trkpt lat="44.84975" lon="9.4571283"><ele>673.0</ele><time>2026-04-11T13:35:02Z</time></trkpt><trkpt lat="44.8496867" lon="9.4571283"><ele>673.0</ele><time>2026-04-11T13:35:03.001Z</time></trkpt><trkpt lat="44.8496133" lon="9.4571333"><ele>673.0</ele><time>2026-04-11T13:35:04.001Z</time></trkpt><trkpt lat="44.849535" lon="9.457145"><ele>673.0</ele><time>2026-04-11T13:35:05.001Z</time></trkpt><trkpt lat="44.8494533" lon="9.4571567"><ele>673.0</ele><time>2026-04-11T13:35:06Z</time></trkpt><trkpt lat="44.8493717" lon="9.45717"><ele>672.5</ele><time>2026-04-11T13:35:07.002Z</time></trkpt><trkpt lat="44.8492883" lon="9.4571833"><ele>672.0</ele><time>2026-04-11T13:35:08.001Z</time></trkpt><trkpt lat="44.8492083" lon="9.4571833"><ele>671.5</ele><time>2026-04-11T13:35:09.002Z</time></trkpt><trkpt lat="44.8491267" lon="9.45718"><ele>671.0</ele><time>2026-04-11T13:35:10.001Z</time></trkpt><trkpt lat="44.8490417" lon="9.4571733"><ele>670.5</ele><time>2026-04-11T13:35:11Z</time></trkpt><trkpt lat="44.8489533" lon="9.45717"><ele>670.0</ele><time>2026-04-11T13:35:12.001Z</time></trkpt><trkpt lat="44.8488633" lon="9.4571683"><ele>670.0</ele><time>2026-04-11T13:35:13Z</time></trkpt><trkpt lat="44.8487783" lon="9.4571667"><ele>670.0</ele><time>2026-04-11T13:35:14.001Z</time></trkpt><trkpt lat="44.8486933" lon="9.4571633"><ele>670.0</ele><time>2026-04-11T13:35:15.001Z</time></trkpt><trkpt lat="44.8486017" lon="9.45716"><ele>670.0</ele><time>2026-04-11T13:35:16Z</time></trkpt><trkpt lat="44.8485033" lon="9.4571567"><ele>670.0</ele><time>2026-04-11T13:35:17.001Z</time></trkpt><trkpt lat="44.8484083" lon="9.4571617"><ele>668.0</ele><time>2026-04-11T13:35:18.002Z</time></trkpt><trkpt lat="44.8483133" lon="9.4571717"><ele>666.0</ele><time>2026-04-11T13:35:19.002Z</time></trkpt><trkpt lat="44.8482167" lon="9.4571817"><ele>664.0</ele><time>2026-04-11T13:35:20.001Z</time></trkpt><trkpt lat="44.84812" lon="9.4571883"><ele>662.0</ele><time>2026-04-11T13:35:21.002Z</time></trkpt><trkpt lat="44.848035" lon="9.4571833"><ele>660.0</ele><time>2026-04-11T13:35:22.001Z</time></trkpt><trkpt lat="44.8479617" lon="9.457165"><ele>658.0</ele><time>2026-04-11T13:35:23.001Z</time></trkpt><trkpt lat="44.847895" lon="9.4571317"><ele>657.1666666666667</ele><time>2026-04-11T13:35:24.003Z</time></trkpt><trkpt lat="44.8478283" lon="9.457095"><ele>656.3333333333334</ele><time>2026-04-11T13:35:25.001Z</time></trkpt><trkpt lat="44.8477567" lon="9.457075"><ele>655.5</ele><time>2026-04-11T13:35:26.002Z</time></trkpt><trkpt lat="44.84768" lon="9.457065"><ele>654.6666666666666</ele><time>2026-04-11T13:35:27.002Z</time></trkpt><trkpt lat="44.8475983" lon="9.4570583"><ele>653.8333333333333</ele><time>2026-04-11T13:35:28.001Z</time></trkpt><trkpt lat="44.847515" lon="9.4570517"><ele>653.0</ele><time>2026-04-11T13:35:29.001Z</time></trkpt><trkpt lat="44.8474333" lon="9.4570483"><ele>651.5</ele><time>2026-04-11T13:35:30.001Z</time></trkpt><trkpt lat="44.8473533" lon="9.4570517"><ele>650.0</ele><time>2026-04-11T13:35:31.002Z</time></trkpt><trkpt lat="44.8472767" lon="9.457065"><ele>648.5</ele><time>2026-04-11T13:35:32.001Z</time></trkpt><trkpt lat="44.8472067" lon="9.457095"><ele>647.0</ele><time>2026-04-11T13:35:33.001Z</time></trkpt><trkpt lat="44.8471417" lon="9.457145"><ele>645.5</ele><time>2026-04-11T13:35:34.003Z</time></trkpt><trkpt lat="44.84708" lon="9.45721"><ele>644.0</ele><time>2026-04-11T13:35:35.001Z</time></trkpt><trkpt lat="44.847015" lon="9.4572867"><ele>643.8571428571429</ele><time>2026-04-11T13:35:36.001Z</time></trkpt><trkpt lat="44.8469517" lon="9.45736"><ele>643.7142857142858</ele><time>2026-04-11T13:35:37.001Z</time></trkpt><trkpt lat="44.8468883" lon="9.4574233"><ele>643.5714285714286</ele><time>2026-04-11T13:35:38Z</time></trkpt><trkpt lat="44.8468217" lon="9.4574833"><ele>643.4285714285714</ele><time>2026-04-11T13:35:39.001Z</time></trkpt><trkpt lat="44.8467583" lon="9.4575367"><ele>643.2857142857143</ele><time>2026-04-11T13:35:40Z</time></trkpt><trkpt lat="44.8466983" lon="9.45758"><ele>643.1428571428571</ele><time>2026-04-11T13:35:41.001Z</time></trkpt><trkpt lat="44.84664" lon="9.4576183"><ele>643.0</ele><time>2026-04-11T13:35:42Z</time></trkpt><trkpt lat="44.8465333" lon="9.457705"><ele>640.8333333333334</ele><time>2026-04-11T13:35:44.001Z</time></trkpt><trkpt lat="44.8464783" lon="9.45775"><ele>638.6666666666667</ele><time>2026-04-11T13:35:45.003Z</time></trkpt><trkpt lat="44.8464133" lon="9.457785"><ele>636.5</ele><time>2026-04-11T13:35:46.001Z</time></trkpt><trkpt lat="44.8463417" lon="9.4577983"><ele>634.3333333333334</ele><time>2026-04-11T13:35:47Z</time></trkpt><trkpt lat="44.8462583" lon="9.457795"><ele>632.1666666666666</ele><time>2026-04-11T13:35:48.002Z</time></trkpt><trkpt lat="44.8461667" lon="9.457785"><ele>630.0</ele><time>2026-04-11T13:35:49.002Z</time></trkpt><trkpt lat="44.8460767" lon="9.45778"><ele>630.0</ele><time>2026-04-11T13:35:50.003Z</time></trkpt><trkpt lat="44.8459967" lon="9.45778"><ele>630.0</ele><time>2026-04-11T13:35:51.003Z</time></trkpt><trkpt lat="44.8459283" lon="9.4577783"><ele>630.0</ele><time>2026-04-11T13:35:52.001Z</time></trkpt><trkpt lat="44.8458167" lon="9.4577567"><ele>630.0</ele><time>2026-04-11T13:35:54.002Z</time></trkpt><trkpt lat="44.8457517" lon="9.45774"><ele>630.0</ele><time>2026-04-11T13:35:55.001Z</time></trkpt><trkpt lat="44.8456867" lon="9.4577167"><ele>630.0</ele><time>2026-04-11T13:35:56.001Z</time></trkpt><trkpt lat="44.8456183" lon="9.4576733"><ele>627.5</ele><time>2026-04-11T13:35:57.001Z</time></trkpt><trkpt lat="44.8455483" lon="9.4576233"><ele>625.0</ele><time>2026-04-11T13:35:58.002Z</time></trkpt><trkpt lat="44.84548" lon="9.457575"><ele>622.5</ele><time>2026-04-11T13:35:59.002Z</time></trkpt><trkpt lat="44.8454083" lon="9.4575283"><ele>620.0</ele><time>2026-04-11T13:36:00.002Z</time></trkpt><trkpt lat="44.8453283" lon="9.4574867"><ele>617.5</ele><time>2026-04-11T13:36:01.002Z</time></trkpt><trkpt lat="44.8452383" lon="9.45745"><ele>615.0</ele><time>2026-04-11T13:36:02.002Z</time></trkpt><trkpt lat="44.845145" lon="9.45742"><ele>612.4</ele><time>2026-04-11T13:36:03.002Z</time></trkpt><trkpt lat="44.8450467" lon="9.4574"><ele>609.8</ele><time>2026-04-11T13:36:04Z</time></trkpt><trkpt lat="44.84495" lon="9.45738"><ele>607.2</ele><time>2026-04-11T13:36:05.001Z</time></trkpt><trkpt lat="44.8448583" lon="9.4573567"><ele>604.6</ele><time>2026-04-11T13:36:06.001Z</time></trkpt><trkpt lat="44.84477" lon="9.4573217"><ele>602.0</ele><time>2026-04-11T13:36:07Z</time></trkpt><trkpt lat="44.8446817" lon="9.4572817"><ele>602.0</ele><time>2026-04-11T13:36:08.001Z</time></trkpt><trkpt lat="44.8445967" lon="9.4572433"><ele>602.0</ele><time>2026-04-11T13:36:09.001Z</time></trkpt><trkpt lat="44.8445117" lon="9.45721"><ele>602.0</ele><time>2026-04-11T13:36:10.001Z</time></trkpt><trkpt lat="44.8444367" lon="9.457185"><ele>602.0</ele><time>2026-04-11T13:36:11Z</time></trkpt><trkpt lat="44.84436" lon="9.457175"><ele>602.0</ele><time>2026-04-11T13:36:12.001Z</time></trkpt><trkpt lat="44.84428" lon="9.4572017"><ele>602.0</ele><time>2026-04-11T13:36:13.001Z</time></trkpt><trkpt lat="44.8441933" lon="9.457225"><ele>599.0</ele><time>2026-04-11T13:36:14.001Z</time></trkpt><trkpt lat="44.844105" lon="9.45722"><ele>596.0</ele><time>2026-04-11T13:36:15.002Z</time></trkpt><trkpt lat="44.84401" lon="9.4571933"><ele>593.0</ele><time>2026-04-11T13:36:16Z</time></trkpt><trkpt lat="44.8439167" lon="9.45715"><ele>590.0</ele><time>2026-04-11T13:36:17.001Z</time></trkpt><trkpt lat="44.843825" lon="9.4571017"><ele>587.0</ele><time>2026-04-11T13:36:18.001Z</time></trkpt><trkpt lat="44.8437317" lon="9.457055"><ele>586.1666666666666</ele><time>2026-04-11T13:36:19.001Z</time></trkpt><trkpt lat="44.8436417" lon="9.4570217"><ele>585.3333333333333</ele><time>2026-04-11T13:36:20.003Z</time></trkpt><trkpt lat="44.8435567" lon="9.4569983"><ele>584.5</ele><time>2026-04-11T13:36:21.002Z</time></trkpt><trkpt lat="44.8434833" lon="9.4569733"><ele>583.6666666666666</ele><time>2026-04-11T13:36:22.003Z</time></trkpt><trkpt lat="44.8434183" lon="9.45695"><ele>582.8333333333334</ele><time>2026-04-11T13:36:23.002Z</time></trkpt><trkpt lat="44.8433583" lon="9.4569133"><ele>582.0</ele><time>2026-04-11T13:36:24.001Z</time></trkpt><trkpt lat="44.84331" lon="9.45685"><ele>581.0</ele><time>2026-04-11T13:36:25.001Z</time></trkpt><trkpt lat="44.8432783" lon="9.456765"><ele>580.0</ele><time>2026-04-11T13:36:26Z</time></trkpt><trkpt lat="44.84325" lon="9.45667"><ele>579.0</ele><time>2026-04-11T13:36:27.004Z</time></trkpt><trkpt lat="44.84322" lon="9.4565783"><ele>578.0</ele><time>2026-04-11T13:36:28.001Z</time></trkpt><trkpt lat="44.843185" lon="9.4564867"><ele>577.0</ele><time>2026-04-11T13:36:29.001Z</time></trkpt><trkpt lat="44.8431367" lon="9.456415"><ele>576.0</ele><time>2026-04-11T13:36:30.001Z</time></trkpt><trkpt lat="44.843065" lon="9.4563583"><ele>575.0</ele><time>2026-04-11T13:36:31Z</time></trkpt><trkpt lat="44.8429867" lon="9.4562917"><ele>572.8333333333333</ele><time>2026-04-11T13:36:32.001Z</time></trkpt><trkpt lat="44.84288" lon="9.4562383"><ele>570.6666666666666</ele><time>2026-04-11T13:36:33.002Z</time></trkpt><trkpt lat="44.8427917" lon="9.45622"><ele>568.5</ele><time>2026-04-11T13:36:34.002Z</time></trkpt><trkpt lat="44.8427067" lon="9.4562117"><ele>566.3333333333334</ele><time>2026-04-11T13:36:35.003Z</time></trkpt><trkpt lat="44.8426317" lon="9.4561917"><ele>564.1666666666667</ele><time>2026-04-11T13:36:36.001Z</time></trkpt><trkpt lat="44.8425633" lon="9.4561483"><ele>562.0</ele><time>2026-04-11T13:36:37.003Z</time></trkpt><trkpt lat="44.8424983" lon="9.4560933"><ele>561.0</ele><time>2026-04-11T13:36:38.002Z</time></trkpt><trkpt lat="44.84244" lon="9.4560217"><ele>560.0</ele><time>2026-04-11T13:36:39.002Z</time></trkpt><trkpt lat="44.842345" lon="9.455945"><ele>559.0</ele><time>2026-04-11T13:36:41.001Z</time></trkpt><trkpt lat="44.8422767" lon="9.4559167"><ele>558.0</ele><time>2026-04-11T13:36:42.002Z</time></trkpt><trkpt lat="44.8422033" lon="9.455895"><ele>557.0</ele><time>2026-04-11T13:36:43.002Z</time></trkpt><trkpt lat="44.842125" lon="9.4557983"><ele>556.0</ele><time>2026-04-11T13:36:45.002Z</time></trkpt><trkpt lat="44.8421083" lon="9.4556433"><ele>556.0</ele><time>2026-04-11T13:36:47.001Z</time></trkpt><trkpt lat="44.8421283" lon="9.4555567"><ele>556.0</ele><time>2026-04-11T13:36:48.001Z</time></trkpt><trkpt lat="44.8421867" lon="9.4554133"><ele>556.0</ele><time>2026-04-11T13:36:50.002Z</time></trkpt><trkpt lat="44.8422383" lon="9.4552533"><ele>556.0</ele><time>2026-04-11T13:36:52.001Z</time></trkpt><trkpt lat="44.84225" lon="9.4551533"><ele>556.0</ele><time>2026-04-11T13:36:53.003Z</time></trkpt><trkpt lat="44.8422517" lon="9.45498"><ele>553.5714285714286</ele><time>2026-04-11T13:36:55.002Z</time></trkpt><trkpt lat="44.8421917" lon="9.4549433"><ele>551.1428571428571</ele><time>2026-04-11T13:36:56.001Z</time></trkpt><trkpt lat="44.842115" lon="9.4549333"><ele>548.7142857142858</ele><time>2026-04-11T13:36:57.002Z</time></trkpt><trkpt lat="44.84204" lon="9.454945"><ele>546.2857142857142</ele><time>2026-04-11T13:36:58.001Z</time></trkpt><trkpt lat="44.841965" lon="9.4549683"><ele>543.8571428571429</ele><time>2026-04-11T13:36:59Z</time></trkpt><trkpt lat="44.8419033" lon="9.4550183"><ele>541.4285714285714</ele><time>2026-04-11T13:37:00.001Z</time></trkpt><trkpt lat="44.8418383" lon="9.4550683"><ele>539.0</ele><time>2026-04-11T13:37:01.001Z</time></trkpt><trkpt lat="44.8417717" lon="9.4551067"><ele>537.0</ele><time>2026-04-11T13:37:02.001Z</time></trkpt><trkpt lat="44.841705" lon="9.4551383"><ele>535.0</ele><time>2026-04-11T13:37:03.002Z</time></trkpt><trkpt lat="44.8416367" lon="9.4551767"><ele>533.0</ele><time>2026-04-11T13:37:04.002Z</time></trkpt><trkpt lat="44.84157" lon="9.45522"><ele>531.0</ele><time>2026-04-11T13:37:05.002Z</time></trkpt><trkpt lat="44.8415067" lon="9.455275"><ele>529.0</ele><time>2026-04-11T13:37:06.001Z</time></trkpt><trkpt lat="44.8414433" lon="9.455335"><ele>527.0</ele><time>2026-04-11T13:37:07.002Z</time></trkpt><trkpt lat="44.841375" lon="9.455395"><ele>525.0</ele><time>2026-04-11T13:37:08.001Z</time></trkpt><trkpt lat="44.8413033" lon="9.4554533"><ele>526.6666666666666</ele><time>2026-04-11T13:37:09.001Z</time></trkpt><trkpt lat="44.84123" lon="9.4555017"><ele>528.3333333333334</ele><time>2026-04-11T13:37:10.002Z</time></trkpt><trkpt lat="44.8411567" lon="9.4555433"><ele>530.0</ele><time>2026-04-11T13:37:11.001Z</time></trkpt><trkpt lat="44.8410783" lon="9.4555733"><ele>531.6666666666667</ele><time>2026-04-11T13:37:12.001Z</time></trkpt><trkpt lat="44.8410033" lon="9.4555917"><ele>533.3333333333334</ele><time>2026-04-11T13:37:13.002Z</time></trkpt><trkpt lat="44.8409383" lon="9.4555967"><ele>535.0</ele><time>2026-04-11T13:37:14.002Z</time></trkpt><trkpt lat="44.8408667" lon="9.4556"><ele>528.6</ele><time>2026-04-11T13:37:15.001Z</time></trkpt><trkpt lat="44.840795" lon="9.4556033"><ele>522.2</ele><time>2026-04-11T13:37:16.001Z</time></trkpt><trkpt lat="44.8406867" lon="9.45565"><ele>515.8</ele><time>2026-04-11T13:37:18.001Z</time></trkpt><trkpt lat="44.8406417" lon="9.455825"><ele>509.4</ele><time>2026-04-11T13:37:20.001Z</time></trkpt><trkpt lat="44.8406133" lon="9.4559317"><ele>503.0</ele><time>2026-04-11T13:37:21.002Z</time></trkpt><trkpt lat="44.840585" lon="9.45604"><ele>502.99999999999994</ele><time>2026-04-11T13:37:22.001Z</time></trkpt><trkpt lat="44.840555" lon="9.4561417"><ele>503.0</ele><time>2026-04-11T13:37:23.001Z</time></trkpt><trkpt lat="44.8405233" lon="9.45622"><ele>503.0</ele><time>2026-04-11T13:37:24.002Z</time></trkpt><trkpt lat="44.8404483" lon="9.456275"><ele>503.0</ele><time>2026-04-11T13:37:26.002Z</time></trkpt><trkpt lat="44.8403683" lon="9.456245"><ele>502.99999999999994</ele><time>2026-04-11T13:37:28Z</time></trkpt><trkpt lat="44.84029" lon="9.4563167"><ele>503.0</ele><time>2026-04-11T13:37:30Z</time></trkpt><trkpt lat="44.8401867" lon="9.4563867"><ele>499.3333333333333</ele><time>2026-04-11T13:37:32.001Z</time></trkpt><trkpt lat="44.84012" lon="9.4564783"><ele>495.66666666666663</ele><time>2026-04-11T13:37:34.002Z</time></trkpt><trkpt lat="44.8401067" lon="9.456585"><ele>492.0</ele><time>2026-04-11T13:37:35.001Z</time></trkpt><trkpt lat="44.8400933" lon="9.45671"><ele>488.33333333333337</ele><time>2026-04-11T13:37:36.002Z</time></trkpt><trkpt lat="44.84008" lon="9.4568417"><ele>484.6666666666667</ele><time>2026-04-11T13:37:37.001Z</time></trkpt><trkpt lat="44.8400583" lon="9.4569683"><ele>481.0</ele><time>2026-04-11T13:37:38.001Z</time></trkpt><trkpt lat="44.8400117" lon="9.4570783"><ele>481.6</ele><time>2026-04-11T13:37:39.002Z</time></trkpt><trkpt lat="44.8399433" lon="9.45717"><ele>482.20000000000005</ele><time>2026-04-11T13:37:40Z</time></trkpt><trkpt lat="44.8398767" lon="9.4572667"><ele>482.79999999999995</ele><time>2026-04-11T13:37:41.001Z</time></trkpt><trkpt lat="44.8398217" lon="9.457365"><ele>483.4</ele><time>2026-04-11T13:37:42.001Z</time></trkpt><trkpt lat="44.83977" lon="9.4574417"><ele>484.0</ele><time>2026-04-11T13:37:43.001Z</time></trkpt><trkpt lat="44.839665" lon="9.45745"><ele>484.0</ele><time>2026-04-11T13:37:45.001Z</time></trkpt><trkpt lat="44.8396367" lon="9.45727"><ele>484.0</ele><time>2026-04-11T13:37:47Z</time></trkpt><trkpt lat="44.8396533" lon="9.4571567"><ele>484.0</ele><time>2026-04-11T13:37:48.001Z</time></trkpt><trkpt lat="44.8396867" lon="9.4570383"><ele>484.0</ele><time>2026-04-11T13:37:49.001Z</time></trkpt><trkpt lat="44.8397133" lon="9.4569233"><ele>484.0</ele><time>2026-04-11T13:37:50.002Z</time></trkpt><trkpt lat="44.8397283" lon="9.4568083"><ele>483.50000000000006</ele><time>2026-04-11T13:37:51.001Z</time></trkpt><trkpt lat="44.839725" lon="9.4566917"><ele>483.0</ele><time>2026-04-11T13:37:52Z</time></trkpt><trkpt lat="44.8396933" lon="9.4565733"><ele>482.5</ele><time>2026-04-11T13:37:53.001Z</time></trkpt><trkpt lat="44.839655" lon="9.456455"><ele>482.0</ele><time>2026-04-11T13:37:54Z</time></trkpt><trkpt lat="44.839625" lon="9.4563417"><ele>481.50000000000006</ele><time>2026-04-11T13:37:55Z</time></trkpt><trkpt lat="44.8396033" lon="9.4562367"><ele>481.0</ele><time>2026-04-11T13:37:56.001Z</time></trkpt><trkpt lat="44.8395917" lon="9.4561367"><ele>480.8</ele><time>2026-04-11T13:37:57.003Z</time></trkpt><trkpt lat="44.8395933" lon="9.45604"><ele>480.6</ele><time>2026-04-11T13:37:58.001Z</time></trkpt><trkpt lat="44.8396183" lon="9.45594"><ele>480.4</ele><time>2026-04-11T13:37:59.001Z</time></trkpt><trkpt lat="44.8396617" lon="9.4558317"><ele>480.2</ele><time>2026-04-11T13:38:00.006Z</time></trkpt><trkpt lat="44.8397233" lon="9.455705"><ele>480.0</ele><time>2026-04-11T13:38:01.001Z</time></trkpt><trkpt lat="44.839775" lon="9.4555633"><ele>478.5</ele><time>2026-04-11T13:38:02.001Z</time></trkpt><trkpt lat="44.8398117" lon="9.4554"><ele>477.0</ele><time>2026-04-11T13:38:03.002Z</time></trkpt><trkpt lat="44.8398333" lon="9.4552117"><ele>475.5</ele><time>2026-04-11T13:38:04.001Z</time></trkpt><trkpt lat="44.8398517" lon="9.4550083"><ele>474.0</ele><time>2026-04-11T13:38:05.001Z</time></trkpt><trkpt lat="44.83987" lon="9.454815"><ele>474.0</ele><time>2026-04-11T13:38:06.001Z</time></trkpt><trkpt lat="44.83989" lon="9.4546483"><ele>474.0</ele><time>2026-04-11T13:38:07.001Z</time></trkpt><trkpt lat="44.8399083" lon="9.4545083"><ele>474.0</ele><time>2026-04-11T13:38:08.002Z</time></trkpt><trkpt lat="44.8399267" lon="9.454385"><ele>474.0</ele><time>2026-04-11T13:38:09.001Z</time></trkpt><trkpt lat="44.8399533" lon="9.4542717"><ele>474.0</ele><time>2026-04-11T13:38:10.001Z</time></trkpt><trkpt lat="44.8399967" lon="9.4541567"><ele>473.79999999999995</ele><time>2026-04-11T13:38:11.001Z</time></trkpt><trkpt lat="44.84005" lon="9.4540283"><ele>473.59999999999997</ele><time>2026-04-11T13:38:12.001Z</time></trkpt><trkpt lat="44.8401067" lon="9.4538933"><ele>473.4</ele><time>2026-04-11T13:38:13.002Z</time></trkpt><trkpt lat="44.8401733" lon="9.4537633"><ele>473.2</ele><time>2026-04-11T13:38:14.001Z</time></trkpt><trkpt lat="44.8402483" lon="9.4536383"><ele>473.0</ele><time>2026-04-11T13:38:15.001Z</time></trkpt><trkpt lat="44.84033" lon="9.4535367"><ele>473.0</ele><time>2026-04-11T13:38:16.001Z</time></trkpt><trkpt lat="44.8404283" lon="9.4534767"><ele>473.0</ele><time>2026-04-11T13:38:17.001Z</time></trkpt><trkpt lat="44.840545" lon="9.45342"><ele>473.0</ele><time>2026-04-11T13:38:18.001Z</time></trkpt><trkpt lat="44.84068" lon="9.4533533"><ele>473.0</ele><time>2026-04-11T13:38:19.001Z</time></trkpt><trkpt lat="44.840815" lon="9.4532667"><ele>473.0</ele><time>2026-04-11T13:38:20Z</time></trkpt><trkpt lat="44.8409417" lon="9.453185"><ele>473.0</ele><time>2026-04-11T13:38:21.001Z</time></trkpt><trkpt lat="44.841055" lon="9.4531167"><ele>473.0</ele><time>2026-04-11T13:38:22.001Z</time></trkpt><trkpt lat="44.8411533" lon="9.45305"><ele>473.0</ele><time>2026-04-11T13:38:23.004Z</time></trkpt><trkpt lat="44.84123" lon="9.4529567"><ele>477.2</ele><time>2026-04-11T13:38:24.001Z</time></trkpt><trkpt lat="44.8412817" lon="9.4528367"><ele>481.4</ele><time>2026-04-11T13:38:25.001Z</time></trkpt><trkpt lat="44.84131" lon="9.4527033"><ele>485.59999999999997</ele><time>2026-04-11T13:38:26.002Z</time></trkpt><trkpt lat="44.841315" lon="9.4525533"><ele>489.79999999999995</ele><time>2026-04-11T13:38:27.001Z</time></trkpt><trkpt lat="44.84131" lon="9.4524017"><ele>494.0</ele><time>2026-04-11T13:38:28.001Z</time></trkpt><trkpt lat="44.8412967" lon="9.4522517"><ele>495.0</ele><time>2026-04-11T13:38:29.001Z</time></trkpt><trkpt lat="44.841285" lon="9.4520967"><ele>496.0</ele><time>2026-04-11T13:38:30.001Z</time></trkpt><trkpt lat="44.8412817" lon="9.451945"><ele>497.0</ele><time>2026-04-11T13:38:31Z</time></trkpt><trkpt lat="44.841295" lon="9.4517867"><ele>498.0</ele><time>2026-04-11T13:38:32.002Z</time></trkpt><trkpt lat="44.8413183" lon="9.4516317"><ele>499.0</ele><time>2026-04-11T13:38:33.001Z</time></trkpt><trkpt lat="44.8413383" lon="9.4514917"><ele>499.00000000000006</ele><time>2026-04-11T13:38:34.001Z</time></trkpt><trkpt lat="44.8413533" lon="9.45137"><ele>499.0</ele><time>2026-04-11T13:38:35.001Z</time></trkpt><trkpt lat="44.84136" lon="9.4512567"><ele>499.0</ele><time>2026-04-11T13:38:36Z</time></trkpt><trkpt lat="44.8413533" lon="9.451155"><ele>499.0</ele><time>2026-04-11T13:38:37.001Z</time></trkpt><trkpt lat="44.8413283" lon="9.4510667"><ele>499.00000000000006</ele><time>2026-04-11T13:38:38.001Z</time></trkpt><trkpt lat="44.841245" lon="9.4509733"><ele>499.0</ele><time>2026-04-11T13:38:40.001Z</time></trkpt><trkpt lat="44.8411583" lon="9.4509817"><ele>498.0</ele><time>2026-04-11T13:38:42.003Z</time></trkpt><trkpt lat="44.8410767" lon="9.4510367"><ele>497.0</ele><time>2026-04-11T13:38:44.002Z</time></trkpt><trkpt lat="44.8410133" lon="9.451125"><ele>496.0</ele><time>2026-04-11T13:38:46.002Z</time></trkpt><trkpt lat="44.8409767" lon="9.4512417"><ele>495.0</ele><time>2026-04-11T13:38:48.003Z</time></trkpt><trkpt lat="44.84095" lon="9.4513767"><ele>494.0</ele><time>2026-04-11T13:38:50.001Z</time></trkpt><trkpt lat="44.8409583" lon="9.451545"><ele>490.49999999999994</ele><time>2026-04-11T13:38:52.002Z</time></trkpt><trkpt lat="44.8409617" lon="9.45172"><ele>487.0</ele><time>2026-04-11T13:38:54.002Z</time></trkpt><trkpt lat="44.8409083" lon="9.4518467"><ele>483.5</ele><time>2026-04-11T13:38:56.002Z</time></trkpt><trkpt lat="44.8408583" lon="9.4519083"><ele>480.0</ele><time>2026-04-11T13:38:57.002Z</time></trkpt><trkpt lat="44.840805" lon="9.4519667"><ele>476.49999999999994</ele><time>2026-04-11T13:38:58.001Z</time></trkpt><trkpt lat="44.8407467" lon="9.4520167"><ele>473.0</ele><time>2026-04-11T13:38:59.002Z</time></trkpt><trkpt lat="44.8406833" lon="9.45206"><ele>472.99999999999994</ele><time>2026-04-11T13:39:00.002Z</time></trkpt><trkpt lat="44.84062" lon="9.4521067"><ele>473.0</ele><time>2026-04-11T13:39:01.001Z</time></trkpt><trkpt lat="44.84056" lon="9.4521533"><ele>473.0</ele><time>2026-04-11T13:39:02.001Z</time></trkpt><trkpt lat="44.8404583" lon="9.45223"><ele>473.0</ele><time>2026-04-11T13:39:04.001Z</time></trkpt><trkpt lat="44.8403867" lon="9.4523"><ele>472.99999999999994</ele><time>2026-04-11T13:39:06.002Z</time></trkpt><trkpt lat="44.8403" lon="9.4523467"><ele>473.0</ele><time>2026-04-11T13:39:08.001Z</time></trkpt><trkpt lat="44.8402117" lon="9.4524067"><ele>469.8333333333333</ele><time>2026-04-11T13:39:10.002Z</time></trkpt><trkpt lat="44.8400983" lon="9.4524083"><ele>466.66666666666663</ele><time>2026-04-11T13:39:12.001Z</time></trkpt><trkpt lat="44.8400283" lon="9.4524"><ele>463.5</ele><time>2026-04-11T13:39:13.001Z</time></trkpt><trkpt lat="44.83996" lon="9.4523933"><ele>460.33333333333337</ele><time>2026-04-11T13:39:14.002Z</time></trkpt><trkpt lat="44.8398967" lon="9.4523833"><ele>457.1666666666667</ele><time>2026-04-11T13:39:15.001Z</time></trkpt><trkpt lat="44.839805" lon="9.4523833"><ele>454.0</ele><time>2026-04-11T13:39:17.002Z</time></trkpt><trkpt lat="44.8396933" lon="9.4524083"><ele>454.00000000000006</ele><time>2026-04-11T13:39:19.001Z</time></trkpt><trkpt lat="44.8396267" lon="9.45242"><ele>454.0</ele><time>2026-04-11T13:39:20.003Z</time></trkpt><trkpt lat="44.83956" lon="9.4524317"><ele>454.0</ele><time>2026-04-11T13:39:21.003Z</time></trkpt><trkpt lat="44.8394967" lon="9.4524467"><ele>454.0</ele><time>2026-04-11T13:39:22.003Z</time></trkpt><trkpt lat="44.8393717" lon="9.45249"><ele>454.00000000000006</ele><time>2026-04-11T13:39:24.002Z</time></trkpt><trkpt lat="44.8393117" lon="9.4525283"><ele>454.0</ele><time>2026-04-11T13:39:25.001Z</time></trkpt><trkpt lat="44.839245" lon="9.4525667"><ele>453.00000000000006</ele><time>2026-04-11T13:39:26.002Z</time></trkpt><trkpt lat="44.83918" lon="9.452615"><ele>452.0</ele><time>2026-04-11T13:39:27.003Z</time></trkpt><trkpt lat="44.8391183" lon="9.45266"><ele>451.0</ele><time>2026-04-11T13:39:28.001Z</time></trkpt><trkpt lat="44.8390183" lon="9.4527483"><ele>450.0</ele><time>2026-04-11T13:39:30.002Z</time></trkpt><trkpt lat="44.838945" lon="9.45283"><ele>449.00000000000006</ele><time>2026-04-11T13:39:32.001Z</time></trkpt><trkpt lat="44.838895" lon="9.4529333"><ele>448.0</ele><time>2026-04-11T13:39:34.001Z</time></trkpt><trkpt lat="44.8388467" lon="9.45304"><ele>447.00000000000006</ele><time>2026-04-11T13:39:36.001Z</time></trkpt><trkpt lat="44.83878" lon="9.453125"><ele>446.0</ele><time>2026-04-11T13:39:38.001Z</time></trkpt><trkpt lat="44.838705" lon="9.4531933"><ele>445.0</ele><time>2026-04-11T13:39:40.001Z</time></trkpt><trkpt lat="44.838625" lon="9.4532367"><ele>444.0</ele><time>2026-04-11T13:39:42.003Z</time></trkpt><trkpt lat="44.8385433" lon="9.4532433"><ele>443.00000000000006</ele><time>2026-04-11T13:39:44.002Z</time></trkpt><trkpt lat="44.83848" lon="9.453265"><ele>442.0</ele><time>2026-04-11T13:39:46.001Z</time></trkpt><trkpt lat="44.838395" lon="9.4533333"><ele>440.42857142857144</ele><time>2026-04-11T13:39:49.004Z</time></trkpt><trkpt lat="44.8383283" lon="9.45337"><ele>438.8571428571429</ele><time>2026-04-11T13:39:51.003Z</time></trkpt><trkpt lat="44.8382683" lon="9.4534017"><ele>437.28571428571433</ele><time>2026-04-11T13:39:53.002Z</time></trkpt><trkpt lat="44.838205" lon="9.45345"><ele>435.7142857142857</ele><time>2026-04-11T13:39:55.002Z</time></trkpt><trkpt lat="44.8381433" lon="9.4535017"><ele>434.1428571428571</ele><time>2026-04-11T13:39:57.003Z</time></trkpt><trkpt lat="44.8380867" lon="9.4535517"><ele>432.5714285714286</ele><time>2026-04-11T13:39:59.003Z</time></trkpt><trkpt lat="44.8380167" lon="9.4536017"><ele>431.0</ele><time>2026-04-11T13:40:03.003Z</time></trkpt><trkpt lat="44.8379517" lon="9.4536183"><ele>430.99999999999994</ele><time>2026-04-11T13:40:08.002Z</time></trkpt><trkpt lat="44.8378833" lon="9.4536433"><ele>431.0</ele><time>2026-04-11T13:40:11.002Z</time></trkpt><trkpt lat="44.8377933" lon="9.4536633"><ele>431.0</ele><time>2026-04-11T13:40:14.002Z</time></trkpt><trkpt lat="44.8377333" lon="9.4537"><ele>431.0</ele><time>2026-04-11T13:40:16.001Z</time></trkpt><trkpt lat="44.8376733" lon="9.4537867"><ele>430.99999999999994</ele><time>2026-04-11T13:40:31.002Z</time></trkpt><trkpt lat="44.8375867" lon="9.4538417"><ele>431.0</ele><time>2026-04-11T13:40:33.001Z</time></trkpt><trkpt lat="44.8374967" lon="9.4538717"><ele>427.75</ele><time>2026-04-11T13:40:35.001Z</time></trkpt><trkpt lat="44.837395" lon="9.45391"><ele>424.5</ele><time>2026-04-11T13:40:37.003Z</time></trkpt><trkpt lat="44.8372883" lon="9.4539933"><ele>421.25</ele><time>2026-04-11T13:40:39.002Z</time></trkpt><trkpt lat="44.837185" lon="9.4540633"><ele>418.0</ele><time>2026-04-11T13:40:41.003Z</time></trkpt><trkpt lat="44.8370783" lon="9.4541567"><ele>418.0</ele><time>2026-04-11T13:40:43.002Z</time></trkpt><trkpt lat="44.83702" lon="9.4542083"><ele>418.0</ele><time>2026-04-11T13:40:44.002Z</time></trkpt><trkpt lat="44.8369633" lon="9.4542583"><ele>418.0</ele><time>2026-04-11T13:40:45.001Z</time></trkpt><trkpt lat="44.836875" lon="9.4543617"><ele>418.0</ele><time>2026-04-11T13:40:47.001Z</time></trkpt><trkpt lat="44.83682" lon="9.454485"><ele>418.0</ele><time>2026-04-11T13:40:49.003Z</time></trkpt><trkpt lat="44.8367767" lon="9.4546217"><ele>414.5</ele><time>2026-04-11T13:40:51.002Z</time></trkpt><trkpt lat="44.83674" lon="9.4547767"><ele>411.0</ele><time>2026-04-11T13:40:53.002Z</time></trkpt><trkpt lat="44.83671" lon="9.4549383"><ele>407.5</ele><time>2026-04-11T13:40:55.002Z</time></trkpt><trkpt lat="44.8366617" lon="9.4550867"><ele>404.0</ele><time>2026-04-11T13:40:57.003Z</time></trkpt><trkpt lat="44.8366267" lon="9.4552367"><ele>404.0</ele><time>2026-04-11T13:40:59.003Z</time></trkpt><trkpt lat="44.83659" lon="9.4553783"><ele>404.0</ele><time>2026-04-11T13:41:01.001Z</time></trkpt><trkpt lat="44.836535" lon="9.4555083"><ele>404.0</ele><time>2026-04-11T13:41:03.002Z</time></trkpt><trkpt lat="44.836475" lon="9.455635"><ele>404.0</ele><time>2026-04-11T13:41:05.001Z</time></trkpt><trkpt lat="44.8363917" lon="9.45574"><ele>404.0</ele><time>2026-04-11T13:41:07.001Z</time></trkpt><trkpt lat="44.8362917" lon="9.4557933"><ele>402.6</ele><time>2026-04-11T13:41:09.001Z</time></trkpt><trkpt lat="44.8361933" lon="9.4557617"><ele>401.2</ele><time>2026-04-11T13:41:11.001Z</time></trkpt><trkpt lat="44.8361217" lon="9.455695"><ele>399.8</ele><time>2026-04-11T13:41:13.002Z</time></trkpt><trkpt lat="44.83604" lon="9.4556933"><ele>398.40000000000003</ele><time>2026-04-11T13:41:15.002Z</time></trkpt><trkpt lat="44.8359583" lon="9.4557483"><ele>397.0</ele><time>2026-04-11T13:41:17.001Z</time></trkpt><trkpt lat="44.8358783" lon="9.4558233"><ele>395.8</ele><time>2026-04-11T13:41:19.004Z</time></trkpt><trkpt lat="44.8357817" lon="9.4558583"><ele>394.6</ele><time>2026-04-11T13:41:21.003Z</time></trkpt><trkpt lat="44.8357067" lon="9.4558917"><ele>393.40000000000003</ele><time>2026-04-11T13:41:23.002Z</time></trkpt><trkpt lat="44.8356383" lon="9.4559483"><ele>392.20000000000005</ele><time>2026-04-11T13:41:25.002Z</time></trkpt><trkpt lat="44.83561" lon="9.4560667"><ele>391.0</ele><time>2026-04-11T13:41:27.003Z</time></trkpt><trkpt lat="44.8355983" lon="9.4562117"><ele>390.6</ele><time>2026-04-11T13:41:29.002Z</time></trkpt><trkpt lat="44.8355533" lon="9.4563267"><ele>390.20000000000005</ele><time>2026-04-11T13:41:31.002Z</time></trkpt><trkpt lat="44.8354267" lon="9.4563833"><ele>389.79999999999995</ele><time>2026-04-11T13:41:33.001Z</time></trkpt><trkpt lat="44.8353333" lon="9.456385"><ele>389.4</ele><time>2026-04-11T13:41:34.002Z</time></trkpt><trkpt lat="44.8352433" lon="9.4563633"><ele>389.0</ele><time>2026-04-11T13:41:35.002Z</time></trkpt><trkpt lat="44.8351583" lon="9.45633"><ele>388.8333333333333</ele><time>2026-04-11T13:41:36.002Z</time></trkpt><trkpt lat="44.835075" lon="9.4562983"><ele>388.66666666666663</ele><time>2026-04-11T13:41:37.002Z</time></trkpt><trkpt lat="44.8349883" lon="9.456285"><ele>388.5</ele><time>2026-04-11T13:41:38.001Z</time></trkpt><trkpt lat="44.834915" lon="9.4562933"><ele>388.33333333333337</ele><time>2026-04-11T13:41:39.002Z</time></trkpt><trkpt lat="44.834845" lon="9.45632"><ele>388.1666666666667</ele><time>2026-04-11T13:41:40.002Z</time></trkpt><trkpt lat="44.8347767" lon="9.4563567"><ele>388.0</ele><time>2026-04-11T13:41:41.001Z</time></trkpt><trkpt lat="44.8347083" lon="9.4563817"><ele>388.0</ele><time>2026-04-11T13:41:42.002Z</time></trkpt><trkpt lat="44.8345967" lon="9.4563417"><ele>388.0</ele><time>2026-04-11T13:41:44.001Z</time></trkpt><trkpt lat="44.834495" lon="9.4562483"><ele>388.0</ele><time>2026-04-11T13:41:46.001Z</time></trkpt><trkpt lat="44.8343717" lon="9.4562083"><ele>388.0</ele><time>2026-04-11T13:41:48.002Z</time></trkpt><trkpt lat="44.8343033" lon="9.4562233"><ele>388.0</ele><time>2026-04-11T13:41:49.001Z</time></trkpt><trkpt lat="44.834235" lon="9.4562433"><ele>387.57142857142856</ele><time>2026-04-11T13:41:50.002Z</time></trkpt><trkpt lat="44.8341617" lon="9.456255"><ele>387.14285714285717</ele><time>2026-04-11T13:41:51.002Z</time></trkpt><trkpt lat="44.8340833" lon="9.4562683"><ele>386.7142857142857</ele><time>2026-04-11T13:41:52.001Z</time></trkpt><trkpt lat="44.8340067" lon="9.45629"><ele>386.2857142857143</ele><time>2026-04-11T13:41:53.001Z</time></trkpt><trkpt lat="44.8339283" lon="9.4563117"><ele>385.8571428571429</ele><time>2026-04-11T13:41:54.004Z</time></trkpt><trkpt lat="44.83386" lon="9.4563117"><ele>385.42857142857144</ele><time>2026-04-11T13:41:55.001Z</time></trkpt><trkpt lat="44.8337967" lon="9.4562983"><ele>385.0</ele><time>2026-04-11T13:41:56.002Z</time></trkpt><trkpt lat="44.8336883" lon="9.45628"><ele>385.00000000000006</ele><time>2026-04-11T13:41:58.002Z</time></trkpt><trkpt lat="44.83359" lon="9.45627"><ele>385.0</ele><time>2026-04-11T13:42:00.002Z</time></trkpt><trkpt lat="44.8335217" lon="9.4562467"><ele>385.0</ele><time>2026-04-11T13:42:02.002Z</time></trkpt><trkpt lat="44.83343" lon="9.4562267"><ele>385.0</ele><time>2026-04-11T13:42:05.004Z</time></trkpt><trkpt lat="44.83334" lon="9.4562733"><ele>385.00000000000006</ele><time>2026-04-11T13:42:07.002Z</time></trkpt><trkpt lat="44.83328" lon="9.45631"><ele>385.0</ele><time>2026-04-11T13:42:08.002Z</time></trkpt><trkpt lat="44.833215" lon="9.45636"><ele>381.6666666666667</ele><time>2026-04-11T13:42:09.002Z</time></trkpt><trkpt lat="44.833145" lon="9.4564233"><ele>378.33333333333337</ele><time>2026-04-11T13:42:10.002Z</time></trkpt><trkpt lat="44.8330717" lon="9.4564783"><ele>375.0</ele><time>2026-04-11T13:42:11.003Z</time></trkpt><trkpt lat="44.8330017" lon="9.4565317"><ele>371.6666666666667</ele><time>2026-04-11T13:42:12.004Z</time></trkpt><trkpt lat="44.8329333" lon="9.4565717"><ele>368.33333333333337</ele><time>2026-04-11T13:42:13.002Z</time></trkpt><trkpt lat="44.8328667" lon="9.456585"><ele>365.0</ele><time>2026-04-11T13:42:14.001Z</time></trkpt><trkpt lat="44.832795" lon="9.4565883"><ele>365.00000000000006</ele><time>2026-04-11T13:42:15.002Z</time></trkpt><trkpt lat="44.83273" lon="9.4566033"><ele>365.0</ele><time>2026-04-11T13:42:16.002Z</time></trkpt><trkpt lat="44.8326617" lon="9.45662"><ele>365.0</ele><time>2026-04-11T13:42:17.001Z</time></trkpt><trkpt lat="44.8325833" lon="9.456635"><ele>365.0</ele><time>2026-04-11T13:42:18.001Z</time></trkpt><trkpt lat="44.832505" lon="9.45666"><ele>365.0</ele><time>2026-04-11T13:42:19.001Z</time></trkpt><trkpt lat="44.8324367" lon="9.4566883"><ele>365.00000000000006</ele><time>2026-04-11T13:42:20.002Z</time></trkpt><trkpt lat="44.8323733" lon="9.4567167"><ele>365.0</ele><time>2026-04-11T13:42:21.002Z</time></trkpt><trkpt lat="44.8323067" lon="9.4567383"><ele>364.8</ele><time>2026-04-11T13:42:22.001Z</time></trkpt><trkpt lat="44.8322283" lon="9.45674"><ele>364.6</ele><time>2026-04-11T13:42:23.002Z</time></trkpt><trkpt lat="44.8321333" lon="9.45672"><ele>364.4</ele><time>2026-04-11T13:42:24.001Z</time></trkpt><trkpt lat="44.832045" lon="9.4567033"><ele>364.2</ele><time>2026-04-11T13:42:25.001Z</time></trkpt><trkpt lat="44.83195" lon="9.4566967"><ele>364.0</ele><time>2026-04-11T13:42:26.001Z</time></trkpt><trkpt lat="44.831845" lon="9.4566967"><ele>363.8333333333333</ele><time>2026-04-11T13:42:27.003Z</time></trkpt><trkpt lat="44.8317367" lon="9.4566983"><ele>363.66666666666663</ele><time>2026-04-11T13:42:28.001Z</time></trkpt><trkpt lat="44.83164" lon="9.4566933"><ele>363.5</ele><time>2026-04-11T13:42:29.001Z</time></trkpt><trkpt lat="44.83156" lon="9.4566883"><ele>363.3333333333333</ele><time>2026-04-11T13:42:30.002Z</time></trkpt><trkpt lat="44.8314883" lon="9.4567"><ele>363.1666666666667</ele><time>2026-04-11T13:42:31.001Z</time></trkpt><trkpt lat="44.8314217" lon="9.456735"><ele>363.0</ele><time>2026-04-11T13:42:32.001Z</time></trkpt><trkpt lat="44.8313467" lon="9.4567917"><ele>363.0</ele><time>2026-04-11T13:42:33.001Z</time></trkpt><trkpt lat="44.8312683" lon="9.4568633"><ele>363.0</ele><time>2026-04-11T13:42:34.001Z</time></trkpt><trkpt lat="44.8311883" lon="9.4569517"><ele>363.0</ele><time>2026-04-11T13:42:35.002Z</time></trkpt><trkpt lat="44.83112" lon="9.457035"><ele>363.0</ele><time>2026-04-11T13:42:36.002Z</time></trkpt><trkpt lat="44.8310533" lon="9.4571017"><ele>363.0</ele><time>2026-04-11T13:42:37.001Z</time></trkpt><trkpt lat="44.8309783" lon="9.4571517"><ele>361.4</ele><time>2026-04-11T13:42:38.001Z</time></trkpt><trkpt lat="44.8308917" lon="9.457185"><ele>359.79999999999995</ele><time>2026-04-11T13:42:39.002Z</time></trkpt><trkpt lat="44.8307883" lon="9.457205"><ele>358.2</ele><time>2026-04-11T13:42:40.002Z</time></trkpt><trkpt lat="44.8306883" lon="9.4572233"><ele>356.6</ele><time>2026-04-11T13:42:41.002Z</time></trkpt><trkpt lat="44.8305917" lon="9.45724"><ele>355.0</ele><time>2026-04-11T13:42:42.001Z</time></trkpt><trkpt lat="44.8304983" lon="9.45724"><ele>355.0</ele><time>2026-04-11T13:42:43.002Z</time></trkpt><trkpt lat="44.8304033" lon="9.4572083"><ele>355.0</ele><time>2026-04-11T13:42:44.001Z</time></trkpt><trkpt lat="44.8302867" lon="9.457165"><ele>355.0</ele><time>2026-04-11T13:42:45.002Z</time></trkpt><trkpt lat="44.8301683" lon="9.4571133"><ele>355.0</ele><time>2026-04-11T13:42:46.001Z</time></trkpt><trkpt lat="44.8300583" lon="9.45706"><ele>356.25</ele><time>2026-04-11T13:42:47.001Z</time></trkpt><trkpt lat="44.829955" lon="9.4569917"><ele>357.5</ele><time>2026-04-11T13:42:48.003Z</time></trkpt><trkpt lat="44.8298533" lon="9.45692"><ele>358.75</ele><time>2026-04-11T13:42:49.003Z</time></trkpt><trkpt lat="44.829745" lon="9.456865"><ele>360.0</ele><time>2026-04-11T13:42:50.001Z</time></trkpt><trkpt lat="44.82964" lon="9.4568067"><ele>360.0</ele><time>2026-04-11T13:42:51.002Z</time></trkpt><trkpt lat="44.8295383" lon="9.4567483"><ele>360.0</ele><time>2026-04-11T13:42:52.001Z</time></trkpt><trkpt lat="44.8294267" lon="9.4566933"><ele>360.0</ele><time>2026-04-11T13:42:53.003Z</time></trkpt><trkpt lat="44.8293033" lon="9.4566533"><ele>360.0</ele><time>2026-04-11T13:42:54.002Z</time></trkpt><trkpt lat="44.82918" lon="9.4566283"><ele>358.4</ele><time>2026-04-11T13:42:55.002Z</time></trkpt><trkpt lat="44.8290617" lon="9.456605"><ele>356.8</ele><time>2026-04-11T13:42:56.002Z</time></trkpt><trkpt lat="44.8289517" lon="9.4565867"><ele>355.20000000000005</ele><time>2026-04-11T13:42:57.003Z</time></trkpt><trkpt lat="44.8288583" lon="9.4565733"><ele>353.6</ele><time>2026-04-11T13:42:58.001Z</time></trkpt><trkpt lat="44.8287633" lon="9.4565583"><ele>352.0</ele><time>2026-04-11T13:42:59.001Z</time></trkpt><trkpt lat="44.8286483" lon="9.4565567"><ele>352.0</ele><time>2026-04-11T13:43:00.007Z</time></trkpt><trkpt lat="44.828535" lon="9.456565"><ele>352.0</ele><time>2026-04-11T13:43:01.002Z</time></trkpt><trkpt lat="44.82843" lon="9.4565617"><ele>352.0</ele><time>2026-04-11T13:43:02.002Z</time></trkpt><trkpt lat="44.8283283" lon="9.4565583"><ele>352.0</ele><time>2026-04-11T13:43:03.001Z</time></trkpt><trkpt lat="44.828225" lon="9.4565517"><ele>352.0</ele><time>2026-04-11T13:43:04.001Z</time></trkpt><trkpt lat="44.828115" lon="9.4565283"><ele>349.75</ele><time>2026-04-11T13:43:05.001Z</time></trkpt><trkpt lat="44.827995" lon="9.4564833"><ele>347.5</ele><time>2026-04-11T13:43:06.001Z</time></trkpt><trkpt lat="44.8278683" lon="9.45642"><ele>345.25</ele><time>2026-04-11T13:43:07.001Z</time></trkpt><trkpt lat="44.8277567" lon="9.45635"><ele>343.0</ele><time>2026-04-11T13:43:08.002Z</time></trkpt><trkpt lat="44.82766" lon="9.45629"><ele>344.79999999999995</ele><time>2026-04-11T13:43:09.003Z</time></trkpt><trkpt lat="44.8275683" lon="9.4562417"><ele>346.6</ele><time>2026-04-11T13:43:10.001Z</time></trkpt><trkpt lat="44.8274717" lon="9.4562267"><ele>348.4</ele><time>2026-04-11T13:43:11.002Z</time></trkpt><trkpt lat="44.827375" lon="9.45624"><ele>350.20000000000005</ele><time>2026-04-11T13:43:12.001Z</time></trkpt><trkpt lat="44.8272867" lon="9.4562333"><ele>352.0</ele><time>2026-04-11T13:43:13.001Z</time></trkpt><trkpt lat="44.827205" lon="9.4562067"><ele>352.0</ele><time>2026-04-11T13:43:14.001Z</time></trkpt><trkpt lat="44.82713" lon="9.4561567"><ele>352.0</ele><time>2026-04-11T13:43:15.002Z</time></trkpt><trkpt lat="44.8270633" lon="9.4560733"><ele>352.0</ele><time>2026-04-11T13:43:16.001Z</time></trkpt><trkpt lat="44.8270017" lon="9.4559783"><ele>352.0</ele><time>2026-04-11T13:43:17.002Z</time></trkpt><trkpt lat="44.8269383" lon="9.4558867"><ele>352.0</ele><time>2026-04-11T13:43:18.001Z</time></trkpt><trkpt lat="44.8268817" lon="9.4558067"><ele>352.0</ele><time>2026-04-11T13:43:19.001Z</time></trkpt><trkpt lat="44.8268317" lon="9.4557483"><ele>350.0</ele><time>2026-04-11T13:43:20.002Z</time></trkpt><trkpt lat="44.8267367" lon="9.45571"><ele>348.0</ele><time>2026-04-11T13:43:22.001Z</time></trkpt><trkpt lat="44.8266833" lon="9.4558"><ele>346.0</ele><time>2026-04-11T13:43:24.001Z</time></trkpt><trkpt lat="44.8266833" lon="9.45596"><ele>344.0</ele><time>2026-04-11T13:43:26Z</time></trkpt><trkpt lat="44.8266633" lon="9.4560967"><ele>342.0</ele><time>2026-04-11T13:43:28Z</time></trkpt><trkpt lat="44.8266117" lon="9.4562083"><ele>340.0</ele><time>2026-04-11T13:43:30Z</time></trkpt><trkpt lat="44.8266167" lon="9.4563667"><ele>338.0</ele><time>2026-04-11T13:43:32Z</time></trkpt><trkpt lat="44.8266567" lon="9.4564567"><ele>336.0</ele><time>2026-04-11T13:43:33.003Z</time></trkpt><trkpt lat="44.8266983" lon="9.4565783"><ele>334.0</ele><time>2026-04-11T13:43:34Z</time></trkpt><trkpt lat="44.826735" lon="9.4567433"><ele>332.0</ele><time>2026-04-11T13:43:35Z</time></trkpt><trkpt lat="44.8267533" lon="9.4569367"><ele>330.0</ele><time>2026-04-11T13:43:36Z</time></trkpt><trkpt lat="44.8267517" lon="9.4571517"><ele>328.0</ele><time>2026-04-11T13:43:37Z</time></trkpt><trkpt lat="44.8267383" lon="9.4573683"><ele>326.0</ele><time>2026-04-11T13:43:38Z</time></trkpt><trkpt lat="44.8267133" lon="9.4575767"><ele>326.0</ele><time>2026-04-11T13:43:39.001Z</time></trkpt><trkpt lat="44.8266767" lon="9.4577717"><ele>326.0</ele><time>2026-04-11T13:43:40Z</time></trkpt><trkpt lat="44.8266233" lon="9.4579517"><ele>326.0</ele><time>2026-04-11T13:43:41.001Z</time></trkpt><trkpt lat="44.8265633" lon="9.4581083"><ele>326.0</ele><time>2026-04-11T13:43:42Z</time></trkpt><trkpt lat="44.8265" lon="9.4582367"><ele>324.25</ele><time>2026-04-11T13:43:43.002Z</time></trkpt><trkpt lat="44.8264167" lon="9.45834"><ele>322.5</ele><time>2026-04-11T13:43:44Z</time></trkpt><trkpt lat="44.8262983" lon="9.45843"><ele>320.75</ele><time>2026-04-11T13:43:45.001Z</time></trkpt><trkpt lat="44.8261617" lon="9.4585067"><ele>319.0</ele><time>2026-04-11T13:43:46.001Z</time></trkpt><trkpt lat="44.8260267" lon="9.45857"><ele>318.75</ele><time>2026-04-11T13:43:47Z</time></trkpt><trkpt lat="44.82589" lon="9.4586217"><ele>318.5</ele><time>2026-04-11T13:43:48Z</time></trkpt><trkpt lat="44.8257633" lon="9.45868"><ele>318.25</ele><time>2026-04-11T13:43:49Z</time></trkpt><trkpt lat="44.825645" lon="9.4587433"><ele>318.0</ele><time>2026-04-11T13:43:50.001Z</time></trkpt><trkpt lat="44.8255367" lon="9.4588"><ele>316.6666666666667</ele><time>2026-04-11T13:43:51.001Z</time></trkpt><trkpt lat="44.825445" lon="9.45884"><ele>315.3333333333333</ele><time>2026-04-11T13:43:52.001Z</time></trkpt><trkpt lat="44.8253683" lon="9.4588767"><ele>314.0</ele><time>2026-04-11T13:43:53Z</time></trkpt><trkpt lat="44.8253117" lon="9.458925"><ele>312.66666666666663</ele><time>2026-04-11T13:43:54Z</time></trkpt><trkpt lat="44.8253267" lon="9.4590467"><ele>311.3333333333333</ele><time>2026-04-11T13:43:56.001Z</time></trkpt><trkpt lat="44.8254133" lon="9.4591533"><ele>310.0</ele><time>2026-04-11T13:43:58.002Z</time></trkpt><trkpt lat="44.82544" lon="9.4592967"><ele>310.0</ele><time>2026-04-11T13:44:00Z</time></trkpt><trkpt lat="44.82539" lon="9.4594033"><ele>310.0</ele><time>2026-04-11T13:44:02Z</time></trkpt><trkpt lat="44.8252917" lon="9.459485"><ele>310.0</ele><time>2026-04-11T13:44:04.002Z</time></trkpt><trkpt lat="44.825175" lon="9.4595317"><ele>310.0</ele><time>2026-04-11T13:44:06Z</time></trkpt><trkpt lat="44.8251117" lon="9.4595333"><ele>310.0</ele><time>2026-04-11T13:44:07.001Z</time></trkpt><trkpt lat="44.8250483" lon="9.4595183"><ele>309.3333333333333</ele><time>2026-04-11T13:44:08.001Z</time></trkpt><trkpt lat="44.8249783" lon="9.459495"><ele>308.66666666666663</ele><time>2026-04-11T13:44:09.001Z</time></trkpt><trkpt lat="44.8249" lon="9.459465"><ele>308.0</ele><time>2026-04-11T13:44:10.001Z</time></trkpt><trkpt lat="44.82482" lon="9.4594517"><ele>307.3333333333333</ele><time>2026-04-11T13:44:11.002Z</time></trkpt><trkpt lat="44.8247533" lon="9.4594633"><ele>306.6666666666667</ele><time>2026-04-11T13:44:12Z</time></trkpt><trkpt lat="44.8246867" lon="9.4595033"><ele>306.0</ele><time>2026-04-11T13:44:13.001Z</time></trkpt><trkpt lat="44.82463" lon="9.4595767"><ele>304.6</ele><time>2026-04-11T13:44:14.001Z</time></trkpt><trkpt lat="44.82458" lon="9.459665"><ele>303.20000000000005</ele><time>2026-04-11T13:44:15.001Z</time></trkpt><trkpt lat="44.8245167" lon="9.4597533"><ele>301.79999999999995</ele><time>2026-04-11T13:44:16Z</time></trkpt><trkpt lat="44.8244467" lon="9.4598433"><ele>300.4</ele><time>2026-04-11T13:44:17Z</time></trkpt><trkpt lat="44.82437" lon="9.4599317"><ele>299.0</ele><time>2026-04-11T13:44:18.001Z</time></trkpt><trkpt lat="44.8242917" lon="9.4600167"><ele>297.6666666666667</ele><time>2026-04-11T13:44:19.001Z</time></trkpt><trkpt lat="44.8242167" lon="9.460085"><ele>296.33333333333337</ele><time>2026-04-11T13:44:20Z</time></trkpt><trkpt lat="44.824145" lon="9.4601283"><ele>295.0</ele><time>2026-04-11T13:44:21.001Z</time></trkpt><trkpt lat="44.8240733" lon="9.4601367"><ele>293.6666666666667</ele><time>2026-04-11T13:44:22.001Z</time></trkpt><trkpt lat="44.8239983" lon="9.460115"><ele>292.3333333333333</ele><time>2026-04-11T13:44:23.001Z</time></trkpt><trkpt lat="44.8239217" lon="9.460065"><ele>291.0</ele><time>2026-04-11T13:44:24.001Z</time></trkpt><trkpt lat="44.8238383" lon="9.4600183"><ele>291.0</ele><time>2026-04-11T13:44:25Z</time></trkpt><trkpt lat="44.82376" lon="9.4600083"><ele>291.0</ele><time>2026-04-11T13:44:26Z</time></trkpt><trkpt lat="44.8236783" lon="9.4600317"><ele>291.0</ele><time>2026-04-11T13:44:27.001Z</time></trkpt><trkpt lat="44.8236" lon="9.46007"><ele>291.0</ele><time>2026-04-11T13:44:28Z</time></trkpt><trkpt lat="44.823525" lon="9.4600933"><ele>291.0</ele><time>2026-04-11T13:44:29.001Z</time></trkpt><trkpt lat="44.823455" lon="9.4600833"><ele>291.0</ele><time>2026-04-11T13:44:30.001Z</time></trkpt><trkpt lat="44.8233933" lon="9.4600383"><ele>291.0</ele><time>2026-04-11T13:44:31.001Z</time></trkpt><trkpt lat="44.8233333" lon="9.4599517"><ele>291.0</ele><time>2026-04-11T13:44:32Z</time></trkpt><trkpt lat="44.82328" lon="9.45985"><ele>291.0</ele><time>2026-04-11T13:44:33.001Z</time></trkpt><trkpt lat="44.82323" lon="9.459765"><ele>291.0</ele><time>2026-04-11T13:44:34.001Z</time></trkpt><trkpt lat="44.82318" lon="9.459705"><ele>291.0</ele><time>2026-04-11T13:44:35.001Z</time></trkpt><trkpt lat="44.8231217" lon="9.459655"><ele>291.0</ele><time>2026-04-11T13:44:36Z</time></trkpt><trkpt lat="44.8230583" lon="9.459615"><ele>291.0</ele><time>2026-04-11T13:44:37Z</time></trkpt><trkpt lat="44.8229883" lon="9.4595917"><ele>291.0</ele><time>2026-04-11T13:44:38.002Z</time></trkpt><trkpt lat="44.8229217" lon="9.4595867"><ele>291.0</ele><time>2026-04-11T13:44:39.002Z</time></trkpt><trkpt lat="44.8228083" lon="9.4595933"><ele>291.0</ele><time>2026-04-11T13:44:41.001Z</time></trkpt><trkpt lat="44.82272" lon="9.4596283"><ele>291.0</ele><time>2026-04-11T13:44:43Z</time></trkpt><trkpt lat="44.8226383" lon="9.4597233"><ele>290.3333333333333</ele><time>2026-04-11T13:44:45.001Z</time></trkpt><trkpt lat="44.8225533" lon="9.45986"><ele>289.6666666666667</ele><time>2026-04-11T13:44:47.002Z</time></trkpt><trkpt lat="44.8225083" lon="9.4599317"><ele>289.0</ele><time>2026-04-11T13:44:48.001Z</time></trkpt><trkpt lat="44.82246" lon="9.4600017"><ele>288.33333333333337</ele><time>2026-04-11T13:44:49Z</time></trkpt><trkpt lat="44.8224067" lon="9.4600667"><ele>287.6666666666667</ele><time>2026-04-11T13:44:50Z</time></trkpt><trkpt lat="44.82235" lon="9.4601217"><ele>287.0</ele><time>2026-04-11T13:44:51.002Z</time></trkpt><trkpt lat="44.82229" lon="9.46017"><ele>287.0</ele><time>2026-04-11T13:44:52.001Z</time></trkpt><trkpt lat="44.8222183" lon="9.4602083"><ele>287.0</ele><time>2026-04-11T13:44:53.001Z</time></trkpt><trkpt lat="44.8221417" lon="9.460235"><ele>287.0</ele><time>2026-04-11T13:44:54Z</time></trkpt><trkpt lat="44.8220617" lon="9.4602517"><ele>287.0</ele><time>2026-04-11T13:44:55.001Z</time></trkpt><trkpt lat="44.8219783" lon="9.4602583"><ele>287.0</ele><time>2026-04-11T13:44:56.001Z</time></trkpt><trkpt lat="44.8218933" lon="9.4602617"><ele>287.0</ele><time>2026-04-11T13:44:57.003Z</time></trkpt><trkpt lat="44.8218033" lon="9.4602667"><ele>285.83333333333337</ele><time>2026-04-11T13:44:58Z</time></trkpt><trkpt lat="44.8217167" lon="9.460275"><ele>284.6666666666667</ele><time>2026-04-11T13:44:59.001Z</time></trkpt><trkpt lat="44.821635" lon="9.4602967"><ele>283.5</ele><time>2026-04-11T13:45:00.001Z</time></trkpt><trkpt lat="44.8215517" lon="9.4603367"><ele>282.3333333333333</ele><time>2026-04-11T13:45:01.001Z</time></trkpt><trkpt lat="44.8214767" lon="9.4603983"><ele>281.16666666666663</ele><time>2026-04-11T13:45:02Z</time></trkpt><trkpt lat="44.821415" lon="9.4604783"><ele>280.0</ele><time>2026-04-11T13:45:03.002Z</time></trkpt><trkpt lat="44.8213717" lon="9.4605617"><ele>278.2</ele><time>2026-04-11T13:45:04.001Z</time></trkpt><trkpt lat="44.8213233" lon="9.4606633"><ele>276.4</ele><time>2026-04-11T13:45:06Z</time></trkpt><trkpt lat="44.8212817" lon="9.4607567"><ele>274.6</ele><time>2026-04-11T13:45:09.001Z</time></trkpt><trkpt lat="44.8211933" lon="9.4608967"><ele>272.8</ele><time>2026-04-11T13:45:11.001Z</time></trkpt><trkpt lat="44.821135" lon="9.4609733"><ele>271.0</ele><time>2026-04-11T13:45:12Z</time></trkpt><trkpt lat="44.82107" lon="9.4610517"><ele>271.0</ele><time>2026-04-11T13:45:13.001Z</time></trkpt><trkpt lat="44.8210017" lon="9.4611217"><ele>271.0</ele><time>2026-04-11T13:45:14Z</time></trkpt><trkpt lat="44.8209217" lon="9.4611867"><ele>271.0</ele><time>2026-04-11T13:45:15.001Z</time></trkpt><trkpt lat="44.82084" lon="9.4612483"><ele>271.0</ele><time>2026-04-11T13:45:16.001Z</time></trkpt><trkpt lat="44.82076" lon="9.4613067"><ele>271.0</ele><time>2026-04-11T13:45:17.001Z</time></trkpt><trkpt lat="44.820685" lon="9.461355"><ele>271.0</ele><time>2026-04-11T13:45:18Z</time></trkpt><trkpt lat="44.820615" lon="9.4613983"><ele>270.5</ele><time>2026-04-11T13:45:19.001Z</time></trkpt><trkpt lat="44.8205483" lon="9.4614583"><ele>270.0</ele><time>2026-04-11T13:45:20.001Z</time></trkpt><trkpt lat="44.8204933" lon="9.4615333"><ele>269.5</ele><time>2026-04-11T13:45:21.001Z</time></trkpt><trkpt lat="44.820455" lon="9.4616167"><ele>269.0</ele><time>2026-04-11T13:45:22Z</time></trkpt><trkpt lat="44.820425" lon="9.46171"><ele>268.5</ele><time>2026-04-11T13:45:23Z</time></trkpt><trkpt lat="44.8204083" lon="9.461815"><ele>268.0</ele><time>2026-04-11T13:45:24.002Z</time></trkpt><trkpt lat="44.8204117" lon="9.4619333"><ele>268.0</ele><time>2026-04-11T13:45:25Z</time></trkpt><trkpt lat="44.8203967" lon="9.462045"><ele>268.0</ele><time>2026-04-11T13:45:26Z</time></trkpt><trkpt lat="44.82037" lon="9.4621467"><ele>268.0</ele><time>2026-04-11T13:45:27.002Z</time></trkpt><trkpt lat="44.8203283" lon="9.4622483"><ele>268.0</ele><time>2026-04-11T13:45:28Z</time></trkpt><trkpt lat="44.8202767" lon="9.46235"><ele>268.0</ele><time>2026-04-11T13:45:29Z</time></trkpt><trkpt lat="44.8202233" lon="9.4624683"><ele>268.0</ele><time>2026-04-11T13:45:30.002Z</time></trkpt><trkpt lat="44.8201683" lon="9.462585"><ele>266.0</ele><time>2026-04-11T13:45:31Z</time></trkpt><trkpt lat="44.820115" lon="9.46269"><ele>264.0</ele><time>2026-04-11T13:45:32Z</time></trkpt><trkpt lat="44.8200683" lon="9.4627917"><ele>262.0</ele><time>2026-04-11T13:45:33.002Z</time></trkpt><trkpt lat="44.8200283" lon="9.4628933"><ele>260.0</ele><time>2026-04-11T13:45:34.002Z</time></trkpt><trkpt lat="44.81999" lon="9.4629867"><ele>258.0</ele><time>2026-04-11T13:45:35.001Z</time></trkpt><trkpt lat="44.8199483" lon="9.46307"><ele>256.0</ele><time>2026-04-11T13:45:36.001Z</time></trkpt><trkpt lat="44.8199" lon="9.46314"><ele>253.83333333333331</ele><time>2026-04-11T13:45:37.001Z</time></trkpt><trkpt lat="44.819845" lon="9.46321"><ele>251.66666666666666</ele><time>2026-04-11T13:45:38.001Z</time></trkpt><trkpt lat="44.8197967" lon="9.4632867"><ele>249.5</ele><time>2026-04-11T13:45:39.002Z</time></trkpt><trkpt lat="44.8197617" lon="9.4633633"><ele>247.33333333333331</ele><time>2026-04-11T13:45:40Z</time></trkpt><trkpt lat="44.8196883" lon="9.4634917"><ele>245.16666666666666</ele><time>2026-04-11T13:45:42Z</time></trkpt><trkpt lat="44.8196417" lon="9.46361"><ele>243.0</ele><time>2026-04-11T13:45:44Z</time></trkpt><trkpt lat="44.81965" lon="9.4637617"><ele>241.0</ele><time>2026-04-11T13:45:46.002Z</time></trkpt><trkpt lat="44.8196383" lon="9.4639217"><ele>239.0</ele><time>2026-04-11T13:45:48Z</time></trkpt><trkpt lat="44.81961" lon="9.4640083"><ele>237.0</ele><time>2026-04-11T13:45:49Z</time></trkpt><trkpt lat="44.8195767" lon="9.464105"><ele>235.0</ele><time>2026-04-11T13:45:50.002Z</time></trkpt><trkpt lat="44.819545" lon="9.4642033"><ele>233.0</ele><time>2026-04-11T13:45:51.001Z</time></trkpt><trkpt lat="44.8195233" lon="9.4643067"><ele>231.0</ele><time>2026-04-11T13:45:52Z</time></trkpt><trkpt lat="44.8195133" lon="9.4644033"><ele>231.0</ele><time>2026-04-11T13:45:53Z</time></trkpt><trkpt lat="44.8195167" lon="9.4645"><ele>231.0</ele><time>2026-04-11T13:45:54.001Z</time></trkpt><trkpt lat="44.8195283" lon="9.4645933"><ele>231.0</ele><time>2026-04-11T13:45:55.001Z</time></trkpt><trkpt lat="44.8195367" lon="9.4646867"><ele>231.0</ele><time>2026-04-11T13:45:56Z</time></trkpt><trkpt lat="44.8195183" lon="9.464845"><ele>231.0</ele><time>2026-04-11T13:45:58.002Z</time></trkpt><trkpt lat="44.8195217" lon="9.4649783"><ele>231.0</ele><time>2026-04-11T13:46:00.001Z</time></trkpt><trkpt lat="44.8195" lon="9.4650983"><ele>229.20000000000002</ele><time>2026-04-11T13:46:02.001Z</time></trkpt><trkpt lat="44.8194667" lon="9.4652267"><ele>227.40000000000003</ele><time>2026-04-11T13:46:04.001Z</time></trkpt><trkpt lat="44.81943" lon="9.4653667"><ele>225.6</ele><time>2026-04-11T13:46:06.001Z</time></trkpt><trkpt lat="44.81936" lon="9.4655167"><ele>223.8</ele><time>2026-04-11T13:46:08Z</time></trkpt><trkpt lat="44.81932" lon="9.4655983"><ele>222.0</ele><time>2026-04-11T13:46:09.001Z</time></trkpt><trkpt lat="44.8192833" lon="9.465675"><ele>220.25</ele><time>2026-04-11T13:46:10Z</time></trkpt><trkpt lat="44.8191867" lon="9.46576"><ele>218.5</ele><time>2026-04-11T13:46:12.001Z</time></trkpt><trkpt lat="44.8190683" lon="9.4657517"><ele>216.75</ele><time>2026-04-11T13:46:14.001Z</time></trkpt><trkpt lat="44.81895" lon="9.4657117"><ele>215.0</ele><time>2026-04-11T13:46:16.002Z</time></trkpt><trkpt lat="44.818845" lon="9.4657517"><ele>215.0</ele><time>2026-04-11T13:46:18.001Z</time></trkpt><trkpt lat="44.818825" lon="9.46588"><ele>215.0</ele><time>2026-04-11T13:46:20.002Z</time></trkpt><trkpt lat="44.81879" lon="9.4660017"><ele>215.0</ele><time>2026-04-11T13:46:22Z</time></trkpt><trkpt lat="44.8187033" lon="9.4661"><ele>215.0</ele><time>2026-04-11T13:46:24.001Z</time></trkpt><trkpt lat="44.818665" lon="9.4662367"><ele>215.0</ele><time>2026-04-11T13:46:26Z</time></trkpt><trkpt lat="44.818665" lon="9.4663717"><ele>214.66666666666669</ele><time>2026-04-11T13:46:28Z</time></trkpt><trkpt lat="44.8186383" lon="9.466455"><ele>214.33333333333334</ele><time>2026-04-11T13:46:30.001Z</time></trkpt><trkpt lat="44.8187233" lon="9.4665583"><ele>214.0</ele><time>2026-04-11T13:47:14.001Z</time></trkpt><trkpt lat="44.8187867" lon="9.4666"><ele>213.66666666666669</ele><time>2026-04-11T13:47:19.001Z</time></trkpt><trkpt lat="44.8188333" lon="9.466675"><ele>213.33333333333334</ele><time>2026-04-11T13:47:29.001Z</time></trkpt><trkpt lat="44.8188567" lon="9.4667833"><ele>213.0</ele><time>2026-04-11T13:47:33.001Z</time></trkpt><trkpt lat="44.81883" lon="9.46687"><ele>213.0</ele><time>2026-04-11T13:47:36.001Z</time></trkpt><trkpt lat="44.8187967" lon="9.466995"><ele>213.0</ele><time>2026-04-11T13:47:39.002Z</time></trkpt><trkpt lat="44.818835" lon="9.4671"><ele>213.0</ele><time>2026-04-11T13:47:41.002Z</time></trkpt><trkpt lat="44.8189033" lon="9.4671583"><ele>213.0</ele><time>2026-04-11T13:47:43.001Z</time></trkpt><trkpt lat="44.818985" lon="9.4671717"><ele>213.0</ele><time>2026-04-11T13:47:45.002Z</time></trkpt><trkpt lat="44.8190433" lon="9.4672083"><ele>213.0</ele><time>2026-04-11T13:47:47.001Z</time></trkpt><trkpt lat="44.819065" lon="9.4673333"><ele>213.2</ele><time>2026-04-11T13:47:50.004Z</time></trkpt><trkpt lat="44.8190567" lon="9.4674583"><ele>213.4</ele><time>2026-04-11T13:47:52.004Z</time></trkpt><trkpt lat="44.819055" lon="9.4676067"><ele>213.59999999999997</ele><time>2026-04-11T13:47:54.003Z</time></trkpt><trkpt lat="44.8190617" lon="9.46776"><ele>213.79999999999998</ele><time>2026-04-11T13:47:56.001Z</time></trkpt><trkpt lat="44.8191017" lon="9.4679"><ele>214.0</ele><time>2026-04-11T13:47:58.002Z</time></trkpt><trkpt lat="44.81916" lon="9.4680533"><ele>213.99999999999997</ele><time>2026-04-11T13:48:00.003Z</time></trkpt><trkpt lat="44.819195" lon="9.46813"><ele>214.0</ele><time>2026-04-11T13:48:01.001Z</time></trkpt><trkpt lat="44.8192333" lon="9.4682033"><ele>214.0</ele><time>2026-04-11T13:48:02.002Z</time></trkpt><trkpt lat="44.819265" lon="9.4683467"><ele>214.0</ele><time>2026-04-11T13:48:04.002Z</time></trkpt><trkpt lat="44.8192567" lon="9.46852"><ele>213.99999999999997</ele><time>2026-04-11T13:48:06.001Z</time></trkpt><trkpt lat="44.8192683" lon="9.46862"><ele>214.0</ele><time>2026-04-11T13:48:07.001Z</time></trkpt><trkpt lat="44.8192833" lon="9.468715"><ele>213.49999999999997</ele><time>2026-04-11T13:48:08.002Z</time></trkpt><trkpt lat="44.819295" lon="9.468805"><ele>213.0</ele><time>2026-04-11T13:48:09.003Z</time></trkpt><trkpt lat="44.8193133" lon="9.4689717"><ele>212.5</ele><time>2026-04-11T13:48:11.001Z</time></trkpt><trkpt lat="44.81936" lon="9.46913"><ele>212.0</ele><time>2026-04-11T13:48:13.002Z</time></trkpt><trkpt lat="44.81941" lon="9.46919"><ele>211.49999999999997</ele><time>2026-04-11T13:48:14.001Z</time></trkpt><trkpt lat="44.819465" lon="9.4692483"><ele>211.0</ele><time>2026-04-11T13:48:15.002Z</time></trkpt><trkpt lat="44.8195133" lon="9.4693117"><ele>213.20000000000002</ele><time>2026-04-11T13:48:16.001Z</time></trkpt><trkpt lat="44.8195917" lon="9.4694367"><ele>215.4</ele><time>2026-04-11T13:48:18.002Z</time></trkpt><trkpt lat="44.81962" lon="9.46957"><ele>217.6</ele><time>2026-04-11T13:48:20.002Z</time></trkpt><trkpt lat="44.8196283" lon="9.4697183"><ele>219.8</ele><time>2026-04-11T13:48:22.001Z</time></trkpt><trkpt lat="44.8196933" lon="9.469855"><ele>222.0</ele><time>2026-04-11T13:48:24.002Z</time></trkpt><trkpt lat="44.819745" lon="9.469995"><ele>222.0</ele><time>2026-04-11T13:48:26.001Z</time></trkpt><trkpt lat="44.8197767" lon="9.4700833"><ele>222.0</ele><time>2026-04-11T13:48:27.002Z</time></trkpt><trkpt lat="44.819815" lon="9.4701683"><ele>222.0</ele><time>2026-04-11T13:48:28.002Z</time></trkpt><trkpt lat="44.8198483" lon="9.4703117"><ele>222.0</ele><time>2026-04-11T13:48:30.001Z</time></trkpt><trkpt lat="44.81986" lon="9.470445"><ele>222.0</ele><time>2026-04-11T13:48:32.002Z</time></trkpt><trkpt lat="44.81982" lon="9.4705533"><ele>222.0</ele><time>2026-04-11T13:48:34.003Z</time></trkpt><trkpt lat="44.81974" lon="9.4706117"><ele>221.83333333333334</ele><time>2026-04-11T13:48:36.003Z</time></trkpt><trkpt lat="44.819665" lon="9.47073"><ele>221.66666666666669</ele><time>2026-04-11T13:48:38.001Z</time></trkpt><trkpt lat="44.8196083" lon="9.4708767"><ele>221.5</ele><time>2026-04-11T13:48:40.002Z</time></trkpt><trkpt lat="44.8196" lon="9.4709667"><ele>221.33333333333334</ele><time>2026-04-11T13:48:41.001Z</time></trkpt><trkpt lat="44.819605" lon="9.4710667"><ele>221.16666666666669</ele><time>2026-04-11T13:48:42.001Z</time></trkpt><trkpt lat="44.8196083" lon="9.47116"><ele>221.0</ele><time>2026-04-11T13:48:43.001Z</time></trkpt><trkpt lat="44.81961" lon="9.4713417"><ele>221.33333333333334</ele><time>2026-04-11T13:48:45.002Z</time></trkpt><trkpt lat="44.8196167" lon="9.4715"><ele>221.66666666666669</ele><time>2026-04-11T13:48:47Z</time></trkpt><trkpt lat="44.8195967" lon="9.4716183"><ele>222.0</ele><time>2026-04-11T13:48:49.004Z</time></trkpt><trkpt lat="44.8195633" lon="9.4717"><ele>222.33333333333331</ele><time>2026-04-11T13:48:51.003Z</time></trkpt><trkpt lat="44.8195383" lon="9.47184"><ele>222.66666666666666</ele><time>2026-04-11T13:48:53.003Z</time></trkpt><trkpt lat="44.8195517" lon="9.4719317"><ele>223.0</ele><time>2026-04-11T13:48:54.002Z</time></trkpt><trkpt lat="44.8195717" lon="9.4720217"><ele>222.99999999999997</ele><time>2026-04-11T13:48:55.001Z</time></trkpt><trkpt lat="44.81962" lon="9.4721033"><ele>223.0</ele><time>2026-04-11T13:48:56.001Z</time></trkpt><trkpt lat="44.8196683" lon="9.4721667"><ele>223.0</ele><time>2026-04-11T13:48:57.002Z</time></trkpt><trkpt lat="44.8197217" lon="9.47222"><ele>223.0</ele><time>2026-04-11T13:48:58.001Z</time></trkpt><trkpt lat="44.8197733" lon="9.4722717"><ele>222.99999999999997</ele><time>2026-04-11T13:48:59.001Z</time></trkpt><trkpt lat="44.8198817" lon="9.472325"><ele>223.0</ele><time>2026-04-11T13:49:01.002Z</time></trkpt><trkpt lat="44.8199483" lon="9.472385"><ele>223.0</ele><time>2026-04-11T13:49:03.002Z</time></trkpt><trkpt lat="44.81994" lon="9.4725133"><ele>223.0</ele><time>2026-04-11T13:49:05Z</time></trkpt><trkpt lat="44.81991" lon="9.47269"><ele>223.0</ele><time>2026-04-11T13:49:07.001Z</time></trkpt><trkpt lat="44.8199" lon="9.4727783"><ele>223.0</ele><time>2026-04-11T13:49:08.001Z</time></trkpt><trkpt lat="44.8198743" lon="9.4729402"><ele>223.0</ele><time>2026-04-11T13:49:10.001Z</time></trkpt><trkpt lat="44.8198518" lon="9.4730241"><ele>223.16666666666666</ele><time>2026-04-11T13:49:11.003Z</time></trkpt><trkpt lat="44.8198183" lon="9.4731264"><ele>223.33333333333331</ele><time>2026-04-11T13:49:12.001Z</time></trkpt><trkpt lat="44.8197867" lon="9.4732287"><ele>223.5</ele><time>2026-04-11T13:49:13Z</time></trkpt><trkpt lat="44.8197401" lon="9.4733129"><ele>223.66666666666669</ele><time>2026-04-11T13:49:14Z</time></trkpt><trkpt lat="44.8196909" lon="9.4733719"><ele>223.83333333333334</ele><time>2026-04-11T13:49:15.003Z</time></trkpt><trkpt lat="44.8196012" lon="9.4734703"><ele>224.0</ele><time>2026-04-11T13:49:17.002Z</time></trkpt><trkpt lat="44.8195286" lon="9.4735677"><ele>224.0</ele><time>2026-04-11T13:49:19.003Z</time></trkpt><trkpt lat="44.8194713" lon="9.4737"><ele>223.99999999999997</ele><time>2026-04-11T13:49:21.002Z</time></trkpt><trkpt lat="44.8194139" lon="9.4738491"><ele>223.99999999999997</ele><time>2026-04-11T13:49:23.002Z</time></trkpt><trkpt lat="44.8193781" lon="9.4739842"><ele>224.0</ele><time>2026-04-11T13:49:25.003Z</time></trkpt><trkpt lat="44.8193939" lon="9.474121"><ele>224.0</ele><time>2026-04-11T13:49:27.002Z</time></trkpt><trkpt lat="44.8194039" lon="9.4742228"><ele>224.16666666666669</ele><time>2026-04-11T13:49:29.002Z</time></trkpt><trkpt lat="44.8193935" lon="9.4743455"><ele>224.33333333333334</ele><time>2026-04-11T13:49:32.001Z</time></trkpt><trkpt lat="44.8194017" lon="9.4744469"><ele>224.5</ele><time>2026-04-11T13:49:34Z</time></trkpt><trkpt lat="44.8193946" lon="9.4745591"><ele>224.66666666666669</ele><time>2026-04-11T13:49:36.001Z</time></trkpt><trkpt lat="44.819345" lon="9.4746583"><ele>224.83333333333334</ele><time>2026-04-11T13:49:38.002Z</time></trkpt><trkpt lat="44.8193" lon="9.4747567"><ele>225.0</ele><time>2026-04-11T13:49:40.003Z</time></trkpt><trkpt lat="44.819215" lon="9.4748267"><ele>222.8</ele><time>2026-04-11T13:49:42.001Z</time></trkpt><trkpt lat="44.8191083" lon="9.4748717"><ele>220.6</ele><time>2026-04-11T13:49:44.001Z</time></trkpt><trkpt lat="44.8190067" lon="9.4749483"><ele>218.39999999999998</ele><time>2026-04-11T13:49:46.001Z</time></trkpt><trkpt lat="44.8189417" lon="9.4750467"><ele>216.2</ele><time>2026-04-11T13:49:48.003Z</time></trkpt><trkpt lat="44.81888" lon="9.4751567"><ele>214.0</ele><time>2026-04-11T13:49:50.001Z</time></trkpt><trkpt lat="44.8188083" lon="9.4752717"><ele>213.99999999999997</ele><time>2026-04-11T13:49:52.002Z</time></trkpt><trkpt lat="44.8187867" lon="9.475425"><ele>214.0</ele><time>2026-04-11T13:49:54.001Z</time></trkpt><trkpt lat="44.8187933" lon="9.4755283"><ele>214.0</ele><time>2026-04-11T13:49:57.002Z</time></trkpt><trkpt lat="44.8187983" lon="9.475645"><ele>214.0</ele><time>2026-04-11T13:50:01.002Z</time></trkpt><trkpt lat="44.8187917" lon="9.4757733"><ele>213.99999999999997</ele><time>2026-04-11T13:50:04.001Z</time></trkpt><trkpt lat="44.8187883" lon="9.4759"><ele>214.0</ele><time>2026-04-11T13:50:06.001Z</time></trkpt><trkpt lat="44.8187217" lon="9.4759917"><ele>214.79999999999998</ele><time>2026-04-11T13:50:08.001Z</time></trkpt><trkpt lat="44.81864" lon="9.4761083"><ele>215.59999999999997</ele><time>2026-04-11T13:50:10.004Z</time></trkpt><trkpt lat="44.818595" lon="9.4761783"><ele>216.4</ele><time>2026-04-11T13:50:11.002Z</time></trkpt><trkpt lat="44.8185467" lon="9.4762383"><ele>217.2</ele><time>2026-04-11T13:50:12.001Z</time></trkpt><trkpt lat="44.8184667" lon="9.4763733"><ele>218.0</ele><time>2026-04-11T13:50:14.001Z</time></trkpt><trkpt lat="44.8184033" lon="9.4765017"><ele>216.8</ele><time>2026-04-11T13:50:16.001Z</time></trkpt><trkpt lat="44.818375" lon="9.476635"><ele>215.60000000000002</ele><time>2026-04-11T13:50:18.003Z</time></trkpt><trkpt lat="44.81834" lon="9.4767833"><ele>214.39999999999998</ele><time>2026-04-11T13:50:20.001Z</time></trkpt><trkpt lat="44.818265" lon="9.4769067"><ele>213.2</ele><time>2026-04-11T13:50:22.002Z</time></trkpt><trkpt lat="44.8181967" lon="9.47702"><ele>212.0</ele><time>2026-04-11T13:50:24.002Z</time></trkpt><trkpt lat="44.8181483" lon="9.47711"><ele>212.0</ele><time>2026-04-11T13:50:26.004Z</time></trkpt><trkpt lat="44.8181" lon="9.4772233"><ele>212.0</ele><time>2026-04-11T13:50:28.002Z</time></trkpt><trkpt lat="44.8180333" lon="9.4773533"><ele>212.0</ele><time>2026-04-11T13:50:30.001Z</time></trkpt><trkpt lat="44.8179883" lon="9.4774183"><ele>212.0</ele><time>2026-04-11T13:50:31.001Z</time></trkpt><trkpt lat="44.817915" lon="9.47757"><ele>212.0</ele><time>2026-04-11T13:50:33.002Z</time></trkpt><trkpt lat="44.8178883" lon="9.4776767"><ele>212.0</ele><time>2026-04-11T13:50:34.002Z</time></trkpt><trkpt lat="44.8178633" lon="9.4777883"><ele>212.0</ele><time>2026-04-11T13:50:35.001Z</time></trkpt><trkpt lat="44.817835" lon="9.4778967"><ele>212.0</ele><time>2026-04-11T13:50:36.002Z</time></trkpt><trkpt lat="44.8178167" lon="9.477995"><ele>212.0</ele><time>2026-04-11T13:50:37.001Z</time></trkpt><trkpt lat="44.8178033" lon="9.4780867"><ele>212.0</ele><time>2026-04-11T13:50:38.001Z</time></trkpt><trkpt lat="44.8177917" lon="9.4781883"><ele>212.0</ele><time>2026-04-11T13:50:39.003Z</time></trkpt><trkpt lat="44.81779" lon="9.4782833"><ele>212.0</ele><time>2026-04-11T13:50:40.002Z</time></trkpt><trkpt lat="44.81784" lon="9.47844"><ele>211.83333333333334</ele><time>2026-04-11T13:50:42.001Z</time></trkpt><trkpt lat="44.81788" lon="9.4785283"><ele>211.66666666666669</ele><time>2026-04-11T13:50:43.001Z</time></trkpt><trkpt lat="44.8179217" lon="9.47863"><ele>211.5</ele><time>2026-04-11T13:50:44.001Z</time></trkpt><trkpt lat="44.81797" lon="9.4787283"><ele>211.33333333333331</ele><time>2026-04-11T13:50:45.003Z</time></trkpt><trkpt lat="44.8180283" lon="9.478815"><ele>211.16666666666666</ele><time>2026-04-11T13:50:46.001Z</time></trkpt><trkpt lat="44.8180967" lon="9.47889"><ele>211.0</ele><time>2026-04-11T13:50:47.001Z</time></trkpt><trkpt lat="44.8181517" lon="9.47897"><ele>210.16666666666666</ele><time>2026-04-11T13:50:48.001Z</time></trkpt><trkpt lat="44.8182033" lon="9.4790567"><ele>209.33333333333331</ele><time>2026-04-11T13:50:49.001Z</time></trkpt><trkpt lat="44.81824" lon="9.4791583"><ele>208.5</ele><time>2026-04-11T13:50:50.001Z</time></trkpt><trkpt lat="44.818255" lon="9.479265"><ele>207.66666666666669</ele><time>2026-04-11T13:50:51.002Z</time></trkpt><trkpt lat="44.8182667" lon="9.47938"><ele>206.83333333333334</ele><time>2026-04-11T13:50:52.001Z</time></trkpt><trkpt lat="44.8182833" lon="9.4795067"><ele>206.0</ele><time>2026-04-11T13:50:53.001Z</time></trkpt><trkpt lat="44.8182967" lon="9.4796367"><ele>205.4</ele><time>2026-04-11T13:50:54.002Z</time></trkpt><trkpt lat="44.818315" lon="9.4797733"><ele>204.8</ele><time>2026-04-11T13:50:55.003Z</time></trkpt><trkpt lat="44.8183367" lon="9.4799033"><ele>204.20000000000002</ele><time>2026-04-11T13:50:56.003Z</time></trkpt><trkpt lat="44.8183483" lon="9.4800317"><ele>203.60000000000002</ele><time>2026-04-11T13:50:57.002Z</time></trkpt><trkpt lat="44.81836" lon="9.48017"><ele>203.0</ele><time>2026-04-11T13:50:58.002Z</time></trkpt><trkpt lat="44.8183717" lon="9.48031"><ele>203.0</ele><time>2026-04-11T13:50:59.002Z</time></trkpt><trkpt lat="44.8183833" lon="9.4804283"><ele>203.0</ele><time>2026-04-11T13:51:00.001Z</time></trkpt><trkpt lat="44.8184017" lon="9.4805317"><ele>203.0</ele><time>2026-04-11T13:51:01.002Z</time></trkpt><trkpt lat="44.8184517" lon="9.4806783"><ele>203.0</ele><time>2026-04-11T13:51:03.001Z</time></trkpt><trkpt lat="44.8185467" lon="9.48079"><ele>203.0</ele><time>2026-04-11T13:51:05.001Z</time></trkpt><trkpt lat="44.8186417" lon="9.4809017"><ele>203.16666666666669</ele><time>2026-04-11T13:51:07.002Z</time></trkpt><trkpt lat="44.8186967" lon="9.4809783"><ele>203.33333333333334</ele><time>2026-04-11T13:51:08.001Z</time></trkpt><trkpt lat="44.8187483" lon="9.48106"><ele>203.5</ele><time>2026-04-11T13:51:09.002Z</time></trkpt><trkpt lat="44.8187983" lon="9.481145"><ele>203.66666666666669</ele><time>2026-04-11T13:51:10.001Z</time></trkpt><trkpt lat="44.8188433" lon="9.4812433"><ele>203.83333333333334</ele><time>2026-04-11T13:51:11.001Z</time></trkpt><trkpt lat="44.8188883" lon="9.4813383"><ele>204.0</ele><time>2026-04-11T13:51:12.002Z</time></trkpt><trkpt lat="44.8189367" lon="9.4814217"><ele>204.0</ele><time>2026-04-11T13:51:13.001Z</time></trkpt><trkpt lat="44.8189867" lon="9.4815"><ele>204.0</ele><time>2026-04-11T13:51:14.004Z</time></trkpt><trkpt lat="44.819035" lon="9.4815733"><ele>204.0</ele><time>2026-04-11T13:51:15.002Z</time></trkpt><trkpt lat="44.8191333" lon="9.481675"><ele>204.0</ele><time>2026-04-11T13:51:17.001Z</time></trkpt><trkpt lat="44.8192567" lon="9.4817333"><ele>204.0</ele><time>2026-04-11T13:51:19.003Z</time></trkpt><trkpt lat="44.8193683" lon="9.481795"><ele>205.39999999999998</ele><time>2026-04-11T13:51:21.004Z</time></trkpt><trkpt lat="44.8194533" lon="9.4818717"><ele>206.8</ele><time>2026-04-11T13:51:23.002Z</time></trkpt><trkpt lat="44.8195417" lon="9.4819133"><ele>208.2</ele><time>2026-04-11T13:51:25.004Z</time></trkpt><trkpt lat="44.819625" lon="9.4819517"><ele>209.60000000000002</ele><time>2026-04-11T13:51:27.003Z</time></trkpt><trkpt lat="44.8197417" lon="9.48203"><ele>211.0</ele><time>2026-04-11T13:51:29.002Z</time></trkpt><trkpt lat="44.819835" lon="9.4820783"><ele>211.0</ele><time>2026-04-11T13:51:31.002Z</time></trkpt><trkpt lat="44.8199317" lon="9.4820783"><ele>211.0</ele><time>2026-04-11T13:51:33.002Z</time></trkpt><trkpt lat="44.82004" lon="9.4821033"><ele>211.0</ele><time>2026-04-11T13:51:35.002Z</time></trkpt><trkpt lat="44.8201267" lon="9.4821733"><ele>211.0</ele><time>2026-04-11T13:51:37.003Z</time></trkpt><trkpt lat="44.8201883" lon="9.4823283"><ele>211.0</ele><time>2026-04-11T13:51:39.002Z</time></trkpt><trkpt lat="44.8202" lon="9.4824467"><ele>211.60000000000002</ele><time>2026-04-11T13:51:40.002Z</time></trkpt><trkpt lat="44.82022" lon="9.4825367"><ele>212.2</ele><time>2026-04-11T13:51:41.001Z</time></trkpt><trkpt lat="44.8202983" lon="9.4826567"><ele>212.79999999999998</ele><time>2026-04-11T13:51:43.002Z</time></trkpt><trkpt lat="44.820385" lon="9.4827983"><ele>213.39999999999998</ele><time>2026-04-11T13:51:45.002Z</time></trkpt><trkpt lat="44.8204167" lon="9.4829117"><ele>214.0</ele><time>2026-04-11T13:51:46.002Z</time></trkpt><trkpt lat="44.82045" lon="9.4830333"><ele>214.49999999999997</ele><time>2026-04-11T13:51:47.001Z</time></trkpt><trkpt lat="44.8204767" lon="9.4831483"><ele>215.0</ele><time>2026-04-11T13:51:48.002Z</time></trkpt><trkpt lat="44.8204983" lon="9.4832517"><ele>215.5</ele><time>2026-04-11T13:51:49.001Z</time></trkpt><trkpt lat="44.820525" lon="9.4833533"><ele>216.0</ele><time>2026-04-11T13:51:50.002Z</time></trkpt><trkpt lat="44.8205367" lon="9.4834533"><ele>216.49999999999997</ele><time>2026-04-11T13:51:51.003Z</time></trkpt><trkpt lat="44.82054" lon="9.4835517"><ele>217.0</ele><time>2026-04-11T13:51:52.003Z</time></trkpt><trkpt lat="44.820555" lon="9.48365"><ele>216.99999999999997</ele><time>2026-04-11T13:51:53.003Z</time></trkpt><trkpt lat="44.8205783" lon="9.4837567"><ele>217.0</ele><time>2026-04-11T13:51:54.003Z</time></trkpt><trkpt lat="44.8206133" lon="9.4838633"><ele>217.0</ele><time>2026-04-11T13:51:55.005Z</time></trkpt><trkpt lat="44.8206517" lon="9.4839717"><ele>217.0</ele><time>2026-04-11T13:51:56.003Z</time></trkpt><trkpt lat="44.8206983" lon="9.4840883"><ele>216.99999999999997</ele><time>2026-04-11T13:51:57.003Z</time></trkpt><trkpt lat="44.8207517" lon="9.484205"><ele>217.0</ele><time>2026-04-11T13:51:58.003Z</time></trkpt><trkpt lat="44.820805" lon="9.4843033"><ele>217.33333333333331</ele><time>2026-04-11T13:51:59.002Z</time></trkpt><trkpt lat="44.82087" lon="9.4843867"><ele>217.66666666666666</ele><time>2026-04-11T13:52:00.002Z</time></trkpt><trkpt lat="44.8209267" lon="9.4844467"><ele>218.0</ele><time>2026-04-11T13:52:01.001Z</time></trkpt><trkpt lat="44.8209833" lon="9.4844933"><ele>218.33333333333331</ele><time>2026-04-11T13:52:02.001Z</time></trkpt><trkpt lat="44.8210517" lon="9.4845683"><ele>218.66666666666666</ele><time>2026-04-11T13:52:04.001Z</time></trkpt><trkpt lat="44.8211617" lon="9.4846817"><ele>219.0</ele><time>2026-04-11T13:52:06.002Z</time></trkpt><trkpt lat="44.8212233" lon="9.484765"><ele>221.33333333333334</ele><time>2026-04-11T13:52:07.002Z</time></trkpt><trkpt lat="44.8212867" lon="9.4848433"><ele>223.66666666666669</ele><time>2026-04-11T13:52:08.001Z</time></trkpt><trkpt lat="44.8213533" lon="9.4849167"><ele>226.0</ele><time>2026-04-11T13:52:09.004Z</time></trkpt><trkpt lat="44.821425" lon="9.4849833"><ele>228.33333333333334</ele><time>2026-04-11T13:52:10.002Z</time></trkpt><trkpt lat="44.8214983" lon="9.4850367"><ele>230.66666666666669</ele><time>2026-04-11T13:52:11.001Z</time></trkpt><trkpt lat="44.8215767" lon="9.4850783"><ele>233.0</ele><time>2026-04-11T13:52:12.001Z</time></trkpt><trkpt lat="44.8216633" lon="9.4851217"><ele>233.00000000000003</ele><time>2026-04-11T13:52:13.001Z</time></trkpt><trkpt lat="44.8217483" lon="9.4851717"><ele>233.0</ele><time>2026-04-11T13:52:14.002Z</time></trkpt><trkpt lat="44.82182" lon="9.485225"><ele>233.0</ele><time>2026-04-11T13:52:15.002Z</time></trkpt><trkpt lat="44.8218883" lon="9.485265"><ele>233.0</ele><time>2026-04-11T13:52:16.001Z</time></trkpt><trkpt lat="44.821965" lon="9.4852967"><ele>233.00000000000003</ele><time>2026-04-11T13:52:17.001Z</time></trkpt><trkpt lat="44.8220533" lon="9.4853283"><ele>233.0</ele><time>2026-04-11T13:52:18.001Z</time></trkpt><trkpt lat="44.8221483" lon="9.4853517"><ele>234.60000000000002</ele><time>2026-04-11T13:52:19.002Z</time></trkpt><trkpt lat="44.8222467" lon="9.4853683"><ele>236.20000000000002</ele><time>2026-04-11T13:52:20.002Z</time></trkpt><trkpt lat="44.8223383" lon="9.4853867"><ele>237.8</ele><time>2026-04-11T13:52:21.002Z</time></trkpt><trkpt lat="44.8224367" lon="9.4853983"><ele>239.4</ele><time>2026-04-11T13:52:22.004Z</time></trkpt><trkpt lat="44.82254" lon="9.4853883"><ele>241.0</ele><time>2026-04-11T13:52:23.002Z</time></trkpt><trkpt lat="44.8226467" lon="9.48536"><ele>243.8</ele><time>2026-04-11T13:52:24.002Z</time></trkpt><trkpt lat="44.8227433" lon="9.4853333"><ele>246.60000000000002</ele><time>2026-04-11T13:52:25.002Z</time></trkpt><trkpt lat="44.8228417" lon="9.485325"><ele>249.4</ele><time>2026-04-11T13:52:26.002Z</time></trkpt><trkpt lat="44.822935" lon="9.485335"><ele>252.2</ele><time>2026-04-11T13:52:27.002Z</time></trkpt><trkpt lat="44.8230283" lon="9.4853683"><ele>255.0</ele><time>2026-04-11T13:52:28.002Z</time></trkpt><trkpt lat="44.8231183" lon="9.485425"><ele>255.16666666666666</ele><time>2026-04-11T13:52:29.002Z</time></trkpt><trkpt lat="44.8232083" lon="9.485485"><ele>255.33333333333331</ele><time>2026-04-11T13:52:30Z</time></trkpt><trkpt lat="44.823295" lon="9.485525"><ele>255.5</ele><time>2026-04-11T13:52:31Z</time></trkpt><trkpt lat="44.82337" lon="9.485535"><ele>255.66666666666666</ele><time>2026-04-11T13:52:32.001Z</time></trkpt><trkpt lat="44.82345" lon="9.4855467"><ele>255.83333333333331</ele><time>2026-04-11T13:52:33Z</time></trkpt><trkpt lat="44.82353" lon="9.4855567"><ele>256.0</ele><time>2026-04-11T13:52:34Z</time></trkpt><trkpt lat="44.823635" lon="9.4855967"><ele>259.2</ele><time>2026-04-11T13:52:36Z</time></trkpt><trkpt lat="44.8237133" lon="9.4857417"><ele>262.40000000000003</ele><time>2026-04-11T13:52:38.001Z</time></trkpt><trkpt lat="44.8237433" lon="9.485845"><ele>265.6</ele><time>2026-04-11T13:52:39.002Z</time></trkpt><trkpt lat="44.8237633" lon="9.4859633"><ele>268.8</ele><time>2026-04-11T13:52:40.001Z</time></trkpt><trkpt lat="44.8237833" lon="9.4860817"><ele>272.0</ele><time>2026-04-11T13:52:41.001Z</time></trkpt><trkpt lat="44.823795" lon="9.4862"><ele>271.2</ele><time>2026-04-11T13:52:42.001Z</time></trkpt><trkpt lat="44.8238033" lon="9.4863017"><ele>270.4</ele><time>2026-04-11T13:52:43Z</time></trkpt><trkpt lat="44.823845" lon="9.4864533"><ele>269.6</ele><time>2026-04-11T13:52:45.002Z</time></trkpt><trkpt lat="44.8239083" lon="9.48659"><ele>268.8</ele><time>2026-04-11T13:52:47Z</time></trkpt><trkpt lat="44.823915" lon="9.4866883"><ele>268.0</ele><time>2026-04-11T13:52:49Z</time></trkpt><trkpt lat="44.8238267" lon="9.4867383"><ele>268.0</ele><time>2026-04-11T13:52:51.001Z</time></trkpt><trkpt lat="44.823755" lon="9.4867483"><ele>268.0</ele><time>2026-04-11T13:52:52.001Z</time></trkpt><trkpt lat="44.82367" lon="9.4867633"><ele>268.0</ele><time>2026-04-11T13:52:53.001Z</time></trkpt><trkpt lat="44.8235833" lon="9.4867833"><ele>268.0</ele><time>2026-04-11T13:52:54.001Z</time></trkpt><trkpt lat="44.8235" lon="9.48681"><ele>268.0</ele><time>2026-04-11T13:52:55.002Z</time></trkpt><trkpt lat="44.8234167" lon="9.4868433"><ele>268.0</ele><time>2026-04-11T13:52:56.002Z</time></trkpt><trkpt lat="44.8233383" lon="9.4868867"><ele>265.66666666666663</ele><time>2026-04-11T13:52:57.002Z</time></trkpt><trkpt lat="44.8232667" lon="9.48694"><ele>263.3333333333333</ele><time>2026-04-11T13:52:58Z</time></trkpt><trkpt lat="44.8231967" lon="9.4869883"><ele>261.0</ele><time>2026-04-11T13:52:59.002Z</time></trkpt><trkpt lat="44.823125" lon="9.4870217"><ele>258.6666666666667</ele><time>2026-04-11T13:53:00.002Z</time></trkpt><trkpt lat="44.8230567" lon="9.4870517"><ele>256.33333333333337</ele><time>2026-04-11T13:53:01Z</time></trkpt><trkpt lat="44.8229867" lon="9.4870917"><ele>254.0</ele><time>2026-04-11T13:53:02.004Z</time></trkpt><trkpt lat="44.822905" lon="9.4871433"><ele>253.6</ele><time>2026-04-11T13:53:03.001Z</time></trkpt><trkpt lat="44.82281" lon="9.4872083"><ele>253.2</ele><time>2026-04-11T13:53:04Z</time></trkpt><trkpt lat="44.8227167" lon="9.4872717"><ele>252.79999999999998</ele><time>2026-04-11T13:53:05.001Z</time></trkpt><trkpt lat="44.8226233" lon="9.4873333"><ele>252.39999999999998</ele><time>2026-04-11T13:53:06Z</time></trkpt><trkpt lat="44.8225317" lon="9.4873833"><ele>252.0</ele><time>2026-04-11T13:53:07.001Z</time></trkpt><trkpt lat="44.8224383" lon="9.4874183"><ele>249.6</ele><time>2026-04-11T13:53:08Z</time></trkpt><trkpt lat="44.8223483" lon="9.4874533"><ele>247.2</ele><time>2026-04-11T13:53:09.001Z</time></trkpt><trkpt lat="44.822255" lon="9.4874883"><ele>244.8</ele><time>2026-04-11T13:53:10.001Z</time></trkpt><trkpt lat="44.82216" lon="9.4875133"><ele>242.4</ele><time>2026-04-11T13:53:11Z</time></trkpt><trkpt lat="44.8220633" lon="9.48752"><ele>240.0</ele><time>2026-04-11T13:53:12Z</time></trkpt><trkpt lat="44.8219667" lon="9.4875133"><ele>240.0</ele><time>2026-04-11T13:53:13Z</time></trkpt><trkpt lat="44.8218733" lon="9.4875017"><ele>240.0</ele><time>2026-04-11T13:53:14.001Z</time></trkpt><trkpt lat="44.821785" lon="9.4874917"><ele>240.0</ele><time>2026-04-11T13:53:15.002Z</time></trkpt><trkpt lat="44.821705" lon="9.4874783"><ele>240.0</ele><time>2026-04-11T13:53:16.001Z</time></trkpt><trkpt lat="44.821635" lon="9.4874683"><ele>240.0</ele><time>2026-04-11T13:53:17Z</time></trkpt><trkpt lat="44.8215717" lon="9.4874767"><ele>240.0</ele><time>2026-04-11T13:53:18.002Z</time></trkpt><trkpt lat="44.821465" lon="9.4875583"><ele>238.66666666666666</ele><time>2026-04-11T13:53:20.001Z</time></trkpt><trkpt lat="44.8214217" lon="9.4876383"><ele>237.33333333333331</ele><time>2026-04-11T13:53:21.001Z</time></trkpt><trkpt lat="44.821385" lon="9.487745"><ele>236.0</ele><time>2026-04-11T13:53:22.001Z</time></trkpt><trkpt lat="44.8213533" lon="9.487865"><ele>234.66666666666666</ele><time>2026-04-11T13:53:23.001Z</time></trkpt><trkpt lat="44.8213283" lon="9.4879833"><ele>233.33333333333331</ele><time>2026-04-11T13:53:24.003Z</time></trkpt><trkpt lat="44.8213117" lon="9.48811"><ele>232.0</ele><time>2026-04-11T13:53:25.002Z</time></trkpt><trkpt lat="44.8213" lon="9.488245"><ele>231.33333333333331</ele><time>2026-04-11T13:53:26Z</time></trkpt><trkpt lat="44.821295" lon="9.4883817"><ele>230.66666666666666</ele><time>2026-04-11T13:53:27.001Z</time></trkpt><trkpt lat="44.821295" lon="9.4885117"><ele>230.0</ele><time>2026-04-11T13:53:28.001Z</time></trkpt><trkpt lat="44.8212867" lon="9.4886283"><ele>229.33333333333331</ele><time>2026-04-11T13:53:29.001Z</time></trkpt><trkpt lat="44.8212567" lon="9.4887367"><ele>228.66666666666666</ele><time>2026-04-11T13:53:30Z</time></trkpt><trkpt lat="44.8212067" lon="9.4888267"><ele>228.0</ele><time>2026-04-11T13:53:31Z</time></trkpt><trkpt lat="44.8211317" lon="9.4889117"><ele>227.0</ele><time>2026-04-11T13:53:32.001Z</time></trkpt><trkpt lat="44.821045" lon="9.4889883"><ele>226.0</ele><time>2026-04-11T13:53:33.001Z</time></trkpt><trkpt lat="44.8209533" lon="9.4890617"><ele>225.0</ele><time>2026-04-11T13:53:34.002Z</time></trkpt><trkpt lat="44.8208617" lon="9.48913"><ele>224.0</ele><time>2026-04-11T13:53:35.001Z</time></trkpt><trkpt lat="44.820785" lon="9.4892"><ele>223.0</ele><time>2026-04-11T13:53:36.003Z</time></trkpt><trkpt lat="44.8207183" lon="9.489265"><ele>221.33333333333331</ele><time>2026-04-11T13:53:37Z</time></trkpt><trkpt lat="44.8206517" lon="9.4893117"><ele>219.66666666666666</ele><time>2026-04-11T13:53:38.001Z</time></trkpt><trkpt lat="44.82058" lon="9.4893233"><ele>218.0</ele><time>2026-04-11T13:53:39.001Z</time></trkpt><trkpt lat="44.8205" lon="9.48933"><ele>216.33333333333331</ele><time>2026-04-11T13:53:40.001Z</time></trkpt><trkpt lat="44.8204183" lon="9.4893367"><ele>214.66666666666666</ele><time>2026-04-11T13:53:41.001Z</time></trkpt><trkpt lat="44.8203417" lon="9.4893283"><ele>213.0</ele><time>2026-04-11T13:53:42.001Z</time></trkpt><trkpt lat="44.8202633" lon="9.489305"><ele>213.0</ele><time>2026-04-11T13:53:43Z</time></trkpt><trkpt lat="44.820185" lon="9.4892817"><ele>213.0</ele><time>2026-04-11T13:53:44Z</time></trkpt><trkpt lat="44.820115" lon="9.4892683"><ele>213.0</ele><time>2026-04-11T13:53:45.001Z</time></trkpt><trkpt lat="44.820005" lon="9.4893067"><ele>213.0</ele><time>2026-04-11T13:53:47Z</time></trkpt><trkpt lat="44.819945" lon="9.4894617"><ele>213.0</ele><time>2026-04-11T13:53:49.002Z</time></trkpt><trkpt lat="44.8199283" lon="9.4895617"><ele>210.83333333333334</ele><time>2026-04-11T13:53:50.001Z</time></trkpt><trkpt lat="44.8198983" lon="9.4896667"><ele>208.66666666666669</ele><time>2026-04-11T13:53:51.002Z</time></trkpt><trkpt lat="44.8198517" lon="9.4897617"><ele>206.5</ele><time>2026-04-11T13:53:52.002Z</time></trkpt><trkpt lat="44.8197933" lon="9.4898483"><ele>204.33333333333334</ele><time>2026-04-11T13:53:53.001Z</time></trkpt><trkpt lat="44.8197433" lon="9.4899383"><ele>202.16666666666669</ele><time>2026-04-11T13:53:54.002Z</time></trkpt><trkpt lat="44.8197117" lon="9.4900417"><ele>200.0</ele><time>2026-04-11T13:53:55.002Z</time></trkpt><trkpt lat="44.819705" lon="9.490155"><ele>200.0</ele><time>2026-04-11T13:53:56.001Z</time></trkpt><trkpt lat="44.8197267" lon="9.4902967"><ele>200.0</ele><time>2026-04-11T13:53:57.002Z</time></trkpt><trkpt lat="44.8197467" lon="9.4904617"><ele>200.0</ele><time>2026-04-11T13:53:58.001Z</time></trkpt><trkpt lat="44.8197767" lon="9.4906467"><ele>200.0</ele><time>2026-04-11T13:53:59.001Z</time></trkpt><trkpt lat="44.8197983" lon="9.4908233"><ele>199.25</ele><time>2026-04-11T13:54:00.002Z</time></trkpt><trkpt lat="44.8198267" lon="9.4909983"><ele>198.5</ele><time>2026-04-11T13:54:01.001Z</time></trkpt><trkpt lat="44.8198633" lon="9.4911717"><ele>197.75</ele><time>2026-04-11T13:54:02.001Z</time></trkpt><trkpt lat="44.8199033" lon="9.491345"><ele>197.0</ele><time>2026-04-11T13:54:03.001Z</time></trkpt><trkpt lat="44.8199533" lon="9.491515"><ele>196.33333333333334</ele><time>2026-04-11T13:54:04Z</time></trkpt><trkpt lat="44.82002" lon="9.4916933"><ele>195.66666666666669</ele><time>2026-04-11T13:54:05.002Z</time></trkpt><trkpt lat="44.8200983" lon="9.4918817"><ele>195.0</ele><time>2026-04-11T13:54:06Z</time></trkpt><trkpt lat="44.820175" lon="9.492095"><ele>194.66666666666669</ele><time>2026-04-11T13:54:07Z</time></trkpt><trkpt lat="44.82024" lon="9.4923267"><ele>194.33333333333334</ele><time>2026-04-11T13:54:08Z</time></trkpt><trkpt lat="44.820295" lon="9.492555"><ele>194.0</ele><time>2026-04-11T13:54:09.002Z</time></trkpt><trkpt lat="44.820345" lon="9.4927633"><ele>194.25</ele><time>2026-04-11T13:54:10.001Z</time></trkpt><trkpt lat="44.82041" lon="9.4929517"><ele>194.5</ele><time>2026-04-11T13:54:11Z</time></trkpt><trkpt lat="44.82049" lon="9.4931333"><ele>194.75</ele><time>2026-04-11T13:54:12.001Z</time></trkpt><trkpt lat="44.82056" lon="9.493315"><ele>195.0</ele><time>2026-04-11T13:54:13.001Z</time></trkpt><trkpt lat="44.8206133" lon="9.4935033"><ele>195.0</ele><time>2026-04-11T13:54:14Z</time></trkpt><trkpt lat="44.8206567" lon="9.49369"><ele>195.0</ele><time>2026-04-11T13:54:15.001Z</time></trkpt><trkpt lat="44.8207" lon="9.4938783"><ele>195.0</ele><time>2026-04-11T13:54:16.001Z</time></trkpt><trkpt lat="44.8207383" lon="9.494065"><ele>195.0</ele><time>2026-04-11T13:54:17.001Z</time></trkpt><trkpt lat="44.82079" lon="9.4942567"><ele>194.75</ele><time>2026-04-11T13:54:18Z</time></trkpt><trkpt lat="44.8208517" lon="9.4944383"><ele>194.5</ele><time>2026-04-11T13:54:19Z</time></trkpt><trkpt lat="44.8209183" lon="9.4946017"><ele>194.25</ele><time>2026-04-11T13:54:20.001Z</time></trkpt><trkpt lat="44.8209833" lon="9.4947517"><ele>194.0</ele><time>2026-04-11T13:54:21.001Z</time></trkpt><trkpt lat="44.8210417" lon="9.494885"><ele>194.0</ele><time>2026-04-11T13:54:22.002Z</time></trkpt><trkpt lat="44.8210967" lon="9.4949917"><ele>194.0</ele><time>2026-04-11T13:54:23.004Z</time></trkpt><trkpt lat="44.8211483" lon="9.4950733"><ele>194.0</ele><time>2026-04-11T13:54:24.002Z</time></trkpt><trkpt lat="44.8211917" lon="9.4951383"><ele>194.0</ele><time>2026-04-11T13:54:25.001Z</time></trkpt><trkpt lat="44.8212267" lon="9.4952883"><ele>194.0</ele><time>2026-04-11T13:54:27.001Z</time></trkpt><trkpt lat="44.8212417" lon="9.495465"><ele>194.00000000000003</ele><time>2026-04-11T13:54:29.001Z</time></trkpt><trkpt lat="44.8212717" lon="9.495545"><ele>194.0</ele><time>2026-04-11T13:54:30.002Z</time></trkpt><trkpt lat="44.821315" lon="9.495625"><ele>194.0</ele><time>2026-04-11T13:54:31.002Z</time></trkpt><trkpt lat="44.8213683" lon="9.49572"><ele>194.0</ele><time>2026-04-11T13:54:32.001Z</time></trkpt><trkpt lat="44.8214133" lon="9.4958317"><ele>194.00000000000003</ele><time>2026-04-11T13:54:33.002Z</time></trkpt><trkpt lat="44.82144" lon="9.4959617"><ele>194.0</ele><time>2026-04-11T13:54:34.001Z</time></trkpt><trkpt lat="44.821455" lon="9.4961117"><ele>194.0</ele><time>2026-04-11T13:54:35.002Z</time></trkpt><trkpt lat="44.82146" lon="9.49627"><ele>194.0</ele><time>2026-04-11T13:54:36.001Z</time></trkpt><trkpt lat="44.8214683" lon="9.4964283"><ele>194.0</ele><time>2026-04-11T13:54:37.001Z</time></trkpt><trkpt lat="44.821485" lon="9.49659"><ele>194.0</ele><time>2026-04-11T13:54:38.002Z</time></trkpt><trkpt lat="44.8215" lon="9.4967533"><ele>194.0</ele><time>2026-04-11T13:54:39.002Z</time></trkpt><trkpt lat="44.8215267" lon="9.4969283"><ele>194.0</ele><time>2026-04-11T13:54:40.001Z</time></trkpt><trkpt lat="44.821555" lon="9.4971117"><ele>194.0</ele><time>2026-04-11T13:54:41.001Z</time></trkpt><trkpt lat="44.8215883" lon="9.4972967"><ele>194.0</ele><time>2026-04-11T13:54:42.002Z</time></trkpt><trkpt lat="44.821625" lon="9.4974733"><ele>193.75</ele><time>2026-04-11T13:54:43.001Z</time></trkpt><trkpt lat="44.82166" lon="9.49764"><ele>193.5</ele><time>2026-04-11T13:54:44.002Z</time></trkpt><trkpt lat="44.8217" lon="9.4978117"><ele>193.25</ele><time>2026-04-11T13:54:45.002Z</time></trkpt><trkpt lat="44.8217383" lon="9.49799"><ele>193.0</ele><time>2026-04-11T13:54:46.001Z</time></trkpt><trkpt lat="44.8217783" lon="9.4981617"><ele>193.0</ele><time>2026-04-11T13:54:47Z</time></trkpt><trkpt lat="44.8218217" lon="9.49831"><ele>193.0</ele><time>2026-04-11T13:54:48.001Z</time></trkpt><trkpt lat="44.821865" lon="9.4984467"><ele>193.0</ele><time>2026-04-11T13:54:49.001Z</time></trkpt><trkpt lat="44.82191" lon="9.4985717"><ele>193.0</ele><time>2026-04-11T13:54:50.001Z</time></trkpt><trkpt lat="44.8219567" lon="9.4986933"><ele>193.0</ele><time>2026-04-11T13:54:51.001Z</time></trkpt><trkpt lat="44.8220033" lon="9.4988017"><ele>192.0</ele><time>2026-04-11T13:54:52.002Z</time></trkpt><trkpt lat="44.8220417" lon="9.4989"><ele>192.0</ele><time>2026-04-11T13:54:53.001Z</time></trkpt><trkpt lat="44.822075" lon="9.4989817"><ele>192.0</ele><time>2026-04-11T13:54:54.002Z</time></trkpt><trkpt lat="44.8221117" lon="9.4991033"><ele>192.0</ele><time>2026-04-11T13:54:56.001Z</time></trkpt><trkpt lat="44.82213" lon="9.4991883"><ele>192.0</ele><time>2026-04-11T13:54:59.002Z</time></trkpt></trkseg></trk></gpx>